<?xml version="1.0" encoding="UTF-8" standalone="no" ?>
<gpx xmlns="http://www.topografix.com/GPX/1/1" xmlns:xsi="http://www.w3.org/2001/XMLSchema-instance" xsi:schemaLocation="http://www.topografix.com/GPX/1/1 http://www.topografix.com/GPX/1/1/gpx.xsd" version="1.1" creator="VisuGPX - https://www.visugpx.com">
  <metadata>
    <name>2018-08-14 Bike ride-Chatillon-Limas v39k</name>
    <desc><![CDATA[2018-08-14 Bike ride-Chatillon-Limas v39k]]></desc>
  </metadata>
  <wpt lat="45.92438" lon="4.73731">
    <ele>174</ele>
    <name><![CDATA[2018-08-14 10:27 (Start)]]></name>
  </wpt>
  <wpt lat="45.92459" lon="4.73704">
    <ele>174</ele>
    <name><![CDATA[2018-08-14 10:27 (End)]]></name>
  </wpt>
  <trk>
    <name><![CDATA[2018-08-14 10:27]]></name>
    <trkseg>
      <trkpt lat="45.92438" lon="4.73731">
        <ele>174</ele>
        <time>2018-08-14T08:27:54.151Z</time>
      </trkpt>
      <trkpt lat="45.92461" lon="4.73696">
        <ele>174</ele>
        <time>2018-08-14T08:27:58.787Z</time>
      </trkpt>
      <trkpt lat="45.92459" lon="4.73704">
        <ele>174</ele>
        <time>2018-08-14T08:27:59Z</time>
      </trkpt>
      <trkpt lat="45.92457" lon="4.7371">
        <ele>174</ele>
        <time>2018-08-14T08:28:00Z</time>
      </trkpt>
      <trkpt lat="45.92456" lon="4.73712">
        <ele>174</ele>
        <time>2018-08-14T08:28:01Z</time>
      </trkpt>
      <trkpt lat="45.92456" lon="4.73714">
        <ele>174</ele>
        <time>2018-08-14T08:28:02Z</time>
      </trkpt>
      <trkpt lat="45.92458" lon="4.7371">
        <ele>174</ele>
        <time>2018-08-14T08:28:13Z</time>
      </trkpt>
      <trkpt lat="45.92458" lon="4.7371">
        <ele>174</ele>
        <time>2018-08-14T08:28:14Z</time>
      </trkpt>
      <trkpt lat="45.92464" lon="4.73703">
        <ele>174</ele>
        <time>2018-08-14T08:28:22Z</time>
      </trkpt>
      <trkpt lat="45.92464" lon="4.737">
        <ele>174</ele>
        <time>2018-08-14T08:28:23Z</time>
      </trkpt>
      <trkpt lat="45.92465" lon="4.73693">
        <ele>174</ele>
        <time>2018-08-14T08:28:25Z</time>
      </trkpt>
      <trkpt lat="45.92466" lon="4.7368">
        <ele>174</ele>
        <time>2018-08-14T08:28:26Z</time>
      </trkpt>
      <trkpt lat="45.92469" lon="4.73669">
        <ele>174</ele>
        <time>2018-08-14T08:28:28Z</time>
      </trkpt>
      <trkpt lat="45.9247" lon="4.73666">
        <ele>174</ele>
        <time>2018-08-14T08:28:29Z</time>
      </trkpt>
      <trkpt lat="45.92471" lon="4.73658">
        <ele>174</ele>
        <time>2018-08-14T08:28:30Z</time>
      </trkpt>
      <trkpt lat="45.92471" lon="4.73649">
        <ele>174</ele>
        <time>2018-08-14T08:28:31Z</time>
      </trkpt>
      <trkpt lat="45.92472" lon="4.73644">
        <ele>174</ele>
        <time>2018-08-14T08:28:32Z</time>
      </trkpt>
      <trkpt lat="45.92471" lon="4.73636">
        <ele>174</ele>
        <time>2018-08-14T08:28:33Z</time>
      </trkpt>
      <trkpt lat="45.92469" lon="4.73628">
        <ele>174</ele>
        <time>2018-08-14T08:28:34Z</time>
      </trkpt>
      <trkpt lat="45.92469" lon="4.73621">
        <ele>174</ele>
        <time>2018-08-14T08:28:35Z</time>
      </trkpt>
      <trkpt lat="45.92468" lon="4.73609">
        <ele>174</ele>
        <time>2018-08-14T08:28:37Z</time>
      </trkpt>
      <trkpt lat="45.92467" lon="4.73602">
        <ele>174</ele>
        <time>2018-08-14T08:28:38Z</time>
      </trkpt>
      <trkpt lat="45.92468" lon="4.73591">
        <ele>174</ele>
        <time>2018-08-14T08:28:40Z</time>
      </trkpt>
      <trkpt lat="45.92468" lon="4.73585">
        <ele>174</ele>
        <time>2018-08-14T08:28:41Z</time>
      </trkpt>
      <trkpt lat="45.92466" lon="4.73574">
        <ele>173</ele>
        <time>2018-08-14T08:28:43Z</time>
      </trkpt>
      <trkpt lat="45.92466" lon="4.7357">
        <ele>173</ele>
        <time>2018-08-14T08:28:44Z</time>
      </trkpt>
      <trkpt lat="45.92465" lon="4.7356">
        <ele>173</ele>
        <time>2018-08-14T08:28:46Z</time>
      </trkpt>
      <trkpt lat="45.92465" lon="4.73557">
        <ele>173</ele>
        <time>2018-08-14T08:28:47Z</time>
      </trkpt>
      <trkpt lat="45.92462" lon="4.73546">
        <ele>173</ele>
        <time>2018-08-14T08:28:50Z</time>
      </trkpt>
      <trkpt lat="45.92452" lon="4.73543">
        <ele>174</ele>
        <time>2018-08-14T08:28:51Z</time>
      </trkpt>
      <trkpt lat="45.92447" lon="4.73542">
        <ele>174</ele>
        <time>2018-08-14T08:28:54Z</time>
      </trkpt>
      <trkpt lat="45.92441" lon="4.73546">
        <ele>174</ele>
        <time>2018-08-14T08:28:54Z</time>
      </trkpt>
      <trkpt lat="45.92433" lon="4.73551">
        <ele>174</ele>
        <time>2018-08-14T08:28:56Z</time>
      </trkpt>
      <trkpt lat="45.92428" lon="4.73552">
        <ele>174</ele>
        <time>2018-08-14T08:28:57Z</time>
      </trkpt>
      <trkpt lat="45.92424" lon="4.73555">
        <ele>174</ele>
        <time>2018-08-14T08:28:58Z</time>
      </trkpt>
      <trkpt lat="45.92419" lon="4.73557">
        <ele>174</ele>
        <time>2018-08-14T08:28:59Z</time>
      </trkpt>
      <trkpt lat="45.92415" lon="4.73559">
        <ele>173</ele>
        <time>2018-08-14T08:29:00Z</time>
      </trkpt>
      <trkpt lat="45.92411" lon="4.73561">
        <ele>173</ele>
        <time>2018-08-14T08:29:01Z</time>
      </trkpt>
      <trkpt lat="45.92403" lon="4.73566">
        <ele>173</ele>
        <time>2018-08-14T08:29:03Z</time>
      </trkpt>
      <trkpt lat="45.924" lon="4.73569">
        <ele>173</ele>
        <time>2018-08-14T08:29:04Z</time>
      </trkpt>
      <trkpt lat="45.92396" lon="4.73572">
        <ele>173</ele>
        <time>2018-08-14T08:29:05Z</time>
      </trkpt>
      <trkpt lat="45.92391" lon="4.73574">
        <ele>173</ele>
        <time>2018-08-14T08:29:06Z</time>
      </trkpt>
      <trkpt lat="45.92386" lon="4.73578">
        <ele>173</ele>
        <time>2018-08-14T08:29:07Z</time>
      </trkpt>
      <trkpt lat="45.92381" lon="4.7358">
        <ele>173</ele>
        <time>2018-08-14T08:29:08Z</time>
      </trkpt>
      <trkpt lat="45.92377" lon="4.73583">
        <ele>173</ele>
        <time>2018-08-14T08:29:09Z</time>
      </trkpt>
      <trkpt lat="45.92371" lon="4.73586">
        <ele>173</ele>
        <time>2018-08-14T08:29:10Z</time>
      </trkpt>
      <trkpt lat="45.92367" lon="4.73588">
        <ele>173</ele>
        <time>2018-08-14T08:29:11Z</time>
      </trkpt>
      <trkpt lat="45.92361" lon="4.73591">
        <ele>173</ele>
        <time>2018-08-14T08:29:12Z</time>
      </trkpt>
      <trkpt lat="45.92356" lon="4.73592">
        <ele>173</ele>
        <time>2018-08-14T08:29:13Z</time>
      </trkpt>
      <trkpt lat="45.92351" lon="4.73594">
        <ele>173</ele>
        <time>2018-08-14T08:29:14Z</time>
      </trkpt>
      <trkpt lat="45.92347" lon="4.73598">
        <ele>173</ele>
        <time>2018-08-14T08:29:15Z</time>
      </trkpt>
      <trkpt lat="45.92342" lon="4.736">
        <ele>173</ele>
        <time>2018-08-14T08:29:16Z</time>
      </trkpt>
      <trkpt lat="45.92338" lon="4.73602">
        <ele>172</ele>
        <time>2018-08-14T08:29:17Z</time>
      </trkpt>
      <trkpt lat="45.92333" lon="4.73604">
        <ele>172</ele>
        <time>2018-08-14T08:29:18Z</time>
      </trkpt>
      <trkpt lat="45.92328" lon="4.73608">
        <ele>172</ele>
        <time>2018-08-14T08:29:19Z</time>
      </trkpt>
      <trkpt lat="45.92324" lon="4.73611">
        <ele>172</ele>
        <time>2018-08-14T08:29:20Z</time>
      </trkpt>
      <trkpt lat="45.92319" lon="4.73614">
        <ele>172</ele>
        <time>2018-08-14T08:29:21Z</time>
      </trkpt>
      <trkpt lat="45.92314" lon="4.73617">
        <ele>172</ele>
        <time>2018-08-14T08:29:22Z</time>
      </trkpt>
      <trkpt lat="45.9231" lon="4.73619">
        <ele>172</ele>
        <time>2018-08-14T08:29:23Z</time>
      </trkpt>
      <trkpt lat="45.92306" lon="4.73624">
        <ele>172</ele>
        <time>2018-08-14T08:29:24Z</time>
      </trkpt>
      <trkpt lat="45.92302" lon="4.73627">
        <ele>172</ele>
        <time>2018-08-14T08:29:25Z</time>
      </trkpt>
      <trkpt lat="45.92296" lon="4.73631">
        <ele>172</ele>
        <time>2018-08-14T08:29:26Z</time>
      </trkpt>
      <trkpt lat="45.92291" lon="4.73633">
        <ele>172</ele>
        <time>2018-08-14T08:29:27Z</time>
      </trkpt>
      <trkpt lat="45.92287" lon="4.73635">
        <ele>172</ele>
        <time>2018-08-14T08:29:28Z</time>
      </trkpt>
      <trkpt lat="45.92282" lon="4.73638">
        <ele>172</ele>
        <time>2018-08-14T08:29:29Z</time>
      </trkpt>
      <trkpt lat="45.92279" lon="4.7364">
        <ele>172</ele>
        <time>2018-08-14T08:29:30Z</time>
      </trkpt>
      <trkpt lat="45.92275" lon="4.73643">
        <ele>172</ele>
        <time>2018-08-14T08:29:31Z</time>
      </trkpt>
      <trkpt lat="45.9227" lon="4.73646">
        <ele>172</ele>
        <time>2018-08-14T08:29:32Z</time>
      </trkpt>
      <trkpt lat="45.92264" lon="4.7365">
        <ele>171</ele>
        <time>2018-08-14T08:29:33Z</time>
      </trkpt>
      <trkpt lat="45.92259" lon="4.73655">
        <ele>171</ele>
        <time>2018-08-14T08:29:34Z</time>
      </trkpt>
      <trkpt lat="45.92253" lon="4.73657">
        <ele>171</ele>
        <time>2018-08-14T08:29:35Z</time>
      </trkpt>
      <trkpt lat="45.92247" lon="4.7366">
        <ele>171</ele>
        <time>2018-08-14T08:29:36Z</time>
      </trkpt>
      <trkpt lat="45.92242" lon="4.73662">
        <ele>171</ele>
        <time>2018-08-14T08:29:37Z</time>
      </trkpt>
      <trkpt lat="45.92237" lon="4.73666">
        <ele>171</ele>
        <time>2018-08-14T08:29:38Z</time>
      </trkpt>
      <trkpt lat="45.92232" lon="4.73669">
        <ele>171</ele>
        <time>2018-08-14T08:29:39Z</time>
      </trkpt>
      <trkpt lat="45.92227" lon="4.73672">
        <ele>171</ele>
        <time>2018-08-14T08:29:40Z</time>
      </trkpt>
      <trkpt lat="45.92221" lon="4.73674">
        <ele>171</ele>
        <time>2018-08-14T08:29:41Z</time>
      </trkpt>
      <trkpt lat="45.92216" lon="4.73677">
        <ele>171</ele>
        <time>2018-08-14T08:29:42Z</time>
      </trkpt>
      <trkpt lat="45.9221" lon="4.73679">
        <ele>171</ele>
        <time>2018-08-14T08:29:43Z</time>
      </trkpt>
      <trkpt lat="45.92203" lon="4.73682">
        <ele>171</ele>
        <time>2018-08-14T08:29:44Z</time>
      </trkpt>
      <trkpt lat="45.92198" lon="4.73685">
        <ele>171</ele>
        <time>2018-08-14T08:29:45Z</time>
      </trkpt>
      <trkpt lat="45.9219" lon="4.73688">
        <ele>171</ele>
        <time>2018-08-14T08:29:46Z</time>
      </trkpt>
      <trkpt lat="45.92186" lon="4.73691">
        <ele>171</ele>
        <time>2018-08-14T08:29:47Z</time>
      </trkpt>
      <trkpt lat="45.92181" lon="4.73694">
        <ele>171</ele>
        <time>2018-08-14T08:29:48Z</time>
      </trkpt>
      <trkpt lat="45.92177" lon="4.73696">
        <ele>171</ele>
        <time>2018-08-14T08:29:49Z</time>
      </trkpt>
      <trkpt lat="45.92172" lon="4.73699">
        <ele>171</ele>
        <time>2018-08-14T08:29:50Z</time>
      </trkpt>
      <trkpt lat="45.92169" lon="4.73701">
        <ele>171</ele>
        <time>2018-08-14T08:29:51Z</time>
      </trkpt>
      <trkpt lat="45.92164" lon="4.73703">
        <ele>171</ele>
        <time>2018-08-14T08:29:52Z</time>
      </trkpt>
      <trkpt lat="45.92159" lon="4.73702">
        <ele>171</ele>
        <time>2018-08-14T08:29:53Z</time>
      </trkpt>
      <trkpt lat="45.92154" lon="4.73707">
        <ele>171</ele>
        <time>2018-08-14T08:29:54Z</time>
      </trkpt>
      <trkpt lat="45.92148" lon="4.73709">
        <ele>171</ele>
        <time>2018-08-14T08:29:55Z</time>
      </trkpt>
      <trkpt lat="45.92143" lon="4.73711">
        <ele>171</ele>
        <time>2018-08-14T08:29:56Z</time>
      </trkpt>
      <trkpt lat="45.92138" lon="4.73713">
        <ele>171</ele>
        <time>2018-08-14T08:29:57Z</time>
      </trkpt>
      <trkpt lat="45.92132" lon="4.73714">
        <ele>171</ele>
        <time>2018-08-14T08:29:58Z</time>
      </trkpt>
      <trkpt lat="45.92126" lon="4.73715">
        <ele>171</ele>
        <time>2018-08-14T08:29:59Z</time>
      </trkpt>
      <trkpt lat="45.92121" lon="4.73718">
        <ele>171</ele>
        <time>2018-08-14T08:30:00Z</time>
      </trkpt>
      <trkpt lat="45.92113" lon="4.73719">
        <ele>171</ele>
        <time>2018-08-14T08:30:01Z</time>
      </trkpt>
      <trkpt lat="45.92106" lon="4.73721">
        <ele>171</ele>
        <time>2018-08-14T08:30:02Z</time>
      </trkpt>
      <trkpt lat="45.92101" lon="4.73722">
        <ele>171</ele>
        <time>2018-08-14T08:30:03Z</time>
      </trkpt>
      <trkpt lat="45.92094" lon="4.73723">
        <ele>171</ele>
        <time>2018-08-14T08:30:04Z</time>
      </trkpt>
      <trkpt lat="45.92088" lon="4.73724">
        <ele>171</ele>
        <time>2018-08-14T08:30:05Z</time>
      </trkpt>
      <trkpt lat="45.92082" lon="4.73725">
        <ele>171</ele>
        <time>2018-08-14T08:30:06Z</time>
      </trkpt>
      <trkpt lat="45.92078" lon="4.73725">
        <ele>171</ele>
        <time>2018-08-14T08:30:07Z</time>
      </trkpt>
      <trkpt lat="45.92072" lon="4.73725">
        <ele>171</ele>
        <time>2018-08-14T08:30:08Z</time>
      </trkpt>
      <trkpt lat="45.92067" lon="4.73725">
        <ele>171</ele>
        <time>2018-08-14T08:30:09Z</time>
      </trkpt>
      <trkpt lat="45.9206" lon="4.73726">
        <ele>171</ele>
        <time>2018-08-14T08:30:10Z</time>
      </trkpt>
      <trkpt lat="45.92054" lon="4.73725">
        <ele>171</ele>
        <time>2018-08-14T08:30:11Z</time>
      </trkpt>
      <trkpt lat="45.92049" lon="4.73726">
        <ele>171</ele>
        <time>2018-08-14T08:30:12Z</time>
      </trkpt>
      <trkpt lat="45.92043" lon="4.73726">
        <ele>171</ele>
        <time>2018-08-14T08:30:13Z</time>
      </trkpt>
      <trkpt lat="45.92037" lon="4.73725">
        <ele>171</ele>
        <time>2018-08-14T08:30:14Z</time>
      </trkpt>
      <trkpt lat="45.92031" lon="4.73725">
        <ele>171</ele>
        <time>2018-08-14T08:30:15Z</time>
      </trkpt>
      <trkpt lat="45.92024" lon="4.73726">
        <ele>171</ele>
        <time>2018-08-14T08:30:16Z</time>
      </trkpt>
      <trkpt lat="45.92018" lon="4.73726">
        <ele>171</ele>
        <time>2018-08-14T08:30:17Z</time>
      </trkpt>
      <trkpt lat="45.92012" lon="4.73726">
        <ele>171</ele>
        <time>2018-08-14T08:30:18Z</time>
      </trkpt>
      <trkpt lat="45.92007" lon="4.73725">
        <ele>171</ele>
        <time>2018-08-14T08:30:19Z</time>
      </trkpt>
      <trkpt lat="45.92001" lon="4.73725">
        <ele>171</ele>
        <time>2018-08-14T08:30:20Z</time>
      </trkpt>
      <trkpt lat="45.91995" lon="4.73724">
        <ele>171</ele>
        <time>2018-08-14T08:30:21Z</time>
      </trkpt>
      <trkpt lat="45.91989" lon="4.73724">
        <ele>171</ele>
        <time>2018-08-14T08:30:22Z</time>
      </trkpt>
      <trkpt lat="45.91983" lon="4.73724">
        <ele>171</ele>
        <time>2018-08-14T08:30:23Z</time>
      </trkpt>
      <trkpt lat="45.91978" lon="4.73724">
        <ele>171</ele>
        <time>2018-08-14T08:30:24Z</time>
      </trkpt>
      <trkpt lat="45.91972" lon="4.73724">
        <ele>171</ele>
        <time>2018-08-14T08:30:25Z</time>
      </trkpt>
      <trkpt lat="45.91966" lon="4.73725">
        <ele>171</ele>
        <time>2018-08-14T08:30:26Z</time>
      </trkpt>
      <trkpt lat="45.91961" lon="4.73725">
        <ele>171</ele>
        <time>2018-08-14T08:30:27Z</time>
      </trkpt>
      <trkpt lat="45.91954" lon="4.73726">
        <ele>170</ele>
        <time>2018-08-14T08:30:28Z</time>
      </trkpt>
      <trkpt lat="45.91948" lon="4.73727">
        <ele>170</ele>
        <time>2018-08-14T08:30:29Z</time>
      </trkpt>
      <trkpt lat="45.91943" lon="4.73728">
        <ele>170</ele>
        <time>2018-08-14T08:30:30Z</time>
      </trkpt>
      <trkpt lat="45.91937" lon="4.73728">
        <ele>170</ele>
        <time>2018-08-14T08:30:31Z</time>
      </trkpt>
      <trkpt lat="45.91929" lon="4.73731">
        <ele>170</ele>
        <time>2018-08-14T08:30:32Z</time>
      </trkpt>
      <trkpt lat="45.91922" lon="4.7373">
        <ele>170</ele>
        <time>2018-08-14T08:30:33Z</time>
      </trkpt>
      <trkpt lat="45.91917" lon="4.73732">
        <ele>171</ele>
        <time>2018-08-14T08:30:34Z</time>
      </trkpt>
      <trkpt lat="45.91909" lon="4.73732">
        <ele>171</ele>
        <time>2018-08-14T08:30:35Z</time>
      </trkpt>
      <trkpt lat="45.91903" lon="4.73732">
        <ele>171</ele>
        <time>2018-08-14T08:30:36Z</time>
      </trkpt>
      <trkpt lat="45.91897" lon="4.73732">
        <ele>171</ele>
        <time>2018-08-14T08:30:37Z</time>
      </trkpt>
      <trkpt lat="45.91889" lon="4.73733">
        <ele>171</ele>
        <time>2018-08-14T08:30:38Z</time>
      </trkpt>
      <trkpt lat="45.91884" lon="4.73733">
        <ele>171</ele>
        <time>2018-08-14T08:30:39Z</time>
      </trkpt>
      <trkpt lat="45.91879" lon="4.73733">
        <ele>171</ele>
        <time>2018-08-14T08:30:40Z</time>
      </trkpt>
      <trkpt lat="45.91873" lon="4.73732">
        <ele>171</ele>
        <time>2018-08-14T08:30:41Z</time>
      </trkpt>
      <trkpt lat="45.91867" lon="4.73732">
        <ele>171</ele>
        <time>2018-08-14T08:30:42Z</time>
      </trkpt>
      <trkpt lat="45.9186" lon="4.73733">
        <ele>171</ele>
        <time>2018-08-14T08:30:43Z</time>
      </trkpt>
      <trkpt lat="45.91854" lon="4.73733">
        <ele>171</ele>
        <time>2018-08-14T08:30:44Z</time>
      </trkpt>
      <trkpt lat="45.91847" lon="4.73734">
        <ele>172</ele>
        <time>2018-08-14T08:30:45Z</time>
      </trkpt>
      <trkpt lat="45.9184" lon="4.73732">
        <ele>172</ele>
        <time>2018-08-14T08:30:46Z</time>
      </trkpt>
      <trkpt lat="45.91834" lon="4.73731">
        <ele>172</ele>
        <time>2018-08-14T08:30:47Z</time>
      </trkpt>
      <trkpt lat="45.91828" lon="4.73733">
        <ele>172</ele>
        <time>2018-08-14T08:30:48Z</time>
      </trkpt>
      <trkpt lat="45.91822" lon="4.73731">
        <ele>172</ele>
        <time>2018-08-14T08:30:49Z</time>
      </trkpt>
      <trkpt lat="45.91815" lon="4.73731">
        <ele>172</ele>
        <time>2018-08-14T08:30:50Z</time>
      </trkpt>
      <trkpt lat="45.91808" lon="4.73731">
        <ele>172</ele>
        <time>2018-08-14T08:30:51Z</time>
      </trkpt>
      <trkpt lat="45.91802" lon="4.73731">
        <ele>172</ele>
        <time>2018-08-14T08:30:52Z</time>
      </trkpt>
      <trkpt lat="45.91796" lon="4.73731">
        <ele>172</ele>
        <time>2018-08-14T08:30:53Z</time>
      </trkpt>
      <trkpt lat="45.9179" lon="4.73732">
        <ele>173</ele>
        <time>2018-08-14T08:30:54Z</time>
      </trkpt>
      <trkpt lat="45.91784" lon="4.73732">
        <ele>173</ele>
        <time>2018-08-14T08:30:55Z</time>
      </trkpt>
      <trkpt lat="45.91777" lon="4.73732">
        <ele>173</ele>
        <time>2018-08-14T08:30:56Z</time>
      </trkpt>
      <trkpt lat="45.91771" lon="4.73732">
        <ele>173</ele>
        <time>2018-08-14T08:30:57Z</time>
      </trkpt>
      <trkpt lat="45.91765" lon="4.73732">
        <ele>173</ele>
        <time>2018-08-14T08:30:58Z</time>
      </trkpt>
      <trkpt lat="45.91759" lon="4.73731">
        <ele>173</ele>
        <time>2018-08-14T08:30:59Z</time>
      </trkpt>
      <trkpt lat="45.91753" lon="4.73731">
        <ele>173</ele>
        <time>2018-08-14T08:31:00Z</time>
      </trkpt>
      <trkpt lat="45.91748" lon="4.73732">
        <ele>173</ele>
        <time>2018-08-14T08:31:01Z</time>
      </trkpt>
      <trkpt lat="45.91743" lon="4.73731">
        <ele>173</ele>
        <time>2018-08-14T08:31:02Z</time>
      </trkpt>
      <trkpt lat="45.91738" lon="4.73731">
        <ele>173</ele>
        <time>2018-08-14T08:31:03Z</time>
      </trkpt>
      <trkpt lat="45.91732" lon="4.73732">
        <ele>173</ele>
        <time>2018-08-14T08:31:04Z</time>
      </trkpt>
      <trkpt lat="45.91726" lon="4.73733">
        <ele>173</ele>
        <time>2018-08-14T08:31:05Z</time>
      </trkpt>
      <trkpt lat="45.91721" lon="4.73733">
        <ele>173</ele>
        <time>2018-08-14T08:31:06Z</time>
      </trkpt>
      <trkpt lat="45.91716" lon="4.73734">
        <ele>173</ele>
        <time>2018-08-14T08:31:07Z</time>
      </trkpt>
      <trkpt lat="45.9171" lon="4.73734">
        <ele>173</ele>
        <time>2018-08-14T08:31:08Z</time>
      </trkpt>
      <trkpt lat="45.91704" lon="4.73735">
        <ele>172</ele>
        <time>2018-08-14T08:31:09Z</time>
      </trkpt>
      <trkpt lat="45.91699" lon="4.73735">
        <ele>172</ele>
        <time>2018-08-14T08:31:10Z</time>
      </trkpt>
      <trkpt lat="45.91693" lon="4.73737">
        <ele>172</ele>
        <time>2018-08-14T08:31:11Z</time>
      </trkpt>
      <trkpt lat="45.91688" lon="4.73737">
        <ele>172</ele>
        <time>2018-08-14T08:31:12Z</time>
      </trkpt>
      <trkpt lat="45.91683" lon="4.73736">
        <ele>172</ele>
        <time>2018-08-14T08:31:13Z</time>
      </trkpt>
      <trkpt lat="45.91678" lon="4.73736">
        <ele>172</ele>
        <time>2018-08-14T08:31:14Z</time>
      </trkpt>
      <trkpt lat="45.91672" lon="4.73736">
        <ele>172</ele>
        <time>2018-08-14T08:31:15Z</time>
      </trkpt>
      <trkpt lat="45.91666" lon="4.73736">
        <ele>172</ele>
        <time>2018-08-14T08:31:16Z</time>
      </trkpt>
      <trkpt lat="45.91661" lon="4.73736">
        <ele>172</ele>
        <time>2018-08-14T08:31:17Z</time>
      </trkpt>
      <trkpt lat="45.91655" lon="4.73736">
        <ele>172</ele>
        <time>2018-08-14T08:31:18Z</time>
      </trkpt>
      <trkpt lat="45.9165" lon="4.73737">
        <ele>172</ele>
        <time>2018-08-14T08:31:19Z</time>
      </trkpt>
      <trkpt lat="45.91644" lon="4.73736">
        <ele>172</ele>
        <time>2018-08-14T08:31:20Z</time>
      </trkpt>
      <trkpt lat="45.91638" lon="4.73736">
        <ele>172</ele>
        <time>2018-08-14T08:31:21Z</time>
      </trkpt>
      <trkpt lat="45.91632" lon="4.73736">
        <ele>172</ele>
        <time>2018-08-14T08:31:22Z</time>
      </trkpt>
      <trkpt lat="45.91627" lon="4.73736">
        <ele>172</ele>
        <time>2018-08-14T08:31:23Z</time>
      </trkpt>
      <trkpt lat="45.91621" lon="4.73736">
        <ele>173</ele>
        <time>2018-08-14T08:31:24Z</time>
      </trkpt>
      <trkpt lat="45.91615" lon="4.73735">
        <ele>173</ele>
        <time>2018-08-14T08:31:25Z</time>
      </trkpt>
      <trkpt lat="45.91609" lon="4.73736">
        <ele>173</ele>
        <time>2018-08-14T08:31:26Z</time>
      </trkpt>
      <trkpt lat="45.91602" lon="4.73734">
        <ele>173</ele>
        <time>2018-08-14T08:31:27Z</time>
      </trkpt>
      <trkpt lat="45.91596" lon="4.73733">
        <ele>173</ele>
        <time>2018-08-14T08:31:28Z</time>
      </trkpt>
      <trkpt lat="45.9159" lon="4.73733">
        <ele>173</ele>
        <time>2018-08-14T08:31:29Z</time>
      </trkpt>
      <trkpt lat="45.91584" lon="4.73732">
        <ele>173</ele>
        <time>2018-08-14T08:31:30Z</time>
      </trkpt>
      <trkpt lat="45.91578" lon="4.73733">
        <ele>173</ele>
        <time>2018-08-14T08:31:31Z</time>
      </trkpt>
      <trkpt lat="45.9157" lon="4.73732">
        <ele>173</ele>
        <time>2018-08-14T08:31:32Z</time>
      </trkpt>
      <trkpt lat="45.91565" lon="4.73733">
        <ele>173</ele>
        <time>2018-08-14T08:31:33Z</time>
      </trkpt>
      <trkpt lat="45.91559" lon="4.73732">
        <ele>174</ele>
        <time>2018-08-14T08:31:34Z</time>
      </trkpt>
      <trkpt lat="45.91551" lon="4.73732">
        <ele>174</ele>
        <time>2018-08-14T08:31:35Z</time>
      </trkpt>
      <trkpt lat="45.91544" lon="4.73732">
        <ele>174</ele>
        <time>2018-08-14T08:31:36Z</time>
      </trkpt>
      <trkpt lat="45.91538" lon="4.73732">
        <ele>174</ele>
        <time>2018-08-14T08:31:37Z</time>
      </trkpt>
      <trkpt lat="45.91531" lon="4.73733">
        <ele>174</ele>
        <time>2018-08-14T08:31:38Z</time>
      </trkpt>
      <trkpt lat="45.91525" lon="4.73733">
        <ele>174</ele>
        <time>2018-08-14T08:31:39Z</time>
      </trkpt>
      <trkpt lat="45.91519" lon="4.73732">
        <ele>174</ele>
        <time>2018-08-14T08:31:40Z</time>
      </trkpt>
      <trkpt lat="45.91513" lon="4.73733">
        <ele>174</ele>
        <time>2018-08-14T08:31:41Z</time>
      </trkpt>
      <trkpt lat="45.91505" lon="4.73733">
        <ele>174</ele>
        <time>2018-08-14T08:31:42Z</time>
      </trkpt>
      <trkpt lat="45.915" lon="4.73734">
        <ele>174</ele>
        <time>2018-08-14T08:31:43Z</time>
      </trkpt>
      <trkpt lat="45.91494" lon="4.73733">
        <ele>174</ele>
        <time>2018-08-14T08:31:44Z</time>
      </trkpt>
      <trkpt lat="45.91488" lon="4.73736">
        <ele>174</ele>
        <time>2018-08-14T08:31:45Z</time>
      </trkpt>
      <trkpt lat="45.91482" lon="4.73737">
        <ele>174</ele>
        <time>2018-08-14T08:31:46Z</time>
      </trkpt>
      <trkpt lat="45.91476" lon="4.73737">
        <ele>174</ele>
        <time>2018-08-14T08:31:47Z</time>
      </trkpt>
      <trkpt lat="45.91469" lon="4.73737">
        <ele>174</ele>
        <time>2018-08-14T08:31:48Z</time>
      </trkpt>
      <trkpt lat="45.91463" lon="4.73737">
        <ele>174</ele>
        <time>2018-08-14T08:31:49Z</time>
      </trkpt>
      <trkpt lat="45.91456" lon="4.73737">
        <ele>173</ele>
        <time>2018-08-14T08:31:50Z</time>
      </trkpt>
      <trkpt lat="45.91449" lon="4.73737">
        <ele>173</ele>
        <time>2018-08-14T08:31:51Z</time>
      </trkpt>
      <trkpt lat="45.91442" lon="4.73737">
        <ele>173</ele>
        <time>2018-08-14T08:31:52Z</time>
      </trkpt>
      <trkpt lat="45.91435" lon="4.73737">
        <ele>173</ele>
        <time>2018-08-14T08:31:53Z</time>
      </trkpt>
      <trkpt lat="45.91429" lon="4.73737">
        <ele>173</ele>
        <time>2018-08-14T08:31:54Z</time>
      </trkpt>
      <trkpt lat="45.91422" lon="4.73737">
        <ele>173</ele>
        <time>2018-08-14T08:31:55Z</time>
      </trkpt>
      <trkpt lat="45.91415" lon="4.73737">
        <ele>173</ele>
        <time>2018-08-14T08:31:56Z</time>
      </trkpt>
      <trkpt lat="45.91409" lon="4.73738">
        <ele>173</ele>
        <time>2018-08-14T08:31:57Z</time>
      </trkpt>
      <trkpt lat="45.91403" lon="4.7374">
        <ele>173</ele>
        <time>2018-08-14T08:31:58Z</time>
      </trkpt>
      <trkpt lat="45.91397" lon="4.73739">
        <ele>173</ele>
        <time>2018-08-14T08:31:59Z</time>
      </trkpt>
      <trkpt lat="45.91391" lon="4.73739">
        <ele>173</ele>
        <time>2018-08-14T08:32:00Z</time>
      </trkpt>
      <trkpt lat="45.91385" lon="4.73739">
        <ele>173</ele>
        <time>2018-08-14T08:32:01Z</time>
      </trkpt>
      <trkpt lat="45.91379" lon="4.73739">
        <ele>173</ele>
        <time>2018-08-14T08:32:02Z</time>
      </trkpt>
      <trkpt lat="45.91373" lon="4.73738">
        <ele>173</ele>
        <time>2018-08-14T08:32:03Z</time>
      </trkpt>
      <trkpt lat="45.91368" lon="4.73737">
        <ele>173</ele>
        <time>2018-08-14T08:32:04Z</time>
      </trkpt>
      <trkpt lat="45.91361" lon="4.73736">
        <ele>173</ele>
        <time>2018-08-14T08:32:05Z</time>
      </trkpt>
      <trkpt lat="45.91357" lon="4.73737">
        <ele>173</ele>
        <time>2018-08-14T08:32:06Z</time>
      </trkpt>
      <trkpt lat="45.91351" lon="4.73736">
        <ele>173</ele>
        <time>2018-08-14T08:32:07Z</time>
      </trkpt>
      <trkpt lat="45.91345" lon="4.73738">
        <ele>173</ele>
        <time>2018-08-14T08:32:08Z</time>
      </trkpt>
      <trkpt lat="45.91339" lon="4.73738">
        <ele>173</ele>
        <time>2018-08-14T08:32:09Z</time>
      </trkpt>
      <trkpt lat="45.91332" lon="4.73736">
        <ele>173</ele>
        <time>2018-08-14T08:32:10Z</time>
      </trkpt>
      <trkpt lat="45.91327" lon="4.73738">
        <ele>173</ele>
        <time>2018-08-14T08:32:11Z</time>
      </trkpt>
      <trkpt lat="45.9132" lon="4.73739">
        <ele>174</ele>
        <time>2018-08-14T08:32:12Z</time>
      </trkpt>
      <trkpt lat="45.91315" lon="4.73743">
        <ele>174</ele>
        <time>2018-08-14T08:32:13Z</time>
      </trkpt>
      <trkpt lat="45.9131" lon="4.73743">
        <ele>174</ele>
        <time>2018-08-14T08:32:14Z</time>
      </trkpt>
      <trkpt lat="45.91304" lon="4.73742">
        <ele>174</ele>
        <time>2018-08-14T08:32:15Z</time>
      </trkpt>
      <trkpt lat="45.91298" lon="4.73742">
        <ele>174</ele>
        <time>2018-08-14T08:32:16Z</time>
      </trkpt>
      <trkpt lat="45.91291" lon="4.73741">
        <ele>174</ele>
        <time>2018-08-14T08:32:17Z</time>
      </trkpt>
      <trkpt lat="45.91286" lon="4.73741">
        <ele>174</ele>
        <time>2018-08-14T08:32:18Z</time>
      </trkpt>
      <trkpt lat="45.9128" lon="4.73742">
        <ele>174</ele>
        <time>2018-08-14T08:32:19Z</time>
      </trkpt>
      <trkpt lat="45.91273" lon="4.73742">
        <ele>174</ele>
        <time>2018-08-14T08:32:20Z</time>
      </trkpt>
      <trkpt lat="45.91268" lon="4.73741">
        <ele>174</ele>
        <time>2018-08-14T08:32:21Z</time>
      </trkpt>
      <trkpt lat="45.91261" lon="4.73742">
        <ele>175</ele>
        <time>2018-08-14T08:32:22Z</time>
      </trkpt>
      <trkpt lat="45.91255" lon="4.73742">
        <ele>175</ele>
        <time>2018-08-14T08:32:23Z</time>
      </trkpt>
      <trkpt lat="45.91249" lon="4.73741">
        <ele>175</ele>
        <time>2018-08-14T08:32:24Z</time>
      </trkpt>
      <trkpt lat="45.91244" lon="4.7374">
        <ele>175</ele>
        <time>2018-08-14T08:32:25Z</time>
      </trkpt>
      <trkpt lat="45.91238" lon="4.7374">
        <ele>175</ele>
        <time>2018-08-14T08:32:26Z</time>
      </trkpt>
      <trkpt lat="45.91232" lon="4.7374">
        <ele>175</ele>
        <time>2018-08-14T08:32:27Z</time>
      </trkpt>
      <trkpt lat="45.91227" lon="4.7374">
        <ele>175</ele>
        <time>2018-08-14T08:32:28Z</time>
      </trkpt>
      <trkpt lat="45.91221" lon="4.7374">
        <ele>175</ele>
        <time>2018-08-14T08:32:29Z</time>
      </trkpt>
      <trkpt lat="45.91215" lon="4.73741">
        <ele>175</ele>
        <time>2018-08-14T08:32:30Z</time>
      </trkpt>
      <trkpt lat="45.9121" lon="4.7374">
        <ele>175</ele>
        <time>2018-08-14T08:32:31Z</time>
      </trkpt>
      <trkpt lat="45.91205" lon="4.7374">
        <ele>175</ele>
        <time>2018-08-14T08:32:32Z</time>
      </trkpt>
      <trkpt lat="45.912" lon="4.7374">
        <ele>175</ele>
        <time>2018-08-14T08:32:33Z</time>
      </trkpt>
      <trkpt lat="45.91195" lon="4.73738">
        <ele>175</ele>
        <time>2018-08-14T08:32:34Z</time>
      </trkpt>
      <trkpt lat="45.91191" lon="4.73734">
        <ele>175</ele>
        <time>2018-08-14T08:32:35Z</time>
      </trkpt>
      <trkpt lat="45.91185" lon="4.73731">
        <ele>175</ele>
        <time>2018-08-14T08:32:36Z</time>
      </trkpt>
      <trkpt lat="45.9118" lon="4.73729">
        <ele>175</ele>
        <time>2018-08-14T08:32:37Z</time>
      </trkpt>
      <trkpt lat="45.91175" lon="4.7373">
        <ele>175</ele>
        <time>2018-08-14T08:32:38Z</time>
      </trkpt>
      <trkpt lat="45.91168" lon="4.7373">
        <ele>175</ele>
        <time>2018-08-14T08:32:39Z</time>
      </trkpt>
      <trkpt lat="45.91163" lon="4.73727">
        <ele>175</ele>
        <time>2018-08-14T08:32:40Z</time>
      </trkpt>
      <trkpt lat="45.91158" lon="4.73724">
        <ele>175</ele>
        <time>2018-08-14T08:32:41Z</time>
      </trkpt>
      <trkpt lat="45.91154" lon="4.73718">
        <ele>175</ele>
        <time>2018-08-14T08:32:42Z</time>
      </trkpt>
      <trkpt lat="45.91151" lon="4.73713">
        <ele>174</ele>
        <time>2018-08-14T08:32:43Z</time>
      </trkpt>
      <trkpt lat="45.91147" lon="4.73707">
        <ele>174</ele>
        <time>2018-08-14T08:32:44Z</time>
      </trkpt>
      <trkpt lat="45.91144" lon="4.73701">
        <ele>174</ele>
        <time>2018-08-14T08:32:45Z</time>
      </trkpt>
      <trkpt lat="45.91141" lon="4.73696">
        <ele>174</ele>
        <time>2018-08-14T08:32:46Z</time>
      </trkpt>
      <trkpt lat="45.91138" lon="4.73688">
        <ele>174</ele>
        <time>2018-08-14T08:32:47Z</time>
      </trkpt>
      <trkpt lat="45.91134" lon="4.7368">
        <ele>174</ele>
        <time>2018-08-14T08:32:48Z</time>
      </trkpt>
      <trkpt lat="45.91131" lon="4.73673">
        <ele>174</ele>
        <time>2018-08-14T08:32:49Z</time>
      </trkpt>
      <trkpt lat="45.91129" lon="4.73667">
        <ele>174</ele>
        <time>2018-08-14T08:32:50Z</time>
      </trkpt>
      <trkpt lat="45.91126" lon="4.73661">
        <ele>174</ele>
        <time>2018-08-14T08:32:51Z</time>
      </trkpt>
      <trkpt lat="45.91123" lon="4.73656">
        <ele>174</ele>
        <time>2018-08-14T08:32:52Z</time>
      </trkpt>
      <trkpt lat="45.91121" lon="4.73649">
        <ele>174</ele>
        <time>2018-08-14T08:32:53Z</time>
      </trkpt>
      <trkpt lat="45.91118" lon="4.73643">
        <ele>174</ele>
        <time>2018-08-14T08:32:54Z</time>
      </trkpt>
      <trkpt lat="45.91116" lon="4.73637">
        <ele>174</ele>
        <time>2018-08-14T08:32:55Z</time>
      </trkpt>
      <trkpt lat="45.91113" lon="4.73632">
        <ele>174</ele>
        <time>2018-08-14T08:32:56Z</time>
      </trkpt>
      <trkpt lat="45.9111" lon="4.73625">
        <ele>174</ele>
        <time>2018-08-14T08:32:57Z</time>
      </trkpt>
      <trkpt lat="45.91106" lon="4.7362">
        <ele>174</ele>
        <time>2018-08-14T08:32:58Z</time>
      </trkpt>
      <trkpt lat="45.91104" lon="4.73614">
        <ele>174</ele>
        <time>2018-08-14T08:32:59Z</time>
      </trkpt>
      <trkpt lat="45.91101" lon="4.73608">
        <ele>174</ele>
        <time>2018-08-14T08:33:00Z</time>
      </trkpt>
      <trkpt lat="45.91098" lon="4.73601">
        <ele>174</ele>
        <time>2018-08-14T08:33:01Z</time>
      </trkpt>
      <trkpt lat="45.91095" lon="4.73595">
        <ele>174</ele>
        <time>2018-08-14T08:33:02Z</time>
      </trkpt>
      <trkpt lat="45.91092" lon="4.73589">
        <ele>174</ele>
        <time>2018-08-14T08:33:03Z</time>
      </trkpt>
      <trkpt lat="45.9109" lon="4.73582">
        <ele>174</ele>
        <time>2018-08-14T08:33:04Z</time>
      </trkpt>
      <trkpt lat="45.91087" lon="4.73576">
        <ele>174</ele>
        <time>2018-08-14T08:33:05Z</time>
      </trkpt>
      <trkpt lat="45.91084" lon="4.7357">
        <ele>174</ele>
        <time>2018-08-14T08:33:06Z</time>
      </trkpt>
      <trkpt lat="45.9108" lon="4.73563">
        <ele>174</ele>
        <time>2018-08-14T08:33:07Z</time>
      </trkpt>
      <trkpt lat="45.91077" lon="4.73557">
        <ele>174</ele>
        <time>2018-08-14T08:33:08Z</time>
      </trkpt>
      <trkpt lat="45.91074" lon="4.7355">
        <ele>174</ele>
        <time>2018-08-14T08:33:09Z</time>
      </trkpt>
      <trkpt lat="45.91072" lon="4.73544">
        <ele>174</ele>
        <time>2018-08-14T08:33:10Z</time>
      </trkpt>
      <trkpt lat="45.91068" lon="4.73539">
        <ele>175</ele>
        <time>2018-08-14T08:33:11Z</time>
      </trkpt>
      <trkpt lat="45.91065" lon="4.73532">
        <ele>175</ele>
        <time>2018-08-14T08:33:12Z</time>
      </trkpt>
      <trkpt lat="45.91062" lon="4.73527">
        <ele>175</ele>
        <time>2018-08-14T08:33:13Z</time>
      </trkpt>
      <trkpt lat="45.91059" lon="4.7352">
        <ele>175</ele>
        <time>2018-08-14T08:33:14Z</time>
      </trkpt>
      <trkpt lat="45.91056" lon="4.73513">
        <ele>175</ele>
        <time>2018-08-14T08:33:15Z</time>
      </trkpt>
      <trkpt lat="45.91053" lon="4.73507">
        <ele>175</ele>
        <time>2018-08-14T08:33:16Z</time>
      </trkpt>
      <trkpt lat="45.9105" lon="4.735">
        <ele>175</ele>
        <time>2018-08-14T08:33:17Z</time>
      </trkpt>
      <trkpt lat="45.91047" lon="4.73494">
        <ele>175</ele>
        <time>2018-08-14T08:33:18Z</time>
      </trkpt>
      <trkpt lat="45.91045" lon="4.73488">
        <ele>175</ele>
        <time>2018-08-14T08:33:19Z</time>
      </trkpt>
      <trkpt lat="45.91042" lon="4.73484">
        <ele>175</ele>
        <time>2018-08-14T08:33:20Z</time>
      </trkpt>
      <trkpt lat="45.91038" lon="4.73473">
        <ele>175</ele>
        <time>2018-08-14T08:33:24Z</time>
      </trkpt>
      <trkpt lat="45.91037" lon="4.73469">
        <ele>175</ele>
        <time>2018-08-14T08:33:25Z</time>
      </trkpt>
      <trkpt lat="45.91036" lon="4.73462">
        <ele>175</ele>
        <time>2018-08-14T08:33:27Z</time>
      </trkpt>
      <trkpt lat="45.91036" lon="4.73451">
        <ele>175</ele>
        <time>2018-08-14T08:33:28Z</time>
      </trkpt>
      <trkpt lat="45.91037" lon="4.73439">
        <ele>175</ele>
        <time>2018-08-14T08:33:30Z</time>
      </trkpt>
      <trkpt lat="45.91038" lon="4.73433">
        <ele>175</ele>
        <time>2018-08-14T08:33:31Z</time>
      </trkpt>
      <trkpt lat="45.91037" lon="4.73427">
        <ele>175</ele>
        <time>2018-08-14T08:33:32Z</time>
      </trkpt>
      <trkpt lat="45.91034" lon="4.7342">
        <ele>175</ele>
        <time>2018-08-14T08:33:33Z</time>
      </trkpt>
      <trkpt lat="45.9103" lon="4.73416">
        <ele>174</ele>
        <time>2018-08-14T08:33:34Z</time>
      </trkpt>
      <trkpt lat="45.91025" lon="4.73415">
        <ele>174</ele>
        <time>2018-08-14T08:33:35Z</time>
      </trkpt>
      <trkpt lat="45.91017" lon="4.73417">
        <ele>175</ele>
        <time>2018-08-14T08:33:37Z</time>
      </trkpt>
      <trkpt lat="45.91013" lon="4.73421">
        <ele>175</ele>
        <time>2018-08-14T08:33:38Z</time>
      </trkpt>
      <trkpt lat="45.91008" lon="4.73426">
        <ele>175</ele>
        <time>2018-08-14T08:33:39Z</time>
      </trkpt>
      <trkpt lat="45.91004" lon="4.7343">
        <ele>175</ele>
        <time>2018-08-14T08:33:40Z</time>
      </trkpt>
      <trkpt lat="45.90999" lon="4.73434">
        <ele>175</ele>
        <time>2018-08-14T08:33:41Z</time>
      </trkpt>
      <trkpt lat="45.90994" lon="4.73436">
        <ele>175</ele>
        <time>2018-08-14T08:33:42Z</time>
      </trkpt>
      <trkpt lat="45.90988" lon="4.7344">
        <ele>175</ele>
        <time>2018-08-14T08:33:43Z</time>
      </trkpt>
      <trkpt lat="45.90983" lon="4.73442">
        <ele>175</ele>
        <time>2018-08-14T08:33:44Z</time>
      </trkpt>
      <trkpt lat="45.90977" lon="4.73445">
        <ele>175</ele>
        <time>2018-08-14T08:33:45Z</time>
      </trkpt>
      <trkpt lat="45.90972" lon="4.73447">
        <ele>175</ele>
        <time>2018-08-14T08:33:46Z</time>
      </trkpt>
      <trkpt lat="45.90967" lon="4.73447">
        <ele>175</ele>
        <time>2018-08-14T08:33:47Z</time>
      </trkpt>
      <trkpt lat="45.90962" lon="4.7345">
        <ele>175</ele>
        <time>2018-08-14T08:33:48Z</time>
      </trkpt>
      <trkpt lat="45.90957" lon="4.73452">
        <ele>175</ele>
        <time>2018-08-14T08:33:49Z</time>
      </trkpt>
      <trkpt lat="45.90952" lon="4.73453">
        <ele>175</ele>
        <time>2018-08-14T08:33:50Z</time>
      </trkpt>
      <trkpt lat="45.90948" lon="4.73455">
        <ele>175</ele>
        <time>2018-08-14T08:33:51Z</time>
      </trkpt>
      <trkpt lat="45.90942" lon="4.73457">
        <ele>175</ele>
        <time>2018-08-14T08:33:52Z</time>
      </trkpt>
      <trkpt lat="45.90937" lon="4.73459">
        <ele>175</ele>
        <time>2018-08-14T08:33:53Z</time>
      </trkpt>
      <trkpt lat="45.90932" lon="4.73462">
        <ele>175</ele>
        <time>2018-08-14T08:33:54Z</time>
      </trkpt>
      <trkpt lat="45.90926" lon="4.73464">
        <ele>175</ele>
        <time>2018-08-14T08:33:55Z</time>
      </trkpt>
      <trkpt lat="45.9092" lon="4.73467">
        <ele>175</ele>
        <time>2018-08-14T08:33:56Z</time>
      </trkpt>
      <trkpt lat="45.90915" lon="4.7347">
        <ele>175</ele>
        <time>2018-08-14T08:33:57Z</time>
      </trkpt>
      <trkpt lat="45.9091" lon="4.73472">
        <ele>175</ele>
        <time>2018-08-14T08:33:58Z</time>
      </trkpt>
      <trkpt lat="45.90905" lon="4.73474">
        <ele>175</ele>
        <time>2018-08-14T08:33:59Z</time>
      </trkpt>
      <trkpt lat="45.90901" lon="4.73476">
        <ele>175</ele>
        <time>2018-08-14T08:34:00Z</time>
      </trkpt>
      <trkpt lat="45.90895" lon="4.73478">
        <ele>175</ele>
        <time>2018-08-14T08:34:01Z</time>
      </trkpt>
      <trkpt lat="45.9089" lon="4.73481">
        <ele>175</ele>
        <time>2018-08-14T08:34:02Z</time>
      </trkpt>
      <trkpt lat="45.90885" lon="4.73483">
        <ele>175</ele>
        <time>2018-08-14T08:34:03Z</time>
      </trkpt>
      <trkpt lat="45.90879" lon="4.73485">
        <ele>175</ele>
        <time>2018-08-14T08:34:04Z</time>
      </trkpt>
      <trkpt lat="45.90874" lon="4.73488">
        <ele>175</ele>
        <time>2018-08-14T08:34:05Z</time>
      </trkpt>
      <trkpt lat="45.90868" lon="4.7349">
        <ele>175</ele>
        <time>2018-08-14T08:34:06Z</time>
      </trkpt>
      <trkpt lat="45.90863" lon="4.73494">
        <ele>175</ele>
        <time>2018-08-14T08:34:07Z</time>
      </trkpt>
      <trkpt lat="45.90857" lon="4.73497">
        <ele>174</ele>
        <time>2018-08-14T08:34:08Z</time>
      </trkpt>
      <trkpt lat="45.90852" lon="4.735">
        <ele>174</ele>
        <time>2018-08-14T08:34:09Z</time>
      </trkpt>
      <trkpt lat="45.90846" lon="4.73503">
        <ele>174</ele>
        <time>2018-08-14T08:34:10Z</time>
      </trkpt>
      <trkpt lat="45.9084" lon="4.73505">
        <ele>174</ele>
        <time>2018-08-14T08:34:11Z</time>
      </trkpt>
      <trkpt lat="45.90834" lon="4.73507">
        <ele>174</ele>
        <time>2018-08-14T08:34:12Z</time>
      </trkpt>
      <trkpt lat="45.90828" lon="4.73509">
        <ele>175</ele>
        <time>2018-08-14T08:34:13Z</time>
      </trkpt>
      <trkpt lat="45.90822" lon="4.73511">
        <ele>175</ele>
        <time>2018-08-14T08:34:14Z</time>
      </trkpt>
      <trkpt lat="45.90817" lon="4.73517">
        <ele>175</ele>
        <time>2018-08-14T08:34:15Z</time>
      </trkpt>
      <trkpt lat="45.90812" lon="4.73518">
        <ele>175</ele>
        <time>2018-08-14T08:34:16Z</time>
      </trkpt>
      <trkpt lat="45.90806" lon="4.73519">
        <ele>175</ele>
        <time>2018-08-14T08:34:17Z</time>
      </trkpt>
      <trkpt lat="45.908" lon="4.73521">
        <ele>175</ele>
        <time>2018-08-14T08:34:18Z</time>
      </trkpt>
      <trkpt lat="45.90795" lon="4.73523">
        <ele>175</ele>
        <time>2018-08-14T08:34:19Z</time>
      </trkpt>
      <trkpt lat="45.9079" lon="4.73526">
        <ele>176</ele>
        <time>2018-08-14T08:34:20Z</time>
      </trkpt>
      <trkpt lat="45.90784" lon="4.73529">
        <ele>176</ele>
        <time>2018-08-14T08:34:21Z</time>
      </trkpt>
      <trkpt lat="45.90778" lon="4.7353">
        <ele>176</ele>
        <time>2018-08-14T08:34:22Z</time>
      </trkpt>
      <trkpt lat="45.90773" lon="4.73533">
        <ele>176</ele>
        <time>2018-08-14T08:34:23Z</time>
      </trkpt>
      <trkpt lat="45.90768" lon="4.73536">
        <ele>176</ele>
        <time>2018-08-14T08:34:24Z</time>
      </trkpt>
      <trkpt lat="45.90762" lon="4.7354">
        <ele>176</ele>
        <time>2018-08-14T08:34:25Z</time>
      </trkpt>
      <trkpt lat="45.90757" lon="4.73541">
        <ele>176</ele>
        <time>2018-08-14T08:34:26Z</time>
      </trkpt>
      <trkpt lat="45.90751" lon="4.73544">
        <ele>176</ele>
        <time>2018-08-14T08:34:27Z</time>
      </trkpt>
      <trkpt lat="45.90746" lon="4.73546">
        <ele>177</ele>
        <time>2018-08-14T08:34:28Z</time>
      </trkpt>
      <trkpt lat="45.9074" lon="4.73549">
        <ele>178</ele>
        <time>2018-08-14T08:34:29Z</time>
      </trkpt>
      <trkpt lat="45.90735" lon="4.73552">
        <ele>178</ele>
        <time>2018-08-14T08:34:30Z</time>
      </trkpt>
      <trkpt lat="45.90729" lon="4.73555">
        <ele>178</ele>
        <time>2018-08-14T08:34:31Z</time>
      </trkpt>
      <trkpt lat="45.90724" lon="4.73558">
        <ele>178</ele>
        <time>2018-08-14T08:34:32Z</time>
      </trkpt>
      <trkpt lat="45.90719" lon="4.7356">
        <ele>178</ele>
        <time>2018-08-14T08:34:33Z</time>
      </trkpt>
      <trkpt lat="45.90714" lon="4.73561">
        <ele>178</ele>
        <time>2018-08-14T08:34:34Z</time>
      </trkpt>
      <trkpt lat="45.90709" lon="4.73563">
        <ele>178</ele>
        <time>2018-08-14T08:34:35Z</time>
      </trkpt>
      <trkpt lat="45.90704" lon="4.73565">
        <ele>178</ele>
        <time>2018-08-14T08:34:36Z</time>
      </trkpt>
      <trkpt lat="45.90699" lon="4.73567">
        <ele>178</ele>
        <time>2018-08-14T08:34:37Z</time>
      </trkpt>
      <trkpt lat="45.90694" lon="4.73569">
        <ele>178</ele>
        <time>2018-08-14T08:34:38Z</time>
      </trkpt>
      <trkpt lat="45.90689" lon="4.73572">
        <ele>178</ele>
        <time>2018-08-14T08:34:39Z</time>
      </trkpt>
      <trkpt lat="45.90684" lon="4.73574">
        <ele>179</ele>
        <time>2018-08-14T08:34:40Z</time>
      </trkpt>
      <trkpt lat="45.90679" lon="4.73576">
        <ele>179</ele>
        <time>2018-08-14T08:34:41Z</time>
      </trkpt>
      <trkpt lat="45.90674" lon="4.73577">
        <ele>179</ele>
        <time>2018-08-14T08:34:42Z</time>
      </trkpt>
      <trkpt lat="45.90668" lon="4.7358">
        <ele>180</ele>
        <time>2018-08-14T08:34:43Z</time>
      </trkpt>
      <trkpt lat="45.90663" lon="4.73582">
        <ele>180</ele>
        <time>2018-08-14T08:34:44Z</time>
      </trkpt>
      <trkpt lat="45.90656" lon="4.73585">
        <ele>180</ele>
        <time>2018-08-14T08:34:46Z</time>
      </trkpt>
      <trkpt lat="45.90654" lon="4.73586">
        <ele>180</ele>
        <time>2018-08-14T08:34:47Z</time>
      </trkpt>
      <trkpt lat="45.90649" lon="4.73588">
        <ele>181</ele>
        <time>2018-08-14T08:34:48Z</time>
      </trkpt>
      <trkpt lat="45.90645" lon="4.7359">
        <ele>181</ele>
        <time>2018-08-14T08:34:49Z</time>
      </trkpt>
      <trkpt lat="45.9064" lon="4.73593">
        <ele>181</ele>
        <time>2018-08-14T08:34:50Z</time>
      </trkpt>
      <trkpt lat="45.90635" lon="4.73594">
        <ele>181</ele>
        <time>2018-08-14T08:34:51Z</time>
      </trkpt>
      <trkpt lat="45.9063" lon="4.73596">
        <ele>181</ele>
        <time>2018-08-14T08:34:52Z</time>
      </trkpt>
      <trkpt lat="45.90624" lon="4.73601">
        <ele>181</ele>
        <time>2018-08-14T08:34:53Z</time>
      </trkpt>
      <trkpt lat="45.90619" lon="4.73603">
        <ele>181</ele>
        <time>2018-08-14T08:34:54Z</time>
      </trkpt>
      <trkpt lat="45.90613" lon="4.73605">
        <ele>180</ele>
        <time>2018-08-14T08:34:55Z</time>
      </trkpt>
      <trkpt lat="45.90607" lon="4.73606">
        <ele>180</ele>
        <time>2018-08-14T08:34:56Z</time>
      </trkpt>
      <trkpt lat="45.90601" lon="4.7361">
        <ele>180</ele>
        <time>2018-08-14T08:34:57Z</time>
      </trkpt>
      <trkpt lat="45.90596" lon="4.73613">
        <ele>180</ele>
        <time>2018-08-14T08:34:58Z</time>
      </trkpt>
      <trkpt lat="45.9059" lon="4.73615">
        <ele>180</ele>
        <time>2018-08-14T08:34:59Z</time>
      </trkpt>
      <trkpt lat="45.90585" lon="4.73617">
        <ele>180</ele>
        <time>2018-08-14T08:35:00Z</time>
      </trkpt>
      <trkpt lat="45.9058" lon="4.73618">
        <ele>179</ele>
        <time>2018-08-14T08:35:01Z</time>
      </trkpt>
      <trkpt lat="45.90575" lon="4.73621">
        <ele>179</ele>
        <time>2018-08-14T08:35:02Z</time>
      </trkpt>
      <trkpt lat="45.90571" lon="4.73622">
        <ele>179</ele>
        <time>2018-08-14T08:35:03Z</time>
      </trkpt>
      <trkpt lat="45.90566" lon="4.73624">
        <ele>179</ele>
        <time>2018-08-14T08:35:04Z</time>
      </trkpt>
      <trkpt lat="45.90561" lon="4.73626">
        <ele>179</ele>
        <time>2018-08-14T08:35:05Z</time>
      </trkpt>
      <trkpt lat="45.90553" lon="4.73629">
        <ele>178</ele>
        <time>2018-08-14T08:35:07Z</time>
      </trkpt>
      <trkpt lat="45.90548" lon="4.73631">
        <ele>178</ele>
        <time>2018-08-14T08:35:08Z</time>
      </trkpt>
      <trkpt lat="45.90543" lon="4.73633">
        <ele>178</ele>
        <time>2018-08-14T08:35:09Z</time>
      </trkpt>
      <trkpt lat="45.90539" lon="4.73635">
        <ele>178</ele>
        <time>2018-08-14T08:35:10Z</time>
      </trkpt>
      <trkpt lat="45.90534" lon="4.73637">
        <ele>178</ele>
        <time>2018-08-14T08:35:11Z</time>
      </trkpt>
      <trkpt lat="45.90529" lon="4.73639">
        <ele>178</ele>
        <time>2018-08-14T08:35:12Z</time>
      </trkpt>
      <trkpt lat="45.90524" lon="4.73641">
        <ele>178</ele>
        <time>2018-08-14T08:35:13Z</time>
      </trkpt>
      <trkpt lat="45.90519" lon="4.73643">
        <ele>178</ele>
        <time>2018-08-14T08:35:14Z</time>
      </trkpt>
      <trkpt lat="45.90514" lon="4.73645">
        <ele>178</ele>
        <time>2018-08-14T08:35:15Z</time>
      </trkpt>
      <trkpt lat="45.90509" lon="4.73647">
        <ele>178</ele>
        <time>2018-08-14T08:35:16Z</time>
      </trkpt>
      <trkpt lat="45.90504" lon="4.73649">
        <ele>178</ele>
        <time>2018-08-14T08:35:17Z</time>
      </trkpt>
      <trkpt lat="45.90499" lon="4.73651">
        <ele>177</ele>
        <time>2018-08-14T08:35:18Z</time>
      </trkpt>
      <trkpt lat="45.90494" lon="4.73652">
        <ele>177</ele>
        <time>2018-08-14T08:35:19Z</time>
      </trkpt>
      <trkpt lat="45.90489" lon="4.73654">
        <ele>177</ele>
        <time>2018-08-14T08:35:20Z</time>
      </trkpt>
      <trkpt lat="45.90485" lon="4.73656">
        <ele>177</ele>
        <time>2018-08-14T08:35:21Z</time>
      </trkpt>
      <trkpt lat="45.90481" lon="4.73659">
        <ele>177</ele>
        <time>2018-08-14T08:35:22Z</time>
      </trkpt>
      <trkpt lat="45.90476" lon="4.73661">
        <ele>177</ele>
        <time>2018-08-14T08:35:23Z</time>
      </trkpt>
      <trkpt lat="45.90471" lon="4.73666">
        <ele>177</ele>
        <time>2018-08-14T08:35:24Z</time>
      </trkpt>
      <trkpt lat="45.90466" lon="4.73667">
        <ele>176</ele>
        <time>2018-08-14T08:35:25Z</time>
      </trkpt>
      <trkpt lat="45.90462" lon="4.73669">
        <ele>176</ele>
        <time>2018-08-14T08:35:26Z</time>
      </trkpt>
      <trkpt lat="45.90455" lon="4.73672">
        <ele>176</ele>
        <time>2018-08-14T08:35:27Z</time>
      </trkpt>
      <trkpt lat="45.9045" lon="4.73677">
        <ele>176</ele>
        <time>2018-08-14T08:35:28Z</time>
      </trkpt>
      <trkpt lat="45.90445" lon="4.73681">
        <ele>176</ele>
        <time>2018-08-14T08:35:29Z</time>
      </trkpt>
      <trkpt lat="45.90439" lon="4.73683">
        <ele>176</ele>
        <time>2018-08-14T08:35:30Z</time>
      </trkpt>
      <trkpt lat="45.90433" lon="4.73684">
        <ele>176</ele>
        <time>2018-08-14T08:35:31Z</time>
      </trkpt>
      <trkpt lat="45.90427" lon="4.73687">
        <ele>176</ele>
        <time>2018-08-14T08:35:32Z</time>
      </trkpt>
      <trkpt lat="45.90421" lon="4.73691">
        <ele>176</ele>
        <time>2018-08-14T08:35:33Z</time>
      </trkpt>
      <trkpt lat="45.90415" lon="4.73693">
        <ele>177</ele>
        <time>2018-08-14T08:35:34Z</time>
      </trkpt>
      <trkpt lat="45.90408" lon="4.73696">
        <ele>177</ele>
        <time>2018-08-14T08:35:35Z</time>
      </trkpt>
      <trkpt lat="45.90403" lon="4.73697">
        <ele>177</ele>
        <time>2018-08-14T08:35:36Z</time>
      </trkpt>
      <trkpt lat="45.90396" lon="4.737">
        <ele>177</ele>
        <time>2018-08-14T08:35:37Z</time>
      </trkpt>
      <trkpt lat="45.9039" lon="4.73702">
        <ele>177</ele>
        <time>2018-08-14T08:35:38Z</time>
      </trkpt>
      <trkpt lat="45.90382" lon="4.73706">
        <ele>177</ele>
        <time>2018-08-14T08:35:39Z</time>
      </trkpt>
      <trkpt lat="45.90375" lon="4.73709">
        <ele>177</ele>
        <time>2018-08-14T08:35:40Z</time>
      </trkpt>
      <trkpt lat="45.90368" lon="4.73712">
        <ele>177</ele>
        <time>2018-08-14T08:35:41Z</time>
      </trkpt>
      <trkpt lat="45.90361" lon="4.73715">
        <ele>177</ele>
        <time>2018-08-14T08:35:42Z</time>
      </trkpt>
      <trkpt lat="45.90354" lon="4.73718">
        <ele>177</ele>
        <time>2018-08-14T08:35:43Z</time>
      </trkpt>
      <trkpt lat="45.90346" lon="4.73722">
        <ele>177</ele>
        <time>2018-08-14T08:35:44Z</time>
      </trkpt>
      <trkpt lat="45.90338" lon="4.73725">
        <ele>177</ele>
        <time>2018-08-14T08:35:45Z</time>
      </trkpt>
      <trkpt lat="45.90331" lon="4.73727">
        <ele>177</ele>
        <time>2018-08-14T08:35:46Z</time>
      </trkpt>
      <trkpt lat="45.90324" lon="4.73729">
        <ele>177</ele>
        <time>2018-08-14T08:35:47Z</time>
      </trkpt>
      <trkpt lat="45.90316" lon="4.73732">
        <ele>177</ele>
        <time>2018-08-14T08:35:48Z</time>
      </trkpt>
      <trkpt lat="45.90308" lon="4.73735">
        <ele>177</ele>
        <time>2018-08-14T08:35:49Z</time>
      </trkpt>
      <trkpt lat="45.903" lon="4.73738">
        <ele>177</ele>
        <time>2018-08-14T08:35:50Z</time>
      </trkpt>
      <trkpt lat="45.90292" lon="4.73743">
        <ele>177</ele>
        <time>2018-08-14T08:35:51Z</time>
      </trkpt>
      <trkpt lat="45.90284" lon="4.73746">
        <ele>177</ele>
        <time>2018-08-14T08:35:52Z</time>
      </trkpt>
      <trkpt lat="45.90277" lon="4.73749">
        <ele>177</ele>
        <time>2018-08-14T08:35:53Z</time>
      </trkpt>
      <trkpt lat="45.90271" lon="4.73751">
        <ele>177</ele>
        <time>2018-08-14T08:35:54Z</time>
      </trkpt>
      <trkpt lat="45.90264" lon="4.73754">
        <ele>177</ele>
        <time>2018-08-14T08:35:55Z</time>
      </trkpt>
      <trkpt lat="45.90258" lon="4.73756">
        <ele>178</ele>
        <time>2018-08-14T08:35:56Z</time>
      </trkpt>
      <trkpt lat="45.90251" lon="4.7376">
        <ele>178</ele>
        <time>2018-08-14T08:35:57Z</time>
      </trkpt>
      <trkpt lat="45.90244" lon="4.73762">
        <ele>178</ele>
        <time>2018-08-14T08:35:58Z</time>
      </trkpt>
      <trkpt lat="45.90238" lon="4.73765">
        <ele>177</ele>
        <time>2018-08-14T08:35:59Z</time>
      </trkpt>
      <trkpt lat="45.90232" lon="4.73766">
        <ele>177</ele>
        <time>2018-08-14T08:36:00Z</time>
      </trkpt>
      <trkpt lat="45.90226" lon="4.73769">
        <ele>177</ele>
        <time>2018-08-14T08:36:01Z</time>
      </trkpt>
      <trkpt lat="45.90221" lon="4.73771">
        <ele>177</ele>
        <time>2018-08-14T08:36:02Z</time>
      </trkpt>
      <trkpt lat="45.90214" lon="4.73774">
        <ele>177</ele>
        <time>2018-08-14T08:36:03Z</time>
      </trkpt>
      <trkpt lat="45.90208" lon="4.73776">
        <ele>177</ele>
        <time>2018-08-14T08:36:04Z</time>
      </trkpt>
      <trkpt lat="45.90202" lon="4.73779">
        <ele>177</ele>
        <time>2018-08-14T08:36:05Z</time>
      </trkpt>
      <trkpt lat="45.90196" lon="4.73782">
        <ele>177</ele>
        <time>2018-08-14T08:36:06Z</time>
      </trkpt>
      <trkpt lat="45.9019" lon="4.73784">
        <ele>177</ele>
        <time>2018-08-14T08:36:07Z</time>
      </trkpt>
      <trkpt lat="45.90184" lon="4.73787">
        <ele>177</ele>
        <time>2018-08-14T08:36:08Z</time>
      </trkpt>
      <trkpt lat="45.90178" lon="4.7379">
        <ele>177</ele>
        <time>2018-08-14T08:36:09Z</time>
      </trkpt>
      <trkpt lat="45.90172" lon="4.73792">
        <ele>177</ele>
        <time>2018-08-14T08:36:10Z</time>
      </trkpt>
      <trkpt lat="45.90166" lon="4.73794">
        <ele>176</ele>
        <time>2018-08-14T08:36:11Z</time>
      </trkpt>
      <trkpt lat="45.90159" lon="4.73796">
        <ele>176</ele>
        <time>2018-08-14T08:36:12Z</time>
      </trkpt>
      <trkpt lat="45.90154" lon="4.73797">
        <ele>177</ele>
        <time>2018-08-14T08:36:13Z</time>
      </trkpt>
      <trkpt lat="45.90147" lon="4.73801">
        <ele>177</ele>
        <time>2018-08-14T08:36:14Z</time>
      </trkpt>
      <trkpt lat="45.90142" lon="4.73802">
        <ele>177</ele>
        <time>2018-08-14T08:36:15Z</time>
      </trkpt>
      <trkpt lat="45.90136" lon="4.73805">
        <ele>177</ele>
        <time>2018-08-14T08:36:16Z</time>
      </trkpt>
      <trkpt lat="45.90131" lon="4.73806">
        <ele>177</ele>
        <time>2018-08-14T08:36:17Z</time>
      </trkpt>
      <trkpt lat="45.90127" lon="4.73811">
        <ele>177</ele>
        <time>2018-08-14T08:36:18Z</time>
      </trkpt>
      <trkpt lat="45.90122" lon="4.73814">
        <ele>177</ele>
        <time>2018-08-14T08:36:19Z</time>
      </trkpt>
      <trkpt lat="45.90116" lon="4.73817">
        <ele>177</ele>
        <time>2018-08-14T08:36:20Z</time>
      </trkpt>
      <trkpt lat="45.9011" lon="4.7382">
        <ele>177</ele>
        <time>2018-08-14T08:36:21Z</time>
      </trkpt>
      <trkpt lat="45.90104" lon="4.73821">
        <ele>177</ele>
        <time>2018-08-14T08:36:22Z</time>
      </trkpt>
      <trkpt lat="45.90098" lon="4.73825">
        <ele>177</ele>
        <time>2018-08-14T08:36:23Z</time>
      </trkpt>
      <trkpt lat="45.90091" lon="4.73829">
        <ele>178</ele>
        <time>2018-08-14T08:36:24Z</time>
      </trkpt>
      <trkpt lat="45.90085" lon="4.73831">
        <ele>178</ele>
        <time>2018-08-14T08:36:25Z</time>
      </trkpt>
      <trkpt lat="45.90081" lon="4.73832">
        <ele>178</ele>
        <time>2018-08-14T08:36:26Z</time>
      </trkpt>
      <trkpt lat="45.90075" lon="4.73834">
        <ele>178</ele>
        <time>2018-08-14T08:36:27Z</time>
      </trkpt>
      <trkpt lat="45.90069" lon="4.73837">
        <ele>178</ele>
        <time>2018-08-14T08:36:28Z</time>
      </trkpt>
      <trkpt lat="45.90063" lon="4.73839">
        <ele>178</ele>
        <time>2018-08-14T08:36:29Z</time>
      </trkpt>
      <trkpt lat="45.90058" lon="4.73841">
        <ele>178</ele>
        <time>2018-08-14T08:36:30Z</time>
      </trkpt>
      <trkpt lat="45.90053" lon="4.73843">
        <ele>178</ele>
        <time>2018-08-14T08:36:31Z</time>
      </trkpt>
      <trkpt lat="45.90047" lon="4.73845">
        <ele>178</ele>
        <time>2018-08-14T08:36:32Z</time>
      </trkpt>
      <trkpt lat="45.9004" lon="4.73848">
        <ele>178</ele>
        <time>2018-08-14T08:36:33Z</time>
      </trkpt>
      <trkpt lat="45.90034" lon="4.7385">
        <ele>178</ele>
        <time>2018-08-14T08:36:34Z</time>
      </trkpt>
      <trkpt lat="45.90027" lon="4.73852">
        <ele>178</ele>
        <time>2018-08-14T08:36:35Z</time>
      </trkpt>
      <trkpt lat="45.90021" lon="4.73854">
        <ele>178</ele>
        <time>2018-08-14T08:36:36Z</time>
      </trkpt>
      <trkpt lat="45.90015" lon="4.73856">
        <ele>178</ele>
        <time>2018-08-14T08:36:37Z</time>
      </trkpt>
      <trkpt lat="45.9001" lon="4.7386">
        <ele>178</ele>
        <time>2018-08-14T08:36:38Z</time>
      </trkpt>
      <trkpt lat="45.90004" lon="4.73863">
        <ele>178</ele>
        <time>2018-08-14T08:36:39Z</time>
      </trkpt>
      <trkpt lat="45.89996" lon="4.73867">
        <ele>178</ele>
        <time>2018-08-14T08:36:40Z</time>
      </trkpt>
      <trkpt lat="45.8999" lon="4.73868">
        <ele>178</ele>
        <time>2018-08-14T08:36:41Z</time>
      </trkpt>
      <trkpt lat="45.89984" lon="4.73871">
        <ele>178</ele>
        <time>2018-08-14T08:36:42Z</time>
      </trkpt>
      <trkpt lat="45.89978" lon="4.73873">
        <ele>178</ele>
        <time>2018-08-14T08:36:43Z</time>
      </trkpt>
      <trkpt lat="45.89972" lon="4.73876">
        <ele>178</ele>
        <time>2018-08-14T08:36:44Z</time>
      </trkpt>
      <trkpt lat="45.89967" lon="4.73878">
        <ele>178</ele>
        <time>2018-08-14T08:36:45Z</time>
      </trkpt>
      <trkpt lat="45.89962" lon="4.73879">
        <ele>178</ele>
        <time>2018-08-14T08:36:46Z</time>
      </trkpt>
      <trkpt lat="45.89956" lon="4.73881">
        <ele>178</ele>
        <time>2018-08-14T08:36:47Z</time>
      </trkpt>
      <trkpt lat="45.89951" lon="4.73884">
        <ele>178</ele>
        <time>2018-08-14T08:36:48Z</time>
      </trkpt>
      <trkpt lat="45.89946" lon="4.73887">
        <ele>178</ele>
        <time>2018-08-14T08:36:49Z</time>
      </trkpt>
      <trkpt lat="45.8994" lon="4.7389">
        <ele>178</ele>
        <time>2018-08-14T08:36:50Z</time>
      </trkpt>
      <trkpt lat="45.89934" lon="4.73892">
        <ele>178</ele>
        <time>2018-08-14T08:36:51Z</time>
      </trkpt>
      <trkpt lat="45.89929" lon="4.73895">
        <ele>178</ele>
        <time>2018-08-14T08:36:52Z</time>
      </trkpt>
      <trkpt lat="45.89923" lon="4.73896">
        <ele>178</ele>
        <time>2018-08-14T08:36:53Z</time>
      </trkpt>
      <trkpt lat="45.89919" lon="4.73899">
        <ele>178</ele>
        <time>2018-08-14T08:36:54Z</time>
      </trkpt>
      <trkpt lat="45.89913" lon="4.73901">
        <ele>178</ele>
        <time>2018-08-14T08:36:55Z</time>
      </trkpt>
      <trkpt lat="45.89906" lon="4.73902">
        <ele>178</ele>
        <time>2018-08-14T08:36:56Z</time>
      </trkpt>
      <trkpt lat="45.899" lon="4.73905">
        <ele>178</ele>
        <time>2018-08-14T08:36:57Z</time>
      </trkpt>
      <trkpt lat="45.89894" lon="4.73908">
        <ele>178</ele>
        <time>2018-08-14T08:36:58Z</time>
      </trkpt>
      <trkpt lat="45.89889" lon="4.73909">
        <ele>179</ele>
        <time>2018-08-14T08:36:59Z</time>
      </trkpt>
      <trkpt lat="45.89883" lon="4.73912">
        <ele>179</ele>
        <time>2018-08-14T08:37:00Z</time>
      </trkpt>
      <trkpt lat="45.89877" lon="4.73912">
        <ele>179</ele>
        <time>2018-08-14T08:37:01Z</time>
      </trkpt>
      <trkpt lat="45.89872" lon="4.73914">
        <ele>179</ele>
        <time>2018-08-14T08:37:02Z</time>
      </trkpt>
      <trkpt lat="45.89867" lon="4.73916">
        <ele>179</ele>
        <time>2018-08-14T08:37:03Z</time>
      </trkpt>
      <trkpt lat="45.89863" lon="4.73918">
        <ele>179</ele>
        <time>2018-08-14T08:37:04Z</time>
      </trkpt>
      <trkpt lat="45.89855" lon="4.73923">
        <ele>179</ele>
        <time>2018-08-14T08:37:05Z</time>
      </trkpt>
      <trkpt lat="45.8985" lon="4.73926">
        <ele>179</ele>
        <time>2018-08-14T08:37:06Z</time>
      </trkpt>
      <trkpt lat="45.89846" lon="4.73927">
        <ele>179</ele>
        <time>2018-08-14T08:37:07Z</time>
      </trkpt>
      <trkpt lat="45.8984" lon="4.73929">
        <ele>179</ele>
        <time>2018-08-14T08:37:08Z</time>
      </trkpt>
      <trkpt lat="45.89835" lon="4.73931">
        <ele>179</ele>
        <time>2018-08-14T08:37:09Z</time>
      </trkpt>
      <trkpt lat="45.89829" lon="4.73934">
        <ele>179</ele>
        <time>2018-08-14T08:37:10Z</time>
      </trkpt>
      <trkpt lat="45.89825" lon="4.73935">
        <ele>179</ele>
        <time>2018-08-14T08:37:11Z</time>
      </trkpt>
      <trkpt lat="45.89819" lon="4.73938">
        <ele>179</ele>
        <time>2018-08-14T08:37:12Z</time>
      </trkpt>
      <trkpt lat="45.89814" lon="4.7394">
        <ele>179</ele>
        <time>2018-08-14T08:37:13Z</time>
      </trkpt>
      <trkpt lat="45.89808" lon="4.73943">
        <ele>179</ele>
        <time>2018-08-14T08:37:14Z</time>
      </trkpt>
      <trkpt lat="45.89802" lon="4.73946">
        <ele>179</ele>
        <time>2018-08-14T08:37:15Z</time>
      </trkpt>
      <trkpt lat="45.89796" lon="4.73949">
        <ele>179</ele>
        <time>2018-08-14T08:37:16Z</time>
      </trkpt>
      <trkpt lat="45.89791" lon="4.73953">
        <ele>179</ele>
        <time>2018-08-14T08:37:17Z</time>
      </trkpt>
      <trkpt lat="45.89785" lon="4.73956">
        <ele>179</ele>
        <time>2018-08-14T08:37:18Z</time>
      </trkpt>
      <trkpt lat="45.89779" lon="4.73958">
        <ele>179</ele>
        <time>2018-08-14T08:37:19Z</time>
      </trkpt>
      <trkpt lat="45.89774" lon="4.7396">
        <ele>179</ele>
        <time>2018-08-14T08:37:20Z</time>
      </trkpt>
      <trkpt lat="45.89767" lon="4.73962">
        <ele>179</ele>
        <time>2018-08-14T08:37:21Z</time>
      </trkpt>
      <trkpt lat="45.89761" lon="4.73965">
        <ele>178</ele>
        <time>2018-08-14T08:37:22Z</time>
      </trkpt>
      <trkpt lat="45.89755" lon="4.73967">
        <ele>178</ele>
        <time>2018-08-14T08:37:23Z</time>
      </trkpt>
      <trkpt lat="45.89749" lon="4.73969">
        <ele>178</ele>
        <time>2018-08-14T08:37:24Z</time>
      </trkpt>
      <trkpt lat="45.89745" lon="4.73972">
        <ele>178</ele>
        <time>2018-08-14T08:37:25Z</time>
      </trkpt>
      <trkpt lat="45.89739" lon="4.73975">
        <ele>178</ele>
        <time>2018-08-14T08:37:26Z</time>
      </trkpt>
      <trkpt lat="45.89734" lon="4.73978">
        <ele>178</ele>
        <time>2018-08-14T08:37:27Z</time>
      </trkpt>
      <trkpt lat="45.89729" lon="4.73981">
        <ele>178</ele>
        <time>2018-08-14T08:37:28Z</time>
      </trkpt>
      <trkpt lat="45.89725" lon="4.73983">
        <ele>178</ele>
        <time>2018-08-14T08:37:29Z</time>
      </trkpt>
      <trkpt lat="45.89717" lon="4.73986">
        <ele>178</ele>
        <time>2018-08-14T08:37:30Z</time>
      </trkpt>
      <trkpt lat="45.8971" lon="4.73991">
        <ele>178</ele>
        <time>2018-08-14T08:37:32Z</time>
      </trkpt>
      <trkpt lat="45.89705" lon="4.73992">
        <ele>178</ele>
        <time>2018-08-14T08:37:33Z</time>
      </trkpt>
      <trkpt lat="45.897" lon="4.73994">
        <ele>178</ele>
        <time>2018-08-14T08:37:34Z</time>
      </trkpt>
      <trkpt lat="45.89695" lon="4.73996">
        <ele>178</ele>
        <time>2018-08-14T08:37:35Z</time>
      </trkpt>
      <trkpt lat="45.89686" lon="4.74001">
        <ele>179</ele>
        <time>2018-08-14T08:37:37Z</time>
      </trkpt>
      <trkpt lat="45.89681" lon="4.74004">
        <ele>179</ele>
        <time>2018-08-14T08:37:38Z</time>
      </trkpt>
      <trkpt lat="45.89674" lon="4.74006">
        <ele>179</ele>
        <time>2018-08-14T08:37:39Z</time>
      </trkpt>
      <trkpt lat="45.89669" lon="4.74008">
        <ele>179</ele>
        <time>2018-08-14T08:37:40Z</time>
      </trkpt>
      <trkpt lat="45.89663" lon="4.7401">
        <ele>179</ele>
        <time>2018-08-14T08:37:41Z</time>
      </trkpt>
      <trkpt lat="45.89658" lon="4.74012">
        <ele>179</ele>
        <time>2018-08-14T08:37:42Z</time>
      </trkpt>
      <trkpt lat="45.89652" lon="4.74014">
        <ele>180</ele>
        <time>2018-08-14T08:37:43Z</time>
      </trkpt>
      <trkpt lat="45.89647" lon="4.74017">
        <ele>180</ele>
        <time>2018-08-14T08:37:44Z</time>
      </trkpt>
      <trkpt lat="45.89642" lon="4.74019">
        <ele>180</ele>
        <time>2018-08-14T08:37:45Z</time>
      </trkpt>
      <trkpt lat="45.89636" lon="4.7402">
        <ele>180</ele>
        <time>2018-08-14T08:37:46Z</time>
      </trkpt>
      <trkpt lat="45.89631" lon="4.74022">
        <ele>180</ele>
        <time>2018-08-14T08:37:47Z</time>
      </trkpt>
      <trkpt lat="45.89626" lon="4.74025">
        <ele>180</ele>
        <time>2018-08-14T08:37:48Z</time>
      </trkpt>
      <trkpt lat="45.89621" lon="4.74026">
        <ele>180</ele>
        <time>2018-08-14T08:37:49Z</time>
      </trkpt>
      <trkpt lat="45.89615" lon="4.74028">
        <ele>180</ele>
        <time>2018-08-14T08:37:50Z</time>
      </trkpt>
      <trkpt lat="45.8961" lon="4.74029">
        <ele>180</ele>
        <time>2018-08-14T08:37:51Z</time>
      </trkpt>
      <trkpt lat="45.89605" lon="4.74031">
        <ele>180</ele>
        <time>2018-08-14T08:37:52Z</time>
      </trkpt>
      <trkpt lat="45.89599" lon="4.74033">
        <ele>180</ele>
        <time>2018-08-14T08:37:53Z</time>
      </trkpt>
      <trkpt lat="45.89594" lon="4.74034">
        <ele>180</ele>
        <time>2018-08-14T08:37:54Z</time>
      </trkpt>
      <trkpt lat="45.89588" lon="4.74037">
        <ele>180</ele>
        <time>2018-08-14T08:37:55Z</time>
      </trkpt>
      <trkpt lat="45.89583" lon="4.74041">
        <ele>181</ele>
        <time>2018-08-14T08:37:56Z</time>
      </trkpt>
      <trkpt lat="45.89577" lon="4.74042">
        <ele>181</ele>
        <time>2018-08-14T08:37:57Z</time>
      </trkpt>
      <trkpt lat="45.89572" lon="4.74044">
        <ele>181</ele>
        <time>2018-08-14T08:37:58Z</time>
      </trkpt>
      <trkpt lat="45.89567" lon="4.74048">
        <ele>181</ele>
        <time>2018-08-14T08:37:59Z</time>
      </trkpt>
      <trkpt lat="45.89562" lon="4.7405">
        <ele>181</ele>
        <time>2018-08-14T08:38:00Z</time>
      </trkpt>
      <trkpt lat="45.89556" lon="4.74051">
        <ele>181</ele>
        <time>2018-08-14T08:38:01Z</time>
      </trkpt>
      <trkpt lat="45.89552" lon="4.74053">
        <ele>181</ele>
        <time>2018-08-14T08:38:02Z</time>
      </trkpt>
      <trkpt lat="45.89547" lon="4.74057">
        <ele>181</ele>
        <time>2018-08-14T08:38:03Z</time>
      </trkpt>
      <trkpt lat="45.89542" lon="4.7406">
        <ele>181</ele>
        <time>2018-08-14T08:38:04Z</time>
      </trkpt>
      <trkpt lat="45.89537" lon="4.7406">
        <ele>181</ele>
        <time>2018-08-14T08:38:05Z</time>
      </trkpt>
      <trkpt lat="45.89532" lon="4.7406">
        <ele>181</ele>
        <time>2018-08-14T08:38:06Z</time>
      </trkpt>
      <trkpt lat="45.89527" lon="4.74062">
        <ele>181</ele>
        <time>2018-08-14T08:38:07Z</time>
      </trkpt>
      <trkpt lat="45.89521" lon="4.74065">
        <ele>181</ele>
        <time>2018-08-14T08:38:08Z</time>
      </trkpt>
      <trkpt lat="45.89516" lon="4.74068">
        <ele>181</ele>
        <time>2018-08-14T08:38:09Z</time>
      </trkpt>
      <trkpt lat="45.89511" lon="4.74069">
        <ele>181</ele>
        <time>2018-08-14T08:38:10Z</time>
      </trkpt>
      <trkpt lat="45.89506" lon="4.74071">
        <ele>181</ele>
        <time>2018-08-14T08:38:11Z</time>
      </trkpt>
      <trkpt lat="45.89501" lon="4.74075">
        <ele>181</ele>
        <time>2018-08-14T08:38:12Z</time>
      </trkpt>
      <trkpt lat="45.89495" lon="4.74077">
        <ele>181</ele>
        <time>2018-08-14T08:38:13Z</time>
      </trkpt>
      <trkpt lat="45.89489" lon="4.74081">
        <ele>181</ele>
        <time>2018-08-14T08:38:14Z</time>
      </trkpt>
      <trkpt lat="45.89484" lon="4.74083">
        <ele>181</ele>
        <time>2018-08-14T08:38:15Z</time>
      </trkpt>
      <trkpt lat="45.89479" lon="4.74084">
        <ele>182</ele>
        <time>2018-08-14T08:38:16Z</time>
      </trkpt>
      <trkpt lat="45.89475" lon="4.74085">
        <ele>182</ele>
        <time>2018-08-14T08:38:17Z</time>
      </trkpt>
      <trkpt lat="45.89469" lon="4.74086">
        <ele>182</ele>
        <time>2018-08-14T08:38:18Z</time>
      </trkpt>
      <trkpt lat="45.89464" lon="4.7409">
        <ele>182</ele>
        <time>2018-08-14T08:38:19Z</time>
      </trkpt>
      <trkpt lat="45.89458" lon="4.7409">
        <ele>182</ele>
        <time>2018-08-14T08:38:20Z</time>
      </trkpt>
      <trkpt lat="45.89452" lon="4.74092">
        <ele>182</ele>
        <time>2018-08-14T08:38:21Z</time>
      </trkpt>
      <trkpt lat="45.89447" lon="4.74095">
        <ele>182</ele>
        <time>2018-08-14T08:38:22Z</time>
      </trkpt>
      <trkpt lat="45.89441" lon="4.74098">
        <ele>182</ele>
        <time>2018-08-14T08:38:23Z</time>
      </trkpt>
      <trkpt lat="45.89435" lon="4.741">
        <ele>182</ele>
        <time>2018-08-14T08:38:24Z</time>
      </trkpt>
      <trkpt lat="45.89429" lon="4.74103">
        <ele>182</ele>
        <time>2018-08-14T08:38:25Z</time>
      </trkpt>
      <trkpt lat="45.89424" lon="4.74105">
        <ele>182</ele>
        <time>2018-08-14T08:38:26Z</time>
      </trkpt>
      <trkpt lat="45.89418" lon="4.74107">
        <ele>183</ele>
        <time>2018-08-14T08:38:27Z</time>
      </trkpt>
      <trkpt lat="45.89413" lon="4.74109">
        <ele>183</ele>
        <time>2018-08-14T08:38:28Z</time>
      </trkpt>
      <trkpt lat="45.89408" lon="4.74112">
        <ele>183</ele>
        <time>2018-08-14T08:38:29Z</time>
      </trkpt>
      <trkpt lat="45.89404" lon="4.74114">
        <ele>183</ele>
        <time>2018-08-14T08:38:30Z</time>
      </trkpt>
      <trkpt lat="45.89398" lon="4.74115">
        <ele>184</ele>
        <time>2018-08-14T08:38:31Z</time>
      </trkpt>
      <trkpt lat="45.89394" lon="4.7412">
        <ele>184</ele>
        <time>2018-08-14T08:38:32Z</time>
      </trkpt>
      <trkpt lat="45.89389" lon="4.74122">
        <ele>184</ele>
        <time>2018-08-14T08:38:33Z</time>
      </trkpt>
      <trkpt lat="45.89384" lon="4.74124">
        <ele>184</ele>
        <time>2018-08-14T08:38:34Z</time>
      </trkpt>
      <trkpt lat="45.89378" lon="4.74127">
        <ele>184</ele>
        <time>2018-08-14T08:38:35Z</time>
      </trkpt>
      <trkpt lat="45.89373" lon="4.74131">
        <ele>184</ele>
        <time>2018-08-14T08:38:36Z</time>
      </trkpt>
      <trkpt lat="45.89367" lon="4.74133">
        <ele>184</ele>
        <time>2018-08-14T08:38:37Z</time>
      </trkpt>
      <trkpt lat="45.89362" lon="4.74135">
        <ele>184</ele>
        <time>2018-08-14T08:38:38Z</time>
      </trkpt>
      <trkpt lat="45.89356" lon="4.74137">
        <ele>184</ele>
        <time>2018-08-14T08:38:39Z</time>
      </trkpt>
      <trkpt lat="45.8935" lon="4.74141">
        <ele>185</ele>
        <time>2018-08-14T08:38:40Z</time>
      </trkpt>
      <trkpt lat="45.89344" lon="4.74144">
        <ele>185</ele>
        <time>2018-08-14T08:38:41Z</time>
      </trkpt>
      <trkpt lat="45.89338" lon="4.74147">
        <ele>185</ele>
        <time>2018-08-14T08:38:42Z</time>
      </trkpt>
      <trkpt lat="45.89333" lon="4.74149">
        <ele>185</ele>
        <time>2018-08-14T08:38:43Z</time>
      </trkpt>
      <trkpt lat="45.89327" lon="4.74151">
        <ele>185</ele>
        <time>2018-08-14T08:38:44Z</time>
      </trkpt>
      <trkpt lat="45.89322" lon="4.74153">
        <ele>185</ele>
        <time>2018-08-14T08:38:45Z</time>
      </trkpt>
      <trkpt lat="45.89317" lon="4.74155">
        <ele>185</ele>
        <time>2018-08-14T08:38:46Z</time>
      </trkpt>
      <trkpt lat="45.89312" lon="4.74156">
        <ele>185</ele>
        <time>2018-08-14T08:38:47Z</time>
      </trkpt>
      <trkpt lat="45.89307" lon="4.74158">
        <ele>185</ele>
        <time>2018-08-14T08:38:48Z</time>
      </trkpt>
      <trkpt lat="45.89301" lon="4.74162">
        <ele>185</ele>
        <time>2018-08-14T08:38:49Z</time>
      </trkpt>
      <trkpt lat="45.89295" lon="4.74164">
        <ele>185</ele>
        <time>2018-08-14T08:38:50Z</time>
      </trkpt>
      <trkpt lat="45.8929" lon="4.74165">
        <ele>185</ele>
        <time>2018-08-14T08:38:51Z</time>
      </trkpt>
      <trkpt lat="45.89284" lon="4.74168">
        <ele>186</ele>
        <time>2018-08-14T08:38:52Z</time>
      </trkpt>
      <trkpt lat="45.89279" lon="4.74168">
        <ele>186</ele>
        <time>2018-08-14T08:38:53Z</time>
      </trkpt>
      <trkpt lat="45.89275" lon="4.74169">
        <ele>186</ele>
        <time>2018-08-14T08:38:54Z</time>
      </trkpt>
      <trkpt lat="45.89269" lon="4.74171">
        <ele>186</ele>
        <time>2018-08-14T08:38:55Z</time>
      </trkpt>
      <trkpt lat="45.89264" lon="4.74173">
        <ele>185</ele>
        <time>2018-08-14T08:38:56Z</time>
      </trkpt>
      <trkpt lat="45.89258" lon="4.74175">
        <ele>185</ele>
        <time>2018-08-14T08:38:57Z</time>
      </trkpt>
      <trkpt lat="45.89253" lon="4.74177">
        <ele>185</ele>
        <time>2018-08-14T08:38:58Z</time>
      </trkpt>
      <trkpt lat="45.89247" lon="4.74179">
        <ele>185</ele>
        <time>2018-08-14T08:38:59Z</time>
      </trkpt>
      <trkpt lat="45.89241" lon="4.74181">
        <ele>185</ele>
        <time>2018-08-14T08:39:00Z</time>
      </trkpt>
      <trkpt lat="45.89232" lon="4.74185">
        <ele>186</ele>
        <time>2018-08-14T08:39:01Z</time>
      </trkpt>
      <trkpt lat="45.89226" lon="4.74188">
        <ele>186</ele>
        <time>2018-08-14T08:39:02Z</time>
      </trkpt>
      <trkpt lat="45.8922" lon="4.74191">
        <ele>186</ele>
        <time>2018-08-14T08:39:03Z</time>
      </trkpt>
      <trkpt lat="45.89215" lon="4.74194">
        <ele>186</ele>
        <time>2018-08-14T08:39:04Z</time>
      </trkpt>
      <trkpt lat="45.89207" lon="4.74196">
        <ele>186</ele>
        <time>2018-08-14T08:39:05Z</time>
      </trkpt>
      <trkpt lat="45.89201" lon="4.74197">
        <ele>186</ele>
        <time>2018-08-14T08:39:06Z</time>
      </trkpt>
      <trkpt lat="45.89195" lon="4.74201">
        <ele>186</ele>
        <time>2018-08-14T08:39:07Z</time>
      </trkpt>
      <trkpt lat="45.8919" lon="4.74203">
        <ele>186</ele>
        <time>2018-08-14T08:39:08Z</time>
      </trkpt>
      <trkpt lat="45.89185" lon="4.74207">
        <ele>186</ele>
        <time>2018-08-14T08:39:09Z</time>
      </trkpt>
      <trkpt lat="45.89179" lon="4.74209">
        <ele>186</ele>
        <time>2018-08-14T08:39:10Z</time>
      </trkpt>
      <trkpt lat="45.89172" lon="4.7421">
        <ele>186</ele>
        <time>2018-08-14T08:39:11Z</time>
      </trkpt>
      <trkpt lat="45.89165" lon="4.74215">
        <ele>186</ele>
        <time>2018-08-14T08:39:12Z</time>
      </trkpt>
      <trkpt lat="45.8916" lon="4.74217">
        <ele>186</ele>
        <time>2018-08-14T08:39:13Z</time>
      </trkpt>
      <trkpt lat="45.89154" lon="4.74218">
        <ele>186</ele>
        <time>2018-08-14T08:39:14Z</time>
      </trkpt>
      <trkpt lat="45.89148" lon="4.74221">
        <ele>186</ele>
        <time>2018-08-14T08:39:15Z</time>
      </trkpt>
      <trkpt lat="45.89144" lon="4.74224">
        <ele>186</ele>
        <time>2018-08-14T08:39:16Z</time>
      </trkpt>
      <trkpt lat="45.89138" lon="4.74227">
        <ele>186</ele>
        <time>2018-08-14T08:39:17Z</time>
      </trkpt>
      <trkpt lat="45.89132" lon="4.74229">
        <ele>186</ele>
        <time>2018-08-14T08:39:18Z</time>
      </trkpt>
      <trkpt lat="45.89127" lon="4.74232">
        <ele>186</ele>
        <time>2018-08-14T08:39:19Z</time>
      </trkpt>
      <trkpt lat="45.89121" lon="4.74233">
        <ele>186</ele>
        <time>2018-08-14T08:39:20Z</time>
      </trkpt>
      <trkpt lat="45.89115" lon="4.74236">
        <ele>186</ele>
        <time>2018-08-14T08:39:21Z</time>
      </trkpt>
      <trkpt lat="45.8911" lon="4.74238">
        <ele>186</ele>
        <time>2018-08-14T08:39:22Z</time>
      </trkpt>
      <trkpt lat="45.89104" lon="4.74241">
        <ele>186</ele>
        <time>2018-08-14T08:39:23Z</time>
      </trkpt>
      <trkpt lat="45.89099" lon="4.74242">
        <ele>186</ele>
        <time>2018-08-14T08:39:24Z</time>
      </trkpt>
      <trkpt lat="45.89093" lon="4.74245">
        <ele>186</ele>
        <time>2018-08-14T08:39:25Z</time>
      </trkpt>
      <trkpt lat="45.89087" lon="4.74245">
        <ele>186</ele>
        <time>2018-08-14T08:39:26Z</time>
      </trkpt>
      <trkpt lat="45.89082" lon="4.74248">
        <ele>186</ele>
        <time>2018-08-14T08:39:27Z</time>
      </trkpt>
      <trkpt lat="45.89077" lon="4.74249">
        <ele>186</ele>
        <time>2018-08-14T08:39:28Z</time>
      </trkpt>
      <trkpt lat="45.8907" lon="4.74252">
        <ele>186</ele>
        <time>2018-08-14T08:39:29Z</time>
      </trkpt>
      <trkpt lat="45.89065" lon="4.74254">
        <ele>186</ele>
        <time>2018-08-14T08:39:30Z</time>
      </trkpt>
      <trkpt lat="45.89059" lon="4.74257">
        <ele>186</ele>
        <time>2018-08-14T08:39:31Z</time>
      </trkpt>
      <trkpt lat="45.89054" lon="4.74259">
        <ele>187</ele>
        <time>2018-08-14T08:39:32Z</time>
      </trkpt>
      <trkpt lat="45.89048" lon="4.74261">
        <ele>187</ele>
        <time>2018-08-14T08:39:33Z</time>
      </trkpt>
      <trkpt lat="45.89043" lon="4.74265">
        <ele>187</ele>
        <time>2018-08-14T08:39:34Z</time>
      </trkpt>
      <trkpt lat="45.89037" lon="4.74267">
        <ele>187</ele>
        <time>2018-08-14T08:39:35Z</time>
      </trkpt>
      <trkpt lat="45.8903" lon="4.7427">
        <ele>187</ele>
        <time>2018-08-14T08:39:36Z</time>
      </trkpt>
      <trkpt lat="45.89024" lon="4.74272">
        <ele>187</ele>
        <time>2018-08-14T08:39:37Z</time>
      </trkpt>
      <trkpt lat="45.89018" lon="4.74273">
        <ele>187</ele>
        <time>2018-08-14T08:39:38Z</time>
      </trkpt>
      <trkpt lat="45.89012" lon="4.74275">
        <ele>187</ele>
        <time>2018-08-14T08:39:39Z</time>
      </trkpt>
      <trkpt lat="45.89006" lon="4.74276">
        <ele>187</ele>
        <time>2018-08-14T08:39:40Z</time>
      </trkpt>
      <trkpt lat="45.89" lon="4.74277">
        <ele>187</ele>
        <time>2018-08-14T08:39:41Z</time>
      </trkpt>
      <trkpt lat="45.88994" lon="4.74279">
        <ele>187</ele>
        <time>2018-08-14T08:39:42Z</time>
      </trkpt>
      <trkpt lat="45.88988" lon="4.74279">
        <ele>187</ele>
        <time>2018-08-14T08:39:43Z</time>
      </trkpt>
      <trkpt lat="45.88983" lon="4.74281">
        <ele>187</ele>
        <time>2018-08-14T08:39:44Z</time>
      </trkpt>
      <trkpt lat="45.88977" lon="4.74281">
        <ele>187</ele>
        <time>2018-08-14T08:39:45Z</time>
      </trkpt>
      <trkpt lat="45.88972" lon="4.74281">
        <ele>187</ele>
        <time>2018-08-14T08:39:46Z</time>
      </trkpt>
      <trkpt lat="45.88967" lon="4.74281">
        <ele>187</ele>
        <time>2018-08-14T08:39:47Z</time>
      </trkpt>
      <trkpt lat="45.88961" lon="4.74277">
        <ele>187</ele>
        <time>2018-08-14T08:39:49Z</time>
      </trkpt>
      <trkpt lat="45.88955" lon="4.74274">
        <ele>187</ele>
        <time>2018-08-14T08:39:50Z</time>
      </trkpt>
      <trkpt lat="45.88948" lon="4.74272">
        <ele>187</ele>
        <time>2018-08-14T08:39:52Z</time>
      </trkpt>
      <trkpt lat="45.88943" lon="4.74272">
        <ele>187</ele>
        <time>2018-08-14T08:39:53Z</time>
      </trkpt>
      <trkpt lat="45.88934" lon="4.74272">
        <ele>187</ele>
        <time>2018-08-14T08:39:55Z</time>
      </trkpt>
      <trkpt lat="45.88931" lon="4.74271">
        <ele>187</ele>
        <time>2018-08-14T08:39:56Z</time>
      </trkpt>
      <trkpt lat="45.88925" lon="4.74269">
        <ele>187</ele>
        <time>2018-08-14T08:39:57Z</time>
      </trkpt>
      <trkpt lat="45.88922" lon="4.74267">
        <ele>187</ele>
        <time>2018-08-14T08:39:58Z</time>
      </trkpt>
      <trkpt lat="45.88914" lon="4.74262">
        <ele>187</ele>
        <time>2018-08-14T08:40:00Z</time>
      </trkpt>
      <trkpt lat="45.88909" lon="4.74259">
        <ele>187</ele>
        <time>2018-08-14T08:40:01Z</time>
      </trkpt>
      <trkpt lat="45.88903" lon="4.74255">
        <ele>187</ele>
        <time>2018-08-14T08:40:03Z</time>
      </trkpt>
      <trkpt lat="45.88899" lon="4.74251">
        <ele>187</ele>
        <time>2018-08-14T08:40:04Z</time>
      </trkpt>
      <trkpt lat="45.88897" lon="4.74246">
        <ele>187</ele>
        <time>2018-08-14T08:40:05Z</time>
      </trkpt>
      <trkpt lat="45.88893" lon="4.74242">
        <ele>187</ele>
        <time>2018-08-14T08:40:06Z</time>
      </trkpt>
      <trkpt lat="45.88889" lon="4.74239">
        <ele>187</ele>
        <time>2018-08-14T08:40:07Z</time>
      </trkpt>
      <trkpt lat="45.88884" lon="4.74235">
        <ele>187</ele>
        <time>2018-08-14T08:40:08Z</time>
      </trkpt>
      <trkpt lat="45.88879" lon="4.74233">
        <ele>187</ele>
        <time>2018-08-14T08:40:09Z</time>
      </trkpt>
      <trkpt lat="45.88874" lon="4.7423">
        <ele>187</ele>
        <time>2018-08-14T08:40:10Z</time>
      </trkpt>
      <trkpt lat="45.88869" lon="4.74226">
        <ele>187</ele>
        <time>2018-08-14T08:40:11Z</time>
      </trkpt>
      <trkpt lat="45.88864" lon="4.74222">
        <ele>187</ele>
        <time>2018-08-14T08:40:12Z</time>
      </trkpt>
      <trkpt lat="45.88859" lon="4.74218">
        <ele>187</ele>
        <time>2018-08-14T08:40:13Z</time>
      </trkpt>
      <trkpt lat="45.88855" lon="4.74215">
        <ele>187</ele>
        <time>2018-08-14T08:40:14Z</time>
      </trkpt>
      <trkpt lat="45.8885" lon="4.74214">
        <ele>187</ele>
        <time>2018-08-14T08:40:15Z</time>
      </trkpt>
      <trkpt lat="45.88845" lon="4.74211">
        <ele>187</ele>
        <time>2018-08-14T08:40:16Z</time>
      </trkpt>
      <trkpt lat="45.88839" lon="4.7421">
        <ele>187</ele>
        <time>2018-08-14T08:40:17Z</time>
      </trkpt>
      <trkpt lat="45.88833" lon="4.74208">
        <ele>187</ele>
        <time>2018-08-14T08:40:18Z</time>
      </trkpt>
      <trkpt lat="45.88827" lon="4.74204">
        <ele>187</ele>
        <time>2018-08-14T08:40:19Z</time>
      </trkpt>
      <trkpt lat="45.88822" lon="4.74201">
        <ele>187</ele>
        <time>2018-08-14T08:40:20Z</time>
      </trkpt>
      <trkpt lat="45.88818" lon="4.74198">
        <ele>187</ele>
        <time>2018-08-14T08:40:21Z</time>
      </trkpt>
      <trkpt lat="45.88813" lon="4.74195">
        <ele>187</ele>
        <time>2018-08-14T08:40:22Z</time>
      </trkpt>
      <trkpt lat="45.88807" lon="4.74191">
        <ele>187</ele>
        <time>2018-08-14T08:40:23Z</time>
      </trkpt>
      <trkpt lat="45.88802" lon="4.74187">
        <ele>187</ele>
        <time>2018-08-14T08:40:24Z</time>
      </trkpt>
      <trkpt lat="45.88797" lon="4.74185">
        <ele>187</ele>
        <time>2018-08-14T08:40:25Z</time>
      </trkpt>
      <trkpt lat="45.88793" lon="4.74183">
        <ele>188</ele>
        <time>2018-08-14T08:40:26Z</time>
      </trkpt>
      <trkpt lat="45.88788" lon="4.7418">
        <ele>188</ele>
        <time>2018-08-14T08:40:27Z</time>
      </trkpt>
      <trkpt lat="45.88783" lon="4.74178">
        <ele>188</ele>
        <time>2018-08-14T08:40:28Z</time>
      </trkpt>
      <trkpt lat="45.88779" lon="4.74175">
        <ele>188</ele>
        <time>2018-08-14T08:40:29Z</time>
      </trkpt>
      <trkpt lat="45.88772" lon="4.74174">
        <ele>188</ele>
        <time>2018-08-14T08:40:30Z</time>
      </trkpt>
      <trkpt lat="45.88764" lon="4.7417">
        <ele>188</ele>
        <time>2018-08-14T08:40:32Z</time>
      </trkpt>
      <trkpt lat="45.88762" lon="4.74162">
        <ele>187</ele>
        <time>2018-08-14T08:40:33Z</time>
      </trkpt>
      <trkpt lat="45.88756" lon="4.74158">
        <ele>187</ele>
        <time>2018-08-14T08:40:34Z</time>
      </trkpt>
      <trkpt lat="45.88753" lon="4.74154">
        <ele>187</ele>
        <time>2018-08-14T08:40:35Z</time>
      </trkpt>
      <trkpt lat="45.88747" lon="4.74151">
        <ele>188</ele>
        <time>2018-08-14T08:40:36Z</time>
      </trkpt>
      <trkpt lat="45.88742" lon="4.74148">
        <ele>188</ele>
        <time>2018-08-14T08:40:37Z</time>
      </trkpt>
      <trkpt lat="45.88738" lon="4.74144">
        <ele>188</ele>
        <time>2018-08-14T08:40:38Z</time>
      </trkpt>
      <trkpt lat="45.88733" lon="4.74139">
        <ele>188</ele>
        <time>2018-08-14T08:40:39Z</time>
      </trkpt>
      <trkpt lat="45.88728" lon="4.74136">
        <ele>188</ele>
        <time>2018-08-14T08:40:40Z</time>
      </trkpt>
      <trkpt lat="45.88721" lon="4.74131">
        <ele>188</ele>
        <time>2018-08-14T08:40:41Z</time>
      </trkpt>
      <trkpt lat="45.88717" lon="4.74126">
        <ele>188</ele>
        <time>2018-08-14T08:40:42Z</time>
      </trkpt>
      <trkpt lat="45.88713" lon="4.74122">
        <ele>188</ele>
        <time>2018-08-14T08:40:43Z</time>
      </trkpt>
      <trkpt lat="45.88706" lon="4.74119">
        <ele>188</ele>
        <time>2018-08-14T08:40:44Z</time>
      </trkpt>
      <trkpt lat="45.88703" lon="4.74115">
        <ele>188</ele>
        <time>2018-08-14T08:40:45Z</time>
      </trkpt>
      <trkpt lat="45.88699" lon="4.74111">
        <ele>188</ele>
        <time>2018-08-14T08:40:46Z</time>
      </trkpt>
      <trkpt lat="45.88695" lon="4.74106">
        <ele>188</ele>
        <time>2018-08-14T08:40:47Z</time>
      </trkpt>
      <trkpt lat="45.88687" lon="4.74108">
        <ele>188</ele>
        <time>2018-08-14T08:40:50Z</time>
      </trkpt>
      <trkpt lat="45.88685" lon="4.74109">
        <ele>188</ele>
        <time>2018-08-14T08:40:51Z</time>
      </trkpt>
      <trkpt lat="45.88678" lon="4.7411">
        <ele>188</ele>
        <time>2018-08-14T08:40:56Z</time>
      </trkpt>
      <trkpt lat="45.88676" lon="4.74108">
        <ele>188</ele>
        <time>2018-08-14T08:40:57Z</time>
      </trkpt>
      <trkpt lat="45.8867" lon="4.74101">
        <ele>188</ele>
        <time>2018-08-14T08:40:58Z</time>
      </trkpt>
      <trkpt lat="45.88668" lon="4.74096">
        <ele>188</ele>
        <time>2018-08-14T08:40:59Z</time>
      </trkpt>
      <trkpt lat="45.88666" lon="4.74085">
        <ele>188</ele>
        <time>2018-08-14T08:41:01Z</time>
      </trkpt>
      <trkpt lat="45.88664" lon="4.74079">
        <ele>188</ele>
        <time>2018-08-14T08:41:02Z</time>
      </trkpt>
      <trkpt lat="45.88661" lon="4.74073">
        <ele>188</ele>
        <time>2018-08-14T08:41:03Z</time>
      </trkpt>
      <trkpt lat="45.8866" lon="4.74066">
        <ele>188</ele>
        <time>2018-08-14T08:41:04Z</time>
      </trkpt>
      <trkpt lat="45.88659" lon="4.74058">
        <ele>187</ele>
        <time>2018-08-14T08:41:05Z</time>
      </trkpt>
      <trkpt lat="45.88658" lon="4.74052">
        <ele>187</ele>
        <time>2018-08-14T08:41:06Z</time>
      </trkpt>
      <trkpt lat="45.88657" lon="4.74044">
        <ele>187</ele>
        <time>2018-08-14T08:41:07Z</time>
      </trkpt>
      <trkpt lat="45.88655" lon="4.74036">
        <ele>187</ele>
        <time>2018-08-14T08:41:08Z</time>
      </trkpt>
      <trkpt lat="45.88654" lon="4.74029">
        <ele>187</ele>
        <time>2018-08-14T08:41:09Z</time>
      </trkpt>
      <trkpt lat="45.88652" lon="4.74021">
        <ele>187</ele>
        <time>2018-08-14T08:41:10Z</time>
      </trkpt>
      <trkpt lat="45.88652" lon="4.74012">
        <ele>187</ele>
        <time>2018-08-14T08:41:11Z</time>
      </trkpt>
      <trkpt lat="45.88651" lon="4.74004">
        <ele>187</ele>
        <time>2018-08-14T08:41:12Z</time>
      </trkpt>
      <trkpt lat="45.8865" lon="4.73996">
        <ele>186</ele>
        <time>2018-08-14T08:41:13Z</time>
      </trkpt>
      <trkpt lat="45.88649" lon="4.7399">
        <ele>186</ele>
        <time>2018-08-14T08:41:14Z</time>
      </trkpt>
      <trkpt lat="45.88649" lon="4.73981">
        <ele>187</ele>
        <time>2018-08-14T08:41:15Z</time>
      </trkpt>
      <trkpt lat="45.88647" lon="4.73969">
        <ele>187</ele>
        <time>2018-08-14T08:41:16Z</time>
      </trkpt>
      <trkpt lat="45.88645" lon="4.73958">
        <ele>187</ele>
        <time>2018-08-14T08:41:17Z</time>
      </trkpt>
      <trkpt lat="45.88646" lon="4.73952">
        <ele>187</ele>
        <time>2018-08-14T08:41:18Z</time>
      </trkpt>
      <trkpt lat="45.88647" lon="4.73946">
        <ele>187</ele>
        <time>2018-08-14T08:41:19Z</time>
      </trkpt>
      <trkpt lat="45.88647" lon="4.73937">
        <ele>187</ele>
        <time>2018-08-14T08:41:20Z</time>
      </trkpt>
      <trkpt lat="45.88647" lon="4.73928">
        <ele>187</ele>
        <time>2018-08-14T08:41:21Z</time>
      </trkpt>
      <trkpt lat="45.88646" lon="4.73918">
        <ele>187</ele>
        <time>2018-08-14T08:41:22Z</time>
      </trkpt>
      <trkpt lat="45.88645" lon="4.73908">
        <ele>187</ele>
        <time>2018-08-14T08:41:23Z</time>
      </trkpt>
      <trkpt lat="45.88644" lon="4.739">
        <ele>187</ele>
        <time>2018-08-14T08:41:24Z</time>
      </trkpt>
      <trkpt lat="45.88644" lon="4.73891">
        <ele>187</ele>
        <time>2018-08-14T08:41:25Z</time>
      </trkpt>
      <trkpt lat="45.88645" lon="4.73884">
        <ele>187</ele>
        <time>2018-08-14T08:41:26Z</time>
      </trkpt>
      <trkpt lat="45.88645" lon="4.73877">
        <ele>187</ele>
        <time>2018-08-14T08:41:27Z</time>
      </trkpt>
      <trkpt lat="45.88644" lon="4.73868">
        <ele>187</ele>
        <time>2018-08-14T08:41:28Z</time>
      </trkpt>
      <trkpt lat="45.88645" lon="4.73862">
        <ele>187</ele>
        <time>2018-08-14T08:41:29Z</time>
      </trkpt>
      <trkpt lat="45.88643" lon="4.73852">
        <ele>187</ele>
        <time>2018-08-14T08:41:30Z</time>
      </trkpt>
      <trkpt lat="45.88643" lon="4.73845">
        <ele>187</ele>
        <time>2018-08-14T08:41:31Z</time>
      </trkpt>
      <trkpt lat="45.88643" lon="4.73838">
        <ele>187</ele>
        <time>2018-08-14T08:41:32Z</time>
      </trkpt>
      <trkpt lat="45.88642" lon="4.7383">
        <ele>187</ele>
        <time>2018-08-14T08:41:33Z</time>
      </trkpt>
      <trkpt lat="45.88643" lon="4.73823">
        <ele>187</ele>
        <time>2018-08-14T08:41:34Z</time>
      </trkpt>
      <trkpt lat="45.88646" lon="4.73813">
        <ele>187</ele>
        <time>2018-08-14T08:41:36Z</time>
      </trkpt>
      <trkpt lat="45.88647" lon="4.73806">
        <ele>187</ele>
        <time>2018-08-14T08:41:37Z</time>
      </trkpt>
      <trkpt lat="45.88646" lon="4.73799">
        <ele>187</ele>
        <time>2018-08-14T08:41:38Z</time>
      </trkpt>
      <trkpt lat="45.88647" lon="4.73793">
        <ele>187</ele>
        <time>2018-08-14T08:41:39Z</time>
      </trkpt>
      <trkpt lat="45.88647" lon="4.73785">
        <ele>187</ele>
        <time>2018-08-14T08:41:40Z</time>
      </trkpt>
      <trkpt lat="45.88647" lon="4.73779">
        <ele>187</ele>
        <time>2018-08-14T08:41:41Z</time>
      </trkpt>
      <trkpt lat="45.88647" lon="4.73768">
        <ele>187</ele>
        <time>2018-08-14T08:41:43Z</time>
      </trkpt>
      <trkpt lat="45.88646" lon="4.73762">
        <ele>187</ele>
        <time>2018-08-14T08:41:44Z</time>
      </trkpt>
      <trkpt lat="45.88646" lon="4.73755">
        <ele>187</ele>
        <time>2018-08-14T08:41:45Z</time>
      </trkpt>
      <trkpt lat="45.88647" lon="4.73749">
        <ele>187</ele>
        <time>2018-08-14T08:41:46Z</time>
      </trkpt>
      <trkpt lat="45.88646" lon="4.73741">
        <ele>187</ele>
        <time>2018-08-14T08:41:47Z</time>
      </trkpt>
      <trkpt lat="45.88647" lon="4.73735">
        <ele>187</ele>
        <time>2018-08-14T08:41:48Z</time>
      </trkpt>
      <trkpt lat="45.88648" lon="4.73725">
        <ele>186</ele>
        <time>2018-08-14T08:41:50Z</time>
      </trkpt>
      <trkpt lat="45.88648" lon="4.73719">
        <ele>186</ele>
        <time>2018-08-14T08:41:51Z</time>
      </trkpt>
      <trkpt lat="45.88648" lon="4.73711">
        <ele>186</ele>
        <time>2018-08-14T08:41:52Z</time>
      </trkpt>
      <trkpt lat="45.88649" lon="4.73705">
        <ele>186</ele>
        <time>2018-08-14T08:41:53Z</time>
      </trkpt>
      <trkpt lat="45.88648" lon="4.73694">
        <ele>186</ele>
        <time>2018-08-14T08:41:55Z</time>
      </trkpt>
      <trkpt lat="45.88648" lon="4.73687">
        <ele>186</ele>
        <time>2018-08-14T08:41:56Z</time>
      </trkpt>
      <trkpt lat="45.88649" lon="4.73675">
        <ele>186</ele>
        <time>2018-08-14T08:41:58Z</time>
      </trkpt>
      <trkpt lat="45.88649" lon="4.73667">
        <ele>186</ele>
        <time>2018-08-14T08:41:59Z</time>
      </trkpt>
      <trkpt lat="45.88648" lon="4.73655">
        <ele>186</ele>
        <time>2018-08-14T08:42:01Z</time>
      </trkpt>
      <trkpt lat="45.88649" lon="4.73647">
        <ele>186</ele>
        <time>2018-08-14T08:42:02Z</time>
      </trkpt>
      <trkpt lat="45.88649" lon="4.73639">
        <ele>186</ele>
        <time>2018-08-14T08:42:03Z</time>
      </trkpt>
      <trkpt lat="45.88649" lon="4.73632">
        <ele>186</ele>
        <time>2018-08-14T08:42:04Z</time>
      </trkpt>
      <trkpt lat="45.88649" lon="4.73625">
        <ele>186</ele>
        <time>2018-08-14T08:42:05Z</time>
      </trkpt>
      <trkpt lat="45.88649" lon="4.73618">
        <ele>186</ele>
        <time>2018-08-14T08:42:06Z</time>
      </trkpt>
      <trkpt lat="45.8865" lon="4.7361">
        <ele>186</ele>
        <time>2018-08-14T08:42:07Z</time>
      </trkpt>
      <trkpt lat="45.88649" lon="4.73602">
        <ele>186</ele>
        <time>2018-08-14T08:42:08Z</time>
      </trkpt>
      <trkpt lat="45.88649" lon="4.73595">
        <ele>185</ele>
        <time>2018-08-14T08:42:09Z</time>
      </trkpt>
      <trkpt lat="45.88648" lon="4.73584">
        <ele>185</ele>
        <time>2018-08-14T08:42:10Z</time>
      </trkpt>
      <trkpt lat="45.8865" lon="4.73575">
        <ele>185</ele>
        <time>2018-08-14T08:42:11Z</time>
      </trkpt>
      <trkpt lat="45.8865" lon="4.73564">
        <ele>185</ele>
        <time>2018-08-14T08:42:12Z</time>
      </trkpt>
      <trkpt lat="45.8865" lon="4.73554">
        <ele>185</ele>
        <time>2018-08-14T08:42:13Z</time>
      </trkpt>
      <trkpt lat="45.88653" lon="4.73548">
        <ele>185</ele>
        <time>2018-08-14T08:42:14Z</time>
      </trkpt>
      <trkpt lat="45.88654" lon="4.73538">
        <ele>185</ele>
        <time>2018-08-14T08:42:15Z</time>
      </trkpt>
      <trkpt lat="45.88655" lon="4.7353">
        <ele>185</ele>
        <time>2018-08-14T08:42:16Z</time>
      </trkpt>
      <trkpt lat="45.88656" lon="4.73521">
        <ele>185</ele>
        <time>2018-08-14T08:42:17Z</time>
      </trkpt>
      <trkpt lat="45.88659" lon="4.73511">
        <ele>184</ele>
        <time>2018-08-14T08:42:18Z</time>
      </trkpt>
      <trkpt lat="45.8866" lon="4.73503">
        <ele>184</ele>
        <time>2018-08-14T08:42:19Z</time>
      </trkpt>
      <trkpt lat="45.88658" lon="4.73495">
        <ele>184</ele>
        <time>2018-08-14T08:42:20Z</time>
      </trkpt>
      <trkpt lat="45.88659" lon="4.73488">
        <ele>184</ele>
        <time>2018-08-14T08:42:21Z</time>
      </trkpt>
      <trkpt lat="45.88657" lon="4.73482">
        <ele>184</ele>
        <time>2018-08-14T08:42:22Z</time>
      </trkpt>
      <trkpt lat="45.88653" lon="4.73477">
        <ele>184</ele>
        <time>2018-08-14T08:42:23Z</time>
      </trkpt>
      <trkpt lat="45.88647" lon="4.73474">
        <ele>184</ele>
        <time>2018-08-14T08:42:24Z</time>
      </trkpt>
      <trkpt lat="45.88639" lon="4.73468">
        <ele>184</ele>
        <time>2018-08-14T08:42:26Z</time>
      </trkpt>
      <trkpt lat="45.88637" lon="4.73461">
        <ele>184</ele>
        <time>2018-08-14T08:42:27Z</time>
      </trkpt>
      <trkpt lat="45.88636" lon="4.73453">
        <ele>184</ele>
        <time>2018-08-14T08:42:28Z</time>
      </trkpt>
      <trkpt lat="45.88637" lon="4.73445">
        <ele>184</ele>
        <time>2018-08-14T08:42:29Z</time>
      </trkpt>
      <trkpt lat="45.88639" lon="4.73437">
        <ele>184</ele>
        <time>2018-08-14T08:42:30Z</time>
      </trkpt>
      <trkpt lat="45.8864" lon="4.73429">
        <ele>184</ele>
        <time>2018-08-14T08:42:31Z</time>
      </trkpt>
      <trkpt lat="45.88638" lon="4.73421">
        <ele>184</ele>
        <time>2018-08-14T08:42:32Z</time>
      </trkpt>
      <trkpt lat="45.88639" lon="4.73415">
        <ele>184</ele>
        <time>2018-08-14T08:42:33Z</time>
      </trkpt>
      <trkpt lat="45.88638" lon="4.73408">
        <ele>184</ele>
        <time>2018-08-14T08:42:34Z</time>
      </trkpt>
      <trkpt lat="45.88634" lon="4.73401">
        <ele>183</ele>
        <time>2018-08-14T08:42:35Z</time>
      </trkpt>
      <trkpt lat="45.8863" lon="4.73394">
        <ele>183</ele>
        <time>2018-08-14T08:42:36Z</time>
      </trkpt>
      <trkpt lat="45.88622" lon="4.73393">
        <ele>183</ele>
        <time>2018-08-14T08:42:37Z</time>
      </trkpt>
      <trkpt lat="45.88617" lon="4.73391">
        <ele>183</ele>
        <time>2018-08-14T08:42:38Z</time>
      </trkpt>
      <trkpt lat="45.88611" lon="4.73391">
        <ele>183</ele>
        <time>2018-08-14T08:42:39Z</time>
      </trkpt>
      <trkpt lat="45.88606" lon="4.73393">
        <ele>183</ele>
        <time>2018-08-14T08:42:40Z</time>
      </trkpt>
      <trkpt lat="45.88602" lon="4.73393">
        <ele>183</ele>
        <time>2018-08-14T08:42:41Z</time>
      </trkpt>
      <trkpt lat="45.88597" lon="4.73395">
        <ele>183</ele>
        <time>2018-08-14T08:42:42Z</time>
      </trkpt>
      <trkpt lat="45.88591" lon="4.73395">
        <ele>183</ele>
        <time>2018-08-14T08:42:43Z</time>
      </trkpt>
      <trkpt lat="45.88586" lon="4.73396">
        <ele>183</ele>
        <time>2018-08-14T08:42:44Z</time>
      </trkpt>
      <trkpt lat="45.88581" lon="4.73398">
        <ele>183</ele>
        <time>2018-08-14T08:42:45Z</time>
      </trkpt>
      <trkpt lat="45.88575" lon="4.734">
        <ele>183</ele>
        <time>2018-08-14T08:42:46Z</time>
      </trkpt>
      <trkpt lat="45.8857" lon="4.73402">
        <ele>183</ele>
        <time>2018-08-14T08:42:47Z</time>
      </trkpt>
      <trkpt lat="45.88565" lon="4.73403">
        <ele>183</ele>
        <time>2018-08-14T08:42:48Z</time>
      </trkpt>
      <trkpt lat="45.88559" lon="4.73404">
        <ele>183</ele>
        <time>2018-08-14T08:42:49Z</time>
      </trkpt>
      <trkpt lat="45.88555" lon="4.73404">
        <ele>183</ele>
        <time>2018-08-14T08:42:50Z</time>
      </trkpt>
      <trkpt lat="45.8855" lon="4.73407">
        <ele>183</ele>
        <time>2018-08-14T08:42:51Z</time>
      </trkpt>
      <trkpt lat="45.88545" lon="4.73407">
        <ele>183</ele>
        <time>2018-08-14T08:42:52Z</time>
      </trkpt>
      <trkpt lat="45.8854" lon="4.73408">
        <ele>183</ele>
        <time>2018-08-14T08:42:53Z</time>
      </trkpt>
      <trkpt lat="45.88535" lon="4.7341">
        <ele>183</ele>
        <time>2018-08-14T08:42:54Z</time>
      </trkpt>
      <trkpt lat="45.88531" lon="4.73412">
        <ele>183</ele>
        <time>2018-08-14T08:42:55Z</time>
      </trkpt>
      <trkpt lat="45.88524" lon="4.73413">
        <ele>183</ele>
        <time>2018-08-14T08:42:57Z</time>
      </trkpt>
      <trkpt lat="45.88519" lon="4.73413">
        <ele>184</ele>
        <time>2018-08-14T08:42:58Z</time>
      </trkpt>
      <trkpt lat="45.88514" lon="4.73414">
        <ele>184</ele>
        <time>2018-08-14T08:42:59Z</time>
      </trkpt>
      <trkpt lat="45.88509" lon="4.73414">
        <ele>184</ele>
        <time>2018-08-14T08:43:00Z</time>
      </trkpt>
      <trkpt lat="45.88503" lon="4.73416">
        <ele>184</ele>
        <time>2018-08-14T08:43:01Z</time>
      </trkpt>
      <trkpt lat="45.88498" lon="4.73417">
        <ele>184</ele>
        <time>2018-08-14T08:43:02Z</time>
      </trkpt>
      <trkpt lat="45.88492" lon="4.73418">
        <ele>184</ele>
        <time>2018-08-14T08:43:03Z</time>
      </trkpt>
      <trkpt lat="45.88487" lon="4.73421">
        <ele>184</ele>
        <time>2018-08-14T08:43:04Z</time>
      </trkpt>
      <trkpt lat="45.88482" lon="4.73424">
        <ele>184</ele>
        <time>2018-08-14T08:43:05Z</time>
      </trkpt>
      <trkpt lat="45.88477" lon="4.73426">
        <ele>184</ele>
        <time>2018-08-14T08:43:06Z</time>
      </trkpt>
      <trkpt lat="45.88471" lon="4.73427">
        <ele>184</ele>
        <time>2018-08-14T08:43:07Z</time>
      </trkpt>
      <trkpt lat="45.88466" lon="4.73427">
        <ele>184</ele>
        <time>2018-08-14T08:43:08Z</time>
      </trkpt>
      <trkpt lat="45.8846" lon="4.73429">
        <ele>184</ele>
        <time>2018-08-14T08:43:09Z</time>
      </trkpt>
      <trkpt lat="45.88456" lon="4.73432">
        <ele>184</ele>
        <time>2018-08-14T08:43:10Z</time>
      </trkpt>
      <trkpt lat="45.88447" lon="4.73434">
        <ele>184</ele>
        <time>2018-08-14T08:43:12Z</time>
      </trkpt>
      <trkpt lat="45.88443" lon="4.73435">
        <ele>184</ele>
        <time>2018-08-14T08:43:13Z</time>
      </trkpt>
      <trkpt lat="45.88438" lon="4.73436">
        <ele>184</ele>
        <time>2018-08-14T08:43:14Z</time>
      </trkpt>
      <trkpt lat="45.88433" lon="4.73437">
        <ele>184</ele>
        <time>2018-08-14T08:43:15Z</time>
      </trkpt>
      <trkpt lat="45.88428" lon="4.73439">
        <ele>184</ele>
        <time>2018-08-14T08:43:16Z</time>
      </trkpt>
      <trkpt lat="45.88423" lon="4.73439">
        <ele>184</ele>
        <time>2018-08-14T08:43:17Z</time>
      </trkpt>
      <trkpt lat="45.88418" lon="4.73441">
        <ele>184</ele>
        <time>2018-08-14T08:43:18Z</time>
      </trkpt>
      <trkpt lat="45.88413" lon="4.73442">
        <ele>184</ele>
        <time>2018-08-14T08:43:19Z</time>
      </trkpt>
      <trkpt lat="45.88408" lon="4.73443">
        <ele>184</ele>
        <time>2018-08-14T08:43:20Z</time>
      </trkpt>
      <trkpt lat="45.88403" lon="4.73443">
        <ele>184</ele>
        <time>2018-08-14T08:43:21Z</time>
      </trkpt>
      <trkpt lat="45.88399" lon="4.73444">
        <ele>184</ele>
        <time>2018-08-14T08:43:22Z</time>
      </trkpt>
      <trkpt lat="45.88393" lon="4.73447">
        <ele>184</ele>
        <time>2018-08-14T08:43:23Z</time>
      </trkpt>
      <trkpt lat="45.88389" lon="4.73449">
        <ele>184</ele>
        <time>2018-08-14T08:43:24Z</time>
      </trkpt>
      <trkpt lat="45.88384" lon="4.7345">
        <ele>184</ele>
        <time>2018-08-14T08:43:25Z</time>
      </trkpt>
      <trkpt lat="45.88379" lon="4.73453">
        <ele>184</ele>
        <time>2018-08-14T08:43:26Z</time>
      </trkpt>
      <trkpt lat="45.88374" lon="4.73454">
        <ele>184</ele>
        <time>2018-08-14T08:43:27Z</time>
      </trkpt>
      <trkpt lat="45.8837" lon="4.73455">
        <ele>184</ele>
        <time>2018-08-14T08:43:28Z</time>
      </trkpt>
      <trkpt lat="45.88365" lon="4.73457">
        <ele>184</ele>
        <time>2018-08-14T08:43:29Z</time>
      </trkpt>
      <trkpt lat="45.8836" lon="4.73459">
        <ele>184</ele>
        <time>2018-08-14T08:43:30Z</time>
      </trkpt>
      <trkpt lat="45.88355" lon="4.7346">
        <ele>184</ele>
        <time>2018-08-14T08:43:31Z</time>
      </trkpt>
      <trkpt lat="45.8835" lon="4.73462">
        <ele>184</ele>
        <time>2018-08-14T08:43:32Z</time>
      </trkpt>
      <trkpt lat="45.88344" lon="4.73463">
        <ele>184</ele>
        <time>2018-08-14T08:43:33Z</time>
      </trkpt>
      <trkpt lat="45.88339" lon="4.73465">
        <ele>184</ele>
        <time>2018-08-14T08:43:34Z</time>
      </trkpt>
      <trkpt lat="45.88334" lon="4.73467">
        <ele>184</ele>
        <time>2018-08-14T08:43:35Z</time>
      </trkpt>
      <trkpt lat="45.88329" lon="4.73469">
        <ele>184</ele>
        <time>2018-08-14T08:43:36Z</time>
      </trkpt>
      <trkpt lat="45.88324" lon="4.7347">
        <ele>184</ele>
        <time>2018-08-14T08:43:37Z</time>
      </trkpt>
      <trkpt lat="45.88315" lon="4.73471">
        <ele>184</ele>
        <time>2018-08-14T08:43:39Z</time>
      </trkpt>
      <trkpt lat="45.88311" lon="4.73473">
        <ele>184</ele>
        <time>2018-08-14T08:43:40Z</time>
      </trkpt>
      <trkpt lat="45.88307" lon="4.73473">
        <ele>184</ele>
        <time>2018-08-14T08:43:41Z</time>
      </trkpt>
      <trkpt lat="45.88301" lon="4.73476">
        <ele>184</ele>
        <time>2018-08-14T08:43:42Z</time>
      </trkpt>
      <trkpt lat="45.88297" lon="4.73479">
        <ele>184</ele>
        <time>2018-08-14T08:43:43Z</time>
      </trkpt>
      <trkpt lat="45.88292" lon="4.73482">
        <ele>184</ele>
        <time>2018-08-14T08:43:44Z</time>
      </trkpt>
      <trkpt lat="45.88287" lon="4.73485">
        <ele>184</ele>
        <time>2018-08-14T08:43:45Z</time>
      </trkpt>
      <trkpt lat="45.88282" lon="4.73489">
        <ele>184</ele>
        <time>2018-08-14T08:43:46Z</time>
      </trkpt>
      <trkpt lat="45.88277" lon="4.73492">
        <ele>184</ele>
        <time>2018-08-14T08:43:47Z</time>
      </trkpt>
      <trkpt lat="45.88274" lon="4.73497">
        <ele>184</ele>
        <time>2018-08-14T08:43:48Z</time>
      </trkpt>
      <trkpt lat="45.88269" lon="4.73499">
        <ele>184</ele>
        <time>2018-08-14T08:43:49Z</time>
      </trkpt>
      <trkpt lat="45.88264" lon="4.73503">
        <ele>185</ele>
        <time>2018-08-14T08:43:50Z</time>
      </trkpt>
      <trkpt lat="45.88259" lon="4.73507">
        <ele>185</ele>
        <time>2018-08-14T08:43:51Z</time>
      </trkpt>
      <trkpt lat="45.88255" lon="4.73511">
        <ele>185</ele>
        <time>2018-08-14T08:43:52Z</time>
      </trkpt>
      <trkpt lat="45.88248" lon="4.73515">
        <ele>185</ele>
        <time>2018-08-14T08:43:54Z</time>
      </trkpt>
      <trkpt lat="45.88243" lon="4.73516">
        <ele>185</ele>
        <time>2018-08-14T08:43:55Z</time>
      </trkpt>
      <trkpt lat="45.88238" lon="4.7352">
        <ele>185</ele>
        <time>2018-08-14T08:43:56Z</time>
      </trkpt>
      <trkpt lat="45.88234" lon="4.73524">
        <ele>185</ele>
        <time>2018-08-14T08:43:57Z</time>
      </trkpt>
      <trkpt lat="45.88228" lon="4.73526">
        <ele>185</ele>
        <time>2018-08-14T08:43:58Z</time>
      </trkpt>
      <trkpt lat="45.88222" lon="4.73529">
        <ele>185</ele>
        <time>2018-08-14T08:43:59Z</time>
      </trkpt>
      <trkpt lat="45.88217" lon="4.73532">
        <ele>185</ele>
        <time>2018-08-14T08:44:00Z</time>
      </trkpt>
      <trkpt lat="45.88212" lon="4.73534">
        <ele>185</ele>
        <time>2018-08-14T08:44:01Z</time>
      </trkpt>
      <trkpt lat="45.88208" lon="4.73537">
        <ele>186</ele>
        <time>2018-08-14T08:44:02Z</time>
      </trkpt>
      <trkpt lat="45.88203" lon="4.73539">
        <ele>186</ele>
        <time>2018-08-14T08:44:03Z</time>
      </trkpt>
      <trkpt lat="45.88199" lon="4.73542">
        <ele>186</ele>
        <time>2018-08-14T08:44:04Z</time>
      </trkpt>
      <trkpt lat="45.88194" lon="4.73544">
        <ele>186</ele>
        <time>2018-08-14T08:44:05Z</time>
      </trkpt>
      <trkpt lat="45.88187" lon="4.73549">
        <ele>186</ele>
        <time>2018-08-14T08:44:07Z</time>
      </trkpt>
      <trkpt lat="45.88183" lon="4.73551">
        <ele>186</ele>
        <time>2018-08-14T08:44:08Z</time>
      </trkpt>
      <trkpt lat="45.88178" lon="4.73558">
        <ele>186</ele>
        <time>2018-08-14T08:44:10Z</time>
      </trkpt>
      <trkpt lat="45.88174" lon="4.73561">
        <ele>186</ele>
        <time>2018-08-14T08:44:11Z</time>
      </trkpt>
      <trkpt lat="45.88169" lon="4.73564">
        <ele>186</ele>
        <time>2018-08-14T08:44:12Z</time>
      </trkpt>
      <trkpt lat="45.88166" lon="4.73567">
        <ele>186</ele>
        <time>2018-08-14T08:44:13Z</time>
      </trkpt>
      <trkpt lat="45.88162" lon="4.73572">
        <ele>186</ele>
        <time>2018-08-14T08:44:14Z</time>
      </trkpt>
      <trkpt lat="45.88156" lon="4.73574">
        <ele>186</ele>
        <time>2018-08-14T08:44:15Z</time>
      </trkpt>
      <trkpt lat="45.88151" lon="4.73577">
        <ele>186</ele>
        <time>2018-08-14T08:44:16Z</time>
      </trkpt>
      <trkpt lat="45.88146" lon="4.7358">
        <ele>186</ele>
        <time>2018-08-14T08:44:17Z</time>
      </trkpt>
      <trkpt lat="45.88141" lon="4.73583">
        <ele>187</ele>
        <time>2018-08-14T08:44:18Z</time>
      </trkpt>
      <trkpt lat="45.88136" lon="4.73587">
        <ele>187</ele>
        <time>2018-08-14T08:44:19Z</time>
      </trkpt>
      <trkpt lat="45.88131" lon="4.73591">
        <ele>187</ele>
        <time>2018-08-14T08:44:20Z</time>
      </trkpt>
      <trkpt lat="45.88127" lon="4.73594">
        <ele>187</ele>
        <time>2018-08-14T08:44:21Z</time>
      </trkpt>
      <trkpt lat="45.88122" lon="4.73597">
        <ele>187</ele>
        <time>2018-08-14T08:44:22Z</time>
      </trkpt>
      <trkpt lat="45.88118" lon="4.73601">
        <ele>187</ele>
        <time>2018-08-14T08:44:23Z</time>
      </trkpt>
      <trkpt lat="45.8811" lon="4.73605">
        <ele>188</ele>
        <time>2018-08-14T08:44:25Z</time>
      </trkpt>
      <trkpt lat="45.88107" lon="4.73607">
        <ele>188</ele>
        <time>2018-08-14T08:44:26Z</time>
      </trkpt>
      <trkpt lat="45.881" lon="4.73611">
        <ele>188</ele>
        <time>2018-08-14T08:44:28Z</time>
      </trkpt>
      <trkpt lat="45.88098" lon="4.73613">
        <ele>188</ele>
        <time>2018-08-14T08:44:29Z</time>
      </trkpt>
      <trkpt lat="45.88096" lon="4.73614">
        <ele>188</ele>
        <time>2018-08-14T08:44:30Z</time>
      </trkpt>
      <trkpt lat="45.88089" lon="4.73617">
        <ele>188</ele>
        <time>2018-08-14T08:44:31Z</time>
      </trkpt>
      <trkpt lat="45.88082" lon="4.73623">
        <ele>189</ele>
        <time>2018-08-14T08:44:33Z</time>
      </trkpt>
      <trkpt lat="45.88078" lon="4.73626">
        <ele>189</ele>
        <time>2018-08-14T08:44:34Z</time>
      </trkpt>
      <trkpt lat="45.88071" lon="4.73632">
        <ele>189</ele>
        <time>2018-08-14T08:44:36Z</time>
      </trkpt>
      <trkpt lat="45.88068" lon="4.73635">
        <ele>189</ele>
        <time>2018-08-14T08:44:37Z</time>
      </trkpt>
      <trkpt lat="45.88064" lon="4.73637">
        <ele>189</ele>
        <time>2018-08-14T08:44:38Z</time>
      </trkpt>
      <trkpt lat="45.88059" lon="4.73639">
        <ele>189</ele>
        <time>2018-08-14T08:44:39Z</time>
      </trkpt>
      <trkpt lat="45.88055" lon="4.73641">
        <ele>189</ele>
        <time>2018-08-14T08:44:40Z</time>
      </trkpt>
      <trkpt lat="45.88051" lon="4.73643">
        <ele>189</ele>
        <time>2018-08-14T08:44:41Z</time>
      </trkpt>
      <trkpt lat="45.88045" lon="4.73649">
        <ele>189</ele>
        <time>2018-08-14T08:44:42Z</time>
      </trkpt>
      <trkpt lat="45.88041" lon="4.73652">
        <ele>189</ele>
        <time>2018-08-14T08:44:43Z</time>
      </trkpt>
      <trkpt lat="45.88037" lon="4.73654">
        <ele>189</ele>
        <time>2018-08-14T08:44:44Z</time>
      </trkpt>
      <trkpt lat="45.88032" lon="4.73656">
        <ele>189</ele>
        <time>2018-08-14T08:44:45Z</time>
      </trkpt>
      <trkpt lat="45.88027" lon="4.73658">
        <ele>189</ele>
        <time>2018-08-14T08:44:46Z</time>
      </trkpt>
      <trkpt lat="45.88021" lon="4.73659">
        <ele>189</ele>
        <time>2018-08-14T08:44:47Z</time>
      </trkpt>
      <trkpt lat="45.88016" lon="4.7366">
        <ele>189</ele>
        <time>2018-08-14T08:44:48Z</time>
      </trkpt>
      <trkpt lat="45.8801" lon="4.73659">
        <ele>190</ele>
        <time>2018-08-14T08:44:49Z</time>
      </trkpt>
      <trkpt lat="45.88006" lon="4.73658">
        <ele>190</ele>
        <time>2018-08-14T08:44:50Z</time>
      </trkpt>
      <trkpt lat="45.88" lon="4.73656">
        <ele>190</ele>
        <time>2018-08-14T08:44:51Z</time>
      </trkpt>
      <trkpt lat="45.87996" lon="4.73655">
        <ele>190</ele>
        <time>2018-08-14T08:44:52Z</time>
      </trkpt>
      <trkpt lat="45.87991" lon="4.73654">
        <ele>190</ele>
        <time>2018-08-14T08:44:53Z</time>
      </trkpt>
      <trkpt lat="45.87986" lon="4.73651">
        <ele>190</ele>
        <time>2018-08-14T08:44:54Z</time>
      </trkpt>
      <trkpt lat="45.87982" lon="4.7365">
        <ele>190</ele>
        <time>2018-08-14T08:44:55Z</time>
      </trkpt>
      <trkpt lat="45.87977" lon="4.73648">
        <ele>190</ele>
        <time>2018-08-14T08:44:56Z</time>
      </trkpt>
      <trkpt lat="45.87972" lon="4.73646">
        <ele>189</ele>
        <time>2018-08-14T08:44:57Z</time>
      </trkpt>
      <trkpt lat="45.87967" lon="4.73644">
        <ele>189</ele>
        <time>2018-08-14T08:44:58Z</time>
      </trkpt>
      <trkpt lat="45.87963" lon="4.73644">
        <ele>190</ele>
        <time>2018-08-14T08:44:59Z</time>
      </trkpt>
      <trkpt lat="45.87958" lon="4.73644">
        <ele>190</ele>
        <time>2018-08-14T08:45:00Z</time>
      </trkpt>
      <trkpt lat="45.87952" lon="4.73643">
        <ele>190</ele>
        <time>2018-08-14T08:45:01Z</time>
      </trkpt>
      <trkpt lat="45.87947" lon="4.73641">
        <ele>190</ele>
        <time>2018-08-14T08:45:02Z</time>
      </trkpt>
      <trkpt lat="45.87942" lon="4.73639">
        <ele>190</ele>
        <time>2018-08-14T08:45:03Z</time>
      </trkpt>
      <trkpt lat="45.87938" lon="4.73636">
        <ele>190</ele>
        <time>2018-08-14T08:45:04Z</time>
      </trkpt>
      <trkpt lat="45.87932" lon="4.73635">
        <ele>190</ele>
        <time>2018-08-14T08:45:05Z</time>
      </trkpt>
      <trkpt lat="45.87927" lon="4.73634">
        <ele>190</ele>
        <time>2018-08-14T08:45:06Z</time>
      </trkpt>
      <trkpt lat="45.87922" lon="4.73632">
        <ele>190</ele>
        <time>2018-08-14T08:45:07Z</time>
      </trkpt>
      <trkpt lat="45.87916" lon="4.73631">
        <ele>190</ele>
        <time>2018-08-14T08:45:08Z</time>
      </trkpt>
      <trkpt lat="45.87911" lon="4.73629">
        <ele>190</ele>
        <time>2018-08-14T08:45:09Z</time>
      </trkpt>
      <trkpt lat="45.87904" lon="4.73625">
        <ele>190</ele>
        <time>2018-08-14T08:45:11Z</time>
      </trkpt>
      <trkpt lat="45.87901" lon="4.73622">
        <ele>190</ele>
        <time>2018-08-14T08:45:12Z</time>
      </trkpt>
      <trkpt lat="45.87896" lon="4.73621">
        <ele>190</ele>
        <time>2018-08-14T08:45:13Z</time>
      </trkpt>
      <trkpt lat="45.87891" lon="4.73621">
        <ele>190</ele>
        <time>2018-08-14T08:45:14Z</time>
      </trkpt>
      <trkpt lat="45.87886" lon="4.73619">
        <ele>190</ele>
        <time>2018-08-14T08:45:15Z</time>
      </trkpt>
      <trkpt lat="45.87881" lon="4.73619">
        <ele>190</ele>
        <time>2018-08-14T08:45:16Z</time>
      </trkpt>
      <trkpt lat="45.87872" lon="4.73619">
        <ele>190</ele>
        <time>2018-08-14T08:45:18Z</time>
      </trkpt>
      <trkpt lat="45.87868" lon="4.73621">
        <ele>190</ele>
        <time>2018-08-14T08:45:19Z</time>
      </trkpt>
      <trkpt lat="45.87862" lon="4.73627">
        <ele>190</ele>
        <time>2018-08-14T08:45:21Z</time>
      </trkpt>
      <trkpt lat="45.87858" lon="4.73631">
        <ele>190</ele>
        <time>2018-08-14T08:45:22Z</time>
      </trkpt>
      <trkpt lat="45.87855" lon="4.73636">
        <ele>191</ele>
        <time>2018-08-14T08:45:23Z</time>
      </trkpt>
      <trkpt lat="45.87851" lon="4.7364">
        <ele>191</ele>
        <time>2018-08-14T08:45:24Z</time>
      </trkpt>
      <trkpt lat="45.87845" lon="4.73641">
        <ele>191</ele>
        <time>2018-08-14T08:45:25Z</time>
      </trkpt>
      <trkpt lat="45.87839" lon="4.73642">
        <ele>191</ele>
        <time>2018-08-14T08:45:26Z</time>
      </trkpt>
      <trkpt lat="45.87834" lon="4.73632">
        <ele>191</ele>
        <time>2018-08-14T08:45:28Z</time>
      </trkpt>
      <trkpt lat="45.87832" lon="4.73628">
        <ele>190</ele>
        <time>2018-08-14T08:45:29Z</time>
      </trkpt>
      <trkpt lat="45.8783" lon="4.7362">
        <ele>190</ele>
        <time>2018-08-14T08:45:30Z</time>
      </trkpt>
      <trkpt lat="45.87827" lon="4.73614">
        <ele>190</ele>
        <time>2018-08-14T08:45:31Z</time>
      </trkpt>
      <trkpt lat="45.87823" lon="4.73606">
        <ele>190</ele>
        <time>2018-08-14T08:45:32Z</time>
      </trkpt>
      <trkpt lat="45.8782" lon="4.73599">
        <ele>190</ele>
        <time>2018-08-14T08:45:33Z</time>
      </trkpt>
      <trkpt lat="45.87817" lon="4.73593">
        <ele>190</ele>
        <time>2018-08-14T08:45:34Z</time>
      </trkpt>
      <trkpt lat="45.87814" lon="4.73586">
        <ele>190</ele>
        <time>2018-08-14T08:45:35Z</time>
      </trkpt>
      <trkpt lat="45.87811" lon="4.73578">
        <ele>189</ele>
        <time>2018-08-14T08:45:36Z</time>
      </trkpt>
      <trkpt lat="45.87808" lon="4.73571">
        <ele>189</ele>
        <time>2018-08-14T08:45:37Z</time>
      </trkpt>
      <trkpt lat="45.87803" lon="4.73562">
        <ele>189</ele>
        <time>2018-08-14T08:45:38Z</time>
      </trkpt>
      <trkpt lat="45.878" lon="4.73556">
        <ele>189</ele>
        <time>2018-08-14T08:45:39Z</time>
      </trkpt>
      <trkpt lat="45.87797" lon="4.73549">
        <ele>189</ele>
        <time>2018-08-14T08:45:40Z</time>
      </trkpt>
      <trkpt lat="45.87794" lon="4.73542">
        <ele>189</ele>
        <time>2018-08-14T08:45:41Z</time>
      </trkpt>
      <trkpt lat="45.87792" lon="4.73536">
        <ele>189</ele>
        <time>2018-08-14T08:45:42Z</time>
      </trkpt>
      <trkpt lat="45.87789" lon="4.7353">
        <ele>189</ele>
        <time>2018-08-14T08:45:43Z</time>
      </trkpt>
      <trkpt lat="45.87784" lon="4.73523">
        <ele>189</ele>
        <time>2018-08-14T08:45:44Z</time>
      </trkpt>
      <trkpt lat="45.87781" lon="4.73518">
        <ele>189</ele>
        <time>2018-08-14T08:45:45Z</time>
      </trkpt>
      <trkpt lat="45.87778" lon="4.73513">
        <ele>189</ele>
        <time>2018-08-14T08:45:46Z</time>
      </trkpt>
      <trkpt lat="45.87774" lon="4.73507">
        <ele>189</ele>
        <time>2018-08-14T08:45:47Z</time>
      </trkpt>
      <trkpt lat="45.87772" lon="4.73502">
        <ele>189</ele>
        <time>2018-08-14T08:45:48Z</time>
      </trkpt>
      <trkpt lat="45.87769" lon="4.73495">
        <ele>189</ele>
        <time>2018-08-14T08:45:49Z</time>
      </trkpt>
      <trkpt lat="45.87767" lon="4.73489">
        <ele>189</ele>
        <time>2018-08-14T08:45:50Z</time>
      </trkpt>
      <trkpt lat="45.87764" lon="4.73483">
        <ele>189</ele>
        <time>2018-08-14T08:45:51Z</time>
      </trkpt>
      <trkpt lat="45.87762" lon="4.73471">
        <ele>188</ele>
        <time>2018-08-14T08:45:53Z</time>
      </trkpt>
      <trkpt lat="45.87759" lon="4.73464">
        <ele>188</ele>
        <time>2018-08-14T08:45:54Z</time>
      </trkpt>
      <trkpt lat="45.87756" lon="4.73458">
        <ele>188</ele>
        <time>2018-08-14T08:45:55Z</time>
      </trkpt>
      <trkpt lat="45.87752" lon="4.73451">
        <ele>188</ele>
        <time>2018-08-14T08:45:56Z</time>
      </trkpt>
      <trkpt lat="45.87749" lon="4.73444">
        <ele>189</ele>
        <time>2018-08-14T08:45:57Z</time>
      </trkpt>
      <trkpt lat="45.87747" lon="4.7344">
        <ele>189</ele>
        <time>2018-08-14T08:45:58Z</time>
      </trkpt>
      <trkpt lat="45.87744" lon="4.73434">
        <ele>188</ele>
        <time>2018-08-14T08:45:59Z</time>
      </trkpt>
      <trkpt lat="45.87742" lon="4.73428">
        <ele>188</ele>
        <time>2018-08-14T08:46:00Z</time>
      </trkpt>
      <trkpt lat="45.87739" lon="4.73421">
        <ele>188</ele>
        <time>2018-08-14T08:46:01Z</time>
      </trkpt>
      <trkpt lat="45.87736" lon="4.73415">
        <ele>188</ele>
        <time>2018-08-14T08:46:02Z</time>
      </trkpt>
      <trkpt lat="45.87733" lon="4.73409">
        <ele>188</ele>
        <time>2018-08-14T08:46:03Z</time>
      </trkpt>
      <trkpt lat="45.8773" lon="4.73403">
        <ele>188</ele>
        <time>2018-08-14T08:46:04Z</time>
      </trkpt>
      <trkpt lat="45.87727" lon="4.73398">
        <ele>188</ele>
        <time>2018-08-14T08:46:05Z</time>
      </trkpt>
      <trkpt lat="45.87724" lon="4.73391">
        <ele>188</ele>
        <time>2018-08-14T08:46:06Z</time>
      </trkpt>
      <trkpt lat="45.8772" lon="4.73384">
        <ele>188</ele>
        <time>2018-08-14T08:46:07Z</time>
      </trkpt>
      <trkpt lat="45.87717" lon="4.73377">
        <ele>187</ele>
        <time>2018-08-14T08:46:08Z</time>
      </trkpt>
      <trkpt lat="45.87714" lon="4.7337">
        <ele>187</ele>
        <time>2018-08-14T08:46:09Z</time>
      </trkpt>
      <trkpt lat="45.87712" lon="4.73363">
        <ele>187</ele>
        <time>2018-08-14T08:46:10Z</time>
      </trkpt>
      <trkpt lat="45.8771" lon="4.73356">
        <ele>187</ele>
        <time>2018-08-14T08:46:11Z</time>
      </trkpt>
      <trkpt lat="45.87707" lon="4.7335">
        <ele>187</ele>
        <time>2018-08-14T08:46:12Z</time>
      </trkpt>
      <trkpt lat="45.87704" lon="4.73343">
        <ele>187</ele>
        <time>2018-08-14T08:46:13Z</time>
      </trkpt>
      <trkpt lat="45.87701" lon="4.73336">
        <ele>187</ele>
        <time>2018-08-14T08:46:14Z</time>
      </trkpt>
      <trkpt lat="45.87699" lon="4.73331">
        <ele>187</ele>
        <time>2018-08-14T08:46:15Z</time>
      </trkpt>
      <trkpt lat="45.87697" lon="4.73324">
        <ele>188</ele>
        <time>2018-08-14T08:46:16Z</time>
      </trkpt>
      <trkpt lat="45.87693" lon="4.73318">
        <ele>188</ele>
        <time>2018-08-14T08:46:17Z</time>
      </trkpt>
      <trkpt lat="45.8769" lon="4.73312">
        <ele>188</ele>
        <time>2018-08-14T08:46:18Z</time>
      </trkpt>
      <trkpt lat="45.87687" lon="4.73307">
        <ele>188</ele>
        <time>2018-08-14T08:46:19Z</time>
      </trkpt>
      <trkpt lat="45.87686" lon="4.733">
        <ele>188</ele>
        <time>2018-08-14T08:46:20Z</time>
      </trkpt>
      <trkpt lat="45.87683" lon="4.73294">
        <ele>188</ele>
        <time>2018-08-14T08:46:21Z</time>
      </trkpt>
      <trkpt lat="45.87679" lon="4.7329">
        <ele>188</ele>
        <time>2018-08-14T08:46:22Z</time>
      </trkpt>
      <trkpt lat="45.87676" lon="4.73284">
        <ele>188</ele>
        <time>2018-08-14T08:46:23Z</time>
      </trkpt>
      <trkpt lat="45.87672" lon="4.73277">
        <ele>188</ele>
        <time>2018-08-14T08:46:24Z</time>
      </trkpt>
      <trkpt lat="45.87669" lon="4.73271">
        <ele>188</ele>
        <time>2018-08-14T08:46:25Z</time>
      </trkpt>
      <trkpt lat="45.87666" lon="4.73264">
        <ele>189</ele>
        <time>2018-08-14T08:46:26Z</time>
      </trkpt>
      <trkpt lat="45.87663" lon="4.73257">
        <ele>189</ele>
        <time>2018-08-14T08:46:27Z</time>
      </trkpt>
      <trkpt lat="45.87658" lon="4.7325">
        <ele>189</ele>
        <time>2018-08-14T08:46:28Z</time>
      </trkpt>
      <trkpt lat="45.87655" lon="4.73244">
        <ele>188</ele>
        <time>2018-08-14T08:46:29Z</time>
      </trkpt>
      <trkpt lat="45.87651" lon="4.73237">
        <ele>188</ele>
        <time>2018-08-14T08:46:30Z</time>
      </trkpt>
      <trkpt lat="45.87648" lon="4.73232">
        <ele>188</ele>
        <time>2018-08-14T08:46:31Z</time>
      </trkpt>
      <trkpt lat="45.87644" lon="4.73226">
        <ele>188</ele>
        <time>2018-08-14T08:46:32Z</time>
      </trkpt>
      <trkpt lat="45.87642" lon="4.7322">
        <ele>188</ele>
        <time>2018-08-14T08:46:33Z</time>
      </trkpt>
      <trkpt lat="45.87639" lon="4.73215">
        <ele>188</ele>
        <time>2018-08-14T08:46:34Z</time>
      </trkpt>
      <trkpt lat="45.87636" lon="4.7321">
        <ele>188</ele>
        <time>2018-08-14T08:46:35Z</time>
      </trkpt>
      <trkpt lat="45.87633" lon="4.73203">
        <ele>188</ele>
        <time>2018-08-14T08:46:36Z</time>
      </trkpt>
      <trkpt lat="45.8763" lon="4.73197">
        <ele>188</ele>
        <time>2018-08-14T08:46:37Z</time>
      </trkpt>
      <trkpt lat="45.87627" lon="4.7319">
        <ele>188</ele>
        <time>2018-08-14T08:46:38Z</time>
      </trkpt>
      <trkpt lat="45.87623" lon="4.73184">
        <ele>188</ele>
        <time>2018-08-14T08:46:39Z</time>
      </trkpt>
      <trkpt lat="45.87619" lon="4.73177">
        <ele>187</ele>
        <time>2018-08-14T08:46:40Z</time>
      </trkpt>
      <trkpt lat="45.87616" lon="4.7317">
        <ele>187</ele>
        <time>2018-08-14T08:46:41Z</time>
      </trkpt>
      <trkpt lat="45.87613" lon="4.73163">
        <ele>187</ele>
        <time>2018-08-14T08:46:42Z</time>
      </trkpt>
      <trkpt lat="45.87606" lon="4.73156">
        <ele>187</ele>
        <time>2018-08-14T08:46:43Z</time>
      </trkpt>
      <trkpt lat="45.87603" lon="4.73149">
        <ele>187</ele>
        <time>2018-08-14T08:46:44Z</time>
      </trkpt>
      <trkpt lat="45.87597" lon="4.73141">
        <ele>187</ele>
        <time>2018-08-14T08:46:45Z</time>
      </trkpt>
      <trkpt lat="45.87592" lon="4.73134">
        <ele>187</ele>
        <time>2018-08-14T08:46:46Z</time>
      </trkpt>
      <trkpt lat="45.87587" lon="4.73128">
        <ele>187</ele>
        <time>2018-08-14T08:46:47Z</time>
      </trkpt>
      <trkpt lat="45.87584" lon="4.7312">
        <ele>188</ele>
        <time>2018-08-14T08:46:48Z</time>
      </trkpt>
      <trkpt lat="45.87581" lon="4.73112">
        <ele>187</ele>
        <time>2018-08-14T08:46:49Z</time>
      </trkpt>
      <trkpt lat="45.87578" lon="4.73105">
        <ele>188</ele>
        <time>2018-08-14T08:46:50Z</time>
      </trkpt>
      <trkpt lat="45.87575" lon="4.73098">
        <ele>188</ele>
        <time>2018-08-14T08:46:51Z</time>
      </trkpt>
      <trkpt lat="45.87573" lon="4.7309">
        <ele>188</ele>
        <time>2018-08-14T08:46:52Z</time>
      </trkpt>
      <trkpt lat="45.87569" lon="4.73084">
        <ele>188</ele>
        <time>2018-08-14T08:46:53Z</time>
      </trkpt>
      <trkpt lat="45.87566" lon="4.73077">
        <ele>188</ele>
        <time>2018-08-14T08:46:54Z</time>
      </trkpt>
      <trkpt lat="45.87564" lon="4.7307">
        <ele>188</ele>
        <time>2018-08-14T08:46:55Z</time>
      </trkpt>
      <trkpt lat="45.87563" lon="4.73063">
        <ele>188</ele>
        <time>2018-08-14T08:46:56Z</time>
      </trkpt>
      <trkpt lat="45.8756" lon="4.73051">
        <ele>188</ele>
        <time>2018-08-14T08:46:58Z</time>
      </trkpt>
      <trkpt lat="45.87553" lon="4.73044">
        <ele>188</ele>
        <time>2018-08-14T08:46:59Z</time>
      </trkpt>
      <trkpt lat="45.8755" lon="4.73038">
        <ele>188</ele>
        <time>2018-08-14T08:47:00Z</time>
      </trkpt>
      <trkpt lat="45.87547" lon="4.73032">
        <ele>188</ele>
        <time>2018-08-14T08:47:01Z</time>
      </trkpt>
      <trkpt lat="45.87544" lon="4.73026">
        <ele>188</ele>
        <time>2018-08-14T08:47:02Z</time>
      </trkpt>
      <trkpt lat="45.87541" lon="4.73018">
        <ele>187</ele>
        <time>2018-08-14T08:47:03Z</time>
      </trkpt>
      <trkpt lat="45.87538" lon="4.73013">
        <ele>187</ele>
        <time>2018-08-14T08:47:04Z</time>
      </trkpt>
      <trkpt lat="45.87535" lon="4.73007">
        <ele>187</ele>
        <time>2018-08-14T08:47:05Z</time>
      </trkpt>
      <trkpt lat="45.87532" lon="4.73001">
        <ele>187</ele>
        <time>2018-08-14T08:47:06Z</time>
      </trkpt>
      <trkpt lat="45.87529" lon="4.72995">
        <ele>187</ele>
        <time>2018-08-14T08:47:07Z</time>
      </trkpt>
      <trkpt lat="45.87525" lon="4.72984">
        <ele>187</ele>
        <time>2018-08-14T08:47:09Z</time>
      </trkpt>
      <trkpt lat="45.87522" lon="4.72978">
        <ele>187</ele>
        <time>2018-08-14T08:47:10Z</time>
      </trkpt>
      <trkpt lat="45.87519" lon="4.72971">
        <ele>187</ele>
        <time>2018-08-14T08:47:11Z</time>
      </trkpt>
      <trkpt lat="45.87516" lon="4.72965">
        <ele>187</ele>
        <time>2018-08-14T08:47:12Z</time>
      </trkpt>
      <trkpt lat="45.87512" lon="4.72959">
        <ele>187</ele>
        <time>2018-08-14T08:47:13Z</time>
      </trkpt>
      <trkpt lat="45.87509" lon="4.72954">
        <ele>187</ele>
        <time>2018-08-14T08:47:14Z</time>
      </trkpt>
      <trkpt lat="45.87505" lon="4.72949">
        <ele>187</ele>
        <time>2018-08-14T08:47:15Z</time>
      </trkpt>
      <trkpt lat="45.87501" lon="4.72944">
        <ele>187</ele>
        <time>2018-08-14T08:47:16Z</time>
      </trkpt>
      <trkpt lat="45.87497" lon="4.7294">
        <ele>188</ele>
        <time>2018-08-14T08:47:17Z</time>
      </trkpt>
      <trkpt lat="45.87492" lon="4.72937">
        <ele>188</ele>
        <time>2018-08-14T08:47:18Z</time>
      </trkpt>
      <trkpt lat="45.87487" lon="4.72934">
        <ele>188</ele>
        <time>2018-08-14T08:47:19Z</time>
      </trkpt>
      <trkpt lat="45.87481" lon="4.7293">
        <ele>188</ele>
        <time>2018-08-14T08:47:20Z</time>
      </trkpt>
      <trkpt lat="45.87478" lon="4.72923">
        <ele>188</ele>
        <time>2018-08-14T08:47:21Z</time>
      </trkpt>
      <trkpt lat="45.87474" lon="4.72917">
        <ele>188</ele>
        <time>2018-08-14T08:47:22Z</time>
      </trkpt>
      <trkpt lat="45.87469" lon="4.72907">
        <ele>188</ele>
        <time>2018-08-14T08:47:24Z</time>
      </trkpt>
      <trkpt lat="45.87468" lon="4.72903">
        <ele>188</ele>
        <time>2018-08-14T08:47:25Z</time>
      </trkpt>
      <trkpt lat="45.87466" lon="4.72892">
        <ele>188</ele>
        <time>2018-08-14T08:47:27Z</time>
      </trkpt>
      <trkpt lat="45.87465" lon="4.72887">
        <ele>188</ele>
        <time>2018-08-14T08:47:28Z</time>
      </trkpt>
      <trkpt lat="45.87463" lon="4.72875">
        <ele>188</ele>
        <time>2018-08-14T08:47:30Z</time>
      </trkpt>
      <trkpt lat="45.87459" lon="4.72868">
        <ele>188</ele>
        <time>2018-08-14T08:47:31Z</time>
      </trkpt>
      <trkpt lat="45.87457" lon="4.7286">
        <ele>188</ele>
        <time>2018-08-14T08:47:32Z</time>
      </trkpt>
      <trkpt lat="45.87455" lon="4.72853">
        <ele>188</ele>
        <time>2018-08-14T08:47:33Z</time>
      </trkpt>
      <trkpt lat="45.87452" lon="4.72846">
        <ele>188</ele>
        <time>2018-08-14T08:47:34Z</time>
      </trkpt>
      <trkpt lat="45.87449" lon="4.72839">
        <ele>188</ele>
        <time>2018-08-14T08:47:35Z</time>
      </trkpt>
      <trkpt lat="45.87447" lon="4.72833">
        <ele>189</ele>
        <time>2018-08-14T08:47:36Z</time>
      </trkpt>
      <trkpt lat="45.87445" lon="4.72826">
        <ele>189</ele>
        <time>2018-08-14T08:47:37Z</time>
      </trkpt>
      <trkpt lat="45.87439" lon="4.7282">
        <ele>189</ele>
        <time>2018-08-14T08:47:38Z</time>
      </trkpt>
      <trkpt lat="45.87437" lon="4.72814">
        <ele>189</ele>
        <time>2018-08-14T08:47:39Z</time>
      </trkpt>
      <trkpt lat="45.87434" lon="4.72802">
        <ele>189</ele>
        <time>2018-08-14T08:47:41Z</time>
      </trkpt>
      <trkpt lat="45.87431" lon="4.72796">
        <ele>189</ele>
        <time>2018-08-14T08:47:42Z</time>
      </trkpt>
      <trkpt lat="45.87428" lon="4.7279">
        <ele>189</ele>
        <time>2018-08-14T08:47:43Z</time>
      </trkpt>
      <trkpt lat="45.87426" lon="4.72782">
        <ele>189</ele>
        <time>2018-08-14T08:47:44Z</time>
      </trkpt>
      <trkpt lat="45.87423" lon="4.72775">
        <ele>189</ele>
        <time>2018-08-14T08:47:45Z</time>
      </trkpt>
      <trkpt lat="45.87421" lon="4.7277">
        <ele>189</ele>
        <time>2018-08-14T08:47:46Z</time>
      </trkpt>
      <trkpt lat="45.87418" lon="4.72764">
        <ele>189</ele>
        <time>2018-08-14T08:47:47Z</time>
      </trkpt>
      <trkpt lat="45.87412" lon="4.72757">
        <ele>189</ele>
        <time>2018-08-14T08:47:48Z</time>
      </trkpt>
      <trkpt lat="45.87407" lon="4.72753">
        <ele>189</ele>
        <time>2018-08-14T08:47:49Z</time>
      </trkpt>
      <trkpt lat="45.87402" lon="4.72747">
        <ele>189</ele>
        <time>2018-08-14T08:47:50Z</time>
      </trkpt>
      <trkpt lat="45.87399" lon="4.72741">
        <ele>189</ele>
        <time>2018-08-14T08:47:51Z</time>
      </trkpt>
      <trkpt lat="45.87394" lon="4.72737">
        <ele>190</ele>
        <time>2018-08-14T08:47:52Z</time>
      </trkpt>
      <trkpt lat="45.87391" lon="4.72733">
        <ele>190</ele>
        <time>2018-08-14T08:47:53Z</time>
      </trkpt>
      <trkpt lat="45.87388" lon="4.72727">
        <ele>190</ele>
        <time>2018-08-14T08:47:54Z</time>
      </trkpt>
      <trkpt lat="45.87386" lon="4.7272">
        <ele>190</ele>
        <time>2018-08-14T08:47:55Z</time>
      </trkpt>
      <trkpt lat="45.87385" lon="4.72713">
        <ele>190</ele>
        <time>2018-08-14T08:47:56Z</time>
      </trkpt>
      <trkpt lat="45.87379" lon="4.72702">
        <ele>190</ele>
        <time>2018-08-14T08:47:58Z</time>
      </trkpt>
      <trkpt lat="45.87377" lon="4.72697">
        <ele>190</ele>
        <time>2018-08-14T08:47:59Z</time>
      </trkpt>
      <trkpt lat="45.87373" lon="4.72691">
        <ele>190</ele>
        <time>2018-08-14T08:48:00Z</time>
      </trkpt>
      <trkpt lat="45.87368" lon="4.72686">
        <ele>190</ele>
        <time>2018-08-14T08:48:01Z</time>
      </trkpt>
      <trkpt lat="45.87361" lon="4.7268">
        <ele>190</ele>
        <time>2018-08-14T08:48:02Z</time>
      </trkpt>
      <trkpt lat="45.87357" lon="4.72675">
        <ele>190</ele>
        <time>2018-08-14T08:48:03Z</time>
      </trkpt>
      <trkpt lat="45.8735" lon="4.72674">
        <ele>190</ele>
        <time>2018-08-14T08:48:04Z</time>
      </trkpt>
      <trkpt lat="45.87345" lon="4.72671">
        <ele>190</ele>
        <time>2018-08-14T08:48:05Z</time>
      </trkpt>
      <trkpt lat="45.87339" lon="4.72662">
        <ele>190</ele>
        <time>2018-08-14T08:48:07Z</time>
      </trkpt>
      <trkpt lat="45.87336" lon="4.72657">
        <ele>190</ele>
        <time>2018-08-14T08:48:08Z</time>
      </trkpt>
      <trkpt lat="45.87332" lon="4.72653">
        <ele>192</ele>
        <time>2018-08-14T08:48:09Z</time>
      </trkpt>
      <trkpt lat="45.87328" lon="4.7265">
        <ele>192</ele>
        <time>2018-08-14T08:48:10Z</time>
      </trkpt>
      <trkpt lat="45.87324" lon="4.72646">
        <ele>192</ele>
        <time>2018-08-14T08:48:11Z</time>
      </trkpt>
      <trkpt lat="45.87321" lon="4.72641">
        <ele>192</ele>
        <time>2018-08-14T08:48:12Z</time>
      </trkpt>
      <trkpt lat="45.87317" lon="4.72637">
        <ele>193</ele>
        <time>2018-08-14T08:48:13Z</time>
      </trkpt>
      <trkpt lat="45.87313" lon="4.72631">
        <ele>193</ele>
        <time>2018-08-14T08:48:14Z</time>
      </trkpt>
      <trkpt lat="45.87309" lon="4.72626">
        <ele>193</ele>
        <time>2018-08-14T08:48:15Z</time>
      </trkpt>
      <trkpt lat="45.87303" lon="4.72622">
        <ele>193</ele>
        <time>2018-08-14T08:48:16Z</time>
      </trkpt>
      <trkpt lat="45.87299" lon="4.72617">
        <ele>194</ele>
        <time>2018-08-14T08:48:17Z</time>
      </trkpt>
      <trkpt lat="45.87295" lon="4.72612">
        <ele>194</ele>
        <time>2018-08-14T08:48:18Z</time>
      </trkpt>
      <trkpt lat="45.8729" lon="4.72607">
        <ele>194</ele>
        <time>2018-08-14T08:48:19Z</time>
      </trkpt>
      <trkpt lat="45.87286" lon="4.72602">
        <ele>194</ele>
        <time>2018-08-14T08:48:20Z</time>
      </trkpt>
      <trkpt lat="45.87283" lon="4.72597">
        <ele>194</ele>
        <time>2018-08-14T08:48:21Z</time>
      </trkpt>
      <trkpt lat="45.8728" lon="4.72591">
        <ele>195</ele>
        <time>2018-08-14T08:48:22Z</time>
      </trkpt>
      <trkpt lat="45.87276" lon="4.72587">
        <ele>195</ele>
        <time>2018-08-14T08:48:23Z</time>
      </trkpt>
      <trkpt lat="45.87273" lon="4.72582">
        <ele>195</ele>
        <time>2018-08-14T08:48:24Z</time>
      </trkpt>
      <trkpt lat="45.87268" lon="4.72577">
        <ele>195</ele>
        <time>2018-08-14T08:48:25Z</time>
      </trkpt>
      <trkpt lat="45.87265" lon="4.72572">
        <ele>195</ele>
        <time>2018-08-14T08:48:26Z</time>
      </trkpt>
      <trkpt lat="45.8726" lon="4.72563">
        <ele>195</ele>
        <time>2018-08-14T08:48:29Z</time>
      </trkpt>
      <trkpt lat="45.87255" lon="4.72556">
        <ele>194</ele>
        <time>2018-08-14T08:48:30Z</time>
      </trkpt>
      <trkpt lat="45.87253" lon="4.72546">
        <ele>194</ele>
        <time>2018-08-14T08:48:35Z</time>
      </trkpt>
      <trkpt lat="45.87252" lon="4.72543">
        <ele>194</ele>
        <time>2018-08-14T08:48:36Z</time>
      </trkpt>
      <trkpt lat="45.87249" lon="4.72532">
        <ele>197</ele>
        <time>2018-08-14T08:48:39Z</time>
      </trkpt>
      <trkpt lat="45.87247" lon="4.72529">
        <ele>196</ele>
        <time>2018-08-14T08:48:40Z</time>
      </trkpt>
      <trkpt lat="45.87242" lon="4.72516">
        <ele>196</ele>
        <time>2018-08-14T08:48:41Z</time>
      </trkpt>
      <trkpt lat="45.87237" lon="4.72512">
        <ele>196</ele>
        <time>2018-08-14T08:48:42Z</time>
      </trkpt>
      <trkpt lat="45.87235" lon="4.72508">
        <ele>196</ele>
        <time>2018-08-14T08:48:43Z</time>
      </trkpt>
      <trkpt lat="45.87231" lon="4.725">
        <ele>194</ele>
        <time>2018-08-14T08:48:45Z</time>
      </trkpt>
      <trkpt lat="45.87228" lon="4.72494">
        <ele>194</ele>
        <time>2018-08-14T08:48:46Z</time>
      </trkpt>
      <trkpt lat="45.87225" lon="4.72489">
        <ele>194</ele>
        <time>2018-08-14T08:48:47Z</time>
      </trkpt>
      <trkpt lat="45.87221" lon="4.72484">
        <ele>194</ele>
        <time>2018-08-14T08:48:48Z</time>
      </trkpt>
      <trkpt lat="45.87219" lon="4.72478">
        <ele>194</ele>
        <time>2018-08-14T08:48:49Z</time>
      </trkpt>
      <trkpt lat="45.87214" lon="4.72475">
        <ele>194</ele>
        <time>2018-08-14T08:48:50Z</time>
      </trkpt>
      <trkpt lat="45.87209" lon="4.72467">
        <ele>194</ele>
        <time>2018-08-14T08:48:52Z</time>
      </trkpt>
      <trkpt lat="45.87206" lon="4.72463">
        <ele>194</ele>
        <time>2018-08-14T08:48:53Z</time>
      </trkpt>
      <trkpt lat="45.87201" lon="4.72454">
        <ele>194</ele>
        <time>2018-08-14T08:48:55Z</time>
      </trkpt>
      <trkpt lat="45.87198" lon="4.7245">
        <ele>194</ele>
        <time>2018-08-14T08:48:56Z</time>
      </trkpt>
      <trkpt lat="45.87192" lon="4.72441">
        <ele>194</ele>
        <time>2018-08-14T08:48:58Z</time>
      </trkpt>
      <trkpt lat="45.87189" lon="4.72436">
        <ele>194</ele>
        <time>2018-08-14T08:48:59Z</time>
      </trkpt>
      <trkpt lat="45.87183" lon="4.72427">
        <ele>194</ele>
        <time>2018-08-14T08:49:02Z</time>
      </trkpt>
      <trkpt lat="45.87182" lon="4.72424">
        <ele>194</ele>
        <time>2018-08-14T08:49:03Z</time>
      </trkpt>
      <trkpt lat="45.87178" lon="4.72418">
        <ele>194</ele>
        <time>2018-08-14T08:49:05Z</time>
      </trkpt>
      <trkpt lat="45.87171" lon="4.72409">
        <ele>193</ele>
        <time>2018-08-14T08:49:06Z</time>
      </trkpt>
      <trkpt lat="45.87166" lon="4.72399">
        <ele>196</ele>
        <time>2018-08-14T08:49:08Z</time>
      </trkpt>
      <trkpt lat="45.87163" lon="4.72394">
        <ele>197</ele>
        <time>2018-08-14T08:49:09Z</time>
      </trkpt>
      <trkpt lat="45.87161" lon="4.72388">
        <ele>197</ele>
        <time>2018-08-14T08:49:10Z</time>
      </trkpt>
      <trkpt lat="45.87159" lon="4.72381">
        <ele>197</ele>
        <time>2018-08-14T08:49:11Z</time>
      </trkpt>
      <trkpt lat="45.87157" lon="4.72375">
        <ele>197</ele>
        <time>2018-08-14T08:49:12Z</time>
      </trkpt>
      <trkpt lat="45.87154" lon="4.72369">
        <ele>197</ele>
        <time>2018-08-14T08:49:13Z</time>
      </trkpt>
      <trkpt lat="45.87151" lon="4.72359">
        <ele>196</ele>
        <time>2018-08-14T08:49:15Z</time>
      </trkpt>
      <trkpt lat="45.87149" lon="4.72354">
        <ele>196</ele>
        <time>2018-08-14T08:49:16Z</time>
      </trkpt>
      <trkpt lat="45.87145" lon="4.72342">
        <ele>196</ele>
        <time>2018-08-14T08:49:18Z</time>
      </trkpt>
      <trkpt lat="45.87143" lon="4.72337">
        <ele>196</ele>
        <time>2018-08-14T08:49:19Z</time>
      </trkpt>
      <trkpt lat="45.87139" lon="4.72327">
        <ele>195</ele>
        <time>2018-08-14T08:49:21Z</time>
      </trkpt>
      <trkpt lat="45.87137" lon="4.72321">
        <ele>195</ele>
        <time>2018-08-14T08:49:22Z</time>
      </trkpt>
      <trkpt lat="45.87135" lon="4.72314">
        <ele>195</ele>
        <time>2018-08-14T08:49:23Z</time>
      </trkpt>
      <trkpt lat="45.87132" lon="4.72309">
        <ele>196</ele>
        <time>2018-08-14T08:49:24Z</time>
      </trkpt>
      <trkpt lat="45.8713" lon="4.72303">
        <ele>196</ele>
        <time>2018-08-14T08:49:25Z</time>
      </trkpt>
      <trkpt lat="45.87126" lon="4.72297">
        <ele>196</ele>
        <time>2018-08-14T08:49:26Z</time>
      </trkpt>
      <trkpt lat="45.87122" lon="4.72291">
        <ele>196</ele>
        <time>2018-08-14T08:49:27Z</time>
      </trkpt>
      <trkpt lat="45.87118" lon="4.72285">
        <ele>196</ele>
        <time>2018-08-14T08:49:28Z</time>
      </trkpt>
      <trkpt lat="45.87111" lon="4.7228">
        <ele>197</ele>
        <time>2018-08-14T08:49:29Z</time>
      </trkpt>
      <trkpt lat="45.87108" lon="4.72276">
        <ele>197</ele>
        <time>2018-08-14T08:49:30Z</time>
      </trkpt>
      <trkpt lat="45.87103" lon="4.72269">
        <ele>197</ele>
        <time>2018-08-14T08:49:31Z</time>
      </trkpt>
      <trkpt lat="45.871" lon="4.72265">
        <ele>197</ele>
        <time>2018-08-14T08:49:32Z</time>
      </trkpt>
      <trkpt lat="45.87096" lon="4.72261">
        <ele>198</ele>
        <time>2018-08-14T08:49:33Z</time>
      </trkpt>
      <trkpt lat="45.87092" lon="4.72257">
        <ele>198</ele>
        <time>2018-08-14T08:49:34Z</time>
      </trkpt>
      <trkpt lat="45.87088" lon="4.72254">
        <ele>198</ele>
        <time>2018-08-14T08:49:35Z</time>
      </trkpt>
      <trkpt lat="45.87084" lon="4.72248">
        <ele>198</ele>
        <time>2018-08-14T08:49:36Z</time>
      </trkpt>
      <trkpt lat="45.87079" lon="4.72243">
        <ele>200</ele>
        <time>2018-08-14T08:49:37Z</time>
      </trkpt>
      <trkpt lat="45.87075" lon="4.72239">
        <ele>200</ele>
        <time>2018-08-14T08:49:38Z</time>
      </trkpt>
      <trkpt lat="45.87071" lon="4.72234">
        <ele>200</ele>
        <time>2018-08-14T08:49:39Z</time>
      </trkpt>
      <trkpt lat="45.87066" lon="4.72231">
        <ele>200</ele>
        <time>2018-08-14T08:49:40Z</time>
      </trkpt>
      <trkpt lat="45.87061" lon="4.72226">
        <ele>200</ele>
        <time>2018-08-14T08:49:41Z</time>
      </trkpt>
      <trkpt lat="45.87056" lon="4.72222">
        <ele>200</ele>
        <time>2018-08-14T08:49:42Z</time>
      </trkpt>
      <trkpt lat="45.8705" lon="4.72218">
        <ele>201</ele>
        <time>2018-08-14T08:49:43Z</time>
      </trkpt>
      <trkpt lat="45.87045" lon="4.72213">
        <ele>201</ele>
        <time>2018-08-14T08:49:44Z</time>
      </trkpt>
      <trkpt lat="45.8704" lon="4.72209">
        <ele>201</ele>
        <time>2018-08-14T08:49:45Z</time>
      </trkpt>
      <trkpt lat="45.87037" lon="4.72206">
        <ele>201</ele>
        <time>2018-08-14T08:49:46Z</time>
      </trkpt>
      <trkpt lat="45.87031" lon="4.72202">
        <ele>201</ele>
        <time>2018-08-14T08:49:47Z</time>
      </trkpt>
      <trkpt lat="45.87026" lon="4.72198">
        <ele>201</ele>
        <time>2018-08-14T08:49:48Z</time>
      </trkpt>
      <trkpt lat="45.8702" lon="4.72194">
        <ele>201</ele>
        <time>2018-08-14T08:49:49Z</time>
      </trkpt>
      <trkpt lat="45.87016" lon="4.7219">
        <ele>201</ele>
        <time>2018-08-14T08:49:50Z</time>
      </trkpt>
      <trkpt lat="45.8701" lon="4.72187">
        <ele>201</ele>
        <time>2018-08-14T08:49:51Z</time>
      </trkpt>
      <trkpt lat="45.87004" lon="4.72183">
        <ele>201</ele>
        <time>2018-08-14T08:49:52Z</time>
      </trkpt>
      <trkpt lat="45.86998" lon="4.72179">
        <ele>206</ele>
        <time>2018-08-14T08:49:53Z</time>
      </trkpt>
      <trkpt lat="45.86992" lon="4.72174">
        <ele>205</ele>
        <time>2018-08-14T08:49:54Z</time>
      </trkpt>
      <trkpt lat="45.86986" lon="4.7217">
        <ele>206</ele>
        <time>2018-08-14T08:49:55Z</time>
      </trkpt>
      <trkpt lat="45.86981" lon="4.72166">
        <ele>201</ele>
        <time>2018-08-14T08:49:56Z</time>
      </trkpt>
      <trkpt lat="45.86976" lon="4.72164">
        <ele>201</ele>
        <time>2018-08-14T08:49:57Z</time>
      </trkpt>
      <trkpt lat="45.8697" lon="4.7216">
        <ele>201</ele>
        <time>2018-08-14T08:49:58Z</time>
      </trkpt>
      <trkpt lat="45.86965" lon="4.72156">
        <ele>201</ele>
        <time>2018-08-14T08:49:59Z</time>
      </trkpt>
      <trkpt lat="45.86959" lon="4.72152">
        <ele>201</ele>
        <time>2018-08-14T08:50:00Z</time>
      </trkpt>
      <trkpt lat="45.86954" lon="4.72147">
        <ele>201</ele>
        <time>2018-08-14T08:50:01Z</time>
      </trkpt>
      <trkpt lat="45.8695" lon="4.72145">
        <ele>201</ele>
        <time>2018-08-14T08:50:02Z</time>
      </trkpt>
      <trkpt lat="45.86946" lon="4.72141">
        <ele>201</ele>
        <time>2018-08-14T08:50:03Z</time>
      </trkpt>
      <trkpt lat="45.8694" lon="4.72137">
        <ele>201</ele>
        <time>2018-08-14T08:50:04Z</time>
      </trkpt>
      <trkpt lat="45.86935" lon="4.72134">
        <ele>201</ele>
        <time>2018-08-14T08:50:05Z</time>
      </trkpt>
      <trkpt lat="45.86929" lon="4.72131">
        <ele>201</ele>
        <time>2018-08-14T08:50:06Z</time>
      </trkpt>
      <trkpt lat="45.86923" lon="4.7213">
        <ele>201</ele>
        <time>2018-08-14T08:50:07Z</time>
      </trkpt>
      <trkpt lat="45.86916" lon="4.72126">
        <ele>203</ele>
        <time>2018-08-14T08:50:08Z</time>
      </trkpt>
      <trkpt lat="45.8691" lon="4.72123">
        <ele>202</ele>
        <time>2018-08-14T08:50:09Z</time>
      </trkpt>
      <trkpt lat="45.86903" lon="4.72121">
        <ele>202</ele>
        <time>2018-08-14T08:50:10Z</time>
      </trkpt>
      <trkpt lat="45.86897" lon="4.72118">
        <ele>201</ele>
        <time>2018-08-14T08:50:11Z</time>
      </trkpt>
      <trkpt lat="45.8689" lon="4.72117">
        <ele>201</ele>
        <time>2018-08-14T08:50:12Z</time>
      </trkpt>
      <trkpt lat="45.86884" lon="4.72115">
        <ele>201</ele>
        <time>2018-08-14T08:50:13Z</time>
      </trkpt>
      <trkpt lat="45.86879" lon="4.7211">
        <ele>201</ele>
        <time>2018-08-14T08:50:14Z</time>
      </trkpt>
      <trkpt lat="45.86873" lon="4.72108">
        <ele>201</ele>
        <time>2018-08-14T08:50:15Z</time>
      </trkpt>
      <trkpt lat="45.86868" lon="4.72104">
        <ele>200</ele>
        <time>2018-08-14T08:50:16Z</time>
      </trkpt>
      <trkpt lat="45.86863" lon="4.72101">
        <ele>200</ele>
        <time>2018-08-14T08:50:17Z</time>
      </trkpt>
      <trkpt lat="45.86855" lon="4.72098">
        <ele>199</ele>
        <time>2018-08-14T08:50:18Z</time>
      </trkpt>
      <trkpt lat="45.86848" lon="4.72097">
        <ele>198</ele>
        <time>2018-08-14T08:50:19Z</time>
      </trkpt>
      <trkpt lat="45.86842" lon="4.72095">
        <ele>197</ele>
        <time>2018-08-14T08:50:20Z</time>
      </trkpt>
      <trkpt lat="45.86838" lon="4.72093">
        <ele>196</ele>
        <time>2018-08-14T08:50:21Z</time>
      </trkpt>
      <trkpt lat="45.86832" lon="4.7209">
        <ele>196</ele>
        <time>2018-08-14T08:50:22Z</time>
      </trkpt>
      <trkpt lat="45.86827" lon="4.72088">
        <ele>196</ele>
        <time>2018-08-14T08:50:23Z</time>
      </trkpt>
      <trkpt lat="45.86821" lon="4.72085">
        <ele>198</ele>
        <time>2018-08-14T08:50:24Z</time>
      </trkpt>
      <trkpt lat="45.86816" lon="4.72082">
        <ele>194</ele>
        <time>2018-08-14T08:50:25Z</time>
      </trkpt>
      <trkpt lat="45.8681" lon="4.72079">
        <ele>194</ele>
        <time>2018-08-14T08:50:26Z</time>
      </trkpt>
      <trkpt lat="45.86804" lon="4.72076">
        <ele>194</ele>
        <time>2018-08-14T08:50:27Z</time>
      </trkpt>
      <trkpt lat="45.86799" lon="4.72074">
        <ele>194</ele>
        <time>2018-08-14T08:50:28Z</time>
      </trkpt>
      <trkpt lat="45.86794" lon="4.72073">
        <ele>194</ele>
        <time>2018-08-14T08:50:29Z</time>
      </trkpt>
      <trkpt lat="45.86789" lon="4.72072">
        <ele>194</ele>
        <time>2018-08-14T08:50:30Z</time>
      </trkpt>
      <trkpt lat="45.86785" lon="4.7207">
        <ele>194</ele>
        <time>2018-08-14T08:50:31Z</time>
      </trkpt>
      <trkpt lat="45.86779" lon="4.72068">
        <ele>194</ele>
        <time>2018-08-14T08:50:32Z</time>
      </trkpt>
      <trkpt lat="45.86773" lon="4.72067">
        <ele>195</ele>
        <time>2018-08-14T08:50:33Z</time>
      </trkpt>
      <trkpt lat="45.86767" lon="4.72063">
        <ele>195</ele>
        <time>2018-08-14T08:50:34Z</time>
      </trkpt>
      <trkpt lat="45.86762" lon="4.72059">
        <ele>195</ele>
        <time>2018-08-14T08:50:35Z</time>
      </trkpt>
      <trkpt lat="45.86757" lon="4.72056">
        <ele>195</ele>
        <time>2018-08-14T08:50:36Z</time>
      </trkpt>
      <trkpt lat="45.86753" lon="4.72052">
        <ele>195</ele>
        <time>2018-08-14T08:50:37Z</time>
      </trkpt>
      <trkpt lat="45.86747" lon="4.7205">
        <ele>197</ele>
        <time>2018-08-14T08:50:38Z</time>
      </trkpt>
      <trkpt lat="45.86742" lon="4.72049">
        <ele>197</ele>
        <time>2018-08-14T08:50:39Z</time>
      </trkpt>
      <trkpt lat="45.86737" lon="4.72047">
        <ele>197</ele>
        <time>2018-08-14T08:50:40Z</time>
      </trkpt>
      <trkpt lat="45.86732" lon="4.72044">
        <ele>197</ele>
        <time>2018-08-14T08:50:41Z</time>
      </trkpt>
      <trkpt lat="45.86727" lon="4.72042">
        <ele>197</ele>
        <time>2018-08-14T08:50:42Z</time>
      </trkpt>
      <trkpt lat="45.86722" lon="4.72039">
        <ele>197</ele>
        <time>2018-08-14T08:50:43Z</time>
      </trkpt>
      <trkpt lat="45.86719" lon="4.72035">
        <ele>197</ele>
        <time>2018-08-14T08:50:44Z</time>
      </trkpt>
      <trkpt lat="45.86714" lon="4.72032">
        <ele>197</ele>
        <time>2018-08-14T08:50:45Z</time>
      </trkpt>
      <trkpt lat="45.8671" lon="4.72028">
        <ele>197</ele>
        <time>2018-08-14T08:50:46Z</time>
      </trkpt>
      <trkpt lat="45.86705" lon="4.72024">
        <ele>197</ele>
        <time>2018-08-14T08:50:47Z</time>
      </trkpt>
      <trkpt lat="45.86698" lon="4.72021">
        <ele>197</ele>
        <time>2018-08-14T08:50:48Z</time>
      </trkpt>
      <trkpt lat="45.86693" lon="4.72016">
        <ele>196</ele>
        <time>2018-08-14T08:50:49Z</time>
      </trkpt>
      <trkpt lat="45.86688" lon="4.72012">
        <ele>196</ele>
        <time>2018-08-14T08:50:50Z</time>
      </trkpt>
      <trkpt lat="45.86682" lon="4.72008">
        <ele>196</ele>
        <time>2018-08-14T08:50:51Z</time>
      </trkpt>
      <trkpt lat="45.86677" lon="4.72003">
        <ele>196</ele>
        <time>2018-08-14T08:50:52Z</time>
      </trkpt>
      <trkpt lat="45.86672" lon="4.71999">
        <ele>195</ele>
        <time>2018-08-14T08:50:53Z</time>
      </trkpt>
      <trkpt lat="45.86668" lon="4.71995">
        <ele>195</ele>
        <time>2018-08-14T08:50:54Z</time>
      </trkpt>
      <trkpt lat="45.86663" lon="4.71993">
        <ele>195</ele>
        <time>2018-08-14T08:50:55Z</time>
      </trkpt>
      <trkpt lat="45.86659" lon="4.7199">
        <ele>195</ele>
        <time>2018-08-14T08:50:56Z</time>
      </trkpt>
      <trkpt lat="45.86654" lon="4.71986">
        <ele>195</ele>
        <time>2018-08-14T08:50:57Z</time>
      </trkpt>
      <trkpt lat="45.86649" lon="4.71983">
        <ele>195</ele>
        <time>2018-08-14T08:50:58Z</time>
      </trkpt>
      <trkpt lat="45.86644" lon="4.7198">
        <ele>195</ele>
        <time>2018-08-14T08:50:59Z</time>
      </trkpt>
      <trkpt lat="45.8664" lon="4.71976">
        <ele>195</ele>
        <time>2018-08-14T08:51:00Z</time>
      </trkpt>
      <trkpt lat="45.86635" lon="4.71972">
        <ele>195</ele>
        <time>2018-08-14T08:51:01Z</time>
      </trkpt>
      <trkpt lat="45.8663" lon="4.71968">
        <ele>195</ele>
        <time>2018-08-14T08:51:02Z</time>
      </trkpt>
      <trkpt lat="45.86624" lon="4.71965">
        <ele>195</ele>
        <time>2018-08-14T08:51:03Z</time>
      </trkpt>
      <trkpt lat="45.86621" lon="4.71961">
        <ele>195</ele>
        <time>2018-08-14T08:51:04Z</time>
      </trkpt>
      <trkpt lat="45.86616" lon="4.71959">
        <ele>195</ele>
        <time>2018-08-14T08:51:05Z</time>
      </trkpt>
      <trkpt lat="45.8661" lon="4.71954">
        <ele>194</ele>
        <time>2018-08-14T08:51:06Z</time>
      </trkpt>
      <trkpt lat="45.86606" lon="4.71949">
        <ele>194</ele>
        <time>2018-08-14T08:51:07Z</time>
      </trkpt>
      <trkpt lat="45.86601" lon="4.71946">
        <ele>194</ele>
        <time>2018-08-14T08:51:08Z</time>
      </trkpt>
      <trkpt lat="45.86598" lon="4.71942">
        <ele>194</ele>
        <time>2018-08-14T08:51:09Z</time>
      </trkpt>
      <trkpt lat="45.8659" lon="4.71938">
        <ele>194</ele>
        <time>2018-08-14T08:51:10Z</time>
      </trkpt>
      <trkpt lat="45.86585" lon="4.71932">
        <ele>194</ele>
        <time>2018-08-14T08:51:12Z</time>
      </trkpt>
      <trkpt lat="45.86582" lon="4.71928">
        <ele>195</ele>
        <time>2018-08-14T08:51:13Z</time>
      </trkpt>
      <trkpt lat="45.86577" lon="4.71925">
        <ele>195</ele>
        <time>2018-08-14T08:51:14Z</time>
      </trkpt>
      <trkpt lat="45.86572" lon="4.71921">
        <ele>195</ele>
        <time>2018-08-14T08:51:15Z</time>
      </trkpt>
      <trkpt lat="45.86568" lon="4.71919">
        <ele>195</ele>
        <time>2018-08-14T08:51:16Z</time>
      </trkpt>
      <trkpt lat="45.86562" lon="4.71915">
        <ele>195</ele>
        <time>2018-08-14T08:51:17Z</time>
      </trkpt>
      <trkpt lat="45.86558" lon="4.71912">
        <ele>195</ele>
        <time>2018-08-14T08:51:18Z</time>
      </trkpt>
      <trkpt lat="45.86552" lon="4.71909">
        <ele>195</ele>
        <time>2018-08-14T08:51:19Z</time>
      </trkpt>
      <trkpt lat="45.86548" lon="4.71904">
        <ele>195</ele>
        <time>2018-08-14T08:51:20Z</time>
      </trkpt>
      <trkpt lat="45.86543" lon="4.71901">
        <ele>195</ele>
        <time>2018-08-14T08:51:21Z</time>
      </trkpt>
      <trkpt lat="45.86538" lon="4.71897">
        <ele>195</ele>
        <time>2018-08-14T08:51:22Z</time>
      </trkpt>
      <trkpt lat="45.86533" lon="4.71893">
        <ele>195</ele>
        <time>2018-08-14T08:51:23Z</time>
      </trkpt>
      <trkpt lat="45.86528" lon="4.7189">
        <ele>195</ele>
        <time>2018-08-14T08:51:24Z</time>
      </trkpt>
      <trkpt lat="45.86522" lon="4.71888">
        <ele>195</ele>
        <time>2018-08-14T08:51:25Z</time>
      </trkpt>
      <trkpt lat="45.86518" lon="4.71884">
        <ele>195</ele>
        <time>2018-08-14T08:51:26Z</time>
      </trkpt>
      <trkpt lat="45.86514" lon="4.71881">
        <ele>195</ele>
        <time>2018-08-14T08:51:27Z</time>
      </trkpt>
      <trkpt lat="45.86508" lon="4.71875">
        <ele>195</ele>
        <time>2018-08-14T08:51:29Z</time>
      </trkpt>
      <trkpt lat="45.86505" lon="4.71871">
        <ele>195</ele>
        <time>2018-08-14T08:51:30Z</time>
      </trkpt>
      <trkpt lat="45.86498" lon="4.71866">
        <ele>198</ele>
        <time>2018-08-14T08:51:32Z</time>
      </trkpt>
      <trkpt lat="45.86493" lon="4.71863">
        <ele>198</ele>
        <time>2018-08-14T08:51:33Z</time>
      </trkpt>
      <trkpt lat="45.86488" lon="4.7186">
        <ele>198</ele>
        <time>2018-08-14T08:51:34Z</time>
      </trkpt>
      <trkpt lat="45.86483" lon="4.71856">
        <ele>198</ele>
        <time>2018-08-14T08:51:35Z</time>
      </trkpt>
      <trkpt lat="45.86477" lon="4.71852">
        <ele>199</ele>
        <time>2018-08-14T08:51:36Z</time>
      </trkpt>
      <trkpt lat="45.86473" lon="4.71849">
        <ele>199</ele>
        <time>2018-08-14T08:51:37Z</time>
      </trkpt>
      <trkpt lat="45.86469" lon="4.71845">
        <ele>199</ele>
        <time>2018-08-14T08:51:38Z</time>
      </trkpt>
      <trkpt lat="45.86463" lon="4.7184">
        <ele>199</ele>
        <time>2018-08-14T08:51:39Z</time>
      </trkpt>
      <trkpt lat="45.86458" lon="4.71835">
        <ele>200</ele>
        <time>2018-08-14T08:51:40Z</time>
      </trkpt>
      <trkpt lat="45.86454" lon="4.71832">
        <ele>197</ele>
        <time>2018-08-14T08:51:41Z</time>
      </trkpt>
      <trkpt lat="45.86449" lon="4.71828">
        <ele>197</ele>
        <time>2018-08-14T08:51:42Z</time>
      </trkpt>
      <trkpt lat="45.86444" lon="4.71825">
        <ele>197</ele>
        <time>2018-08-14T08:51:43Z</time>
      </trkpt>
      <trkpt lat="45.86439" lon="4.71821">
        <ele>198</ele>
        <time>2018-08-14T08:51:44Z</time>
      </trkpt>
      <trkpt lat="45.86434" lon="4.71818">
        <ele>198</ele>
        <time>2018-08-14T08:51:45Z</time>
      </trkpt>
      <trkpt lat="45.8643" lon="4.71813">
        <ele>198</ele>
        <time>2018-08-14T08:51:46Z</time>
      </trkpt>
      <trkpt lat="45.86425" lon="4.71811">
        <ele>198</ele>
        <time>2018-08-14T08:51:47Z</time>
      </trkpt>
      <trkpt lat="45.86421" lon="4.71807">
        <ele>198</ele>
        <time>2018-08-14T08:51:48Z</time>
      </trkpt>
      <trkpt lat="45.86416" lon="4.71804">
        <ele>199</ele>
        <time>2018-08-14T08:51:49Z</time>
      </trkpt>
      <trkpt lat="45.86412" lon="4.718">
        <ele>199</ele>
        <time>2018-08-14T08:51:50Z</time>
      </trkpt>
      <trkpt lat="45.86407" lon="4.71797">
        <ele>199</ele>
        <time>2018-08-14T08:51:51Z</time>
      </trkpt>
      <trkpt lat="45.86403" lon="4.71793">
        <ele>199</ele>
        <time>2018-08-14T08:51:52Z</time>
      </trkpt>
      <trkpt lat="45.86398" lon="4.71789">
        <ele>198</ele>
        <time>2018-08-14T08:51:53Z</time>
      </trkpt>
      <trkpt lat="45.86394" lon="4.71785">
        <ele>198</ele>
        <time>2018-08-14T08:51:54Z</time>
      </trkpt>
      <trkpt lat="45.86389" lon="4.71781">
        <ele>198</ele>
        <time>2018-08-14T08:51:55Z</time>
      </trkpt>
      <trkpt lat="45.86384" lon="4.71777">
        <ele>198</ele>
        <time>2018-08-14T08:51:56Z</time>
      </trkpt>
      <trkpt lat="45.86379" lon="4.71773">
        <ele>198</ele>
        <time>2018-08-14T08:51:57Z</time>
      </trkpt>
      <trkpt lat="45.86375" lon="4.7177">
        <ele>198</ele>
        <time>2018-08-14T08:51:58Z</time>
      </trkpt>
      <trkpt lat="45.86371" lon="4.71767">
        <ele>198</ele>
        <time>2018-08-14T08:51:59Z</time>
      </trkpt>
      <trkpt lat="45.86365" lon="4.71763">
        <ele>198</ele>
        <time>2018-08-14T08:52:00Z</time>
      </trkpt>
      <trkpt lat="45.86361" lon="4.71759">
        <ele>198</ele>
        <time>2018-08-14T08:52:01Z</time>
      </trkpt>
      <trkpt lat="45.86356" lon="4.71755">
        <ele>197</ele>
        <time>2018-08-14T08:52:02Z</time>
      </trkpt>
      <trkpt lat="45.86351" lon="4.71751">
        <ele>197</ele>
        <time>2018-08-14T08:52:03Z</time>
      </trkpt>
      <trkpt lat="45.86347" lon="4.71747">
        <ele>195</ele>
        <time>2018-08-14T08:52:04Z</time>
      </trkpt>
      <trkpt lat="45.86343" lon="4.71742">
        <ele>195</ele>
        <time>2018-08-14T08:52:05Z</time>
      </trkpt>
      <trkpt lat="45.86339" lon="4.71738">
        <ele>195</ele>
        <time>2018-08-14T08:52:06Z</time>
      </trkpt>
      <trkpt lat="45.86334" lon="4.71735">
        <ele>195</ele>
        <time>2018-08-14T08:52:07Z</time>
      </trkpt>
      <trkpt lat="45.86329" lon="4.71731">
        <ele>196</ele>
        <time>2018-08-14T08:52:08Z</time>
      </trkpt>
      <trkpt lat="45.86324" lon="4.71728">
        <ele>196</ele>
        <time>2018-08-14T08:52:09Z</time>
      </trkpt>
      <trkpt lat="45.8632" lon="4.71724">
        <ele>196</ele>
        <time>2018-08-14T08:52:10Z</time>
      </trkpt>
      <trkpt lat="45.86315" lon="4.71721">
        <ele>196</ele>
        <time>2018-08-14T08:52:11Z</time>
      </trkpt>
      <trkpt lat="45.8631" lon="4.71716">
        <ele>196</ele>
        <time>2018-08-14T08:52:12Z</time>
      </trkpt>
      <trkpt lat="45.86306" lon="4.71713">
        <ele>195</ele>
        <time>2018-08-14T08:52:13Z</time>
      </trkpt>
      <trkpt lat="45.86301" lon="4.71709">
        <ele>195</ele>
        <time>2018-08-14T08:52:14Z</time>
      </trkpt>
      <trkpt lat="45.86297" lon="4.71705">
        <ele>195</ele>
        <time>2018-08-14T08:52:15Z</time>
      </trkpt>
      <trkpt lat="45.86292" lon="4.71701">
        <ele>195</ele>
        <time>2018-08-14T08:52:16Z</time>
      </trkpt>
      <trkpt lat="45.86286" lon="4.71697">
        <ele>195</ele>
        <time>2018-08-14T08:52:17Z</time>
      </trkpt>
      <trkpt lat="45.86281" lon="4.71693">
        <ele>195</ele>
        <time>2018-08-14T08:52:18Z</time>
      </trkpt>
      <trkpt lat="45.86276" lon="4.71689">
        <ele>195</ele>
        <time>2018-08-14T08:52:19Z</time>
      </trkpt>
      <trkpt lat="45.86271" lon="4.71685">
        <ele>195</ele>
        <time>2018-08-14T08:52:20Z</time>
      </trkpt>
      <trkpt lat="45.86266" lon="4.71681">
        <ele>195</ele>
        <time>2018-08-14T08:52:21Z</time>
      </trkpt>
      <trkpt lat="45.86261" lon="4.71677">
        <ele>195</ele>
        <time>2018-08-14T08:52:22Z</time>
      </trkpt>
      <trkpt lat="45.86256" lon="4.71673">
        <ele>195</ele>
        <time>2018-08-14T08:52:23Z</time>
      </trkpt>
      <trkpt lat="45.86249" lon="4.71669">
        <ele>195</ele>
        <time>2018-08-14T08:52:24Z</time>
      </trkpt>
      <trkpt lat="45.86244" lon="4.71664">
        <ele>195</ele>
        <time>2018-08-14T08:52:25Z</time>
      </trkpt>
      <trkpt lat="45.86237" lon="4.71657">
        <ele>195</ele>
        <time>2018-08-14T08:52:27Z</time>
      </trkpt>
      <trkpt lat="45.86232" lon="4.71653">
        <ele>195</ele>
        <time>2018-08-14T08:52:28Z</time>
      </trkpt>
      <trkpt lat="45.86227" lon="4.71649">
        <ele>195</ele>
        <time>2018-08-14T08:52:29Z</time>
      </trkpt>
      <trkpt lat="45.86222" lon="4.71646">
        <ele>195</ele>
        <time>2018-08-14T08:52:30Z</time>
      </trkpt>
      <trkpt lat="45.86219" lon="4.71641">
        <ele>195</ele>
        <time>2018-08-14T08:52:31Z</time>
      </trkpt>
      <trkpt lat="45.86215" lon="4.71636">
        <ele>195</ele>
        <time>2018-08-14T08:52:32Z</time>
      </trkpt>
      <trkpt lat="45.86212" lon="4.71629">
        <ele>195</ele>
        <time>2018-08-14T08:52:33Z</time>
      </trkpt>
      <trkpt lat="45.86212" lon="4.71622">
        <ele>195</ele>
        <time>2018-08-14T08:52:34Z</time>
      </trkpt>
      <trkpt lat="45.86208" lon="4.71615">
        <ele>195</ele>
        <time>2018-08-14T08:52:35Z</time>
      </trkpt>
      <trkpt lat="45.86204" lon="4.7161">
        <ele>195</ele>
        <time>2018-08-14T08:52:36Z</time>
      </trkpt>
      <trkpt lat="45.86199" lon="4.71606">
        <ele>195</ele>
        <time>2018-08-14T08:52:37Z</time>
      </trkpt>
      <trkpt lat="45.86196" lon="4.71601">
        <ele>195</ele>
        <time>2018-08-14T08:52:38Z</time>
      </trkpt>
      <trkpt lat="45.86192" lon="4.71595">
        <ele>195</ele>
        <time>2018-08-14T08:52:39Z</time>
      </trkpt>
      <trkpt lat="45.86189" lon="4.71589">
        <ele>195</ele>
        <time>2018-08-14T08:52:40Z</time>
      </trkpt>
      <trkpt lat="45.86185" lon="4.71583">
        <ele>195</ele>
        <time>2018-08-14T08:52:41Z</time>
      </trkpt>
      <trkpt lat="45.86182" lon="4.71576">
        <ele>195</ele>
        <time>2018-08-14T08:52:42Z</time>
      </trkpt>
      <trkpt lat="45.86176" lon="4.71571">
        <ele>196</ele>
        <time>2018-08-14T08:52:43Z</time>
      </trkpt>
      <trkpt lat="45.86173" lon="4.71565">
        <ele>195</ele>
        <time>2018-08-14T08:52:44Z</time>
      </trkpt>
      <trkpt lat="45.86171" lon="4.71559">
        <ele>195</ele>
        <time>2018-08-14T08:52:45Z</time>
      </trkpt>
      <trkpt lat="45.86168" lon="4.71554">
        <ele>195</ele>
        <time>2018-08-14T08:52:46Z</time>
      </trkpt>
      <trkpt lat="45.86163" lon="4.71549">
        <ele>196</ele>
        <time>2018-08-14T08:52:47Z</time>
      </trkpt>
      <trkpt lat="45.8616" lon="4.71545">
        <ele>196</ele>
        <time>2018-08-14T08:52:48Z</time>
      </trkpt>
      <trkpt lat="45.86156" lon="4.71538">
        <ele>195</ele>
        <time>2018-08-14T08:52:49Z</time>
      </trkpt>
      <trkpt lat="45.86153" lon="4.71531">
        <ele>195</ele>
        <time>2018-08-14T08:52:50Z</time>
      </trkpt>
      <trkpt lat="45.86151" lon="4.71524">
        <ele>195</ele>
        <time>2018-08-14T08:52:51Z</time>
      </trkpt>
      <trkpt lat="45.86148" lon="4.71516">
        <ele>195</ele>
        <time>2018-08-14T08:52:52Z</time>
      </trkpt>
      <trkpt lat="45.86146" lon="4.71511">
        <ele>195</ele>
        <time>2018-08-14T08:52:53Z</time>
      </trkpt>
      <trkpt lat="45.86143" lon="4.71506">
        <ele>195</ele>
        <time>2018-08-14T08:52:54Z</time>
      </trkpt>
      <trkpt lat="45.86139" lon="4.715">
        <ele>195</ele>
        <time>2018-08-14T08:52:55Z</time>
      </trkpt>
      <trkpt lat="45.86135" lon="4.71494">
        <ele>195</ele>
        <time>2018-08-14T08:52:56Z</time>
      </trkpt>
      <trkpt lat="45.86134" lon="4.71487">
        <ele>195</ele>
        <time>2018-08-14T08:52:57Z</time>
      </trkpt>
      <trkpt lat="45.86131" lon="4.71481">
        <ele>195</ele>
        <time>2018-08-14T08:52:58Z</time>
      </trkpt>
      <trkpt lat="45.86129" lon="4.71474">
        <ele>195</ele>
        <time>2018-08-14T08:52:59Z</time>
      </trkpt>
      <trkpt lat="45.86127" lon="4.71467">
        <ele>195</ele>
        <time>2018-08-14T08:53:00Z</time>
      </trkpt>
      <trkpt lat="45.86126" lon="4.7146">
        <ele>195</ele>
        <time>2018-08-14T08:53:01Z</time>
      </trkpt>
      <trkpt lat="45.86125" lon="4.71454">
        <ele>195</ele>
        <time>2018-08-14T08:53:02Z</time>
      </trkpt>
      <trkpt lat="45.86125" lon="4.71447">
        <ele>195</ele>
        <time>2018-08-14T08:53:03Z</time>
      </trkpt>
      <trkpt lat="45.86123" lon="4.7144">
        <ele>195</ele>
        <time>2018-08-14T08:53:04Z</time>
      </trkpt>
      <trkpt lat="45.86122" lon="4.71431">
        <ele>195</ele>
        <time>2018-08-14T08:53:05Z</time>
      </trkpt>
      <trkpt lat="45.8612" lon="4.71423">
        <ele>195</ele>
        <time>2018-08-14T08:53:06Z</time>
      </trkpt>
      <trkpt lat="45.86118" lon="4.71416">
        <ele>196</ele>
        <time>2018-08-14T08:53:07Z</time>
      </trkpt>
      <trkpt lat="45.86117" lon="4.7141">
        <ele>196</ele>
        <time>2018-08-14T08:53:08Z</time>
      </trkpt>
      <trkpt lat="45.86118" lon="4.71398">
        <ele>196</ele>
        <time>2018-08-14T08:53:10Z</time>
      </trkpt>
      <trkpt lat="45.86118" lon="4.71395">
        <ele>196</ele>
        <time>2018-08-14T08:53:11Z</time>
      </trkpt>
      <trkpt lat="45.86115" lon="4.71383">
        <ele>196</ele>
        <time>2018-08-14T08:53:12Z</time>
      </trkpt>
      <trkpt lat="45.86113" lon="4.71378">
        <ele>196</ele>
        <time>2018-08-14T08:53:13Z</time>
      </trkpt>
      <trkpt lat="45.8611" lon="4.71366">
        <ele>196</ele>
        <time>2018-08-14T08:53:15Z</time>
      </trkpt>
      <trkpt lat="45.86109" lon="4.7136">
        <ele>196</ele>
        <time>2018-08-14T08:53:16Z</time>
      </trkpt>
      <trkpt lat="45.86111" lon="4.71354">
        <ele>196</ele>
        <time>2018-08-14T08:53:17Z</time>
      </trkpt>
      <trkpt lat="45.8611" lon="4.71348">
        <ele>196</ele>
        <time>2018-08-14T08:53:18Z</time>
      </trkpt>
      <trkpt lat="45.8611" lon="4.71341">
        <ele>196</ele>
        <time>2018-08-14T08:53:19Z</time>
      </trkpt>
      <trkpt lat="45.86109" lon="4.71333">
        <ele>196</ele>
        <time>2018-08-14T08:53:20Z</time>
      </trkpt>
      <trkpt lat="45.86107" lon="4.71327">
        <ele>196</ele>
        <time>2018-08-14T08:53:21Z</time>
      </trkpt>
      <trkpt lat="45.86105" lon="4.7132">
        <ele>196</ele>
        <time>2018-08-14T08:53:22Z</time>
      </trkpt>
      <trkpt lat="45.86105" lon="4.71312">
        <ele>196</ele>
        <time>2018-08-14T08:53:23Z</time>
      </trkpt>
      <trkpt lat="45.86103" lon="4.71305">
        <ele>197</ele>
        <time>2018-08-14T08:53:24Z</time>
      </trkpt>
      <trkpt lat="45.86102" lon="4.71298">
        <ele>197</ele>
        <time>2018-08-14T08:53:25Z</time>
      </trkpt>
      <trkpt lat="45.86096" lon="4.71291">
        <ele>197</ele>
        <time>2018-08-14T08:53:26Z</time>
      </trkpt>
      <trkpt lat="45.86092" lon="4.71281">
        <ele>197</ele>
        <time>2018-08-14T08:53:28Z</time>
      </trkpt>
      <trkpt lat="45.86089" lon="4.71275">
        <ele>197</ele>
        <time>2018-08-14T08:53:29Z</time>
      </trkpt>
      <trkpt lat="45.86084" lon="4.71265">
        <ele>197</ele>
        <time>2018-08-14T08:53:31Z</time>
      </trkpt>
      <trkpt lat="45.86081" lon="4.71261">
        <ele>198</ele>
        <time>2018-08-14T08:53:32Z</time>
      </trkpt>
      <trkpt lat="45.86078" lon="4.71251">
        <ele>198</ele>
        <time>2018-08-14T08:53:34Z</time>
      </trkpt>
      <trkpt lat="45.86082" lon="4.71244">
        <ele>198</ele>
        <time>2018-08-14T08:53:35Z</time>
      </trkpt>
      <trkpt lat="45.86083" lon="4.71236">
        <ele>198</ele>
        <time>2018-08-14T08:53:36Z</time>
      </trkpt>
      <trkpt lat="45.86083" lon="4.71228">
        <ele>198</ele>
        <time>2018-08-14T08:53:37Z</time>
      </trkpt>
      <trkpt lat="45.86087" lon="4.7122">
        <ele>197</ele>
        <time>2018-08-14T08:53:39Z</time>
      </trkpt>
      <trkpt lat="45.86089" lon="4.71213">
        <ele>197</ele>
        <time>2018-08-14T08:53:40Z</time>
      </trkpt>
      <trkpt lat="45.86091" lon="4.71202">
        <ele>197</ele>
        <time>2018-08-14T08:53:42Z</time>
      </trkpt>
      <trkpt lat="45.86093" lon="4.71197">
        <ele>197</ele>
        <time>2018-08-14T08:53:43Z</time>
      </trkpt>
      <trkpt lat="45.86095" lon="4.7119">
        <ele>197</ele>
        <time>2018-08-14T08:53:44Z</time>
      </trkpt>
      <trkpt lat="45.86095" lon="4.71185">
        <ele>197</ele>
        <time>2018-08-14T08:53:45Z</time>
      </trkpt>
      <trkpt lat="45.86093" lon="4.71176">
        <ele>197</ele>
        <time>2018-08-14T08:53:46Z</time>
      </trkpt>
      <trkpt lat="45.86094" lon="4.71167">
        <ele>197</ele>
        <time>2018-08-14T08:53:47Z</time>
      </trkpt>
      <trkpt lat="45.86093" lon="4.71159">
        <ele>197</ele>
        <time>2018-08-14T08:53:48Z</time>
      </trkpt>
      <trkpt lat="45.86094" lon="4.71154">
        <ele>197</ele>
        <time>2018-08-14T08:53:49Z</time>
      </trkpt>
      <trkpt lat="45.86089" lon="4.71146">
        <ele>197</ele>
        <time>2018-08-14T08:53:50Z</time>
      </trkpt>
      <trkpt lat="45.86086" lon="4.71142">
        <ele>197</ele>
        <time>2018-08-14T08:53:51Z</time>
      </trkpt>
      <trkpt lat="45.86078" lon="4.71136">
        <ele>197</ele>
        <time>2018-08-14T08:53:52Z</time>
      </trkpt>
      <trkpt lat="45.86072" lon="4.71133">
        <ele>197</ele>
        <time>2018-08-14T08:53:53Z</time>
      </trkpt>
      <trkpt lat="45.86069" lon="4.7113">
        <ele>197</ele>
        <time>2018-08-14T08:53:54Z</time>
      </trkpt>
      <trkpt lat="45.86065" lon="4.71127">
        <ele>197</ele>
        <time>2018-08-14T08:53:55Z</time>
      </trkpt>
      <trkpt lat="45.86061" lon="4.71122">
        <ele>197</ele>
        <time>2018-08-14T08:53:56Z</time>
      </trkpt>
      <trkpt lat="45.86057" lon="4.71118">
        <ele>197</ele>
        <time>2018-08-14T08:53:57Z</time>
      </trkpt>
      <trkpt lat="45.86053" lon="4.71112">
        <ele>197</ele>
        <time>2018-08-14T08:53:58Z</time>
      </trkpt>
      <trkpt lat="45.86048" lon="4.71103">
        <ele>197</ele>
        <time>2018-08-14T08:54:00Z</time>
      </trkpt>
      <trkpt lat="45.86045" lon="4.71097">
        <ele>197</ele>
        <time>2018-08-14T08:54:01Z</time>
      </trkpt>
      <trkpt lat="45.86042" lon="4.7109">
        <ele>197</ele>
        <time>2018-08-14T08:54:02Z</time>
      </trkpt>
      <trkpt lat="45.8604" lon="4.71084">
        <ele>197</ele>
        <time>2018-08-14T08:54:03Z</time>
      </trkpt>
      <trkpt lat="45.86038" lon="4.71077">
        <ele>197</ele>
        <time>2018-08-14T08:54:04Z</time>
      </trkpt>
      <trkpt lat="45.86035" lon="4.7107">
        <ele>197</ele>
        <time>2018-08-14T08:54:05Z</time>
      </trkpt>
      <trkpt lat="45.86033" lon="4.71063">
        <ele>197</ele>
        <time>2018-08-14T08:54:06Z</time>
      </trkpt>
      <trkpt lat="45.86031" lon="4.71056">
        <ele>197</ele>
        <time>2018-08-14T08:54:07Z</time>
      </trkpt>
      <trkpt lat="45.8603" lon="4.71049">
        <ele>197</ele>
        <time>2018-08-14T08:54:08Z</time>
      </trkpt>
      <trkpt lat="45.86029" lon="4.71042">
        <ele>197</ele>
        <time>2018-08-14T08:54:09Z</time>
      </trkpt>
      <trkpt lat="45.86025" lon="4.71034">
        <ele>197</ele>
        <time>2018-08-14T08:54:10Z</time>
      </trkpt>
      <trkpt lat="45.86023" lon="4.71028">
        <ele>197</ele>
        <time>2018-08-14T08:54:11Z</time>
      </trkpt>
      <trkpt lat="45.8602" lon="4.71021">
        <ele>197</ele>
        <time>2018-08-14T08:54:12Z</time>
      </trkpt>
      <trkpt lat="45.86016" lon="4.71016">
        <ele>197</ele>
        <time>2018-08-14T08:54:13Z</time>
      </trkpt>
      <trkpt lat="45.86014" lon="4.71011">
        <ele>197</ele>
        <time>2018-08-14T08:54:14Z</time>
      </trkpt>
      <trkpt lat="45.8601" lon="4.71005">
        <ele>197</ele>
        <time>2018-08-14T08:54:15Z</time>
      </trkpt>
      <trkpt lat="45.86004" lon="4.71001">
        <ele>197</ele>
        <time>2018-08-14T08:54:16Z</time>
      </trkpt>
      <trkpt lat="45.86" lon="4.70996">
        <ele>197</ele>
        <time>2018-08-14T08:54:17Z</time>
      </trkpt>
      <trkpt lat="45.85996" lon="4.70991">
        <ele>197</ele>
        <time>2018-08-14T08:54:18Z</time>
      </trkpt>
      <trkpt lat="45.85992" lon="4.70987">
        <ele>197</ele>
        <time>2018-08-14T08:54:19Z</time>
      </trkpt>
      <trkpt lat="45.85985" lon="4.70982">
        <ele>197</ele>
        <time>2018-08-14T08:54:20Z</time>
      </trkpt>
      <trkpt lat="45.85981" lon="4.70979">
        <ele>197</ele>
        <time>2018-08-14T08:54:21Z</time>
      </trkpt>
      <trkpt lat="45.85976" lon="4.70977">
        <ele>197</ele>
        <time>2018-08-14T08:54:22Z</time>
      </trkpt>
      <trkpt lat="45.85972" lon="4.70975">
        <ele>197</ele>
        <time>2018-08-14T08:54:23Z</time>
      </trkpt>
      <trkpt lat="45.85964" lon="4.70972">
        <ele>197</ele>
        <time>2018-08-14T08:54:25Z</time>
      </trkpt>
      <trkpt lat="45.85961" lon="4.70971">
        <ele>197</ele>
        <time>2018-08-14T08:54:26Z</time>
      </trkpt>
      <trkpt lat="45.85952" lon="4.70971">
        <ele>197</ele>
        <time>2018-08-14T08:54:28Z</time>
      </trkpt>
      <trkpt lat="45.85947" lon="4.70971">
        <ele>197</ele>
        <time>2018-08-14T08:54:29Z</time>
      </trkpt>
      <trkpt lat="45.85939" lon="4.70968">
        <ele>197</ele>
        <time>2018-08-14T08:54:31Z</time>
      </trkpt>
      <trkpt lat="45.85934" lon="4.70967">
        <ele>197</ele>
        <time>2018-08-14T08:54:32Z</time>
      </trkpt>
      <trkpt lat="45.85931" lon="4.70959">
        <ele>197</ele>
        <time>2018-08-14T08:54:34Z</time>
      </trkpt>
      <trkpt lat="45.85934" lon="4.70952">
        <ele>197</ele>
        <time>2018-08-14T08:54:35Z</time>
      </trkpt>
      <trkpt lat="45.85936" lon="4.70947">
        <ele>197</ele>
        <time>2018-08-14T08:54:36Z</time>
      </trkpt>
      <trkpt lat="45.85938" lon="4.70939">
        <ele>197</ele>
        <time>2018-08-14T08:54:37Z</time>
      </trkpt>
      <trkpt lat="45.8594" lon="4.70932">
        <ele>197</ele>
        <time>2018-08-14T08:54:38Z</time>
      </trkpt>
      <trkpt lat="45.85942" lon="4.70927">
        <ele>197</ele>
        <time>2018-08-14T08:54:39Z</time>
      </trkpt>
      <trkpt lat="45.85943" lon="4.7092">
        <ele>197</ele>
        <time>2018-08-14T08:54:40Z</time>
      </trkpt>
      <trkpt lat="45.85943" lon="4.70913">
        <ele>197</ele>
        <time>2018-08-14T08:54:41Z</time>
      </trkpt>
      <trkpt lat="45.85947" lon="4.70906">
        <ele>197</ele>
        <time>2018-08-14T08:54:42Z</time>
      </trkpt>
      <trkpt lat="45.85949" lon="4.70899">
        <ele>197</ele>
        <time>2018-08-14T08:54:43Z</time>
      </trkpt>
      <trkpt lat="45.85951" lon="4.70892">
        <ele>197</ele>
        <time>2018-08-14T08:54:44Z</time>
      </trkpt>
      <trkpt lat="45.85953" lon="4.70886">
        <ele>197</ele>
        <time>2018-08-14T08:54:45Z</time>
      </trkpt>
      <trkpt lat="45.85954" lon="4.70878">
        <ele>197</ele>
        <time>2018-08-14T08:54:46Z</time>
      </trkpt>
      <trkpt lat="45.85957" lon="4.70871">
        <ele>196</ele>
        <time>2018-08-14T08:54:47Z</time>
      </trkpt>
      <trkpt lat="45.85957" lon="4.70858">
        <ele>196</ele>
        <time>2018-08-14T08:54:49Z</time>
      </trkpt>
      <trkpt lat="45.85957" lon="4.70851">
        <ele>196</ele>
        <time>2018-08-14T08:54:50Z</time>
      </trkpt>
      <trkpt lat="45.8596" lon="4.70843">
        <ele>196</ele>
        <time>2018-08-14T08:54:52Z</time>
      </trkpt>
      <trkpt lat="45.85962" lon="4.70837">
        <ele>196</ele>
        <time>2018-08-14T08:54:53Z</time>
      </trkpt>
      <trkpt lat="45.85962" lon="4.7083">
        <ele>196</ele>
        <time>2018-08-14T08:54:54Z</time>
      </trkpt>
      <trkpt lat="45.85962" lon="4.70824">
        <ele>196</ele>
        <time>2018-08-14T08:54:55Z</time>
      </trkpt>
      <trkpt lat="45.85962" lon="4.70817">
        <ele>195</ele>
        <time>2018-08-14T08:54:56Z</time>
      </trkpt>
      <trkpt lat="45.85959" lon="4.70811">
        <ele>195</ele>
        <time>2018-08-14T08:54:57Z</time>
      </trkpt>
      <trkpt lat="45.85959" lon="4.70799">
        <ele>195</ele>
        <time>2018-08-14T08:54:59Z</time>
      </trkpt>
      <trkpt lat="45.85963" lon="4.70795">
        <ele>195</ele>
        <time>2018-08-14T08:55:00Z</time>
      </trkpt>
      <trkpt lat="45.85958" lon="4.70785">
        <ele>195</ele>
        <time>2018-08-14T08:55:01Z</time>
      </trkpt>
      <trkpt lat="45.85959" lon="4.70778">
        <ele>195</ele>
        <time>2018-08-14T08:55:02Z</time>
      </trkpt>
      <trkpt lat="45.85959" lon="4.70769">
        <ele>195</ele>
        <time>2018-08-14T08:55:03Z</time>
      </trkpt>
      <trkpt lat="45.8596" lon="4.70762">
        <ele>195</ele>
        <time>2018-08-14T08:55:04Z</time>
      </trkpt>
      <trkpt lat="45.85961" lon="4.70756">
        <ele>195</ele>
        <time>2018-08-14T08:55:05Z</time>
      </trkpt>
      <trkpt lat="45.85962" lon="4.70749">
        <ele>194</ele>
        <time>2018-08-14T08:55:06Z</time>
      </trkpt>
      <trkpt lat="45.85961" lon="4.70742">
        <ele>194</ele>
        <time>2018-08-14T08:55:07Z</time>
      </trkpt>
      <trkpt lat="45.8596" lon="4.70732">
        <ele>194</ele>
        <time>2018-08-14T08:55:08Z</time>
      </trkpt>
      <trkpt lat="45.85961" lon="4.70724">
        <ele>194</ele>
        <time>2018-08-14T08:55:09Z</time>
      </trkpt>
      <trkpt lat="45.85962" lon="4.70717">
        <ele>194</ele>
        <time>2018-08-14T08:55:10Z</time>
      </trkpt>
      <trkpt lat="45.85963" lon="4.7071">
        <ele>194</ele>
        <time>2018-08-14T08:55:11Z</time>
      </trkpt>
      <trkpt lat="45.85964" lon="4.70704">
        <ele>194</ele>
        <time>2018-08-14T08:55:12Z</time>
      </trkpt>
      <trkpt lat="45.85964" lon="4.70698">
        <ele>194</ele>
        <time>2018-08-14T08:55:13Z</time>
      </trkpt>
      <trkpt lat="45.8596" lon="4.70689">
        <ele>194</ele>
        <time>2018-08-14T08:55:14Z</time>
      </trkpt>
      <trkpt lat="45.85957" lon="4.70682">
        <ele>194</ele>
        <time>2018-08-14T08:55:15Z</time>
      </trkpt>
      <trkpt lat="45.85953" lon="4.70673">
        <ele>194</ele>
        <time>2018-08-14T08:55:16Z</time>
      </trkpt>
      <trkpt lat="45.8595" lon="4.70666">
        <ele>194</ele>
        <time>2018-08-14T08:55:17Z</time>
      </trkpt>
      <trkpt lat="45.85946" lon="4.70658">
        <ele>194</ele>
        <time>2018-08-14T08:55:18Z</time>
      </trkpt>
      <trkpt lat="45.85942" lon="4.7065">
        <ele>194</ele>
        <time>2018-08-14T08:55:19Z</time>
      </trkpt>
      <trkpt lat="45.85939" lon="4.70644">
        <ele>194</ele>
        <time>2018-08-14T08:55:20Z</time>
      </trkpt>
      <trkpt lat="45.85935" lon="4.70637">
        <ele>194</ele>
        <time>2018-08-14T08:55:21Z</time>
      </trkpt>
      <trkpt lat="45.85931" lon="4.70631">
        <ele>194</ele>
        <time>2018-08-14T08:55:22Z</time>
      </trkpt>
      <trkpt lat="45.85928" lon="4.70625">
        <ele>194</ele>
        <time>2018-08-14T08:55:23Z</time>
      </trkpt>
      <trkpt lat="45.85924" lon="4.70619">
        <ele>194</ele>
        <time>2018-08-14T08:55:24Z</time>
      </trkpt>
      <trkpt lat="45.8592" lon="4.70614">
        <ele>194</ele>
        <time>2018-08-14T08:55:25Z</time>
      </trkpt>
      <trkpt lat="45.85915" lon="4.70608">
        <ele>195</ele>
        <time>2018-08-14T08:55:26Z</time>
      </trkpt>
      <trkpt lat="45.85913" lon="4.70602">
        <ele>195</ele>
        <time>2018-08-14T08:55:27Z</time>
      </trkpt>
      <trkpt lat="45.85907" lon="4.70596">
        <ele>195</ele>
        <time>2018-08-14T08:55:28Z</time>
      </trkpt>
      <trkpt lat="45.85901" lon="4.70587">
        <ele>195</ele>
        <time>2018-08-14T08:55:30Z</time>
      </trkpt>
      <trkpt lat="45.85896" lon="4.70584">
        <ele>195</ele>
        <time>2018-08-14T08:55:31Z</time>
      </trkpt>
      <trkpt lat="45.85892" lon="4.70582">
        <ele>195</ele>
        <time>2018-08-14T08:55:32Z</time>
      </trkpt>
      <trkpt lat="45.85883" lon="4.70575">
        <ele>195</ele>
        <time>2018-08-14T08:55:33Z</time>
      </trkpt>
      <trkpt lat="45.85878" lon="4.70574">
        <ele>195</ele>
        <time>2018-08-14T08:55:35Z</time>
      </trkpt>
      <trkpt lat="45.85872" lon="4.70571">
        <ele>195</ele>
        <time>2018-08-14T08:55:36Z</time>
      </trkpt>
      <trkpt lat="45.85868" lon="4.70569">
        <ele>195</ele>
        <time>2018-08-14T08:55:37Z</time>
      </trkpt>
      <trkpt lat="45.85863" lon="4.70567">
        <ele>195</ele>
        <time>2018-08-14T08:55:38Z</time>
      </trkpt>
      <trkpt lat="45.85858" lon="4.70565">
        <ele>195</ele>
        <time>2018-08-14T08:55:40Z</time>
      </trkpt>
      <trkpt lat="45.85853" lon="4.70564">
        <ele>195</ele>
        <time>2018-08-14T08:55:41Z</time>
      </trkpt>
      <trkpt lat="45.85845" lon="4.70561">
        <ele>195</ele>
        <time>2018-08-14T08:55:43Z</time>
      </trkpt>
      <trkpt lat="45.85842" lon="4.70558">
        <ele>195</ele>
        <time>2018-08-14T08:55:44Z</time>
      </trkpt>
      <trkpt lat="45.85836" lon="4.70555">
        <ele>195</ele>
        <time>2018-08-14T08:55:45Z</time>
      </trkpt>
      <trkpt lat="45.85833" lon="4.70554">
        <ele>195</ele>
        <time>2018-08-14T08:55:46Z</time>
      </trkpt>
      <trkpt lat="45.85825" lon="4.7055">
        <ele>195</ele>
        <time>2018-08-14T08:55:48Z</time>
      </trkpt>
      <trkpt lat="45.85818" lon="4.70548">
        <ele>195</ele>
        <time>2018-08-14T08:55:49Z</time>
      </trkpt>
      <trkpt lat="45.85813" lon="4.70546">
        <ele>195</ele>
        <time>2018-08-14T08:55:50Z</time>
      </trkpt>
      <trkpt lat="45.85809" lon="4.70544">
        <ele>195</ele>
        <time>2018-08-14T08:55:51Z</time>
      </trkpt>
      <trkpt lat="45.85802" lon="4.70541">
        <ele>195</ele>
        <time>2018-08-14T08:55:52Z</time>
      </trkpt>
      <trkpt lat="45.85797" lon="4.70539">
        <ele>195</ele>
        <time>2018-08-14T08:55:53Z</time>
      </trkpt>
      <trkpt lat="45.85789" lon="4.70537">
        <ele>196</ele>
        <time>2018-08-14T08:55:55Z</time>
      </trkpt>
      <trkpt lat="45.85785" lon="4.70534">
        <ele>196</ele>
        <time>2018-08-14T08:55:56Z</time>
      </trkpt>
      <trkpt lat="45.85777" lon="4.70529">
        <ele>196</ele>
        <time>2018-08-14T08:55:58Z</time>
      </trkpt>
      <trkpt lat="45.85773" lon="4.70526">
        <ele>196</ele>
        <time>2018-08-14T08:55:59Z</time>
      </trkpt>
      <trkpt lat="45.85766" lon="4.70523">
        <ele>196</ele>
        <time>2018-08-14T08:56:01Z</time>
      </trkpt>
      <trkpt lat="45.85761" lon="4.7052">
        <ele>196</ele>
        <time>2018-08-14T08:56:02Z</time>
      </trkpt>
      <trkpt lat="45.85754" lon="4.70513">
        <ele>196</ele>
        <time>2018-08-14T08:56:04Z</time>
      </trkpt>
      <trkpt lat="45.85749" lon="4.7051">
        <ele>196</ele>
        <time>2018-08-14T08:56:05Z</time>
      </trkpt>
      <trkpt lat="45.85744" lon="4.70503">
        <ele>196</ele>
        <time>2018-08-14T08:56:07Z</time>
      </trkpt>
      <trkpt lat="45.85739" lon="4.70498">
        <ele>196</ele>
        <time>2018-08-14T08:56:08Z</time>
      </trkpt>
      <trkpt lat="45.85736" lon="4.70492">
        <ele>196</ele>
        <time>2018-08-14T08:56:09Z</time>
      </trkpt>
      <trkpt lat="45.85731" lon="4.70486">
        <ele>196</ele>
        <time>2018-08-14T08:56:10Z</time>
      </trkpt>
      <trkpt lat="45.85727" lon="4.70479">
        <ele>196</ele>
        <time>2018-08-14T08:56:11Z</time>
      </trkpt>
      <trkpt lat="45.85725" lon="4.70472">
        <ele>196</ele>
        <time>2018-08-14T08:56:12Z</time>
      </trkpt>
      <trkpt lat="45.85725" lon="4.70461">
        <ele>196</ele>
        <time>2018-08-14T08:56:14Z</time>
      </trkpt>
      <trkpt lat="45.85725" lon="4.70455">
        <ele>196</ele>
        <time>2018-08-14T08:56:15Z</time>
      </trkpt>
      <trkpt lat="45.85723" lon="4.70447">
        <ele>196</ele>
        <time>2018-08-14T08:56:16Z</time>
      </trkpt>
      <trkpt lat="45.85724" lon="4.70441">
        <ele>196</ele>
        <time>2018-08-14T08:56:17Z</time>
      </trkpt>
      <trkpt lat="45.85723" lon="4.70428">
        <ele>196</ele>
        <time>2018-08-14T08:56:19Z</time>
      </trkpt>
      <trkpt lat="45.85723" lon="4.7042">
        <ele>196</ele>
        <time>2018-08-14T08:56:20Z</time>
      </trkpt>
      <trkpt lat="45.85722" lon="4.70413">
        <ele>196</ele>
        <time>2018-08-14T08:56:21Z</time>
      </trkpt>
      <trkpt lat="45.85722" lon="4.70406">
        <ele>196</ele>
        <time>2018-08-14T08:56:22Z</time>
      </trkpt>
      <trkpt lat="45.8572" lon="4.70399">
        <ele>196</ele>
        <time>2018-08-14T08:56:23Z</time>
      </trkpt>
      <trkpt lat="45.8572" lon="4.70392">
        <ele>196</ele>
        <time>2018-08-14T08:56:24Z</time>
      </trkpt>
      <trkpt lat="45.85719" lon="4.70385">
        <ele>196</ele>
        <time>2018-08-14T08:56:25Z</time>
      </trkpt>
      <trkpt lat="45.85719" lon="4.70378">
        <ele>196</ele>
        <time>2018-08-14T08:56:26Z</time>
      </trkpt>
      <trkpt lat="45.85719" lon="4.70372">
        <ele>196</ele>
        <time>2018-08-14T08:56:27Z</time>
      </trkpt>
      <trkpt lat="45.85718" lon="4.70363">
        <ele>196</ele>
        <time>2018-08-14T08:56:28Z</time>
      </trkpt>
      <trkpt lat="45.85716" lon="4.70355">
        <ele>196</ele>
        <time>2018-08-14T08:56:29Z</time>
      </trkpt>
      <trkpt lat="45.85711" lon="4.70346">
        <ele>196</ele>
        <time>2018-08-14T08:56:30Z</time>
      </trkpt>
      <trkpt lat="45.8571" lon="4.70338">
        <ele>196</ele>
        <time>2018-08-14T08:56:31Z</time>
      </trkpt>
      <trkpt lat="45.85709" lon="4.7033">
        <ele>197</ele>
        <time>2018-08-14T08:56:32Z</time>
      </trkpt>
      <trkpt lat="45.85709" lon="4.70322">
        <ele>197</ele>
        <time>2018-08-14T08:56:33Z</time>
      </trkpt>
      <trkpt lat="45.85708" lon="4.70315">
        <ele>197</ele>
        <time>2018-08-14T08:56:34Z</time>
      </trkpt>
      <trkpt lat="45.85707" lon="4.70303">
        <ele>197</ele>
        <time>2018-08-14T08:56:36Z</time>
      </trkpt>
      <trkpt lat="45.85707" lon="4.70296">
        <ele>197</ele>
        <time>2018-08-14T08:56:37Z</time>
      </trkpt>
      <trkpt lat="45.85706" lon="4.7029">
        <ele>197</ele>
        <time>2018-08-14T08:56:38Z</time>
      </trkpt>
      <trkpt lat="45.85706" lon="4.70283">
        <ele>197</ele>
        <time>2018-08-14T08:56:39Z</time>
      </trkpt>
      <trkpt lat="45.85706" lon="4.70271">
        <ele>197</ele>
        <time>2018-08-14T08:56:41Z</time>
      </trkpt>
      <trkpt lat="45.85705" lon="4.70264">
        <ele>197</ele>
        <time>2018-08-14T08:56:42Z</time>
      </trkpt>
      <trkpt lat="45.85703" lon="4.70257">
        <ele>197</ele>
        <time>2018-08-14T08:56:43Z</time>
      </trkpt>
      <trkpt lat="45.85701" lon="4.70249">
        <ele>197</ele>
        <time>2018-08-14T08:56:44Z</time>
      </trkpt>
      <trkpt lat="45.85699" lon="4.7024">
        <ele>197</ele>
        <time>2018-08-14T08:56:45Z</time>
      </trkpt>
      <trkpt lat="45.85697" lon="4.70234">
        <ele>197</ele>
        <time>2018-08-14T08:56:46Z</time>
      </trkpt>
      <trkpt lat="45.85696" lon="4.70227">
        <ele>197</ele>
        <time>2018-08-14T08:56:47Z</time>
      </trkpt>
      <trkpt lat="45.85695" lon="4.7022">
        <ele>197</ele>
        <time>2018-08-14T08:56:48Z</time>
      </trkpt>
      <trkpt lat="45.85696" lon="4.70208">
        <ele>197</ele>
        <time>2018-08-14T08:56:50Z</time>
      </trkpt>
      <trkpt lat="45.85693" lon="4.70198">
        <ele>197</ele>
        <time>2018-08-14T08:56:51Z</time>
      </trkpt>
      <trkpt lat="45.8569" lon="4.70189">
        <ele>197</ele>
        <time>2018-08-14T08:56:52Z</time>
      </trkpt>
      <trkpt lat="45.8569" lon="4.70184">
        <ele>197</ele>
        <time>2018-08-14T08:56:53Z</time>
      </trkpt>
      <trkpt lat="45.85688" lon="4.70179">
        <ele>197</ele>
        <time>2018-08-14T08:56:54Z</time>
      </trkpt>
      <trkpt lat="45.85686" lon="4.70172">
        <ele>197</ele>
        <time>2018-08-14T08:56:55Z</time>
      </trkpt>
      <trkpt lat="45.85686" lon="4.70163">
        <ele>197</ele>
        <time>2018-08-14T08:56:56Z</time>
      </trkpt>
      <trkpt lat="45.85684" lon="4.70155">
        <ele>197</ele>
        <time>2018-08-14T08:56:57Z</time>
      </trkpt>
      <trkpt lat="45.85683" lon="4.70148">
        <ele>197</ele>
        <time>2018-08-14T08:56:58Z</time>
      </trkpt>
      <trkpt lat="45.85683" lon="4.7014">
        <ele>197</ele>
        <time>2018-08-14T08:56:59Z</time>
      </trkpt>
      <trkpt lat="45.85682" lon="4.70132">
        <ele>197</ele>
        <time>2018-08-14T08:57:00Z</time>
      </trkpt>
      <trkpt lat="45.85681" lon="4.70124">
        <ele>197</ele>
        <time>2018-08-14T08:57:01Z</time>
      </trkpt>
      <trkpt lat="45.85683" lon="4.70115">
        <ele>197</ele>
        <time>2018-08-14T08:57:02Z</time>
      </trkpt>
      <trkpt lat="45.85682" lon="4.70107">
        <ele>197</ele>
        <time>2018-08-14T08:57:03Z</time>
      </trkpt>
      <trkpt lat="45.85681" lon="4.70101">
        <ele>196</ele>
        <time>2018-08-14T08:57:04Z</time>
      </trkpt>
      <trkpt lat="45.85682" lon="4.70093">
        <ele>196</ele>
        <time>2018-08-14T08:57:05Z</time>
      </trkpt>
      <trkpt lat="45.85683" lon="4.70082">
        <ele>196</ele>
        <time>2018-08-14T08:57:07Z</time>
      </trkpt>
      <trkpt lat="45.85684" lon="4.70076">
        <ele>196</ele>
        <time>2018-08-14T08:57:08Z</time>
      </trkpt>
      <trkpt lat="45.85686" lon="4.70065">
        <ele>196</ele>
        <time>2018-08-14T08:57:10Z</time>
      </trkpt>
      <trkpt lat="45.85687" lon="4.70062">
        <ele>195</ele>
        <time>2018-08-14T08:57:11Z</time>
      </trkpt>
      <trkpt lat="45.85687" lon="4.70059">
        <ele>195</ele>
        <time>2018-08-14T08:57:12Z</time>
      </trkpt>
      <trkpt lat="45.85689" lon="4.70046">
        <ele>195</ele>
        <time>2018-08-14T08:57:13Z</time>
      </trkpt>
      <trkpt lat="45.8569" lon="4.70034">
        <ele>195</ele>
        <time>2018-08-14T08:57:15Z</time>
      </trkpt>
      <trkpt lat="45.85691" lon="4.70028">
        <ele>195</ele>
        <time>2018-08-14T08:57:16Z</time>
      </trkpt>
      <trkpt lat="45.85693" lon="4.7002">
        <ele>195</ele>
        <time>2018-08-14T08:57:17Z</time>
      </trkpt>
      <trkpt lat="45.85695" lon="4.70013">
        <ele>195</ele>
        <time>2018-08-14T08:57:18Z</time>
      </trkpt>
      <trkpt lat="45.85695" lon="4.70007">
        <ele>195</ele>
        <time>2018-08-14T08:57:19Z</time>
      </trkpt>
      <trkpt lat="45.85694" lon="4.69999">
        <ele>195</ele>
        <time>2018-08-14T08:57:20Z</time>
      </trkpt>
      <trkpt lat="45.85693" lon="4.69992">
        <ele>195</ele>
        <time>2018-08-14T08:57:21Z</time>
      </trkpt>
      <trkpt lat="45.85691" lon="4.69983">
        <ele>195</ele>
        <time>2018-08-14T08:57:22Z</time>
      </trkpt>
      <trkpt lat="45.8569" lon="4.69975">
        <ele>195</ele>
        <time>2018-08-14T08:57:23Z</time>
      </trkpt>
      <trkpt lat="45.85688" lon="4.69967">
        <ele>195</ele>
        <time>2018-08-14T08:57:24Z</time>
      </trkpt>
      <trkpt lat="45.85686" lon="4.69959">
        <ele>195</ele>
        <time>2018-08-14T08:57:25Z</time>
      </trkpt>
      <trkpt lat="45.85684" lon="4.69951">
        <ele>195</ele>
        <time>2018-08-14T08:57:26Z</time>
      </trkpt>
      <trkpt lat="45.85682" lon="4.69944">
        <ele>195</ele>
        <time>2018-08-14T08:57:27Z</time>
      </trkpt>
      <trkpt lat="45.85681" lon="4.69936">
        <ele>195</ele>
        <time>2018-08-14T08:57:28Z</time>
      </trkpt>
      <trkpt lat="45.8568" lon="4.69928">
        <ele>195</ele>
        <time>2018-08-14T08:57:29Z</time>
      </trkpt>
      <trkpt lat="45.85678" lon="4.69922">
        <ele>195</ele>
        <time>2018-08-14T08:57:30Z</time>
      </trkpt>
      <trkpt lat="45.85677" lon="4.69915">
        <ele>195</ele>
        <time>2018-08-14T08:57:31Z</time>
      </trkpt>
      <trkpt lat="45.85676" lon="4.69909">
        <ele>195</ele>
        <time>2018-08-14T08:57:32Z</time>
      </trkpt>
      <trkpt lat="45.85675" lon="4.69903">
        <ele>195</ele>
        <time>2018-08-14T08:57:33Z</time>
      </trkpt>
      <trkpt lat="45.85675" lon="4.69896">
        <ele>195</ele>
        <time>2018-08-14T08:57:34Z</time>
      </trkpt>
      <trkpt lat="45.85673" lon="4.69888">
        <ele>195</ele>
        <time>2018-08-14T08:57:35Z</time>
      </trkpt>
      <trkpt lat="45.85671" lon="4.69882">
        <ele>195</ele>
        <time>2018-08-14T08:57:36Z</time>
      </trkpt>
      <trkpt lat="45.8567" lon="4.69874">
        <ele>195</ele>
        <time>2018-08-14T08:57:37Z</time>
      </trkpt>
      <trkpt lat="45.8567" lon="4.69866">
        <ele>195</ele>
        <time>2018-08-14T08:57:38Z</time>
      </trkpt>
      <trkpt lat="45.85669" lon="4.69861">
        <ele>195</ele>
        <time>2018-08-14T08:57:39Z</time>
      </trkpt>
      <trkpt lat="45.85668" lon="4.69852">
        <ele>195</ele>
        <time>2018-08-14T08:57:40Z</time>
      </trkpt>
      <trkpt lat="45.85667" lon="4.69845">
        <ele>195</ele>
        <time>2018-08-14T08:57:41Z</time>
      </trkpt>
      <trkpt lat="45.85666" lon="4.69838">
        <ele>195</ele>
        <time>2018-08-14T08:57:42Z</time>
      </trkpt>
      <trkpt lat="45.85666" lon="4.69831">
        <ele>195</ele>
        <time>2018-08-14T08:57:43Z</time>
      </trkpt>
      <trkpt lat="45.85665" lon="4.69824">
        <ele>195</ele>
        <time>2018-08-14T08:57:44Z</time>
      </trkpt>
      <trkpt lat="45.85663" lon="4.69813">
        <ele>195</ele>
        <time>2018-08-14T08:57:46Z</time>
      </trkpt>
      <trkpt lat="45.85661" lon="4.69808">
        <ele>195</ele>
        <time>2018-08-14T08:57:47Z</time>
      </trkpt>
      <trkpt lat="45.8566" lon="4.69796">
        <ele>195</ele>
        <time>2018-08-14T08:57:49Z</time>
      </trkpt>
      <trkpt lat="45.85659" lon="4.69788">
        <ele>195</ele>
        <time>2018-08-14T08:57:50Z</time>
      </trkpt>
      <trkpt lat="45.85658" lon="4.69775">
        <ele>195</ele>
        <time>2018-08-14T08:57:52Z</time>
      </trkpt>
      <trkpt lat="45.85661" lon="4.6977">
        <ele>195</ele>
        <time>2018-08-14T08:57:53Z</time>
      </trkpt>
      <trkpt lat="45.85661" lon="4.69758">
        <ele>194</ele>
        <time>2018-08-14T08:57:55Z</time>
      </trkpt>
      <trkpt lat="45.85659" lon="4.69751">
        <ele>194</ele>
        <time>2018-08-14T08:57:56Z</time>
      </trkpt>
      <trkpt lat="45.85658" lon="4.69738">
        <ele>195</ele>
        <time>2018-08-14T08:57:58Z</time>
      </trkpt>
      <trkpt lat="45.85657" lon="4.69732">
        <ele>195</ele>
        <time>2018-08-14T08:57:59Z</time>
      </trkpt>
      <trkpt lat="45.85658" lon="4.69726">
        <ele>195</ele>
        <time>2018-08-14T08:58:00Z</time>
      </trkpt>
      <trkpt lat="45.85657" lon="4.69718">
        <ele>196</ele>
        <time>2018-08-14T08:58:01Z</time>
      </trkpt>
      <trkpt lat="45.85656" lon="4.69705">
        <ele>196</ele>
        <time>2018-08-14T08:58:03Z</time>
      </trkpt>
      <trkpt lat="45.85656" lon="4.69699">
        <ele>196</ele>
        <time>2018-08-14T08:58:04Z</time>
      </trkpt>
      <trkpt lat="45.85656" lon="4.69692">
        <ele>196</ele>
        <time>2018-08-14T08:58:05Z</time>
      </trkpt>
      <trkpt lat="45.85655" lon="4.69685">
        <ele>196</ele>
        <time>2018-08-14T08:58:06Z</time>
      </trkpt>
      <trkpt lat="45.85655" lon="4.69677">
        <ele>196</ele>
        <time>2018-08-14T08:58:07Z</time>
      </trkpt>
      <trkpt lat="45.85654" lon="4.6967">
        <ele>196</ele>
        <time>2018-08-14T08:58:08Z</time>
      </trkpt>
      <trkpt lat="45.85653" lon="4.6966">
        <ele>196</ele>
        <time>2018-08-14T08:58:10Z</time>
      </trkpt>
      <trkpt lat="45.85653" lon="4.69654">
        <ele>197</ele>
        <time>2018-08-14T08:58:11Z</time>
      </trkpt>
      <trkpt lat="45.85652" lon="4.69643">
        <ele>197</ele>
        <time>2018-08-14T08:58:13Z</time>
      </trkpt>
      <trkpt lat="45.8565" lon="4.69635">
        <ele>197</ele>
        <time>2018-08-14T08:58:14Z</time>
      </trkpt>
      <trkpt lat="45.85649" lon="4.69628">
        <ele>197</ele>
        <time>2018-08-14T08:58:15Z</time>
      </trkpt>
      <trkpt lat="45.85648" lon="4.69622">
        <ele>197</ele>
        <time>2018-08-14T08:58:16Z</time>
      </trkpt>
      <trkpt lat="45.85644" lon="4.6961">
        <ele>197</ele>
        <time>2018-08-14T08:58:17Z</time>
      </trkpt>
      <trkpt lat="45.85644" lon="4.69602">
        <ele>197</ele>
        <time>2018-08-14T08:58:18Z</time>
      </trkpt>
      <trkpt lat="45.85643" lon="4.69589">
        <ele>197</ele>
        <time>2018-08-14T08:58:20Z</time>
      </trkpt>
      <trkpt lat="45.85645" lon="4.69583">
        <ele>198</ele>
        <time>2018-08-14T08:58:21Z</time>
      </trkpt>
      <trkpt lat="45.85643" lon="4.69571">
        <ele>198</ele>
        <time>2018-08-14T08:58:23Z</time>
      </trkpt>
      <trkpt lat="45.85643" lon="4.69565">
        <ele>198</ele>
        <time>2018-08-14T08:58:24Z</time>
      </trkpt>
      <trkpt lat="45.85643" lon="4.69557">
        <ele>198</ele>
        <time>2018-08-14T08:58:25Z</time>
      </trkpt>
      <trkpt lat="45.85642" lon="4.6955">
        <ele>198</ele>
        <time>2018-08-14T08:58:26Z</time>
      </trkpt>
      <trkpt lat="45.85641" lon="4.69544">
        <ele>198</ele>
        <time>2018-08-14T08:58:27Z</time>
      </trkpt>
      <trkpt lat="45.85643" lon="4.69534">
        <ele>198</ele>
        <time>2018-08-14T08:58:28Z</time>
      </trkpt>
      <trkpt lat="45.85641" lon="4.69526">
        <ele>198</ele>
        <time>2018-08-14T08:58:29Z</time>
      </trkpt>
      <trkpt lat="45.8564" lon="4.6952">
        <ele>198</ele>
        <time>2018-08-14T08:58:30Z</time>
      </trkpt>
      <trkpt lat="45.85637" lon="4.69511">
        <ele>198</ele>
        <time>2018-08-14T08:58:31Z</time>
      </trkpt>
      <trkpt lat="45.85636" lon="4.69504">
        <ele>198</ele>
        <time>2018-08-14T08:58:32Z</time>
      </trkpt>
      <trkpt lat="45.85635" lon="4.69492">
        <ele>198</ele>
        <time>2018-08-14T08:58:34Z</time>
      </trkpt>
      <trkpt lat="45.85635" lon="4.69484">
        <ele>198</ele>
        <time>2018-08-14T08:58:35Z</time>
      </trkpt>
      <trkpt lat="45.85632" lon="4.69476">
        <ele>198</ele>
        <time>2018-08-14T08:58:36Z</time>
      </trkpt>
      <trkpt lat="45.85631" lon="4.69469">
        <ele>198</ele>
        <time>2018-08-14T08:58:37Z</time>
      </trkpt>
      <trkpt lat="45.8563" lon="4.69461">
        <ele>198</ele>
        <time>2018-08-14T08:58:38Z</time>
      </trkpt>
      <trkpt lat="45.8563" lon="4.69456">
        <ele>198</ele>
        <time>2018-08-14T08:58:39Z</time>
      </trkpt>
      <trkpt lat="45.8563" lon="4.69444">
        <ele>198</ele>
        <time>2018-08-14T08:58:41Z</time>
      </trkpt>
      <trkpt lat="45.8563" lon="4.69438">
        <ele>198</ele>
        <time>2018-08-14T08:58:42Z</time>
      </trkpt>
      <trkpt lat="45.85627" lon="4.69425">
        <ele>198</ele>
        <time>2018-08-14T08:58:44Z</time>
      </trkpt>
      <trkpt lat="45.85626" lon="4.69419">
        <ele>198</ele>
        <time>2018-08-14T08:58:45Z</time>
      </trkpt>
      <trkpt lat="45.85627" lon="4.69412">
        <ele>198</ele>
        <time>2018-08-14T08:58:46Z</time>
      </trkpt>
      <trkpt lat="45.85627" lon="4.69405">
        <ele>198</ele>
        <time>2018-08-14T08:58:47Z</time>
      </trkpt>
      <trkpt lat="45.85626" lon="4.69398">
        <ele>198</ele>
        <time>2018-08-14T08:58:48Z</time>
      </trkpt>
      <trkpt lat="45.85626" lon="4.69392">
        <ele>198</ele>
        <time>2018-08-14T08:58:49Z</time>
      </trkpt>
      <trkpt lat="45.85625" lon="4.69379">
        <ele>198</ele>
        <time>2018-08-14T08:58:51Z</time>
      </trkpt>
      <trkpt lat="45.85625" lon="4.69373">
        <ele>198</ele>
        <time>2018-08-14T08:58:52Z</time>
      </trkpt>
      <trkpt lat="45.85624" lon="4.69368">
        <ele>198</ele>
        <time>2018-08-14T08:58:53Z</time>
      </trkpt>
      <trkpt lat="45.85624" lon="4.6936">
        <ele>198</ele>
        <time>2018-08-14T08:58:54Z</time>
      </trkpt>
      <trkpt lat="45.85623" lon="4.69348">
        <ele>198</ele>
        <time>2018-08-14T08:58:56Z</time>
      </trkpt>
      <trkpt lat="45.85622" lon="4.69341">
        <ele>198</ele>
        <time>2018-08-14T08:58:57Z</time>
      </trkpt>
      <trkpt lat="45.85621" lon="4.69331">
        <ele>198</ele>
        <time>2018-08-14T08:58:59Z</time>
      </trkpt>
      <trkpt lat="45.8562" lon="4.69324">
        <ele>198</ele>
        <time>2018-08-14T08:59:00Z</time>
      </trkpt>
      <trkpt lat="45.85616" lon="4.69315">
        <ele>198</ele>
        <time>2018-08-14T08:59:01Z</time>
      </trkpt>
      <trkpt lat="45.85614" lon="4.69309">
        <ele>198</ele>
        <time>2018-08-14T08:59:02Z</time>
      </trkpt>
      <trkpt lat="45.85612" lon="4.69301">
        <ele>198</ele>
        <time>2018-08-14T08:59:03Z</time>
      </trkpt>
      <trkpt lat="45.85611" lon="4.69294">
        <ele>198</ele>
        <time>2018-08-14T08:59:04Z</time>
      </trkpt>
      <trkpt lat="45.8561" lon="4.69286">
        <ele>198</ele>
        <time>2018-08-14T08:59:05Z</time>
      </trkpt>
      <trkpt lat="45.85611" lon="4.6928">
        <ele>198</ele>
        <time>2018-08-14T08:59:06Z</time>
      </trkpt>
      <trkpt lat="45.85611" lon="4.69271">
        <ele>198</ele>
        <time>2018-08-14T08:59:07Z</time>
      </trkpt>
      <trkpt lat="45.85611" lon="4.69264">
        <ele>198</ele>
        <time>2018-08-14T08:59:08Z</time>
      </trkpt>
      <trkpt lat="45.8561" lon="4.69256">
        <ele>198</ele>
        <time>2018-08-14T08:59:09Z</time>
      </trkpt>
      <trkpt lat="45.85608" lon="4.69249">
        <ele>199</ele>
        <time>2018-08-14T08:59:10Z</time>
      </trkpt>
      <trkpt lat="45.85606" lon="4.69241">
        <ele>199</ele>
        <time>2018-08-14T08:59:11Z</time>
      </trkpt>
      <trkpt lat="45.85605" lon="4.69234">
        <ele>199</ele>
        <time>2018-08-14T08:59:12Z</time>
      </trkpt>
      <trkpt lat="45.85603" lon="4.69226">
        <ele>199</ele>
        <time>2018-08-14T08:59:13Z</time>
      </trkpt>
      <trkpt lat="45.85603" lon="4.69218">
        <ele>199</ele>
        <time>2018-08-14T08:59:14Z</time>
      </trkpt>
      <trkpt lat="45.85602" lon="4.69211">
        <ele>199</ele>
        <time>2018-08-14T08:59:15Z</time>
      </trkpt>
      <trkpt lat="45.85601" lon="4.69203">
        <ele>199</ele>
        <time>2018-08-14T08:59:16Z</time>
      </trkpt>
      <trkpt lat="45.85601" lon="4.69196">
        <ele>199</ele>
        <time>2018-08-14T08:59:17Z</time>
      </trkpt>
      <trkpt lat="45.856" lon="4.69188">
        <ele>199</ele>
        <time>2018-08-14T08:59:18Z</time>
      </trkpt>
      <trkpt lat="45.856" lon="4.69182">
        <ele>199</ele>
        <time>2018-08-14T08:59:19Z</time>
      </trkpt>
      <trkpt lat="45.85599" lon="4.69175">
        <ele>199</ele>
        <time>2018-08-14T08:59:20Z</time>
      </trkpt>
      <trkpt lat="45.85597" lon="4.69164">
        <ele>199</ele>
        <time>2018-08-14T08:59:22Z</time>
      </trkpt>
      <trkpt lat="45.85599" lon="4.69157">
        <ele>199</ele>
        <time>2018-08-14T08:59:23Z</time>
      </trkpt>
      <trkpt lat="45.85598" lon="4.6915">
        <ele>199</ele>
        <time>2018-08-14T08:59:24Z</time>
      </trkpt>
      <trkpt lat="45.85599" lon="4.69142">
        <ele>199</ele>
        <time>2018-08-14T08:59:25Z</time>
      </trkpt>
      <trkpt lat="45.85598" lon="4.69134">
        <ele>198</ele>
        <time>2018-08-14T08:59:26Z</time>
      </trkpt>
      <trkpt lat="45.85596" lon="4.69127">
        <ele>198</ele>
        <time>2018-08-14T08:59:27Z</time>
      </trkpt>
      <trkpt lat="45.85596" lon="4.69119">
        <ele>198</ele>
        <time>2018-08-14T08:59:28Z</time>
      </trkpt>
      <trkpt lat="45.85594" lon="4.69111">
        <ele>199</ele>
        <time>2018-08-14T08:59:29Z</time>
      </trkpt>
      <trkpt lat="45.85594" lon="4.69103">
        <ele>199</ele>
        <time>2018-08-14T08:59:30Z</time>
      </trkpt>
      <trkpt lat="45.85592" lon="4.69095">
        <ele>199</ele>
        <time>2018-08-14T08:59:31Z</time>
      </trkpt>
      <trkpt lat="45.85592" lon="4.69088">
        <ele>199</ele>
        <time>2018-08-14T08:59:32Z</time>
      </trkpt>
      <trkpt lat="45.85591" lon="4.69081">
        <ele>199</ele>
        <time>2018-08-14T08:59:33Z</time>
      </trkpt>
      <trkpt lat="45.8559" lon="4.69073">
        <ele>199</ele>
        <time>2018-08-14T08:59:34Z</time>
      </trkpt>
      <trkpt lat="45.85589" lon="4.69066">
        <ele>199</ele>
        <time>2018-08-14T08:59:35Z</time>
      </trkpt>
      <trkpt lat="45.85589" lon="4.69059">
        <ele>199</ele>
        <time>2018-08-14T08:59:36Z</time>
      </trkpt>
      <trkpt lat="45.85588" lon="4.69052">
        <ele>199</ele>
        <time>2018-08-14T08:59:37Z</time>
      </trkpt>
      <trkpt lat="45.85587" lon="4.69041">
        <ele>199</ele>
        <time>2018-08-14T08:59:39Z</time>
      </trkpt>
      <trkpt lat="45.85587" lon="4.69034">
        <ele>199</ele>
        <time>2018-08-14T08:59:40Z</time>
      </trkpt>
      <trkpt lat="45.85585" lon="4.69022">
        <ele>199</ele>
        <time>2018-08-14T08:59:42Z</time>
      </trkpt>
      <trkpt lat="45.85584" lon="4.69016">
        <ele>199</ele>
        <time>2018-08-14T08:59:43Z</time>
      </trkpt>
      <trkpt lat="45.85583" lon="4.69005">
        <ele>200</ele>
        <time>2018-08-14T08:59:45Z</time>
      </trkpt>
      <trkpt lat="45.85582" lon="4.68999">
        <ele>200</ele>
        <time>2018-08-14T08:59:46Z</time>
      </trkpt>
      <trkpt lat="45.85583" lon="4.68987">
        <ele>200</ele>
        <time>2018-08-14T08:59:48Z</time>
      </trkpt>
      <trkpt lat="45.85582" lon="4.68981">
        <ele>200</ele>
        <time>2018-08-14T08:59:49Z</time>
      </trkpt>
      <trkpt lat="45.85582" lon="4.68973">
        <ele>200</ele>
        <time>2018-08-14T08:59:50Z</time>
      </trkpt>
      <trkpt lat="45.85582" lon="4.68966">
        <ele>200</ele>
        <time>2018-08-14T08:59:51Z</time>
      </trkpt>
      <trkpt lat="45.85581" lon="4.68958">
        <ele>200</ele>
        <time>2018-08-14T08:59:52Z</time>
      </trkpt>
      <trkpt lat="45.8558" lon="4.68951">
        <ele>200</ele>
        <time>2018-08-14T08:59:53Z</time>
      </trkpt>
      <trkpt lat="45.85579" lon="4.68944">
        <ele>200</ele>
        <time>2018-08-14T08:59:54Z</time>
      </trkpt>
      <trkpt lat="45.85579" lon="4.68937">
        <ele>200</ele>
        <time>2018-08-14T08:59:55Z</time>
      </trkpt>
      <trkpt lat="45.85577" lon="4.6893">
        <ele>200</ele>
        <time>2018-08-14T08:59:56Z</time>
      </trkpt>
      <trkpt lat="45.85578" lon="4.68924">
        <ele>200</ele>
        <time>2018-08-14T08:59:57Z</time>
      </trkpt>
      <trkpt lat="45.85577" lon="4.68917">
        <ele>200</ele>
        <time>2018-08-14T08:59:58Z</time>
      </trkpt>
      <trkpt lat="45.85577" lon="4.6891">
        <ele>200</ele>
        <time>2018-08-14T08:59:59Z</time>
      </trkpt>
      <trkpt lat="45.85575" lon="4.68905">
        <ele>200</ele>
        <time>2018-08-14T09:00:00Z</time>
      </trkpt>
      <trkpt lat="45.85575" lon="4.6889">
        <ele>200</ele>
        <time>2018-08-14T09:00:02Z</time>
      </trkpt>
      <trkpt lat="45.85573" lon="4.68882">
        <ele>200</ele>
        <time>2018-08-14T09:00:03Z</time>
      </trkpt>
      <trkpt lat="45.85573" lon="4.68874">
        <ele>200</ele>
        <time>2018-08-14T09:00:04Z</time>
      </trkpt>
      <trkpt lat="45.85572" lon="4.68867">
        <ele>200</ele>
        <time>2018-08-14T09:00:05Z</time>
      </trkpt>
      <trkpt lat="45.85573" lon="4.68859">
        <ele>200</ele>
        <time>2018-08-14T09:00:06Z</time>
      </trkpt>
      <trkpt lat="45.85572" lon="4.68852">
        <ele>200</ele>
        <time>2018-08-14T09:00:07Z</time>
      </trkpt>
      <trkpt lat="45.85572" lon="4.68844">
        <ele>200</ele>
        <time>2018-08-14T09:00:08Z</time>
      </trkpt>
      <trkpt lat="45.85572" lon="4.68837">
        <ele>200</ele>
        <time>2018-08-14T09:00:09Z</time>
      </trkpt>
      <trkpt lat="45.85571" lon="4.68831">
        <ele>200</ele>
        <time>2018-08-14T09:00:10Z</time>
      </trkpt>
      <trkpt lat="45.85571" lon="4.68823">
        <ele>200</ele>
        <time>2018-08-14T09:00:11Z</time>
      </trkpt>
      <trkpt lat="45.8557" lon="4.68815">
        <ele>200</ele>
        <time>2018-08-14T09:00:12Z</time>
      </trkpt>
      <trkpt lat="45.85569" lon="4.68804">
        <ele>200</ele>
        <time>2018-08-14T09:00:15Z</time>
      </trkpt>
      <trkpt lat="45.85569" lon="4.68801">
        <ele>200</ele>
        <time>2018-08-14T09:00:16Z</time>
      </trkpt>
      <trkpt lat="45.85569" lon="4.68788">
        <ele>200</ele>
        <time>2018-08-14T09:00:21Z</time>
      </trkpt>
      <trkpt lat="45.85569" lon="4.68786">
        <ele>200</ele>
        <time>2018-08-14T09:00:22Z</time>
      </trkpt>
      <trkpt lat="45.85568" lon="4.68773">
        <ele>200</ele>
        <time>2018-08-14T09:00:30Z</time>
      </trkpt>
      <trkpt lat="45.85569" lon="4.6877">
        <ele>200</ele>
        <time>2018-08-14T09:00:31Z</time>
      </trkpt>
      <trkpt lat="45.8557" lon="4.68757">
        <ele>200</ele>
        <time>2018-08-14T09:00:33Z</time>
      </trkpt>
      <trkpt lat="45.85569" lon="4.68755">
        <ele>200</ele>
        <time>2018-08-14T09:00:34Z</time>
      </trkpt>
      <trkpt lat="45.85568" lon="4.68747">
        <ele>200</ele>
        <time>2018-08-14T09:00:36Z</time>
      </trkpt>
      <trkpt lat="45.85565" lon="4.68735">
        <ele>200</ele>
        <time>2018-08-14T09:00:37Z</time>
      </trkpt>
      <trkpt lat="45.85563" lon="4.68724">
        <ele>200</ele>
        <time>2018-08-14T09:00:39Z</time>
      </trkpt>
      <trkpt lat="45.85562" lon="4.68718">
        <ele>200</ele>
        <time>2018-08-14T09:00:40Z</time>
      </trkpt>
      <trkpt lat="45.85561" lon="4.68712">
        <ele>200</ele>
        <time>2018-08-14T09:00:41Z</time>
      </trkpt>
      <trkpt lat="45.8556" lon="4.68705">
        <ele>200</ele>
        <time>2018-08-14T09:00:42Z</time>
      </trkpt>
      <trkpt lat="45.85558" lon="4.68694">
        <ele>200</ele>
        <time>2018-08-14T09:00:44Z</time>
      </trkpt>
      <trkpt lat="45.85555" lon="4.68687">
        <ele>200</ele>
        <time>2018-08-14T09:00:45Z</time>
      </trkpt>
      <trkpt lat="45.85553" lon="4.6868">
        <ele>200</ele>
        <time>2018-08-14T09:00:46Z</time>
      </trkpt>
      <trkpt lat="45.85553" lon="4.68673">
        <ele>200</ele>
        <time>2018-08-14T09:00:47Z</time>
      </trkpt>
      <trkpt lat="45.85553" lon="4.68666">
        <ele>200</ele>
        <time>2018-08-14T09:00:48Z</time>
      </trkpt>
      <trkpt lat="45.85552" lon="4.68659">
        <ele>200</ele>
        <time>2018-08-14T09:00:49Z</time>
      </trkpt>
      <trkpt lat="45.85549" lon="4.6865">
        <ele>201</ele>
        <time>2018-08-14T09:00:51Z</time>
      </trkpt>
      <trkpt lat="45.85549" lon="4.68642">
        <ele>201</ele>
        <time>2018-08-14T09:00:52Z</time>
      </trkpt>
      <trkpt lat="45.85552" lon="4.68631">
        <ele>201</ele>
        <time>2018-08-14T09:00:55Z</time>
      </trkpt>
      <trkpt lat="45.85552" lon="4.68627">
        <ele>201</ele>
        <time>2018-08-14T09:00:56Z</time>
      </trkpt>
      <trkpt lat="45.85551" lon="4.68614">
        <ele>201</ele>
        <time>2018-08-14T09:00:57Z</time>
      </trkpt>
      <trkpt lat="45.85551" lon="4.68605">
        <ele>201</ele>
        <time>2018-08-14T09:00:58Z</time>
      </trkpt>
      <trkpt lat="45.85549" lon="4.68596">
        <ele>201</ele>
        <time>2018-08-14T09:00:59Z</time>
      </trkpt>
      <trkpt lat="45.85548" lon="4.68584">
        <ele>201</ele>
        <time>2018-08-14T09:01:01Z</time>
      </trkpt>
      <trkpt lat="45.85547" lon="4.68578">
        <ele>201</ele>
        <time>2018-08-14T09:01:02Z</time>
      </trkpt>
      <trkpt lat="45.85547" lon="4.68571">
        <ele>201</ele>
        <time>2018-08-14T09:01:03Z</time>
      </trkpt>
      <trkpt lat="45.85545" lon="4.68563">
        <ele>201</ele>
        <time>2018-08-14T09:01:04Z</time>
      </trkpt>
      <trkpt lat="45.85545" lon="4.68551">
        <ele>201</ele>
        <time>2018-08-14T09:01:05Z</time>
      </trkpt>
      <trkpt lat="45.85546" lon="4.68544">
        <ele>201</ele>
        <time>2018-08-14T09:01:06Z</time>
      </trkpt>
      <trkpt lat="45.85545" lon="4.68537">
        <ele>201</ele>
        <time>2018-08-14T09:01:07Z</time>
      </trkpt>
      <trkpt lat="45.85545" lon="4.6853">
        <ele>201</ele>
        <time>2018-08-14T09:01:08Z</time>
      </trkpt>
      <trkpt lat="45.85544" lon="4.68523">
        <ele>201</ele>
        <time>2018-08-14T09:01:09Z</time>
      </trkpt>
      <trkpt lat="45.85543" lon="4.68517">
        <ele>201</ele>
        <time>2018-08-14T09:01:10Z</time>
      </trkpt>
      <trkpt lat="45.85542" lon="4.68508">
        <ele>201</ele>
        <time>2018-08-14T09:01:12Z</time>
      </trkpt>
      <trkpt lat="45.85542" lon="4.685">
        <ele>200</ele>
        <time>2018-08-14T09:01:13Z</time>
      </trkpt>
      <trkpt lat="45.85541" lon="4.68493">
        <ele>200</ele>
        <time>2018-08-14T09:01:14Z</time>
      </trkpt>
      <trkpt lat="45.85539" lon="4.68486">
        <ele>200</ele>
        <time>2018-08-14T09:01:15Z</time>
      </trkpt>
      <trkpt lat="45.85539" lon="4.68479">
        <ele>200</ele>
        <time>2018-08-14T09:01:16Z</time>
      </trkpt>
      <trkpt lat="45.85537" lon="4.6847">
        <ele>200</ele>
        <time>2018-08-14T09:01:17Z</time>
      </trkpt>
      <trkpt lat="45.85536" lon="4.68462">
        <ele>200</ele>
        <time>2018-08-14T09:01:18Z</time>
      </trkpt>
      <trkpt lat="45.85537" lon="4.68456">
        <ele>200</ele>
        <time>2018-08-14T09:01:19Z</time>
      </trkpt>
      <trkpt lat="45.85535" lon="4.68448">
        <ele>200</ele>
        <time>2018-08-14T09:01:20Z</time>
      </trkpt>
      <trkpt lat="45.85533" lon="4.68437">
        <ele>200</ele>
        <time>2018-08-14T09:01:21Z</time>
      </trkpt>
      <trkpt lat="45.85531" lon="4.6843">
        <ele>200</ele>
        <time>2018-08-14T09:01:22Z</time>
      </trkpt>
      <trkpt lat="45.85533" lon="4.68423">
        <ele>200</ele>
        <time>2018-08-14T09:01:23Z</time>
      </trkpt>
      <trkpt lat="45.85532" lon="4.68415">
        <ele>200</ele>
        <time>2018-08-14T09:01:24Z</time>
      </trkpt>
      <trkpt lat="45.85531" lon="4.68407">
        <ele>200</ele>
        <time>2018-08-14T09:01:25Z</time>
      </trkpt>
      <trkpt lat="45.85531" lon="4.684">
        <ele>200</ele>
        <time>2018-08-14T09:01:26Z</time>
      </trkpt>
      <trkpt lat="45.85529" lon="4.68394">
        <ele>200</ele>
        <time>2018-08-14T09:01:27Z</time>
      </trkpt>
      <trkpt lat="45.85529" lon="4.68387">
        <ele>200</ele>
        <time>2018-08-14T09:01:28Z</time>
      </trkpt>
      <trkpt lat="45.85529" lon="4.6838">
        <ele>201</ele>
        <time>2018-08-14T09:01:29Z</time>
      </trkpt>
      <trkpt lat="45.85527" lon="4.68368">
        <ele>201</ele>
        <time>2018-08-14T09:01:31Z</time>
      </trkpt>
      <trkpt lat="45.85527" lon="4.68361">
        <ele>201</ele>
        <time>2018-08-14T09:01:32Z</time>
      </trkpt>
      <trkpt lat="45.85526" lon="4.6835">
        <ele>201</ele>
        <time>2018-08-14T09:01:34Z</time>
      </trkpt>
      <trkpt lat="45.85524" lon="4.68344">
        <ele>201</ele>
        <time>2018-08-14T09:01:35Z</time>
      </trkpt>
      <trkpt lat="45.85525" lon="4.68336">
        <ele>201</ele>
        <time>2018-08-14T09:01:37Z</time>
      </trkpt>
      <trkpt lat="45.85522" lon="4.68329">
        <ele>202</ele>
        <time>2018-08-14T09:01:38Z</time>
      </trkpt>
      <trkpt lat="45.85522" lon="4.68318">
        <ele>202</ele>
        <time>2018-08-14T09:01:40Z</time>
      </trkpt>
      <trkpt lat="45.85522" lon="4.68312">
        <ele>202</ele>
        <time>2018-08-14T09:01:41Z</time>
      </trkpt>
      <trkpt lat="45.85521" lon="4.68299">
        <ele>202</ele>
        <time>2018-08-14T09:01:43Z</time>
      </trkpt>
      <trkpt lat="45.8552" lon="4.6829">
        <ele>202</ele>
        <time>2018-08-14T09:01:44Z</time>
      </trkpt>
      <trkpt lat="45.85524" lon="4.68284">
        <ele>202</ele>
        <time>2018-08-14T09:01:45Z</time>
      </trkpt>
      <trkpt lat="45.85523" lon="4.68278">
        <ele>202</ele>
        <time>2018-08-14T09:01:46Z</time>
      </trkpt>
      <trkpt lat="45.85522" lon="4.68272">
        <ele>202</ele>
        <time>2018-08-14T09:01:47Z</time>
      </trkpt>
      <trkpt lat="45.85521" lon="4.68265">
        <ele>202</ele>
        <time>2018-08-14T09:01:48Z</time>
      </trkpt>
      <trkpt lat="45.85522" lon="4.68257">
        <ele>202</ele>
        <time>2018-08-14T09:01:49Z</time>
      </trkpt>
      <trkpt lat="45.85519" lon="4.68251">
        <ele>202</ele>
        <time>2018-08-14T09:01:50Z</time>
      </trkpt>
      <trkpt lat="45.85514" lon="4.68243">
        <ele>203</ele>
        <time>2018-08-14T09:01:51Z</time>
      </trkpt>
      <trkpt lat="45.85512" lon="4.68236">
        <ele>203</ele>
        <time>2018-08-14T09:01:52Z</time>
      </trkpt>
      <trkpt lat="45.85513" lon="4.68229">
        <ele>203</ele>
        <time>2018-08-14T09:01:53Z</time>
      </trkpt>
      <trkpt lat="45.85514" lon="4.68223">
        <ele>203</ele>
        <time>2018-08-14T09:01:54Z</time>
      </trkpt>
      <trkpt lat="45.85515" lon="4.68211">
        <ele>203</ele>
        <time>2018-08-14T09:01:56Z</time>
      </trkpt>
      <trkpt lat="45.85516" lon="4.68204">
        <ele>203</ele>
        <time>2018-08-14T09:01:57Z</time>
      </trkpt>
      <trkpt lat="45.85515" lon="4.68198">
        <ele>203</ele>
        <time>2018-08-14T09:01:58Z</time>
      </trkpt>
      <trkpt lat="45.85514" lon="4.68191">
        <ele>203</ele>
        <time>2018-08-14T09:01:59Z</time>
      </trkpt>
      <trkpt lat="45.85513" lon="4.68184">
        <ele>203</ele>
        <time>2018-08-14T09:02:00Z</time>
      </trkpt>
      <trkpt lat="45.85512" lon="4.68178">
        <ele>204</ele>
        <time>2018-08-14T09:02:01Z</time>
      </trkpt>
      <trkpt lat="45.8551" lon="4.68171">
        <ele>204</ele>
        <time>2018-08-14T09:02:02Z</time>
      </trkpt>
      <trkpt lat="45.85509" lon="4.68162">
        <ele>204</ele>
        <time>2018-08-14T09:02:03Z</time>
      </trkpt>
      <trkpt lat="45.85508" lon="4.68149">
        <ele>203</ele>
        <time>2018-08-14T09:02:05Z</time>
      </trkpt>
      <trkpt lat="45.85509" lon="4.68143">
        <ele>203</ele>
        <time>2018-08-14T09:02:06Z</time>
      </trkpt>
      <trkpt lat="45.8551" lon="4.68131">
        <ele>203</ele>
        <time>2018-08-14T09:02:08Z</time>
      </trkpt>
      <trkpt lat="45.85508" lon="4.68124">
        <ele>203</ele>
        <time>2018-08-14T09:02:09Z</time>
      </trkpt>
      <trkpt lat="45.85508" lon="4.68111">
        <ele>203</ele>
        <time>2018-08-14T09:02:11Z</time>
      </trkpt>
      <trkpt lat="45.85507" lon="4.68104">
        <ele>203</ele>
        <time>2018-08-14T09:02:12Z</time>
      </trkpt>
      <trkpt lat="45.85506" lon="4.68096">
        <ele>203</ele>
        <time>2018-08-14T09:02:13Z</time>
      </trkpt>
      <trkpt lat="45.85506" lon="4.68088">
        <ele>204</ele>
        <time>2018-08-14T09:02:14Z</time>
      </trkpt>
      <trkpt lat="45.85505" lon="4.6808">
        <ele>204</ele>
        <time>2018-08-14T09:02:15Z</time>
      </trkpt>
      <trkpt lat="45.85502" lon="4.68073">
        <ele>204</ele>
        <time>2018-08-14T09:02:16Z</time>
      </trkpt>
      <trkpt lat="45.855" lon="4.68066">
        <ele>205</ele>
        <time>2018-08-14T09:02:17Z</time>
      </trkpt>
      <trkpt lat="45.855" lon="4.6806">
        <ele>206</ele>
        <time>2018-08-14T09:02:18Z</time>
      </trkpt>
      <trkpt lat="45.85497" lon="4.68047">
        <ele>206</ele>
        <time>2018-08-14T09:02:20Z</time>
      </trkpt>
      <trkpt lat="45.85497" lon="4.68041">
        <ele>206</ele>
        <time>2018-08-14T09:02:21Z</time>
      </trkpt>
      <trkpt lat="45.85494" lon="4.6803">
        <ele>207</ele>
        <time>2018-08-14T09:02:24Z</time>
      </trkpt>
      <trkpt lat="45.85493" lon="4.68021">
        <ele>207</ele>
        <time>2018-08-14T09:02:25Z</time>
      </trkpt>
      <trkpt lat="45.85494" lon="4.68015">
        <ele>207</ele>
        <time>2018-08-14T09:02:26Z</time>
      </trkpt>
      <trkpt lat="45.85498" lon="4.68009">
        <ele>206</ele>
        <time>2018-08-14T09:02:27Z</time>
      </trkpt>
      <trkpt lat="45.85502" lon="4.68004">
        <ele>205</ele>
        <time>2018-08-14T09:02:28Z</time>
      </trkpt>
      <trkpt lat="45.85505" lon="4.67997">
        <ele>206</ele>
        <time>2018-08-14T09:02:29Z</time>
      </trkpt>
      <trkpt lat="45.85508" lon="4.67992">
        <ele>206</ele>
        <time>2018-08-14T09:02:30Z</time>
      </trkpt>
      <trkpt lat="45.85512" lon="4.67987">
        <ele>206</ele>
        <time>2018-08-14T09:02:31Z</time>
      </trkpt>
      <trkpt lat="45.85516" lon="4.67982">
        <ele>206</ele>
        <time>2018-08-14T09:02:32Z</time>
      </trkpt>
      <trkpt lat="45.8552" lon="4.67977">
        <ele>206</ele>
        <time>2018-08-14T09:02:33Z</time>
      </trkpt>
      <trkpt lat="45.85527" lon="4.67975">
        <ele>205</ele>
        <time>2018-08-14T09:02:34Z</time>
      </trkpt>
      <trkpt lat="45.85531" lon="4.67972">
        <ele>205</ele>
        <time>2018-08-14T09:02:35Z</time>
      </trkpt>
      <trkpt lat="45.85535" lon="4.67968">
        <ele>205</ele>
        <time>2018-08-14T09:02:36Z</time>
      </trkpt>
      <trkpt lat="45.85539" lon="4.67965">
        <ele>205</ele>
        <time>2018-08-14T09:02:37Z</time>
      </trkpt>
      <trkpt lat="45.85544" lon="4.67955">
        <ele>205</ele>
        <time>2018-08-14T09:02:39Z</time>
      </trkpt>
      <trkpt lat="45.85547" lon="4.6795">
        <ele>205</ele>
        <time>2018-08-14T09:02:40Z</time>
      </trkpt>
      <trkpt lat="45.85554" lon="4.67943">
        <ele>205</ele>
        <time>2018-08-14T09:02:42Z</time>
      </trkpt>
      <trkpt lat="45.85558" lon="4.67941">
        <ele>205</ele>
        <time>2018-08-14T09:02:43Z</time>
      </trkpt>
      <trkpt lat="45.85565" lon="4.67935">
        <ele>205</ele>
        <time>2018-08-14T09:02:45Z</time>
      </trkpt>
      <trkpt lat="45.85569" lon="4.67933">
        <ele>205</ele>
        <time>2018-08-14T09:02:46Z</time>
      </trkpt>
      <trkpt lat="45.85572" lon="4.67929">
        <ele>205</ele>
        <time>2018-08-14T09:02:47Z</time>
      </trkpt>
      <trkpt lat="45.85576" lon="4.67923">
        <ele>204</ele>
        <time>2018-08-14T09:02:48Z</time>
      </trkpt>
      <trkpt lat="45.85577" lon="4.6791">
        <ele>205</ele>
        <time>2018-08-14T09:02:50Z</time>
      </trkpt>
      <trkpt lat="45.85577" lon="4.67903">
        <ele>206</ele>
        <time>2018-08-14T09:02:51Z</time>
      </trkpt>
      <trkpt lat="45.85577" lon="4.67897">
        <ele>206</ele>
        <time>2018-08-14T09:02:52Z</time>
      </trkpt>
      <trkpt lat="45.85576" lon="4.6789">
        <ele>206</ele>
        <time>2018-08-14T09:02:53Z</time>
      </trkpt>
      <trkpt lat="45.85574" lon="4.67883">
        <ele>206</ele>
        <time>2018-08-14T09:02:54Z</time>
      </trkpt>
      <trkpt lat="45.85575" lon="4.67876">
        <ele>206</ele>
        <time>2018-08-14T09:02:55Z</time>
      </trkpt>
      <trkpt lat="45.85574" lon="4.67867">
        <ele>207</ele>
        <time>2018-08-14T09:02:56Z</time>
      </trkpt>
      <trkpt lat="45.85574" lon="4.67859">
        <ele>206</ele>
        <time>2018-08-14T09:02:57Z</time>
      </trkpt>
      <trkpt lat="45.85574" lon="4.67851">
        <ele>206</ele>
        <time>2018-08-14T09:02:58Z</time>
      </trkpt>
      <trkpt lat="45.85575" lon="4.67842">
        <ele>206</ele>
        <time>2018-08-14T09:02:59Z</time>
      </trkpt>
      <trkpt lat="45.85577" lon="4.67835">
        <ele>206</ele>
        <time>2018-08-14T09:03:00Z</time>
      </trkpt>
      <trkpt lat="45.85578" lon="4.67827">
        <ele>206</ele>
        <time>2018-08-14T09:03:01Z</time>
      </trkpt>
      <trkpt lat="45.8558" lon="4.67819">
        <ele>206</ele>
        <time>2018-08-14T09:03:02Z</time>
      </trkpt>
      <trkpt lat="45.85584" lon="4.67814">
        <ele>209</ele>
        <time>2018-08-14T09:03:03Z</time>
      </trkpt>
      <trkpt lat="45.85584" lon="4.67805">
        <ele>209</ele>
        <time>2018-08-14T09:03:04Z</time>
      </trkpt>
      <trkpt lat="45.85584" lon="4.67797">
        <ele>209</ele>
        <time>2018-08-14T09:03:05Z</time>
      </trkpt>
      <trkpt lat="45.85587" lon="4.6779">
        <ele>210</ele>
        <time>2018-08-14T09:03:06Z</time>
      </trkpt>
      <trkpt lat="45.8559" lon="4.67784">
        <ele>209</ele>
        <time>2018-08-14T09:03:07Z</time>
      </trkpt>
      <trkpt lat="45.85591" lon="4.67777">
        <ele>209</ele>
        <time>2018-08-14T09:03:08Z</time>
      </trkpt>
      <trkpt lat="45.85594" lon="4.67773">
        <ele>209</ele>
        <time>2018-08-14T09:03:09Z</time>
      </trkpt>
      <trkpt lat="45.85597" lon="4.67768">
        <ele>209</ele>
        <time>2018-08-14T09:03:10Z</time>
      </trkpt>
      <trkpt lat="45.856" lon="4.67763">
        <ele>209</ele>
        <time>2018-08-14T09:03:11Z</time>
      </trkpt>
      <trkpt lat="45.85605" lon="4.67752">
        <ele>209</ele>
        <time>2018-08-14T09:03:13Z</time>
      </trkpt>
      <trkpt lat="45.85609" lon="4.67745">
        <ele>208</ele>
        <time>2018-08-14T09:03:14Z</time>
      </trkpt>
      <trkpt lat="45.85611" lon="4.6774">
        <ele>208</ele>
        <time>2018-08-14T09:03:15Z</time>
      </trkpt>
      <trkpt lat="45.85614" lon="4.67734">
        <ele>209</ele>
        <time>2018-08-14T09:03:16Z</time>
      </trkpt>
      <trkpt lat="45.85617" lon="4.67728">
        <ele>209</ele>
        <time>2018-08-14T09:03:17Z</time>
      </trkpt>
      <trkpt lat="45.8562" lon="4.67722">
        <ele>209</ele>
        <time>2018-08-14T09:03:18Z</time>
      </trkpt>
      <trkpt lat="45.85626" lon="4.67716">
        <ele>209</ele>
        <time>2018-08-14T09:03:19Z</time>
      </trkpt>
      <trkpt lat="45.85629" lon="4.67711">
        <ele>209</ele>
        <time>2018-08-14T09:03:20Z</time>
      </trkpt>
      <trkpt lat="45.85632" lon="4.67707">
        <ele>209</ele>
        <time>2018-08-14T09:03:21Z</time>
      </trkpt>
      <trkpt lat="45.85637" lon="4.67703">
        <ele>210</ele>
        <time>2018-08-14T09:03:22Z</time>
      </trkpt>
      <trkpt lat="45.85641" lon="4.67699">
        <ele>210</ele>
        <time>2018-08-14T09:03:23Z</time>
      </trkpt>
      <trkpt lat="45.85645" lon="4.67694">
        <ele>210</ele>
        <time>2018-08-14T09:03:24Z</time>
      </trkpt>
      <trkpt lat="45.85649" lon="4.6769">
        <ele>210</ele>
        <time>2018-08-14T09:03:25Z</time>
      </trkpt>
      <trkpt lat="45.85654" lon="4.67685">
        <ele>209</ele>
        <time>2018-08-14T09:03:26Z</time>
      </trkpt>
      <trkpt lat="45.85659" lon="4.6768">
        <ele>209</ele>
        <time>2018-08-14T09:03:27Z</time>
      </trkpt>
      <trkpt lat="45.85664" lon="4.67675">
        <ele>209</ele>
        <time>2018-08-14T09:03:28Z</time>
      </trkpt>
      <trkpt lat="45.85669" lon="4.67672">
        <ele>212</ele>
        <time>2018-08-14T09:03:29Z</time>
      </trkpt>
      <trkpt lat="45.85675" lon="4.67668">
        <ele>213</ele>
        <time>2018-08-14T09:03:30Z</time>
      </trkpt>
      <trkpt lat="45.85679" lon="4.67665">
        <ele>210</ele>
        <time>2018-08-14T09:03:31Z</time>
      </trkpt>
      <trkpt lat="45.85683" lon="4.67662">
        <ele>210</ele>
        <time>2018-08-14T09:03:32Z</time>
      </trkpt>
      <trkpt lat="45.85689" lon="4.67659">
        <ele>210</ele>
        <time>2018-08-14T09:03:33Z</time>
      </trkpt>
      <trkpt lat="45.85695" lon="4.67656">
        <ele>211</ele>
        <time>2018-08-14T09:03:34Z</time>
      </trkpt>
      <trkpt lat="45.857" lon="4.67652">
        <ele>211</ele>
        <time>2018-08-14T09:03:35Z</time>
      </trkpt>
      <trkpt lat="45.85706" lon="4.67648">
        <ele>212</ele>
        <time>2018-08-14T09:03:36Z</time>
      </trkpt>
      <trkpt lat="45.85712" lon="4.67645">
        <ele>212</ele>
        <time>2018-08-14T09:03:37Z</time>
      </trkpt>
      <trkpt lat="45.85716" lon="4.67641">
        <ele>212</ele>
        <time>2018-08-14T09:03:38Z</time>
      </trkpt>
      <trkpt lat="45.8572" lon="4.67638">
        <ele>212</ele>
        <time>2018-08-14T09:03:39Z</time>
      </trkpt>
      <trkpt lat="45.85724" lon="4.67635">
        <ele>212</ele>
        <time>2018-08-14T09:03:40Z</time>
      </trkpt>
      <trkpt lat="45.85729" lon="4.67632">
        <ele>212</ele>
        <time>2018-08-14T09:03:41Z</time>
      </trkpt>
      <trkpt lat="45.85734" lon="4.6763">
        <ele>212</ele>
        <time>2018-08-14T09:03:42Z</time>
      </trkpt>
      <trkpt lat="45.85739" lon="4.67629">
        <ele>212</ele>
        <time>2018-08-14T09:03:43Z</time>
      </trkpt>
      <trkpt lat="45.85743" lon="4.67623">
        <ele>211</ele>
        <time>2018-08-14T09:03:44Z</time>
      </trkpt>
      <trkpt lat="45.85748" lon="4.67621">
        <ele>211</ele>
        <time>2018-08-14T09:03:45Z</time>
      </trkpt>
      <trkpt lat="45.85753" lon="4.67619">
        <ele>219</ele>
        <time>2018-08-14T09:03:46Z</time>
      </trkpt>
      <trkpt lat="45.85757" lon="4.67615">
        <ele>218</ele>
        <time>2018-08-14T09:03:47Z</time>
      </trkpt>
      <trkpt lat="45.85762" lon="4.67613">
        <ele>218</ele>
        <time>2018-08-14T09:03:48Z</time>
      </trkpt>
      <trkpt lat="45.85767" lon="4.67609">
        <ele>218</ele>
        <time>2018-08-14T09:03:49Z</time>
      </trkpt>
      <trkpt lat="45.85772" lon="4.67606">
        <ele>218</ele>
        <time>2018-08-14T09:03:50Z</time>
      </trkpt>
      <trkpt lat="45.85776" lon="4.67604">
        <ele>218</ele>
        <time>2018-08-14T09:03:51Z</time>
      </trkpt>
      <trkpt lat="45.85781" lon="4.676">
        <ele>219</ele>
        <time>2018-08-14T09:03:52Z</time>
      </trkpt>
      <trkpt lat="45.85785" lon="4.67596">
        <ele>219</ele>
        <time>2018-08-14T09:03:53Z</time>
      </trkpt>
      <trkpt lat="45.85789" lon="4.67591">
        <ele>219</ele>
        <time>2018-08-14T09:03:54Z</time>
      </trkpt>
      <trkpt lat="45.85793" lon="4.67585">
        <ele>220</ele>
        <time>2018-08-14T09:03:55Z</time>
      </trkpt>
      <trkpt lat="45.85797" lon="4.67579">
        <ele>212</ele>
        <time>2018-08-14T09:03:56Z</time>
      </trkpt>
      <trkpt lat="45.85802" lon="4.67573">
        <ele>212</ele>
        <time>2018-08-14T09:03:57Z</time>
      </trkpt>
      <trkpt lat="45.85807" lon="4.67571">
        <ele>213</ele>
        <time>2018-08-14T09:03:58Z</time>
      </trkpt>
      <trkpt lat="45.85812" lon="4.67564">
        <ele>213</ele>
        <time>2018-08-14T09:03:59Z</time>
      </trkpt>
      <trkpt lat="45.85816" lon="4.67558">
        <ele>212</ele>
        <time>2018-08-14T09:04:00Z</time>
      </trkpt>
      <trkpt lat="45.85821" lon="4.6755">
        <ele>212</ele>
        <time>2018-08-14T09:04:01Z</time>
      </trkpt>
      <trkpt lat="45.85824" lon="4.67544">
        <ele>211</ele>
        <time>2018-08-14T09:04:02Z</time>
      </trkpt>
      <trkpt lat="45.85827" lon="4.67539">
        <ele>211</ele>
        <time>2018-08-14T09:04:03Z</time>
      </trkpt>
      <trkpt lat="45.8583" lon="4.6753">
        <ele>210</ele>
        <time>2018-08-14T09:04:04Z</time>
      </trkpt>
      <trkpt lat="45.85833" lon="4.67523">
        <ele>209</ele>
        <time>2018-08-14T09:04:05Z</time>
      </trkpt>
      <trkpt lat="45.85836" lon="4.67516">
        <ele>215</ele>
        <time>2018-08-14T09:04:06Z</time>
      </trkpt>
      <trkpt lat="45.8584" lon="4.6751">
        <ele>214</ele>
        <time>2018-08-14T09:04:07Z</time>
      </trkpt>
      <trkpt lat="45.85843" lon="4.67502">
        <ele>212</ele>
        <time>2018-08-14T09:04:08Z</time>
      </trkpt>
      <trkpt lat="45.85847" lon="4.67496">
        <ele>210</ele>
        <time>2018-08-14T09:04:09Z</time>
      </trkpt>
      <trkpt lat="45.8585" lon="4.67489">
        <ele>211</ele>
        <time>2018-08-14T09:04:10Z</time>
      </trkpt>
      <trkpt lat="45.85854" lon="4.67485">
        <ele>212</ele>
        <time>2018-08-14T09:04:11Z</time>
      </trkpt>
      <trkpt lat="45.85859" lon="4.67478">
        <ele>213</ele>
        <time>2018-08-14T09:04:12Z</time>
      </trkpt>
      <trkpt lat="45.85857" lon="4.67467">
        <ele>213</ele>
        <time>2018-08-14T09:04:13Z</time>
      </trkpt>
      <trkpt lat="45.85859" lon="4.67459">
        <ele>213</ele>
        <time>2018-08-14T09:04:14Z</time>
      </trkpt>
      <trkpt lat="45.8586" lon="4.67451">
        <ele>213</ele>
        <time>2018-08-14T09:04:15Z</time>
      </trkpt>
      <trkpt lat="45.85863" lon="4.67446">
        <ele>213</ele>
        <time>2018-08-14T09:04:16Z</time>
      </trkpt>
      <trkpt lat="45.85864" lon="4.67437">
        <ele>213</ele>
        <time>2018-08-14T09:04:18Z</time>
      </trkpt>
      <trkpt lat="45.85865" lon="4.67425">
        <ele>212</ele>
        <time>2018-08-14T09:04:19Z</time>
      </trkpt>
      <trkpt lat="45.85865" lon="4.67415">
        <ele>209</ele>
        <time>2018-08-14T09:04:20Z</time>
      </trkpt>
      <trkpt lat="45.85867" lon="4.67405">
        <ele>209</ele>
        <time>2018-08-14T09:04:21Z</time>
      </trkpt>
      <trkpt lat="45.85868" lon="4.67397">
        <ele>209</ele>
        <time>2018-08-14T09:04:22Z</time>
      </trkpt>
      <trkpt lat="45.85869" lon="4.67388">
        <ele>209</ele>
        <time>2018-08-14T09:04:23Z</time>
      </trkpt>
      <trkpt lat="45.85869" lon="4.67379">
        <ele>209</ele>
        <time>2018-08-14T09:04:24Z</time>
      </trkpt>
      <trkpt lat="45.8587" lon="4.67369">
        <ele>209</ele>
        <time>2018-08-14T09:04:25Z</time>
      </trkpt>
      <trkpt lat="45.85872" lon="4.6736">
        <ele>209</ele>
        <time>2018-08-14T09:04:26Z</time>
      </trkpt>
      <trkpt lat="45.85874" lon="4.67354">
        <ele>209</ele>
        <time>2018-08-14T09:04:27Z</time>
      </trkpt>
      <trkpt lat="45.85873" lon="4.67345">
        <ele>208</ele>
        <time>2018-08-14T09:04:28Z</time>
      </trkpt>
      <trkpt lat="45.85874" lon="4.67337">
        <ele>208</ele>
        <time>2018-08-14T09:04:29Z</time>
      </trkpt>
      <trkpt lat="45.85875" lon="4.67331">
        <ele>206</ele>
        <time>2018-08-14T09:04:30Z</time>
      </trkpt>
      <trkpt lat="45.85876" lon="4.67325">
        <ele>206</ele>
        <time>2018-08-14T09:04:31Z</time>
      </trkpt>
      <trkpt lat="45.85878" lon="4.67317">
        <ele>206</ele>
        <time>2018-08-14T09:04:32Z</time>
      </trkpt>
      <trkpt lat="45.85879" lon="4.67311">
        <ele>206</ele>
        <time>2018-08-14T09:04:33Z</time>
      </trkpt>
      <trkpt lat="45.85881" lon="4.67304">
        <ele>206</ele>
        <time>2018-08-14T09:04:34Z</time>
      </trkpt>
      <trkpt lat="45.85882" lon="4.67296">
        <ele>206</ele>
        <time>2018-08-14T09:04:35Z</time>
      </trkpt>
      <trkpt lat="45.85883" lon="4.67288">
        <ele>205</ele>
        <time>2018-08-14T09:04:36Z</time>
      </trkpt>
      <trkpt lat="45.85884" lon="4.67279">
        <ele>205</ele>
        <time>2018-08-14T09:04:37Z</time>
      </trkpt>
      <trkpt lat="45.85885" lon="4.67272">
        <ele>205</ele>
        <time>2018-08-14T09:04:38Z</time>
      </trkpt>
      <trkpt lat="45.85886" lon="4.67265">
        <ele>205</ele>
        <time>2018-08-14T09:04:39Z</time>
      </trkpt>
      <trkpt lat="45.85887" lon="4.67257">
        <ele>205</ele>
        <time>2018-08-14T09:04:40Z</time>
      </trkpt>
      <trkpt lat="45.85887" lon="4.6725">
        <ele>205</ele>
        <time>2018-08-14T09:04:41Z</time>
      </trkpt>
      <trkpt lat="45.85889" lon="4.67242">
        <ele>205</ele>
        <time>2018-08-14T09:04:42Z</time>
      </trkpt>
      <trkpt lat="45.85889" lon="4.67234">
        <ele>205</ele>
        <time>2018-08-14T09:04:43Z</time>
      </trkpt>
      <trkpt lat="45.85888" lon="4.67228">
        <ele>205</ele>
        <time>2018-08-14T09:04:44Z</time>
      </trkpt>
      <trkpt lat="45.85889" lon="4.6722">
        <ele>204</ele>
        <time>2018-08-14T09:04:45Z</time>
      </trkpt>
      <trkpt lat="45.8589" lon="4.67213">
        <ele>204</ele>
        <time>2018-08-14T09:04:46Z</time>
      </trkpt>
      <trkpt lat="45.8589" lon="4.67206">
        <ele>204</ele>
        <time>2018-08-14T09:04:47Z</time>
      </trkpt>
      <trkpt lat="45.85891" lon="4.672">
        <ele>204</ele>
        <time>2018-08-14T09:04:48Z</time>
      </trkpt>
      <trkpt lat="45.85891" lon="4.67192">
        <ele>204</ele>
        <time>2018-08-14T09:04:49Z</time>
      </trkpt>
      <trkpt lat="45.85892" lon="4.67184">
        <ele>205</ele>
        <time>2018-08-14T09:04:50Z</time>
      </trkpt>
      <trkpt lat="45.85893" lon="4.67176">
        <ele>205</ele>
        <time>2018-08-14T09:04:51Z</time>
      </trkpt>
      <trkpt lat="45.85894" lon="4.67169">
        <ele>205</ele>
        <time>2018-08-14T09:04:52Z</time>
      </trkpt>
      <trkpt lat="45.85894" lon="4.67161">
        <ele>205</ele>
        <time>2018-08-14T09:04:53Z</time>
      </trkpt>
      <trkpt lat="45.85894" lon="4.67154">
        <ele>204</ele>
        <time>2018-08-14T09:04:54Z</time>
      </trkpt>
      <trkpt lat="45.85894" lon="4.67145">
        <ele>204</ele>
        <time>2018-08-14T09:04:55Z</time>
      </trkpt>
      <trkpt lat="45.85893" lon="4.67138">
        <ele>204</ele>
        <time>2018-08-14T09:04:56Z</time>
      </trkpt>
      <trkpt lat="45.85895" lon="4.67131">
        <ele>204</ele>
        <time>2018-08-14T09:04:57Z</time>
      </trkpt>
      <trkpt lat="45.85896" lon="4.67124">
        <ele>204</ele>
        <time>2018-08-14T09:04:58Z</time>
      </trkpt>
      <trkpt lat="45.85897" lon="4.67117">
        <ele>204</ele>
        <time>2018-08-14T09:04:59Z</time>
      </trkpt>
      <trkpt lat="45.85898" lon="4.6711">
        <ele>204</ele>
        <time>2018-08-14T09:05:00Z</time>
      </trkpt>
      <trkpt lat="45.85899" lon="4.67103">
        <ele>204</ele>
        <time>2018-08-14T09:05:01Z</time>
      </trkpt>
      <trkpt lat="45.859" lon="4.67096">
        <ele>204</ele>
        <time>2018-08-14T09:05:02Z</time>
      </trkpt>
      <trkpt lat="45.85901" lon="4.67089">
        <ele>204</ele>
        <time>2018-08-14T09:05:03Z</time>
      </trkpt>
      <trkpt lat="45.85902" lon="4.67082">
        <ele>204</ele>
        <time>2018-08-14T09:05:04Z</time>
      </trkpt>
      <trkpt lat="45.85902" lon="4.67076">
        <ele>204</ele>
        <time>2018-08-14T09:05:05Z</time>
      </trkpt>
      <trkpt lat="45.85904" lon="4.67068">
        <ele>205</ele>
        <time>2018-08-14T09:05:06Z</time>
      </trkpt>
      <trkpt lat="45.85904" lon="4.67062">
        <ele>205</ele>
        <time>2018-08-14T09:05:07Z</time>
      </trkpt>
      <trkpt lat="45.85905" lon="4.67054">
        <ele>205</ele>
        <time>2018-08-14T09:05:08Z</time>
      </trkpt>
      <trkpt lat="45.85905" lon="4.67047">
        <ele>205</ele>
        <time>2018-08-14T09:05:09Z</time>
      </trkpt>
      <trkpt lat="45.85908" lon="4.67041">
        <ele>205</ele>
        <time>2018-08-14T09:05:10Z</time>
      </trkpt>
      <trkpt lat="45.85909" lon="4.67033">
        <ele>205</ele>
        <time>2018-08-14T09:05:11Z</time>
      </trkpt>
      <trkpt lat="45.85909" lon="4.67027">
        <ele>205</ele>
        <time>2018-08-14T09:05:12Z</time>
      </trkpt>
      <trkpt lat="45.85909" lon="4.6702">
        <ele>205</ele>
        <time>2018-08-14T09:05:13Z</time>
      </trkpt>
      <trkpt lat="45.85913" lon="4.6701">
        <ele>206</ele>
        <time>2018-08-14T09:05:15Z</time>
      </trkpt>
      <trkpt lat="45.85916" lon="4.67005">
        <ele>206</ele>
        <time>2018-08-14T09:05:16Z</time>
      </trkpt>
      <trkpt lat="45.85921" lon="4.66996">
        <ele>207</ele>
        <time>2018-08-14T09:05:18Z</time>
      </trkpt>
      <trkpt lat="45.85923" lon="4.66992">
        <ele>207</ele>
        <time>2018-08-14T09:05:19Z</time>
      </trkpt>
      <trkpt lat="45.85928" lon="4.66981">
        <ele>208</ele>
        <time>2018-08-14T09:05:21Z</time>
      </trkpt>
      <trkpt lat="45.8593" lon="4.66976">
        <ele>208</ele>
        <time>2018-08-14T09:05:22Z</time>
      </trkpt>
      <trkpt lat="45.85931" lon="4.6697">
        <ele>209</ele>
        <time>2018-08-14T09:05:23Z</time>
      </trkpt>
      <trkpt lat="45.85928" lon="4.66961">
        <ele>209</ele>
        <time>2018-08-14T09:05:24Z</time>
      </trkpt>
      <trkpt lat="45.85927" lon="4.66953">
        <ele>209</ele>
        <time>2018-08-14T09:05:25Z</time>
      </trkpt>
      <trkpt lat="45.85926" lon="4.66946">
        <ele>209</ele>
        <time>2018-08-14T09:05:26Z</time>
      </trkpt>
      <trkpt lat="45.85928" lon="4.6694">
        <ele>209</ele>
        <time>2018-08-14T09:05:27Z</time>
      </trkpt>
      <trkpt lat="45.85929" lon="4.66931">
        <ele>208</ele>
        <time>2018-08-14T09:05:28Z</time>
      </trkpt>
      <trkpt lat="45.85929" lon="4.66924">
        <ele>208</ele>
        <time>2018-08-14T09:05:29Z</time>
      </trkpt>
      <trkpt lat="45.85932" lon="4.66917">
        <ele>208</ele>
        <time>2018-08-14T09:05:30Z</time>
      </trkpt>
      <trkpt lat="45.85933" lon="4.6691">
        <ele>209</ele>
        <time>2018-08-14T09:05:31Z</time>
      </trkpt>
      <trkpt lat="45.85933" lon="4.66901">
        <ele>209</ele>
        <time>2018-08-14T09:05:32Z</time>
      </trkpt>
      <trkpt lat="45.85934" lon="4.66896">
        <ele>210</ele>
        <time>2018-08-14T09:05:33Z</time>
      </trkpt>
      <trkpt lat="45.85934" lon="4.66887">
        <ele>210</ele>
        <time>2018-08-14T09:05:34Z</time>
      </trkpt>
      <trkpt lat="45.85937" lon="4.66882">
        <ele>210</ele>
        <time>2018-08-14T09:05:35Z</time>
      </trkpt>
      <trkpt lat="45.85939" lon="4.66875">
        <ele>210</ele>
        <time>2018-08-14T09:05:36Z</time>
      </trkpt>
      <trkpt lat="45.85942" lon="4.66864">
        <ele>210</ele>
        <time>2018-08-14T09:05:38Z</time>
      </trkpt>
      <trkpt lat="45.85944" lon="4.66857">
        <ele>210</ele>
        <time>2018-08-14T09:05:39Z</time>
      </trkpt>
      <trkpt lat="45.85945" lon="4.6685">
        <ele>210</ele>
        <time>2018-08-14T09:05:40Z</time>
      </trkpt>
      <trkpt lat="45.85948" lon="4.66844">
        <ele>211</ele>
        <time>2018-08-14T09:05:41Z</time>
      </trkpt>
      <trkpt lat="45.8595" lon="4.66837">
        <ele>211</ele>
        <time>2018-08-14T09:05:42Z</time>
      </trkpt>
      <trkpt lat="45.85952" lon="4.66831">
        <ele>212</ele>
        <time>2018-08-14T09:05:43Z</time>
      </trkpt>
      <trkpt lat="45.85954" lon="4.66825">
        <ele>212</ele>
        <time>2018-08-14T09:05:44Z</time>
      </trkpt>
      <trkpt lat="45.85956" lon="4.66818">
        <ele>213</ele>
        <time>2018-08-14T09:05:45Z</time>
      </trkpt>
      <trkpt lat="45.85958" lon="4.66812">
        <ele>213</ele>
        <time>2018-08-14T09:05:46Z</time>
      </trkpt>
      <trkpt lat="45.8596" lon="4.66805">
        <ele>213</ele>
        <time>2018-08-14T09:05:47Z</time>
      </trkpt>
      <trkpt lat="45.85964" lon="4.66794">
        <ele>213</ele>
        <time>2018-08-14T09:05:49Z</time>
      </trkpt>
      <trkpt lat="45.85968" lon="4.66788">
        <ele>214</ele>
        <time>2018-08-14T09:05:50Z</time>
      </trkpt>
      <trkpt lat="45.8597" lon="4.66781">
        <ele>214</ele>
        <time>2018-08-14T09:05:51Z</time>
      </trkpt>
      <trkpt lat="45.85973" lon="4.66776">
        <ele>214</ele>
        <time>2018-08-14T09:05:52Z</time>
      </trkpt>
      <trkpt lat="45.85979" lon="4.66768">
        <ele>214</ele>
        <time>2018-08-14T09:05:54Z</time>
      </trkpt>
      <trkpt lat="45.85982" lon="4.66761">
        <ele>215</ele>
        <time>2018-08-14T09:05:55Z</time>
      </trkpt>
      <trkpt lat="45.85983" lon="4.66755">
        <ele>215</ele>
        <time>2018-08-14T09:05:56Z</time>
      </trkpt>
      <trkpt lat="45.85986" lon="4.66749">
        <ele>216</ele>
        <time>2018-08-14T09:05:57Z</time>
      </trkpt>
      <trkpt lat="45.85988" lon="4.66744">
        <ele>216</ele>
        <time>2018-08-14T09:05:58Z</time>
      </trkpt>
      <trkpt lat="45.8599" lon="4.66737">
        <ele>216</ele>
        <time>2018-08-14T09:05:59Z</time>
      </trkpt>
      <trkpt lat="45.85993" lon="4.6673">
        <ele>216</ele>
        <time>2018-08-14T09:06:00Z</time>
      </trkpt>
      <trkpt lat="45.85996" lon="4.66724">
        <ele>216</ele>
        <time>2018-08-14T09:06:01Z</time>
      </trkpt>
      <trkpt lat="45.86" lon="4.66719">
        <ele>215</ele>
        <time>2018-08-14T09:06:02Z</time>
      </trkpt>
      <trkpt lat="45.86001" lon="4.66712">
        <ele>219</ele>
        <time>2018-08-14T09:06:03Z</time>
      </trkpt>
      <trkpt lat="45.86003" lon="4.66706">
        <ele>219</ele>
        <time>2018-08-14T09:06:04Z</time>
      </trkpt>
      <trkpt lat="45.86004" lon="4.667">
        <ele>219</ele>
        <time>2018-08-14T09:06:05Z</time>
      </trkpt>
      <trkpt lat="45.8601" lon="4.66691">
        <ele>218</ele>
        <time>2018-08-14T09:06:07Z</time>
      </trkpt>
      <trkpt lat="45.86013" lon="4.66686">
        <ele>218</ele>
        <time>2018-08-14T09:06:08Z</time>
      </trkpt>
      <trkpt lat="45.86015" lon="4.66681">
        <ele>217</ele>
        <time>2018-08-14T09:06:09Z</time>
      </trkpt>
      <trkpt lat="45.86019" lon="4.66675">
        <ele>217</ele>
        <time>2018-08-14T09:06:10Z</time>
      </trkpt>
      <trkpt lat="45.86023" lon="4.66671">
        <ele>218</ele>
        <time>2018-08-14T09:06:11Z</time>
      </trkpt>
      <trkpt lat="45.86028" lon="4.66667">
        <ele>219</ele>
        <time>2018-08-14T09:06:12Z</time>
      </trkpt>
      <trkpt lat="45.86035" lon="4.66659">
        <ele>214</ele>
        <time>2018-08-14T09:06:14Z</time>
      </trkpt>
      <trkpt lat="45.86039" lon="4.66656">
        <ele>214</ele>
        <time>2018-08-14T09:06:15Z</time>
      </trkpt>
      <trkpt lat="45.86044" lon="4.66647">
        <ele>214</ele>
        <time>2018-08-14T09:06:17Z</time>
      </trkpt>
      <trkpt lat="45.86047" lon="4.66641">
        <ele>214</ele>
        <time>2018-08-14T09:06:18Z</time>
      </trkpt>
      <trkpt lat="45.8605" lon="4.66636">
        <ele>214</ele>
        <time>2018-08-14T09:06:19Z</time>
      </trkpt>
      <trkpt lat="45.86055" lon="4.66632">
        <ele>214</ele>
        <time>2018-08-14T09:06:20Z</time>
      </trkpt>
      <trkpt lat="45.8606" lon="4.66631">
        <ele>215</ele>
        <time>2018-08-14T09:06:21Z</time>
      </trkpt>
      <trkpt lat="45.86065" lon="4.66626">
        <ele>214</ele>
        <time>2018-08-14T09:06:22Z</time>
      </trkpt>
      <trkpt lat="45.86071" lon="4.66622">
        <ele>214</ele>
        <time>2018-08-14T09:06:23Z</time>
      </trkpt>
      <trkpt lat="45.86075" lon="4.66619">
        <ele>214</ele>
        <time>2018-08-14T09:06:24Z</time>
      </trkpt>
      <trkpt lat="45.86079" lon="4.66614">
        <ele>213</ele>
        <time>2018-08-14T09:06:26Z</time>
      </trkpt>
      <trkpt lat="45.86084" lon="4.66609">
        <ele>219</ele>
        <time>2018-08-14T09:06:27Z</time>
      </trkpt>
      <trkpt lat="45.86091" lon="4.66606">
        <ele>219</ele>
        <time>2018-08-14T09:06:29Z</time>
      </trkpt>
      <trkpt lat="45.86096" lon="4.66604">
        <ele>219</ele>
        <time>2018-08-14T09:06:30Z</time>
      </trkpt>
      <trkpt lat="45.86105" lon="4.66601">
        <ele>220</ele>
        <time>2018-08-14T09:06:32Z</time>
      </trkpt>
      <trkpt lat="45.86109" lon="4.666">
        <ele>220</ele>
        <time>2018-08-14T09:06:33Z</time>
      </trkpt>
      <trkpt lat="45.86115" lon="4.66597">
        <ele>221</ele>
        <time>2018-08-14T09:06:34Z</time>
      </trkpt>
      <trkpt lat="45.86121" lon="4.66592">
        <ele>221</ele>
        <time>2018-08-14T09:06:35Z</time>
      </trkpt>
      <trkpt lat="45.86127" lon="4.6659">
        <ele>222</ele>
        <time>2018-08-14T09:06:36Z</time>
      </trkpt>
      <trkpt lat="45.86131" lon="4.66586">
        <ele>222</ele>
        <time>2018-08-14T09:06:37Z</time>
      </trkpt>
      <trkpt lat="45.86137" lon="4.66583">
        <ele>215</ele>
        <time>2018-08-14T09:06:38Z</time>
      </trkpt>
      <trkpt lat="45.86142" lon="4.6658">
        <ele>216</ele>
        <time>2018-08-14T09:06:39Z</time>
      </trkpt>
      <trkpt lat="45.86147" lon="4.66571">
        <ele>216</ele>
        <time>2018-08-14T09:06:40Z</time>
      </trkpt>
      <trkpt lat="45.86151" lon="4.66566">
        <ele>216</ele>
        <time>2018-08-14T09:06:41Z</time>
      </trkpt>
      <trkpt lat="45.86157" lon="4.6656">
        <ele>216</ele>
        <time>2018-08-14T09:06:42Z</time>
      </trkpt>
      <trkpt lat="45.86162" lon="4.66555">
        <ele>215</ele>
        <time>2018-08-14T09:06:43Z</time>
      </trkpt>
      <trkpt lat="45.86166" lon="4.66548">
        <ele>215</ele>
        <time>2018-08-14T09:06:44Z</time>
      </trkpt>
      <trkpt lat="45.86169" lon="4.66542">
        <ele>220</ele>
        <time>2018-08-14T09:06:45Z</time>
      </trkpt>
      <trkpt lat="45.86172" lon="4.66534">
        <ele>219</ele>
        <time>2018-08-14T09:06:46Z</time>
      </trkpt>
      <trkpt lat="45.86176" lon="4.66528">
        <ele>218</ele>
        <time>2018-08-14T09:06:47Z</time>
      </trkpt>
      <trkpt lat="45.8618" lon="4.66522">
        <ele>218</ele>
        <time>2018-08-14T09:06:48Z</time>
      </trkpt>
      <trkpt lat="45.86185" lon="4.66516">
        <ele>217</ele>
        <time>2018-08-14T09:06:49Z</time>
      </trkpt>
      <trkpt lat="45.86188" lon="4.66509">
        <ele>217</ele>
        <time>2018-08-14T09:06:50Z</time>
      </trkpt>
      <trkpt lat="45.86191" lon="4.66502">
        <ele>217</ele>
        <time>2018-08-14T09:06:51Z</time>
      </trkpt>
      <trkpt lat="45.86196" lon="4.66497">
        <ele>213</ele>
        <time>2018-08-14T09:06:52Z</time>
      </trkpt>
      <trkpt lat="45.862" lon="4.66489">
        <ele>213</ele>
        <time>2018-08-14T09:06:53Z</time>
      </trkpt>
      <trkpt lat="45.86204" lon="4.66483">
        <ele>213</ele>
        <time>2018-08-14T09:06:54Z</time>
      </trkpt>
      <trkpt lat="45.86208" lon="4.66475">
        <ele>213</ele>
        <time>2018-08-14T09:06:55Z</time>
      </trkpt>
      <trkpt lat="45.86213" lon="4.66469">
        <ele>214</ele>
        <time>2018-08-14T09:06:56Z</time>
      </trkpt>
      <trkpt lat="45.86216" lon="4.66462">
        <ele>214</ele>
        <time>2018-08-14T09:06:57Z</time>
      </trkpt>
      <trkpt lat="45.8622" lon="4.66455">
        <ele>214</ele>
        <time>2018-08-14T09:06:58Z</time>
      </trkpt>
      <trkpt lat="45.86224" lon="4.66448">
        <ele>214</ele>
        <time>2018-08-14T09:06:59Z</time>
      </trkpt>
      <trkpt lat="45.86227" lon="4.66443">
        <ele>214</ele>
        <time>2018-08-14T09:07:00Z</time>
      </trkpt>
      <trkpt lat="45.8623" lon="4.66437">
        <ele>214</ele>
        <time>2018-08-14T09:07:01Z</time>
      </trkpt>
      <trkpt lat="45.86233" lon="4.66431">
        <ele>214</ele>
        <time>2018-08-14T09:07:02Z</time>
      </trkpt>
      <trkpt lat="45.86236" lon="4.66425">
        <ele>214</ele>
        <time>2018-08-14T09:07:03Z</time>
      </trkpt>
      <trkpt lat="45.86239" lon="4.66417">
        <ele>214</ele>
        <time>2018-08-14T09:07:04Z</time>
      </trkpt>
      <trkpt lat="45.86242" lon="4.66411">
        <ele>213</ele>
        <time>2018-08-14T09:07:05Z</time>
      </trkpt>
      <trkpt lat="45.86246" lon="4.66404">
        <ele>213</ele>
        <time>2018-08-14T09:07:06Z</time>
      </trkpt>
      <trkpt lat="45.86249" lon="4.66399">
        <ele>213</ele>
        <time>2018-08-14T09:07:07Z</time>
      </trkpt>
      <trkpt lat="45.86253" lon="4.66394">
        <ele>216</ele>
        <time>2018-08-14T09:07:08Z</time>
      </trkpt>
      <trkpt lat="45.86256" lon="4.66389">
        <ele>216</ele>
        <time>2018-08-14T09:07:09Z</time>
      </trkpt>
      <trkpt lat="45.86257" lon="4.6638">
        <ele>216</ele>
        <time>2018-08-14T09:07:10Z</time>
      </trkpt>
      <trkpt lat="45.86257" lon="4.66371">
        <ele>216</ele>
        <time>2018-08-14T09:07:11Z</time>
      </trkpt>
      <trkpt lat="45.86261" lon="4.66365">
        <ele>216</ele>
        <time>2018-08-14T09:07:12Z</time>
      </trkpt>
      <trkpt lat="45.86265" lon="4.66358">
        <ele>216</ele>
        <time>2018-08-14T09:07:13Z</time>
      </trkpt>
      <trkpt lat="45.86269" lon="4.66352">
        <ele>216</ele>
        <time>2018-08-14T09:07:14Z</time>
      </trkpt>
      <trkpt lat="45.86271" lon="4.66346">
        <ele>215</ele>
        <time>2018-08-14T09:07:15Z</time>
      </trkpt>
      <trkpt lat="45.86275" lon="4.66341">
        <ele>216</ele>
        <time>2018-08-14T09:07:16Z</time>
      </trkpt>
      <trkpt lat="45.86278" lon="4.66336">
        <ele>216</ele>
        <time>2018-08-14T09:07:17Z</time>
      </trkpt>
      <trkpt lat="45.86283" lon="4.66329">
        <ele>214</ele>
        <time>2018-08-14T09:07:18Z</time>
      </trkpt>
      <trkpt lat="45.86286" lon="4.66324">
        <ele>214</ele>
        <time>2018-08-14T09:07:19Z</time>
      </trkpt>
      <trkpt lat="45.8629" lon="4.66319">
        <ele>214</ele>
        <time>2018-08-14T09:07:20Z</time>
      </trkpt>
      <trkpt lat="45.86294" lon="4.66315">
        <ele>214</ele>
        <time>2018-08-14T09:07:21Z</time>
      </trkpt>
      <trkpt lat="45.86297" lon="4.66311">
        <ele>215</ele>
        <time>2018-08-14T09:07:22Z</time>
      </trkpt>
      <trkpt lat="45.86302" lon="4.66308">
        <ele>215</ele>
        <time>2018-08-14T09:07:23Z</time>
      </trkpt>
      <trkpt lat="45.86309" lon="4.66301">
        <ele>215</ele>
        <time>2018-08-14T09:07:25Z</time>
      </trkpt>
      <trkpt lat="45.86313" lon="4.66296">
        <ele>215</ele>
        <time>2018-08-14T09:07:26Z</time>
      </trkpt>
      <trkpt lat="45.86316" lon="4.66292">
        <ele>215</ele>
        <time>2018-08-14T09:07:27Z</time>
      </trkpt>
      <trkpt lat="45.8632" lon="4.66288">
        <ele>214</ele>
        <time>2018-08-14T09:07:28Z</time>
      </trkpt>
      <trkpt lat="45.86322" lon="4.66286">
        <ele>214</ele>
        <time>2018-08-14T09:07:29Z</time>
      </trkpt>
      <trkpt lat="45.86327" lon="4.6628">
        <ele>214</ele>
        <time>2018-08-14T09:07:30Z</time>
      </trkpt>
      <trkpt lat="45.86333" lon="4.66273">
        <ele>218</ele>
        <time>2018-08-14T09:07:32Z</time>
      </trkpt>
      <trkpt lat="45.86339" lon="4.66269">
        <ele>217</ele>
        <time>2018-08-14T09:07:33Z</time>
      </trkpt>
      <trkpt lat="45.86343" lon="4.66265">
        <ele>217</ele>
        <time>2018-08-14T09:07:34Z</time>
      </trkpt>
      <trkpt lat="45.86349" lon="4.66262">
        <ele>217</ele>
        <time>2018-08-14T09:07:35Z</time>
      </trkpt>
      <trkpt lat="45.86351" lon="4.66258">
        <ele>217</ele>
        <time>2018-08-14T09:07:36Z</time>
      </trkpt>
      <trkpt lat="45.86356" lon="4.66254">
        <ele>218</ele>
        <time>2018-08-14T09:07:37Z</time>
      </trkpt>
      <trkpt lat="45.86362" lon="4.66252">
        <ele>218</ele>
        <time>2018-08-14T09:07:38Z</time>
      </trkpt>
      <trkpt lat="45.86365" lon="4.66247">
        <ele>213</ele>
        <time>2018-08-14T09:07:39Z</time>
      </trkpt>
      <trkpt lat="45.8637" lon="4.66246">
        <ele>214</ele>
        <time>2018-08-14T09:07:40Z</time>
      </trkpt>
      <trkpt lat="45.86377" lon="4.66241">
        <ele>214</ele>
        <time>2018-08-14T09:07:41Z</time>
      </trkpt>
      <trkpt lat="45.86382" lon="4.66241">
        <ele>214</ele>
        <time>2018-08-14T09:07:42Z</time>
      </trkpt>
      <trkpt lat="45.86386" lon="4.66237">
        <ele>214</ele>
        <time>2018-08-14T09:07:43Z</time>
      </trkpt>
      <trkpt lat="45.86394" lon="4.66232">
        <ele>215</ele>
        <time>2018-08-14T09:07:45Z</time>
      </trkpt>
      <trkpt lat="45.86401" lon="4.66229">
        <ele>215</ele>
        <time>2018-08-14T09:07:46Z</time>
      </trkpt>
      <trkpt lat="45.86407" lon="4.66228">
        <ele>215</ele>
        <time>2018-08-14T09:07:47Z</time>
      </trkpt>
      <trkpt lat="45.86412" lon="4.66224">
        <ele>215</ele>
        <time>2018-08-14T09:07:48Z</time>
      </trkpt>
      <trkpt lat="45.86415" lon="4.66222">
        <ele>215</ele>
        <time>2018-08-14T09:07:49Z</time>
      </trkpt>
      <trkpt lat="45.86422" lon="4.66222">
        <ele>218</ele>
        <time>2018-08-14T09:07:50Z</time>
      </trkpt>
      <trkpt lat="45.86428" lon="4.66223">
        <ele>218</ele>
        <time>2018-08-14T09:07:52Z</time>
      </trkpt>
      <trkpt lat="45.86432" lon="4.66223">
        <ele>218</ele>
        <time>2018-08-14T09:07:53Z</time>
      </trkpt>
      <trkpt lat="45.8644" lon="4.66218">
        <ele>218</ele>
        <time>2018-08-14T09:07:55Z</time>
      </trkpt>
      <trkpt lat="45.86443" lon="4.66215">
        <ele>218</ele>
        <time>2018-08-14T09:07:56Z</time>
      </trkpt>
      <trkpt lat="45.8645" lon="4.66212">
        <ele>217</ele>
        <time>2018-08-14T09:07:58Z</time>
      </trkpt>
      <trkpt lat="45.86455" lon="4.6621">
        <ele>218</ele>
        <time>2018-08-14T09:07:59Z</time>
      </trkpt>
      <trkpt lat="45.86463" lon="4.66208">
        <ele>218</ele>
        <time>2018-08-14T09:08:01Z</time>
      </trkpt>
      <trkpt lat="45.86468" lon="4.66208">
        <ele>218</ele>
        <time>2018-08-14T09:08:02Z</time>
      </trkpt>
      <trkpt lat="45.86475" lon="4.66206">
        <ele>218</ele>
        <time>2018-08-14T09:08:04Z</time>
      </trkpt>
      <trkpt lat="45.8648" lon="4.66206">
        <ele>218</ele>
        <time>2018-08-14T09:08:05Z</time>
      </trkpt>
      <trkpt lat="45.86488" lon="4.66202">
        <ele>218</ele>
        <time>2018-08-14T09:08:07Z</time>
      </trkpt>
      <trkpt lat="45.86492" lon="4.66203">
        <ele>218</ele>
        <time>2018-08-14T09:08:08Z</time>
      </trkpt>
      <trkpt lat="45.865" lon="4.662">
        <ele>218</ele>
        <time>2018-08-14T09:08:10Z</time>
      </trkpt>
      <trkpt lat="45.86504" lon="4.66197">
        <ele>223</ele>
        <time>2018-08-14T09:08:11Z</time>
      </trkpt>
      <trkpt lat="45.8651" lon="4.66194">
        <ele>223</ele>
        <time>2018-08-14T09:08:13Z</time>
      </trkpt>
      <trkpt lat="45.86515" lon="4.66192">
        <ele>223</ele>
        <time>2018-08-14T09:08:14Z</time>
      </trkpt>
      <trkpt lat="45.86521" lon="4.66187">
        <ele>223</ele>
        <time>2018-08-14T09:08:16Z</time>
      </trkpt>
      <trkpt lat="45.86525" lon="4.66186">
        <ele>224</ele>
        <time>2018-08-14T09:08:17Z</time>
      </trkpt>
      <trkpt lat="45.86533" lon="4.66181">
        <ele>224</ele>
        <time>2018-08-14T09:08:19Z</time>
      </trkpt>
      <trkpt lat="45.86538" lon="4.66179">
        <ele>225</ele>
        <time>2018-08-14T09:08:20Z</time>
      </trkpt>
      <trkpt lat="45.86542" lon="4.66176">
        <ele>225</ele>
        <time>2018-08-14T09:08:21Z</time>
      </trkpt>
      <trkpt lat="45.86546" lon="4.66173">
        <ele>226</ele>
        <time>2018-08-14T09:08:22Z</time>
      </trkpt>
      <trkpt lat="45.86553" lon="4.66166">
        <ele>219</ele>
        <time>2018-08-14T09:08:24Z</time>
      </trkpt>
      <trkpt lat="45.86556" lon="4.66164">
        <ele>219</ele>
        <time>2018-08-14T09:08:25Z</time>
      </trkpt>
      <trkpt lat="45.86559" lon="4.6616">
        <ele>219</ele>
        <time>2018-08-14T09:08:26Z</time>
      </trkpt>
      <trkpt lat="45.86563" lon="4.66156">
        <ele>220</ele>
        <time>2018-08-14T09:08:27Z</time>
      </trkpt>
      <trkpt lat="45.86568" lon="4.66152">
        <ele>220</ele>
        <time>2018-08-14T09:08:28Z</time>
      </trkpt>
      <trkpt lat="45.86572" lon="4.66149">
        <ele>220</ele>
        <time>2018-08-14T09:08:29Z</time>
      </trkpt>
      <trkpt lat="45.86577" lon="4.66144">
        <ele>220</ele>
        <time>2018-08-14T09:08:30Z</time>
      </trkpt>
      <trkpt lat="45.86583" lon="4.6614">
        <ele>219</ele>
        <time>2018-08-14T09:08:31Z</time>
      </trkpt>
      <trkpt lat="45.86591" lon="4.66135">
        <ele>225</ele>
        <time>2018-08-14T09:08:33Z</time>
      </trkpt>
      <trkpt lat="45.86595" lon="4.66131">
        <ele>225</ele>
        <time>2018-08-14T09:08:34Z</time>
      </trkpt>
      <trkpt lat="45.86599" lon="4.66126">
        <ele>224</ele>
        <time>2018-08-14T09:08:35Z</time>
      </trkpt>
      <trkpt lat="45.86603" lon="4.66125">
        <ele>224</ele>
        <time>2018-08-14T09:08:36Z</time>
      </trkpt>
      <trkpt lat="45.86607" lon="4.66119">
        <ele>224</ele>
        <time>2018-08-14T09:08:37Z</time>
      </trkpt>
      <trkpt lat="45.86611" lon="4.66117">
        <ele>224</ele>
        <time>2018-08-14T09:08:38Z</time>
      </trkpt>
      <trkpt lat="45.86616" lon="4.66114">
        <ele>224</ele>
        <time>2018-08-14T09:08:39Z</time>
      </trkpt>
      <trkpt lat="45.86622" lon="4.6611">
        <ele>224</ele>
        <time>2018-08-14T09:08:40Z</time>
      </trkpt>
      <trkpt lat="45.86626" lon="4.66107">
        <ele>224</ele>
        <time>2018-08-14T09:08:41Z</time>
      </trkpt>
      <trkpt lat="45.8663" lon="4.66102">
        <ele>223</ele>
        <time>2018-08-14T09:08:42Z</time>
      </trkpt>
      <trkpt lat="45.86635" lon="4.66101">
        <ele>224</ele>
        <time>2018-08-14T09:08:43Z</time>
      </trkpt>
      <trkpt lat="45.8664" lon="4.66099">
        <ele>224</ele>
        <time>2018-08-14T09:08:44Z</time>
      </trkpt>
      <trkpt lat="45.86644" lon="4.66098">
        <ele>223</ele>
        <time>2018-08-14T09:08:45Z</time>
      </trkpt>
      <trkpt lat="45.86649" lon="4.66097">
        <ele>223</ele>
        <time>2018-08-14T09:08:46Z</time>
      </trkpt>
      <trkpt lat="45.86653" lon="4.66095">
        <ele>223</ele>
        <time>2018-08-14T09:08:47Z</time>
      </trkpt>
      <trkpt lat="45.86659" lon="4.66092">
        <ele>222</ele>
        <time>2018-08-14T09:08:48Z</time>
      </trkpt>
      <trkpt lat="45.86664" lon="4.6609">
        <ele>221</ele>
        <time>2018-08-14T09:08:49Z</time>
      </trkpt>
      <trkpt lat="45.86668" lon="4.66089">
        <ele>224</ele>
        <time>2018-08-14T09:08:50Z</time>
      </trkpt>
      <trkpt lat="45.86676" lon="4.66084">
        <ele>226</ele>
        <time>2018-08-14T09:08:52Z</time>
      </trkpt>
      <trkpt lat="45.8668" lon="4.66081">
        <ele>220</ele>
        <time>2018-08-14T09:08:53Z</time>
      </trkpt>
      <trkpt lat="45.86685" lon="4.6608">
        <ele>221</ele>
        <time>2018-08-14T09:08:54Z</time>
      </trkpt>
      <trkpt lat="45.86689" lon="4.66079">
        <ele>221</ele>
        <time>2018-08-14T09:08:55Z</time>
      </trkpt>
      <trkpt lat="45.86694" lon="4.66077">
        <ele>222</ele>
        <time>2018-08-14T09:08:56Z</time>
      </trkpt>
      <trkpt lat="45.86698" lon="4.66076">
        <ele>223</ele>
        <time>2018-08-14T09:08:57Z</time>
      </trkpt>
      <trkpt lat="45.86702" lon="4.66072">
        <ele>223</ele>
        <time>2018-08-14T09:08:58Z</time>
      </trkpt>
      <trkpt lat="45.86707" lon="4.66066">
        <ele>223</ele>
        <time>2018-08-14T09:08:59Z</time>
      </trkpt>
      <trkpt lat="45.86711" lon="4.66063">
        <ele>224</ele>
        <time>2018-08-14T09:09:00Z</time>
      </trkpt>
      <trkpt lat="45.86717" lon="4.6606">
        <ele>224</ele>
        <time>2018-08-14T09:09:01Z</time>
      </trkpt>
      <trkpt lat="45.86721" lon="4.66056">
        <ele>224</ele>
        <time>2018-08-14T09:09:02Z</time>
      </trkpt>
      <trkpt lat="45.86726" lon="4.66053">
        <ele>224</ele>
        <time>2018-08-14T09:09:03Z</time>
      </trkpt>
      <trkpt lat="45.86731" lon="4.66049">
        <ele>224</ele>
        <time>2018-08-14T09:09:04Z</time>
      </trkpt>
      <trkpt lat="45.86736" lon="4.66045">
        <ele>224</ele>
        <time>2018-08-14T09:09:05Z</time>
      </trkpt>
      <trkpt lat="45.86743" lon="4.66041">
        <ele>223</ele>
        <time>2018-08-14T09:09:07Z</time>
      </trkpt>
      <trkpt lat="45.86749" lon="4.66039">
        <ele>223</ele>
        <time>2018-08-14T09:09:08Z</time>
      </trkpt>
      <trkpt lat="45.86756" lon="4.66032">
        <ele>232</ele>
        <time>2018-08-14T09:09:10Z</time>
      </trkpt>
      <trkpt lat="45.86759" lon="4.66025">
        <ele>230</ele>
        <time>2018-08-14T09:09:11Z</time>
      </trkpt>
      <trkpt lat="45.86762" lon="4.66022">
        <ele>230</ele>
        <time>2018-08-14T09:09:12Z</time>
      </trkpt>
      <trkpt lat="45.86766" lon="4.66016">
        <ele>229</ele>
        <time>2018-08-14T09:09:13Z</time>
      </trkpt>
      <trkpt lat="45.8677" lon="4.66011">
        <ele>229</ele>
        <time>2018-08-14T09:09:14Z</time>
      </trkpt>
      <trkpt lat="45.86774" lon="4.66007">
        <ele>230</ele>
        <time>2018-08-14T09:09:15Z</time>
      </trkpt>
      <trkpt lat="45.86778" lon="4.66003">
        <ele>230</ele>
        <time>2018-08-14T09:09:16Z</time>
      </trkpt>
      <trkpt lat="45.86782" lon="4.65999">
        <ele>221</ele>
        <time>2018-08-14T09:09:17Z</time>
      </trkpt>
      <trkpt lat="45.86786" lon="4.65995">
        <ele>222</ele>
        <time>2018-08-14T09:09:18Z</time>
      </trkpt>
      <trkpt lat="45.86789" lon="4.65991">
        <ele>222</ele>
        <time>2018-08-14T09:09:19Z</time>
      </trkpt>
      <trkpt lat="45.86796" lon="4.65983">
        <ele>223</ele>
        <time>2018-08-14T09:09:21Z</time>
      </trkpt>
      <trkpt lat="45.86799" lon="4.65979">
        <ele>223</ele>
        <time>2018-08-14T09:09:22Z</time>
      </trkpt>
      <trkpt lat="45.86803" lon="4.65975">
        <ele>224</ele>
        <time>2018-08-14T09:09:23Z</time>
      </trkpt>
      <trkpt lat="45.86807" lon="4.65969">
        <ele>223</ele>
        <time>2018-08-14T09:09:24Z</time>
      </trkpt>
      <trkpt lat="45.86812" lon="4.65959">
        <ele>223</ele>
        <time>2018-08-14T09:09:26Z</time>
      </trkpt>
      <trkpt lat="45.86814" lon="4.65955">
        <ele>223</ele>
        <time>2018-08-14T09:09:27Z</time>
      </trkpt>
      <trkpt lat="45.86817" lon="4.65951">
        <ele>223</ele>
        <time>2018-08-14T09:09:28Z</time>
      </trkpt>
      <trkpt lat="45.8682" lon="4.65944">
        <ele>222</ele>
        <time>2018-08-14T09:09:29Z</time>
      </trkpt>
      <trkpt lat="45.86822" lon="4.65937">
        <ele>222</ele>
        <time>2018-08-14T09:09:30Z</time>
      </trkpt>
      <trkpt lat="45.86826" lon="4.65933">
        <ele>222</ele>
        <time>2018-08-14T09:09:31Z</time>
      </trkpt>
      <trkpt lat="45.8683" lon="4.65922">
        <ele>221</ele>
        <time>2018-08-14T09:09:33Z</time>
      </trkpt>
      <trkpt lat="45.86833" lon="4.65916">
        <ele>221</ele>
        <time>2018-08-14T09:09:34Z</time>
      </trkpt>
      <trkpt lat="45.86837" lon="4.65914">
        <ele>222</ele>
        <time>2018-08-14T09:09:35Z</time>
      </trkpt>
      <trkpt lat="45.8684" lon="4.65908">
        <ele>224</ele>
        <time>2018-08-14T09:09:36Z</time>
      </trkpt>
      <trkpt lat="45.86842" lon="4.65901">
        <ele>225</ele>
        <time>2018-08-14T09:09:37Z</time>
      </trkpt>
      <trkpt lat="45.86846" lon="4.65897">
        <ele>226</ele>
        <time>2018-08-14T09:09:38Z</time>
      </trkpt>
      <trkpt lat="45.8685" lon="4.6589">
        <ele>226</ele>
        <time>2018-08-14T09:09:39Z</time>
      </trkpt>
      <trkpt lat="45.86851" lon="4.65882">
        <ele>226</ele>
        <time>2018-08-14T09:09:40Z</time>
      </trkpt>
      <trkpt lat="45.86854" lon="4.65876">
        <ele>226</ele>
        <time>2018-08-14T09:09:41Z</time>
      </trkpt>
      <trkpt lat="45.86858" lon="4.65871">
        <ele>227</ele>
        <time>2018-08-14T09:09:42Z</time>
      </trkpt>
      <trkpt lat="45.8686" lon="4.65865">
        <ele>226</ele>
        <time>2018-08-14T09:09:43Z</time>
      </trkpt>
      <trkpt lat="45.86863" lon="4.6586">
        <ele>226</ele>
        <time>2018-08-14T09:09:44Z</time>
      </trkpt>
      <trkpt lat="45.86865" lon="4.65854">
        <ele>226</ele>
        <time>2018-08-14T09:09:45Z</time>
      </trkpt>
      <trkpt lat="45.86869" lon="4.65848">
        <ele>226</ele>
        <time>2018-08-14T09:09:46Z</time>
      </trkpt>
      <trkpt lat="45.86871" lon="4.65838">
        <ele>226</ele>
        <time>2018-08-14T09:09:48Z</time>
      </trkpt>
      <trkpt lat="45.86873" lon="4.65832">
        <ele>222</ele>
        <time>2018-08-14T09:09:49Z</time>
      </trkpt>
      <trkpt lat="45.86877" lon="4.65821">
        <ele>223</ele>
        <time>2018-08-14T09:09:51Z</time>
      </trkpt>
      <trkpt lat="45.86878" lon="4.65814">
        <ele>223</ele>
        <time>2018-08-14T09:09:52Z</time>
      </trkpt>
      <trkpt lat="45.8688" lon="4.65806">
        <ele>223</ele>
        <time>2018-08-14T09:09:53Z</time>
      </trkpt>
      <trkpt lat="45.86882" lon="4.65798">
        <ele>223</ele>
        <time>2018-08-14T09:09:54Z</time>
      </trkpt>
      <trkpt lat="45.86884" lon="4.6579">
        <ele>223</ele>
        <time>2018-08-14T09:09:55Z</time>
      </trkpt>
      <trkpt lat="45.86884" lon="4.65784">
        <ele>223</ele>
        <time>2018-08-14T09:09:56Z</time>
      </trkpt>
      <trkpt lat="45.86886" lon="4.65774">
        <ele>223</ele>
        <time>2018-08-14T09:09:57Z</time>
      </trkpt>
      <trkpt lat="45.8689" lon="4.65768">
        <ele>224</ele>
        <time>2018-08-14T09:09:58Z</time>
      </trkpt>
      <trkpt lat="45.86892" lon="4.65762">
        <ele>224</ele>
        <time>2018-08-14T09:09:59Z</time>
      </trkpt>
      <trkpt lat="45.86894" lon="4.65755">
        <ele>225</ele>
        <time>2018-08-14T09:10:00Z</time>
      </trkpt>
      <trkpt lat="45.86898" lon="4.6575">
        <ele>225</ele>
        <time>2018-08-14T09:10:01Z</time>
      </trkpt>
      <trkpt lat="45.86899" lon="4.65742">
        <ele>225</ele>
        <time>2018-08-14T09:10:02Z</time>
      </trkpt>
      <trkpt lat="45.86899" lon="4.65733">
        <ele>224</ele>
        <time>2018-08-14T09:10:03Z</time>
      </trkpt>
      <trkpt lat="45.86902" lon="4.65725">
        <ele>224</ele>
        <time>2018-08-14T09:10:04Z</time>
      </trkpt>
      <trkpt lat="45.86901" lon="4.65716">
        <ele>224</ele>
        <time>2018-08-14T09:10:05Z</time>
      </trkpt>
      <trkpt lat="45.86902" lon="4.65707">
        <ele>224</ele>
        <time>2018-08-14T09:10:06Z</time>
      </trkpt>
      <trkpt lat="45.86902" lon="4.65699">
        <ele>224</ele>
        <time>2018-08-14T09:10:07Z</time>
      </trkpt>
      <trkpt lat="45.86903" lon="4.65691">
        <ele>225</ele>
        <time>2018-08-14T09:10:08Z</time>
      </trkpt>
      <trkpt lat="45.86901" lon="4.6568">
        <ele>225</ele>
        <time>2018-08-14T09:10:09Z</time>
      </trkpt>
      <trkpt lat="45.86902" lon="4.65672">
        <ele>226</ele>
        <time>2018-08-14T09:10:10Z</time>
      </trkpt>
      <trkpt lat="45.86902" lon="4.65662">
        <ele>226</ele>
        <time>2018-08-14T09:10:11Z</time>
      </trkpt>
      <trkpt lat="45.86902" lon="4.65653">
        <ele>225</ele>
        <time>2018-08-14T09:10:12Z</time>
      </trkpt>
      <trkpt lat="45.86905" lon="4.65649">
        <ele>225</ele>
        <time>2018-08-14T09:10:13Z</time>
      </trkpt>
      <trkpt lat="45.86904" lon="4.6564">
        <ele>224</ele>
        <time>2018-08-14T09:10:14Z</time>
      </trkpt>
      <trkpt lat="45.86906" lon="4.65632">
        <ele>224</ele>
        <time>2018-08-14T09:10:15Z</time>
      </trkpt>
      <trkpt lat="45.86908" lon="4.65625">
        <ele>223</ele>
        <time>2018-08-14T09:10:16Z</time>
      </trkpt>
      <trkpt lat="45.86909" lon="4.65616">
        <ele>223</ele>
        <time>2018-08-14T09:10:17Z</time>
      </trkpt>
      <trkpt lat="45.86912" lon="4.65608">
        <ele>223</ele>
        <time>2018-08-14T09:10:18Z</time>
      </trkpt>
      <trkpt lat="45.86914" lon="4.656">
        <ele>224</ele>
        <time>2018-08-14T09:10:19Z</time>
      </trkpt>
      <trkpt lat="45.86916" lon="4.65591">
        <ele>225</ele>
        <time>2018-08-14T09:10:20Z</time>
      </trkpt>
      <trkpt lat="45.86916" lon="4.6558">
        <ele>225</ele>
        <time>2018-08-14T09:10:21Z</time>
      </trkpt>
      <trkpt lat="45.86916" lon="4.65568">
        <ele>222</ele>
        <time>2018-08-14T09:10:22Z</time>
      </trkpt>
      <trkpt lat="45.86919" lon="4.65561">
        <ele>230</ele>
        <time>2018-08-14T09:10:23Z</time>
      </trkpt>
      <trkpt lat="45.86922" lon="4.65555">
        <ele>230</ele>
        <time>2018-08-14T09:10:24Z</time>
      </trkpt>
      <trkpt lat="45.86923" lon="4.65544">
        <ele>230</ele>
        <time>2018-08-14T09:10:25Z</time>
      </trkpt>
      <trkpt lat="45.86928" lon="4.65536">
        <ele>230</ele>
        <time>2018-08-14T09:10:26Z</time>
      </trkpt>
      <trkpt lat="45.86929" lon="4.65526">
        <ele>228</ele>
        <time>2018-08-14T09:10:27Z</time>
      </trkpt>
      <trkpt lat="45.86932" lon="4.6552">
        <ele>228</ele>
        <time>2018-08-14T09:10:28Z</time>
      </trkpt>
      <trkpt lat="45.86934" lon="4.65509">
        <ele>227</ele>
        <time>2018-08-14T09:10:29Z</time>
      </trkpt>
      <trkpt lat="45.86937" lon="4.65502">
        <ele>227</ele>
        <time>2018-08-14T09:10:30Z</time>
      </trkpt>
      <trkpt lat="45.86941" lon="4.65494">
        <ele>221</ele>
        <time>2018-08-14T09:10:31Z</time>
      </trkpt>
      <trkpt lat="45.86943" lon="4.65487">
        <ele>222</ele>
        <time>2018-08-14T09:10:32Z</time>
      </trkpt>
      <trkpt lat="45.86946" lon="4.65477">
        <ele>222</ele>
        <time>2018-08-14T09:10:33Z</time>
      </trkpt>
      <trkpt lat="45.86952" lon="4.65469">
        <ele>222</ele>
        <time>2018-08-14T09:10:34Z</time>
      </trkpt>
      <trkpt lat="45.86957" lon="4.65463">
        <ele>222</ele>
        <time>2018-08-14T09:10:35Z</time>
      </trkpt>
      <trkpt lat="45.86963" lon="4.65457">
        <ele>222</ele>
        <time>2018-08-14T09:10:36Z</time>
      </trkpt>
      <trkpt lat="45.86969" lon="4.65453">
        <ele>222</ele>
        <time>2018-08-14T09:10:37Z</time>
      </trkpt>
      <trkpt lat="45.86974" lon="4.65447">
        <ele>222</ele>
        <time>2018-08-14T09:10:38Z</time>
      </trkpt>
      <trkpt lat="45.86978" lon="4.65438">
        <ele>222</ele>
        <time>2018-08-14T09:10:39Z</time>
      </trkpt>
      <trkpt lat="45.86984" lon="4.65432">
        <ele>222</ele>
        <time>2018-08-14T09:10:40Z</time>
      </trkpt>
      <trkpt lat="45.8699" lon="4.65426">
        <ele>222</ele>
        <time>2018-08-14T09:10:41Z</time>
      </trkpt>
      <trkpt lat="45.86995" lon="4.65423">
        <ele>221</ele>
        <time>2018-08-14T09:10:42Z</time>
      </trkpt>
      <trkpt lat="45.86999" lon="4.65416">
        <ele>221</ele>
        <time>2018-08-14T09:10:43Z</time>
      </trkpt>
      <trkpt lat="45.87004" lon="4.65411">
        <ele>222</ele>
        <time>2018-08-14T09:10:44Z</time>
      </trkpt>
      <trkpt lat="45.87009" lon="4.65404">
        <ele>223</ele>
        <time>2018-08-14T09:10:45Z</time>
      </trkpt>
      <trkpt lat="45.87015" lon="4.65398">
        <ele>223</ele>
        <time>2018-08-14T09:10:46Z</time>
      </trkpt>
      <trkpt lat="45.87018" lon="4.65391">
        <ele>223</ele>
        <time>2018-08-14T09:10:47Z</time>
      </trkpt>
      <trkpt lat="45.87021" lon="4.65384">
        <ele>223</ele>
        <time>2018-08-14T09:10:48Z</time>
      </trkpt>
      <trkpt lat="45.87025" lon="4.6538">
        <ele>223</ele>
        <time>2018-08-14T09:10:49Z</time>
      </trkpt>
      <trkpt lat="45.87028" lon="4.65374">
        <ele>223</ele>
        <time>2018-08-14T09:10:50Z</time>
      </trkpt>
      <trkpt lat="45.87032" lon="4.6537">
        <ele>223</ele>
        <time>2018-08-14T09:10:51Z</time>
      </trkpt>
      <trkpt lat="45.87035" lon="4.65362">
        <ele>223</ele>
        <time>2018-08-14T09:10:52Z</time>
      </trkpt>
      <trkpt lat="45.87039" lon="4.65358">
        <ele>223</ele>
        <time>2018-08-14T09:10:53Z</time>
      </trkpt>
      <trkpt lat="45.87043" lon="4.65353">
        <ele>223</ele>
        <time>2018-08-14T09:10:54Z</time>
      </trkpt>
      <trkpt lat="45.87046" lon="4.65348">
        <ele>223</ele>
        <time>2018-08-14T09:10:55Z</time>
      </trkpt>
      <trkpt lat="45.87051" lon="4.65342">
        <ele>223</ele>
        <time>2018-08-14T09:10:56Z</time>
      </trkpt>
      <trkpt lat="45.87055" lon="4.65337">
        <ele>223</ele>
        <time>2018-08-14T09:10:57Z</time>
      </trkpt>
      <trkpt lat="45.8706" lon="4.6533">
        <ele>219</ele>
        <time>2018-08-14T09:10:58Z</time>
      </trkpt>
      <trkpt lat="45.87064" lon="4.65324">
        <ele>219</ele>
        <time>2018-08-14T09:10:59Z</time>
      </trkpt>
      <trkpt lat="45.87066" lon="4.65317">
        <ele>218</ele>
        <time>2018-08-14T09:11:00Z</time>
      </trkpt>
      <trkpt lat="45.87069" lon="4.65309">
        <ele>218</ele>
        <time>2018-08-14T09:11:01Z</time>
      </trkpt>
      <trkpt lat="45.87073" lon="4.65301">
        <ele>217</ele>
        <time>2018-08-14T09:11:02Z</time>
      </trkpt>
      <trkpt lat="45.87076" lon="4.65294">
        <ele>217</ele>
        <time>2018-08-14T09:11:03Z</time>
      </trkpt>
      <trkpt lat="45.87079" lon="4.65288">
        <ele>216</ele>
        <time>2018-08-14T09:11:04Z</time>
      </trkpt>
      <trkpt lat="45.87083" lon="4.65282">
        <ele>216</ele>
        <time>2018-08-14T09:11:05Z</time>
      </trkpt>
      <trkpt lat="45.87086" lon="4.65275">
        <ele>225</ele>
        <time>2018-08-14T09:11:06Z</time>
      </trkpt>
      <trkpt lat="45.87089" lon="4.6527">
        <ele>223</ele>
        <time>2018-08-14T09:11:07Z</time>
      </trkpt>
      <trkpt lat="45.87092" lon="4.65264">
        <ele>222</ele>
        <time>2018-08-14T09:11:08Z</time>
      </trkpt>
      <trkpt lat="45.87095" lon="4.65258">
        <ele>221</ele>
        <time>2018-08-14T09:11:09Z</time>
      </trkpt>
      <trkpt lat="45.87095" lon="4.6525">
        <ele>220</ele>
        <time>2018-08-14T09:11:10Z</time>
      </trkpt>
      <trkpt lat="45.87098" lon="4.65246">
        <ele>217</ele>
        <time>2018-08-14T09:11:11Z</time>
      </trkpt>
      <trkpt lat="45.87103" lon="4.65239">
        <ele>218</ele>
        <time>2018-08-14T09:11:12Z</time>
      </trkpt>
      <trkpt lat="45.87106" lon="4.65231">
        <ele>219</ele>
        <time>2018-08-14T09:11:13Z</time>
      </trkpt>
      <trkpt lat="45.87107" lon="4.65224">
        <ele>219</ele>
        <time>2018-08-14T09:11:14Z</time>
      </trkpt>
      <trkpt lat="45.87114" lon="4.6522">
        <ele>220</ele>
        <time>2018-08-14T09:11:15Z</time>
      </trkpt>
      <trkpt lat="45.87118" lon="4.65215">
        <ele>220</ele>
        <time>2018-08-14T09:11:16Z</time>
      </trkpt>
      <trkpt lat="45.87122" lon="4.65207">
        <ele>220</ele>
        <time>2018-08-14T09:11:17Z</time>
      </trkpt>
      <trkpt lat="45.87126" lon="4.652">
        <ele>220</ele>
        <time>2018-08-14T09:11:18Z</time>
      </trkpt>
      <trkpt lat="45.87129" lon="4.65194">
        <ele>220</ele>
        <time>2018-08-14T09:11:19Z</time>
      </trkpt>
      <trkpt lat="45.87134" lon="4.65189">
        <ele>220</ele>
        <time>2018-08-14T09:11:20Z</time>
      </trkpt>
      <trkpt lat="45.87139" lon="4.65185">
        <ele>220</ele>
        <time>2018-08-14T09:11:21Z</time>
      </trkpt>
      <trkpt lat="45.87143" lon="4.65181">
        <ele>220</ele>
        <time>2018-08-14T09:11:22Z</time>
      </trkpt>
      <trkpt lat="45.87148" lon="4.65179">
        <ele>220</ele>
        <time>2018-08-14T09:11:23Z</time>
      </trkpt>
      <trkpt lat="45.87151" lon="4.65176">
        <ele>220</ele>
        <time>2018-08-14T09:11:24Z</time>
      </trkpt>
      <trkpt lat="45.87157" lon="4.65174">
        <ele>220</ele>
        <time>2018-08-14T09:11:25Z</time>
      </trkpt>
      <trkpt lat="45.87162" lon="4.6517">
        <ele>220</ele>
        <time>2018-08-14T09:11:26Z</time>
      </trkpt>
      <trkpt lat="45.87169" lon="4.65163">
        <ele>220</ele>
        <time>2018-08-14T09:11:28Z</time>
      </trkpt>
      <trkpt lat="45.87172" lon="4.65161">
        <ele>221</ele>
        <time>2018-08-14T09:11:29Z</time>
      </trkpt>
      <trkpt lat="45.87177" lon="4.65158">
        <ele>221</ele>
        <time>2018-08-14T09:11:30Z</time>
      </trkpt>
      <trkpt lat="45.8718" lon="4.65153">
        <ele>221</ele>
        <time>2018-08-14T09:11:31Z</time>
      </trkpt>
      <trkpt lat="45.87185" lon="4.6515">
        <ele>222</ele>
        <time>2018-08-14T09:11:32Z</time>
      </trkpt>
      <trkpt lat="45.8719" lon="4.65147">
        <ele>222</ele>
        <time>2018-08-14T09:11:33Z</time>
      </trkpt>
      <trkpt lat="45.87194" lon="4.65143">
        <ele>222</ele>
        <time>2018-08-14T09:11:34Z</time>
      </trkpt>
      <trkpt lat="45.87198" lon="4.65139">
        <ele>222</ele>
        <time>2018-08-14T09:11:35Z</time>
      </trkpt>
      <trkpt lat="45.87203" lon="4.65135">
        <ele>222</ele>
        <time>2018-08-14T09:11:36Z</time>
      </trkpt>
      <trkpt lat="45.87206" lon="4.6513">
        <ele>222</ele>
        <time>2018-08-14T09:11:37Z</time>
      </trkpt>
      <trkpt lat="45.8721" lon="4.65128">
        <ele>222</ele>
        <time>2018-08-14T09:11:38Z</time>
      </trkpt>
      <trkpt lat="45.87214" lon="4.65123">
        <ele>222</ele>
        <time>2018-08-14T09:11:39Z</time>
      </trkpt>
      <trkpt lat="45.87218" lon="4.65118">
        <ele>222</ele>
        <time>2018-08-14T09:11:40Z</time>
      </trkpt>
      <trkpt lat="45.87222" lon="4.65114">
        <ele>222</ele>
        <time>2018-08-14T09:11:41Z</time>
      </trkpt>
      <trkpt lat="45.87226" lon="4.65109">
        <ele>222</ele>
        <time>2018-08-14T09:11:42Z</time>
      </trkpt>
      <trkpt lat="45.87232" lon="4.65105">
        <ele>221</ele>
        <time>2018-08-14T09:11:43Z</time>
      </trkpt>
      <trkpt lat="45.87237" lon="4.65102">
        <ele>221</ele>
        <time>2018-08-14T09:11:44Z</time>
      </trkpt>
      <trkpt lat="45.87242" lon="4.65097">
        <ele>220</ele>
        <time>2018-08-14T09:11:45Z</time>
      </trkpt>
      <trkpt lat="45.87246" lon="4.65094">
        <ele>220</ele>
        <time>2018-08-14T09:11:46Z</time>
      </trkpt>
      <trkpt lat="45.8725" lon="4.65091">
        <ele>222</ele>
        <time>2018-08-14T09:11:47Z</time>
      </trkpt>
      <trkpt lat="45.87258" lon="4.65083">
        <ele>219</ele>
        <time>2018-08-14T09:11:49Z</time>
      </trkpt>
      <trkpt lat="45.87262" lon="4.6508">
        <ele>219</ele>
        <time>2018-08-14T09:11:50Z</time>
      </trkpt>
      <trkpt lat="45.87268" lon="4.65072">
        <ele>219</ele>
        <time>2018-08-14T09:11:52Z</time>
      </trkpt>
      <trkpt lat="45.87272" lon="4.65071">
        <ele>220</ele>
        <time>2018-08-14T09:11:53Z</time>
      </trkpt>
      <trkpt lat="45.87278" lon="4.65063">
        <ele>220</ele>
        <time>2018-08-14T09:11:55Z</time>
      </trkpt>
      <trkpt lat="45.87281" lon="4.65059">
        <ele>220</ele>
        <time>2018-08-14T09:11:56Z</time>
      </trkpt>
      <trkpt lat="45.87285" lon="4.65054">
        <ele>220</ele>
        <time>2018-08-14T09:11:57Z</time>
      </trkpt>
      <trkpt lat="45.87289" lon="4.65048">
        <ele>220</ele>
        <time>2018-08-14T09:11:58Z</time>
      </trkpt>
      <trkpt lat="45.87293" lon="4.65043">
        <ele>220</ele>
        <time>2018-08-14T09:11:59Z</time>
      </trkpt>
      <trkpt lat="45.87297" lon="4.65039">
        <ele>220</ele>
        <time>2018-08-14T09:12:00Z</time>
      </trkpt>
      <trkpt lat="45.87301" lon="4.65034">
        <ele>220</ele>
        <time>2018-08-14T09:12:01Z</time>
      </trkpt>
      <trkpt lat="45.87304" lon="4.65028">
        <ele>220</ele>
        <time>2018-08-14T09:12:02Z</time>
      </trkpt>
      <trkpt lat="45.87306" lon="4.65022">
        <ele>219</ele>
        <time>2018-08-14T09:12:03Z</time>
      </trkpt>
      <trkpt lat="45.8731" lon="4.65017">
        <ele>219</ele>
        <time>2018-08-14T09:12:04Z</time>
      </trkpt>
      <trkpt lat="45.87313" lon="4.65014">
        <ele>219</ele>
        <time>2018-08-14T09:12:05Z</time>
      </trkpt>
      <trkpt lat="45.87316" lon="4.65007">
        <ele>219</ele>
        <time>2018-08-14T09:12:06Z</time>
      </trkpt>
      <trkpt lat="45.87318" lon="4.65002">
        <ele>219</ele>
        <time>2018-08-14T09:12:07Z</time>
      </trkpt>
      <trkpt lat="45.87321" lon="4.64996">
        <ele>216</ele>
        <time>2018-08-14T09:12:08Z</time>
      </trkpt>
      <trkpt lat="45.87324" lon="4.64991">
        <ele>216</ele>
        <time>2018-08-14T09:12:09Z</time>
      </trkpt>
      <trkpt lat="45.87327" lon="4.64984">
        <ele>215</ele>
        <time>2018-08-14T09:12:10Z</time>
      </trkpt>
      <trkpt lat="45.87329" lon="4.64979">
        <ele>215</ele>
        <time>2018-08-14T09:12:11Z</time>
      </trkpt>
      <trkpt lat="45.87332" lon="4.64973">
        <ele>215</ele>
        <time>2018-08-14T09:12:12Z</time>
      </trkpt>
      <trkpt lat="45.87335" lon="4.64969">
        <ele>219</ele>
        <time>2018-08-14T09:12:13Z</time>
      </trkpt>
      <trkpt lat="45.8734" lon="4.64962">
        <ele>219</ele>
        <time>2018-08-14T09:12:14Z</time>
      </trkpt>
      <trkpt lat="45.87342" lon="4.64956">
        <ele>218</ele>
        <time>2018-08-14T09:12:15Z</time>
      </trkpt>
      <trkpt lat="45.87346" lon="4.64951">
        <ele>218</ele>
        <time>2018-08-14T09:12:16Z</time>
      </trkpt>
      <trkpt lat="45.8735" lon="4.64946">
        <ele>218</ele>
        <time>2018-08-14T09:12:17Z</time>
      </trkpt>
      <trkpt lat="45.87353" lon="4.6494">
        <ele>218</ele>
        <time>2018-08-14T09:12:18Z</time>
      </trkpt>
      <trkpt lat="45.87358" lon="4.64933">
        <ele>218</ele>
        <time>2018-08-14T09:12:19Z</time>
      </trkpt>
      <trkpt lat="45.87362" lon="4.64928">
        <ele>218</ele>
        <time>2018-08-14T09:12:20Z</time>
      </trkpt>
      <trkpt lat="45.87365" lon="4.64923">
        <ele>218</ele>
        <time>2018-08-14T09:12:21Z</time>
      </trkpt>
      <trkpt lat="45.87369" lon="4.64918">
        <ele>218</ele>
        <time>2018-08-14T09:12:22Z</time>
      </trkpt>
      <trkpt lat="45.87374" lon="4.64913">
        <ele>215</ele>
        <time>2018-08-14T09:12:23Z</time>
      </trkpt>
      <trkpt lat="45.87378" lon="4.6491">
        <ele>215</ele>
        <time>2018-08-14T09:12:24Z</time>
      </trkpt>
      <trkpt lat="45.87381" lon="4.64905">
        <ele>215</ele>
        <time>2018-08-14T09:12:25Z</time>
      </trkpt>
      <trkpt lat="45.87388" lon="4.64899">
        <ele>216</ele>
        <time>2018-08-14T09:12:26Z</time>
      </trkpt>
      <trkpt lat="45.87394" lon="4.64891">
        <ele>216</ele>
        <time>2018-08-14T09:12:28Z</time>
      </trkpt>
      <trkpt lat="45.87398" lon="4.64886">
        <ele>216</ele>
        <time>2018-08-14T09:12:29Z</time>
      </trkpt>
      <trkpt lat="45.87401" lon="4.64881">
        <ele>216</ele>
        <time>2018-08-14T09:12:30Z</time>
      </trkpt>
      <trkpt lat="45.87403" lon="4.64876">
        <ele>216</ele>
        <time>2018-08-14T09:12:31Z</time>
      </trkpt>
      <trkpt lat="45.87408" lon="4.6487">
        <ele>215</ele>
        <time>2018-08-14T09:12:32Z</time>
      </trkpt>
      <trkpt lat="45.87412" lon="4.64865">
        <ele>215</ele>
        <time>2018-08-14T09:12:33Z</time>
      </trkpt>
      <trkpt lat="45.87416" lon="4.64861">
        <ele>215</ele>
        <time>2018-08-14T09:12:34Z</time>
      </trkpt>
      <trkpt lat="45.87421" lon="4.64854">
        <ele>219</ele>
        <time>2018-08-14T09:12:35Z</time>
      </trkpt>
      <trkpt lat="45.87424" lon="4.6485">
        <ele>218</ele>
        <time>2018-08-14T09:12:36Z</time>
      </trkpt>
      <trkpt lat="45.87429" lon="4.64845">
        <ele>218</ele>
        <time>2018-08-14T09:12:37Z</time>
      </trkpt>
      <trkpt lat="45.87432" lon="4.6484">
        <ele>218</ele>
        <time>2018-08-14T09:12:38Z</time>
      </trkpt>
      <trkpt lat="45.87436" lon="4.6483">
        <ele>215</ele>
        <time>2018-08-14T09:12:39Z</time>
      </trkpt>
      <trkpt lat="45.87441" lon="4.64824">
        <ele>215</ele>
        <time>2018-08-14T09:12:41Z</time>
      </trkpt>
      <trkpt lat="45.87444" lon="4.64819">
        <ele>215</ele>
        <time>2018-08-14T09:12:42Z</time>
      </trkpt>
      <trkpt lat="45.87451" lon="4.64812">
        <ele>215</ele>
        <time>2018-08-14T09:12:44Z</time>
      </trkpt>
      <trkpt lat="45.87454" lon="4.64809">
        <ele>215</ele>
        <time>2018-08-14T09:12:45Z</time>
      </trkpt>
      <trkpt lat="45.87458" lon="4.64803">
        <ele>215</ele>
        <time>2018-08-14T09:12:46Z</time>
      </trkpt>
      <trkpt lat="45.8746" lon="4.64798">
        <ele>214</ele>
        <time>2018-08-14T09:12:47Z</time>
      </trkpt>
      <trkpt lat="45.87464" lon="4.64793">
        <ele>214</ele>
        <time>2018-08-14T09:12:48Z</time>
      </trkpt>
      <trkpt lat="45.87467" lon="4.64789">
        <ele>214</ele>
        <time>2018-08-14T09:12:49Z</time>
      </trkpt>
      <trkpt lat="45.87471" lon="4.64783">
        <ele>214</ele>
        <time>2018-08-14T09:12:50Z</time>
      </trkpt>
      <trkpt lat="45.87474" lon="4.64778">
        <ele>214</ele>
        <time>2018-08-14T09:12:51Z</time>
      </trkpt>
      <trkpt lat="45.87479" lon="4.64769">
        <ele>214</ele>
        <time>2018-08-14T09:12:53Z</time>
      </trkpt>
      <trkpt lat="45.87483" lon="4.64765">
        <ele>214</ele>
        <time>2018-08-14T09:12:54Z</time>
      </trkpt>
      <trkpt lat="45.87487" lon="4.6476">
        <ele>214</ele>
        <time>2018-08-14T09:12:55Z</time>
      </trkpt>
      <trkpt lat="45.87491" lon="4.64756">
        <ele>213</ele>
        <time>2018-08-14T09:12:56Z</time>
      </trkpt>
      <trkpt lat="45.87495" lon="4.64751">
        <ele>213</ele>
        <time>2018-08-14T09:12:57Z</time>
      </trkpt>
      <trkpt lat="45.87498" lon="4.64747">
        <ele>213</ele>
        <time>2018-08-14T09:12:58Z</time>
      </trkpt>
      <trkpt lat="45.87501" lon="4.64741">
        <ele>213</ele>
        <time>2018-08-14T09:12:59Z</time>
      </trkpt>
      <trkpt lat="45.87505" lon="4.64735">
        <ele>213</ele>
        <time>2018-08-14T09:13:00Z</time>
      </trkpt>
      <trkpt lat="45.87509" lon="4.64732">
        <ele>213</ele>
        <time>2018-08-14T09:13:01Z</time>
      </trkpt>
      <trkpt lat="45.87513" lon="4.64727">
        <ele>213</ele>
        <time>2018-08-14T09:13:02Z</time>
      </trkpt>
      <trkpt lat="45.87517" lon="4.64722">
        <ele>212</ele>
        <time>2018-08-14T09:13:03Z</time>
      </trkpt>
      <trkpt lat="45.8752" lon="4.64718">
        <ele>212</ele>
        <time>2018-08-14T09:13:04Z</time>
      </trkpt>
      <trkpt lat="45.87526" lon="4.6471">
        <ele>212</ele>
        <time>2018-08-14T09:13:06Z</time>
      </trkpt>
      <trkpt lat="45.87529" lon="4.64706">
        <ele>212</ele>
        <time>2018-08-14T09:13:07Z</time>
      </trkpt>
      <trkpt lat="45.87533" lon="4.64701">
        <ele>212</ele>
        <time>2018-08-14T09:13:08Z</time>
      </trkpt>
      <trkpt lat="45.87536" lon="4.64697">
        <ele>212</ele>
        <time>2018-08-14T09:13:09Z</time>
      </trkpt>
      <trkpt lat="45.87539" lon="4.64691">
        <ele>212</ele>
        <time>2018-08-14T09:13:10Z</time>
      </trkpt>
      <trkpt lat="45.87542" lon="4.64685">
        <ele>212</ele>
        <time>2018-08-14T09:13:11Z</time>
      </trkpt>
      <trkpt lat="45.87546" lon="4.64681">
        <ele>212</ele>
        <time>2018-08-14T09:13:12Z</time>
      </trkpt>
      <trkpt lat="45.87549" lon="4.64676">
        <ele>212</ele>
        <time>2018-08-14T09:13:13Z</time>
      </trkpt>
      <trkpt lat="45.87553" lon="4.64671">
        <ele>212</ele>
        <time>2018-08-14T09:13:14Z</time>
      </trkpt>
      <trkpt lat="45.87556" lon="4.64666">
        <ele>212</ele>
        <time>2018-08-14T09:13:15Z</time>
      </trkpt>
      <trkpt lat="45.8756" lon="4.64662">
        <ele>212</ele>
        <time>2018-08-14T09:13:16Z</time>
      </trkpt>
      <trkpt lat="45.87563" lon="4.64657">
        <ele>212</ele>
        <time>2018-08-14T09:13:17Z</time>
      </trkpt>
      <trkpt lat="45.87567" lon="4.64652">
        <ele>212</ele>
        <time>2018-08-14T09:13:18Z</time>
      </trkpt>
      <trkpt lat="45.8757" lon="4.64647">
        <ele>212</ele>
        <time>2018-08-14T09:13:19Z</time>
      </trkpt>
      <trkpt lat="45.87574" lon="4.64642">
        <ele>212</ele>
        <time>2018-08-14T09:13:20Z</time>
      </trkpt>
      <trkpt lat="45.87578" lon="4.64637">
        <ele>212</ele>
        <time>2018-08-14T09:13:21Z</time>
      </trkpt>
      <trkpt lat="45.87582" lon="4.64632">
        <ele>212</ele>
        <time>2018-08-14T09:13:22Z</time>
      </trkpt>
      <trkpt lat="45.87585" lon="4.64628">
        <ele>212</ele>
        <time>2018-08-14T09:13:23Z</time>
      </trkpt>
      <trkpt lat="45.87589" lon="4.64623">
        <ele>212</ele>
        <time>2018-08-14T09:13:24Z</time>
      </trkpt>
      <trkpt lat="45.87592" lon="4.64618">
        <ele>212</ele>
        <time>2018-08-14T09:13:25Z</time>
      </trkpt>
      <trkpt lat="45.87598" lon="4.6461">
        <ele>212</ele>
        <time>2018-08-14T09:13:27Z</time>
      </trkpt>
      <trkpt lat="45.87601" lon="4.64605">
        <ele>212</ele>
        <time>2018-08-14T09:13:28Z</time>
      </trkpt>
      <trkpt lat="45.87608" lon="4.64598">
        <ele>212</ele>
        <time>2018-08-14T09:13:30Z</time>
      </trkpt>
      <trkpt lat="45.87612" lon="4.64594">
        <ele>212</ele>
        <time>2018-08-14T09:13:31Z</time>
      </trkpt>
      <trkpt lat="45.87616" lon="4.64589">
        <ele>212</ele>
        <time>2018-08-14T09:13:32Z</time>
      </trkpt>
      <trkpt lat="45.8762" lon="4.64585">
        <ele>212</ele>
        <time>2018-08-14T09:13:33Z</time>
      </trkpt>
      <trkpt lat="45.87623" lon="4.64579">
        <ele>212</ele>
        <time>2018-08-14T09:13:34Z</time>
      </trkpt>
      <trkpt lat="45.87627" lon="4.64573">
        <ele>212</ele>
        <time>2018-08-14T09:13:35Z</time>
      </trkpt>
      <trkpt lat="45.87635" lon="4.64566">
        <ele>212</ele>
        <time>2018-08-14T09:13:37Z</time>
      </trkpt>
      <trkpt lat="45.87637" lon="4.64563">
        <ele>212</ele>
        <time>2018-08-14T09:13:38Z</time>
      </trkpt>
      <trkpt lat="45.87644" lon="4.64555">
        <ele>212</ele>
        <time>2018-08-14T09:13:40Z</time>
      </trkpt>
      <trkpt lat="45.87647" lon="4.64551">
        <ele>213</ele>
        <time>2018-08-14T09:13:41Z</time>
      </trkpt>
      <trkpt lat="45.87653" lon="4.64542">
        <ele>213</ele>
        <time>2018-08-14T09:13:43Z</time>
      </trkpt>
      <trkpt lat="45.87656" lon="4.64538">
        <ele>213</ele>
        <time>2018-08-14T09:13:44Z</time>
      </trkpt>
      <trkpt lat="45.87661" lon="4.64534">
        <ele>213</ele>
        <time>2018-08-14T09:13:45Z</time>
      </trkpt>
      <trkpt lat="45.87664" lon="4.64529">
        <ele>213</ele>
        <time>2018-08-14T09:13:46Z</time>
      </trkpt>
      <trkpt lat="45.87671" lon="4.64522">
        <ele>215</ele>
        <time>2018-08-14T09:13:48Z</time>
      </trkpt>
      <trkpt lat="45.87672" lon="4.64521">
        <ele>215</ele>
        <time>2018-08-14T09:13:49Z</time>
      </trkpt>
      <trkpt lat="45.87676" lon="4.64515">
        <ele>215</ele>
        <time>2018-08-14T09:13:51Z</time>
      </trkpt>
      <trkpt lat="45.8768" lon="4.64508">
        <ele>215</ele>
        <time>2018-08-14T09:13:52Z</time>
      </trkpt>
      <trkpt lat="45.87687" lon="4.64501">
        <ele>215</ele>
        <time>2018-08-14T09:13:57Z</time>
      </trkpt>
      <trkpt lat="45.87691" lon="4.64508">
        <ele>215</ele>
        <time>2018-08-14T09:13:58Z</time>
      </trkpt>
      <trkpt lat="45.87695" lon="4.64517">
        <ele>215</ele>
        <time>2018-08-14T09:13:59Z</time>
      </trkpt>
      <trkpt lat="45.87698" lon="4.64523">
        <ele>215</ele>
        <time>2018-08-14T09:14:00Z</time>
      </trkpt>
      <trkpt lat="45.87705" lon="4.64532">
        <ele>216</ele>
        <time>2018-08-14T09:14:02Z</time>
      </trkpt>
      <trkpt lat="45.87705" lon="4.64533">
        <ele>216</ele>
        <time>2018-08-14T09:14:03Z</time>
      </trkpt>
      <trkpt lat="45.87712" lon="4.64541">
        <ele>216</ele>
        <time>2018-08-14T09:14:05Z</time>
      </trkpt>
      <trkpt lat="45.87715" lon="4.64545">
        <ele>216</ele>
        <time>2018-08-14T09:14:06Z</time>
      </trkpt>
      <trkpt lat="45.87718" lon="4.64554">
        <ele>216</ele>
        <time>2018-08-14T09:14:08Z</time>
      </trkpt>
      <trkpt lat="45.8772" lon="4.64562">
        <ele>216</ele>
        <time>2018-08-14T09:14:09Z</time>
      </trkpt>
      <trkpt lat="45.8772" lon="4.64569">
        <ele>217</ele>
        <time>2018-08-14T09:14:10Z</time>
      </trkpt>
      <trkpt lat="45.8772" lon="4.64575">
        <ele>217</ele>
        <time>2018-08-14T09:14:11Z</time>
      </trkpt>
      <trkpt lat="45.8772" lon="4.64587">
        <ele>217</ele>
        <time>2018-08-14T09:14:13Z</time>
      </trkpt>
      <trkpt lat="45.8772" lon="4.64589">
        <ele>217</ele>
        <time>2018-08-14T09:14:14Z</time>
      </trkpt>
      <trkpt lat="45.87721" lon="4.64595">
        <ele>217</ele>
        <time>2018-08-14T09:14:16Z</time>
      </trkpt>
      <trkpt lat="45.8772" lon="4.64606">
        <ele>217</ele>
        <time>2018-08-14T09:14:17Z</time>
      </trkpt>
      <trkpt lat="45.87721" lon="4.64611">
        <ele>217</ele>
        <time>2018-08-14T09:14:18Z</time>
      </trkpt>
      <trkpt lat="45.87723" lon="4.64618">
        <ele>217</ele>
        <time>2018-08-14T09:14:19Z</time>
      </trkpt>
      <trkpt lat="45.87725" lon="4.64623">
        <ele>217</ele>
        <time>2018-08-14T09:14:20Z</time>
      </trkpt>
      <trkpt lat="45.87728" lon="4.6463">
        <ele>217</ele>
        <time>2018-08-14T09:14:21Z</time>
      </trkpt>
      <trkpt lat="45.87728" lon="4.6464">
        <ele>217</ele>
        <time>2018-08-14T09:14:24Z</time>
      </trkpt>
      <trkpt lat="45.87728" lon="4.64647">
        <ele>217</ele>
        <time>2018-08-14T09:14:25Z</time>
      </trkpt>
      <trkpt lat="45.87725" lon="4.64657">
        <ele>217</ele>
        <time>2018-08-14T09:14:27Z</time>
      </trkpt>
      <trkpt lat="45.87724" lon="4.64662">
        <ele>217</ele>
        <time>2018-08-14T09:14:28Z</time>
      </trkpt>
      <trkpt lat="45.87724" lon="4.64675">
        <ele>216</ele>
        <time>2018-08-14T09:14:30Z</time>
      </trkpt>
      <trkpt lat="45.87723" lon="4.64683">
        <ele>216</ele>
        <time>2018-08-14T09:14:31Z</time>
      </trkpt>
      <trkpt lat="45.87723" lon="4.64695">
        <ele>215</ele>
        <time>2018-08-14T09:14:33Z</time>
      </trkpt>
      <trkpt lat="45.87723" lon="4.647">
        <ele>215</ele>
        <time>2018-08-14T09:14:34Z</time>
      </trkpt>
      <trkpt lat="45.87723" lon="4.64708">
        <ele>215</ele>
        <time>2018-08-14T09:14:35Z</time>
      </trkpt>
      <trkpt lat="45.87723" lon="4.64715">
        <ele>215</ele>
        <time>2018-08-14T09:14:36Z</time>
      </trkpt>
      <trkpt lat="45.87725" lon="4.64723">
        <ele>215</ele>
        <time>2018-08-14T09:14:37Z</time>
      </trkpt>
      <trkpt lat="45.87726" lon="4.6473">
        <ele>215</ele>
        <time>2018-08-14T09:14:38Z</time>
      </trkpt>
      <trkpt lat="45.87728" lon="4.64741">
        <ele>214</ele>
        <time>2018-08-14T09:14:40Z</time>
      </trkpt>
      <trkpt lat="45.87729" lon="4.64746">
        <ele>214</ele>
        <time>2018-08-14T09:14:41Z</time>
      </trkpt>
      <trkpt lat="45.8773" lon="4.64757">
        <ele>213</ele>
        <time>2018-08-14T09:14:44Z</time>
      </trkpt>
      <trkpt lat="45.87733" lon="4.64766">
        <ele>213</ele>
        <time>2018-08-14T09:14:45Z</time>
      </trkpt>
      <trkpt lat="45.87735" lon="4.64776">
        <ele>213</ele>
        <time>2018-08-14T09:14:47Z</time>
      </trkpt>
      <trkpt lat="45.87738" lon="4.64781">
        <ele>213</ele>
        <time>2018-08-14T09:14:48Z</time>
      </trkpt>
      <trkpt lat="45.87741" lon="4.64787">
        <ele>213</ele>
        <time>2018-08-14T09:14:49Z</time>
      </trkpt>
      <trkpt lat="45.87744" lon="4.64792">
        <ele>214</ele>
        <time>2018-08-14T09:14:50Z</time>
      </trkpt>
      <trkpt lat="45.87749" lon="4.64802">
        <ele>214</ele>
        <time>2018-08-14T09:14:52Z</time>
      </trkpt>
      <trkpt lat="45.87751" lon="4.64807">
        <ele>214</ele>
        <time>2018-08-14T09:14:53Z</time>
      </trkpt>
      <trkpt lat="45.87757" lon="4.64815">
        <ele>214</ele>
        <time>2018-08-14T09:14:55Z</time>
      </trkpt>
      <trkpt lat="45.8776" lon="4.64819">
        <ele>214</ele>
        <time>2018-08-14T09:14:56Z</time>
      </trkpt>
      <trkpt lat="45.87765" lon="4.64826">
        <ele>214</ele>
        <time>2018-08-14T09:14:59Z</time>
      </trkpt>
      <trkpt lat="45.87767" lon="4.6483">
        <ele>214</ele>
        <time>2018-08-14T09:15:00Z</time>
      </trkpt>
      <trkpt lat="45.87772" lon="4.64836">
        <ele>216</ele>
        <time>2018-08-14T09:15:02Z</time>
      </trkpt>
      <trkpt lat="45.87774" lon="4.64839">
        <ele>217</ele>
        <time>2018-08-14T09:15:03Z</time>
      </trkpt>
      <trkpt lat="45.87778" lon="4.64845">
        <ele>217</ele>
        <time>2018-08-14T09:15:05Z</time>
      </trkpt>
      <trkpt lat="45.8778" lon="4.64849">
        <ele>217</ele>
        <time>2018-08-14T09:15:06Z</time>
      </trkpt>
      <trkpt lat="45.87784" lon="4.64856">
        <ele>218</ele>
        <time>2018-08-14T09:15:08Z</time>
      </trkpt>
      <trkpt lat="45.87786" lon="4.64859">
        <ele>218</ele>
        <time>2018-08-14T09:15:09Z</time>
      </trkpt>
      <trkpt lat="45.87792" lon="4.64868">
        <ele>218</ele>
        <time>2018-08-14T09:15:12Z</time>
      </trkpt>
      <trkpt lat="45.87793" lon="4.64871">
        <ele>218</ele>
        <time>2018-08-14T09:15:13Z</time>
      </trkpt>
      <trkpt lat="45.87798" lon="4.64881">
        <ele>219</ele>
        <time>2018-08-14T09:15:16Z</time>
      </trkpt>
      <trkpt lat="45.878" lon="4.64885">
        <ele>219</ele>
        <time>2018-08-14T09:15:17Z</time>
      </trkpt>
      <trkpt lat="45.87804" lon="4.64894">
        <ele>219</ele>
        <time>2018-08-14T09:15:20Z</time>
      </trkpt>
      <trkpt lat="45.87805" lon="4.64898">
        <ele>220</ele>
        <time>2018-08-14T09:15:21Z</time>
      </trkpt>
      <trkpt lat="45.8781" lon="4.64907">
        <ele>220</ele>
        <time>2018-08-14T09:15:24Z</time>
      </trkpt>
      <trkpt lat="45.87811" lon="4.6491">
        <ele>220</ele>
        <time>2018-08-14T09:15:25Z</time>
      </trkpt>
      <trkpt lat="45.87815" lon="4.6492">
        <ele>224</ele>
        <time>2018-08-14T09:15:28Z</time>
      </trkpt>
      <trkpt lat="45.87817" lon="4.64923">
        <ele>224</ele>
        <time>2018-08-14T09:15:29Z</time>
      </trkpt>
      <trkpt lat="45.87821" lon="4.64931">
        <ele>224</ele>
        <time>2018-08-14T09:15:32Z</time>
      </trkpt>
      <trkpt lat="45.87823" lon="4.64933">
        <ele>224</ele>
        <time>2018-08-14T09:15:33Z</time>
      </trkpt>
      <trkpt lat="45.87829" lon="4.64942">
        <ele>225</ele>
        <time>2018-08-14T09:15:37Z</time>
      </trkpt>
      <trkpt lat="45.8783" lon="4.64944">
        <ele>225</ele>
        <time>2018-08-14T09:15:38Z</time>
      </trkpt>
      <trkpt lat="45.87837" lon="4.64951">
        <ele>227</ele>
        <time>2018-08-14T09:15:42Z</time>
      </trkpt>
      <trkpt lat="45.87839" lon="4.64953">
        <ele>228</ele>
        <time>2018-08-14T09:15:43Z</time>
      </trkpt>
      <trkpt lat="45.87846" lon="4.6496">
        <ele>228</ele>
        <time>2018-08-14T09:15:47Z</time>
      </trkpt>
      <trkpt lat="45.87847" lon="4.64962">
        <ele>228</ele>
        <time>2018-08-14T09:15:48Z</time>
      </trkpt>
      <trkpt lat="45.87853" lon="4.64967">
        <ele>229</ele>
        <time>2018-08-14T09:15:51Z</time>
      </trkpt>
      <trkpt lat="45.87855" lon="4.64969">
        <ele>229</ele>
        <time>2018-08-14T09:15:52Z</time>
      </trkpt>
      <trkpt lat="45.87861" lon="4.64974">
        <ele>229</ele>
        <time>2018-08-14T09:15:55Z</time>
      </trkpt>
      <trkpt lat="45.87863" lon="4.64975">
        <ele>229</ele>
        <time>2018-08-14T09:15:56Z</time>
      </trkpt>
      <trkpt lat="45.8787" lon="4.64978">
        <ele>230</ele>
        <time>2018-08-14T09:15:59Z</time>
      </trkpt>
      <trkpt lat="45.87872" lon="4.64979">
        <ele>230</ele>
        <time>2018-08-14T09:16:00Z</time>
      </trkpt>
      <trkpt lat="45.87879" lon="4.64982">
        <ele>230</ele>
        <time>2018-08-14T09:16:03Z</time>
      </trkpt>
      <trkpt lat="45.87881" lon="4.64983">
        <ele>231</ele>
        <time>2018-08-14T09:16:04Z</time>
      </trkpt>
      <trkpt lat="45.87889" lon="4.64986">
        <ele>231</ele>
        <time>2018-08-14T09:16:08Z</time>
      </trkpt>
      <trkpt lat="45.87891" lon="4.64987">
        <ele>232</ele>
        <time>2018-08-14T09:16:09Z</time>
      </trkpt>
      <trkpt lat="45.879" lon="4.64989">
        <ele>233</ele>
        <time>2018-08-14T09:16:14Z</time>
      </trkpt>
      <trkpt lat="45.87902" lon="4.6499">
        <ele>233</ele>
        <time>2018-08-14T09:16:15Z</time>
      </trkpt>
      <trkpt lat="45.8791" lon="4.64991">
        <ele>234</ele>
        <time>2018-08-14T09:16:19Z</time>
      </trkpt>
      <trkpt lat="45.87912" lon="4.64991">
        <ele>234</ele>
        <time>2018-08-14T09:16:20Z</time>
      </trkpt>
      <trkpt lat="45.87919" lon="4.64989">
        <ele>237</ele>
        <time>2018-08-14T09:16:23Z</time>
      </trkpt>
      <trkpt lat="45.87922" lon="4.64989">
        <ele>237</ele>
        <time>2018-08-14T09:16:24Z</time>
      </trkpt>
      <trkpt lat="45.8793" lon="4.64987">
        <ele>237</ele>
        <time>2018-08-14T09:16:28Z</time>
      </trkpt>
      <trkpt lat="45.87932" lon="4.64987">
        <ele>237</ele>
        <time>2018-08-14T09:16:29Z</time>
      </trkpt>
      <trkpt lat="45.87939" lon="4.64984">
        <ele>237</ele>
        <time>2018-08-14T09:16:32Z</time>
      </trkpt>
      <trkpt lat="45.87941" lon="4.64983">
        <ele>237</ele>
        <time>2018-08-14T09:16:33Z</time>
      </trkpt>
      <trkpt lat="45.87948" lon="4.64979">
        <ele>238</ele>
        <time>2018-08-14T09:16:36Z</time>
      </trkpt>
      <trkpt lat="45.8795" lon="4.64977">
        <ele>238</ele>
        <time>2018-08-14T09:16:37Z</time>
      </trkpt>
      <trkpt lat="45.87956" lon="4.64972">
        <ele>238</ele>
        <time>2018-08-14T09:16:40Z</time>
      </trkpt>
      <trkpt lat="45.87958" lon="4.6497">
        <ele>238</ele>
        <time>2018-08-14T09:16:41Z</time>
      </trkpt>
      <trkpt lat="45.87964" lon="4.64966">
        <ele>238</ele>
        <time>2018-08-14T09:16:44Z</time>
      </trkpt>
      <trkpt lat="45.87966" lon="4.64964">
        <ele>238</ele>
        <time>2018-08-14T09:16:45Z</time>
      </trkpt>
      <trkpt lat="45.87972" lon="4.64959">
        <ele>238</ele>
        <time>2018-08-14T09:16:48Z</time>
      </trkpt>
      <trkpt lat="45.87974" lon="4.64957">
        <ele>238</ele>
        <time>2018-08-14T09:16:49Z</time>
      </trkpt>
      <trkpt lat="45.8798" lon="4.64951">
        <ele>238</ele>
        <time>2018-08-14T09:16:52Z</time>
      </trkpt>
      <trkpt lat="45.87982" lon="4.64949">
        <ele>237</ele>
        <time>2018-08-14T09:16:53Z</time>
      </trkpt>
      <trkpt lat="45.87988" lon="4.64943">
        <ele>237</ele>
        <time>2018-08-14T09:16:56Z</time>
      </trkpt>
      <trkpt lat="45.8799" lon="4.64941">
        <ele>237</ele>
        <time>2018-08-14T09:16:57Z</time>
      </trkpt>
      <trkpt lat="45.87997" lon="4.64934">
        <ele>236</ele>
        <time>2018-08-14T09:17:00Z</time>
      </trkpt>
      <trkpt lat="45.87999" lon="4.64932">
        <ele>236</ele>
        <time>2018-08-14T09:17:01Z</time>
      </trkpt>
      <trkpt lat="45.88006" lon="4.64928">
        <ele>242</ele>
        <time>2018-08-14T09:17:04Z</time>
      </trkpt>
      <trkpt lat="45.88008" lon="4.64926">
        <ele>242</ele>
        <time>2018-08-14T09:17:05Z</time>
      </trkpt>
      <trkpt lat="45.88015" lon="4.64921">
        <ele>243</ele>
        <time>2018-08-14T09:17:08Z</time>
      </trkpt>
      <trkpt lat="45.88017" lon="4.64919">
        <ele>243</ele>
        <time>2018-08-14T09:17:09Z</time>
      </trkpt>
      <trkpt lat="45.88024" lon="4.64911">
        <ele>238</ele>
        <time>2018-08-14T09:17:13Z</time>
      </trkpt>
      <trkpt lat="45.88026" lon="4.64909">
        <ele>238</ele>
        <time>2018-08-14T09:17:14Z</time>
      </trkpt>
      <trkpt lat="45.88033" lon="4.64902">
        <ele>239</ele>
        <time>2018-08-14T09:17:18Z</time>
      </trkpt>
      <trkpt lat="45.88035" lon="4.64901">
        <ele>239</ele>
        <time>2018-08-14T09:17:19Z</time>
      </trkpt>
      <trkpt lat="45.88042" lon="4.64895">
        <ele>239</ele>
        <time>2018-08-14T09:17:23Z</time>
      </trkpt>
      <trkpt lat="45.88044" lon="4.64894">
        <ele>239</ele>
        <time>2018-08-14T09:17:24Z</time>
      </trkpt>
      <trkpt lat="45.88051" lon="4.64887">
        <ele>240</ele>
        <time>2018-08-14T09:17:28Z</time>
      </trkpt>
      <trkpt lat="45.88052" lon="4.64886">
        <ele>240</ele>
        <time>2018-08-14T09:17:29Z</time>
      </trkpt>
      <trkpt lat="45.88059" lon="4.64878">
        <ele>239</ele>
        <time>2018-08-14T09:17:33Z</time>
      </trkpt>
      <trkpt lat="45.8806" lon="4.64876">
        <ele>239</ele>
        <time>2018-08-14T09:17:34Z</time>
      </trkpt>
      <trkpt lat="45.88067" lon="4.64869">
        <ele>239</ele>
        <time>2018-08-14T09:17:39Z</time>
      </trkpt>
      <trkpt lat="45.88069" lon="4.64868">
        <ele>239</ele>
        <time>2018-08-14T09:17:40Z</time>
      </trkpt>
      <trkpt lat="45.88077" lon="4.64863">
        <ele>239</ele>
        <time>2018-08-14T09:17:44Z</time>
      </trkpt>
      <trkpt lat="45.88079" lon="4.64863">
        <ele>239</ele>
        <time>2018-08-14T09:17:45Z</time>
      </trkpt>
      <trkpt lat="45.88087" lon="4.64861">
        <ele>245</ele>
        <time>2018-08-14T09:17:49Z</time>
      </trkpt>
      <trkpt lat="45.88089" lon="4.6486">
        <ele>245</ele>
        <time>2018-08-14T09:17:50Z</time>
      </trkpt>
      <trkpt lat="45.88098" lon="4.64858">
        <ele>246</ele>
        <time>2018-08-14T09:17:54Z</time>
      </trkpt>
      <trkpt lat="45.881" lon="4.64857">
        <ele>246</ele>
        <time>2018-08-14T09:17:55Z</time>
      </trkpt>
      <trkpt lat="45.88107" lon="4.64855">
        <ele>246</ele>
        <time>2018-08-14T09:17:58Z</time>
      </trkpt>
      <trkpt lat="45.8811" lon="4.64854">
        <ele>246</ele>
        <time>2018-08-14T09:17:59Z</time>
      </trkpt>
      <trkpt lat="45.88117" lon="4.64852">
        <ele>247</ele>
        <time>2018-08-14T09:18:02Z</time>
      </trkpt>
      <trkpt lat="45.8812" lon="4.64852">
        <ele>247</ele>
        <time>2018-08-14T09:18:03Z</time>
      </trkpt>
      <trkpt lat="45.88126" lon="4.6485">
        <ele>247</ele>
        <time>2018-08-14T09:18:06Z</time>
      </trkpt>
      <trkpt lat="45.88129" lon="4.6485">
        <ele>247</ele>
        <time>2018-08-14T09:18:07Z</time>
      </trkpt>
      <trkpt lat="45.88137" lon="4.64848">
        <ele>247</ele>
        <time>2018-08-14T09:18:11Z</time>
      </trkpt>
      <trkpt lat="45.8814" lon="4.64847">
        <ele>247</ele>
        <time>2018-08-14T09:18:12Z</time>
      </trkpt>
      <trkpt lat="45.88148" lon="4.64845">
        <ele>247</ele>
        <time>2018-08-14T09:18:16Z</time>
      </trkpt>
      <trkpt lat="45.8815" lon="4.64845">
        <ele>247</ele>
        <time>2018-08-14T09:18:17Z</time>
      </trkpt>
      <trkpt lat="45.88157" lon="4.64844">
        <ele>247</ele>
        <time>2018-08-14T09:18:21Z</time>
      </trkpt>
      <trkpt lat="45.88159" lon="4.64843">
        <ele>247</ele>
        <time>2018-08-14T09:18:22Z</time>
      </trkpt>
      <trkpt lat="45.88168" lon="4.64841">
        <ele>248</ele>
        <time>2018-08-14T09:18:26Z</time>
      </trkpt>
      <trkpt lat="45.8817" lon="4.6484">
        <ele>249</ele>
        <time>2018-08-14T09:18:27Z</time>
      </trkpt>
      <trkpt lat="45.88177" lon="4.6484">
        <ele>250</ele>
        <time>2018-08-14T09:18:30Z</time>
      </trkpt>
      <trkpt lat="45.88179" lon="4.6484">
        <ele>251</ele>
        <time>2018-08-14T09:18:31Z</time>
      </trkpt>
      <trkpt lat="45.88186" lon="4.64839">
        <ele>252</ele>
        <time>2018-08-14T09:18:34Z</time>
      </trkpt>
      <trkpt lat="45.88188" lon="4.64839">
        <ele>253</ele>
        <time>2018-08-14T09:18:35Z</time>
      </trkpt>
      <trkpt lat="45.88196" lon="4.64838">
        <ele>254</ele>
        <time>2018-08-14T09:18:38Z</time>
      </trkpt>
      <trkpt lat="45.88198" lon="4.64837">
        <ele>254</ele>
        <time>2018-08-14T09:18:39Z</time>
      </trkpt>
      <trkpt lat="45.88205" lon="4.64836">
        <ele>255</ele>
        <time>2018-08-14T09:18:42Z</time>
      </trkpt>
      <trkpt lat="45.88207" lon="4.64836">
        <ele>255</ele>
        <time>2018-08-14T09:18:43Z</time>
      </trkpt>
      <trkpt lat="45.88215" lon="4.64833">
        <ele>247</ele>
        <time>2018-08-14T09:18:46Z</time>
      </trkpt>
      <trkpt lat="45.88218" lon="4.64832">
        <ele>247</ele>
        <time>2018-08-14T09:18:47Z</time>
      </trkpt>
      <trkpt lat="45.88226" lon="4.64828">
        <ele>249</ele>
        <time>2018-08-14T09:18:51Z</time>
      </trkpt>
      <trkpt lat="45.88228" lon="4.64828">
        <ele>249</ele>
        <time>2018-08-14T09:18:52Z</time>
      </trkpt>
      <trkpt lat="45.88236" lon="4.64824">
        <ele>250</ele>
        <time>2018-08-14T09:18:56Z</time>
      </trkpt>
      <trkpt lat="45.88237" lon="4.64824">
        <ele>251</ele>
        <time>2018-08-14T09:18:57Z</time>
      </trkpt>
      <trkpt lat="45.88246" lon="4.64822">
        <ele>252</ele>
        <time>2018-08-14T09:19:02Z</time>
      </trkpt>
      <trkpt lat="45.88247" lon="4.64822">
        <ele>252</ele>
        <time>2018-08-14T09:19:03Z</time>
      </trkpt>
      <trkpt lat="45.88255" lon="4.6482">
        <ele>257</ele>
        <time>2018-08-14T09:19:08Z</time>
      </trkpt>
      <trkpt lat="45.88257" lon="4.6482">
        <ele>257</ele>
        <time>2018-08-14T09:19:09Z</time>
      </trkpt>
      <trkpt lat="45.88265" lon="4.64818">
        <ele>257</ele>
        <time>2018-08-14T09:19:14Z</time>
      </trkpt>
      <trkpt lat="45.88267" lon="4.64818">
        <ele>257</ele>
        <time>2018-08-14T09:19:15Z</time>
      </trkpt>
      <trkpt lat="45.88275" lon="4.64814">
        <ele>258</ele>
        <time>2018-08-14T09:19:19Z</time>
      </trkpt>
      <trkpt lat="45.88277" lon="4.64814">
        <ele>258</ele>
        <time>2018-08-14T09:19:20Z</time>
      </trkpt>
      <trkpt lat="45.88284" lon="4.64811">
        <ele>258</ele>
        <time>2018-08-14T09:19:24Z</time>
      </trkpt>
      <trkpt lat="45.88285" lon="4.6481">
        <ele>258</ele>
        <time>2018-08-14T09:19:25Z</time>
      </trkpt>
      <trkpt lat="45.88292" lon="4.64806">
        <ele>259</ele>
        <time>2018-08-14T09:19:29Z</time>
      </trkpt>
      <trkpt lat="45.88294" lon="4.64805">
        <ele>259</ele>
        <time>2018-08-14T09:19:30Z</time>
      </trkpt>
      <trkpt lat="45.88301" lon="4.64804">
        <ele>259</ele>
        <time>2018-08-14T09:19:34Z</time>
      </trkpt>
      <trkpt lat="45.88303" lon="4.64804">
        <ele>260</ele>
        <time>2018-08-14T09:19:35Z</time>
      </trkpt>
      <trkpt lat="45.88311" lon="4.64802">
        <ele>260</ele>
        <time>2018-08-14T09:19:40Z</time>
      </trkpt>
      <trkpt lat="45.88313" lon="4.64801">
        <ele>260</ele>
        <time>2018-08-14T09:19:41Z</time>
      </trkpt>
      <trkpt lat="45.88321" lon="4.64799">
        <ele>261</ele>
        <time>2018-08-14T09:19:45Z</time>
      </trkpt>
      <trkpt lat="45.88323" lon="4.64799">
        <ele>261</ele>
        <time>2018-08-14T09:19:46Z</time>
      </trkpt>
      <trkpt lat="45.88332" lon="4.64798">
        <ele>261</ele>
        <time>2018-08-14T09:19:50Z</time>
      </trkpt>
      <trkpt lat="45.88334" lon="4.64798">
        <ele>267</ele>
        <time>2018-08-14T09:19:51Z</time>
      </trkpt>
      <trkpt lat="45.88342" lon="4.64798">
        <ele>267</ele>
        <time>2018-08-14T09:19:55Z</time>
      </trkpt>
      <trkpt lat="45.88344" lon="4.64798">
        <ele>267</ele>
        <time>2018-08-14T09:19:56Z</time>
      </trkpt>
      <trkpt lat="45.88352" lon="4.64796">
        <ele>267</ele>
        <time>2018-08-14T09:20:00Z</time>
      </trkpt>
      <trkpt lat="45.88355" lon="4.64794">
        <ele>267</ele>
        <time>2018-08-14T09:20:01Z</time>
      </trkpt>
      <trkpt lat="45.88362" lon="4.64791">
        <ele>267</ele>
        <time>2018-08-14T09:20:04Z</time>
      </trkpt>
      <trkpt lat="45.88364" lon="4.6479">
        <ele>267</ele>
        <time>2018-08-14T09:20:05Z</time>
      </trkpt>
      <trkpt lat="45.88373" lon="4.64788">
        <ele>267</ele>
        <time>2018-08-14T09:20:09Z</time>
      </trkpt>
      <trkpt lat="45.88375" lon="4.64788">
        <ele>267</ele>
        <time>2018-08-14T09:20:10Z</time>
      </trkpt>
      <trkpt lat="45.88384" lon="4.64787">
        <ele>267</ele>
        <time>2018-08-14T09:20:15Z</time>
      </trkpt>
      <trkpt lat="45.88385" lon="4.64788">
        <ele>267</ele>
        <time>2018-08-14T09:20:16Z</time>
      </trkpt>
      <trkpt lat="45.88393" lon="4.6479">
        <ele>268</ele>
        <time>2018-08-14T09:20:21Z</time>
      </trkpt>
      <trkpt lat="45.88395" lon="4.64789">
        <ele>268</ele>
        <time>2018-08-14T09:20:22Z</time>
      </trkpt>
      <trkpt lat="45.88402" lon="4.64786">
        <ele>268</ele>
        <time>2018-08-14T09:20:26Z</time>
      </trkpt>
      <trkpt lat="45.88403" lon="4.64785">
        <ele>268</ele>
        <time>2018-08-14T09:20:27Z</time>
      </trkpt>
      <trkpt lat="45.88411" lon="4.64783">
        <ele>267</ele>
        <time>2018-08-14T09:20:31Z</time>
      </trkpt>
      <trkpt lat="45.88413" lon="4.64782">
        <ele>267</ele>
        <time>2018-08-14T09:20:32Z</time>
      </trkpt>
      <trkpt lat="45.88421" lon="4.6478">
        <ele>270</ele>
        <time>2018-08-14T09:20:36Z</time>
      </trkpt>
      <trkpt lat="45.88423" lon="4.6478">
        <ele>270</ele>
        <time>2018-08-14T09:20:37Z</time>
      </trkpt>
      <trkpt lat="45.88431" lon="4.6478">
        <ele>270</ele>
        <time>2018-08-14T09:20:41Z</time>
      </trkpt>
      <trkpt lat="45.88433" lon="4.64781">
        <ele>270</ele>
        <time>2018-08-14T09:20:42Z</time>
      </trkpt>
      <trkpt lat="45.88441" lon="4.6478">
        <ele>271</ele>
        <time>2018-08-14T09:20:46Z</time>
      </trkpt>
      <trkpt lat="45.88443" lon="4.6478">
        <ele>271</ele>
        <time>2018-08-14T09:20:47Z</time>
      </trkpt>
      <trkpt lat="45.88451" lon="4.64779">
        <ele>271</ele>
        <time>2018-08-14T09:20:51Z</time>
      </trkpt>
      <trkpt lat="45.88453" lon="4.64778">
        <ele>271</ele>
        <time>2018-08-14T09:20:52Z</time>
      </trkpt>
      <trkpt lat="45.8846" lon="4.64776">
        <ele>271</ele>
        <time>2018-08-14T09:20:55Z</time>
      </trkpt>
      <trkpt lat="45.88462" lon="4.64775">
        <ele>271</ele>
        <time>2018-08-14T09:20:56Z</time>
      </trkpt>
      <trkpt lat="45.88469" lon="4.64772">
        <ele>271</ele>
        <time>2018-08-14T09:20:59Z</time>
      </trkpt>
      <trkpt lat="45.88471" lon="4.64771">
        <ele>271</ele>
        <time>2018-08-14T09:21:00Z</time>
      </trkpt>
      <trkpt lat="45.88479" lon="4.6477">
        <ele>271</ele>
        <time>2018-08-14T09:21:03Z</time>
      </trkpt>
      <trkpt lat="45.88482" lon="4.6477">
        <ele>271</ele>
        <time>2018-08-14T09:21:04Z</time>
      </trkpt>
      <trkpt lat="45.8849" lon="4.64769">
        <ele>270</ele>
        <time>2018-08-14T09:21:07Z</time>
      </trkpt>
      <trkpt lat="45.885" lon="4.64767">
        <ele>270</ele>
        <time>2018-08-14T09:21:08Z</time>
      </trkpt>
      <trkpt lat="45.88509" lon="4.64764">
        <ele>270</ele>
        <time>2018-08-14T09:21:13Z</time>
      </trkpt>
      <trkpt lat="45.8851" lon="4.64764">
        <ele>270</ele>
        <time>2018-08-14T09:21:14Z</time>
      </trkpt>
      <trkpt lat="45.88519" lon="4.64766">
        <ele>270</ele>
        <time>2018-08-14T09:21:18Z</time>
      </trkpt>
      <trkpt lat="45.88521" lon="4.64766">
        <ele>270</ele>
        <time>2018-08-14T09:21:19Z</time>
      </trkpt>
      <trkpt lat="45.88529" lon="4.6477">
        <ele>271</ele>
        <time>2018-08-14T09:21:23Z</time>
      </trkpt>
      <trkpt lat="45.88531" lon="4.64771">
        <ele>271</ele>
        <time>2018-08-14T09:21:24Z</time>
      </trkpt>
      <trkpt lat="45.88537" lon="4.64777">
        <ele>271</ele>
        <time>2018-08-14T09:21:28Z</time>
      </trkpt>
      <trkpt lat="45.88539" lon="4.64779">
        <ele>271</ele>
        <time>2018-08-14T09:21:29Z</time>
      </trkpt>
      <trkpt lat="45.88543" lon="4.64786">
        <ele>271</ele>
        <time>2018-08-14T09:21:32Z</time>
      </trkpt>
      <trkpt lat="45.88544" lon="4.6479">
        <ele>272</ele>
        <time>2018-08-14T09:21:33Z</time>
      </trkpt>
      <trkpt lat="45.88549" lon="4.64799">
        <ele>272</ele>
        <time>2018-08-14T09:21:37Z</time>
      </trkpt>
      <trkpt lat="45.8855" lon="4.64801">
        <ele>272</ele>
        <time>2018-08-14T09:21:38Z</time>
      </trkpt>
      <trkpt lat="45.88552" lon="4.64811">
        <ele>272</ele>
        <time>2018-08-14T09:21:42Z</time>
      </trkpt>
      <trkpt lat="45.88552" lon="4.64814">
        <ele>272</ele>
        <time>2018-08-14T09:21:43Z</time>
      </trkpt>
      <trkpt lat="45.88554" lon="4.64825">
        <ele>273</ele>
        <time>2018-08-14T09:21:47Z</time>
      </trkpt>
      <trkpt lat="45.88554" lon="4.64828">
        <ele>273</ele>
        <time>2018-08-14T09:21:48Z</time>
      </trkpt>
      <trkpt lat="45.88553" lon="4.64839">
        <ele>276</ele>
        <time>2018-08-14T09:21:52Z</time>
      </trkpt>
      <trkpt lat="45.88553" lon="4.64842">
        <ele>276</ele>
        <time>2018-08-14T09:21:53Z</time>
      </trkpt>
      <trkpt lat="45.8855" lon="4.64854">
        <ele>276</ele>
        <time>2018-08-14T09:21:57Z</time>
      </trkpt>
      <trkpt lat="45.88549" lon="4.64857">
        <ele>277</ele>
        <time>2018-08-14T09:21:58Z</time>
      </trkpt>
      <trkpt lat="45.88547" lon="4.64868">
        <ele>277</ele>
        <time>2018-08-14T09:22:02Z</time>
      </trkpt>
      <trkpt lat="45.88546" lon="4.64871">
        <ele>277</ele>
        <time>2018-08-14T09:22:03Z</time>
      </trkpt>
      <trkpt lat="45.88544" lon="4.64881">
        <ele>277</ele>
        <time>2018-08-14T09:22:07Z</time>
      </trkpt>
      <trkpt lat="45.88544" lon="4.64883">
        <ele>277</ele>
        <time>2018-08-14T09:22:08Z</time>
      </trkpt>
      <trkpt lat="45.88541" lon="4.64893">
        <ele>277</ele>
        <time>2018-08-14T09:22:12Z</time>
      </trkpt>
      <trkpt lat="45.8854" lon="4.64896">
        <ele>278</ele>
        <time>2018-08-14T09:22:13Z</time>
      </trkpt>
      <trkpt lat="45.88537" lon="4.64905">
        <ele>278</ele>
        <time>2018-08-14T09:22:17Z</time>
      </trkpt>
      <trkpt lat="45.88536" lon="4.64907">
        <ele>278</ele>
        <time>2018-08-14T09:22:18Z</time>
      </trkpt>
      <trkpt lat="45.88535" lon="4.64918">
        <ele>280</ele>
        <time>2018-08-14T09:22:22Z</time>
      </trkpt>
      <trkpt lat="45.88534" lon="4.64921">
        <ele>280</ele>
        <time>2018-08-14T09:22:23Z</time>
      </trkpt>
      <trkpt lat="45.88533" lon="4.64932">
        <ele>281</ele>
        <time>2018-08-14T09:22:27Z</time>
      </trkpt>
      <trkpt lat="45.88532" lon="4.64935">
        <ele>281</ele>
        <time>2018-08-14T09:22:28Z</time>
      </trkpt>
      <trkpt lat="45.88531" lon="4.64946">
        <ele>281</ele>
        <time>2018-08-14T09:22:32Z</time>
      </trkpt>
      <trkpt lat="45.8853" lon="4.64948">
        <ele>281</ele>
        <time>2018-08-14T09:22:33Z</time>
      </trkpt>
      <trkpt lat="45.88528" lon="4.64959">
        <ele>281</ele>
        <time>2018-08-14T09:22:37Z</time>
      </trkpt>
      <trkpt lat="45.88528" lon="4.64962">
        <ele>282</ele>
        <time>2018-08-14T09:22:38Z</time>
      </trkpt>
      <trkpt lat="45.88526" lon="4.64973">
        <ele>282</ele>
        <time>2018-08-14T09:22:42Z</time>
      </trkpt>
      <trkpt lat="45.88525" lon="4.64976">
        <ele>282</ele>
        <time>2018-08-14T09:22:43Z</time>
      </trkpt>
      <trkpt lat="45.88524" lon="4.64988">
        <ele>283</ele>
        <time>2018-08-14T09:22:47Z</time>
      </trkpt>
      <trkpt lat="45.88524" lon="4.64991">
        <ele>283</ele>
        <time>2018-08-14T09:22:48Z</time>
      </trkpt>
      <trkpt lat="45.88523" lon="4.65002">
        <ele>285</ele>
        <time>2018-08-14T09:22:52Z</time>
      </trkpt>
      <trkpt lat="45.88523" lon="4.65005">
        <ele>285</ele>
        <time>2018-08-14T09:22:53Z</time>
      </trkpt>
      <trkpt lat="45.88521" lon="4.65016">
        <ele>285</ele>
        <time>2018-08-14T09:22:57Z</time>
      </trkpt>
      <trkpt lat="45.8852" lon="4.65019">
        <ele>285</ele>
        <time>2018-08-14T09:22:58Z</time>
      </trkpt>
      <trkpt lat="45.88518" lon="4.65031">
        <ele>285</ele>
        <time>2018-08-14T09:23:02Z</time>
      </trkpt>
      <trkpt lat="45.88518" lon="4.65034">
        <ele>285</ele>
        <time>2018-08-14T09:23:03Z</time>
      </trkpt>
      <trkpt lat="45.88515" lon="4.65045">
        <ele>285</ele>
        <time>2018-08-14T09:23:07Z</time>
      </trkpt>
      <trkpt lat="45.88514" lon="4.65048">
        <ele>286</ele>
        <time>2018-08-14T09:23:08Z</time>
      </trkpt>
      <trkpt lat="45.88511" lon="4.65059">
        <ele>286</ele>
        <time>2018-08-14T09:23:12Z</time>
      </trkpt>
      <trkpt lat="45.88509" lon="4.65061">
        <ele>286</ele>
        <time>2018-08-14T09:23:13Z</time>
      </trkpt>
      <trkpt lat="45.88505" lon="4.65071">
        <ele>288</ele>
        <time>2018-08-14T09:23:17Z</time>
      </trkpt>
      <trkpt lat="45.88505" lon="4.65074">
        <ele>288</ele>
        <time>2018-08-14T09:23:18Z</time>
      </trkpt>
      <trkpt lat="45.885" lon="4.65082">
        <ele>290</ele>
        <time>2018-08-14T09:23:22Z</time>
      </trkpt>
      <trkpt lat="45.88499" lon="4.65084">
        <ele>290</ele>
        <time>2018-08-14T09:23:23Z</time>
      </trkpt>
      <trkpt lat="45.88493" lon="4.65092">
        <ele>291</ele>
        <time>2018-08-14T09:23:27Z</time>
      </trkpt>
      <trkpt lat="45.88491" lon="4.65093">
        <ele>292</ele>
        <time>2018-08-14T09:23:28Z</time>
      </trkpt>
      <trkpt lat="45.88486" lon="4.65102">
        <ele>292</ele>
        <time>2018-08-14T09:23:32Z</time>
      </trkpt>
      <trkpt lat="45.88485" lon="4.65104">
        <ele>292</ele>
        <time>2018-08-14T09:23:33Z</time>
      </trkpt>
      <trkpt lat="45.8848" lon="4.65114">
        <ele>293</ele>
        <time>2018-08-14T09:23:37Z</time>
      </trkpt>
      <trkpt lat="45.88479" lon="4.65116">
        <ele>293</ele>
        <time>2018-08-14T09:23:38Z</time>
      </trkpt>
      <trkpt lat="45.88474" lon="4.65123">
        <ele>294</ele>
        <time>2018-08-14T09:23:41Z</time>
      </trkpt>
      <trkpt lat="45.88472" lon="4.65125">
        <ele>294</ele>
        <time>2018-08-14T09:23:42Z</time>
      </trkpt>
      <trkpt lat="45.88465" lon="4.65132">
        <ele>294</ele>
        <time>2018-08-14T09:23:46Z</time>
      </trkpt>
      <trkpt lat="45.88464" lon="4.65134">
        <ele>294</ele>
        <time>2018-08-14T09:23:47Z</time>
      </trkpt>
      <trkpt lat="45.88457" lon="4.65142">
        <ele>294</ele>
        <time>2018-08-14T09:23:51Z</time>
      </trkpt>
      <trkpt lat="45.88456" lon="4.65144">
        <ele>295</ele>
        <time>2018-08-14T09:23:52Z</time>
      </trkpt>
      <trkpt lat="45.8845" lon="4.65152">
        <ele>295</ele>
        <time>2018-08-14T09:23:56Z</time>
      </trkpt>
      <trkpt lat="45.88448" lon="4.65154">
        <ele>295</ele>
        <time>2018-08-14T09:23:57Z</time>
      </trkpt>
      <trkpt lat="45.88442" lon="4.65162">
        <ele>296</ele>
        <time>2018-08-14T09:24:01Z</time>
      </trkpt>
      <trkpt lat="45.88441" lon="4.65164">
        <ele>296</ele>
        <time>2018-08-14T09:24:02Z</time>
      </trkpt>
      <trkpt lat="45.88435" lon="4.6517">
        <ele>298</ele>
        <time>2018-08-14T09:24:05Z</time>
      </trkpt>
      <trkpt lat="45.88433" lon="4.65171">
        <ele>298</ele>
        <time>2018-08-14T09:24:06Z</time>
      </trkpt>
      <trkpt lat="45.88426" lon="4.65178">
        <ele>298</ele>
        <time>2018-08-14T09:24:10Z</time>
      </trkpt>
      <trkpt lat="45.88424" lon="4.65179">
        <ele>298</ele>
        <time>2018-08-14T09:24:11Z</time>
      </trkpt>
      <trkpt lat="45.88417" lon="4.65185">
        <ele>298</ele>
        <time>2018-08-14T09:24:15Z</time>
      </trkpt>
      <trkpt lat="45.88415" lon="4.65186">
        <ele>299</ele>
        <time>2018-08-14T09:24:16Z</time>
      </trkpt>
      <trkpt lat="45.88408" lon="4.65193">
        <ele>299</ele>
        <time>2018-08-14T09:24:20Z</time>
      </trkpt>
      <trkpt lat="45.88407" lon="4.65195">
        <ele>299</ele>
        <time>2018-08-14T09:24:21Z</time>
      </trkpt>
      <trkpt lat="45.88401" lon="4.65202">
        <ele>300</ele>
        <time>2018-08-14T09:24:25Z</time>
      </trkpt>
      <trkpt lat="45.88399" lon="4.65204">
        <ele>300</ele>
        <time>2018-08-14T09:24:26Z</time>
      </trkpt>
      <trkpt lat="45.88393" lon="4.65212">
        <ele>300</ele>
        <time>2018-08-14T09:24:30Z</time>
      </trkpt>
      <trkpt lat="45.8839" lon="4.65214">
        <ele>300</ele>
        <time>2018-08-14T09:24:31Z</time>
      </trkpt>
      <trkpt lat="45.88383" lon="4.6522">
        <ele>300</ele>
        <time>2018-08-14T09:24:35Z</time>
      </trkpt>
      <trkpt lat="45.88381" lon="4.65222">
        <ele>300</ele>
        <time>2018-08-14T09:24:36Z</time>
      </trkpt>
      <trkpt lat="45.88374" lon="4.65228">
        <ele>300</ele>
        <time>2018-08-14T09:24:40Z</time>
      </trkpt>
      <trkpt lat="45.88373" lon="4.65229">
        <ele>300</ele>
        <time>2018-08-14T09:24:41Z</time>
      </trkpt>
      <trkpt lat="45.88366" lon="4.65237">
        <ele>300</ele>
        <time>2018-08-14T09:24:45Z</time>
      </trkpt>
      <trkpt lat="45.88365" lon="4.6524">
        <ele>300</ele>
        <time>2018-08-14T09:24:46Z</time>
      </trkpt>
      <trkpt lat="45.88358" lon="4.65248">
        <ele>300</ele>
        <time>2018-08-14T09:24:50Z</time>
      </trkpt>
      <trkpt lat="45.88356" lon="4.65249">
        <ele>300</ele>
        <time>2018-08-14T09:24:51Z</time>
      </trkpt>
      <trkpt lat="45.88349" lon="4.65257">
        <ele>301</ele>
        <time>2018-08-14T09:24:55Z</time>
      </trkpt>
      <trkpt lat="45.88347" lon="4.65259">
        <ele>301</ele>
        <time>2018-08-14T09:24:56Z</time>
      </trkpt>
      <trkpt lat="45.8834" lon="4.65267">
        <ele>301</ele>
        <time>2018-08-14T09:25:00Z</time>
      </trkpt>
      <trkpt lat="45.88339" lon="4.65269">
        <ele>301</ele>
        <time>2018-08-14T09:25:01Z</time>
      </trkpt>
      <trkpt lat="45.88333" lon="4.65275">
        <ele>302</ele>
        <time>2018-08-14T09:25:05Z</time>
      </trkpt>
      <trkpt lat="45.88332" lon="4.65277">
        <ele>303</ele>
        <time>2018-08-14T09:25:06Z</time>
      </trkpt>
      <trkpt lat="45.88325" lon="4.65283">
        <ele>304</ele>
        <time>2018-08-14T09:25:10Z</time>
      </trkpt>
      <trkpt lat="45.88324" lon="4.65284">
        <ele>304</ele>
        <time>2018-08-14T09:25:11Z</time>
      </trkpt>
      <trkpt lat="45.88318" lon="4.65292">
        <ele>304</ele>
        <time>2018-08-14T09:25:15Z</time>
      </trkpt>
      <trkpt lat="45.88316" lon="4.65294">
        <ele>304</ele>
        <time>2018-08-14T09:25:16Z</time>
      </trkpt>
      <trkpt lat="45.88312" lon="4.65303">
        <ele>305</ele>
        <time>2018-08-14T09:25:20Z</time>
      </trkpt>
      <trkpt lat="45.8831" lon="4.65306">
        <ele>305</ele>
        <time>2018-08-14T09:25:21Z</time>
      </trkpt>
      <trkpt lat="45.88305" lon="4.65314">
        <ele>305</ele>
        <time>2018-08-14T09:25:25Z</time>
      </trkpt>
      <trkpt lat="45.88304" lon="4.65316">
        <ele>305</ele>
        <time>2018-08-14T09:25:26Z</time>
      </trkpt>
      <trkpt lat="45.88299" lon="4.65324">
        <ele>305</ele>
        <time>2018-08-14T09:25:30Z</time>
      </trkpt>
      <trkpt lat="45.88297" lon="4.65327">
        <ele>305</ele>
        <time>2018-08-14T09:25:31Z</time>
      </trkpt>
      <trkpt lat="45.88294" lon="4.65336">
        <ele>307</ele>
        <time>2018-08-14T09:25:34Z</time>
      </trkpt>
      <trkpt lat="45.88293" lon="4.65339">
        <ele>307</ele>
        <time>2018-08-14T09:25:35Z</time>
      </trkpt>
      <trkpt lat="45.8829" lon="4.65349">
        <ele>307</ele>
        <time>2018-08-14T09:25:38Z</time>
      </trkpt>
      <trkpt lat="45.8829" lon="4.65353">
        <ele>307</ele>
        <time>2018-08-14T09:25:39Z</time>
      </trkpt>
      <trkpt lat="45.88287" lon="4.65364">
        <ele>308</ele>
        <time>2018-08-14T09:25:42Z</time>
      </trkpt>
      <trkpt lat="45.88286" lon="4.65367">
        <ele>308</ele>
        <time>2018-08-14T09:25:43Z</time>
      </trkpt>
      <trkpt lat="45.88283" lon="4.65375">
        <ele>308</ele>
        <time>2018-08-14T09:25:46Z</time>
      </trkpt>
      <trkpt lat="45.88282" lon="4.65378">
        <ele>308</ele>
        <time>2018-08-14T09:25:47Z</time>
      </trkpt>
      <trkpt lat="45.88278" lon="4.65389">
        <ele>308</ele>
        <time>2018-08-14T09:25:51Z</time>
      </trkpt>
      <trkpt lat="45.88278" lon="4.65392">
        <ele>308</ele>
        <time>2018-08-14T09:25:52Z</time>
      </trkpt>
      <trkpt lat="45.88275" lon="4.65403">
        <ele>309</ele>
        <time>2018-08-14T09:25:56Z</time>
      </trkpt>
      <trkpt lat="45.88274" lon="4.65406">
        <ele>309</ele>
        <time>2018-08-14T09:25:57Z</time>
      </trkpt>
      <trkpt lat="45.8827" lon="4.65415">
        <ele>309</ele>
        <time>2018-08-14T09:26:01Z</time>
      </trkpt>
      <trkpt lat="45.88269" lon="4.65418">
        <ele>311</ele>
        <time>2018-08-14T09:26:02Z</time>
      </trkpt>
      <trkpt lat="45.88265" lon="4.65428">
        <ele>311</ele>
        <time>2018-08-14T09:26:06Z</time>
      </trkpt>
      <trkpt lat="45.88264" lon="4.65431">
        <ele>311</ele>
        <time>2018-08-14T09:26:07Z</time>
      </trkpt>
      <trkpt lat="45.8826" lon="4.6544">
        <ele>311</ele>
        <time>2018-08-14T09:26:11Z</time>
      </trkpt>
      <trkpt lat="45.88259" lon="4.65443">
        <ele>311</ele>
        <time>2018-08-14T09:26:12Z</time>
      </trkpt>
      <trkpt lat="45.88255" lon="4.65454">
        <ele>311</ele>
        <time>2018-08-14T09:26:17Z</time>
      </trkpt>
      <trkpt lat="45.88254" lon="4.65456">
        <ele>311</ele>
        <time>2018-08-14T09:26:18Z</time>
      </trkpt>
      <trkpt lat="45.8825" lon="4.65467">
        <ele>316</ele>
        <time>2018-08-14T09:26:23Z</time>
      </trkpt>
      <trkpt lat="45.88249" lon="4.65469">
        <ele>316</ele>
        <time>2018-08-14T09:26:24Z</time>
      </trkpt>
      <trkpt lat="45.88246" lon="4.65478">
        <ele>316</ele>
        <time>2018-08-14T09:26:28Z</time>
      </trkpt>
      <trkpt lat="45.88245" lon="4.65481">
        <ele>316</ele>
        <time>2018-08-14T09:26:29Z</time>
      </trkpt>
      <trkpt lat="45.88243" lon="4.65493">
        <ele>316</ele>
        <time>2018-08-14T09:26:33Z</time>
      </trkpt>
      <trkpt lat="45.88242" lon="4.65496">
        <ele>316</ele>
        <time>2018-08-14T09:26:34Z</time>
      </trkpt>
      <trkpt lat="45.88238" lon="4.65506">
        <ele>317</ele>
        <time>2018-08-14T09:26:38Z</time>
      </trkpt>
      <trkpt lat="45.88238" lon="4.65509">
        <ele>318</ele>
        <time>2018-08-14T09:26:39Z</time>
      </trkpt>
      <trkpt lat="45.88235" lon="4.65521">
        <ele>319</ele>
        <time>2018-08-14T09:26:44Z</time>
      </trkpt>
      <trkpt lat="45.88234" lon="4.65523">
        <ele>319</ele>
        <time>2018-08-14T09:26:45Z</time>
      </trkpt>
      <trkpt lat="45.8823" lon="4.65532">
        <ele>319</ele>
        <time>2018-08-14T09:26:49Z</time>
      </trkpt>
      <trkpt lat="45.8823" lon="4.65535">
        <ele>320</ele>
        <time>2018-08-14T09:26:50Z</time>
      </trkpt>
      <trkpt lat="45.88226" lon="4.65545">
        <ele>320</ele>
        <time>2018-08-14T09:26:54Z</time>
      </trkpt>
      <trkpt lat="45.88225" lon="4.65548">
        <ele>320</ele>
        <time>2018-08-14T09:26:55Z</time>
      </trkpt>
      <trkpt lat="45.88222" lon="4.6556">
        <ele>320</ele>
        <time>2018-08-14T09:26:59Z</time>
      </trkpt>
      <trkpt lat="45.88221" lon="4.65563">
        <ele>320</ele>
        <time>2018-08-14T09:27:00Z</time>
      </trkpt>
      <trkpt lat="45.88218" lon="4.65573">
        <ele>320</ele>
        <time>2018-08-14T09:27:04Z</time>
      </trkpt>
      <trkpt lat="45.88217" lon="4.65576">
        <ele>321</ele>
        <time>2018-08-14T09:27:05Z</time>
      </trkpt>
      <trkpt lat="45.88213" lon="4.65586">
        <ele>321</ele>
        <time>2018-08-14T09:27:09Z</time>
      </trkpt>
      <trkpt lat="45.88212" lon="4.65589">
        <ele>321</ele>
        <time>2018-08-14T09:27:10Z</time>
      </trkpt>
      <trkpt lat="45.88209" lon="4.65599">
        <ele>321</ele>
        <time>2018-08-14T09:27:14Z</time>
      </trkpt>
      <trkpt lat="45.88208" lon="4.65601">
        <ele>321</ele>
        <time>2018-08-14T09:27:15Z</time>
      </trkpt>
      <trkpt lat="45.88204" lon="4.65611">
        <ele>321</ele>
        <time>2018-08-14T09:27:19Z</time>
      </trkpt>
      <trkpt lat="45.88203" lon="4.65614">
        <ele>321</ele>
        <time>2018-08-14T09:27:20Z</time>
      </trkpt>
      <trkpt lat="45.88199" lon="4.65624">
        <ele>321</ele>
        <time>2018-08-14T09:27:24Z</time>
      </trkpt>
      <trkpt lat="45.88198" lon="4.65627">
        <ele>322</ele>
        <time>2018-08-14T09:27:25Z</time>
      </trkpt>
      <trkpt lat="45.88194" lon="4.65636">
        <ele>322</ele>
        <time>2018-08-14T09:27:29Z</time>
      </trkpt>
      <trkpt lat="45.88193" lon="4.65638">
        <ele>322</ele>
        <time>2018-08-14T09:27:30Z</time>
      </trkpt>
      <trkpt lat="45.8819" lon="4.65647">
        <ele>322</ele>
        <time>2018-08-14T09:27:34Z</time>
      </trkpt>
      <trkpt lat="45.88188" lon="4.65649">
        <ele>322</ele>
        <time>2018-08-14T09:27:35Z</time>
      </trkpt>
      <trkpt lat="45.88182" lon="4.65658">
        <ele>323</ele>
        <time>2018-08-14T09:27:40Z</time>
      </trkpt>
      <trkpt lat="45.88181" lon="4.6566">
        <ele>323</ele>
        <time>2018-08-14T09:27:41Z</time>
      </trkpt>
      <trkpt lat="45.88175" lon="4.6567">
        <ele>323</ele>
        <time>2018-08-14T09:27:46Z</time>
      </trkpt>
      <trkpt lat="45.88174" lon="4.65672">
        <ele>323</ele>
        <time>2018-08-14T09:27:47Z</time>
      </trkpt>
      <trkpt lat="45.8817" lon="4.65681">
        <ele>323</ele>
        <time>2018-08-14T09:27:51Z</time>
      </trkpt>
      <trkpt lat="45.88169" lon="4.65683">
        <ele>323</ele>
        <time>2018-08-14T09:27:52Z</time>
      </trkpt>
      <trkpt lat="45.88165" lon="4.6569">
        <ele>330</ele>
        <time>2018-08-14T09:27:55Z</time>
      </trkpt>
      <trkpt lat="45.88163" lon="4.65693">
        <ele>330</ele>
        <time>2018-08-14T09:27:56Z</time>
      </trkpt>
      <trkpt lat="45.88159" lon="4.65702">
        <ele>331</ele>
        <time>2018-08-14T09:27:59Z</time>
      </trkpt>
      <trkpt lat="45.88157" lon="4.65704">
        <ele>331</ele>
        <time>2018-08-14T09:28:00Z</time>
      </trkpt>
      <trkpt lat="45.88154" lon="4.65713">
        <ele>331</ele>
        <time>2018-08-14T09:28:03Z</time>
      </trkpt>
      <trkpt lat="45.88153" lon="4.65716">
        <ele>331</ele>
        <time>2018-08-14T09:28:04Z</time>
      </trkpt>
      <trkpt lat="45.88149" lon="4.65725">
        <ele>331</ele>
        <time>2018-08-14T09:28:07Z</time>
      </trkpt>
      <trkpt lat="45.88148" lon="4.65728">
        <ele>331</ele>
        <time>2018-08-14T09:28:08Z</time>
      </trkpt>
      <trkpt lat="45.88141" lon="4.65735">
        <ele>332</ele>
        <time>2018-08-14T09:28:12Z</time>
      </trkpt>
      <trkpt lat="45.88139" lon="4.65737">
        <ele>332</ele>
        <time>2018-08-14T09:28:13Z</time>
      </trkpt>
      <trkpt lat="45.88132" lon="4.65742">
        <ele>333</ele>
        <time>2018-08-14T09:28:17Z</time>
      </trkpt>
      <trkpt lat="45.8813" lon="4.65744">
        <ele>333</ele>
        <time>2018-08-14T09:28:18Z</time>
      </trkpt>
      <trkpt lat="45.88123" lon="4.65749">
        <ele>335</ele>
        <time>2018-08-14T09:28:21Z</time>
      </trkpt>
      <trkpt lat="45.88121" lon="4.65751">
        <ele>334</ele>
        <time>2018-08-14T09:28:22Z</time>
      </trkpt>
      <trkpt lat="45.88114" lon="4.65759">
        <ele>335</ele>
        <time>2018-08-14T09:28:25Z</time>
      </trkpt>
      <trkpt lat="45.88112" lon="4.65761">
        <ele>335</ele>
        <time>2018-08-14T09:28:26Z</time>
      </trkpt>
      <trkpt lat="45.88106" lon="4.65767">
        <ele>335</ele>
        <time>2018-08-14T09:28:29Z</time>
      </trkpt>
      <trkpt lat="45.88104" lon="4.65769">
        <ele>336</ele>
        <time>2018-08-14T09:28:30Z</time>
      </trkpt>
      <trkpt lat="45.88097" lon="4.65776">
        <ele>336</ele>
        <time>2018-08-14T09:28:33Z</time>
      </trkpt>
      <trkpt lat="45.88096" lon="4.65777">
        <ele>336</ele>
        <time>2018-08-14T09:28:34Z</time>
      </trkpt>
      <trkpt lat="45.88089" lon="4.65784">
        <ele>335</ele>
        <time>2018-08-14T09:28:38Z</time>
      </trkpt>
      <trkpt lat="45.88087" lon="4.65786">
        <ele>335</ele>
        <time>2018-08-14T09:28:39Z</time>
      </trkpt>
      <trkpt lat="45.88079" lon="4.65791">
        <ele>342</ele>
        <time>2018-08-14T09:28:42Z</time>
      </trkpt>
      <trkpt lat="45.88077" lon="4.65793">
        <ele>342</ele>
        <time>2018-08-14T09:28:43Z</time>
      </trkpt>
      <trkpt lat="45.8807" lon="4.65798">
        <ele>342</ele>
        <time>2018-08-14T09:28:46Z</time>
      </trkpt>
      <trkpt lat="45.88068" lon="4.658">
        <ele>342</ele>
        <time>2018-08-14T09:28:47Z</time>
      </trkpt>
      <trkpt lat="45.88061" lon="4.65807">
        <ele>342</ele>
        <time>2018-08-14T09:28:50Z</time>
      </trkpt>
      <trkpt lat="45.88059" lon="4.65809">
        <ele>342</ele>
        <time>2018-08-14T09:28:51Z</time>
      </trkpt>
      <trkpt lat="45.88053" lon="4.65815">
        <ele>342</ele>
        <time>2018-08-14T09:28:54Z</time>
      </trkpt>
      <trkpt lat="45.88051" lon="4.65817">
        <ele>342</ele>
        <time>2018-08-14T09:28:55Z</time>
      </trkpt>
      <trkpt lat="45.88045" lon="4.65823">
        <ele>342</ele>
        <time>2018-08-14T09:28:58Z</time>
      </trkpt>
      <trkpt lat="45.88043" lon="4.65826">
        <ele>343</ele>
        <time>2018-08-14T09:28:59Z</time>
      </trkpt>
      <trkpt lat="45.88037" lon="4.65832">
        <ele>343</ele>
        <time>2018-08-14T09:29:02Z</time>
      </trkpt>
      <trkpt lat="45.88035" lon="4.65834">
        <ele>338</ele>
        <time>2018-08-14T09:29:03Z</time>
      </trkpt>
      <trkpt lat="45.88028" lon="4.6584">
        <ele>339</ele>
        <time>2018-08-14T09:29:06Z</time>
      </trkpt>
      <trkpt lat="45.88019" lon="4.65847">
        <ele>339</ele>
        <time>2018-08-14T09:29:07Z</time>
      </trkpt>
      <trkpt lat="45.88015" lon="4.65849">
        <ele>340</ele>
        <time>2018-08-14T09:29:09Z</time>
      </trkpt>
      <trkpt lat="45.88009" lon="4.65853">
        <ele>340</ele>
        <time>2018-08-14T09:29:10Z</time>
      </trkpt>
      <trkpt lat="45.88001" lon="4.65857">
        <ele>339</ele>
        <time>2018-08-14T09:29:13Z</time>
      </trkpt>
      <trkpt lat="45.88" lon="4.65858">
        <ele>344</ele>
        <time>2018-08-14T09:29:14Z</time>
      </trkpt>
      <trkpt lat="45.87994" lon="4.65863">
        <ele>344</ele>
        <time>2018-08-14T09:29:17Z</time>
      </trkpt>
      <trkpt lat="45.87991" lon="4.65865">
        <ele>344</ele>
        <time>2018-08-14T09:29:18Z</time>
      </trkpt>
      <trkpt lat="45.87983" lon="4.65872">
        <ele>343</ele>
        <time>2018-08-14T09:29:19Z</time>
      </trkpt>
      <trkpt lat="45.87976" lon="4.65879">
        <ele>343</ele>
        <time>2018-08-14T09:29:21Z</time>
      </trkpt>
      <trkpt lat="45.87975" lon="4.65881">
        <ele>343</ele>
        <time>2018-08-14T09:29:22Z</time>
      </trkpt>
      <trkpt lat="45.87969" lon="4.65888">
        <ele>343</ele>
        <time>2018-08-14T09:29:24Z</time>
      </trkpt>
      <trkpt lat="45.87964" lon="4.65893">
        <ele>343</ele>
        <time>2018-08-14T09:29:25Z</time>
      </trkpt>
      <trkpt lat="45.87959" lon="4.65899">
        <ele>343</ele>
        <time>2018-08-14T09:29:28Z</time>
      </trkpt>
      <trkpt lat="45.87957" lon="4.65902">
        <ele>343</ele>
        <time>2018-08-14T09:29:29Z</time>
      </trkpt>
      <trkpt lat="45.87952" lon="4.6591">
        <ele>343</ele>
        <time>2018-08-14T09:29:32Z</time>
      </trkpt>
      <trkpt lat="45.8795" lon="4.65913">
        <ele>343</ele>
        <time>2018-08-14T09:29:33Z</time>
      </trkpt>
      <trkpt lat="45.87945" lon="4.65923">
        <ele>341</ele>
        <time>2018-08-14T09:29:36Z</time>
      </trkpt>
      <trkpt lat="45.87943" lon="4.65926">
        <ele>341</ele>
        <time>2018-08-14T09:29:37Z</time>
      </trkpt>
      <trkpt lat="45.87936" lon="4.65935">
        <ele>341</ele>
        <time>2018-08-14T09:29:40Z</time>
      </trkpt>
      <trkpt lat="45.87935" lon="4.65939">
        <ele>341</ele>
        <time>2018-08-14T09:29:41Z</time>
      </trkpt>
      <trkpt lat="45.8793" lon="4.65948">
        <ele>341</ele>
        <time>2018-08-14T09:29:44Z</time>
      </trkpt>
      <trkpt lat="45.87929" lon="4.65951">
        <ele>341</ele>
        <time>2018-08-14T09:29:45Z</time>
      </trkpt>
      <trkpt lat="45.87925" lon="4.65961">
        <ele>341</ele>
        <time>2018-08-14T09:29:49Z</time>
      </trkpt>
      <trkpt lat="45.87924" lon="4.65964">
        <ele>341</ele>
        <time>2018-08-14T09:29:50Z</time>
      </trkpt>
      <trkpt lat="45.87923" lon="4.65974">
        <ele>341</ele>
        <time>2018-08-14T09:29:53Z</time>
      </trkpt>
      <trkpt lat="45.87923" lon="4.65977">
        <ele>341</ele>
        <time>2018-08-14T09:29:54Z</time>
      </trkpt>
      <trkpt lat="45.87922" lon="4.65987">
        <ele>342</ele>
        <time>2018-08-14T09:29:57Z</time>
      </trkpt>
      <trkpt lat="45.87922" lon="4.65991">
        <ele>342</ele>
        <time>2018-08-14T09:29:58Z</time>
      </trkpt>
      <trkpt lat="45.87921" lon="4.66003">
        <ele>343</ele>
        <time>2018-08-14T09:30:01Z</time>
      </trkpt>
      <trkpt lat="45.87921" lon="4.66007">
        <ele>342</ele>
        <time>2018-08-14T09:30:02Z</time>
      </trkpt>
      <trkpt lat="45.87921" lon="4.66019">
        <ele>342</ele>
        <time>2018-08-14T09:30:06Z</time>
      </trkpt>
      <trkpt lat="45.87921" lon="4.66022">
        <ele>342</ele>
        <time>2018-08-14T09:30:07Z</time>
      </trkpt>
      <trkpt lat="45.87922" lon="4.66034">
        <ele>342</ele>
        <time>2018-08-14T09:30:11Z</time>
      </trkpt>
      <trkpt lat="45.87922" lon="4.66037">
        <ele>342</ele>
        <time>2018-08-14T09:30:12Z</time>
      </trkpt>
      <trkpt lat="45.87922" lon="4.66047">
        <ele>342</ele>
        <time>2018-08-14T09:30:15Z</time>
      </trkpt>
      <trkpt lat="45.87921" lon="4.6605">
        <ele>342</ele>
        <time>2018-08-14T09:30:16Z</time>
      </trkpt>
      <trkpt lat="45.8792" lon="4.6606">
        <ele>343</ele>
        <time>2018-08-14T09:30:19Z</time>
      </trkpt>
      <trkpt lat="45.8792" lon="4.66063">
        <ele>343</ele>
        <time>2018-08-14T09:30:20Z</time>
      </trkpt>
      <trkpt lat="45.87921" lon="4.66073">
        <ele>343</ele>
        <time>2018-08-14T09:30:23Z</time>
      </trkpt>
      <trkpt lat="45.87922" lon="4.66076">
        <ele>343</ele>
        <time>2018-08-14T09:30:24Z</time>
      </trkpt>
      <trkpt lat="45.87923" lon="4.66088">
        <ele>345</ele>
        <time>2018-08-14T09:30:28Z</time>
      </trkpt>
      <trkpt lat="45.87923" lon="4.66091">
        <ele>345</ele>
        <time>2018-08-14T09:30:29Z</time>
      </trkpt>
      <trkpt lat="45.87924" lon="4.66103">
        <ele>346</ele>
        <time>2018-08-14T09:30:33Z</time>
      </trkpt>
      <trkpt lat="45.87923" lon="4.66106">
        <ele>346</ele>
        <time>2018-08-14T09:30:34Z</time>
      </trkpt>
      <trkpt lat="45.87923" lon="4.66117">
        <ele>347</ele>
        <time>2018-08-14T09:30:38Z</time>
      </trkpt>
      <trkpt lat="45.87923" lon="4.6612">
        <ele>347</ele>
        <time>2018-08-14T09:30:39Z</time>
      </trkpt>
      <trkpt lat="45.87927" lon="4.66131">
        <ele>348</ele>
        <time>2018-08-14T09:30:43Z</time>
      </trkpt>
      <trkpt lat="45.87929" lon="4.66133">
        <ele>348</ele>
        <time>2018-08-14T09:30:44Z</time>
      </trkpt>
      <trkpt lat="45.87937" lon="4.66138">
        <ele>349</ele>
        <time>2018-08-14T09:30:47Z</time>
      </trkpt>
      <trkpt lat="45.8794" lon="4.66139">
        <ele>349</ele>
        <time>2018-08-14T09:30:48Z</time>
      </trkpt>
      <trkpt lat="45.87949" lon="4.6614">
        <ele>348</ele>
        <time>2018-08-14T09:30:51Z</time>
      </trkpt>
      <trkpt lat="45.87952" lon="4.6614">
        <ele>348</ele>
        <time>2018-08-14T09:30:52Z</time>
      </trkpt>
      <trkpt lat="45.8796" lon="4.6614">
        <ele>348</ele>
        <time>2018-08-14T09:30:55Z</time>
      </trkpt>
      <trkpt lat="45.87963" lon="4.6614">
        <ele>348</ele>
        <time>2018-08-14T09:30:56Z</time>
      </trkpt>
      <trkpt lat="45.87971" lon="4.6614">
        <ele>348</ele>
        <time>2018-08-14T09:30:59Z</time>
      </trkpt>
      <trkpt lat="45.8798" lon="4.66141">
        <ele>348</ele>
        <time>2018-08-14T09:31:00Z</time>
      </trkpt>
      <trkpt lat="45.87988" lon="4.66142">
        <ele>348</ele>
        <time>2018-08-14T09:31:04Z</time>
      </trkpt>
      <trkpt lat="45.87996" lon="4.66142">
        <ele>348</ele>
        <time>2018-08-14T09:31:05Z</time>
      </trkpt>
      <trkpt lat="45.88003" lon="4.66142">
        <ele>348</ele>
        <time>2018-08-14T09:31:08Z</time>
      </trkpt>
      <trkpt lat="45.88006" lon="4.66142">
        <ele>348</ele>
        <time>2018-08-14T09:31:09Z</time>
      </trkpt>
      <trkpt lat="45.88013" lon="4.66142">
        <ele>348</ele>
        <time>2018-08-14T09:31:10Z</time>
      </trkpt>
      <trkpt lat="45.88015" lon="4.66143">
        <ele>348</ele>
        <time>2018-08-14T09:31:11Z</time>
      </trkpt>
      <trkpt lat="45.88024" lon="4.66143">
        <ele>348</ele>
        <time>2018-08-14T09:31:13Z</time>
      </trkpt>
      <trkpt lat="45.88028" lon="4.66142">
        <ele>348</ele>
        <time>2018-08-14T09:31:14Z</time>
      </trkpt>
      <trkpt lat="45.88035" lon="4.66141">
        <ele>348</ele>
        <time>2018-08-14T09:31:16Z</time>
      </trkpt>
      <trkpt lat="45.88039" lon="4.66141">
        <ele>348</ele>
        <time>2018-08-14T09:31:17Z</time>
      </trkpt>
      <trkpt lat="45.88046" lon="4.66141">
        <ele>348</ele>
        <time>2018-08-14T09:31:19Z</time>
      </trkpt>
      <trkpt lat="45.88048" lon="4.6614">
        <ele>348</ele>
        <time>2018-08-14T09:31:20Z</time>
      </trkpt>
      <trkpt lat="45.88055" lon="4.6614">
        <ele>348</ele>
        <time>2018-08-14T09:31:23Z</time>
      </trkpt>
      <trkpt lat="45.88058" lon="4.66139">
        <ele>348</ele>
        <time>2018-08-14T09:31:24Z</time>
      </trkpt>
      <trkpt lat="45.88061" lon="4.66139">
        <ele>348</ele>
        <time>2018-08-14T09:31:25Z</time>
      </trkpt>
      <trkpt lat="45.88069" lon="4.66138">
        <ele>348</ele>
        <time>2018-08-14T09:31:26Z</time>
      </trkpt>
      <trkpt lat="45.88078" lon="4.66136">
        <ele>348</ele>
        <time>2018-08-14T09:31:28Z</time>
      </trkpt>
      <trkpt lat="45.88082" lon="4.66135">
        <ele>348</ele>
        <time>2018-08-14T09:31:29Z</time>
      </trkpt>
      <trkpt lat="45.88089" lon="4.66133">
        <ele>349</ele>
        <time>2018-08-14T09:31:32Z</time>
      </trkpt>
      <trkpt lat="45.88092" lon="4.66133">
        <ele>349</ele>
        <time>2018-08-14T09:31:33Z</time>
      </trkpt>
      <trkpt lat="45.881" lon="4.66132">
        <ele>348</ele>
        <time>2018-08-14T09:31:36Z</time>
      </trkpt>
      <trkpt lat="45.88103" lon="4.66132">
        <ele>348</ele>
        <time>2018-08-14T09:31:37Z</time>
      </trkpt>
      <trkpt lat="45.88111" lon="4.66132">
        <ele>349</ele>
        <time>2018-08-14T09:31:38Z</time>
      </trkpt>
      <trkpt lat="45.88115" lon="4.66132">
        <ele>349</ele>
        <time>2018-08-14T09:31:39Z</time>
      </trkpt>
      <trkpt lat="45.88122" lon="4.66133">
        <ele>349</ele>
        <time>2018-08-14T09:31:41Z</time>
      </trkpt>
      <trkpt lat="45.88125" lon="4.66133">
        <ele>349</ele>
        <time>2018-08-14T09:31:42Z</time>
      </trkpt>
      <trkpt lat="45.88132" lon="4.66133">
        <ele>349</ele>
        <time>2018-08-14T09:31:45Z</time>
      </trkpt>
      <trkpt lat="45.88135" lon="4.66133">
        <ele>349</ele>
        <time>2018-08-14T09:31:46Z</time>
      </trkpt>
      <trkpt lat="45.88143" lon="4.66133">
        <ele>349</ele>
        <time>2018-08-14T09:31:49Z</time>
      </trkpt>
      <trkpt lat="45.88152" lon="4.66132">
        <ele>349</ele>
        <time>2018-08-14T09:31:50Z</time>
      </trkpt>
      <trkpt lat="45.88159" lon="4.6613">
        <ele>349</ele>
        <time>2018-08-14T09:31:52Z</time>
      </trkpt>
      <trkpt lat="45.88163" lon="4.6613">
        <ele>349</ele>
        <time>2018-08-14T09:31:53Z</time>
      </trkpt>
      <trkpt lat="45.8817" lon="4.66128">
        <ele>350</ele>
        <time>2018-08-14T09:31:56Z</time>
      </trkpt>
      <trkpt lat="45.88173" lon="4.66128">
        <ele>350</ele>
        <time>2018-08-14T09:31:57Z</time>
      </trkpt>
      <trkpt lat="45.8818" lon="4.66128">
        <ele>350</ele>
        <time>2018-08-14T09:32:00Z</time>
      </trkpt>
      <trkpt lat="45.88183" lon="4.66128">
        <ele>350</ele>
        <time>2018-08-14T09:32:01Z</time>
      </trkpt>
      <trkpt lat="45.88186" lon="4.66128">
        <ele>350</ele>
        <time>2018-08-14T09:32:02Z</time>
      </trkpt>
      <trkpt lat="45.88195" lon="4.66127">
        <ele>349</ele>
        <time>2018-08-14T09:32:03Z</time>
      </trkpt>
      <trkpt lat="45.88203" lon="4.66126">
        <ele>349</ele>
        <time>2018-08-14T09:32:06Z</time>
      </trkpt>
      <trkpt lat="45.88206" lon="4.66125">
        <ele>349</ele>
        <time>2018-08-14T09:32:07Z</time>
      </trkpt>
      <trkpt lat="45.88213" lon="4.66124">
        <ele>349</ele>
        <time>2018-08-14T09:32:10Z</time>
      </trkpt>
      <trkpt lat="45.88216" lon="4.66124">
        <ele>349</ele>
        <time>2018-08-14T09:32:11Z</time>
      </trkpt>
      <trkpt lat="45.88224" lon="4.66123">
        <ele>349</ele>
        <time>2018-08-14T09:32:14Z</time>
      </trkpt>
      <trkpt lat="45.88226" lon="4.66124">
        <ele>349</ele>
        <time>2018-08-14T09:32:15Z</time>
      </trkpt>
      <trkpt lat="45.88234" lon="4.66125">
        <ele>349</ele>
        <time>2018-08-14T09:32:18Z</time>
      </trkpt>
      <trkpt lat="45.88236" lon="4.66126">
        <ele>349</ele>
        <time>2018-08-14T09:32:19Z</time>
      </trkpt>
      <trkpt lat="45.88245" lon="4.66129">
        <ele>350</ele>
        <time>2018-08-14T09:32:22Z</time>
      </trkpt>
      <trkpt lat="45.88246" lon="4.66129">
        <ele>350</ele>
        <time>2018-08-14T09:32:23Z</time>
      </trkpt>
      <trkpt lat="45.88254" lon="4.6613">
        <ele>351</ele>
        <time>2018-08-14T09:32:26Z</time>
      </trkpt>
      <trkpt lat="45.88258" lon="4.6613">
        <ele>351</ele>
        <time>2018-08-14T09:32:27Z</time>
      </trkpt>
      <trkpt lat="45.88265" lon="4.66131">
        <ele>351</ele>
        <time>2018-08-14T09:32:29Z</time>
      </trkpt>
      <trkpt lat="45.88271" lon="4.66132">
        <ele>352</ele>
        <time>2018-08-14T09:32:30Z</time>
      </trkpt>
      <trkpt lat="45.88278" lon="4.66133">
        <ele>352</ele>
        <time>2018-08-14T09:32:32Z</time>
      </trkpt>
      <trkpt lat="45.88281" lon="4.66133">
        <ele>352</ele>
        <time>2018-08-14T09:32:33Z</time>
      </trkpt>
      <trkpt lat="45.8829" lon="4.66134">
        <ele>352</ele>
        <time>2018-08-14T09:32:36Z</time>
      </trkpt>
      <trkpt lat="45.88292" lon="4.66135">
        <ele>352</ele>
        <time>2018-08-14T09:32:37Z</time>
      </trkpt>
      <trkpt lat="45.883" lon="4.66136">
        <ele>353</ele>
        <time>2018-08-14T09:32:40Z</time>
      </trkpt>
      <trkpt lat="45.88303" lon="4.66137">
        <ele>353</ele>
        <time>2018-08-14T09:32:41Z</time>
      </trkpt>
      <trkpt lat="45.88311" lon="4.66137">
        <ele>353</ele>
        <time>2018-08-14T09:32:44Z</time>
      </trkpt>
      <trkpt lat="45.88314" lon="4.66137">
        <ele>353</ele>
        <time>2018-08-14T09:32:45Z</time>
      </trkpt>
      <trkpt lat="45.88323" lon="4.66137">
        <ele>354</ele>
        <time>2018-08-14T09:32:48Z</time>
      </trkpt>
      <trkpt lat="45.88326" lon="4.66136">
        <ele>354</ele>
        <time>2018-08-14T09:32:49Z</time>
      </trkpt>
      <trkpt lat="45.88334" lon="4.66136">
        <ele>356</ele>
        <time>2018-08-14T09:32:52Z</time>
      </trkpt>
      <trkpt lat="45.88336" lon="4.66136">
        <ele>356</ele>
        <time>2018-08-14T09:32:53Z</time>
      </trkpt>
      <trkpt lat="45.88343" lon="4.66138">
        <ele>356</ele>
        <time>2018-08-14T09:32:56Z</time>
      </trkpt>
      <trkpt lat="45.88345" lon="4.66138">
        <ele>356</ele>
        <time>2018-08-14T09:32:57Z</time>
      </trkpt>
      <trkpt lat="45.88352" lon="4.66139">
        <ele>357</ele>
        <time>2018-08-14T09:33:00Z</time>
      </trkpt>
      <trkpt lat="45.88355" lon="4.66139">
        <ele>357</ele>
        <time>2018-08-14T09:33:01Z</time>
      </trkpt>
      <trkpt lat="45.88362" lon="4.66139">
        <ele>357</ele>
        <time>2018-08-14T09:33:04Z</time>
      </trkpt>
      <trkpt lat="45.88364" lon="4.6614">
        <ele>357</ele>
        <time>2018-08-14T09:33:05Z</time>
      </trkpt>
      <trkpt lat="45.88371" lon="4.66141">
        <ele>357</ele>
        <time>2018-08-14T09:33:08Z</time>
      </trkpt>
      <trkpt lat="45.88373" lon="4.66141">
        <ele>357</ele>
        <time>2018-08-14T09:33:09Z</time>
      </trkpt>
      <trkpt lat="45.8838" lon="4.66141">
        <ele>357</ele>
        <time>2018-08-14T09:33:12Z</time>
      </trkpt>
      <trkpt lat="45.88382" lon="4.66141">
        <ele>357</ele>
        <time>2018-08-14T09:33:13Z</time>
      </trkpt>
      <trkpt lat="45.88389" lon="4.66139">
        <ele>357</ele>
        <time>2018-08-14T09:33:16Z</time>
      </trkpt>
      <trkpt lat="45.88392" lon="4.66138">
        <ele>357</ele>
        <time>2018-08-14T09:33:17Z</time>
      </trkpt>
      <trkpt lat="45.884" lon="4.66138">
        <ele>358</ele>
        <time>2018-08-14T09:33:21Z</time>
      </trkpt>
      <trkpt lat="45.88402" lon="4.66139">
        <ele>358</ele>
        <time>2018-08-14T09:33:22Z</time>
      </trkpt>
      <trkpt lat="45.8841" lon="4.66139">
        <ele>358</ele>
        <time>2018-08-14T09:33:26Z</time>
      </trkpt>
      <trkpt lat="45.88412" lon="4.66139">
        <ele>358</ele>
        <time>2018-08-14T09:33:27Z</time>
      </trkpt>
      <trkpt lat="45.8842" lon="4.66139">
        <ele>360</ele>
        <time>2018-08-14T09:33:31Z</time>
      </trkpt>
      <trkpt lat="45.88422" lon="4.66138">
        <ele>360</ele>
        <time>2018-08-14T09:33:32Z</time>
      </trkpt>
      <trkpt lat="45.88429" lon="4.66139">
        <ele>360</ele>
        <time>2018-08-14T09:33:36Z</time>
      </trkpt>
      <trkpt lat="45.88431" lon="4.6614">
        <ele>360</ele>
        <time>2018-08-14T09:33:37Z</time>
      </trkpt>
      <trkpt lat="45.8844" lon="4.6614">
        <ele>360</ele>
        <time>2018-08-14T09:33:42Z</time>
      </trkpt>
      <trkpt lat="45.88441" lon="4.6614">
        <ele>361</ele>
        <time>2018-08-14T09:33:43Z</time>
      </trkpt>
      <trkpt lat="45.88449" lon="4.66142">
        <ele>361</ele>
        <time>2018-08-14T09:33:47Z</time>
      </trkpt>
      <trkpt lat="45.8845" lon="4.66142">
        <ele>361</ele>
        <time>2018-08-14T09:33:48Z</time>
      </trkpt>
      <trkpt lat="45.88459" lon="4.66146">
        <ele>361</ele>
        <time>2018-08-14T09:33:53Z</time>
      </trkpt>
      <trkpt lat="45.8846" lon="4.66147">
        <ele>361</ele>
        <time>2018-08-14T09:33:54Z</time>
      </trkpt>
      <trkpt lat="45.88468" lon="4.66151">
        <ele>362</ele>
        <time>2018-08-14T09:33:59Z</time>
      </trkpt>
      <trkpt lat="45.8847" lon="4.66152">
        <ele>362</ele>
        <time>2018-08-14T09:34:00Z</time>
      </trkpt>
      <trkpt lat="45.88477" lon="4.66155">
        <ele>363</ele>
        <time>2018-08-14T09:34:04Z</time>
      </trkpt>
      <trkpt lat="45.88479" lon="4.66156">
        <ele>363</ele>
        <time>2018-08-14T09:34:05Z</time>
      </trkpt>
      <trkpt lat="45.88486" lon="4.6616">
        <ele>364</ele>
        <time>2018-08-14T09:34:09Z</time>
      </trkpt>
      <trkpt lat="45.88488" lon="4.66161">
        <ele>364</ele>
        <time>2018-08-14T09:34:10Z</time>
      </trkpt>
      <trkpt lat="45.88495" lon="4.66166">
        <ele>366</ele>
        <time>2018-08-14T09:34:14Z</time>
      </trkpt>
      <trkpt lat="45.88497" lon="4.66167">
        <ele>368</ele>
        <time>2018-08-14T09:34:15Z</time>
      </trkpt>
      <trkpt lat="45.88505" lon="4.66172">
        <ele>368</ele>
        <time>2018-08-14T09:34:19Z</time>
      </trkpt>
      <trkpt lat="45.88506" lon="4.66173">
        <ele>368</ele>
        <time>2018-08-14T09:34:20Z</time>
      </trkpt>
      <trkpt lat="45.88513" lon="4.66178">
        <ele>369</ele>
        <time>2018-08-14T09:34:24Z</time>
      </trkpt>
      <trkpt lat="45.88514" lon="4.66179">
        <ele>369</ele>
        <time>2018-08-14T09:34:25Z</time>
      </trkpt>
      <trkpt lat="45.88522" lon="4.66185">
        <ele>369</ele>
        <time>2018-08-14T09:34:30Z</time>
      </trkpt>
      <trkpt lat="45.88523" lon="4.66186">
        <ele>369</ele>
        <time>2018-08-14T09:34:31Z</time>
      </trkpt>
      <trkpt lat="45.88529" lon="4.66194">
        <ele>370</ele>
        <time>2018-08-14T09:34:37Z</time>
      </trkpt>
      <trkpt lat="45.8853" lon="4.66195">
        <ele>370</ele>
        <time>2018-08-14T09:34:38Z</time>
      </trkpt>
      <trkpt lat="45.88535" lon="4.66202">
        <ele>370</ele>
        <time>2018-08-14T09:34:41Z</time>
      </trkpt>
      <trkpt lat="45.88536" lon="4.66205">
        <ele>370</ele>
        <time>2018-08-14T09:34:42Z</time>
      </trkpt>
      <trkpt lat="45.88542" lon="4.66212">
        <ele>370</ele>
        <time>2018-08-14T09:34:46Z</time>
      </trkpt>
      <trkpt lat="45.88544" lon="4.66214">
        <ele>370</ele>
        <time>2018-08-14T09:34:47Z</time>
      </trkpt>
      <trkpt lat="45.88551" lon="4.6622">
        <ele>370</ele>
        <time>2018-08-14T09:34:51Z</time>
      </trkpt>
      <trkpt lat="45.88554" lon="4.66222">
        <ele>370</ele>
        <time>2018-08-14T09:34:52Z</time>
      </trkpt>
      <trkpt lat="45.88562" lon="4.66227">
        <ele>370</ele>
        <time>2018-08-14T09:34:56Z</time>
      </trkpt>
      <trkpt lat="45.88563" lon="4.66229">
        <ele>370</ele>
        <time>2018-08-14T09:34:57Z</time>
      </trkpt>
      <trkpt lat="45.88568" lon="4.66235">
        <ele>371</ele>
        <time>2018-08-14T09:35:00Z</time>
      </trkpt>
      <trkpt lat="45.8857" lon="4.66238">
        <ele>371</ele>
        <time>2018-08-14T09:35:01Z</time>
      </trkpt>
      <trkpt lat="45.88576" lon="4.66244">
        <ele>371</ele>
        <time>2018-08-14T09:35:04Z</time>
      </trkpt>
      <trkpt lat="45.88577" lon="4.66245">
        <ele>371</ele>
        <time>2018-08-14T09:35:05Z</time>
      </trkpt>
      <trkpt lat="45.88584" lon="4.66252">
        <ele>371</ele>
        <time>2018-08-14T09:35:09Z</time>
      </trkpt>
      <trkpt lat="45.88586" lon="4.66254">
        <ele>371</ele>
        <time>2018-08-14T09:35:10Z</time>
      </trkpt>
      <trkpt lat="45.88591" lon="4.66262">
        <ele>372</ele>
        <time>2018-08-14T09:35:13Z</time>
      </trkpt>
      <trkpt lat="45.88593" lon="4.66265">
        <ele>372</ele>
        <time>2018-08-14T09:35:14Z</time>
      </trkpt>
      <trkpt lat="45.88598" lon="4.66273">
        <ele>372</ele>
        <time>2018-08-14T09:35:17Z</time>
      </trkpt>
      <trkpt lat="45.886" lon="4.66276">
        <ele>372</ele>
        <time>2018-08-14T09:35:18Z</time>
      </trkpt>
      <trkpt lat="45.88605" lon="4.66283">
        <ele>372</ele>
        <time>2018-08-14T09:35:21Z</time>
      </trkpt>
      <trkpt lat="45.88607" lon="4.66285">
        <ele>372</ele>
        <time>2018-08-14T09:35:22Z</time>
      </trkpt>
      <trkpt lat="45.88611" lon="4.66292">
        <ele>373</ele>
        <time>2018-08-14T09:35:25Z</time>
      </trkpt>
      <trkpt lat="45.88613" lon="4.66294">
        <ele>373</ele>
        <time>2018-08-14T09:35:26Z</time>
      </trkpt>
      <trkpt lat="45.88619" lon="4.66304">
        <ele>373</ele>
        <time>2018-08-14T09:35:30Z</time>
      </trkpt>
      <trkpt lat="45.8862" lon="4.66306">
        <ele>373</ele>
        <time>2018-08-14T09:35:31Z</time>
      </trkpt>
      <trkpt lat="45.88624" lon="4.66315">
        <ele>373</ele>
        <time>2018-08-14T09:35:34Z</time>
      </trkpt>
      <trkpt lat="45.88625" lon="4.66318">
        <ele>373</ele>
        <time>2018-08-14T09:35:35Z</time>
      </trkpt>
      <trkpt lat="45.8863" lon="4.66327">
        <ele>373</ele>
        <time>2018-08-14T09:35:38Z</time>
      </trkpt>
      <trkpt lat="45.88632" lon="4.6633">
        <ele>373</ele>
        <time>2018-08-14T09:35:39Z</time>
      </trkpt>
      <trkpt lat="45.88637" lon="4.66339">
        <ele>379</ele>
        <time>2018-08-14T09:35:42Z</time>
      </trkpt>
      <trkpt lat="45.88639" lon="4.66341">
        <ele>379</ele>
        <time>2018-08-14T09:35:43Z</time>
      </trkpt>
      <trkpt lat="45.88644" lon="4.66349">
        <ele>379</ele>
        <time>2018-08-14T09:35:46Z</time>
      </trkpt>
      <trkpt lat="45.88646" lon="4.66352">
        <ele>379</ele>
        <time>2018-08-14T09:35:47Z</time>
      </trkpt>
      <trkpt lat="45.8865" lon="4.66359">
        <ele>379</ele>
        <time>2018-08-14T09:35:50Z</time>
      </trkpt>
      <trkpt lat="45.88652" lon="4.66362">
        <ele>380</ele>
        <time>2018-08-14T09:35:51Z</time>
      </trkpt>
      <trkpt lat="45.88658" lon="4.66368">
        <ele>380</ele>
        <time>2018-08-14T09:35:54Z</time>
      </trkpt>
      <trkpt lat="45.88659" lon="4.6637">
        <ele>380</ele>
        <time>2018-08-14T09:35:55Z</time>
      </trkpt>
      <trkpt lat="45.88665" lon="4.66377">
        <ele>381</ele>
        <time>2018-08-14T09:35:58Z</time>
      </trkpt>
      <trkpt lat="45.88667" lon="4.66379">
        <ele>377</ele>
        <time>2018-08-14T09:35:59Z</time>
      </trkpt>
      <trkpt lat="45.88672" lon="4.66385">
        <ele>377</ele>
        <time>2018-08-14T09:36:02Z</time>
      </trkpt>
      <trkpt lat="45.88674" lon="4.66388">
        <ele>377</ele>
        <time>2018-08-14T09:36:03Z</time>
      </trkpt>
      <trkpt lat="45.88679" lon="4.66394">
        <ele>378</ele>
        <time>2018-08-14T09:36:06Z</time>
      </trkpt>
      <trkpt lat="45.88681" lon="4.66396">
        <ele>378</ele>
        <time>2018-08-14T09:36:07Z</time>
      </trkpt>
      <trkpt lat="45.88686" lon="4.66402">
        <ele>378</ele>
        <time>2018-08-14T09:36:10Z</time>
      </trkpt>
      <trkpt lat="45.88688" lon="4.66404">
        <ele>378</ele>
        <time>2018-08-14T09:36:11Z</time>
      </trkpt>
      <trkpt lat="45.88694" lon="4.66409">
        <ele>378</ele>
        <time>2018-08-14T09:36:14Z</time>
      </trkpt>
      <trkpt lat="45.88696" lon="4.66411">
        <ele>378</ele>
        <time>2018-08-14T09:36:15Z</time>
      </trkpt>
      <trkpt lat="45.88702" lon="4.66415">
        <ele>378</ele>
        <time>2018-08-14T09:36:18Z</time>
      </trkpt>
      <trkpt lat="45.88704" lon="4.66417">
        <ele>383</ele>
        <time>2018-08-14T09:36:19Z</time>
      </trkpt>
      <trkpt lat="45.8871" lon="4.66423">
        <ele>383</ele>
        <time>2018-08-14T09:36:22Z</time>
      </trkpt>
      <trkpt lat="45.88712" lon="4.66424">
        <ele>383</ele>
        <time>2018-08-14T09:36:23Z</time>
      </trkpt>
      <trkpt lat="45.88719" lon="4.66431">
        <ele>383</ele>
        <time>2018-08-14T09:36:27Z</time>
      </trkpt>
      <trkpt lat="45.88721" lon="4.66432">
        <ele>383</ele>
        <time>2018-08-14T09:36:28Z</time>
      </trkpt>
      <trkpt lat="45.88727" lon="4.66437">
        <ele>383</ele>
        <time>2018-08-14T09:36:31Z</time>
      </trkpt>
      <trkpt lat="45.88729" lon="4.66439">
        <ele>383</ele>
        <time>2018-08-14T09:36:32Z</time>
      </trkpt>
      <trkpt lat="45.88735" lon="4.66446">
        <ele>383</ele>
        <time>2018-08-14T09:36:35Z</time>
      </trkpt>
      <trkpt lat="45.88737" lon="4.66448">
        <ele>383</ele>
        <time>2018-08-14T09:36:36Z</time>
      </trkpt>
      <trkpt lat="45.88742" lon="4.66455">
        <ele>384</ele>
        <time>2018-08-14T09:36:39Z</time>
      </trkpt>
      <trkpt lat="45.88744" lon="4.66457">
        <ele>384</ele>
        <time>2018-08-14T09:36:40Z</time>
      </trkpt>
      <trkpt lat="45.8875" lon="4.66463">
        <ele>384</ele>
        <time>2018-08-14T09:36:43Z</time>
      </trkpt>
      <trkpt lat="45.88751" lon="4.66465">
        <ele>382</ele>
        <time>2018-08-14T09:36:44Z</time>
      </trkpt>
      <trkpt lat="45.88758" lon="4.66473">
        <ele>383</ele>
        <time>2018-08-14T09:36:48Z</time>
      </trkpt>
      <trkpt lat="45.88759" lon="4.66475">
        <ele>383</ele>
        <time>2018-08-14T09:36:49Z</time>
      </trkpt>
      <trkpt lat="45.88766" lon="4.66483">
        <ele>383</ele>
        <time>2018-08-14T09:36:53Z</time>
      </trkpt>
      <trkpt lat="45.88767" lon="4.66485">
        <ele>383</ele>
        <time>2018-08-14T09:36:54Z</time>
      </trkpt>
      <trkpt lat="45.88773" lon="4.66492">
        <ele>383</ele>
        <time>2018-08-14T09:36:58Z</time>
      </trkpt>
      <trkpt lat="45.88775" lon="4.66494">
        <ele>383</ele>
        <time>2018-08-14T09:36:59Z</time>
      </trkpt>
      <trkpt lat="45.8878" lon="4.66501">
        <ele>389</ele>
        <time>2018-08-14T09:37:03Z</time>
      </trkpt>
      <trkpt lat="45.88781" lon="4.66503">
        <ele>389</ele>
        <time>2018-08-14T09:37:04Z</time>
      </trkpt>
      <trkpt lat="45.88788" lon="4.66511">
        <ele>390</ele>
        <time>2018-08-14T09:37:09Z</time>
      </trkpt>
      <trkpt lat="45.88789" lon="4.66513">
        <ele>390</ele>
        <time>2018-08-14T09:37:10Z</time>
      </trkpt>
      <trkpt lat="45.88796" lon="4.66521">
        <ele>390</ele>
        <time>2018-08-14T09:37:15Z</time>
      </trkpt>
      <trkpt lat="45.88797" lon="4.66522">
        <ele>390</ele>
        <time>2018-08-14T09:37:16Z</time>
      </trkpt>
      <trkpt lat="45.88803" lon="4.66529">
        <ele>390</ele>
        <time>2018-08-14T09:37:20Z</time>
      </trkpt>
      <trkpt lat="45.88805" lon="4.6653">
        <ele>390</ele>
        <time>2018-08-14T09:37:21Z</time>
      </trkpt>
      <trkpt lat="45.88812" lon="4.66536">
        <ele>391</ele>
        <time>2018-08-14T09:37:25Z</time>
      </trkpt>
      <trkpt lat="45.88814" lon="4.66538">
        <ele>391</ele>
        <time>2018-08-14T09:37:26Z</time>
      </trkpt>
      <trkpt lat="45.88821" lon="4.66543">
        <ele>391</ele>
        <time>2018-08-14T09:37:30Z</time>
      </trkpt>
      <trkpt lat="45.88823" lon="4.66544">
        <ele>391</ele>
        <time>2018-08-14T09:37:31Z</time>
      </trkpt>
      <trkpt lat="45.8883" lon="4.66551">
        <ele>392</ele>
        <time>2018-08-14T09:37:35Z</time>
      </trkpt>
      <trkpt lat="45.88832" lon="4.66552">
        <ele>392</ele>
        <time>2018-08-14T09:37:36Z</time>
      </trkpt>
      <trkpt lat="45.88839" lon="4.66557">
        <ele>391</ele>
        <time>2018-08-14T09:37:40Z</time>
      </trkpt>
      <trkpt lat="45.88841" lon="4.66558">
        <ele>391</ele>
        <time>2018-08-14T09:37:41Z</time>
      </trkpt>
      <trkpt lat="45.88848" lon="4.66562">
        <ele>392</ele>
        <time>2018-08-14T09:37:45Z</time>
      </trkpt>
      <trkpt lat="45.8885" lon="4.66564">
        <ele>392</ele>
        <time>2018-08-14T09:37:46Z</time>
      </trkpt>
      <trkpt lat="45.88857" lon="4.6657">
        <ele>392</ele>
        <time>2018-08-14T09:37:50Z</time>
      </trkpt>
      <trkpt lat="45.88859" lon="4.66571">
        <ele>392</ele>
        <time>2018-08-14T09:37:51Z</time>
      </trkpt>
      <trkpt lat="45.88865" lon="4.66576">
        <ele>392</ele>
        <time>2018-08-14T09:37:55Z</time>
      </trkpt>
      <trkpt lat="45.88867" lon="4.66578">
        <ele>392</ele>
        <time>2018-08-14T09:37:56Z</time>
      </trkpt>
      <trkpt lat="45.88873" lon="4.66586">
        <ele>399</ele>
        <time>2018-08-14T09:38:00Z</time>
      </trkpt>
      <trkpt lat="45.88874" lon="4.66588">
        <ele>399</ele>
        <time>2018-08-14T09:38:01Z</time>
      </trkpt>
      <trkpt lat="45.88877" lon="4.66598">
        <ele>400</ele>
        <time>2018-08-14T09:38:05Z</time>
      </trkpt>
      <trkpt lat="45.88878" lon="4.666">
        <ele>400</ele>
        <time>2018-08-14T09:38:06Z</time>
      </trkpt>
      <trkpt lat="45.88883" lon="4.66609">
        <ele>400</ele>
        <time>2018-08-14T09:38:10Z</time>
      </trkpt>
      <trkpt lat="45.88884" lon="4.66611">
        <ele>400</ele>
        <time>2018-08-14T09:38:11Z</time>
      </trkpt>
      <trkpt lat="45.88888" lon="4.66622">
        <ele>401</ele>
        <time>2018-08-14T09:38:16Z</time>
      </trkpt>
      <trkpt lat="45.88889" lon="4.66624">
        <ele>401</ele>
        <time>2018-08-14T09:38:17Z</time>
      </trkpt>
      <trkpt lat="45.88896" lon="4.66632">
        <ele>401</ele>
        <time>2018-08-14T09:38:21Z</time>
      </trkpt>
      <trkpt lat="45.88897" lon="4.66635">
        <ele>402</ele>
        <time>2018-08-14T09:38:22Z</time>
      </trkpt>
      <trkpt lat="45.88904" lon="4.66642">
        <ele>402</ele>
        <time>2018-08-14T09:38:26Z</time>
      </trkpt>
      <trkpt lat="45.88906" lon="4.66643">
        <ele>403</ele>
        <time>2018-08-14T09:38:27Z</time>
      </trkpt>
      <trkpt lat="45.88912" lon="4.66649">
        <ele>403</ele>
        <time>2018-08-14T09:38:30Z</time>
      </trkpt>
      <trkpt lat="45.88914" lon="4.66651">
        <ele>403</ele>
        <time>2018-08-14T09:38:31Z</time>
      </trkpt>
      <trkpt lat="45.88921" lon="4.66657">
        <ele>403</ele>
        <time>2018-08-14T09:38:34Z</time>
      </trkpt>
      <trkpt lat="45.88923" lon="4.66659">
        <ele>404</ele>
        <time>2018-08-14T09:38:35Z</time>
      </trkpt>
      <trkpt lat="45.88929" lon="4.66664">
        <ele>403</ele>
        <time>2018-08-14T09:38:38Z</time>
      </trkpt>
      <trkpt lat="45.88931" lon="4.66666">
        <ele>403</ele>
        <time>2018-08-14T09:38:39Z</time>
      </trkpt>
      <trkpt lat="45.88937" lon="4.66671">
        <ele>408</ele>
        <time>2018-08-14T09:38:42Z</time>
      </trkpt>
      <trkpt lat="45.88939" lon="4.66672">
        <ele>408</ele>
        <time>2018-08-14T09:38:43Z</time>
      </trkpt>
      <trkpt lat="45.88947" lon="4.66676">
        <ele>408</ele>
        <time>2018-08-14T09:38:47Z</time>
      </trkpt>
      <trkpt lat="45.88949" lon="4.66677">
        <ele>408</ele>
        <time>2018-08-14T09:38:48Z</time>
      </trkpt>
      <trkpt lat="45.88957" lon="4.66681">
        <ele>408</ele>
        <time>2018-08-14T09:38:52Z</time>
      </trkpt>
      <trkpt lat="45.88958" lon="4.66683">
        <ele>408</ele>
        <time>2018-08-14T09:38:53Z</time>
      </trkpt>
      <trkpt lat="45.88965" lon="4.66688">
        <ele>408</ele>
        <time>2018-08-14T09:38:57Z</time>
      </trkpt>
      <trkpt lat="45.88967" lon="4.6669">
        <ele>408</ele>
        <time>2018-08-14T09:38:58Z</time>
      </trkpt>
      <trkpt lat="45.88975" lon="4.66694">
        <ele>408</ele>
        <time>2018-08-14T09:39:02Z</time>
      </trkpt>
      <trkpt lat="45.88977" lon="4.66696">
        <ele>408</ele>
        <time>2018-08-14T09:39:03Z</time>
      </trkpt>
      <trkpt lat="45.88983" lon="4.667">
        <ele>409</ele>
        <time>2018-08-14T09:39:06Z</time>
      </trkpt>
      <trkpt lat="45.88986" lon="4.66701">
        <ele>409</ele>
        <time>2018-08-14T09:39:07Z</time>
      </trkpt>
      <trkpt lat="45.88994" lon="4.66706">
        <ele>409</ele>
        <time>2018-08-14T09:39:11Z</time>
      </trkpt>
      <trkpt lat="45.88996" lon="4.66707">
        <ele>409</ele>
        <time>2018-08-14T09:39:12Z</time>
      </trkpt>
      <trkpt lat="45.89004" lon="4.66711">
        <ele>407</ele>
        <time>2018-08-14T09:39:16Z</time>
      </trkpt>
      <trkpt lat="45.89006" lon="4.66712">
        <ele>407</ele>
        <time>2018-08-14T09:39:17Z</time>
      </trkpt>
      <trkpt lat="45.89012" lon="4.66716">
        <ele>407</ele>
        <time>2018-08-14T09:39:20Z</time>
      </trkpt>
      <trkpt lat="45.89015" lon="4.66718">
        <ele>407</ele>
        <time>2018-08-14T09:39:21Z</time>
      </trkpt>
      <trkpt lat="45.89023" lon="4.66722">
        <ele>407</ele>
        <time>2018-08-14T09:39:24Z</time>
      </trkpt>
      <trkpt lat="45.89025" lon="4.66723">
        <ele>407</ele>
        <time>2018-08-14T09:39:25Z</time>
      </trkpt>
      <trkpt lat="45.89032" lon="4.66729">
        <ele>407</ele>
        <time>2018-08-14T09:39:29Z</time>
      </trkpt>
      <trkpt lat="45.89034" lon="4.66731">
        <ele>407</ele>
        <time>2018-08-14T09:39:30Z</time>
      </trkpt>
      <trkpt lat="45.89041" lon="4.66738">
        <ele>407</ele>
        <time>2018-08-14T09:39:33Z</time>
      </trkpt>
      <trkpt lat="45.89043" lon="4.6674">
        <ele>407</ele>
        <time>2018-08-14T09:39:34Z</time>
      </trkpt>
      <trkpt lat="45.89048" lon="4.66744">
        <ele>407</ele>
        <time>2018-08-14T09:39:36Z</time>
      </trkpt>
      <trkpt lat="45.89051" lon="4.66747">
        <ele>407</ele>
        <time>2018-08-14T09:39:37Z</time>
      </trkpt>
      <trkpt lat="45.89057" lon="4.66755">
        <ele>412</ele>
        <time>2018-08-14T09:39:40Z</time>
      </trkpt>
      <trkpt lat="45.89066" lon="4.66763">
        <ele>412</ele>
        <time>2018-08-14T09:39:41Z</time>
      </trkpt>
      <trkpt lat="45.89073" lon="4.66766">
        <ele>412</ele>
        <time>2018-08-14T09:39:44Z</time>
      </trkpt>
      <trkpt lat="45.89075" lon="4.66768">
        <ele>412</ele>
        <time>2018-08-14T09:39:45Z</time>
      </trkpt>
      <trkpt lat="45.89082" lon="4.66772">
        <ele>412</ele>
        <time>2018-08-14T09:39:48Z</time>
      </trkpt>
      <trkpt lat="45.89084" lon="4.66773">
        <ele>410</ele>
        <time>2018-08-14T09:39:49Z</time>
      </trkpt>
      <trkpt lat="45.89091" lon="4.66777">
        <ele>410</ele>
        <time>2018-08-14T09:39:52Z</time>
      </trkpt>
      <trkpt lat="45.89093" lon="4.66779">
        <ele>410</ele>
        <time>2018-08-14T09:39:53Z</time>
      </trkpt>
      <trkpt lat="45.89098" lon="4.66787">
        <ele>410</ele>
        <time>2018-08-14T09:39:56Z</time>
      </trkpt>
      <trkpt lat="45.891" lon="4.66789">
        <ele>410</ele>
        <time>2018-08-14T09:39:57Z</time>
      </trkpt>
      <trkpt lat="45.89106" lon="4.66797">
        <ele>411</ele>
        <time>2018-08-14T09:40:00Z</time>
      </trkpt>
      <trkpt lat="45.89108" lon="4.66799">
        <ele>411</ele>
        <time>2018-08-14T09:40:01Z</time>
      </trkpt>
      <trkpt lat="45.89115" lon="4.66803">
        <ele>411</ele>
        <time>2018-08-14T09:40:04Z</time>
      </trkpt>
      <trkpt lat="45.89118" lon="4.66804">
        <ele>411</ele>
        <time>2018-08-14T09:40:05Z</time>
      </trkpt>
      <trkpt lat="45.89126" lon="4.66811">
        <ele>411</ele>
        <time>2018-08-14T09:40:09Z</time>
      </trkpt>
      <trkpt lat="45.89126" lon="4.66814">
        <ele>411</ele>
        <time>2018-08-14T09:40:10Z</time>
      </trkpt>
      <trkpt lat="45.89125" lon="4.66821">
        <ele>411</ele>
        <time>2018-08-14T09:40:18Z</time>
      </trkpt>
      <trkpt lat="45.89126" lon="4.66822">
        <ele>411</ele>
        <time>2018-08-14T09:40:19Z</time>
      </trkpt>
      <trkpt lat="45.89127" lon="4.66827">
        <ele>411</ele>
        <time>2018-08-14T09:41:44Z</time>
      </trkpt>
      <trkpt lat="45.89127" lon="4.66827">
        <ele>411</ele>
        <time>2018-08-14T09:41:45Z</time>
      </trkpt>
      <trkpt lat="45.89134" lon="4.66828">
        <ele>411</ele>
        <time>2018-08-14T09:49:33Z</time>
      </trkpt>
      <trkpt lat="45.8914" lon="4.6683">
        <ele>412</ele>
        <time>2018-08-14T09:49:34Z</time>
      </trkpt>
      <trkpt lat="45.89149" lon="4.66831">
        <ele>412</ele>
        <time>2018-08-14T09:49:37Z</time>
      </trkpt>
      <trkpt lat="45.8915" lon="4.6683">
        <ele>412</ele>
        <time>2018-08-14T09:49:38Z</time>
      </trkpt>
      <trkpt lat="45.89153" lon="4.66841">
        <ele>414</ele>
        <time>2018-08-14T09:49:44Z</time>
      </trkpt>
      <trkpt lat="45.89153" lon="4.66852">
        <ele>414</ele>
        <time>2018-08-14T09:49:45Z</time>
      </trkpt>
      <trkpt lat="45.89153" lon="4.66865">
        <ele>414</ele>
        <time>2018-08-14T09:49:47Z</time>
      </trkpt>
      <trkpt lat="45.89153" lon="4.66871">
        <ele>414</ele>
        <time>2018-08-14T09:49:48Z</time>
      </trkpt>
      <trkpt lat="45.89154" lon="4.66878">
        <ele>414</ele>
        <time>2018-08-14T09:49:50Z</time>
      </trkpt>
      <trkpt lat="45.89155" lon="4.66888">
        <ele>414</ele>
        <time>2018-08-14T09:49:51Z</time>
      </trkpt>
      <trkpt lat="45.89157" lon="4.66899">
        <ele>415</ele>
        <time>2018-08-14T09:49:53Z</time>
      </trkpt>
      <trkpt lat="45.89158" lon="4.66901">
        <ele>415</ele>
        <time>2018-08-14T09:49:54Z</time>
      </trkpt>
      <trkpt lat="45.8916" lon="4.66908">
        <ele>415</ele>
        <time>2018-08-14T09:49:55Z</time>
      </trkpt>
      <trkpt lat="45.89162" lon="4.66913">
        <ele>415</ele>
        <time>2018-08-14T09:49:56Z</time>
      </trkpt>
      <trkpt lat="45.89165" lon="4.66924">
        <ele>414</ele>
        <time>2018-08-14T09:49:58Z</time>
      </trkpt>
      <trkpt lat="45.89167" lon="4.66929">
        <ele>413</ele>
        <time>2018-08-14T09:49:59Z</time>
      </trkpt>
      <trkpt lat="45.89169" lon="4.6694">
        <ele>415</ele>
        <time>2018-08-14T09:50:01Z</time>
      </trkpt>
      <trkpt lat="45.89171" lon="4.66946">
        <ele>415</ele>
        <time>2018-08-14T09:50:02Z</time>
      </trkpt>
      <trkpt lat="45.89173" lon="4.66957">
        <ele>415</ele>
        <time>2018-08-14T09:50:04Z</time>
      </trkpt>
      <trkpt lat="45.89175" lon="4.66962">
        <ele>415</ele>
        <time>2018-08-14T09:50:05Z</time>
      </trkpt>
      <trkpt lat="45.89178" lon="4.66972">
        <ele>415</ele>
        <time>2018-08-14T09:50:07Z</time>
      </trkpt>
      <trkpt lat="45.89179" lon="4.66979">
        <ele>414</ele>
        <time>2018-08-14T09:50:08Z</time>
      </trkpt>
      <trkpt lat="45.89182" lon="4.66985">
        <ele>414</ele>
        <time>2018-08-14T09:50:09Z</time>
      </trkpt>
      <trkpt lat="45.89183" lon="4.66993">
        <ele>414</ele>
        <time>2018-08-14T09:50:10Z</time>
      </trkpt>
      <trkpt lat="45.89187" lon="4.67">
        <ele>413</ele>
        <time>2018-08-14T09:50:11Z</time>
      </trkpt>
      <trkpt lat="45.89187" lon="4.67005">
        <ele>413</ele>
        <time>2018-08-14T09:50:12Z</time>
      </trkpt>
      <trkpt lat="45.8919" lon="4.67015">
        <ele>413</ele>
        <time>2018-08-14T09:50:14Z</time>
      </trkpt>
      <trkpt lat="45.89193" lon="4.67022">
        <ele>413</ele>
        <time>2018-08-14T09:50:15Z</time>
      </trkpt>
      <trkpt lat="45.89193" lon="4.67028">
        <ele>413</ele>
        <time>2018-08-14T09:50:16Z</time>
      </trkpt>
      <trkpt lat="45.89195" lon="4.67034">
        <ele>413</ele>
        <time>2018-08-14T09:50:17Z</time>
      </trkpt>
      <trkpt lat="45.89196" lon="4.67042">
        <ele>413</ele>
        <time>2018-08-14T09:50:18Z</time>
      </trkpt>
      <trkpt lat="45.89198" lon="4.67048">
        <ele>412</ele>
        <time>2018-08-14T09:50:19Z</time>
      </trkpt>
      <trkpt lat="45.892" lon="4.67054">
        <ele>412</ele>
        <time>2018-08-14T09:50:20Z</time>
      </trkpt>
      <trkpt lat="45.89202" lon="4.6706">
        <ele>412</ele>
        <time>2018-08-14T09:50:21Z</time>
      </trkpt>
      <trkpt lat="45.89205" lon="4.67071">
        <ele>412</ele>
        <time>2018-08-14T09:50:23Z</time>
      </trkpt>
      <trkpt lat="45.89207" lon="4.67076">
        <ele>412</ele>
        <time>2018-08-14T09:50:24Z</time>
      </trkpt>
      <trkpt lat="45.8921" lon="4.67085">
        <ele>410</ele>
        <time>2018-08-14T09:50:26Z</time>
      </trkpt>
      <trkpt lat="45.89212" lon="4.6709">
        <ele>410</ele>
        <time>2018-08-14T09:50:27Z</time>
      </trkpt>
      <trkpt lat="45.89217" lon="4.67099">
        <ele>411</ele>
        <time>2018-08-14T09:50:29Z</time>
      </trkpt>
      <trkpt lat="45.89219" lon="4.67105">
        <ele>411</ele>
        <time>2018-08-14T09:50:30Z</time>
      </trkpt>
      <trkpt lat="45.89222" lon="4.6711">
        <ele>411</ele>
        <time>2018-08-14T09:50:31Z</time>
      </trkpt>
      <trkpt lat="45.89227" lon="4.67114">
        <ele>411</ele>
        <time>2018-08-14T09:50:32Z</time>
      </trkpt>
      <trkpt lat="45.8923" lon="4.6712">
        <ele>411</ele>
        <time>2018-08-14T09:50:33Z</time>
      </trkpt>
      <trkpt lat="45.89233" lon="4.67125">
        <ele>411</ele>
        <time>2018-08-14T09:50:34Z</time>
      </trkpt>
      <trkpt lat="45.89236" lon="4.67131">
        <ele>411</ele>
        <time>2018-08-14T09:50:35Z</time>
      </trkpt>
      <trkpt lat="45.89239" lon="4.67138">
        <ele>411</ele>
        <time>2018-08-14T09:50:36Z</time>
      </trkpt>
      <trkpt lat="45.89243" lon="4.67143">
        <ele>411</ele>
        <time>2018-08-14T09:50:37Z</time>
      </trkpt>
      <trkpt lat="45.89247" lon="4.67148">
        <ele>411</ele>
        <time>2018-08-14T09:50:38Z</time>
      </trkpt>
      <trkpt lat="45.89251" lon="4.67154">
        <ele>415</ele>
        <time>2018-08-14T09:50:39Z</time>
      </trkpt>
      <trkpt lat="45.89255" lon="4.67158">
        <ele>414</ele>
        <time>2018-08-14T09:50:40Z</time>
      </trkpt>
      <trkpt lat="45.8926" lon="4.67162">
        <ele>415</ele>
        <time>2018-08-14T09:50:41Z</time>
      </trkpt>
      <trkpt lat="45.89264" lon="4.67167">
        <ele>415</ele>
        <time>2018-08-14T09:50:42Z</time>
      </trkpt>
      <trkpt lat="45.89268" lon="4.67171">
        <ele>412</ele>
        <time>2018-08-14T09:50:43Z</time>
      </trkpt>
      <trkpt lat="45.89274" lon="4.67171">
        <ele>412</ele>
        <time>2018-08-14T09:50:44Z</time>
      </trkpt>
      <trkpt lat="45.89278" lon="4.67175">
        <ele>412</ele>
        <time>2018-08-14T09:50:45Z</time>
      </trkpt>
      <trkpt lat="45.89284" lon="4.6718">
        <ele>412</ele>
        <time>2018-08-14T09:50:46Z</time>
      </trkpt>
      <trkpt lat="45.8929" lon="4.67182">
        <ele>412</ele>
        <time>2018-08-14T09:50:47Z</time>
      </trkpt>
      <trkpt lat="45.89298" lon="4.67182">
        <ele>412</ele>
        <time>2018-08-14T09:50:48Z</time>
      </trkpt>
      <trkpt lat="45.89304" lon="4.67185">
        <ele>413</ele>
        <time>2018-08-14T09:50:49Z</time>
      </trkpt>
      <trkpt lat="45.89306" lon="4.67189">
        <ele>412</ele>
        <time>2018-08-14T09:50:50Z</time>
      </trkpt>
      <trkpt lat="45.89312" lon="4.67191">
        <ele>413</ele>
        <time>2018-08-14T09:50:51Z</time>
      </trkpt>
      <trkpt lat="45.89316" lon="4.67194">
        <ele>412</ele>
        <time>2018-08-14T09:50:52Z</time>
      </trkpt>
      <trkpt lat="45.89322" lon="4.67194">
        <ele>413</ele>
        <time>2018-08-14T09:50:53Z</time>
      </trkpt>
      <trkpt lat="45.89327" lon="4.67196">
        <ele>413</ele>
        <time>2018-08-14T09:50:54Z</time>
      </trkpt>
      <trkpt lat="45.89331" lon="4.67199">
        <ele>412</ele>
        <time>2018-08-14T09:50:55Z</time>
      </trkpt>
      <trkpt lat="45.89336" lon="4.672">
        <ele>416</ele>
        <time>2018-08-14T09:50:56Z</time>
      </trkpt>
      <trkpt lat="45.8934" lon="4.67205">
        <ele>416</ele>
        <time>2018-08-14T09:50:57Z</time>
      </trkpt>
      <trkpt lat="45.89344" lon="4.67208">
        <ele>416</ele>
        <time>2018-08-14T09:50:58Z</time>
      </trkpt>
      <trkpt lat="45.89347" lon="4.67213">
        <ele>416</ele>
        <time>2018-08-14T09:50:59Z</time>
      </trkpt>
      <trkpt lat="45.89352" lon="4.67219">
        <ele>416</ele>
        <time>2018-08-14T09:51:00Z</time>
      </trkpt>
      <trkpt lat="45.89356" lon="4.67224">
        <ele>415</ele>
        <time>2018-08-14T09:51:01Z</time>
      </trkpt>
      <trkpt lat="45.8936" lon="4.67229">
        <ele>415</ele>
        <time>2018-08-14T09:51:02Z</time>
      </trkpt>
      <trkpt lat="45.89363" lon="4.67235">
        <ele>415</ele>
        <time>2018-08-14T09:51:03Z</time>
      </trkpt>
      <trkpt lat="45.89367" lon="4.67242">
        <ele>415</ele>
        <time>2018-08-14T09:51:04Z</time>
      </trkpt>
      <trkpt lat="45.89371" lon="4.67248">
        <ele>415</ele>
        <time>2018-08-14T09:51:05Z</time>
      </trkpt>
      <trkpt lat="45.89376" lon="4.67252">
        <ele>409</ele>
        <time>2018-08-14T09:51:06Z</time>
      </trkpt>
      <trkpt lat="45.89379" lon="4.67259">
        <ele>409</ele>
        <time>2018-08-14T09:51:07Z</time>
      </trkpt>
      <trkpt lat="45.89381" lon="4.67263">
        <ele>409</ele>
        <time>2018-08-14T09:51:08Z</time>
      </trkpt>
      <trkpt lat="45.89385" lon="4.67271">
        <ele>409</ele>
        <time>2018-08-14T09:51:09Z</time>
      </trkpt>
      <trkpt lat="45.89389" lon="4.67279">
        <ele>409</ele>
        <time>2018-08-14T09:51:10Z</time>
      </trkpt>
      <trkpt lat="45.89393" lon="4.67286">
        <ele>409</ele>
        <time>2018-08-14T09:51:11Z</time>
      </trkpt>
      <trkpt lat="45.89396" lon="4.6729">
        <ele>409</ele>
        <time>2018-08-14T09:51:12Z</time>
      </trkpt>
      <trkpt lat="45.89401" lon="4.67296">
        <ele>408</ele>
        <time>2018-08-14T09:51:13Z</time>
      </trkpt>
      <trkpt lat="45.89406" lon="4.67303">
        <ele>408</ele>
        <time>2018-08-14T09:51:14Z</time>
      </trkpt>
      <trkpt lat="45.89412" lon="4.67309">
        <ele>408</ele>
        <time>2018-08-14T09:51:15Z</time>
      </trkpt>
      <trkpt lat="45.89418" lon="4.67315">
        <ele>412</ele>
        <time>2018-08-14T09:51:16Z</time>
      </trkpt>
      <trkpt lat="45.89422" lon="4.6732">
        <ele>411</ele>
        <time>2018-08-14T09:51:17Z</time>
      </trkpt>
      <trkpt lat="45.89428" lon="4.67327">
        <ele>411</ele>
        <time>2018-08-14T09:51:18Z</time>
      </trkpt>
      <trkpt lat="45.89432" lon="4.67332">
        <ele>412</ele>
        <time>2018-08-14T09:51:19Z</time>
      </trkpt>
      <trkpt lat="45.89435" lon="4.6734">
        <ele>407</ele>
        <time>2018-08-14T09:51:20Z</time>
      </trkpt>
      <trkpt lat="45.8944" lon="4.67346">
        <ele>408</ele>
        <time>2018-08-14T09:51:21Z</time>
      </trkpt>
      <trkpt lat="45.89446" lon="4.6735">
        <ele>408</ele>
        <time>2018-08-14T09:51:22Z</time>
      </trkpt>
      <trkpt lat="45.89452" lon="4.67355">
        <ele>408</ele>
        <time>2018-08-14T09:51:23Z</time>
      </trkpt>
      <trkpt lat="45.89459" lon="4.6736">
        <ele>408</ele>
        <time>2018-08-14T09:51:24Z</time>
      </trkpt>
      <trkpt lat="45.89464" lon="4.67367">
        <ele>408</ele>
        <time>2018-08-14T09:51:25Z</time>
      </trkpt>
      <trkpt lat="45.8947" lon="4.67372">
        <ele>408</ele>
        <time>2018-08-14T09:51:26Z</time>
      </trkpt>
      <trkpt lat="45.89476" lon="4.67379">
        <ele>408</ele>
        <time>2018-08-14T09:51:27Z</time>
      </trkpt>
      <trkpt lat="45.89481" lon="4.67382">
        <ele>407</ele>
        <time>2018-08-14T09:51:28Z</time>
      </trkpt>
      <trkpt lat="45.89488" lon="4.6739">
        <ele>407</ele>
        <time>2018-08-14T09:51:29Z</time>
      </trkpt>
      <trkpt lat="45.89493" lon="4.67392">
        <ele>407</ele>
        <time>2018-08-14T09:51:30Z</time>
      </trkpt>
      <trkpt lat="45.89501" lon="4.67396">
        <ele>409</ele>
        <time>2018-08-14T09:51:31Z</time>
      </trkpt>
      <trkpt lat="45.89507" lon="4.674">
        <ele>409</ele>
        <time>2018-08-14T09:51:32Z</time>
      </trkpt>
      <trkpt lat="45.8951" lon="4.67404">
        <ele>408</ele>
        <time>2018-08-14T09:51:33Z</time>
      </trkpt>
      <trkpt lat="45.89517" lon="4.67409">
        <ele>409</ele>
        <time>2018-08-14T09:51:34Z</time>
      </trkpt>
      <trkpt lat="45.89523" lon="4.67411">
        <ele>409</ele>
        <time>2018-08-14T09:51:35Z</time>
      </trkpt>
      <trkpt lat="45.89527" lon="4.67414">
        <ele>410</ele>
        <time>2018-08-14T09:51:36Z</time>
      </trkpt>
      <trkpt lat="45.89535" lon="4.67419">
        <ele>402</ele>
        <time>2018-08-14T09:51:37Z</time>
      </trkpt>
      <trkpt lat="45.8954" lon="4.67419">
        <ele>402</ele>
        <time>2018-08-14T09:51:38Z</time>
      </trkpt>
      <trkpt lat="45.89545" lon="4.67423">
        <ele>402</ele>
        <time>2018-08-14T09:51:39Z</time>
      </trkpt>
      <trkpt lat="45.89553" lon="4.67422">
        <ele>403</ele>
        <time>2018-08-14T09:51:40Z</time>
      </trkpt>
      <trkpt lat="45.89559" lon="4.67424">
        <ele>403</ele>
        <time>2018-08-14T09:51:41Z</time>
      </trkpt>
      <trkpt lat="45.89565" lon="4.67427">
        <ele>404</ele>
        <time>2018-08-14T09:51:42Z</time>
      </trkpt>
      <trkpt lat="45.89571" lon="4.67431">
        <ele>404</ele>
        <time>2018-08-14T09:51:43Z</time>
      </trkpt>
      <trkpt lat="45.89576" lon="4.67435">
        <ele>404</ele>
        <time>2018-08-14T09:51:44Z</time>
      </trkpt>
      <trkpt lat="45.8958" lon="4.67436">
        <ele>404</ele>
        <time>2018-08-14T09:51:45Z</time>
      </trkpt>
      <trkpt lat="45.89585" lon="4.6744">
        <ele>405</ele>
        <time>2018-08-14T09:51:46Z</time>
      </trkpt>
      <trkpt lat="45.8959" lon="4.67443">
        <ele>405</ele>
        <time>2018-08-14T09:51:47Z</time>
      </trkpt>
      <trkpt lat="45.89597" lon="4.67443">
        <ele>405</ele>
        <time>2018-08-14T09:51:48Z</time>
      </trkpt>
      <trkpt lat="45.89604" lon="4.67447">
        <ele>404</ele>
        <time>2018-08-14T09:51:49Z</time>
      </trkpt>
      <trkpt lat="45.89612" lon="4.67449">
        <ele>404</ele>
        <time>2018-08-14T09:51:50Z</time>
      </trkpt>
      <trkpt lat="45.89618" lon="4.67451">
        <ele>404</ele>
        <time>2018-08-14T09:51:51Z</time>
      </trkpt>
      <trkpt lat="45.89624" lon="4.67454">
        <ele>404</ele>
        <time>2018-08-14T09:51:52Z</time>
      </trkpt>
      <trkpt lat="45.89631" lon="4.67457">
        <ele>403</ele>
        <time>2018-08-14T09:51:53Z</time>
      </trkpt>
      <trkpt lat="45.89637" lon="4.67458">
        <ele>403</ele>
        <time>2018-08-14T09:51:54Z</time>
      </trkpt>
      <trkpt lat="45.89644" lon="4.6746">
        <ele>403</ele>
        <time>2018-08-14T09:51:55Z</time>
      </trkpt>
      <trkpt lat="45.89651" lon="4.67462">
        <ele>403</ele>
        <time>2018-08-14T09:51:56Z</time>
      </trkpt>
      <trkpt lat="45.89657" lon="4.67465">
        <ele>403</ele>
        <time>2018-08-14T09:51:57Z</time>
      </trkpt>
      <trkpt lat="45.89663" lon="4.67469">
        <ele>403</ele>
        <time>2018-08-14T09:51:58Z</time>
      </trkpt>
      <trkpt lat="45.89672" lon="4.67472">
        <ele>403</ele>
        <time>2018-08-14T09:51:59Z</time>
      </trkpt>
      <trkpt lat="45.89678" lon="4.67476">
        <ele>402</ele>
        <time>2018-08-14T09:52:00Z</time>
      </trkpt>
      <trkpt lat="45.89685" lon="4.67477">
        <ele>403</ele>
        <time>2018-08-14T09:52:01Z</time>
      </trkpt>
      <trkpt lat="45.89691" lon="4.6748">
        <ele>402</ele>
        <time>2018-08-14T09:52:02Z</time>
      </trkpt>
      <trkpt lat="45.89698" lon="4.67482">
        <ele>402</ele>
        <time>2018-08-14T09:52:03Z</time>
      </trkpt>
      <trkpt lat="45.89705" lon="4.67484">
        <ele>402</ele>
        <time>2018-08-14T09:52:04Z</time>
      </trkpt>
      <trkpt lat="45.89712" lon="4.67488">
        <ele>402</ele>
        <time>2018-08-14T09:52:05Z</time>
      </trkpt>
      <trkpt lat="45.89719" lon="4.67489">
        <ele>402</ele>
        <time>2018-08-14T09:52:06Z</time>
      </trkpt>
      <trkpt lat="45.89726" lon="4.6749">
        <ele>402</ele>
        <time>2018-08-14T09:52:07Z</time>
      </trkpt>
      <trkpt lat="45.89732" lon="4.67492">
        <ele>401</ele>
        <time>2018-08-14T09:52:08Z</time>
      </trkpt>
      <trkpt lat="45.89742" lon="4.67491">
        <ele>401</ele>
        <time>2018-08-14T09:52:09Z</time>
      </trkpt>
      <trkpt lat="45.89747" lon="4.67493">
        <ele>400</ele>
        <time>2018-08-14T09:52:10Z</time>
      </trkpt>
      <trkpt lat="45.89754" lon="4.67492">
        <ele>399</ele>
        <time>2018-08-14T09:52:11Z</time>
      </trkpt>
      <trkpt lat="45.89762" lon="4.67489">
        <ele>399</ele>
        <time>2018-08-14T09:52:12Z</time>
      </trkpt>
      <trkpt lat="45.8977" lon="4.67488">
        <ele>399</ele>
        <time>2018-08-14T09:52:13Z</time>
      </trkpt>
      <trkpt lat="45.89776" lon="4.67491">
        <ele>399</ele>
        <time>2018-08-14T09:52:14Z</time>
      </trkpt>
      <trkpt lat="45.89783" lon="4.67488">
        <ele>399</ele>
        <time>2018-08-14T09:52:15Z</time>
      </trkpt>
      <trkpt lat="45.89791" lon="4.67485">
        <ele>399</ele>
        <time>2018-08-14T09:52:16Z</time>
      </trkpt>
      <trkpt lat="45.89797" lon="4.6748">
        <ele>399</ele>
        <time>2018-08-14T09:52:17Z</time>
      </trkpt>
      <trkpt lat="45.89803" lon="4.67476">
        <ele>399</ele>
        <time>2018-08-14T09:52:18Z</time>
      </trkpt>
      <trkpt lat="45.89809" lon="4.67465">
        <ele>399</ele>
        <time>2018-08-14T09:52:19Z</time>
      </trkpt>
      <trkpt lat="45.89812" lon="4.67456">
        <ele>399</ele>
        <time>2018-08-14T09:52:20Z</time>
      </trkpt>
      <trkpt lat="45.89817" lon="4.67446">
        <ele>399</ele>
        <time>2018-08-14T09:52:21Z</time>
      </trkpt>
      <trkpt lat="45.89818" lon="4.67435">
        <ele>399</ele>
        <time>2018-08-14T09:52:22Z</time>
      </trkpt>
      <trkpt lat="45.8982" lon="4.67423">
        <ele>398</ele>
        <time>2018-08-14T09:52:23Z</time>
      </trkpt>
      <trkpt lat="45.89823" lon="4.67412">
        <ele>400</ele>
        <time>2018-08-14T09:52:24Z</time>
      </trkpt>
      <trkpt lat="45.89825" lon="4.674">
        <ele>402</ele>
        <time>2018-08-14T09:52:25Z</time>
      </trkpt>
      <trkpt lat="45.89827" lon="4.67388">
        <ele>403</ele>
        <time>2018-08-14T09:52:26Z</time>
      </trkpt>
      <trkpt lat="45.89834" lon="4.67382">
        <ele>398</ele>
        <time>2018-08-14T09:52:27Z</time>
      </trkpt>
      <trkpt lat="45.89839" lon="4.67373">
        <ele>398</ele>
        <time>2018-08-14T09:52:28Z</time>
      </trkpt>
      <trkpt lat="45.89843" lon="4.67364">
        <ele>399</ele>
        <time>2018-08-14T09:52:29Z</time>
      </trkpt>
      <trkpt lat="45.8985" lon="4.67359">
        <ele>399</ele>
        <time>2018-08-14T09:52:30Z</time>
      </trkpt>
      <trkpt lat="45.89858" lon="4.67354">
        <ele>399</ele>
        <time>2018-08-14T09:52:31Z</time>
      </trkpt>
      <trkpt lat="45.89864" lon="4.6735">
        <ele>399</ele>
        <time>2018-08-14T09:52:32Z</time>
      </trkpt>
      <trkpt lat="45.89873" lon="4.67348">
        <ele>399</ele>
        <time>2018-08-14T09:52:33Z</time>
      </trkpt>
      <trkpt lat="45.8988" lon="4.67347">
        <ele>398</ele>
        <time>2018-08-14T09:52:34Z</time>
      </trkpt>
      <trkpt lat="45.89888" lon="4.67343">
        <ele>398</ele>
        <time>2018-08-14T09:52:35Z</time>
      </trkpt>
      <trkpt lat="45.89896" lon="4.67345">
        <ele>398</ele>
        <time>2018-08-14T09:52:36Z</time>
      </trkpt>
      <trkpt lat="45.89902" lon="4.67345">
        <ele>399</ele>
        <time>2018-08-14T09:52:37Z</time>
      </trkpt>
      <trkpt lat="45.89911" lon="4.67346">
        <ele>399</ele>
        <time>2018-08-14T09:52:38Z</time>
      </trkpt>
      <trkpt lat="45.89919" lon="4.6735">
        <ele>397</ele>
        <time>2018-08-14T09:52:39Z</time>
      </trkpt>
      <trkpt lat="45.89927" lon="4.67354">
        <ele>396</ele>
        <time>2018-08-14T09:52:40Z</time>
      </trkpt>
      <trkpt lat="45.89935" lon="4.67357">
        <ele>396</ele>
        <time>2018-08-14T09:52:41Z</time>
      </trkpt>
      <trkpt lat="45.89946" lon="4.67359">
        <ele>395</ele>
        <time>2018-08-14T09:52:42Z</time>
      </trkpt>
      <trkpt lat="45.89955" lon="4.6736">
        <ele>395</ele>
        <time>2018-08-14T09:52:43Z</time>
      </trkpt>
      <trkpt lat="45.89963" lon="4.67362">
        <ele>395</ele>
        <time>2018-08-14T09:52:44Z</time>
      </trkpt>
      <trkpt lat="45.89972" lon="4.67364">
        <ele>395</ele>
        <time>2018-08-14T09:52:45Z</time>
      </trkpt>
      <trkpt lat="45.89977" lon="4.67367">
        <ele>395</ele>
        <time>2018-08-14T09:52:46Z</time>
      </trkpt>
      <trkpt lat="45.89988" lon="4.67368">
        <ele>395</ele>
        <time>2018-08-14T09:52:47Z</time>
      </trkpt>
      <trkpt lat="45.89995" lon="4.67374">
        <ele>394</ele>
        <time>2018-08-14T09:52:48Z</time>
      </trkpt>
      <trkpt lat="45.90003" lon="4.67378">
        <ele>396</ele>
        <time>2018-08-14T09:52:49Z</time>
      </trkpt>
      <trkpt lat="45.90012" lon="4.67384">
        <ele>396</ele>
        <time>2018-08-14T09:52:50Z</time>
      </trkpt>
      <trkpt lat="45.9002" lon="4.67392">
        <ele>395</ele>
        <time>2018-08-14T09:52:51Z</time>
      </trkpt>
      <trkpt lat="45.90027" lon="4.674">
        <ele>395</ele>
        <time>2018-08-14T09:52:52Z</time>
      </trkpt>
      <trkpt lat="45.90033" lon="4.67409">
        <ele>395</ele>
        <time>2018-08-14T09:52:53Z</time>
      </trkpt>
      <trkpt lat="45.90041" lon="4.67416">
        <ele>395</ele>
        <time>2018-08-14T09:52:54Z</time>
      </trkpt>
      <trkpt lat="45.90048" lon="4.67423">
        <ele>385</ele>
        <time>2018-08-14T09:52:55Z</time>
      </trkpt>
      <trkpt lat="45.90056" lon="4.6743">
        <ele>386</ele>
        <time>2018-08-14T09:52:56Z</time>
      </trkpt>
      <trkpt lat="45.90062" lon="4.67439">
        <ele>385</ele>
        <time>2018-08-14T09:52:57Z</time>
      </trkpt>
      <trkpt lat="45.9007" lon="4.67446">
        <ele>385</ele>
        <time>2018-08-14T09:52:58Z</time>
      </trkpt>
      <trkpt lat="45.90078" lon="4.67454">
        <ele>384</ele>
        <time>2018-08-14T09:52:59Z</time>
      </trkpt>
      <trkpt lat="45.90084" lon="4.67463">
        <ele>388</ele>
        <time>2018-08-14T09:53:00Z</time>
      </trkpt>
      <trkpt lat="45.90092" lon="4.6747">
        <ele>387</ele>
        <time>2018-08-14T09:53:01Z</time>
      </trkpt>
      <trkpt lat="45.901" lon="4.67477">
        <ele>386</ele>
        <time>2018-08-14T09:53:02Z</time>
      </trkpt>
      <trkpt lat="45.90107" lon="4.67486">
        <ele>385</ele>
        <time>2018-08-14T09:53:03Z</time>
      </trkpt>
      <trkpt lat="45.90115" lon="4.67497">
        <ele>386</ele>
        <time>2018-08-14T09:53:04Z</time>
      </trkpt>
      <trkpt lat="45.90121" lon="4.67509">
        <ele>378</ele>
        <time>2018-08-14T09:53:05Z</time>
      </trkpt>
      <trkpt lat="45.90126" lon="4.67516">
        <ele>378</ele>
        <time>2018-08-14T09:53:06Z</time>
      </trkpt>
      <trkpt lat="45.90131" lon="4.67528">
        <ele>378</ele>
        <time>2018-08-14T09:53:07Z</time>
      </trkpt>
      <trkpt lat="45.90136" lon="4.67539">
        <ele>377</ele>
        <time>2018-08-14T09:53:08Z</time>
      </trkpt>
      <trkpt lat="45.90141" lon="4.67549">
        <ele>377</ele>
        <time>2018-08-14T09:53:09Z</time>
      </trkpt>
      <trkpt lat="45.90148" lon="4.6756">
        <ele>377</ele>
        <time>2018-08-14T09:53:10Z</time>
      </trkpt>
      <trkpt lat="45.90154" lon="4.6757">
        <ele>376</ele>
        <time>2018-08-14T09:53:11Z</time>
      </trkpt>
      <trkpt lat="45.9016" lon="4.67579">
        <ele>376</ele>
        <time>2018-08-14T09:53:12Z</time>
      </trkpt>
      <trkpt lat="45.90167" lon="4.67587">
        <ele>376</ele>
        <time>2018-08-14T09:53:13Z</time>
      </trkpt>
      <trkpt lat="45.90173" lon="4.67596">
        <ele>376</ele>
        <time>2018-08-14T09:53:14Z</time>
      </trkpt>
      <trkpt lat="45.90179" lon="4.67605">
        <ele>376</ele>
        <time>2018-08-14T09:53:15Z</time>
      </trkpt>
      <trkpt lat="45.90186" lon="4.67613">
        <ele>376</ele>
        <time>2018-08-14T09:53:16Z</time>
      </trkpt>
      <trkpt lat="45.90193" lon="4.67621">
        <ele>376</ele>
        <time>2018-08-14T09:53:17Z</time>
      </trkpt>
      <trkpt lat="45.90202" lon="4.67629">
        <ele>375</ele>
        <time>2018-08-14T09:53:18Z</time>
      </trkpt>
      <trkpt lat="45.90209" lon="4.67638">
        <ele>375</ele>
        <time>2018-08-14T09:53:19Z</time>
      </trkpt>
      <trkpt lat="45.90215" lon="4.67646">
        <ele>375</ele>
        <time>2018-08-14T09:53:20Z</time>
      </trkpt>
      <trkpt lat="45.90223" lon="4.67654">
        <ele>375</ele>
        <time>2018-08-14T09:53:21Z</time>
      </trkpt>
      <trkpt lat="45.9023" lon="4.67661">
        <ele>375</ele>
        <time>2018-08-14T09:53:22Z</time>
      </trkpt>
      <trkpt lat="45.90237" lon="4.67667">
        <ele>373</ele>
        <time>2018-08-14T09:53:23Z</time>
      </trkpt>
      <trkpt lat="45.90245" lon="4.67672">
        <ele>373</ele>
        <time>2018-08-14T09:53:24Z</time>
      </trkpt>
      <trkpt lat="45.90252" lon="4.67677">
        <ele>374</ele>
        <time>2018-08-14T09:53:25Z</time>
      </trkpt>
      <trkpt lat="45.9026" lon="4.6768">
        <ele>374</ele>
        <time>2018-08-14T09:53:26Z</time>
      </trkpt>
      <trkpt lat="45.90267" lon="4.67683">
        <ele>374</ele>
        <time>2018-08-14T09:53:27Z</time>
      </trkpt>
      <trkpt lat="45.90274" lon="4.67686">
        <ele>374</ele>
        <time>2018-08-14T09:53:28Z</time>
      </trkpt>
      <trkpt lat="45.9028" lon="4.6769">
        <ele>374</ele>
        <time>2018-08-14T09:53:29Z</time>
      </trkpt>
      <trkpt lat="45.90288" lon="4.67692">
        <ele>374</ele>
        <time>2018-08-14T09:53:30Z</time>
      </trkpt>
      <trkpt lat="45.90295" lon="4.67695">
        <ele>374</ele>
        <time>2018-08-14T09:53:31Z</time>
      </trkpt>
      <trkpt lat="45.90302" lon="4.67697">
        <ele>374</ele>
        <time>2018-08-14T09:53:32Z</time>
      </trkpt>
      <trkpt lat="45.90308" lon="4.67701">
        <ele>374</ele>
        <time>2018-08-14T09:53:33Z</time>
      </trkpt>
      <trkpt lat="45.90319" lon="4.67699">
        <ele>374</ele>
        <time>2018-08-14T09:53:34Z</time>
      </trkpt>
      <trkpt lat="45.90327" lon="4.677">
        <ele>374</ele>
        <time>2018-08-14T09:53:35Z</time>
      </trkpt>
      <trkpt lat="45.90336" lon="4.67702">
        <ele>372</ele>
        <time>2018-08-14T09:53:36Z</time>
      </trkpt>
      <trkpt lat="45.90343" lon="4.67704">
        <ele>372</ele>
        <time>2018-08-14T09:53:37Z</time>
      </trkpt>
      <trkpt lat="45.90353" lon="4.67702">
        <ele>372</ele>
        <time>2018-08-14T09:53:38Z</time>
      </trkpt>
      <trkpt lat="45.9036" lon="4.67704">
        <ele>372</ele>
        <time>2018-08-14T09:53:39Z</time>
      </trkpt>
      <trkpt lat="45.90365" lon="4.67709">
        <ele>371</ele>
        <time>2018-08-14T09:53:40Z</time>
      </trkpt>
      <trkpt lat="45.90373" lon="4.6771">
        <ele>371</ele>
        <time>2018-08-14T09:53:41Z</time>
      </trkpt>
      <trkpt lat="45.9038" lon="4.67713">
        <ele>371</ele>
        <time>2018-08-14T09:53:42Z</time>
      </trkpt>
      <trkpt lat="45.90386" lon="4.67717">
        <ele>370</ele>
        <time>2018-08-14T09:53:43Z</time>
      </trkpt>
      <trkpt lat="45.90393" lon="4.6772">
        <ele>370</ele>
        <time>2018-08-14T09:53:44Z</time>
      </trkpt>
      <trkpt lat="45.904" lon="4.67724">
        <ele>369</ele>
        <time>2018-08-14T09:53:45Z</time>
      </trkpt>
      <trkpt lat="45.90407" lon="4.67726">
        <ele>369</ele>
        <time>2018-08-14T09:53:46Z</time>
      </trkpt>
      <trkpt lat="45.90414" lon="4.6773">
        <ele>368</ele>
        <time>2018-08-14T09:53:47Z</time>
      </trkpt>
      <trkpt lat="45.90422" lon="4.67733">
        <ele>367</ele>
        <time>2018-08-14T09:53:48Z</time>
      </trkpt>
      <trkpt lat="45.90428" lon="4.67738">
        <ele>366</ele>
        <time>2018-08-14T09:53:49Z</time>
      </trkpt>
      <trkpt lat="45.90435" lon="4.67741">
        <ele>366</ele>
        <time>2018-08-14T09:53:50Z</time>
      </trkpt>
      <trkpt lat="45.90446" lon="4.67741">
        <ele>367</ele>
        <time>2018-08-14T09:53:51Z</time>
      </trkpt>
      <trkpt lat="45.90453" lon="4.67744">
        <ele>367</ele>
        <time>2018-08-14T09:53:52Z</time>
      </trkpt>
      <trkpt lat="45.90458" lon="4.6775">
        <ele>364</ele>
        <time>2018-08-14T09:53:53Z</time>
      </trkpt>
      <trkpt lat="45.90465" lon="4.67752">
        <ele>364</ele>
        <time>2018-08-14T09:53:54Z</time>
      </trkpt>
      <trkpt lat="45.90472" lon="4.67755">
        <ele>364</ele>
        <time>2018-08-14T09:53:55Z</time>
      </trkpt>
      <trkpt lat="45.90478" lon="4.67759">
        <ele>364</ele>
        <time>2018-08-14T09:53:56Z</time>
      </trkpt>
      <trkpt lat="45.90485" lon="4.67762">
        <ele>364</ele>
        <time>2018-08-14T09:53:57Z</time>
      </trkpt>
      <trkpt lat="45.90493" lon="4.67762">
        <ele>364</ele>
        <time>2018-08-14T09:53:58Z</time>
      </trkpt>
      <trkpt lat="45.90497" lon="4.67768">
        <ele>364</ele>
        <time>2018-08-14T09:53:59Z</time>
      </trkpt>
      <trkpt lat="45.90504" lon="4.6777">
        <ele>364</ele>
        <time>2018-08-14T09:54:00Z</time>
      </trkpt>
      <trkpt lat="45.9051" lon="4.67772">
        <ele>365</ele>
        <time>2018-08-14T09:54:01Z</time>
      </trkpt>
      <trkpt lat="45.90515" lon="4.67772">
        <ele>365</ele>
        <time>2018-08-14T09:54:02Z</time>
      </trkpt>
      <trkpt lat="45.90521" lon="4.67775">
        <ele>365</ele>
        <time>2018-08-14T09:54:03Z</time>
      </trkpt>
      <trkpt lat="45.90527" lon="4.67777">
        <ele>365</ele>
        <time>2018-08-14T09:54:04Z</time>
      </trkpt>
      <trkpt lat="45.90539" lon="4.67775">
        <ele>365</ele>
        <time>2018-08-14T09:54:05Z</time>
      </trkpt>
      <trkpt lat="45.90545" lon="4.67776">
        <ele>365</ele>
        <time>2018-08-14T09:54:06Z</time>
      </trkpt>
      <trkpt lat="45.9055" lon="4.67777">
        <ele>365</ele>
        <time>2018-08-14T09:54:07Z</time>
      </trkpt>
      <trkpt lat="45.90554" lon="4.67782">
        <ele>365</ele>
        <time>2018-08-14T09:54:08Z</time>
      </trkpt>
      <trkpt lat="45.9056" lon="4.67783">
        <ele>365</ele>
        <time>2018-08-14T09:54:09Z</time>
      </trkpt>
      <trkpt lat="45.90565" lon="4.67786">
        <ele>365</ele>
        <time>2018-08-14T09:54:10Z</time>
      </trkpt>
      <trkpt lat="45.90569" lon="4.67787">
        <ele>365</ele>
        <time>2018-08-14T09:54:11Z</time>
      </trkpt>
      <trkpt lat="45.90574" lon="4.67788">
        <ele>365</ele>
        <time>2018-08-14T09:54:12Z</time>
      </trkpt>
      <trkpt lat="45.9058" lon="4.6779">
        <ele>366</ele>
        <time>2018-08-14T09:54:13Z</time>
      </trkpt>
      <trkpt lat="45.90585" lon="4.6779">
        <ele>367</ele>
        <time>2018-08-14T09:54:14Z</time>
      </trkpt>
      <trkpt lat="45.90592" lon="4.6779">
        <ele>367</ele>
        <time>2018-08-14T09:54:15Z</time>
      </trkpt>
      <trkpt lat="45.90598" lon="4.67789">
        <ele>367</ele>
        <time>2018-08-14T09:54:16Z</time>
      </trkpt>
      <trkpt lat="45.90604" lon="4.67789">
        <ele>367</ele>
        <time>2018-08-14T09:54:17Z</time>
      </trkpt>
      <trkpt lat="45.90609" lon="4.67788">
        <ele>367</ele>
        <time>2018-08-14T09:54:18Z</time>
      </trkpt>
      <trkpt lat="45.90614" lon="4.67789">
        <ele>367</ele>
        <time>2018-08-14T09:54:19Z</time>
      </trkpt>
      <trkpt lat="45.90619" lon="4.6779">
        <ele>367</ele>
        <time>2018-08-14T09:54:20Z</time>
      </trkpt>
      <trkpt lat="45.90624" lon="4.67789">
        <ele>367</ele>
        <time>2018-08-14T09:54:21Z</time>
      </trkpt>
      <trkpt lat="45.90627" lon="4.6779">
        <ele>367</ele>
        <time>2018-08-14T09:54:22Z</time>
      </trkpt>
      <trkpt lat="45.90633" lon="4.67789">
        <ele>367</ele>
        <time>2018-08-14T09:54:23Z</time>
      </trkpt>
      <trkpt lat="45.90641" lon="4.67789">
        <ele>367</ele>
        <time>2018-08-14T09:54:25Z</time>
      </trkpt>
      <trkpt lat="45.90645" lon="4.67789">
        <ele>367</ele>
        <time>2018-08-14T09:54:26Z</time>
      </trkpt>
      <trkpt lat="45.90653" lon="4.67789">
        <ele>367</ele>
        <time>2018-08-14T09:54:28Z</time>
      </trkpt>
      <trkpt lat="45.90657" lon="4.6779">
        <ele>367</ele>
        <time>2018-08-14T09:54:29Z</time>
      </trkpt>
      <trkpt lat="45.90666" lon="4.6779">
        <ele>368</ele>
        <time>2018-08-14T09:54:31Z</time>
      </trkpt>
      <trkpt lat="45.9067" lon="4.67791">
        <ele>368</ele>
        <time>2018-08-14T09:54:32Z</time>
      </trkpt>
      <trkpt lat="45.90679" lon="4.67793">
        <ele>368</ele>
        <time>2018-08-14T09:54:34Z</time>
      </trkpt>
      <trkpt lat="45.90684" lon="4.67794">
        <ele>368</ele>
        <time>2018-08-14T09:54:35Z</time>
      </trkpt>
      <trkpt lat="45.90692" lon="4.67797">
        <ele>368</ele>
        <time>2018-08-14T09:54:37Z</time>
      </trkpt>
      <trkpt lat="45.90696" lon="4.67799">
        <ele>368</ele>
        <time>2018-08-14T09:54:38Z</time>
      </trkpt>
      <trkpt lat="45.90704" lon="4.67801">
        <ele>368</ele>
        <time>2018-08-14T09:54:40Z</time>
      </trkpt>
      <trkpt lat="45.9071" lon="4.67802">
        <ele>368</ele>
        <time>2018-08-14T09:54:41Z</time>
      </trkpt>
      <trkpt lat="45.90717" lon="4.67804">
        <ele>368</ele>
        <time>2018-08-14T09:54:43Z</time>
      </trkpt>
      <trkpt lat="45.90722" lon="4.67807">
        <ele>368</ele>
        <time>2018-08-14T09:54:44Z</time>
      </trkpt>
      <trkpt lat="45.90729" lon="4.67811">
        <ele>369</ele>
        <time>2018-08-14T09:54:46Z</time>
      </trkpt>
      <trkpt lat="45.90733" lon="4.67812">
        <ele>369</ele>
        <time>2018-08-14T09:54:47Z</time>
      </trkpt>
      <trkpt lat="45.90741" lon="4.67816">
        <ele>369</ele>
        <time>2018-08-14T09:54:49Z</time>
      </trkpt>
      <trkpt lat="45.90745" lon="4.67816">
        <ele>369</ele>
        <time>2018-08-14T09:54:50Z</time>
      </trkpt>
      <trkpt lat="45.90753" lon="4.67818">
        <ele>369</ele>
        <time>2018-08-14T09:54:52Z</time>
      </trkpt>
      <trkpt lat="45.90757" lon="4.6782">
        <ele>369</ele>
        <time>2018-08-14T09:54:53Z</time>
      </trkpt>
      <trkpt lat="45.90761" lon="4.67822">
        <ele>369</ele>
        <time>2018-08-14T09:54:54Z</time>
      </trkpt>
      <trkpt lat="45.90765" lon="4.67824">
        <ele>369</ele>
        <time>2018-08-14T09:54:55Z</time>
      </trkpt>
      <trkpt lat="45.90773" lon="4.67828">
        <ele>369</ele>
        <time>2018-08-14T09:54:57Z</time>
      </trkpt>
      <trkpt lat="45.90776" lon="4.6783">
        <ele>369</ele>
        <time>2018-08-14T09:54:58Z</time>
      </trkpt>
      <trkpt lat="45.90784" lon="4.67833">
        <ele>368</ele>
        <time>2018-08-14T09:55:00Z</time>
      </trkpt>
      <trkpt lat="45.90789" lon="4.67835">
        <ele>371</ele>
        <time>2018-08-14T09:55:01Z</time>
      </trkpt>
      <trkpt lat="45.90797" lon="4.67838">
        <ele>371</ele>
        <time>2018-08-14T09:55:03Z</time>
      </trkpt>
      <trkpt lat="45.90801" lon="4.67839">
        <ele>371</ele>
        <time>2018-08-14T09:55:04Z</time>
      </trkpt>
      <trkpt lat="45.90809" lon="4.67842">
        <ele>371</ele>
        <time>2018-08-14T09:55:06Z</time>
      </trkpt>
      <trkpt lat="45.90815" lon="4.67842">
        <ele>370</ele>
        <time>2018-08-14T09:55:07Z</time>
      </trkpt>
      <trkpt lat="45.90819" lon="4.67843">
        <ele>370</ele>
        <time>2018-08-14T09:55:08Z</time>
      </trkpt>
      <trkpt lat="45.90823" lon="4.67846">
        <ele>370</ele>
        <time>2018-08-14T09:55:09Z</time>
      </trkpt>
      <trkpt lat="45.90827" lon="4.67848">
        <ele>370</ele>
        <time>2018-08-14T09:55:10Z</time>
      </trkpt>
      <trkpt lat="45.90832" lon="4.67849">
        <ele>370</ele>
        <time>2018-08-14T09:55:11Z</time>
      </trkpt>
      <trkpt lat="45.90837" lon="4.67851">
        <ele>370</ele>
        <time>2018-08-14T09:55:12Z</time>
      </trkpt>
      <trkpt lat="45.90842" lon="4.67852">
        <ele>370</ele>
        <time>2018-08-14T09:55:13Z</time>
      </trkpt>
      <trkpt lat="45.90847" lon="4.67854">
        <ele>370</ele>
        <time>2018-08-14T09:55:14Z</time>
      </trkpt>
      <trkpt lat="45.90851" lon="4.67854">
        <ele>370</ele>
        <time>2018-08-14T09:55:15Z</time>
      </trkpt>
      <trkpt lat="45.9086" lon="4.67857">
        <ele>370</ele>
        <time>2018-08-14T09:55:17Z</time>
      </trkpt>
      <trkpt lat="45.90865" lon="4.67859">
        <ele>370</ele>
        <time>2018-08-14T09:55:18Z</time>
      </trkpt>
      <trkpt lat="45.90868" lon="4.67862">
        <ele>370</ele>
        <time>2018-08-14T09:55:19Z</time>
      </trkpt>
      <trkpt lat="45.90874" lon="4.67862">
        <ele>370</ele>
        <time>2018-08-14T09:55:20Z</time>
      </trkpt>
      <trkpt lat="45.90879" lon="4.67864">
        <ele>370</ele>
        <time>2018-08-14T09:55:21Z</time>
      </trkpt>
      <trkpt lat="45.90883" lon="4.67867">
        <ele>370</ele>
        <time>2018-08-14T09:55:22Z</time>
      </trkpt>
      <trkpt lat="45.9089" lon="4.67872">
        <ele>370</ele>
        <time>2018-08-14T09:55:24Z</time>
      </trkpt>
      <trkpt lat="45.90897" lon="4.67872">
        <ele>370</ele>
        <time>2018-08-14T09:55:25Z</time>
      </trkpt>
      <trkpt lat="45.90905" lon="4.67877">
        <ele>370</ele>
        <time>2018-08-14T09:55:27Z</time>
      </trkpt>
      <trkpt lat="45.90909" lon="4.6788">
        <ele>370</ele>
        <time>2018-08-14T09:55:28Z</time>
      </trkpt>
      <trkpt lat="45.90914" lon="4.67882">
        <ele>370</ele>
        <time>2018-08-14T09:55:29Z</time>
      </trkpt>
      <trkpt lat="45.90918" lon="4.67884">
        <ele>369</ele>
        <time>2018-08-14T09:55:30Z</time>
      </trkpt>
      <trkpt lat="45.90923" lon="4.67886">
        <ele>370</ele>
        <time>2018-08-14T09:55:31Z</time>
      </trkpt>
      <trkpt lat="45.90927" lon="4.67887">
        <ele>370</ele>
        <time>2018-08-14T09:55:32Z</time>
      </trkpt>
      <trkpt lat="45.90933" lon="4.67889">
        <ele>370</ele>
        <time>2018-08-14T09:55:33Z</time>
      </trkpt>
      <trkpt lat="45.90938" lon="4.67891">
        <ele>370</ele>
        <time>2018-08-14T09:55:34Z</time>
      </trkpt>
      <trkpt lat="45.90946" lon="4.67895">
        <ele>370</ele>
        <time>2018-08-14T09:55:36Z</time>
      </trkpt>
      <trkpt lat="45.90949" lon="4.67898">
        <ele>370</ele>
        <time>2018-08-14T09:55:37Z</time>
      </trkpt>
      <trkpt lat="45.90958" lon="4.67899">
        <ele>370</ele>
        <time>2018-08-14T09:55:39Z</time>
      </trkpt>
      <trkpt lat="45.90963" lon="4.679">
        <ele>370</ele>
        <time>2018-08-14T09:55:40Z</time>
      </trkpt>
      <trkpt lat="45.90967" lon="4.67902">
        <ele>370</ele>
        <time>2018-08-14T09:55:41Z</time>
      </trkpt>
      <trkpt lat="45.90971" lon="4.67905">
        <ele>370</ele>
        <time>2018-08-14T09:55:42Z</time>
      </trkpt>
      <trkpt lat="45.9098" lon="4.67908">
        <ele>370</ele>
        <time>2018-08-14T09:55:44Z</time>
      </trkpt>
      <trkpt lat="45.90983" lon="4.67909">
        <ele>371</ele>
        <time>2018-08-14T09:55:45Z</time>
      </trkpt>
      <trkpt lat="45.9099" lon="4.67913">
        <ele>371</ele>
        <time>2018-08-14T09:55:47Z</time>
      </trkpt>
      <trkpt lat="45.90993" lon="4.67913">
        <ele>371</ele>
        <time>2018-08-14T09:55:48Z</time>
      </trkpt>
      <trkpt lat="45.91" lon="4.67917">
        <ele>372</ele>
        <time>2018-08-14T09:55:50Z</time>
      </trkpt>
      <trkpt lat="45.91004" lon="4.6792">
        <ele>372</ele>
        <time>2018-08-14T09:55:51Z</time>
      </trkpt>
      <trkpt lat="45.91011" lon="4.67924">
        <ele>373</ele>
        <time>2018-08-14T09:55:53Z</time>
      </trkpt>
      <trkpt lat="45.91015" lon="4.67926">
        <ele>373</ele>
        <time>2018-08-14T09:55:54Z</time>
      </trkpt>
      <trkpt lat="45.91021" lon="4.67931">
        <ele>374</ele>
        <time>2018-08-14T09:55:57Z</time>
      </trkpt>
      <trkpt lat="45.91024" lon="4.67932">
        <ele>374</ele>
        <time>2018-08-14T09:55:58Z</time>
      </trkpt>
      <trkpt lat="45.91031" lon="4.67937">
        <ele>374</ele>
        <time>2018-08-14T09:55:59Z</time>
      </trkpt>
      <trkpt lat="45.91033" lon="4.67938">
        <ele>374</ele>
        <time>2018-08-14T09:56:00Z</time>
      </trkpt>
      <trkpt lat="45.91041" lon="4.67942">
        <ele>374</ele>
        <time>2018-08-14T09:56:02Z</time>
      </trkpt>
      <trkpt lat="45.91042" lon="4.67943">
        <ele>374</ele>
        <time>2018-08-14T09:56:03Z</time>
      </trkpt>
      <trkpt lat="45.91049" lon="4.67947">
        <ele>375</ele>
        <time>2018-08-14T09:56:06Z</time>
      </trkpt>
      <trkpt lat="45.91052" lon="4.67948">
        <ele>375</ele>
        <time>2018-08-14T09:56:07Z</time>
      </trkpt>
      <trkpt lat="45.91058" lon="4.6795">
        <ele>375</ele>
        <time>2018-08-14T09:56:09Z</time>
      </trkpt>
      <trkpt lat="45.91061" lon="4.67951">
        <ele>375</ele>
        <time>2018-08-14T09:56:10Z</time>
      </trkpt>
      <trkpt lat="45.91068" lon="4.67951">
        <ele>375</ele>
        <time>2018-08-14T09:56:12Z</time>
      </trkpt>
      <trkpt lat="45.91071" lon="4.67951">
        <ele>375</ele>
        <time>2018-08-14T09:56:13Z</time>
      </trkpt>
      <trkpt lat="45.91078" lon="4.67952">
        <ele>375</ele>
        <time>2018-08-14T09:56:15Z</time>
      </trkpt>
      <trkpt lat="45.91081" lon="4.67952">
        <ele>375</ele>
        <time>2018-08-14T09:56:16Z</time>
      </trkpt>
      <trkpt lat="45.91087" lon="4.67952">
        <ele>376</ele>
        <time>2018-08-14T09:56:18Z</time>
      </trkpt>
      <trkpt lat="45.91091" lon="4.67953">
        <ele>376</ele>
        <time>2018-08-14T09:56:19Z</time>
      </trkpt>
      <trkpt lat="45.91097" lon="4.67954">
        <ele>376</ele>
        <time>2018-08-14T09:56:21Z</time>
      </trkpt>
      <trkpt lat="45.911" lon="4.67954">
        <ele>376</ele>
        <time>2018-08-14T09:56:22Z</time>
      </trkpt>
      <trkpt lat="45.91108" lon="4.67956">
        <ele>377</ele>
        <time>2018-08-14T09:56:25Z</time>
      </trkpt>
      <trkpt lat="45.91112" lon="4.67956">
        <ele>377</ele>
        <time>2018-08-14T09:56:26Z</time>
      </trkpt>
      <trkpt lat="45.91118" lon="4.67957">
        <ele>377</ele>
        <time>2018-08-14T09:56:28Z</time>
      </trkpt>
      <trkpt lat="45.91122" lon="4.67957">
        <ele>377</ele>
        <time>2018-08-14T09:56:29Z</time>
      </trkpt>
      <trkpt lat="45.91128" lon="4.67959">
        <ele>377</ele>
        <time>2018-08-14T09:56:31Z</time>
      </trkpt>
      <trkpt lat="45.91131" lon="4.67959">
        <ele>377</ele>
        <time>2018-08-14T09:56:32Z</time>
      </trkpt>
      <trkpt lat="45.91138" lon="4.6796">
        <ele>377</ele>
        <time>2018-08-14T09:56:34Z</time>
      </trkpt>
      <trkpt lat="45.91141" lon="4.67961">
        <ele>377</ele>
        <time>2018-08-14T09:56:35Z</time>
      </trkpt>
      <trkpt lat="45.91147" lon="4.67963">
        <ele>377</ele>
        <time>2018-08-14T09:56:37Z</time>
      </trkpt>
      <trkpt lat="45.9115" lon="4.67965">
        <ele>377</ele>
        <time>2018-08-14T09:56:38Z</time>
      </trkpt>
      <trkpt lat="45.91156" lon="4.67968">
        <ele>378</ele>
        <time>2018-08-14T09:56:40Z</time>
      </trkpt>
      <trkpt lat="45.91159" lon="4.6797">
        <ele>378</ele>
        <time>2018-08-14T09:56:41Z</time>
      </trkpt>
      <trkpt lat="45.91167" lon="4.67975">
        <ele>379</ele>
        <time>2018-08-14T09:56:44Z</time>
      </trkpt>
      <trkpt lat="45.9117" lon="4.67976">
        <ele>379</ele>
        <time>2018-08-14T09:56:45Z</time>
      </trkpt>
      <trkpt lat="45.91177" lon="4.67981">
        <ele>380</ele>
        <time>2018-08-14T09:56:48Z</time>
      </trkpt>
      <trkpt lat="45.91179" lon="4.67983">
        <ele>380</ele>
        <time>2018-08-14T09:56:49Z</time>
      </trkpt>
      <trkpt lat="45.91186" lon="4.67988">
        <ele>380</ele>
        <time>2018-08-14T09:56:52Z</time>
      </trkpt>
      <trkpt lat="45.91188" lon="4.6799">
        <ele>380</ele>
        <time>2018-08-14T09:56:53Z</time>
      </trkpt>
      <trkpt lat="45.91196" lon="4.67995">
        <ele>380</ele>
        <time>2018-08-14T09:56:56Z</time>
      </trkpt>
      <trkpt lat="45.91199" lon="4.67996">
        <ele>380</ele>
        <time>2018-08-14T09:56:57Z</time>
      </trkpt>
      <trkpt lat="45.91206" lon="4.68">
        <ele>380</ele>
        <time>2018-08-14T09:57:00Z</time>
      </trkpt>
      <trkpt lat="45.91209" lon="4.68001">
        <ele>383</ele>
        <time>2018-08-14T09:57:01Z</time>
      </trkpt>
      <trkpt lat="45.91217" lon="4.68005">
        <ele>383</ele>
        <time>2018-08-14T09:57:04Z</time>
      </trkpt>
      <trkpt lat="45.9122" lon="4.68007">
        <ele>384</ele>
        <time>2018-08-14T09:57:05Z</time>
      </trkpt>
      <trkpt lat="45.91228" lon="4.68011">
        <ele>384</ele>
        <time>2018-08-14T09:57:08Z</time>
      </trkpt>
      <trkpt lat="45.91231" lon="4.68013">
        <ele>384</ele>
        <time>2018-08-14T09:57:09Z</time>
      </trkpt>
      <trkpt lat="45.91237" lon="4.68016">
        <ele>384</ele>
        <time>2018-08-14T09:57:11Z</time>
      </trkpt>
      <trkpt lat="45.9124" lon="4.68018">
        <ele>384</ele>
        <time>2018-08-14T09:57:12Z</time>
      </trkpt>
      <trkpt lat="45.91246" lon="4.68021">
        <ele>384</ele>
        <time>2018-08-14T09:57:14Z</time>
      </trkpt>
      <trkpt lat="45.91249" lon="4.68023">
        <ele>384</ele>
        <time>2018-08-14T09:57:15Z</time>
      </trkpt>
      <trkpt lat="45.91255" lon="4.68026">
        <ele>385</ele>
        <time>2018-08-14T09:57:17Z</time>
      </trkpt>
      <trkpt lat="45.91258" lon="4.68028">
        <ele>385</ele>
        <time>2018-08-14T09:57:18Z</time>
      </trkpt>
      <trkpt lat="45.91264" lon="4.68032">
        <ele>385</ele>
        <time>2018-08-14T09:57:20Z</time>
      </trkpt>
      <trkpt lat="45.91273" lon="4.68037">
        <ele>385</ele>
        <time>2018-08-14T09:57:21Z</time>
      </trkpt>
      <trkpt lat="45.91276" lon="4.68039">
        <ele>385</ele>
        <time>2018-08-14T09:57:23Z</time>
      </trkpt>
      <trkpt lat="45.91283" lon="4.68042">
        <ele>385</ele>
        <time>2018-08-14T09:57:24Z</time>
      </trkpt>
      <trkpt lat="45.9129" lon="4.68045">
        <ele>385</ele>
        <time>2018-08-14T09:57:26Z</time>
      </trkpt>
      <trkpt lat="45.91294" lon="4.68046">
        <ele>385</ele>
        <time>2018-08-14T09:57:27Z</time>
      </trkpt>
      <trkpt lat="45.91302" lon="4.6805">
        <ele>384</ele>
        <time>2018-08-14T09:57:29Z</time>
      </trkpt>
      <trkpt lat="45.91305" lon="4.68051">
        <ele>384</ele>
        <time>2018-08-14T09:57:30Z</time>
      </trkpt>
      <trkpt lat="45.91311" lon="4.68055">
        <ele>384</ele>
        <time>2018-08-14T09:57:33Z</time>
      </trkpt>
      <trkpt lat="45.91314" lon="4.68056">
        <ele>385</ele>
        <time>2018-08-14T09:57:34Z</time>
      </trkpt>
      <trkpt lat="45.91317" lon="4.68057">
        <ele>385</ele>
        <time>2018-08-14T09:57:35Z</time>
      </trkpt>
      <trkpt lat="45.91325" lon="4.68062">
        <ele>385</ele>
        <time>2018-08-14T09:57:36Z</time>
      </trkpt>
      <trkpt lat="45.91333" lon="4.68066">
        <ele>385</ele>
        <time>2018-08-14T09:57:38Z</time>
      </trkpt>
      <trkpt lat="45.91336" lon="4.68068">
        <ele>385</ele>
        <time>2018-08-14T09:57:39Z</time>
      </trkpt>
      <trkpt lat="45.9134" lon="4.6807">
        <ele>385</ele>
        <time>2018-08-14T09:57:41Z</time>
      </trkpt>
      <trkpt lat="45.91346" lon="4.68073">
        <ele>385</ele>
        <time>2018-08-14T09:57:42Z</time>
      </trkpt>
      <trkpt lat="45.91354" lon="4.68077">
        <ele>385</ele>
        <time>2018-08-14T09:57:45Z</time>
      </trkpt>
      <trkpt lat="45.91356" lon="4.68078">
        <ele>385</ele>
        <time>2018-08-14T09:57:46Z</time>
      </trkpt>
      <trkpt lat="45.91364" lon="4.68081">
        <ele>385</ele>
        <time>2018-08-14T09:57:49Z</time>
      </trkpt>
      <trkpt lat="45.91366" lon="4.68082">
        <ele>385</ele>
        <time>2018-08-14T09:57:50Z</time>
      </trkpt>
      <trkpt lat="45.91372" lon="4.68085">
        <ele>386</ele>
        <time>2018-08-14T09:57:52Z</time>
      </trkpt>
      <trkpt lat="45.91375" lon="4.68086">
        <ele>386</ele>
        <time>2018-08-14T09:57:53Z</time>
      </trkpt>
      <trkpt lat="45.91378" lon="4.68087">
        <ele>386</ele>
        <time>2018-08-14T09:57:54Z</time>
      </trkpt>
      <trkpt lat="45.91388" lon="4.68088">
        <ele>386</ele>
        <time>2018-08-14T09:57:55Z</time>
      </trkpt>
      <trkpt lat="45.91395" lon="4.68088">
        <ele>386</ele>
        <time>2018-08-14T09:57:58Z</time>
      </trkpt>
      <trkpt lat="45.91402" lon="4.68088">
        <ele>386</ele>
        <time>2018-08-14T09:57:59Z</time>
      </trkpt>
      <trkpt lat="45.91409" lon="4.68087">
        <ele>386</ele>
        <time>2018-08-14T09:58:01Z</time>
      </trkpt>
      <trkpt lat="45.91413" lon="4.68086">
        <ele>386</ele>
        <time>2018-08-14T09:58:02Z</time>
      </trkpt>
      <trkpt lat="45.9142" lon="4.68084">
        <ele>386</ele>
        <time>2018-08-14T09:58:05Z</time>
      </trkpt>
      <trkpt lat="45.91422" lon="4.68082">
        <ele>386</ele>
        <time>2018-08-14T09:58:06Z</time>
      </trkpt>
      <trkpt lat="45.91427" lon="4.68076">
        <ele>385</ele>
        <time>2018-08-14T09:58:09Z</time>
      </trkpt>
      <trkpt lat="45.91428" lon="4.68072">
        <ele>385</ele>
        <time>2018-08-14T09:58:10Z</time>
      </trkpt>
      <trkpt lat="45.91428" lon="4.68068">
        <ele>385</ele>
        <time>2018-08-14T09:58:11Z</time>
      </trkpt>
      <trkpt lat="45.91427" lon="4.68054">
        <ele>384</ele>
        <time>2018-08-14T09:58:12Z</time>
      </trkpt>
      <trkpt lat="45.91426" lon="4.68048">
        <ele>384</ele>
        <time>2018-08-14T09:58:13Z</time>
      </trkpt>
      <trkpt lat="45.91424" lon="4.68037">
        <ele>384</ele>
        <time>2018-08-14T09:58:14Z</time>
      </trkpt>
      <trkpt lat="45.91422" lon="4.68031">
        <ele>384</ele>
        <time>2018-08-14T09:58:15Z</time>
      </trkpt>
      <trkpt lat="45.91421" lon="4.68024">
        <ele>384</ele>
        <time>2018-08-14T09:58:16Z</time>
      </trkpt>
      <trkpt lat="45.9142" lon="4.68019">
        <ele>384</ele>
        <time>2018-08-14T09:58:17Z</time>
      </trkpt>
      <trkpt lat="45.91421" lon="4.68011">
        <ele>385</ele>
        <time>2018-08-14T09:58:18Z</time>
      </trkpt>
      <trkpt lat="45.91421" lon="4.68003">
        <ele>385</ele>
        <time>2018-08-14T09:58:19Z</time>
      </trkpt>
      <trkpt lat="45.9142" lon="4.67995">
        <ele>384</ele>
        <time>2018-08-14T09:58:20Z</time>
      </trkpt>
      <trkpt lat="45.91419" lon="4.67983">
        <ele>384</ele>
        <time>2018-08-14T09:58:22Z</time>
      </trkpt>
      <trkpt lat="45.91419" lon="4.67981">
        <ele>384</ele>
        <time>2018-08-14T09:58:23Z</time>
      </trkpt>
      <trkpt lat="45.91418" lon="4.67969">
        <ele>383</ele>
        <time>2018-08-14T09:58:25Z</time>
      </trkpt>
      <trkpt lat="45.91417" lon="4.67967">
        <ele>383</ele>
        <time>2018-08-14T09:58:26Z</time>
      </trkpt>
      <trkpt lat="45.91416" lon="4.67956">
        <ele>381</ele>
        <time>2018-08-14T09:58:31Z</time>
      </trkpt>
      <trkpt lat="45.91417" lon="4.67954">
        <ele>382</ele>
        <time>2018-08-14T09:58:32Z</time>
      </trkpt>
      <trkpt lat="45.91421" lon="4.67947">
        <ele>382</ele>
        <time>2018-08-14T09:58:35Z</time>
      </trkpt>
      <trkpt lat="45.91424" lon="4.67945">
        <ele>382</ele>
        <time>2018-08-14T09:58:36Z</time>
      </trkpt>
      <trkpt lat="45.91429" lon="4.67939">
        <ele>382</ele>
        <time>2018-08-14T09:58:38Z</time>
      </trkpt>
      <trkpt lat="45.91431" lon="4.67935">
        <ele>382</ele>
        <time>2018-08-14T09:58:39Z</time>
      </trkpt>
      <trkpt lat="45.91437" lon="4.67925">
        <ele>382</ele>
        <time>2018-08-14T09:58:42Z</time>
      </trkpt>
      <trkpt lat="45.91438" lon="4.67922">
        <ele>382</ele>
        <time>2018-08-14T09:58:43Z</time>
      </trkpt>
      <trkpt lat="45.91444" lon="4.67913">
        <ele>381</ele>
        <time>2018-08-14T09:58:46Z</time>
      </trkpt>
      <trkpt lat="45.91445" lon="4.6791">
        <ele>381</ele>
        <time>2018-08-14T09:58:47Z</time>
      </trkpt>
      <trkpt lat="45.91451" lon="4.67902">
        <ele>381</ele>
        <time>2018-08-14T09:58:50Z</time>
      </trkpt>
      <trkpt lat="45.91452" lon="4.679">
        <ele>381</ele>
        <time>2018-08-14T09:58:51Z</time>
      </trkpt>
      <trkpt lat="45.91461" lon="4.67897">
        <ele>381</ele>
        <time>2018-08-14T09:58:57Z</time>
      </trkpt>
      <trkpt lat="45.91463" lon="4.67897">
        <ele>382</ele>
        <time>2018-08-14T09:58:58Z</time>
      </trkpt>
      <trkpt lat="45.91468" lon="4.67898">
        <ele>382</ele>
        <time>2018-08-14T09:59:00Z</time>
      </trkpt>
      <trkpt lat="45.91472" lon="4.67899">
        <ele>382</ele>
        <time>2018-08-14T09:59:01Z</time>
      </trkpt>
      <trkpt lat="45.91478" lon="4.67901">
        <ele>382</ele>
        <time>2018-08-14T09:59:03Z</time>
      </trkpt>
      <trkpt lat="45.91481" lon="4.67902">
        <ele>382</ele>
        <time>2018-08-14T09:59:04Z</time>
      </trkpt>
      <trkpt lat="45.91487" lon="4.67904">
        <ele>383</ele>
        <time>2018-08-14T09:59:06Z</time>
      </trkpt>
      <trkpt lat="45.9149" lon="4.67905">
        <ele>383</ele>
        <time>2018-08-14T09:59:07Z</time>
      </trkpt>
      <trkpt lat="45.91499" lon="4.67906">
        <ele>383</ele>
        <time>2018-08-14T09:59:11Z</time>
      </trkpt>
      <trkpt lat="45.91502" lon="4.67906">
        <ele>383</ele>
        <time>2018-08-14T09:59:12Z</time>
      </trkpt>
      <trkpt lat="45.91509" lon="4.67903">
        <ele>382</ele>
        <time>2018-08-14T09:59:15Z</time>
      </trkpt>
      <trkpt lat="45.91511" lon="4.67901">
        <ele>382</ele>
        <time>2018-08-14T09:59:16Z</time>
      </trkpt>
      <trkpt lat="45.91515" lon="4.67892">
        <ele>382</ele>
        <time>2018-08-14T09:59:19Z</time>
      </trkpt>
      <trkpt lat="45.91516" lon="4.67889">
        <ele>382</ele>
        <time>2018-08-14T09:59:20Z</time>
      </trkpt>
      <trkpt lat="45.91508" lon="4.67893">
        <ele>382</ele>
        <time>2018-08-14T09:59:31Z</time>
      </trkpt>
      <trkpt lat="45.91508" lon="4.67897">
        <ele>382</ele>
        <time>2018-08-14T09:59:32Z</time>
      </trkpt>
      <trkpt lat="45.91508" lon="4.67899">
        <ele>382</ele>
        <time>2018-08-14T09:59:33Z</time>
      </trkpt>
      <trkpt lat="45.91505" lon="4.67909">
        <ele>383</ele>
        <time>2018-08-14T09:59:34Z</time>
      </trkpt>
      <trkpt lat="45.91498" lon="4.67903">
        <ele>383</ele>
        <time>2018-08-14T09:59:39Z</time>
      </trkpt>
      <trkpt lat="45.91498" lon="4.67901">
        <ele>383</ele>
        <time>2018-08-14T09:59:40Z</time>
      </trkpt>
      <trkpt lat="45.91495" lon="4.67889">
        <ele>382</ele>
        <time>2018-08-14T09:59:45Z</time>
      </trkpt>
      <trkpt lat="45.91495" lon="4.67887">
        <ele>382</ele>
        <time>2018-08-14T09:59:46Z</time>
      </trkpt>
      <trkpt lat="45.91496" lon="4.67874">
        <ele>382</ele>
        <time>2018-08-14T09:59:51Z</time>
      </trkpt>
      <trkpt lat="45.91496" lon="4.67873">
        <ele>382</ele>
        <time>2018-08-14T09:59:52Z</time>
      </trkpt>
      <trkpt lat="45.91488" lon="4.67865">
        <ele>382</ele>
        <time>2018-08-14T10:00:49Z</time>
      </trkpt>
      <trkpt lat="45.91489" lon="4.67864">
        <ele>382</ele>
        <time>2018-08-14T10:00:50Z</time>
      </trkpt>
      <trkpt lat="45.91485" lon="4.67871">
        <ele>382</ele>
        <time>2018-08-14T10:01:59Z</time>
      </trkpt>
      <trkpt lat="45.91485" lon="4.67871">
        <ele>382</ele>
        <time>2018-08-14T10:02:00Z</time>
      </trkpt>
      <trkpt lat="45.91485" lon="4.67871">
        <ele>382</ele>
        <time>2018-08-14T10:02:01Z</time>
      </trkpt>
      <trkpt lat="45.91492" lon="4.67877">
        <ele>382</ele>
        <time>2018-08-14T10:03:00Z</time>
      </trkpt>
      <trkpt lat="45.91493" lon="4.67879">
        <ele>382</ele>
        <time>2018-08-14T10:03:01Z</time>
      </trkpt>
      <trkpt lat="45.91494" lon="4.67891">
        <ele>382</ele>
        <time>2018-08-14T10:03:06Z</time>
      </trkpt>
      <trkpt lat="45.91493" lon="4.67894">
        <ele>382</ele>
        <time>2018-08-14T10:03:07Z</time>
      </trkpt>
      <trkpt lat="45.91493" lon="4.67897">
        <ele>382</ele>
        <time>2018-08-14T10:03:08Z</time>
      </trkpt>
      <trkpt lat="45.91506" lon="4.67908">
        <ele>383</ele>
        <time>2018-08-14T10:03:09Z</time>
      </trkpt>
      <trkpt lat="45.91512" lon="4.67913">
        <ele>383</ele>
        <time>2018-08-14T10:03:14Z</time>
      </trkpt>
      <trkpt lat="45.91517" lon="4.67915">
        <ele>382</ele>
        <time>2018-08-14T10:03:15Z</time>
      </trkpt>
      <trkpt lat="45.91521" lon="4.67918">
        <ele>382</ele>
        <time>2018-08-14T10:03:16Z</time>
      </trkpt>
      <trkpt lat="45.91528" lon="4.67921">
        <ele>381</ele>
        <time>2018-08-14T10:03:17Z</time>
      </trkpt>
      <trkpt lat="45.91536" lon="4.67922">
        <ele>381</ele>
        <time>2018-08-14T10:03:19Z</time>
      </trkpt>
      <trkpt lat="45.91542" lon="4.67923">
        <ele>381</ele>
        <time>2018-08-14T10:03:20Z</time>
      </trkpt>
      <trkpt lat="45.91546" lon="4.67923">
        <ele>380</ele>
        <time>2018-08-14T10:03:21Z</time>
      </trkpt>
      <trkpt lat="45.91551" lon="4.67926">
        <ele>380</ele>
        <time>2018-08-14T10:03:22Z</time>
      </trkpt>
      <trkpt lat="45.91558" lon="4.6793">
        <ele>380</ele>
        <time>2018-08-14T10:03:24Z</time>
      </trkpt>
      <trkpt lat="45.91562" lon="4.67932">
        <ele>380</ele>
        <time>2018-08-14T10:03:25Z</time>
      </trkpt>
      <trkpt lat="45.9157" lon="4.67937">
        <ele>379</ele>
        <time>2018-08-14T10:03:27Z</time>
      </trkpt>
      <trkpt lat="45.91575" lon="4.67941">
        <ele>379</ele>
        <time>2018-08-14T10:03:28Z</time>
      </trkpt>
      <trkpt lat="45.91576" lon="4.67948">
        <ele>379</ele>
        <time>2018-08-14T10:03:29Z</time>
      </trkpt>
      <trkpt lat="45.91575" lon="4.67956">
        <ele>379</ele>
        <time>2018-08-14T10:03:30Z</time>
      </trkpt>
      <trkpt lat="45.91574" lon="4.67964">
        <ele>379</ele>
        <time>2018-08-14T10:03:31Z</time>
      </trkpt>
      <trkpt lat="45.91577" lon="4.67973">
        <ele>378</ele>
        <time>2018-08-14T10:03:32Z</time>
      </trkpt>
      <trkpt lat="45.91577" lon="4.6798">
        <ele>378</ele>
        <time>2018-08-14T10:03:33Z</time>
      </trkpt>
      <trkpt lat="45.91576" lon="4.67987">
        <ele>377</ele>
        <time>2018-08-14T10:03:34Z</time>
      </trkpt>
      <trkpt lat="45.91573" lon="4.67994">
        <ele>377</ele>
        <time>2018-08-14T10:03:35Z</time>
      </trkpt>
      <trkpt lat="45.91572" lon="4.68002">
        <ele>376</ele>
        <time>2018-08-14T10:03:36Z</time>
      </trkpt>
      <trkpt lat="45.91573" lon="4.68012">
        <ele>376</ele>
        <time>2018-08-14T10:03:37Z</time>
      </trkpt>
      <trkpt lat="45.91576" lon="4.68021">
        <ele>377</ele>
        <time>2018-08-14T10:03:38Z</time>
      </trkpt>
      <trkpt lat="45.91574" lon="4.68029">
        <ele>377</ele>
        <time>2018-08-14T10:03:39Z</time>
      </trkpt>
      <trkpt lat="45.91569" lon="4.68032">
        <ele>377</ele>
        <time>2018-08-14T10:03:40Z</time>
      </trkpt>
      <trkpt lat="45.9157" lon="4.68042">
        <ele>377</ele>
        <time>2018-08-14T10:03:41Z</time>
      </trkpt>
      <trkpt lat="45.91572" lon="4.68049">
        <ele>377</ele>
        <time>2018-08-14T10:03:42Z</time>
      </trkpt>
      <trkpt lat="45.91572" lon="4.68057">
        <ele>376</ele>
        <time>2018-08-14T10:03:43Z</time>
      </trkpt>
      <trkpt lat="45.91573" lon="4.68067">
        <ele>376</ele>
        <time>2018-08-14T10:03:44Z</time>
      </trkpt>
      <trkpt lat="45.91574" lon="4.68076">
        <ele>375</ele>
        <time>2018-08-14T10:03:45Z</time>
      </trkpt>
      <trkpt lat="45.91575" lon="4.68085">
        <ele>375</ele>
        <time>2018-08-14T10:03:46Z</time>
      </trkpt>
      <trkpt lat="45.91576" lon="4.68092">
        <ele>375</ele>
        <time>2018-08-14T10:03:47Z</time>
      </trkpt>
      <trkpt lat="45.91578" lon="4.68099">
        <ele>376</ele>
        <time>2018-08-14T10:03:48Z</time>
      </trkpt>
      <trkpt lat="45.9158" lon="4.68111">
        <ele>377</ele>
        <time>2018-08-14T10:03:50Z</time>
      </trkpt>
      <trkpt lat="45.91581" lon="4.68119">
        <ele>377</ele>
        <time>2018-08-14T10:03:51Z</time>
      </trkpt>
      <trkpt lat="45.9158" lon="4.68131">
        <ele>378</ele>
        <time>2018-08-14T10:03:55Z</time>
      </trkpt>
      <trkpt lat="45.91581" lon="4.68135">
        <ele>378</ele>
        <time>2018-08-14T10:03:56Z</time>
      </trkpt>
      <trkpt lat="45.91577" lon="4.68143">
        <ele>378</ele>
        <time>2018-08-14T10:03:59Z</time>
      </trkpt>
      <trkpt lat="45.91576" lon="4.68146">
        <ele>378</ele>
        <time>2018-08-14T10:04:00Z</time>
      </trkpt>
      <trkpt lat="45.91582" lon="4.6816">
        <ele>378</ele>
        <time>2018-08-14T10:04:01Z</time>
      </trkpt>
      <trkpt lat="45.91585" lon="4.68163">
        <ele>377</ele>
        <time>2018-08-14T10:04:02Z</time>
      </trkpt>
      <trkpt lat="45.9159" lon="4.68166">
        <ele>376</ele>
        <time>2018-08-14T10:04:03Z</time>
      </trkpt>
      <trkpt lat="45.91594" lon="4.68169">
        <ele>377</ele>
        <time>2018-08-14T10:04:04Z</time>
      </trkpt>
      <trkpt lat="45.91599" lon="4.68172">
        <ele>376</ele>
        <time>2018-08-14T10:04:05Z</time>
      </trkpt>
      <trkpt lat="45.91606" lon="4.68177">
        <ele>376</ele>
        <time>2018-08-14T10:04:07Z</time>
      </trkpt>
      <trkpt lat="45.91612" lon="4.6818">
        <ele>375</ele>
        <time>2018-08-14T10:04:08Z</time>
      </trkpt>
      <trkpt lat="45.91619" lon="4.68185">
        <ele>375</ele>
        <time>2018-08-14T10:04:09Z</time>
      </trkpt>
      <trkpt lat="45.9162" lon="4.68188">
        <ele>375</ele>
        <time>2018-08-14T10:04:10Z</time>
      </trkpt>
      <trkpt lat="45.91628" lon="4.68196">
        <ele>375</ele>
        <time>2018-08-14T10:04:11Z</time>
      </trkpt>
      <trkpt lat="45.91634" lon="4.68197">
        <ele>374</ele>
        <time>2018-08-14T10:04:12Z</time>
      </trkpt>
      <trkpt lat="45.9164" lon="4.68197">
        <ele>374</ele>
        <time>2018-08-14T10:04:13Z</time>
      </trkpt>
      <trkpt lat="45.91647" lon="4.68204">
        <ele>374</ele>
        <time>2018-08-14T10:04:14Z</time>
      </trkpt>
      <trkpt lat="45.91654" lon="4.68208">
        <ele>374</ele>
        <time>2018-08-14T10:04:15Z</time>
      </trkpt>
      <trkpt lat="45.9166" lon="4.68212">
        <ele>374</ele>
        <time>2018-08-14T10:04:16Z</time>
      </trkpt>
      <trkpt lat="45.91665" lon="4.68216">
        <ele>374</ele>
        <time>2018-08-14T10:04:17Z</time>
      </trkpt>
      <trkpt lat="45.91673" lon="4.68221">
        <ele>371</ele>
        <time>2018-08-14T10:04:18Z</time>
      </trkpt>
      <trkpt lat="45.91679" lon="4.68223">
        <ele>371</ele>
        <time>2018-08-14T10:04:19Z</time>
      </trkpt>
      <trkpt lat="45.91683" lon="4.68228">
        <ele>371</ele>
        <time>2018-08-14T10:04:20Z</time>
      </trkpt>
      <trkpt lat="45.91688" lon="4.68233">
        <ele>371</ele>
        <time>2018-08-14T10:04:21Z</time>
      </trkpt>
      <trkpt lat="45.91692" lon="4.68239">
        <ele>371</ele>
        <time>2018-08-14T10:04:22Z</time>
      </trkpt>
      <trkpt lat="45.91697" lon="4.68245">
        <ele>371</ele>
        <time>2018-08-14T10:04:23Z</time>
      </trkpt>
      <trkpt lat="45.91702" lon="4.68248">
        <ele>370</ele>
        <time>2018-08-14T10:04:24Z</time>
      </trkpt>
      <trkpt lat="45.91706" lon="4.68251">
        <ele>373</ele>
        <time>2018-08-14T10:04:25Z</time>
      </trkpt>
      <trkpt lat="45.91712" lon="4.68252">
        <ele>373</ele>
        <time>2018-08-14T10:04:26Z</time>
      </trkpt>
      <trkpt lat="45.91719" lon="4.68256">
        <ele>372</ele>
        <time>2018-08-14T10:04:27Z</time>
      </trkpt>
      <trkpt lat="45.91724" lon="4.68256">
        <ele>372</ele>
        <time>2018-08-14T10:04:28Z</time>
      </trkpt>
      <trkpt lat="45.91731" lon="4.68256">
        <ele>372</ele>
        <time>2018-08-14T10:04:29Z</time>
      </trkpt>
      <trkpt lat="45.91736" lon="4.68254">
        <ele>371</ele>
        <time>2018-08-14T10:04:30Z</time>
      </trkpt>
      <trkpt lat="45.91741" lon="4.68258">
        <ele>371</ele>
        <time>2018-08-14T10:04:31Z</time>
      </trkpt>
      <trkpt lat="45.91746" lon="4.6826">
        <ele>371</ele>
        <time>2018-08-14T10:04:32Z</time>
      </trkpt>
      <trkpt lat="45.91753" lon="4.68263">
        <ele>371</ele>
        <time>2018-08-14T10:04:33Z</time>
      </trkpt>
      <trkpt lat="45.91759" lon="4.68263">
        <ele>371</ele>
        <time>2018-08-14T10:04:34Z</time>
      </trkpt>
      <trkpt lat="45.91763" lon="4.68263">
        <ele>372</ele>
        <time>2018-08-14T10:04:35Z</time>
      </trkpt>
      <trkpt lat="45.91771" lon="4.68265">
        <ele>372</ele>
        <time>2018-08-14T10:04:37Z</time>
      </trkpt>
      <trkpt lat="45.91775" lon="4.68268">
        <ele>372</ele>
        <time>2018-08-14T10:04:38Z</time>
      </trkpt>
      <trkpt lat="45.91779" lon="4.6827">
        <ele>372</ele>
        <time>2018-08-14T10:04:39Z</time>
      </trkpt>
      <trkpt lat="45.91785" lon="4.68271">
        <ele>372</ele>
        <time>2018-08-14T10:04:40Z</time>
      </trkpt>
      <trkpt lat="45.91793" lon="4.68277">
        <ele>372</ele>
        <time>2018-08-14T10:04:42Z</time>
      </trkpt>
      <trkpt lat="45.91797" lon="4.68277">
        <ele>373</ele>
        <time>2018-08-14T10:04:43Z</time>
      </trkpt>
      <trkpt lat="45.91801" lon="4.68279">
        <ele>373</ele>
        <time>2018-08-14T10:04:44Z</time>
      </trkpt>
      <trkpt lat="45.91807" lon="4.68277">
        <ele>372</ele>
        <time>2018-08-14T10:04:45Z</time>
      </trkpt>
      <trkpt lat="45.91816" lon="4.68278">
        <ele>372</ele>
        <time>2018-08-14T10:04:47Z</time>
      </trkpt>
      <trkpt lat="45.9182" lon="4.68278">
        <ele>372</ele>
        <time>2018-08-14T10:04:48Z</time>
      </trkpt>
      <trkpt lat="45.91827" lon="4.68279">
        <ele>372</ele>
        <time>2018-08-14T10:04:50Z</time>
      </trkpt>
      <trkpt lat="45.91832" lon="4.68283">
        <ele>373</ele>
        <time>2018-08-14T10:04:51Z</time>
      </trkpt>
      <trkpt lat="45.91837" lon="4.68284">
        <ele>374</ele>
        <time>2018-08-14T10:04:53Z</time>
      </trkpt>
      <trkpt lat="45.91842" lon="4.68283">
        <ele>374</ele>
        <time>2018-08-14T10:04:54Z</time>
      </trkpt>
      <trkpt lat="45.91848" lon="4.68284">
        <ele>375</ele>
        <time>2018-08-14T10:04:56Z</time>
      </trkpt>
      <trkpt lat="45.91853" lon="4.68286">
        <ele>375</ele>
        <time>2018-08-14T10:04:57Z</time>
      </trkpt>
      <trkpt lat="45.91861" lon="4.68287">
        <ele>375</ele>
        <time>2018-08-14T10:04:59Z</time>
      </trkpt>
      <trkpt lat="45.91865" lon="4.68288">
        <ele>375</ele>
        <time>2018-08-14T10:05:00Z</time>
      </trkpt>
      <trkpt lat="45.91872" lon="4.68289">
        <ele>376</ele>
        <time>2018-08-14T10:05:02Z</time>
      </trkpt>
      <trkpt lat="45.91874" lon="4.68289">
        <ele>376</ele>
        <time>2018-08-14T10:05:03Z</time>
      </trkpt>
      <trkpt lat="45.91879" lon="4.68289">
        <ele>376</ele>
        <time>2018-08-14T10:05:05Z</time>
      </trkpt>
      <trkpt lat="45.91887" lon="4.68288">
        <ele>376</ele>
        <time>2018-08-14T10:05:06Z</time>
      </trkpt>
      <trkpt lat="45.91893" lon="4.68289">
        <ele>376</ele>
        <time>2018-08-14T10:05:08Z</time>
      </trkpt>
      <trkpt lat="45.91897" lon="4.6829">
        <ele>376</ele>
        <time>2018-08-14T10:05:09Z</time>
      </trkpt>
      <trkpt lat="45.91904" lon="4.68292">
        <ele>376</ele>
        <time>2018-08-14T10:05:12Z</time>
      </trkpt>
      <trkpt lat="45.91906" lon="4.68292">
        <ele>377</ele>
        <time>2018-08-14T10:05:13Z</time>
      </trkpt>
      <trkpt lat="45.91914" lon="4.68295">
        <ele>377</ele>
        <time>2018-08-14T10:05:14Z</time>
      </trkpt>
      <trkpt lat="45.91916" lon="4.68296">
        <ele>377</ele>
        <time>2018-08-14T10:05:15Z</time>
      </trkpt>
      <trkpt lat="45.91923" lon="4.68297">
        <ele>379</ele>
        <time>2018-08-14T10:05:18Z</time>
      </trkpt>
      <trkpt lat="45.91926" lon="4.68298">
        <ele>379</ele>
        <time>2018-08-14T10:05:19Z</time>
      </trkpt>
      <trkpt lat="45.91934" lon="4.68299">
        <ele>379</ele>
        <time>2018-08-14T10:05:22Z</time>
      </trkpt>
      <trkpt lat="45.91937" lon="4.683">
        <ele>379</ele>
        <time>2018-08-14T10:05:23Z</time>
      </trkpt>
      <trkpt lat="45.9194" lon="4.68301">
        <ele>379</ele>
        <time>2018-08-14T10:05:24Z</time>
      </trkpt>
      <trkpt lat="45.91951" lon="4.68301">
        <ele>379</ele>
        <time>2018-08-14T10:05:25Z</time>
      </trkpt>
      <trkpt lat="45.91959" lon="4.68302">
        <ele>379</ele>
        <time>2018-08-14T10:05:29Z</time>
      </trkpt>
      <trkpt lat="45.91962" lon="4.68302">
        <ele>379</ele>
        <time>2018-08-14T10:05:30Z</time>
      </trkpt>
      <trkpt lat="45.9197" lon="4.68305">
        <ele>380</ele>
        <time>2018-08-14T10:05:33Z</time>
      </trkpt>
      <trkpt lat="45.91972" lon="4.68306">
        <ele>380</ele>
        <time>2018-08-14T10:05:34Z</time>
      </trkpt>
      <trkpt lat="45.91981" lon="4.68308">
        <ele>380</ele>
        <time>2018-08-14T10:05:37Z</time>
      </trkpt>
      <trkpt lat="45.91984" lon="4.68309">
        <ele>380</ele>
        <time>2018-08-14T10:05:38Z</time>
      </trkpt>
      <trkpt lat="45.9199" lon="4.6831">
        <ele>380</ele>
        <time>2018-08-14T10:05:40Z</time>
      </trkpt>
      <trkpt lat="45.91993" lon="4.68311">
        <ele>381</ele>
        <time>2018-08-14T10:05:41Z</time>
      </trkpt>
      <trkpt lat="45.91999" lon="4.68313">
        <ele>381</ele>
        <time>2018-08-14T10:05:43Z</time>
      </trkpt>
      <trkpt lat="45.92002" lon="4.68314">
        <ele>381</ele>
        <time>2018-08-14T10:05:44Z</time>
      </trkpt>
      <trkpt lat="45.92005" lon="4.68315">
        <ele>381</ele>
        <time>2018-08-14T10:05:45Z</time>
      </trkpt>
      <trkpt lat="45.92016" lon="4.68316">
        <ele>380</ele>
        <time>2018-08-14T10:05:46Z</time>
      </trkpt>
      <trkpt lat="45.92023" lon="4.68316">
        <ele>380</ele>
        <time>2018-08-14T10:05:48Z</time>
      </trkpt>
      <trkpt lat="45.92027" lon="4.68316">
        <ele>380</ele>
        <time>2018-08-14T10:05:49Z</time>
      </trkpt>
      <trkpt lat="45.92036" lon="4.68317">
        <ele>380</ele>
        <time>2018-08-14T10:05:51Z</time>
      </trkpt>
      <trkpt lat="45.9204" lon="4.68317">
        <ele>379</ele>
        <time>2018-08-14T10:05:52Z</time>
      </trkpt>
      <trkpt lat="45.92047" lon="4.68318">
        <ele>379</ele>
        <time>2018-08-14T10:05:54Z</time>
      </trkpt>
      <trkpt lat="45.92051" lon="4.68319">
        <ele>379</ele>
        <time>2018-08-14T10:05:55Z</time>
      </trkpt>
      <trkpt lat="45.92059" lon="4.68321">
        <ele>380</ele>
        <time>2018-08-14T10:05:57Z</time>
      </trkpt>
      <trkpt lat="45.92064" lon="4.68321">
        <ele>380</ele>
        <time>2018-08-14T10:05:58Z</time>
      </trkpt>
      <trkpt lat="45.92072" lon="4.68324">
        <ele>380</ele>
        <time>2018-08-14T10:06:00Z</time>
      </trkpt>
      <trkpt lat="45.92076" lon="4.68325">
        <ele>381</ele>
        <time>2018-08-14T10:06:01Z</time>
      </trkpt>
      <trkpt lat="45.92084" lon="4.68328">
        <ele>381</ele>
        <time>2018-08-14T10:06:03Z</time>
      </trkpt>
      <trkpt lat="45.92086" lon="4.68329">
        <ele>381</ele>
        <time>2018-08-14T10:06:04Z</time>
      </trkpt>
      <trkpt lat="45.92094" lon="4.68332">
        <ele>380</ele>
        <time>2018-08-14T10:06:07Z</time>
      </trkpt>
      <trkpt lat="45.92097" lon="4.68333">
        <ele>380</ele>
        <time>2018-08-14T10:06:08Z</time>
      </trkpt>
      <trkpt lat="45.92105" lon="4.68336">
        <ele>383</ele>
        <time>2018-08-14T10:06:09Z</time>
      </trkpt>
      <trkpt lat="45.92108" lon="4.6834">
        <ele>383</ele>
        <time>2018-08-14T10:06:10Z</time>
      </trkpt>
      <trkpt lat="45.92116" lon="4.68345">
        <ele>383</ele>
        <time>2018-08-14T10:06:12Z</time>
      </trkpt>
      <trkpt lat="45.9212" lon="4.68347">
        <ele>383</ele>
        <time>2018-08-14T10:06:13Z</time>
      </trkpt>
      <trkpt lat="45.92128" lon="4.68351">
        <ele>383</ele>
        <time>2018-08-14T10:06:15Z</time>
      </trkpt>
      <trkpt lat="45.92132" lon="4.68354">
        <ele>383</ele>
        <time>2018-08-14T10:06:16Z</time>
      </trkpt>
      <trkpt lat="45.92139" lon="4.6836">
        <ele>383</ele>
        <time>2018-08-14T10:06:18Z</time>
      </trkpt>
      <trkpt lat="45.92142" lon="4.68364">
        <ele>383</ele>
        <time>2018-08-14T10:06:19Z</time>
      </trkpt>
      <trkpt lat="45.92149" lon="4.68371">
        <ele>383</ele>
        <time>2018-08-14T10:06:21Z</time>
      </trkpt>
      <trkpt lat="45.92152" lon="4.68374">
        <ele>383</ele>
        <time>2018-08-14T10:06:22Z</time>
      </trkpt>
      <trkpt lat="45.92159" lon="4.68381">
        <ele>384</ele>
        <time>2018-08-14T10:06:24Z</time>
      </trkpt>
      <trkpt lat="45.92162" lon="4.68385">
        <ele>384</ele>
        <time>2018-08-14T10:06:25Z</time>
      </trkpt>
      <trkpt lat="45.92169" lon="4.68393">
        <ele>383</ele>
        <time>2018-08-14T10:06:27Z</time>
      </trkpt>
      <trkpt lat="45.92173" lon="4.68397">
        <ele>383</ele>
        <time>2018-08-14T10:06:28Z</time>
      </trkpt>
      <trkpt lat="45.92176" lon="4.68401">
        <ele>384</ele>
        <time>2018-08-14T10:06:29Z</time>
      </trkpt>
      <trkpt lat="45.92179" lon="4.68406">
        <ele>384</ele>
        <time>2018-08-14T10:06:30Z</time>
      </trkpt>
      <trkpt lat="45.92187" lon="4.68412">
        <ele>383</ele>
        <time>2018-08-14T10:06:32Z</time>
      </trkpt>
      <trkpt lat="45.92191" lon="4.68415">
        <ele>383</ele>
        <time>2018-08-14T10:06:33Z</time>
      </trkpt>
      <trkpt lat="45.92197" lon="4.68417">
        <ele>386</ele>
        <time>2018-08-14T10:06:34Z</time>
      </trkpt>
      <trkpt lat="45.922" lon="4.68419">
        <ele>386</ele>
        <time>2018-08-14T10:06:35Z</time>
      </trkpt>
      <trkpt lat="45.92209" lon="4.68421">
        <ele>386</ele>
        <time>2018-08-14T10:06:37Z</time>
      </trkpt>
      <trkpt lat="45.92212" lon="4.68423">
        <ele>385</ele>
        <time>2018-08-14T10:06:38Z</time>
      </trkpt>
      <trkpt lat="45.92218" lon="4.68429">
        <ele>385</ele>
        <time>2018-08-14T10:06:40Z</time>
      </trkpt>
      <trkpt lat="45.92221" lon="4.68432">
        <ele>385</ele>
        <time>2018-08-14T10:06:41Z</time>
      </trkpt>
      <trkpt lat="45.92228" lon="4.6844">
        <ele>385</ele>
        <time>2018-08-14T10:06:43Z</time>
      </trkpt>
      <trkpt lat="45.92232" lon="4.68443">
        <ele>385</ele>
        <time>2018-08-14T10:06:44Z</time>
      </trkpt>
      <trkpt lat="45.92236" lon="4.68446">
        <ele>385</ele>
        <time>2018-08-14T10:06:45Z</time>
      </trkpt>
      <trkpt lat="45.9224" lon="4.6845">
        <ele>385</ele>
        <time>2018-08-14T10:06:46Z</time>
      </trkpt>
      <trkpt lat="45.92244" lon="4.68453">
        <ele>386</ele>
        <time>2018-08-14T10:06:47Z</time>
      </trkpt>
      <trkpt lat="45.92248" lon="4.68457">
        <ele>386</ele>
        <time>2018-08-14T10:06:48Z</time>
      </trkpt>
      <trkpt lat="45.92252" lon="4.68461">
        <ele>383</ele>
        <time>2018-08-14T10:06:49Z</time>
      </trkpt>
      <trkpt lat="45.92255" lon="4.68466">
        <ele>383</ele>
        <time>2018-08-14T10:06:50Z</time>
      </trkpt>
      <trkpt lat="45.9226" lon="4.68471">
        <ele>384</ele>
        <time>2018-08-14T10:06:51Z</time>
      </trkpt>
      <trkpt lat="45.92263" lon="4.68472">
        <ele>384</ele>
        <time>2018-08-14T10:06:52Z</time>
      </trkpt>
      <trkpt lat="45.92266" lon="4.68476">
        <ele>384</ele>
        <time>2018-08-14T10:06:53Z</time>
      </trkpt>
      <trkpt lat="45.92269" lon="4.68482">
        <ele>384</ele>
        <time>2018-08-14T10:06:54Z</time>
      </trkpt>
      <trkpt lat="45.92273" lon="4.68485">
        <ele>384</ele>
        <time>2018-08-14T10:06:55Z</time>
      </trkpt>
      <trkpt lat="45.92277" lon="4.6849">
        <ele>384</ele>
        <time>2018-08-14T10:06:56Z</time>
      </trkpt>
      <trkpt lat="45.92282" lon="4.68494">
        <ele>384</ele>
        <time>2018-08-14T10:06:57Z</time>
      </trkpt>
      <trkpt lat="45.92285" lon="4.68498">
        <ele>383</ele>
        <time>2018-08-14T10:06:58Z</time>
      </trkpt>
      <trkpt lat="45.92289" lon="4.68502">
        <ele>387</ele>
        <time>2018-08-14T10:06:59Z</time>
      </trkpt>
      <trkpt lat="45.92292" lon="4.68506">
        <ele>387</ele>
        <time>2018-08-14T10:07:00Z</time>
      </trkpt>
      <trkpt lat="45.92298" lon="4.68513">
        <ele>387</ele>
        <time>2018-08-14T10:07:02Z</time>
      </trkpt>
      <trkpt lat="45.92301" lon="4.68517">
        <ele>387</ele>
        <time>2018-08-14T10:07:03Z</time>
      </trkpt>
      <trkpt lat="45.92308" lon="4.68523">
        <ele>387</ele>
        <time>2018-08-14T10:07:05Z</time>
      </trkpt>
      <trkpt lat="45.92312" lon="4.68527">
        <ele>387</ele>
        <time>2018-08-14T10:07:06Z</time>
      </trkpt>
      <trkpt lat="45.92316" lon="4.68531">
        <ele>387</ele>
        <time>2018-08-14T10:07:07Z</time>
      </trkpt>
      <trkpt lat="45.92321" lon="4.68533">
        <ele>387</ele>
        <time>2018-08-14T10:07:08Z</time>
      </trkpt>
      <trkpt lat="45.92328" lon="4.68539">
        <ele>388</ele>
        <time>2018-08-14T10:07:10Z</time>
      </trkpt>
      <trkpt lat="45.92332" lon="4.68542">
        <ele>388</ele>
        <time>2018-08-14T10:07:11Z</time>
      </trkpt>
      <trkpt lat="45.9234" lon="4.6855">
        <ele>385</ele>
        <time>2018-08-14T10:07:13Z</time>
      </trkpt>
      <trkpt lat="45.92343" lon="4.68554">
        <ele>385</ele>
        <time>2018-08-14T10:07:14Z</time>
      </trkpt>
      <trkpt lat="45.92348" lon="4.68556">
        <ele>385</ele>
        <time>2018-08-14T10:07:15Z</time>
      </trkpt>
      <trkpt lat="45.92352" lon="4.68559">
        <ele>385</ele>
        <time>2018-08-14T10:07:16Z</time>
      </trkpt>
      <trkpt lat="45.9236" lon="4.68562">
        <ele>385</ele>
        <time>2018-08-14T10:07:18Z</time>
      </trkpt>
      <trkpt lat="45.92364" lon="4.68568">
        <ele>385</ele>
        <time>2018-08-14T10:07:19Z</time>
      </trkpt>
      <trkpt lat="45.92368" lon="4.6857">
        <ele>384</ele>
        <time>2018-08-14T10:07:20Z</time>
      </trkpt>
      <trkpt lat="45.92372" lon="4.68574">
        <ele>384</ele>
        <time>2018-08-14T10:07:21Z</time>
      </trkpt>
      <trkpt lat="45.92377" lon="4.68576">
        <ele>384</ele>
        <time>2018-08-14T10:07:22Z</time>
      </trkpt>
      <trkpt lat="45.92381" lon="4.6858">
        <ele>384</ele>
        <time>2018-08-14T10:07:23Z</time>
      </trkpt>
      <trkpt lat="45.92385" lon="4.68581">
        <ele>383</ele>
        <time>2018-08-14T10:07:24Z</time>
      </trkpt>
      <trkpt lat="45.9239" lon="4.68585">
        <ele>386</ele>
        <time>2018-08-14T10:07:25Z</time>
      </trkpt>
      <trkpt lat="45.92394" lon="4.68587">
        <ele>386</ele>
        <time>2018-08-14T10:07:26Z</time>
      </trkpt>
      <trkpt lat="45.92399" lon="4.68591">
        <ele>385</ele>
        <time>2018-08-14T10:07:27Z</time>
      </trkpt>
      <trkpt lat="45.92405" lon="4.68593">
        <ele>385</ele>
        <time>2018-08-14T10:07:28Z</time>
      </trkpt>
      <trkpt lat="45.9241" lon="4.68596">
        <ele>385</ele>
        <time>2018-08-14T10:07:29Z</time>
      </trkpt>
      <trkpt lat="45.92414" lon="4.68598">
        <ele>385</ele>
        <time>2018-08-14T10:07:30Z</time>
      </trkpt>
      <trkpt lat="45.9242" lon="4.68602">
        <ele>381</ele>
        <time>2018-08-14T10:07:31Z</time>
      </trkpt>
      <trkpt lat="45.92425" lon="4.68605">
        <ele>381</ele>
        <time>2018-08-14T10:07:32Z</time>
      </trkpt>
      <trkpt lat="45.9243" lon="4.68608">
        <ele>381</ele>
        <time>2018-08-14T10:07:33Z</time>
      </trkpt>
      <trkpt lat="45.92436" lon="4.6861">
        <ele>381</ele>
        <time>2018-08-14T10:07:34Z</time>
      </trkpt>
      <trkpt lat="45.92442" lon="4.68613">
        <ele>380</ele>
        <time>2018-08-14T10:07:35Z</time>
      </trkpt>
      <trkpt lat="45.92449" lon="4.68615">
        <ele>380</ele>
        <time>2018-08-14T10:07:36Z</time>
      </trkpt>
      <trkpt lat="45.92455" lon="4.68618">
        <ele>380</ele>
        <time>2018-08-14T10:07:37Z</time>
      </trkpt>
      <trkpt lat="45.92461" lon="4.6862">
        <ele>380</ele>
        <time>2018-08-14T10:07:38Z</time>
      </trkpt>
      <trkpt lat="45.92468" lon="4.68622">
        <ele>379</ele>
        <time>2018-08-14T10:07:39Z</time>
      </trkpt>
      <trkpt lat="45.92474" lon="4.68624">
        <ele>379</ele>
        <time>2018-08-14T10:07:40Z</time>
      </trkpt>
      <trkpt lat="45.9248" lon="4.68626">
        <ele>379</ele>
        <time>2018-08-14T10:07:41Z</time>
      </trkpt>
      <trkpt lat="45.92486" lon="4.68628">
        <ele>379</ele>
        <time>2018-08-14T10:07:42Z</time>
      </trkpt>
      <trkpt lat="45.92493" lon="4.6863">
        <ele>379</ele>
        <time>2018-08-14T10:07:43Z</time>
      </trkpt>
      <trkpt lat="45.92498" lon="4.68631">
        <ele>379</ele>
        <time>2018-08-14T10:07:44Z</time>
      </trkpt>
      <trkpt lat="45.92504" lon="4.68635">
        <ele>375</ele>
        <time>2018-08-14T10:07:45Z</time>
      </trkpt>
      <trkpt lat="45.92512" lon="4.68635">
        <ele>375</ele>
        <time>2018-08-14T10:07:46Z</time>
      </trkpt>
      <trkpt lat="45.92518" lon="4.68636">
        <ele>375</ele>
        <time>2018-08-14T10:07:47Z</time>
      </trkpt>
      <trkpt lat="45.92526" lon="4.68638">
        <ele>375</ele>
        <time>2018-08-14T10:07:48Z</time>
      </trkpt>
      <trkpt lat="45.92532" lon="4.68642">
        <ele>375</ele>
        <time>2018-08-14T10:07:49Z</time>
      </trkpt>
      <trkpt lat="45.92539" lon="4.68644">
        <ele>374</ele>
        <time>2018-08-14T10:07:50Z</time>
      </trkpt>
      <trkpt lat="45.92545" lon="4.68647">
        <ele>374</ele>
        <time>2018-08-14T10:07:51Z</time>
      </trkpt>
      <trkpt lat="45.92553" lon="4.68647">
        <ele>374</ele>
        <time>2018-08-14T10:07:52Z</time>
      </trkpt>
      <trkpt lat="45.92555" lon="4.68648">
        <ele>374</ele>
        <time>2018-08-14T10:07:53Z</time>
      </trkpt>
      <trkpt lat="45.92562" lon="4.68645">
        <ele>374</ele>
        <time>2018-08-14T10:07:55Z</time>
      </trkpt>
      <trkpt lat="45.92565" lon="4.68643">
        <ele>374</ele>
        <time>2018-08-14T10:07:56Z</time>
      </trkpt>
      <trkpt lat="45.92571" lon="4.68642">
        <ele>374</ele>
        <time>2018-08-14T10:07:57Z</time>
      </trkpt>
      <trkpt lat="45.92575" lon="4.68639">
        <ele>374</ele>
        <time>2018-08-14T10:07:58Z</time>
      </trkpt>
      <trkpt lat="45.92582" lon="4.68637">
        <ele>373</ele>
        <time>2018-08-14T10:08:01Z</time>
      </trkpt>
      <trkpt lat="45.92583" lon="4.68636">
        <ele>370</ele>
        <time>2018-08-14T10:08:02Z</time>
      </trkpt>
      <trkpt lat="45.9259" lon="4.68634">
        <ele>370</ele>
        <time>2018-08-14T10:08:05Z</time>
      </trkpt>
      <trkpt lat="45.92593" lon="4.68633">
        <ele>370</ele>
        <time>2018-08-14T10:08:06Z</time>
      </trkpt>
      <trkpt lat="45.92596" lon="4.68632">
        <ele>370</ele>
        <time>2018-08-14T10:08:07Z</time>
      </trkpt>
      <trkpt lat="45.92606" lon="4.68631">
        <ele>369</ele>
        <time>2018-08-14T10:08:08Z</time>
      </trkpt>
      <trkpt lat="45.92614" lon="4.68628">
        <ele>369</ele>
        <time>2018-08-14T10:08:10Z</time>
      </trkpt>
      <trkpt lat="45.92619" lon="4.68624">
        <ele>369</ele>
        <time>2018-08-14T10:08:11Z</time>
      </trkpt>
      <trkpt lat="45.92624" lon="4.68621">
        <ele>368</ele>
        <time>2018-08-14T10:08:12Z</time>
      </trkpt>
      <trkpt lat="45.9263" lon="4.6862">
        <ele>368</ele>
        <time>2018-08-14T10:08:13Z</time>
      </trkpt>
      <trkpt lat="45.92634" lon="4.68616">
        <ele>368</ele>
        <time>2018-08-14T10:08:14Z</time>
      </trkpt>
      <trkpt lat="45.9264" lon="4.68613">
        <ele>368</ele>
        <time>2018-08-14T10:08:15Z</time>
      </trkpt>
      <trkpt lat="45.92645" lon="4.6861">
        <ele>367</ele>
        <time>2018-08-14T10:08:16Z</time>
      </trkpt>
      <trkpt lat="45.9265" lon="4.6861">
        <ele>367</ele>
        <time>2018-08-14T10:08:17Z</time>
      </trkpt>
      <trkpt lat="45.92659" lon="4.68608">
        <ele>367</ele>
        <time>2018-08-14T10:08:19Z</time>
      </trkpt>
      <trkpt lat="45.92666" lon="4.68608">
        <ele>367</ele>
        <time>2018-08-14T10:08:20Z</time>
      </trkpt>
      <trkpt lat="45.9267" lon="4.68606">
        <ele>364</ele>
        <time>2018-08-14T10:08:21Z</time>
      </trkpt>
      <trkpt lat="45.92675" lon="4.686">
        <ele>364</ele>
        <time>2018-08-14T10:08:22Z</time>
      </trkpt>
      <trkpt lat="45.92684" lon="4.68597">
        <ele>364</ele>
        <time>2018-08-14T10:08:24Z</time>
      </trkpt>
      <trkpt lat="45.92688" lon="4.68595">
        <ele>364</ele>
        <time>2018-08-14T10:08:25Z</time>
      </trkpt>
      <trkpt lat="45.92694" lon="4.6859">
        <ele>364</ele>
        <time>2018-08-14T10:08:26Z</time>
      </trkpt>
      <trkpt lat="45.927" lon="4.68586">
        <ele>364</ele>
        <time>2018-08-14T10:08:27Z</time>
      </trkpt>
      <trkpt lat="45.92705" lon="4.68582">
        <ele>366</ele>
        <time>2018-08-14T10:08:28Z</time>
      </trkpt>
      <trkpt lat="45.9271" lon="4.68579">
        <ele>366</ele>
        <time>2018-08-14T10:08:29Z</time>
      </trkpt>
      <trkpt lat="45.92715" lon="4.68575">
        <ele>366</ele>
        <time>2018-08-14T10:08:30Z</time>
      </trkpt>
      <trkpt lat="45.92721" lon="4.68573">
        <ele>366</ele>
        <time>2018-08-14T10:08:31Z</time>
      </trkpt>
      <trkpt lat="45.92727" lon="4.68572">
        <ele>366</ele>
        <time>2018-08-14T10:08:32Z</time>
      </trkpt>
      <trkpt lat="45.92732" lon="4.68571">
        <ele>366</ele>
        <time>2018-08-14T10:08:33Z</time>
      </trkpt>
      <trkpt lat="45.92738" lon="4.6857">
        <ele>366</ele>
        <time>2018-08-14T10:08:34Z</time>
      </trkpt>
      <trkpt lat="45.92743" lon="4.68571">
        <ele>366</ele>
        <time>2018-08-14T10:08:35Z</time>
      </trkpt>
      <trkpt lat="45.92749" lon="4.68571">
        <ele>366</ele>
        <time>2018-08-14T10:08:36Z</time>
      </trkpt>
      <trkpt lat="45.92754" lon="4.68571">
        <ele>366</ele>
        <time>2018-08-14T10:08:37Z</time>
      </trkpt>
      <trkpt lat="45.92759" lon="4.6857">
        <ele>365</ele>
        <time>2018-08-14T10:08:38Z</time>
      </trkpt>
      <trkpt lat="45.92765" lon="4.68572">
        <ele>365</ele>
        <time>2018-08-14T10:08:39Z</time>
      </trkpt>
      <trkpt lat="45.92771" lon="4.68573">
        <ele>365</ele>
        <time>2018-08-14T10:08:40Z</time>
      </trkpt>
      <trkpt lat="45.92775" lon="4.68571">
        <ele>365</ele>
        <time>2018-08-14T10:08:41Z</time>
      </trkpt>
      <trkpt lat="45.92782" lon="4.68571">
        <ele>365</ele>
        <time>2018-08-14T10:08:42Z</time>
      </trkpt>
      <trkpt lat="45.92789" lon="4.68572">
        <ele>364</ele>
        <time>2018-08-14T10:08:43Z</time>
      </trkpt>
      <trkpt lat="45.92795" lon="4.68573">
        <ele>364</ele>
        <time>2018-08-14T10:08:44Z</time>
      </trkpt>
      <trkpt lat="45.92803" lon="4.68575">
        <ele>364</ele>
        <time>2018-08-14T10:08:45Z</time>
      </trkpt>
      <trkpt lat="45.92809" lon="4.68575">
        <ele>363</ele>
        <time>2018-08-14T10:08:46Z</time>
      </trkpt>
      <trkpt lat="45.92816" lon="4.68577">
        <ele>363</ele>
        <time>2018-08-14T10:08:47Z</time>
      </trkpt>
      <trkpt lat="45.92822" lon="4.68577">
        <ele>363</ele>
        <time>2018-08-14T10:08:48Z</time>
      </trkpt>
      <trkpt lat="45.92828" lon="4.68579">
        <ele>362</ele>
        <time>2018-08-14T10:08:49Z</time>
      </trkpt>
      <trkpt lat="45.92834" lon="4.68579">
        <ele>361</ele>
        <time>2018-08-14T10:08:50Z</time>
      </trkpt>
      <trkpt lat="45.92841" lon="4.68581">
        <ele>361</ele>
        <time>2018-08-14T10:08:51Z</time>
      </trkpt>
      <trkpt lat="45.92848" lon="4.68584">
        <ele>360</ele>
        <time>2018-08-14T10:08:52Z</time>
      </trkpt>
      <trkpt lat="45.92856" lon="4.68585">
        <ele>359</ele>
        <time>2018-08-14T10:08:53Z</time>
      </trkpt>
      <trkpt lat="45.92863" lon="4.68585">
        <ele>359</ele>
        <time>2018-08-14T10:08:54Z</time>
      </trkpt>
      <trkpt lat="45.9287" lon="4.68584">
        <ele>359</ele>
        <time>2018-08-14T10:08:55Z</time>
      </trkpt>
      <trkpt lat="45.92878" lon="4.68586">
        <ele>359</ele>
        <time>2018-08-14T10:08:56Z</time>
      </trkpt>
      <trkpt lat="45.92883" lon="4.68588">
        <ele>358</ele>
        <time>2018-08-14T10:08:57Z</time>
      </trkpt>
      <trkpt lat="45.9289" lon="4.68589">
        <ele>358</ele>
        <time>2018-08-14T10:08:58Z</time>
      </trkpt>
      <trkpt lat="45.92897" lon="4.68589">
        <ele>358</ele>
        <time>2018-08-14T10:08:59Z</time>
      </trkpt>
      <trkpt lat="45.92904" lon="4.68591">
        <ele>359</ele>
        <time>2018-08-14T10:09:00Z</time>
      </trkpt>
      <trkpt lat="45.92909" lon="4.68592">
        <ele>359</ele>
        <time>2018-08-14T10:09:01Z</time>
      </trkpt>
      <trkpt lat="45.92916" lon="4.68593">
        <ele>359</ele>
        <time>2018-08-14T10:09:02Z</time>
      </trkpt>
      <trkpt lat="45.92922" lon="4.68593">
        <ele>359</ele>
        <time>2018-08-14T10:09:03Z</time>
      </trkpt>
      <trkpt lat="45.9293" lon="4.68594">
        <ele>359</ele>
        <time>2018-08-14T10:09:04Z</time>
      </trkpt>
      <trkpt lat="45.92937" lon="4.68596">
        <ele>358</ele>
        <time>2018-08-14T10:09:05Z</time>
      </trkpt>
      <trkpt lat="45.92944" lon="4.68597">
        <ele>358</ele>
        <time>2018-08-14T10:09:06Z</time>
      </trkpt>
      <trkpt lat="45.92952" lon="4.68599">
        <ele>358</ele>
        <time>2018-08-14T10:09:07Z</time>
      </trkpt>
      <trkpt lat="45.92958" lon="4.686">
        <ele>358</ele>
        <time>2018-08-14T10:09:08Z</time>
      </trkpt>
      <trkpt lat="45.92966" lon="4.68602">
        <ele>358</ele>
        <time>2018-08-14T10:09:09Z</time>
      </trkpt>
      <trkpt lat="45.92971" lon="4.68603">
        <ele>358</ele>
        <time>2018-08-14T10:09:10Z</time>
      </trkpt>
      <trkpt lat="45.92979" lon="4.68604">
        <ele>358</ele>
        <time>2018-08-14T10:09:11Z</time>
      </trkpt>
      <trkpt lat="45.92986" lon="4.68605">
        <ele>358</ele>
        <time>2018-08-14T10:09:12Z</time>
      </trkpt>
      <trkpt lat="45.92992" lon="4.68606">
        <ele>358</ele>
        <time>2018-08-14T10:09:13Z</time>
      </trkpt>
      <trkpt lat="45.93" lon="4.68611">
        <ele>358</ele>
        <time>2018-08-14T10:09:14Z</time>
      </trkpt>
      <trkpt lat="45.93007" lon="4.68612">
        <ele>356</ele>
        <time>2018-08-14T10:09:15Z</time>
      </trkpt>
      <trkpt lat="45.93014" lon="4.68612">
        <ele>356</ele>
        <time>2018-08-14T10:09:16Z</time>
      </trkpt>
      <trkpt lat="45.93022" lon="4.68614">
        <ele>356</ele>
        <time>2018-08-14T10:09:17Z</time>
      </trkpt>
      <trkpt lat="45.9303" lon="4.68615">
        <ele>355</ele>
        <time>2018-08-14T10:09:18Z</time>
      </trkpt>
      <trkpt lat="45.93037" lon="4.68617">
        <ele>355</ele>
        <time>2018-08-14T10:09:19Z</time>
      </trkpt>
      <trkpt lat="45.93044" lon="4.6862">
        <ele>355</ele>
        <time>2018-08-14T10:09:20Z</time>
      </trkpt>
      <trkpt lat="45.93052" lon="4.68623">
        <ele>354</ele>
        <time>2018-08-14T10:09:21Z</time>
      </trkpt>
      <trkpt lat="45.93059" lon="4.68626">
        <ele>354</ele>
        <time>2018-08-14T10:09:22Z</time>
      </trkpt>
      <trkpt lat="45.93068" lon="4.68626">
        <ele>354</ele>
        <time>2018-08-14T10:09:23Z</time>
      </trkpt>
      <trkpt lat="45.93076" lon="4.68627">
        <ele>354</ele>
        <time>2018-08-14T10:09:24Z</time>
      </trkpt>
      <trkpt lat="45.93085" lon="4.68631">
        <ele>349</ele>
        <time>2018-08-14T10:09:25Z</time>
      </trkpt>
      <trkpt lat="45.93091" lon="4.68634">
        <ele>349</ele>
        <time>2018-08-14T10:09:26Z</time>
      </trkpt>
      <trkpt lat="45.931" lon="4.68636">
        <ele>349</ele>
        <time>2018-08-14T10:09:27Z</time>
      </trkpt>
      <trkpt lat="45.93109" lon="4.68638">
        <ele>349</ele>
        <time>2018-08-14T10:09:28Z</time>
      </trkpt>
      <trkpt lat="45.93118" lon="4.6864">
        <ele>348</ele>
        <time>2018-08-14T10:09:29Z</time>
      </trkpt>
      <trkpt lat="45.93126" lon="4.68642">
        <ele>348</ele>
        <time>2018-08-14T10:09:30Z</time>
      </trkpt>
      <trkpt lat="45.93134" lon="4.68643">
        <ele>348</ele>
        <time>2018-08-14T10:09:31Z</time>
      </trkpt>
      <trkpt lat="45.93143" lon="4.68645">
        <ele>347</ele>
        <time>2018-08-14T10:09:32Z</time>
      </trkpt>
      <trkpt lat="45.93152" lon="4.68647">
        <ele>347</ele>
        <time>2018-08-14T10:09:33Z</time>
      </trkpt>
      <trkpt lat="45.9316" lon="4.68646">
        <ele>347</ele>
        <time>2018-08-14T10:09:34Z</time>
      </trkpt>
      <trkpt lat="45.9317" lon="4.68648">
        <ele>345</ele>
        <time>2018-08-14T10:09:35Z</time>
      </trkpt>
      <trkpt lat="45.9318" lon="4.6865">
        <ele>345</ele>
        <time>2018-08-14T10:09:36Z</time>
      </trkpt>
      <trkpt lat="45.93189" lon="4.68652">
        <ele>345</ele>
        <time>2018-08-14T10:09:37Z</time>
      </trkpt>
      <trkpt lat="45.93198" lon="4.68654">
        <ele>344</ele>
        <time>2018-08-14T10:09:38Z</time>
      </trkpt>
      <trkpt lat="45.93206" lon="4.68656">
        <ele>344</ele>
        <time>2018-08-14T10:09:39Z</time>
      </trkpt>
      <trkpt lat="45.93214" lon="4.68658">
        <ele>344</ele>
        <time>2018-08-14T10:09:40Z</time>
      </trkpt>
      <trkpt lat="45.93223" lon="4.6866">
        <ele>344</ele>
        <time>2018-08-14T10:09:41Z</time>
      </trkpt>
      <trkpt lat="45.93231" lon="4.68664">
        <ele>344</ele>
        <time>2018-08-14T10:09:42Z</time>
      </trkpt>
      <trkpt lat="45.93239" lon="4.68666">
        <ele>344</ele>
        <time>2018-08-14T10:09:43Z</time>
      </trkpt>
      <trkpt lat="45.93247" lon="4.6867">
        <ele>344</ele>
        <time>2018-08-14T10:09:44Z</time>
      </trkpt>
      <trkpt lat="45.93254" lon="4.68672">
        <ele>344</ele>
        <time>2018-08-14T10:09:45Z</time>
      </trkpt>
      <trkpt lat="45.93261" lon="4.68674">
        <ele>344</ele>
        <time>2018-08-14T10:09:46Z</time>
      </trkpt>
      <trkpt lat="45.93269" lon="4.68675">
        <ele>344</ele>
        <time>2018-08-14T10:09:47Z</time>
      </trkpt>
      <trkpt lat="45.93277" lon="4.68679">
        <ele>344</ele>
        <time>2018-08-14T10:09:48Z</time>
      </trkpt>
      <trkpt lat="45.93284" lon="4.68677">
        <ele>344</ele>
        <time>2018-08-14T10:09:49Z</time>
      </trkpt>
      <trkpt lat="45.93291" lon="4.68678">
        <ele>344</ele>
        <time>2018-08-14T10:09:50Z</time>
      </trkpt>
      <trkpt lat="45.93299" lon="4.68683">
        <ele>344</ele>
        <time>2018-08-14T10:09:51Z</time>
      </trkpt>
      <trkpt lat="45.93304" lon="4.68684">
        <ele>344</ele>
        <time>2018-08-14T10:09:52Z</time>
      </trkpt>
      <trkpt lat="45.9331" lon="4.68684">
        <ele>344</ele>
        <time>2018-08-14T10:09:53Z</time>
      </trkpt>
      <trkpt lat="45.93317" lon="4.68683">
        <ele>344</ele>
        <time>2018-08-14T10:09:54Z</time>
      </trkpt>
      <trkpt lat="45.93323" lon="4.68687">
        <ele>344</ele>
        <time>2018-08-14T10:09:55Z</time>
      </trkpt>
      <trkpt lat="45.9333" lon="4.68688">
        <ele>344</ele>
        <time>2018-08-14T10:09:56Z</time>
      </trkpt>
      <trkpt lat="45.93338" lon="4.68688">
        <ele>344</ele>
        <time>2018-08-14T10:09:57Z</time>
      </trkpt>
      <trkpt lat="45.93345" lon="4.6869">
        <ele>344</ele>
        <time>2018-08-14T10:09:58Z</time>
      </trkpt>
      <trkpt lat="45.93353" lon="4.68691">
        <ele>344</ele>
        <time>2018-08-14T10:09:59Z</time>
      </trkpt>
      <trkpt lat="45.93359" lon="4.68692">
        <ele>344</ele>
        <time>2018-08-14T10:10:00Z</time>
      </trkpt>
      <trkpt lat="45.93365" lon="4.68693">
        <ele>344</ele>
        <time>2018-08-14T10:10:01Z</time>
      </trkpt>
      <trkpt lat="45.93372" lon="4.68694">
        <ele>344</ele>
        <time>2018-08-14T10:10:02Z</time>
      </trkpt>
      <trkpt lat="45.93378" lon="4.68695">
        <ele>344</ele>
        <time>2018-08-14T10:10:03Z</time>
      </trkpt>
      <trkpt lat="45.93384" lon="4.68697">
        <ele>344</ele>
        <time>2018-08-14T10:10:04Z</time>
      </trkpt>
      <trkpt lat="45.93389" lon="4.687">
        <ele>344</ele>
        <time>2018-08-14T10:10:05Z</time>
      </trkpt>
      <trkpt lat="45.93395" lon="4.68701">
        <ele>344</ele>
        <time>2018-08-14T10:10:06Z</time>
      </trkpt>
      <trkpt lat="45.93401" lon="4.68699">
        <ele>344</ele>
        <time>2018-08-14T10:10:07Z</time>
      </trkpt>
      <trkpt lat="45.93406" lon="4.68703">
        <ele>344</ele>
        <time>2018-08-14T10:10:08Z</time>
      </trkpt>
      <trkpt lat="45.93413" lon="4.68703">
        <ele>344</ele>
        <time>2018-08-14T10:10:09Z</time>
      </trkpt>
      <trkpt lat="45.93419" lon="4.68702">
        <ele>343</ele>
        <time>2018-08-14T10:10:10Z</time>
      </trkpt>
      <trkpt lat="45.93424" lon="4.68699">
        <ele>343</ele>
        <time>2018-08-14T10:10:11Z</time>
      </trkpt>
      <trkpt lat="45.9343" lon="4.68701">
        <ele>343</ele>
        <time>2018-08-14T10:10:12Z</time>
      </trkpt>
      <trkpt lat="45.93435" lon="4.68702">
        <ele>343</ele>
        <time>2018-08-14T10:10:13Z</time>
      </trkpt>
      <trkpt lat="45.93442" lon="4.68707">
        <ele>343</ele>
        <time>2018-08-14T10:10:14Z</time>
      </trkpt>
      <trkpt lat="45.93447" lon="4.68709">
        <ele>343</ele>
        <time>2018-08-14T10:10:15Z</time>
      </trkpt>
      <trkpt lat="45.93453" lon="4.68709">
        <ele>343</ele>
        <time>2018-08-14T10:10:16Z</time>
      </trkpt>
      <trkpt lat="45.93459" lon="4.6871">
        <ele>342</ele>
        <time>2018-08-14T10:10:17Z</time>
      </trkpt>
      <trkpt lat="45.93467" lon="4.68711">
        <ele>342</ele>
        <time>2018-08-14T10:10:18Z</time>
      </trkpt>
      <trkpt lat="45.93472" lon="4.68712">
        <ele>342</ele>
        <time>2018-08-14T10:10:19Z</time>
      </trkpt>
      <trkpt lat="45.93478" lon="4.68714">
        <ele>342</ele>
        <time>2018-08-14T10:10:20Z</time>
      </trkpt>
      <trkpt lat="45.93484" lon="4.68717">
        <ele>342</ele>
        <time>2018-08-14T10:10:21Z</time>
      </trkpt>
      <trkpt lat="45.9349" lon="4.68719">
        <ele>342</ele>
        <time>2018-08-14T10:10:22Z</time>
      </trkpt>
      <trkpt lat="45.93496" lon="4.6872">
        <ele>342</ele>
        <time>2018-08-14T10:10:23Z</time>
      </trkpt>
      <trkpt lat="45.935" lon="4.68719">
        <ele>342</ele>
        <time>2018-08-14T10:10:24Z</time>
      </trkpt>
      <trkpt lat="45.93507" lon="4.68719">
        <ele>342</ele>
        <time>2018-08-14T10:10:25Z</time>
      </trkpt>
      <trkpt lat="45.93514" lon="4.6872">
        <ele>342</ele>
        <time>2018-08-14T10:10:26Z</time>
      </trkpt>
      <trkpt lat="45.93519" lon="4.68722">
        <ele>342</ele>
        <time>2018-08-14T10:10:27Z</time>
      </trkpt>
      <trkpt lat="45.93524" lon="4.68724">
        <ele>342</ele>
        <time>2018-08-14T10:10:28Z</time>
      </trkpt>
      <trkpt lat="45.93529" lon="4.68723">
        <ele>342</ele>
        <time>2018-08-14T10:10:29Z</time>
      </trkpt>
      <trkpt lat="45.93534" lon="4.68725">
        <ele>342</ele>
        <time>2018-08-14T10:10:30Z</time>
      </trkpt>
      <trkpt lat="45.9354" lon="4.68728">
        <ele>342</ele>
        <time>2018-08-14T10:10:31Z</time>
      </trkpt>
      <trkpt lat="45.93545" lon="4.6873">
        <ele>342</ele>
        <time>2018-08-14T10:10:32Z</time>
      </trkpt>
      <trkpt lat="45.93552" lon="4.68731">
        <ele>342</ele>
        <time>2018-08-14T10:10:33Z</time>
      </trkpt>
      <trkpt lat="45.93558" lon="4.68732">
        <ele>342</ele>
        <time>2018-08-14T10:10:34Z</time>
      </trkpt>
      <trkpt lat="45.93564" lon="4.68732">
        <ele>342</ele>
        <time>2018-08-14T10:10:35Z</time>
      </trkpt>
      <trkpt lat="45.93573" lon="4.6873">
        <ele>342</ele>
        <time>2018-08-14T10:10:36Z</time>
      </trkpt>
      <trkpt lat="45.9358" lon="4.68731">
        <ele>343</ele>
        <time>2018-08-14T10:10:37Z</time>
      </trkpt>
      <trkpt lat="45.93587" lon="4.68735">
        <ele>343</ele>
        <time>2018-08-14T10:10:38Z</time>
      </trkpt>
      <trkpt lat="45.93591" lon="4.68739">
        <ele>343</ele>
        <time>2018-08-14T10:10:39Z</time>
      </trkpt>
      <trkpt lat="45.93597" lon="4.68734">
        <ele>342</ele>
        <time>2018-08-14T10:10:40Z</time>
      </trkpt>
      <trkpt lat="45.93603" lon="4.68737">
        <ele>342</ele>
        <time>2018-08-14T10:10:41Z</time>
      </trkpt>
      <trkpt lat="45.9361" lon="4.68739">
        <ele>342</ele>
        <time>2018-08-14T10:10:42Z</time>
      </trkpt>
      <trkpt lat="45.93616" lon="4.68741">
        <ele>342</ele>
        <time>2018-08-14T10:10:43Z</time>
      </trkpt>
      <trkpt lat="45.93622" lon="4.68742">
        <ele>342</ele>
        <time>2018-08-14T10:10:44Z</time>
      </trkpt>
      <trkpt lat="45.93627" lon="4.68743">
        <ele>342</ele>
        <time>2018-08-14T10:10:45Z</time>
      </trkpt>
      <trkpt lat="45.93632" lon="4.68742">
        <ele>342</ele>
        <time>2018-08-14T10:10:46Z</time>
      </trkpt>
      <trkpt lat="45.93638" lon="4.68746">
        <ele>342</ele>
        <time>2018-08-14T10:10:47Z</time>
      </trkpt>
      <trkpt lat="45.93644" lon="4.68748">
        <ele>342</ele>
        <time>2018-08-14T10:10:48Z</time>
      </trkpt>
      <trkpt lat="45.93648" lon="4.68748">
        <ele>342</ele>
        <time>2018-08-14T10:10:49Z</time>
      </trkpt>
      <trkpt lat="45.93654" lon="4.68751">
        <ele>343</ele>
        <time>2018-08-14T10:10:50Z</time>
      </trkpt>
      <trkpt lat="45.93661" lon="4.6875">
        <ele>342</ele>
        <time>2018-08-14T10:10:51Z</time>
      </trkpt>
      <trkpt lat="45.93667" lon="4.6875">
        <ele>342</ele>
        <time>2018-08-14T10:10:52Z</time>
      </trkpt>
      <trkpt lat="45.93672" lon="4.68751">
        <ele>342</ele>
        <time>2018-08-14T10:10:53Z</time>
      </trkpt>
      <trkpt lat="45.93676" lon="4.68756">
        <ele>342</ele>
        <time>2018-08-14T10:10:54Z</time>
      </trkpt>
      <trkpt lat="45.93682" lon="4.6876">
        <ele>342</ele>
        <time>2018-08-14T10:10:55Z</time>
      </trkpt>
      <trkpt lat="45.93688" lon="4.68763">
        <ele>342</ele>
        <time>2018-08-14T10:10:56Z</time>
      </trkpt>
      <trkpt lat="45.93694" lon="4.68766">
        <ele>342</ele>
        <time>2018-08-14T10:10:57Z</time>
      </trkpt>
      <trkpt lat="45.93699" lon="4.68768">
        <ele>342</ele>
        <time>2018-08-14T10:10:58Z</time>
      </trkpt>
      <trkpt lat="45.93705" lon="4.68772">
        <ele>342</ele>
        <time>2018-08-14T10:10:59Z</time>
      </trkpt>
      <trkpt lat="45.93709" lon="4.68775">
        <ele>342</ele>
        <time>2018-08-14T10:11:00Z</time>
      </trkpt>
      <trkpt lat="45.93714" lon="4.68775">
        <ele>342</ele>
        <time>2018-08-14T10:11:01Z</time>
      </trkpt>
      <trkpt lat="45.93718" lon="4.68776">
        <ele>342</ele>
        <time>2018-08-14T10:11:02Z</time>
      </trkpt>
      <trkpt lat="45.93724" lon="4.6878">
        <ele>342</ele>
        <time>2018-08-14T10:11:03Z</time>
      </trkpt>
      <trkpt lat="45.93731" lon="4.68783">
        <ele>342</ele>
        <time>2018-08-14T10:11:04Z</time>
      </trkpt>
      <trkpt lat="45.93739" lon="4.68786">
        <ele>342</ele>
        <time>2018-08-14T10:11:05Z</time>
      </trkpt>
      <trkpt lat="45.93746" lon="4.68789">
        <ele>342</ele>
        <time>2018-08-14T10:11:06Z</time>
      </trkpt>
      <trkpt lat="45.93754" lon="4.68792">
        <ele>341</ele>
        <time>2018-08-14T10:11:07Z</time>
      </trkpt>
      <trkpt lat="45.93761" lon="4.6879">
        <ele>341</ele>
        <time>2018-08-14T10:11:08Z</time>
      </trkpt>
      <trkpt lat="45.93768" lon="4.68792">
        <ele>341</ele>
        <time>2018-08-14T10:11:09Z</time>
      </trkpt>
      <trkpt lat="45.93774" lon="4.68796">
        <ele>341</ele>
        <time>2018-08-14T10:11:10Z</time>
      </trkpt>
      <trkpt lat="45.93779" lon="4.68796">
        <ele>341</ele>
        <time>2018-08-14T10:11:11Z</time>
      </trkpt>
      <trkpt lat="45.93786" lon="4.688">
        <ele>341</ele>
        <time>2018-08-14T10:11:12Z</time>
      </trkpt>
      <trkpt lat="45.93791" lon="4.68806">
        <ele>341</ele>
        <time>2018-08-14T10:11:13Z</time>
      </trkpt>
      <trkpt lat="45.93798" lon="4.6881">
        <ele>341</ele>
        <time>2018-08-14T10:11:14Z</time>
      </trkpt>
      <trkpt lat="45.93806" lon="4.68815">
        <ele>341</ele>
        <time>2018-08-14T10:11:15Z</time>
      </trkpt>
      <trkpt lat="45.93812" lon="4.68819">
        <ele>341</ele>
        <time>2018-08-14T10:11:16Z</time>
      </trkpt>
      <trkpt lat="45.93817" lon="4.68823">
        <ele>341</ele>
        <time>2018-08-14T10:11:17Z</time>
      </trkpt>
      <trkpt lat="45.93822" lon="4.68827">
        <ele>341</ele>
        <time>2018-08-14T10:11:18Z</time>
      </trkpt>
      <trkpt lat="45.93829" lon="4.68831">
        <ele>342</ele>
        <time>2018-08-14T10:11:19Z</time>
      </trkpt>
      <trkpt lat="45.93834" lon="4.68833">
        <ele>342</ele>
        <time>2018-08-14T10:11:20Z</time>
      </trkpt>
      <trkpt lat="45.93839" lon="4.68838">
        <ele>342</ele>
        <time>2018-08-14T10:11:21Z</time>
      </trkpt>
      <trkpt lat="45.93843" lon="4.68841">
        <ele>342</ele>
        <time>2018-08-14T10:11:22Z</time>
      </trkpt>
      <trkpt lat="45.93848" lon="4.68844">
        <ele>342</ele>
        <time>2018-08-14T10:11:23Z</time>
      </trkpt>
      <trkpt lat="45.93854" lon="4.68846">
        <ele>342</ele>
        <time>2018-08-14T10:11:24Z</time>
      </trkpt>
      <trkpt lat="45.93859" lon="4.68849">
        <ele>342</ele>
        <time>2018-08-14T10:11:25Z</time>
      </trkpt>
      <trkpt lat="45.93864" lon="4.68854">
        <ele>342</ele>
        <time>2018-08-14T10:11:26Z</time>
      </trkpt>
      <trkpt lat="45.93869" lon="4.68858">
        <ele>342</ele>
        <time>2018-08-14T10:11:27Z</time>
      </trkpt>
      <trkpt lat="45.93874" lon="4.68862">
        <ele>342</ele>
        <time>2018-08-14T10:11:28Z</time>
      </trkpt>
      <trkpt lat="45.93879" lon="4.68863">
        <ele>343</ele>
        <time>2018-08-14T10:11:29Z</time>
      </trkpt>
      <trkpt lat="45.93884" lon="4.68868">
        <ele>343</ele>
        <time>2018-08-14T10:11:30Z</time>
      </trkpt>
      <trkpt lat="45.9389" lon="4.6887">
        <ele>343</ele>
        <time>2018-08-14T10:11:31Z</time>
      </trkpt>
      <trkpt lat="45.93895" lon="4.68873">
        <ele>343</ele>
        <time>2018-08-14T10:11:32Z</time>
      </trkpt>
      <trkpt lat="45.93901" lon="4.68875">
        <ele>343</ele>
        <time>2018-08-14T10:11:33Z</time>
      </trkpt>
      <trkpt lat="45.93906" lon="4.68877">
        <ele>342</ele>
        <time>2018-08-14T10:11:34Z</time>
      </trkpt>
      <trkpt lat="45.93911" lon="4.68879">
        <ele>342</ele>
        <time>2018-08-14T10:11:35Z</time>
      </trkpt>
      <trkpt lat="45.93917" lon="4.68881">
        <ele>342</ele>
        <time>2018-08-14T10:11:36Z</time>
      </trkpt>
      <trkpt lat="45.93922" lon="4.68881">
        <ele>342</ele>
        <time>2018-08-14T10:11:37Z</time>
      </trkpt>
      <trkpt lat="45.93927" lon="4.68882">
        <ele>342</ele>
        <time>2018-08-14T10:11:38Z</time>
      </trkpt>
      <trkpt lat="45.93933" lon="4.68883">
        <ele>342</ele>
        <time>2018-08-14T10:11:39Z</time>
      </trkpt>
      <trkpt lat="45.93938" lon="4.68885">
        <ele>342</ele>
        <time>2018-08-14T10:11:40Z</time>
      </trkpt>
      <trkpt lat="45.93943" lon="4.68885">
        <ele>342</ele>
        <time>2018-08-14T10:11:41Z</time>
      </trkpt>
      <trkpt lat="45.93948" lon="4.68889">
        <ele>342</ele>
        <time>2018-08-14T10:11:42Z</time>
      </trkpt>
      <trkpt lat="45.93953" lon="4.6889">
        <ele>342</ele>
        <time>2018-08-14T10:11:43Z</time>
      </trkpt>
      <trkpt lat="45.93958" lon="4.6889">
        <ele>342</ele>
        <time>2018-08-14T10:11:44Z</time>
      </trkpt>
      <trkpt lat="45.93962" lon="4.68893">
        <ele>342</ele>
        <time>2018-08-14T10:11:45Z</time>
      </trkpt>
      <trkpt lat="45.93967" lon="4.68894">
        <ele>342</ele>
        <time>2018-08-14T10:11:46Z</time>
      </trkpt>
      <trkpt lat="45.93972" lon="4.68896">
        <ele>342</ele>
        <time>2018-08-14T10:11:47Z</time>
      </trkpt>
      <trkpt lat="45.93976" lon="4.68897">
        <ele>342</ele>
        <time>2018-08-14T10:11:48Z</time>
      </trkpt>
      <trkpt lat="45.93981" lon="4.689">
        <ele>342</ele>
        <time>2018-08-14T10:11:49Z</time>
      </trkpt>
      <trkpt lat="45.93986" lon="4.68903">
        <ele>342</ele>
        <time>2018-08-14T10:11:50Z</time>
      </trkpt>
      <trkpt lat="45.93991" lon="4.68905">
        <ele>342</ele>
        <time>2018-08-14T10:11:51Z</time>
      </trkpt>
      <trkpt lat="45.93995" lon="4.68906">
        <ele>342</ele>
        <time>2018-08-14T10:11:52Z</time>
      </trkpt>
      <trkpt lat="45.94" lon="4.68909">
        <ele>342</ele>
        <time>2018-08-14T10:11:53Z</time>
      </trkpt>
      <trkpt lat="45.94005" lon="4.68909">
        <ele>341</ele>
        <time>2018-08-14T10:11:54Z</time>
      </trkpt>
      <trkpt lat="45.9401" lon="4.68909">
        <ele>341</ele>
        <time>2018-08-14T10:11:55Z</time>
      </trkpt>
      <trkpt lat="45.94015" lon="4.68912">
        <ele>341</ele>
        <time>2018-08-14T10:11:56Z</time>
      </trkpt>
      <trkpt lat="45.9402" lon="4.68914">
        <ele>341</ele>
        <time>2018-08-14T10:11:57Z</time>
      </trkpt>
      <trkpt lat="45.94026" lon="4.68914">
        <ele>341</ele>
        <time>2018-08-14T10:11:58Z</time>
      </trkpt>
      <trkpt lat="45.94031" lon="4.68917">
        <ele>341</ele>
        <time>2018-08-14T10:11:59Z</time>
      </trkpt>
      <trkpt lat="45.94037" lon="4.68919">
        <ele>341</ele>
        <time>2018-08-14T10:12:00Z</time>
      </trkpt>
      <trkpt lat="45.94043" lon="4.68921">
        <ele>341</ele>
        <time>2018-08-14T10:12:01Z</time>
      </trkpt>
      <trkpt lat="45.94048" lon="4.68924">
        <ele>341</ele>
        <time>2018-08-14T10:12:02Z</time>
      </trkpt>
      <trkpt lat="45.94053" lon="4.68928">
        <ele>341</ele>
        <time>2018-08-14T10:12:03Z</time>
      </trkpt>
      <trkpt lat="45.94058" lon="4.68931">
        <ele>341</ele>
        <time>2018-08-14T10:12:04Z</time>
      </trkpt>
      <trkpt lat="45.94063" lon="4.68935">
        <ele>341</ele>
        <time>2018-08-14T10:12:05Z</time>
      </trkpt>
      <trkpt lat="45.94069" lon="4.68938">
        <ele>341</ele>
        <time>2018-08-14T10:12:06Z</time>
      </trkpt>
      <trkpt lat="45.94075" lon="4.6894">
        <ele>341</ele>
        <time>2018-08-14T10:12:07Z</time>
      </trkpt>
      <trkpt lat="45.94081" lon="4.6894">
        <ele>341</ele>
        <time>2018-08-14T10:12:08Z</time>
      </trkpt>
      <trkpt lat="45.94085" lon="4.68942">
        <ele>340</ele>
        <time>2018-08-14T10:12:09Z</time>
      </trkpt>
      <trkpt lat="45.94092" lon="4.68942">
        <ele>340</ele>
        <time>2018-08-14T10:12:10Z</time>
      </trkpt>
      <trkpt lat="45.94097" lon="4.68944">
        <ele>340</ele>
        <time>2018-08-14T10:12:11Z</time>
      </trkpt>
      <trkpt lat="45.94105" lon="4.68946">
        <ele>340</ele>
        <time>2018-08-14T10:12:12Z</time>
      </trkpt>
      <trkpt lat="45.94111" lon="4.68948">
        <ele>340</ele>
        <time>2018-08-14T10:12:13Z</time>
      </trkpt>
      <trkpt lat="45.94117" lon="4.68951">
        <ele>340</ele>
        <time>2018-08-14T10:12:14Z</time>
      </trkpt>
      <trkpt lat="45.94124" lon="4.68953">
        <ele>340</ele>
        <time>2018-08-14T10:12:15Z</time>
      </trkpt>
      <trkpt lat="45.9413" lon="4.68955">
        <ele>340</ele>
        <time>2018-08-14T10:12:16Z</time>
      </trkpt>
      <trkpt lat="45.94136" lon="4.68958">
        <ele>340</ele>
        <time>2018-08-14T10:12:17Z</time>
      </trkpt>
      <trkpt lat="45.94141" lon="4.68959">
        <ele>340</ele>
        <time>2018-08-14T10:12:18Z</time>
      </trkpt>
      <trkpt lat="45.94146" lon="4.68959">
        <ele>339</ele>
        <time>2018-08-14T10:12:19Z</time>
      </trkpt>
      <trkpt lat="45.94151" lon="4.68961">
        <ele>339</ele>
        <time>2018-08-14T10:12:20Z</time>
      </trkpt>
      <trkpt lat="45.94155" lon="4.68963">
        <ele>339</ele>
        <time>2018-08-14T10:12:21Z</time>
      </trkpt>
      <trkpt lat="45.9416" lon="4.68966">
        <ele>339</ele>
        <time>2018-08-14T10:12:22Z</time>
      </trkpt>
      <trkpt lat="45.94164" lon="4.68968">
        <ele>339</ele>
        <time>2018-08-14T10:12:23Z</time>
      </trkpt>
      <trkpt lat="45.94169" lon="4.68969">
        <ele>338</ele>
        <time>2018-08-14T10:12:24Z</time>
      </trkpt>
      <trkpt lat="45.94175" lon="4.68971">
        <ele>338</ele>
        <time>2018-08-14T10:12:25Z</time>
      </trkpt>
      <trkpt lat="45.9418" lon="4.68974">
        <ele>338</ele>
        <time>2018-08-14T10:12:26Z</time>
      </trkpt>
      <trkpt lat="45.94186" lon="4.68976">
        <ele>338</ele>
        <time>2018-08-14T10:12:27Z</time>
      </trkpt>
      <trkpt lat="45.94191" lon="4.68977">
        <ele>338</ele>
        <time>2018-08-14T10:12:28Z</time>
      </trkpt>
      <trkpt lat="45.94196" lon="4.68978">
        <ele>338</ele>
        <time>2018-08-14T10:12:29Z</time>
      </trkpt>
      <trkpt lat="45.94201" lon="4.6898">
        <ele>338</ele>
        <time>2018-08-14T10:12:30Z</time>
      </trkpt>
      <trkpt lat="45.94206" lon="4.68983">
        <ele>338</ele>
        <time>2018-08-14T10:12:31Z</time>
      </trkpt>
      <trkpt lat="45.94211" lon="4.68983">
        <ele>338</ele>
        <time>2018-08-14T10:12:32Z</time>
      </trkpt>
      <trkpt lat="45.94216" lon="4.68984">
        <ele>338</ele>
        <time>2018-08-14T10:12:33Z</time>
      </trkpt>
      <trkpt lat="45.94222" lon="4.68986">
        <ele>338</ele>
        <time>2018-08-14T10:12:34Z</time>
      </trkpt>
      <trkpt lat="45.94227" lon="4.68988">
        <ele>338</ele>
        <time>2018-08-14T10:12:35Z</time>
      </trkpt>
      <trkpt lat="45.94233" lon="4.68987">
        <ele>338</ele>
        <time>2018-08-14T10:12:36Z</time>
      </trkpt>
      <trkpt lat="45.94239" lon="4.68989">
        <ele>338</ele>
        <time>2018-08-14T10:12:37Z</time>
      </trkpt>
      <trkpt lat="45.94244" lon="4.68988">
        <ele>338</ele>
        <time>2018-08-14T10:12:38Z</time>
      </trkpt>
      <trkpt lat="45.9425" lon="4.68988">
        <ele>338</ele>
        <time>2018-08-14T10:12:39Z</time>
      </trkpt>
      <trkpt lat="45.94254" lon="4.6899">
        <ele>337</ele>
        <time>2018-08-14T10:12:40Z</time>
      </trkpt>
      <trkpt lat="45.94259" lon="4.68991">
        <ele>337</ele>
        <time>2018-08-14T10:12:41Z</time>
      </trkpt>
      <trkpt lat="45.94264" lon="4.68992">
        <ele>337</ele>
        <time>2018-08-14T10:12:42Z</time>
      </trkpt>
      <trkpt lat="45.9427" lon="4.68992">
        <ele>337</ele>
        <time>2018-08-14T10:12:43Z</time>
      </trkpt>
      <trkpt lat="45.94275" lon="4.68993">
        <ele>337</ele>
        <time>2018-08-14T10:12:44Z</time>
      </trkpt>
      <trkpt lat="45.94279" lon="4.68994">
        <ele>337</ele>
        <time>2018-08-14T10:12:45Z</time>
      </trkpt>
      <trkpt lat="45.94283" lon="4.68996">
        <ele>337</ele>
        <time>2018-08-14T10:12:46Z</time>
      </trkpt>
      <trkpt lat="45.94288" lon="4.68998">
        <ele>336</ele>
        <time>2018-08-14T10:12:47Z</time>
      </trkpt>
      <trkpt lat="45.94293" lon="4.68998">
        <ele>336</ele>
        <time>2018-08-14T10:12:48Z</time>
      </trkpt>
      <trkpt lat="45.94297" lon="4.68999">
        <ele>336</ele>
        <time>2018-08-14T10:12:49Z</time>
      </trkpt>
      <trkpt lat="45.94302" lon="4.69">
        <ele>336</ele>
        <time>2018-08-14T10:12:50Z</time>
      </trkpt>
      <trkpt lat="45.94307" lon="4.69">
        <ele>337</ele>
        <time>2018-08-14T10:12:51Z</time>
      </trkpt>
      <trkpt lat="45.94312" lon="4.69">
        <ele>337</ele>
        <time>2018-08-14T10:12:52Z</time>
      </trkpt>
      <trkpt lat="45.94317" lon="4.69001">
        <ele>337</ele>
        <time>2018-08-14T10:12:53Z</time>
      </trkpt>
      <trkpt lat="45.94322" lon="4.69002">
        <ele>337</ele>
        <time>2018-08-14T10:12:54Z</time>
      </trkpt>
      <trkpt lat="45.94327" lon="4.69003">
        <ele>337</ele>
        <time>2018-08-14T10:12:55Z</time>
      </trkpt>
      <trkpt lat="45.94331" lon="4.69004">
        <ele>337</ele>
        <time>2018-08-14T10:12:56Z</time>
      </trkpt>
      <trkpt lat="45.94337" lon="4.69004">
        <ele>337</ele>
        <time>2018-08-14T10:12:57Z</time>
      </trkpt>
      <trkpt lat="45.94342" lon="4.69005">
        <ele>337</ele>
        <time>2018-08-14T10:12:58Z</time>
      </trkpt>
      <trkpt lat="45.94347" lon="4.69004">
        <ele>338</ele>
        <time>2018-08-14T10:12:59Z</time>
      </trkpt>
      <trkpt lat="45.94351" lon="4.69004">
        <ele>338</ele>
        <time>2018-08-14T10:13:00Z</time>
      </trkpt>
      <trkpt lat="45.94356" lon="4.69004">
        <ele>338</ele>
        <time>2018-08-14T10:13:01Z</time>
      </trkpt>
      <trkpt lat="45.9436" lon="4.69004">
        <ele>338</ele>
        <time>2018-08-14T10:13:02Z</time>
      </trkpt>
      <trkpt lat="45.94365" lon="4.69004">
        <ele>338</ele>
        <time>2018-08-14T10:13:03Z</time>
      </trkpt>
      <trkpt lat="45.94373" lon="4.69004">
        <ele>338</ele>
        <time>2018-08-14T10:13:05Z</time>
      </trkpt>
      <trkpt lat="45.94378" lon="4.69003">
        <ele>338</ele>
        <time>2018-08-14T10:13:06Z</time>
      </trkpt>
      <trkpt lat="45.94387" lon="4.69004">
        <ele>338</ele>
        <time>2018-08-14T10:13:08Z</time>
      </trkpt>
      <trkpt lat="45.94392" lon="4.69005">
        <ele>338</ele>
        <time>2018-08-14T10:13:09Z</time>
      </trkpt>
      <trkpt lat="45.944" lon="4.69007">
        <ele>339</ele>
        <time>2018-08-14T10:13:11Z</time>
      </trkpt>
      <trkpt lat="45.94405" lon="4.69008">
        <ele>339</ele>
        <time>2018-08-14T10:13:12Z</time>
      </trkpt>
      <trkpt lat="45.94413" lon="4.69003">
        <ele>339</ele>
        <time>2018-08-14T10:13:14Z</time>
      </trkpt>
      <trkpt lat="45.94417" lon="4.69002">
        <ele>339</ele>
        <time>2018-08-14T10:13:15Z</time>
      </trkpt>
      <trkpt lat="45.94426" lon="4.69003">
        <ele>340</ele>
        <time>2018-08-14T10:13:17Z</time>
      </trkpt>
      <trkpt lat="45.9443" lon="4.69003">
        <ele>340</ele>
        <time>2018-08-14T10:13:18Z</time>
      </trkpt>
      <trkpt lat="45.94434" lon="4.69004">
        <ele>340</ele>
        <time>2018-08-14T10:13:19Z</time>
      </trkpt>
      <trkpt lat="45.94439" lon="4.69003">
        <ele>340</ele>
        <time>2018-08-14T10:13:20Z</time>
      </trkpt>
      <trkpt lat="45.94444" lon="4.69003">
        <ele>340</ele>
        <time>2018-08-14T10:13:21Z</time>
      </trkpt>
      <trkpt lat="45.94449" lon="4.69002">
        <ele>340</ele>
        <time>2018-08-14T10:13:22Z</time>
      </trkpt>
      <trkpt lat="45.94454" lon="4.69001">
        <ele>340</ele>
        <time>2018-08-14T10:13:23Z</time>
      </trkpt>
      <trkpt lat="45.94458" lon="4.69001">
        <ele>340</ele>
        <time>2018-08-14T10:13:24Z</time>
      </trkpt>
      <trkpt lat="45.94463" lon="4.69003">
        <ele>341</ele>
        <time>2018-08-14T10:13:25Z</time>
      </trkpt>
      <trkpt lat="45.94468" lon="4.69004">
        <ele>341</ele>
        <time>2018-08-14T10:13:26Z</time>
      </trkpt>
      <trkpt lat="45.94477" lon="4.69005">
        <ele>341</ele>
        <time>2018-08-14T10:13:28Z</time>
      </trkpt>
      <trkpt lat="45.94481" lon="4.69007">
        <ele>341</ele>
        <time>2018-08-14T10:13:29Z</time>
      </trkpt>
      <trkpt lat="45.94486" lon="4.69008">
        <ele>341</ele>
        <time>2018-08-14T10:13:30Z</time>
      </trkpt>
      <trkpt lat="45.94491" lon="4.69008">
        <ele>341</ele>
        <time>2018-08-14T10:13:31Z</time>
      </trkpt>
      <trkpt lat="45.94496" lon="4.6901">
        <ele>341</ele>
        <time>2018-08-14T10:13:32Z</time>
      </trkpt>
      <trkpt lat="45.94501" lon="4.69013">
        <ele>341</ele>
        <time>2018-08-14T10:13:33Z</time>
      </trkpt>
      <trkpt lat="45.94506" lon="4.69013">
        <ele>341</ele>
        <time>2018-08-14T10:13:34Z</time>
      </trkpt>
      <trkpt lat="45.94511" lon="4.69014">
        <ele>342</ele>
        <time>2018-08-14T10:13:35Z</time>
      </trkpt>
      <trkpt lat="45.94516" lon="4.69015">
        <ele>342</ele>
        <time>2018-08-14T10:13:36Z</time>
      </trkpt>
      <trkpt lat="45.94521" lon="4.69016">
        <ele>342</ele>
        <time>2018-08-14T10:13:37Z</time>
      </trkpt>
      <trkpt lat="45.94529" lon="4.69017">
        <ele>342</ele>
        <time>2018-08-14T10:13:39Z</time>
      </trkpt>
      <trkpt lat="45.94533" lon="4.69018">
        <ele>342</ele>
        <time>2018-08-14T10:13:40Z</time>
      </trkpt>
      <trkpt lat="45.94537" lon="4.69019">
        <ele>342</ele>
        <time>2018-08-14T10:13:41Z</time>
      </trkpt>
      <trkpt lat="45.94543" lon="4.69019">
        <ele>342</ele>
        <time>2018-08-14T10:13:42Z</time>
      </trkpt>
      <trkpt lat="45.94551" lon="4.69022">
        <ele>342</ele>
        <time>2018-08-14T10:13:44Z</time>
      </trkpt>
      <trkpt lat="45.94555" lon="4.69024">
        <ele>342</ele>
        <time>2018-08-14T10:13:45Z</time>
      </trkpt>
      <trkpt lat="45.94564" lon="4.69025">
        <ele>342</ele>
        <time>2018-08-14T10:13:47Z</time>
      </trkpt>
      <trkpt lat="45.94568" lon="4.69025">
        <ele>342</ele>
        <time>2018-08-14T10:13:48Z</time>
      </trkpt>
      <trkpt lat="45.94573" lon="4.69026">
        <ele>342</ele>
        <time>2018-08-14T10:13:49Z</time>
      </trkpt>
      <trkpt lat="45.94578" lon="4.69028">
        <ele>342</ele>
        <time>2018-08-14T10:13:50Z</time>
      </trkpt>
      <trkpt lat="45.94582" lon="4.69022">
        <ele>342</ele>
        <time>2018-08-14T10:13:51Z</time>
      </trkpt>
      <trkpt lat="45.94588" lon="4.69023">
        <ele>341</ele>
        <time>2018-08-14T10:13:52Z</time>
      </trkpt>
      <trkpt lat="45.94594" lon="4.69029">
        <ele>341</ele>
        <time>2018-08-14T10:13:54Z</time>
      </trkpt>
      <trkpt lat="45.94599" lon="4.69029">
        <ele>341</ele>
        <time>2018-08-14T10:13:55Z</time>
      </trkpt>
      <trkpt lat="45.94603" lon="4.69031">
        <ele>341</ele>
        <time>2018-08-14T10:13:56Z</time>
      </trkpt>
      <trkpt lat="45.94608" lon="4.69028">
        <ele>341</ele>
        <time>2018-08-14T10:13:57Z</time>
      </trkpt>
      <trkpt lat="45.94616" lon="4.69029">
        <ele>341</ele>
        <time>2018-08-14T10:13:59Z</time>
      </trkpt>
      <trkpt lat="45.9462" lon="4.6903">
        <ele>341</ele>
        <time>2018-08-14T10:14:00Z</time>
      </trkpt>
      <trkpt lat="45.94629" lon="4.69031">
        <ele>341</ele>
        <time>2018-08-14T10:14:02Z</time>
      </trkpt>
      <trkpt lat="45.94633" lon="4.69032">
        <ele>341</ele>
        <time>2018-08-14T10:14:03Z</time>
      </trkpt>
      <trkpt lat="45.94641" lon="4.69035">
        <ele>341</ele>
        <time>2018-08-14T10:14:05Z</time>
      </trkpt>
      <trkpt lat="45.94646" lon="4.69037">
        <ele>341</ele>
        <time>2018-08-14T10:14:06Z</time>
      </trkpt>
      <trkpt lat="45.94654" lon="4.6904">
        <ele>341</ele>
        <time>2018-08-14T10:14:08Z</time>
      </trkpt>
      <trkpt lat="45.94659" lon="4.69042">
        <ele>341</ele>
        <time>2018-08-14T10:14:09Z</time>
      </trkpt>
      <trkpt lat="45.94667" lon="4.69045">
        <ele>342</ele>
        <time>2018-08-14T10:14:11Z</time>
      </trkpt>
      <trkpt lat="45.94671" lon="4.69046">
        <ele>342</ele>
        <time>2018-08-14T10:14:12Z</time>
      </trkpt>
      <trkpt lat="45.94675" lon="4.69051">
        <ele>342</ele>
        <time>2018-08-14T10:14:13Z</time>
      </trkpt>
      <trkpt lat="45.94681" lon="4.69053">
        <ele>342</ele>
        <time>2018-08-14T10:14:14Z</time>
      </trkpt>
      <trkpt lat="45.94685" lon="4.69054">
        <ele>342</ele>
        <time>2018-08-14T10:14:15Z</time>
      </trkpt>
      <trkpt lat="45.9469" lon="4.69057">
        <ele>342</ele>
        <time>2018-08-14T10:14:16Z</time>
      </trkpt>
      <trkpt lat="45.94698" lon="4.69061">
        <ele>342</ele>
        <time>2018-08-14T10:14:18Z</time>
      </trkpt>
      <trkpt lat="45.94702" lon="4.69062">
        <ele>342</ele>
        <time>2018-08-14T10:14:19Z</time>
      </trkpt>
      <trkpt lat="45.94707" lon="4.69065">
        <ele>342</ele>
        <time>2018-08-14T10:14:20Z</time>
      </trkpt>
      <trkpt lat="45.94711" lon="4.69067">
        <ele>342</ele>
        <time>2018-08-14T10:14:21Z</time>
      </trkpt>
      <trkpt lat="45.9472" lon="4.6907">
        <ele>343</ele>
        <time>2018-08-14T10:14:23Z</time>
      </trkpt>
      <trkpt lat="45.94725" lon="4.69067">
        <ele>343</ele>
        <time>2018-08-14T10:14:24Z</time>
      </trkpt>
      <trkpt lat="45.94734" lon="4.69067">
        <ele>343</ele>
        <time>2018-08-14T10:14:26Z</time>
      </trkpt>
      <trkpt lat="45.94738" lon="4.6907">
        <ele>343</ele>
        <time>2018-08-14T10:14:27Z</time>
      </trkpt>
      <trkpt lat="45.94742" lon="4.69072">
        <ele>344</ele>
        <time>2018-08-14T10:14:28Z</time>
      </trkpt>
      <trkpt lat="45.94747" lon="4.69076">
        <ele>344</ele>
        <time>2018-08-14T10:14:29Z</time>
      </trkpt>
      <trkpt lat="45.94751" lon="4.69079">
        <ele>345</ele>
        <time>2018-08-14T10:14:30Z</time>
      </trkpt>
      <trkpt lat="45.94757" lon="4.6908">
        <ele>344</ele>
        <time>2018-08-14T10:14:31Z</time>
      </trkpt>
      <trkpt lat="45.94763" lon="4.69081">
        <ele>344</ele>
        <time>2018-08-14T10:14:32Z</time>
      </trkpt>
      <trkpt lat="45.94768" lon="4.69083">
        <ele>343</ele>
        <time>2018-08-14T10:14:33Z</time>
      </trkpt>
      <trkpt lat="45.94774" lon="4.69087">
        <ele>344</ele>
        <time>2018-08-14T10:14:34Z</time>
      </trkpt>
      <trkpt lat="45.94779" lon="4.69089">
        <ele>344</ele>
        <time>2018-08-14T10:14:35Z</time>
      </trkpt>
      <trkpt lat="45.94784" lon="4.69091">
        <ele>344</ele>
        <time>2018-08-14T10:14:36Z</time>
      </trkpt>
      <trkpt lat="45.94789" lon="4.69093">
        <ele>344</ele>
        <time>2018-08-14T10:14:37Z</time>
      </trkpt>
      <trkpt lat="45.94793" lon="4.69096">
        <ele>344</ele>
        <time>2018-08-14T10:14:38Z</time>
      </trkpt>
      <trkpt lat="45.94798" lon="4.69098">
        <ele>344</ele>
        <time>2018-08-14T10:14:39Z</time>
      </trkpt>
      <trkpt lat="45.94803" lon="4.69098">
        <ele>344</ele>
        <time>2018-08-14T10:14:40Z</time>
      </trkpt>
      <trkpt lat="45.94809" lon="4.691">
        <ele>344</ele>
        <time>2018-08-14T10:14:41Z</time>
      </trkpt>
      <trkpt lat="45.94814" lon="4.69102">
        <ele>344</ele>
        <time>2018-08-14T10:14:42Z</time>
      </trkpt>
      <trkpt lat="45.9482" lon="4.69104">
        <ele>344</ele>
        <time>2018-08-14T10:14:43Z</time>
      </trkpt>
      <trkpt lat="45.94825" lon="4.69106">
        <ele>344</ele>
        <time>2018-08-14T10:14:44Z</time>
      </trkpt>
      <trkpt lat="45.9483" lon="4.69108">
        <ele>344</ele>
        <time>2018-08-14T10:14:45Z</time>
      </trkpt>
      <trkpt lat="45.94835" lon="4.6911">
        <ele>342</ele>
        <time>2018-08-14T10:14:46Z</time>
      </trkpt>
      <trkpt lat="45.94839" lon="4.69112">
        <ele>342</ele>
        <time>2018-08-14T10:14:47Z</time>
      </trkpt>
      <trkpt lat="45.94844" lon="4.69115">
        <ele>342</ele>
        <time>2018-08-14T10:14:48Z</time>
      </trkpt>
      <trkpt lat="45.94849" lon="4.69116">
        <ele>342</ele>
        <time>2018-08-14T10:14:49Z</time>
      </trkpt>
      <trkpt lat="45.94854" lon="4.69118">
        <ele>342</ele>
        <time>2018-08-14T10:14:50Z</time>
      </trkpt>
      <trkpt lat="45.94859" lon="4.69121">
        <ele>342</ele>
        <time>2018-08-14T10:14:51Z</time>
      </trkpt>
      <trkpt lat="45.94865" lon="4.69123">
        <ele>342</ele>
        <time>2018-08-14T10:14:52Z</time>
      </trkpt>
      <trkpt lat="45.94872" lon="4.69126">
        <ele>342</ele>
        <time>2018-08-14T10:14:53Z</time>
      </trkpt>
      <trkpt lat="45.94878" lon="4.69126">
        <ele>342</ele>
        <time>2018-08-14T10:14:54Z</time>
      </trkpt>
      <trkpt lat="45.94883" lon="4.69129">
        <ele>342</ele>
        <time>2018-08-14T10:14:55Z</time>
      </trkpt>
      <trkpt lat="45.94888" lon="4.69132">
        <ele>342</ele>
        <time>2018-08-14T10:14:56Z</time>
      </trkpt>
      <trkpt lat="45.94894" lon="4.69134">
        <ele>342</ele>
        <time>2018-08-14T10:14:57Z</time>
      </trkpt>
      <trkpt lat="45.949" lon="4.69139">
        <ele>342</ele>
        <time>2018-08-14T10:14:58Z</time>
      </trkpt>
      <trkpt lat="45.94905" lon="4.69142">
        <ele>342</ele>
        <time>2018-08-14T10:14:59Z</time>
      </trkpt>
      <trkpt lat="45.94911" lon="4.69146">
        <ele>342</ele>
        <time>2018-08-14T10:15:00Z</time>
      </trkpt>
      <trkpt lat="45.94918" lon="4.69149">
        <ele>340</ele>
        <time>2018-08-14T10:15:01Z</time>
      </trkpt>
      <trkpt lat="45.94924" lon="4.69154">
        <ele>340</ele>
        <time>2018-08-14T10:15:02Z</time>
      </trkpt>
      <trkpt lat="45.94931" lon="4.69159">
        <ele>340</ele>
        <time>2018-08-14T10:15:03Z</time>
      </trkpt>
      <trkpt lat="45.94938" lon="4.69161">
        <ele>339</ele>
        <time>2018-08-14T10:15:04Z</time>
      </trkpt>
      <trkpt lat="45.94944" lon="4.69167">
        <ele>339</ele>
        <time>2018-08-14T10:15:05Z</time>
      </trkpt>
      <trkpt lat="45.94951" lon="4.69169">
        <ele>340</ele>
        <time>2018-08-14T10:15:06Z</time>
      </trkpt>
      <trkpt lat="45.94957" lon="4.69173">
        <ele>340</ele>
        <time>2018-08-14T10:15:07Z</time>
      </trkpt>
      <trkpt lat="45.94963" lon="4.69178">
        <ele>340</ele>
        <time>2018-08-14T10:15:08Z</time>
      </trkpt>
      <trkpt lat="45.94969" lon="4.69184">
        <ele>340</ele>
        <time>2018-08-14T10:15:09Z</time>
      </trkpt>
      <trkpt lat="45.94974" lon="4.69189">
        <ele>340</ele>
        <time>2018-08-14T10:15:10Z</time>
      </trkpt>
      <trkpt lat="45.94981" lon="4.69196">
        <ele>340</ele>
        <time>2018-08-14T10:15:11Z</time>
      </trkpt>
      <trkpt lat="45.94988" lon="4.692">
        <ele>340</ele>
        <time>2018-08-14T10:15:12Z</time>
      </trkpt>
      <trkpt lat="45.94995" lon="4.69207">
        <ele>340</ele>
        <time>2018-08-14T10:15:13Z</time>
      </trkpt>
      <trkpt lat="45.95002" lon="4.69209">
        <ele>337</ele>
        <time>2018-08-14T10:15:14Z</time>
      </trkpt>
      <trkpt lat="45.95009" lon="4.69215">
        <ele>337</ele>
        <time>2018-08-14T10:15:15Z</time>
      </trkpt>
      <trkpt lat="45.95017" lon="4.69221">
        <ele>337</ele>
        <time>2018-08-14T10:15:16Z</time>
      </trkpt>
      <trkpt lat="45.95024" lon="4.69229">
        <ele>337</ele>
        <time>2018-08-14T10:15:17Z</time>
      </trkpt>
      <trkpt lat="45.95031" lon="4.69237">
        <ele>337</ele>
        <time>2018-08-14T10:15:18Z</time>
      </trkpt>
      <trkpt lat="45.95039" lon="4.69244">
        <ele>336</ele>
        <time>2018-08-14T10:15:19Z</time>
      </trkpt>
      <trkpt lat="45.95046" lon="4.69252">
        <ele>337</ele>
        <time>2018-08-14T10:15:20Z</time>
      </trkpt>
      <trkpt lat="45.95053" lon="4.69258">
        <ele>336</ele>
        <time>2018-08-14T10:15:21Z</time>
      </trkpt>
      <trkpt lat="45.95061" lon="4.69265">
        <ele>336</ele>
        <time>2018-08-14T10:15:22Z</time>
      </trkpt>
      <trkpt lat="45.95067" lon="4.69271">
        <ele>336</ele>
        <time>2018-08-14T10:15:23Z</time>
      </trkpt>
      <trkpt lat="45.95073" lon="4.69279">
        <ele>336</ele>
        <time>2018-08-14T10:15:24Z</time>
      </trkpt>
      <trkpt lat="45.9508" lon="4.69284">
        <ele>336</ele>
        <time>2018-08-14T10:15:25Z</time>
      </trkpt>
      <trkpt lat="45.95088" lon="4.69292">
        <ele>334</ele>
        <time>2018-08-14T10:15:26Z</time>
      </trkpt>
      <trkpt lat="45.95094" lon="4.69297">
        <ele>334</ele>
        <time>2018-08-14T10:15:27Z</time>
      </trkpt>
      <trkpt lat="45.951" lon="4.69304">
        <ele>334</ele>
        <time>2018-08-14T10:15:28Z</time>
      </trkpt>
      <trkpt lat="45.95106" lon="4.69312">
        <ele>334</ele>
        <time>2018-08-14T10:15:29Z</time>
      </trkpt>
      <trkpt lat="45.95113" lon="4.69318">
        <ele>334</ele>
        <time>2018-08-14T10:15:30Z</time>
      </trkpt>
      <trkpt lat="45.9512" lon="4.69327">
        <ele>334</ele>
        <time>2018-08-14T10:15:31Z</time>
      </trkpt>
      <trkpt lat="45.95126" lon="4.69333">
        <ele>334</ele>
        <time>2018-08-14T10:15:32Z</time>
      </trkpt>
      <trkpt lat="45.95132" lon="4.69339">
        <ele>337</ele>
        <time>2018-08-14T10:15:33Z</time>
      </trkpt>
      <trkpt lat="45.95138" lon="4.69345">
        <ele>337</ele>
        <time>2018-08-14T10:15:34Z</time>
      </trkpt>
      <trkpt lat="45.95142" lon="4.69347">
        <ele>337</ele>
        <time>2018-08-14T10:15:35Z</time>
      </trkpt>
      <trkpt lat="45.95146" lon="4.69352">
        <ele>337</ele>
        <time>2018-08-14T10:15:36Z</time>
      </trkpt>
      <trkpt lat="45.95151" lon="4.69356">
        <ele>337</ele>
        <time>2018-08-14T10:15:37Z</time>
      </trkpt>
      <trkpt lat="45.95155" lon="4.69361">
        <ele>337</ele>
        <time>2018-08-14T10:15:38Z</time>
      </trkpt>
      <trkpt lat="45.9516" lon="4.69366">
        <ele>337</ele>
        <time>2018-08-14T10:15:39Z</time>
      </trkpt>
      <trkpt lat="45.95164" lon="4.6937">
        <ele>337</ele>
        <time>2018-08-14T10:15:40Z</time>
      </trkpt>
      <trkpt lat="45.9517" lon="4.69375">
        <ele>337</ele>
        <time>2018-08-14T10:15:41Z</time>
      </trkpt>
      <trkpt lat="45.95175" lon="4.69379">
        <ele>337</ele>
        <time>2018-08-14T10:15:42Z</time>
      </trkpt>
      <trkpt lat="45.9518" lon="4.69384">
        <ele>337</ele>
        <time>2018-08-14T10:15:43Z</time>
      </trkpt>
      <trkpt lat="45.95184" lon="4.69386">
        <ele>337</ele>
        <time>2018-08-14T10:15:44Z</time>
      </trkpt>
      <trkpt lat="45.95189" lon="4.6939">
        <ele>337</ele>
        <time>2018-08-14T10:15:45Z</time>
      </trkpt>
      <trkpt lat="45.95193" lon="4.69392">
        <ele>337</ele>
        <time>2018-08-14T10:15:46Z</time>
      </trkpt>
      <trkpt lat="45.95198" lon="4.69395">
        <ele>337</ele>
        <time>2018-08-14T10:15:47Z</time>
      </trkpt>
      <trkpt lat="45.95202" lon="4.69398">
        <ele>337</ele>
        <time>2018-08-14T10:15:48Z</time>
      </trkpt>
      <trkpt lat="45.95207" lon="4.69401">
        <ele>337</ele>
        <time>2018-08-14T10:15:49Z</time>
      </trkpt>
      <trkpt lat="45.95212" lon="4.69404">
        <ele>337</ele>
        <time>2018-08-14T10:15:50Z</time>
      </trkpt>
      <trkpt lat="45.95217" lon="4.69407">
        <ele>337</ele>
        <time>2018-08-14T10:15:51Z</time>
      </trkpt>
      <trkpt lat="45.95222" lon="4.69408">
        <ele>337</ele>
        <time>2018-08-14T10:15:52Z</time>
      </trkpt>
      <trkpt lat="45.95226" lon="4.69411">
        <ele>337</ele>
        <time>2018-08-14T10:15:53Z</time>
      </trkpt>
      <trkpt lat="45.95231" lon="4.69413">
        <ele>337</ele>
        <time>2018-08-14T10:15:54Z</time>
      </trkpt>
      <trkpt lat="45.95237" lon="4.69416">
        <ele>337</ele>
        <time>2018-08-14T10:15:55Z</time>
      </trkpt>
      <trkpt lat="45.95242" lon="4.69418">
        <ele>339</ele>
        <time>2018-08-14T10:15:56Z</time>
      </trkpt>
      <trkpt lat="45.95246" lon="4.69419">
        <ele>338</ele>
        <time>2018-08-14T10:15:57Z</time>
      </trkpt>
      <trkpt lat="45.95252" lon="4.69423">
        <ele>338</ele>
        <time>2018-08-14T10:15:58Z</time>
      </trkpt>
      <trkpt lat="45.95256" lon="4.69426">
        <ele>338</ele>
        <time>2018-08-14T10:15:59Z</time>
      </trkpt>
      <trkpt lat="45.95261" lon="4.69428">
        <ele>338</ele>
        <time>2018-08-14T10:16:00Z</time>
      </trkpt>
      <trkpt lat="45.95265" lon="4.69431">
        <ele>338</ele>
        <time>2018-08-14T10:16:01Z</time>
      </trkpt>
      <trkpt lat="45.9527" lon="4.69434">
        <ele>338</ele>
        <time>2018-08-14T10:16:02Z</time>
      </trkpt>
      <trkpt lat="45.95276" lon="4.69435">
        <ele>338</ele>
        <time>2018-08-14T10:16:03Z</time>
      </trkpt>
      <trkpt lat="45.95282" lon="4.69438">
        <ele>338</ele>
        <time>2018-08-14T10:16:04Z</time>
      </trkpt>
      <trkpt lat="45.95287" lon="4.6944">
        <ele>338</ele>
        <time>2018-08-14T10:16:05Z</time>
      </trkpt>
      <trkpt lat="45.95293" lon="4.69446">
        <ele>338</ele>
        <time>2018-08-14T10:16:06Z</time>
      </trkpt>
      <trkpt lat="45.95298" lon="4.69448">
        <ele>338</ele>
        <time>2018-08-14T10:16:07Z</time>
      </trkpt>
      <trkpt lat="45.95305" lon="4.69446">
        <ele>338</ele>
        <time>2018-08-14T10:16:08Z</time>
      </trkpt>
      <trkpt lat="45.9531" lon="4.6945">
        <ele>338</ele>
        <time>2018-08-14T10:16:09Z</time>
      </trkpt>
      <trkpt lat="45.95315" lon="4.69451">
        <ele>338</ele>
        <time>2018-08-14T10:16:10Z</time>
      </trkpt>
      <trkpt lat="45.95321" lon="4.69455">
        <ele>338</ele>
        <time>2018-08-14T10:16:11Z</time>
      </trkpt>
      <trkpt lat="45.95326" lon="4.69458">
        <ele>338</ele>
        <time>2018-08-14T10:16:12Z</time>
      </trkpt>
      <trkpt lat="45.95331" lon="4.6946">
        <ele>338</ele>
        <time>2018-08-14T10:16:13Z</time>
      </trkpt>
      <trkpt lat="45.95335" lon="4.69464">
        <ele>336</ele>
        <time>2018-08-14T10:16:14Z</time>
      </trkpt>
      <trkpt lat="45.9534" lon="4.69466">
        <ele>336</ele>
        <time>2018-08-14T10:16:15Z</time>
      </trkpt>
      <trkpt lat="45.95346" lon="4.6947">
        <ele>337</ele>
        <time>2018-08-14T10:16:16Z</time>
      </trkpt>
      <trkpt lat="45.95352" lon="4.69473">
        <ele>337</ele>
        <time>2018-08-14T10:16:17Z</time>
      </trkpt>
      <trkpt lat="45.95357" lon="4.69477">
        <ele>337</ele>
        <time>2018-08-14T10:16:18Z</time>
      </trkpt>
      <trkpt lat="45.95362" lon="4.69482">
        <ele>337</ele>
        <time>2018-08-14T10:16:19Z</time>
      </trkpt>
      <trkpt lat="45.95368" lon="4.69487">
        <ele>337</ele>
        <time>2018-08-14T10:16:20Z</time>
      </trkpt>
      <trkpt lat="45.95373" lon="4.69492">
        <ele>337</ele>
        <time>2018-08-14T10:16:21Z</time>
      </trkpt>
      <trkpt lat="45.95379" lon="4.69496">
        <ele>337</ele>
        <time>2018-08-14T10:16:22Z</time>
      </trkpt>
      <trkpt lat="45.95385" lon="4.695">
        <ele>340</ele>
        <time>2018-08-14T10:16:23Z</time>
      </trkpt>
      <trkpt lat="45.9539" lon="4.695">
        <ele>337</ele>
        <time>2018-08-14T10:16:24Z</time>
      </trkpt>
      <trkpt lat="45.95395" lon="4.69505">
        <ele>339</ele>
        <time>2018-08-14T10:16:25Z</time>
      </trkpt>
      <trkpt lat="45.95402" lon="4.69509">
        <ele>339</ele>
        <time>2018-08-14T10:16:26Z</time>
      </trkpt>
      <trkpt lat="45.95407" lon="4.69511">
        <ele>339</ele>
        <time>2018-08-14T10:16:27Z</time>
      </trkpt>
      <trkpt lat="45.95411" lon="4.69516">
        <ele>339</ele>
        <time>2018-08-14T10:16:28Z</time>
      </trkpt>
      <trkpt lat="45.95416" lon="4.69518">
        <ele>339</ele>
        <time>2018-08-14T10:16:29Z</time>
      </trkpt>
      <trkpt lat="45.95421" lon="4.69521">
        <ele>337</ele>
        <time>2018-08-14T10:16:30Z</time>
      </trkpt>
      <trkpt lat="45.95427" lon="4.69526">
        <ele>337</ele>
        <time>2018-08-14T10:16:31Z</time>
      </trkpt>
      <trkpt lat="45.95433" lon="4.69528">
        <ele>337</ele>
        <time>2018-08-14T10:16:32Z</time>
      </trkpt>
      <trkpt lat="45.9544" lon="4.69532">
        <ele>337</ele>
        <time>2018-08-14T10:16:33Z</time>
      </trkpt>
      <trkpt lat="45.95446" lon="4.69534">
        <ele>337</ele>
        <time>2018-08-14T10:16:34Z</time>
      </trkpt>
      <trkpt lat="45.95452" lon="4.69537">
        <ele>337</ele>
        <time>2018-08-14T10:16:35Z</time>
      </trkpt>
      <trkpt lat="45.95458" lon="4.69541">
        <ele>336</ele>
        <time>2018-08-14T10:16:36Z</time>
      </trkpt>
      <trkpt lat="45.95464" lon="4.69544">
        <ele>336</ele>
        <time>2018-08-14T10:16:37Z</time>
      </trkpt>
      <trkpt lat="45.95469" lon="4.69545">
        <ele>336</ele>
        <time>2018-08-14T10:16:38Z</time>
      </trkpt>
      <trkpt lat="45.95475" lon="4.69548">
        <ele>336</ele>
        <time>2018-08-14T10:16:39Z</time>
      </trkpt>
      <trkpt lat="45.95481" lon="4.69551">
        <ele>336</ele>
        <time>2018-08-14T10:16:40Z</time>
      </trkpt>
      <trkpt lat="45.95488" lon="4.69553">
        <ele>336</ele>
        <time>2018-08-14T10:16:41Z</time>
      </trkpt>
      <trkpt lat="45.95495" lon="4.69555">
        <ele>336</ele>
        <time>2018-08-14T10:16:42Z</time>
      </trkpt>
      <trkpt lat="45.95502" lon="4.69559">
        <ele>333</ele>
        <time>2018-08-14T10:16:43Z</time>
      </trkpt>
      <trkpt lat="45.95509" lon="4.69563">
        <ele>333</ele>
        <time>2018-08-14T10:16:44Z</time>
      </trkpt>
      <trkpt lat="45.95517" lon="4.69566">
        <ele>333</ele>
        <time>2018-08-14T10:16:45Z</time>
      </trkpt>
      <trkpt lat="45.95523" lon="4.69569">
        <ele>333</ele>
        <time>2018-08-14T10:16:46Z</time>
      </trkpt>
      <trkpt lat="45.95529" lon="4.69572">
        <ele>332</ele>
        <time>2018-08-14T10:16:47Z</time>
      </trkpt>
      <trkpt lat="45.95534" lon="4.69575">
        <ele>332</ele>
        <time>2018-08-14T10:16:48Z</time>
      </trkpt>
      <trkpt lat="45.95541" lon="4.69579">
        <ele>332</ele>
        <time>2018-08-14T10:16:49Z</time>
      </trkpt>
      <trkpt lat="45.95547" lon="4.69581">
        <ele>331</ele>
        <time>2018-08-14T10:16:50Z</time>
      </trkpt>
      <trkpt lat="45.95554" lon="4.69582">
        <ele>331</ele>
        <time>2018-08-14T10:16:51Z</time>
      </trkpt>
      <trkpt lat="45.95562" lon="4.69586">
        <ele>330</ele>
        <time>2018-08-14T10:16:52Z</time>
      </trkpt>
      <trkpt lat="45.95569" lon="4.69589">
        <ele>330</ele>
        <time>2018-08-14T10:16:53Z</time>
      </trkpt>
      <trkpt lat="45.95577" lon="4.69591">
        <ele>329</ele>
        <time>2018-08-14T10:16:54Z</time>
      </trkpt>
      <trkpt lat="45.95584" lon="4.69595">
        <ele>328</ele>
        <time>2018-08-14T10:16:55Z</time>
      </trkpt>
      <trkpt lat="45.95592" lon="4.69599">
        <ele>328</ele>
        <time>2018-08-14T10:16:56Z</time>
      </trkpt>
      <trkpt lat="45.95599" lon="4.69602">
        <ele>328</ele>
        <time>2018-08-14T10:16:57Z</time>
      </trkpt>
      <trkpt lat="45.95607" lon="4.69605">
        <ele>328</ele>
        <time>2018-08-14T10:16:58Z</time>
      </trkpt>
      <trkpt lat="45.95613" lon="4.69609">
        <ele>328</ele>
        <time>2018-08-14T10:16:59Z</time>
      </trkpt>
      <trkpt lat="45.95621" lon="4.69612">
        <ele>328</ele>
        <time>2018-08-14T10:17:00Z</time>
      </trkpt>
      <trkpt lat="45.95628" lon="4.69615">
        <ele>328</ele>
        <time>2018-08-14T10:17:01Z</time>
      </trkpt>
      <trkpt lat="45.95636" lon="4.69619">
        <ele>328</ele>
        <time>2018-08-14T10:17:02Z</time>
      </trkpt>
      <trkpt lat="45.95644" lon="4.69621">
        <ele>328</ele>
        <time>2018-08-14T10:17:03Z</time>
      </trkpt>
      <trkpt lat="45.95651" lon="4.69624">
        <ele>328</ele>
        <time>2018-08-14T10:17:04Z</time>
      </trkpt>
      <trkpt lat="45.95659" lon="4.6963">
        <ele>327</ele>
        <time>2018-08-14T10:17:05Z</time>
      </trkpt>
      <trkpt lat="45.95666" lon="4.69634">
        <ele>327</ele>
        <time>2018-08-14T10:17:06Z</time>
      </trkpt>
      <trkpt lat="45.95673" lon="4.69637">
        <ele>326</ele>
        <time>2018-08-14T10:17:07Z</time>
      </trkpt>
      <trkpt lat="45.95681" lon="4.6964">
        <ele>326</ele>
        <time>2018-08-14T10:17:08Z</time>
      </trkpt>
      <trkpt lat="45.95688" lon="4.69642">
        <ele>326</ele>
        <time>2018-08-14T10:17:09Z</time>
      </trkpt>
      <trkpt lat="45.95695" lon="4.69641">
        <ele>326</ele>
        <time>2018-08-14T10:17:10Z</time>
      </trkpt>
      <trkpt lat="45.95702" lon="4.69642">
        <ele>326</ele>
        <time>2018-08-14T10:17:11Z</time>
      </trkpt>
      <trkpt lat="45.95707" lon="4.69643">
        <ele>326</ele>
        <time>2018-08-14T10:17:12Z</time>
      </trkpt>
      <trkpt lat="45.95713" lon="4.69646">
        <ele>326</ele>
        <time>2018-08-14T10:17:13Z</time>
      </trkpt>
      <trkpt lat="45.95719" lon="4.69648">
        <ele>326</ele>
        <time>2018-08-14T10:17:14Z</time>
      </trkpt>
      <trkpt lat="45.95725" lon="4.69651">
        <ele>326</ele>
        <time>2018-08-14T10:17:15Z</time>
      </trkpt>
      <trkpt lat="45.95731" lon="4.69654">
        <ele>326</ele>
        <time>2018-08-14T10:17:16Z</time>
      </trkpt>
      <trkpt lat="45.95736" lon="4.69655">
        <ele>326</ele>
        <time>2018-08-14T10:17:17Z</time>
      </trkpt>
      <trkpt lat="45.95742" lon="4.69658">
        <ele>326</ele>
        <time>2018-08-14T10:17:18Z</time>
      </trkpt>
      <trkpt lat="45.95747" lon="4.6966">
        <ele>326</ele>
        <time>2018-08-14T10:17:19Z</time>
      </trkpt>
      <trkpt lat="45.95752" lon="4.69665">
        <ele>326</ele>
        <time>2018-08-14T10:17:20Z</time>
      </trkpt>
      <trkpt lat="45.95757" lon="4.69667">
        <ele>326</ele>
        <time>2018-08-14T10:17:21Z</time>
      </trkpt>
      <trkpt lat="45.95762" lon="4.6967">
        <ele>326</ele>
        <time>2018-08-14T10:17:22Z</time>
      </trkpt>
      <trkpt lat="45.95767" lon="4.69672">
        <ele>326</ele>
        <time>2018-08-14T10:17:23Z</time>
      </trkpt>
      <trkpt lat="45.95772" lon="4.69675">
        <ele>326</ele>
        <time>2018-08-14T10:17:24Z</time>
      </trkpt>
      <trkpt lat="45.95776" lon="4.69679">
        <ele>326</ele>
        <time>2018-08-14T10:17:25Z</time>
      </trkpt>
      <trkpt lat="45.9578" lon="4.69684">
        <ele>326</ele>
        <time>2018-08-14T10:17:26Z</time>
      </trkpt>
      <trkpt lat="45.95785" lon="4.69688">
        <ele>326</ele>
        <time>2018-08-14T10:17:27Z</time>
      </trkpt>
      <trkpt lat="45.95789" lon="4.69695">
        <ele>326</ele>
        <time>2018-08-14T10:17:28Z</time>
      </trkpt>
      <trkpt lat="45.95794" lon="4.69702">
        <ele>326</ele>
        <time>2018-08-14T10:17:29Z</time>
      </trkpt>
      <trkpt lat="45.95798" lon="4.6971">
        <ele>326</ele>
        <time>2018-08-14T10:17:30Z</time>
      </trkpt>
      <trkpt lat="45.95802" lon="4.69715">
        <ele>326</ele>
        <time>2018-08-14T10:17:31Z</time>
      </trkpt>
      <trkpt lat="45.95805" lon="4.69721">
        <ele>326</ele>
        <time>2018-08-14T10:17:32Z</time>
      </trkpt>
      <trkpt lat="45.95811" lon="4.69728">
        <ele>326</ele>
        <time>2018-08-14T10:17:33Z</time>
      </trkpt>
      <trkpt lat="45.95814" lon="4.69734">
        <ele>327</ele>
        <time>2018-08-14T10:17:34Z</time>
      </trkpt>
      <trkpt lat="45.95817" lon="4.69739">
        <ele>327</ele>
        <time>2018-08-14T10:17:35Z</time>
      </trkpt>
      <trkpt lat="45.9582" lon="4.69744">
        <ele>327</ele>
        <time>2018-08-14T10:17:36Z</time>
      </trkpt>
      <trkpt lat="45.95824" lon="4.69751">
        <ele>327</ele>
        <time>2018-08-14T10:17:37Z</time>
      </trkpt>
      <trkpt lat="45.95828" lon="4.69757">
        <ele>327</ele>
        <time>2018-08-14T10:17:38Z</time>
      </trkpt>
      <trkpt lat="45.95831" lon="4.69762">
        <ele>328</ele>
        <time>2018-08-14T10:17:39Z</time>
      </trkpt>
      <trkpt lat="45.95837" lon="4.69772">
        <ele>327</ele>
        <time>2018-08-14T10:17:41Z</time>
      </trkpt>
      <trkpt lat="45.9584" lon="4.69777">
        <ele>327</ele>
        <time>2018-08-14T10:17:42Z</time>
      </trkpt>
      <trkpt lat="45.95846" lon="4.69786">
        <ele>327</ele>
        <time>2018-08-14T10:17:44Z</time>
      </trkpt>
      <trkpt lat="45.95848" lon="4.6979">
        <ele>327</ele>
        <time>2018-08-14T10:17:45Z</time>
      </trkpt>
      <trkpt lat="45.95851" lon="4.69794">
        <ele>327</ele>
        <time>2018-08-14T10:17:46Z</time>
      </trkpt>
      <trkpt lat="45.95854" lon="4.69799">
        <ele>327</ele>
        <time>2018-08-14T10:17:47Z</time>
      </trkpt>
      <trkpt lat="45.95859" lon="4.69808">
        <ele>327</ele>
        <time>2018-08-14T10:17:49Z</time>
      </trkpt>
      <trkpt lat="45.95861" lon="4.69814">
        <ele>327</ele>
        <time>2018-08-14T10:17:50Z</time>
      </trkpt>
      <trkpt lat="45.95865" lon="4.69824">
        <ele>327</ele>
        <time>2018-08-14T10:17:52Z</time>
      </trkpt>
      <trkpt lat="45.95867" lon="4.69831">
        <ele>328</ele>
        <time>2018-08-14T10:17:53Z</time>
      </trkpt>
      <trkpt lat="45.95868" lon="4.69837">
        <ele>329</ele>
        <time>2018-08-14T10:17:54Z</time>
      </trkpt>
      <trkpt lat="45.9587" lon="4.69843">
        <ele>329</ele>
        <time>2018-08-14T10:17:55Z</time>
      </trkpt>
      <trkpt lat="45.95874" lon="4.69854">
        <ele>329</ele>
        <time>2018-08-14T10:17:57Z</time>
      </trkpt>
      <trkpt lat="45.95875" lon="4.69859">
        <ele>329</ele>
        <time>2018-08-14T10:17:58Z</time>
      </trkpt>
      <trkpt lat="45.95878" lon="4.6987">
        <ele>329</ele>
        <time>2018-08-14T10:18:00Z</time>
      </trkpt>
      <trkpt lat="45.9588" lon="4.69877">
        <ele>329</ele>
        <time>2018-08-14T10:18:01Z</time>
      </trkpt>
      <trkpt lat="45.95882" lon="4.69883">
        <ele>329</ele>
        <time>2018-08-14T10:18:02Z</time>
      </trkpt>
      <trkpt lat="45.95883" lon="4.6989">
        <ele>329</ele>
        <time>2018-08-14T10:18:03Z</time>
      </trkpt>
      <trkpt lat="45.95885" lon="4.69898">
        <ele>329</ele>
        <time>2018-08-14T10:18:04Z</time>
      </trkpt>
      <trkpt lat="45.95886" lon="4.69904">
        <ele>329</ele>
        <time>2018-08-14T10:18:05Z</time>
      </trkpt>
      <trkpt lat="45.95888" lon="4.69911">
        <ele>329</ele>
        <time>2018-08-14T10:18:06Z</time>
      </trkpt>
      <trkpt lat="45.9589" lon="4.69919">
        <ele>328</ele>
        <time>2018-08-14T10:18:07Z</time>
      </trkpt>
      <trkpt lat="45.95892" lon="4.69929">
        <ele>328</ele>
        <time>2018-08-14T10:18:09Z</time>
      </trkpt>
      <trkpt lat="45.95894" lon="4.69936">
        <ele>328</ele>
        <time>2018-08-14T10:18:10Z</time>
      </trkpt>
      <trkpt lat="45.95896" lon="4.69943">
        <ele>328</ele>
        <time>2018-08-14T10:18:11Z</time>
      </trkpt>
      <trkpt lat="45.95897" lon="4.69948">
        <ele>328</ele>
        <time>2018-08-14T10:18:12Z</time>
      </trkpt>
      <trkpt lat="45.95898" lon="4.69954">
        <ele>328</ele>
        <time>2018-08-14T10:18:13Z</time>
      </trkpt>
      <trkpt lat="45.959" lon="4.69963">
        <ele>328</ele>
        <time>2018-08-14T10:18:14Z</time>
      </trkpt>
      <trkpt lat="45.95902" lon="4.6997">
        <ele>328</ele>
        <time>2018-08-14T10:18:15Z</time>
      </trkpt>
      <trkpt lat="45.95903" lon="4.69977">
        <ele>328</ele>
        <time>2018-08-14T10:18:16Z</time>
      </trkpt>
      <trkpt lat="45.95906" lon="4.69983">
        <ele>328</ele>
        <time>2018-08-14T10:18:17Z</time>
      </trkpt>
      <trkpt lat="45.95909" lon="4.69991">
        <ele>328</ele>
        <time>2018-08-14T10:18:18Z</time>
      </trkpt>
      <trkpt lat="45.95912" lon="4.69998">
        <ele>328</ele>
        <time>2018-08-14T10:18:19Z</time>
      </trkpt>
      <trkpt lat="45.95914" lon="4.70005">
        <ele>328</ele>
        <time>2018-08-14T10:18:20Z</time>
      </trkpt>
      <trkpt lat="45.95917" lon="4.70012">
        <ele>328</ele>
        <time>2018-08-14T10:18:21Z</time>
      </trkpt>
      <trkpt lat="45.95921" lon="4.70019">
        <ele>328</ele>
        <time>2018-08-14T10:18:22Z</time>
      </trkpt>
      <trkpt lat="45.95924" lon="4.70027">
        <ele>328</ele>
        <time>2018-08-14T10:18:23Z</time>
      </trkpt>
      <trkpt lat="45.95926" lon="4.7003">
        <ele>328</ele>
        <time>2018-08-14T10:18:24Z</time>
      </trkpt>
      <trkpt lat="45.9593" lon="4.70036">
        <ele>328</ele>
        <time>2018-08-14T10:18:25Z</time>
      </trkpt>
      <trkpt lat="45.95935" lon="4.70042">
        <ele>328</ele>
        <time>2018-08-14T10:18:26Z</time>
      </trkpt>
      <trkpt lat="45.95938" lon="4.70047">
        <ele>328</ele>
        <time>2018-08-14T10:18:27Z</time>
      </trkpt>
      <trkpt lat="45.95943" lon="4.70054">
        <ele>328</ele>
        <time>2018-08-14T10:18:28Z</time>
      </trkpt>
      <trkpt lat="45.95946" lon="4.70059">
        <ele>328</ele>
        <time>2018-08-14T10:18:29Z</time>
      </trkpt>
      <trkpt lat="45.9595" lon="4.70064">
        <ele>328</ele>
        <time>2018-08-14T10:18:30Z</time>
      </trkpt>
      <trkpt lat="45.95955" lon="4.70068">
        <ele>328</ele>
        <time>2018-08-14T10:18:31Z</time>
      </trkpt>
      <trkpt lat="45.9596" lon="4.70073">
        <ele>327</ele>
        <time>2018-08-14T10:18:32Z</time>
      </trkpt>
      <trkpt lat="45.95967" lon="4.7008">
        <ele>327</ele>
        <time>2018-08-14T10:18:34Z</time>
      </trkpt>
      <trkpt lat="45.95971" lon="4.70085">
        <ele>328</ele>
        <time>2018-08-14T10:18:35Z</time>
      </trkpt>
      <trkpt lat="45.95977" lon="4.70092">
        <ele>328</ele>
        <time>2018-08-14T10:18:36Z</time>
      </trkpt>
      <trkpt lat="45.95981" lon="4.70097">
        <ele>328</ele>
        <time>2018-08-14T10:18:37Z</time>
      </trkpt>
      <trkpt lat="45.95985" lon="4.70101">
        <ele>328</ele>
        <time>2018-08-14T10:18:38Z</time>
      </trkpt>
      <trkpt lat="45.95988" lon="4.70106">
        <ele>328</ele>
        <time>2018-08-14T10:18:39Z</time>
      </trkpt>
      <trkpt lat="45.95992" lon="4.7011">
        <ele>328</ele>
        <time>2018-08-14T10:18:40Z</time>
      </trkpt>
      <trkpt lat="45.95997" lon="4.70114">
        <ele>328</ele>
        <time>2018-08-14T10:18:41Z</time>
      </trkpt>
      <trkpt lat="45.96001" lon="4.7012">
        <ele>328</ele>
        <time>2018-08-14T10:18:42Z</time>
      </trkpt>
      <trkpt lat="45.96006" lon="4.70124">
        <ele>328</ele>
        <time>2018-08-14T10:18:43Z</time>
      </trkpt>
      <trkpt lat="45.9601" lon="4.7013">
        <ele>328</ele>
        <time>2018-08-14T10:18:44Z</time>
      </trkpt>
      <trkpt lat="45.96014" lon="4.70134">
        <ele>328</ele>
        <time>2018-08-14T10:18:45Z</time>
      </trkpt>
      <trkpt lat="45.96018" lon="4.70138">
        <ele>328</ele>
        <time>2018-08-14T10:18:46Z</time>
      </trkpt>
      <trkpt lat="45.96024" lon="4.70144">
        <ele>329</ele>
        <time>2018-08-14T10:18:47Z</time>
      </trkpt>
      <trkpt lat="45.96028" lon="4.70148">
        <ele>329</ele>
        <time>2018-08-14T10:18:48Z</time>
      </trkpt>
      <trkpt lat="45.96033" lon="4.70154">
        <ele>329</ele>
        <time>2018-08-14T10:18:49Z</time>
      </trkpt>
      <trkpt lat="45.96038" lon="4.70157">
        <ele>329</ele>
        <time>2018-08-14T10:18:50Z</time>
      </trkpt>
      <trkpt lat="45.96041" lon="4.70161">
        <ele>329</ele>
        <time>2018-08-14T10:18:51Z</time>
      </trkpt>
      <trkpt lat="45.96046" lon="4.70166">
        <ele>328</ele>
        <time>2018-08-14T10:18:52Z</time>
      </trkpt>
      <trkpt lat="45.9605" lon="4.7017">
        <ele>327</ele>
        <time>2018-08-14T10:18:53Z</time>
      </trkpt>
      <trkpt lat="45.96055" lon="4.70176">
        <ele>327</ele>
        <time>2018-08-14T10:18:54Z</time>
      </trkpt>
      <trkpt lat="45.9606" lon="4.7018">
        <ele>327</ele>
        <time>2018-08-14T10:18:55Z</time>
      </trkpt>
      <trkpt lat="45.96066" lon="4.70183">
        <ele>327</ele>
        <time>2018-08-14T10:18:56Z</time>
      </trkpt>
      <trkpt lat="45.96071" lon="4.70187">
        <ele>327</ele>
        <time>2018-08-14T10:18:57Z</time>
      </trkpt>
      <trkpt lat="45.96077" lon="4.7019">
        <ele>327</ele>
        <time>2018-08-14T10:18:58Z</time>
      </trkpt>
      <trkpt lat="45.96082" lon="4.70194">
        <ele>327</ele>
        <time>2018-08-14T10:18:59Z</time>
      </trkpt>
      <trkpt lat="45.96087" lon="4.70197">
        <ele>327</ele>
        <time>2018-08-14T10:19:00Z</time>
      </trkpt>
      <trkpt lat="45.96094" lon="4.70201">
        <ele>327</ele>
        <time>2018-08-14T10:19:01Z</time>
      </trkpt>
      <trkpt lat="45.96099" lon="4.70205">
        <ele>327</ele>
        <time>2018-08-14T10:19:02Z</time>
      </trkpt>
      <trkpt lat="45.96103" lon="4.70208">
        <ele>327</ele>
        <time>2018-08-14T10:19:03Z</time>
      </trkpt>
      <trkpt lat="45.96108" lon="4.70213">
        <ele>327</ele>
        <time>2018-08-14T10:19:04Z</time>
      </trkpt>
      <trkpt lat="45.96113" lon="4.70217">
        <ele>327</ele>
        <time>2018-08-14T10:19:05Z</time>
      </trkpt>
      <trkpt lat="45.96117" lon="4.70222">
        <ele>327</ele>
        <time>2018-08-14T10:19:06Z</time>
      </trkpt>
      <trkpt lat="45.96123" lon="4.70225">
        <ele>327</ele>
        <time>2018-08-14T10:19:07Z</time>
      </trkpt>
      <trkpt lat="45.96128" lon="4.70229">
        <ele>327</ele>
        <time>2018-08-14T10:19:08Z</time>
      </trkpt>
      <trkpt lat="45.96133" lon="4.70234">
        <ele>327</ele>
        <time>2018-08-14T10:19:09Z</time>
      </trkpt>
      <trkpt lat="45.96138" lon="4.70237">
        <ele>327</ele>
        <time>2018-08-14T10:19:10Z</time>
      </trkpt>
      <trkpt lat="45.96143" lon="4.70244">
        <ele>327</ele>
        <time>2018-08-14T10:19:11Z</time>
      </trkpt>
      <trkpt lat="45.96148" lon="4.70249">
        <ele>327</ele>
        <time>2018-08-14T10:19:12Z</time>
      </trkpt>
      <trkpt lat="45.96154" lon="4.70255">
        <ele>325</ele>
        <time>2018-08-14T10:19:13Z</time>
      </trkpt>
      <trkpt lat="45.96159" lon="4.7026">
        <ele>325</ele>
        <time>2018-08-14T10:19:14Z</time>
      </trkpt>
      <trkpt lat="45.96163" lon="4.70266">
        <ele>325</ele>
        <time>2018-08-14T10:19:15Z</time>
      </trkpt>
      <trkpt lat="45.96167" lon="4.70271">
        <ele>327</ele>
        <time>2018-08-14T10:19:16Z</time>
      </trkpt>
      <trkpt lat="45.96171" lon="4.70276">
        <ele>327</ele>
        <time>2018-08-14T10:19:17Z</time>
      </trkpt>
      <trkpt lat="45.96175" lon="4.70281">
        <ele>327</ele>
        <time>2018-08-14T10:19:18Z</time>
      </trkpt>
      <trkpt lat="45.96179" lon="4.70285">
        <ele>327</ele>
        <time>2018-08-14T10:19:19Z</time>
      </trkpt>
      <trkpt lat="45.96184" lon="4.70291">
        <ele>326</ele>
        <time>2018-08-14T10:19:20Z</time>
      </trkpt>
      <trkpt lat="45.96187" lon="4.70299">
        <ele>326</ele>
        <time>2018-08-14T10:19:21Z</time>
      </trkpt>
      <trkpt lat="45.96192" lon="4.70306">
        <ele>326</ele>
        <time>2018-08-14T10:19:22Z</time>
      </trkpt>
      <trkpt lat="45.96197" lon="4.70314">
        <ele>326</ele>
        <time>2018-08-14T10:19:23Z</time>
      </trkpt>
      <trkpt lat="45.962" lon="4.7032">
        <ele>326</ele>
        <time>2018-08-14T10:19:24Z</time>
      </trkpt>
      <trkpt lat="45.96205" lon="4.70328">
        <ele>326</ele>
        <time>2018-08-14T10:19:25Z</time>
      </trkpt>
      <trkpt lat="45.96209" lon="4.70335">
        <ele>321</ele>
        <time>2018-08-14T10:19:26Z</time>
      </trkpt>
      <trkpt lat="45.96214" lon="4.70342">
        <ele>321</ele>
        <time>2018-08-14T10:19:27Z</time>
      </trkpt>
      <trkpt lat="45.96219" lon="4.7035">
        <ele>321</ele>
        <time>2018-08-14T10:19:28Z</time>
      </trkpt>
      <trkpt lat="45.96224" lon="4.70358">
        <ele>321</ele>
        <time>2018-08-14T10:19:29Z</time>
      </trkpt>
      <trkpt lat="45.96228" lon="4.70366">
        <ele>321</ele>
        <time>2018-08-14T10:19:30Z</time>
      </trkpt>
      <trkpt lat="45.96232" lon="4.70373">
        <ele>321</ele>
        <time>2018-08-14T10:19:31Z</time>
      </trkpt>
      <trkpt lat="45.96237" lon="4.70381">
        <ele>320</ele>
        <time>2018-08-14T10:19:32Z</time>
      </trkpt>
      <trkpt lat="45.96242" lon="4.70388">
        <ele>320</ele>
        <time>2018-08-14T10:19:33Z</time>
      </trkpt>
      <trkpt lat="45.96247" lon="4.70395">
        <ele>320</ele>
        <time>2018-08-14T10:19:34Z</time>
      </trkpt>
      <trkpt lat="45.96252" lon="4.70405">
        <ele>323</ele>
        <time>2018-08-14T10:19:35Z</time>
      </trkpt>
      <trkpt lat="45.96258" lon="4.70413">
        <ele>322</ele>
        <time>2018-08-14T10:19:36Z</time>
      </trkpt>
      <trkpt lat="45.96263" lon="4.7042">
        <ele>320</ele>
        <time>2018-08-14T10:19:37Z</time>
      </trkpt>
      <trkpt lat="45.96268" lon="4.70428">
        <ele>321</ele>
        <time>2018-08-14T10:19:38Z</time>
      </trkpt>
      <trkpt lat="45.96272" lon="4.70435">
        <ele>321</ele>
        <time>2018-08-14T10:19:39Z</time>
      </trkpt>
      <trkpt lat="45.96277" lon="4.70442">
        <ele>321</ele>
        <time>2018-08-14T10:19:40Z</time>
      </trkpt>
      <trkpt lat="45.96282" lon="4.70449">
        <ele>321</ele>
        <time>2018-08-14T10:19:41Z</time>
      </trkpt>
      <trkpt lat="45.96289" lon="4.70457">
        <ele>321</ele>
        <time>2018-08-14T10:19:42Z</time>
      </trkpt>
      <trkpt lat="45.96294" lon="4.70462">
        <ele>321</ele>
        <time>2018-08-14T10:19:43Z</time>
      </trkpt>
      <trkpt lat="45.96298" lon="4.70469">
        <ele>321</ele>
        <time>2018-08-14T10:19:44Z</time>
      </trkpt>
      <trkpt lat="45.96302" lon="4.70476">
        <ele>320</ele>
        <time>2018-08-14T10:19:45Z</time>
      </trkpt>
      <trkpt lat="45.96307" lon="4.70483">
        <ele>320</ele>
        <time>2018-08-14T10:19:46Z</time>
      </trkpt>
      <trkpt lat="45.96313" lon="4.7049">
        <ele>320</ele>
        <time>2018-08-14T10:19:47Z</time>
      </trkpt>
      <trkpt lat="45.9632" lon="4.70497">
        <ele>320</ele>
        <time>2018-08-14T10:19:48Z</time>
      </trkpt>
      <trkpt lat="45.96325" lon="4.70504">
        <ele>318</ele>
        <time>2018-08-14T10:19:49Z</time>
      </trkpt>
      <trkpt lat="45.9633" lon="4.70513">
        <ele>317</ele>
        <time>2018-08-14T10:19:50Z</time>
      </trkpt>
      <trkpt lat="45.96336" lon="4.7052">
        <ele>319</ele>
        <time>2018-08-14T10:19:51Z</time>
      </trkpt>
      <trkpt lat="45.96343" lon="4.70528">
        <ele>319</ele>
        <time>2018-08-14T10:19:52Z</time>
      </trkpt>
      <trkpt lat="45.96349" lon="4.70536">
        <ele>319</ele>
        <time>2018-08-14T10:19:53Z</time>
      </trkpt>
      <trkpt lat="45.96354" lon="4.70543">
        <ele>318</ele>
        <time>2018-08-14T10:19:54Z</time>
      </trkpt>
      <trkpt lat="45.9636" lon="4.7055">
        <ele>318</ele>
        <time>2018-08-14T10:19:55Z</time>
      </trkpt>
      <trkpt lat="45.96365" lon="4.70556">
        <ele>318</ele>
        <time>2018-08-14T10:19:56Z</time>
      </trkpt>
      <trkpt lat="45.96372" lon="4.70564">
        <ele>318</ele>
        <time>2018-08-14T10:19:57Z</time>
      </trkpt>
      <trkpt lat="45.96379" lon="4.70572">
        <ele>318</ele>
        <time>2018-08-14T10:19:58Z</time>
      </trkpt>
      <trkpt lat="45.96385" lon="4.7058">
        <ele>318</ele>
        <time>2018-08-14T10:19:59Z</time>
      </trkpt>
      <trkpt lat="45.96391" lon="4.70587">
        <ele>313</ele>
        <time>2018-08-14T10:20:00Z</time>
      </trkpt>
      <trkpt lat="45.96397" lon="4.70595">
        <ele>313</ele>
        <time>2018-08-14T10:20:01Z</time>
      </trkpt>
      <trkpt lat="45.96404" lon="4.706">
        <ele>313</ele>
        <time>2018-08-14T10:20:02Z</time>
      </trkpt>
      <trkpt lat="45.9641" lon="4.70609">
        <ele>312</ele>
        <time>2018-08-14T10:20:03Z</time>
      </trkpt>
      <trkpt lat="45.96417" lon="4.70616">
        <ele>315</ele>
        <time>2018-08-14T10:20:04Z</time>
      </trkpt>
      <trkpt lat="45.96424" lon="4.70624">
        <ele>314</ele>
        <time>2018-08-14T10:20:05Z</time>
      </trkpt>
      <trkpt lat="45.96429" lon="4.70631">
        <ele>313</ele>
        <time>2018-08-14T10:20:06Z</time>
      </trkpt>
      <trkpt lat="45.96436" lon="4.70638">
        <ele>313</ele>
        <time>2018-08-14T10:20:07Z</time>
      </trkpt>
      <trkpt lat="45.96443" lon="4.70647">
        <ele>313</ele>
        <time>2018-08-14T10:20:08Z</time>
      </trkpt>
      <trkpt lat="45.96452" lon="4.70655">
        <ele>312</ele>
        <time>2018-08-14T10:20:09Z</time>
      </trkpt>
      <trkpt lat="45.9646" lon="4.70663">
        <ele>312</ele>
        <time>2018-08-14T10:20:10Z</time>
      </trkpt>
      <trkpt lat="45.96467" lon="4.7067">
        <ele>306</ele>
        <time>2018-08-14T10:20:11Z</time>
      </trkpt>
      <trkpt lat="45.96474" lon="4.70677">
        <ele>306</ele>
        <time>2018-08-14T10:20:12Z</time>
      </trkpt>
      <trkpt lat="45.96482" lon="4.70684">
        <ele>306</ele>
        <time>2018-08-14T10:20:13Z</time>
      </trkpt>
      <trkpt lat="45.96491" lon="4.70692">
        <ele>305</ele>
        <time>2018-08-14T10:20:14Z</time>
      </trkpt>
      <trkpt lat="45.96499" lon="4.707">
        <ele>305</ele>
        <time>2018-08-14T10:20:15Z</time>
      </trkpt>
      <trkpt lat="45.96507" lon="4.70709">
        <ele>306</ele>
        <time>2018-08-14T10:20:16Z</time>
      </trkpt>
      <trkpt lat="45.96517" lon="4.70717">
        <ele>305</ele>
        <time>2018-08-14T10:20:17Z</time>
      </trkpt>
      <trkpt lat="45.96526" lon="4.70724">
        <ele>305</ele>
        <time>2018-08-14T10:20:18Z</time>
      </trkpt>
      <trkpt lat="45.96533" lon="4.70731">
        <ele>305</ele>
        <time>2018-08-14T10:20:19Z</time>
      </trkpt>
      <trkpt lat="45.96543" lon="4.70739">
        <ele>305</ele>
        <time>2018-08-14T10:20:20Z</time>
      </trkpt>
      <trkpt lat="45.96552" lon="4.70746">
        <ele>305</ele>
        <time>2018-08-14T10:20:21Z</time>
      </trkpt>
      <trkpt lat="45.9656" lon="4.70754">
        <ele>299</ele>
        <time>2018-08-14T10:20:22Z</time>
      </trkpt>
      <trkpt lat="45.96569" lon="4.7076">
        <ele>299</ele>
        <time>2018-08-14T10:20:23Z</time>
      </trkpt>
      <trkpt lat="45.96578" lon="4.70767">
        <ele>299</ele>
        <time>2018-08-14T10:20:24Z</time>
      </trkpt>
      <trkpt lat="45.96588" lon="4.70773">
        <ele>300</ele>
        <time>2018-08-14T10:20:25Z</time>
      </trkpt>
      <trkpt lat="45.96598" lon="4.70779">
        <ele>299</ele>
        <time>2018-08-14T10:20:26Z</time>
      </trkpt>
      <trkpt lat="45.96607" lon="4.70788">
        <ele>299</ele>
        <time>2018-08-14T10:20:27Z</time>
      </trkpt>
      <trkpt lat="45.96616" lon="4.70794">
        <ele>298</ele>
        <time>2018-08-14T10:20:28Z</time>
      </trkpt>
      <trkpt lat="45.96626" lon="4.70799">
        <ele>298</ele>
        <time>2018-08-14T10:20:29Z</time>
      </trkpt>
      <trkpt lat="45.96636" lon="4.70805">
        <ele>298</ele>
        <time>2018-08-14T10:20:30Z</time>
      </trkpt>
      <trkpt lat="45.96646" lon="4.70811">
        <ele>297</ele>
        <time>2018-08-14T10:20:31Z</time>
      </trkpt>
      <trkpt lat="45.96656" lon="4.70817">
        <ele>297</ele>
        <time>2018-08-14T10:20:32Z</time>
      </trkpt>
      <trkpt lat="45.96665" lon="4.70824">
        <ele>296</ele>
        <time>2018-08-14T10:20:33Z</time>
      </trkpt>
      <trkpt lat="45.96675" lon="4.70832">
        <ele>296</ele>
        <time>2018-08-14T10:20:34Z</time>
      </trkpt>
      <trkpt lat="45.96684" lon="4.70839">
        <ele>292</ele>
        <time>2018-08-14T10:20:35Z</time>
      </trkpt>
      <trkpt lat="45.96694" lon="4.70846">
        <ele>291</ele>
        <time>2018-08-14T10:20:36Z</time>
      </trkpt>
      <trkpt lat="45.96704" lon="4.70853">
        <ele>290</ele>
        <time>2018-08-14T10:20:37Z</time>
      </trkpt>
      <trkpt lat="45.96713" lon="4.7086">
        <ele>289</ele>
        <time>2018-08-14T10:20:38Z</time>
      </trkpt>
      <trkpt lat="45.96723" lon="4.70867">
        <ele>289</ele>
        <time>2018-08-14T10:20:39Z</time>
      </trkpt>
      <trkpt lat="45.96733" lon="4.70874">
        <ele>288</ele>
        <time>2018-08-14T10:20:40Z</time>
      </trkpt>
      <trkpt lat="45.96743" lon="4.7088">
        <ele>288</ele>
        <time>2018-08-14T10:20:41Z</time>
      </trkpt>
      <trkpt lat="45.96753" lon="4.70884">
        <ele>289</ele>
        <time>2018-08-14T10:20:42Z</time>
      </trkpt>
      <trkpt lat="45.96762" lon="4.70891">
        <ele>288</ele>
        <time>2018-08-14T10:20:43Z</time>
      </trkpt>
      <trkpt lat="45.96773" lon="4.70898">
        <ele>288</ele>
        <time>2018-08-14T10:20:44Z</time>
      </trkpt>
      <trkpt lat="45.96782" lon="4.70904">
        <ele>288</ele>
        <time>2018-08-14T10:20:45Z</time>
      </trkpt>
      <trkpt lat="45.96792" lon="4.70909">
        <ele>288</ele>
        <time>2018-08-14T10:20:46Z</time>
      </trkpt>
      <trkpt lat="45.96802" lon="4.70913">
        <ele>288</ele>
        <time>2018-08-14T10:20:47Z</time>
      </trkpt>
      <trkpt lat="45.96812" lon="4.70919">
        <ele>281</ele>
        <time>2018-08-14T10:20:48Z</time>
      </trkpt>
      <trkpt lat="45.96822" lon="4.70925">
        <ele>282</ele>
        <time>2018-08-14T10:20:49Z</time>
      </trkpt>
      <trkpt lat="45.96832" lon="4.70931">
        <ele>282</ele>
        <time>2018-08-14T10:20:50Z</time>
      </trkpt>
      <trkpt lat="45.96841" lon="4.70939">
        <ele>282</ele>
        <time>2018-08-14T10:20:51Z</time>
      </trkpt>
      <trkpt lat="45.96851" lon="4.70946">
        <ele>280</ele>
        <time>2018-08-14T10:20:52Z</time>
      </trkpt>
      <trkpt lat="45.96861" lon="4.70952">
        <ele>280</ele>
        <time>2018-08-14T10:20:53Z</time>
      </trkpt>
      <trkpt lat="45.96871" lon="4.70958">
        <ele>279</ele>
        <time>2018-08-14T10:20:54Z</time>
      </trkpt>
      <trkpt lat="45.96881" lon="4.70962">
        <ele>279</ele>
        <time>2018-08-14T10:20:55Z</time>
      </trkpt>
      <trkpt lat="45.96891" lon="4.70967">
        <ele>279</ele>
        <time>2018-08-14T10:20:56Z</time>
      </trkpt>
      <trkpt lat="45.96901" lon="4.70969">
        <ele>278</ele>
        <time>2018-08-14T10:20:57Z</time>
      </trkpt>
      <trkpt lat="45.96911" lon="4.70972">
        <ele>278</ele>
        <time>2018-08-14T10:20:58Z</time>
      </trkpt>
      <trkpt lat="45.96921" lon="4.70975">
        <ele>276</ele>
        <time>2018-08-14T10:20:59Z</time>
      </trkpt>
      <trkpt lat="45.96928" lon="4.7098">
        <ele>275</ele>
        <time>2018-08-14T10:21:00Z</time>
      </trkpt>
      <trkpt lat="45.96939" lon="4.70982">
        <ele>275</ele>
        <time>2018-08-14T10:21:01Z</time>
      </trkpt>
      <trkpt lat="45.96951" lon="4.70981">
        <ele>275</ele>
        <time>2018-08-14T10:21:02Z</time>
      </trkpt>
      <trkpt lat="45.9696" lon="4.70983">
        <ele>275</ele>
        <time>2018-08-14T10:21:03Z</time>
      </trkpt>
      <trkpt lat="45.9697" lon="4.70985">
        <ele>274</ele>
        <time>2018-08-14T10:21:04Z</time>
      </trkpt>
      <trkpt lat="45.9698" lon="4.70987">
        <ele>273</ele>
        <time>2018-08-14T10:21:05Z</time>
      </trkpt>
      <trkpt lat="45.96991" lon="4.70987">
        <ele>272</ele>
        <time>2018-08-14T10:21:06Z</time>
      </trkpt>
      <trkpt lat="45.97001" lon="4.70985">
        <ele>269</ele>
        <time>2018-08-14T10:21:07Z</time>
      </trkpt>
      <trkpt lat="45.9701" lon="4.70984">
        <ele>269</ele>
        <time>2018-08-14T10:21:08Z</time>
      </trkpt>
      <trkpt lat="45.97021" lon="4.70984">
        <ele>270</ele>
        <time>2018-08-14T10:21:09Z</time>
      </trkpt>
      <trkpt lat="45.97031" lon="4.70983">
        <ele>270</ele>
        <time>2018-08-14T10:21:10Z</time>
      </trkpt>
      <trkpt lat="45.97041" lon="4.70982">
        <ele>269</ele>
        <time>2018-08-14T10:21:11Z</time>
      </trkpt>
      <trkpt lat="45.9705" lon="4.70979">
        <ele>269</ele>
        <time>2018-08-14T10:21:12Z</time>
      </trkpt>
      <trkpt lat="45.9706" lon="4.70977">
        <ele>269</ele>
        <time>2018-08-14T10:21:13Z</time>
      </trkpt>
      <trkpt lat="45.9707" lon="4.70976">
        <ele>268</ele>
        <time>2018-08-14T10:21:14Z</time>
      </trkpt>
      <trkpt lat="45.97082" lon="4.70973">
        <ele>268</ele>
        <time>2018-08-14T10:21:15Z</time>
      </trkpt>
      <trkpt lat="45.97093" lon="4.70969">
        <ele>265</ele>
        <time>2018-08-14T10:21:16Z</time>
      </trkpt>
      <trkpt lat="45.97103" lon="4.70965">
        <ele>265</ele>
        <time>2018-08-14T10:21:17Z</time>
      </trkpt>
      <trkpt lat="45.97114" lon="4.7096">
        <ele>264</ele>
        <time>2018-08-14T10:21:18Z</time>
      </trkpt>
      <trkpt lat="45.97124" lon="4.70957">
        <ele>264</ele>
        <time>2018-08-14T10:21:19Z</time>
      </trkpt>
      <trkpt lat="45.97134" lon="4.70953">
        <ele>264</ele>
        <time>2018-08-14T10:21:20Z</time>
      </trkpt>
      <trkpt lat="45.97144" lon="4.7095">
        <ele>264</ele>
        <time>2018-08-14T10:21:21Z</time>
      </trkpt>
      <trkpt lat="45.97153" lon="4.70943">
        <ele>264</ele>
        <time>2018-08-14T10:21:22Z</time>
      </trkpt>
      <trkpt lat="45.97162" lon="4.70938">
        <ele>264</ele>
        <time>2018-08-14T10:21:23Z</time>
      </trkpt>
      <trkpt lat="45.97169" lon="4.70936">
        <ele>259</ele>
        <time>2018-08-14T10:21:24Z</time>
      </trkpt>
      <trkpt lat="45.97178" lon="4.70933">
        <ele>259</ele>
        <time>2018-08-14T10:21:25Z</time>
      </trkpt>
      <trkpt lat="45.97186" lon="4.70928">
        <ele>259</ele>
        <time>2018-08-14T10:21:26Z</time>
      </trkpt>
      <trkpt lat="45.97193" lon="4.70923">
        <ele>258</ele>
        <time>2018-08-14T10:21:27Z</time>
      </trkpt>
      <trkpt lat="45.97202" lon="4.70915">
        <ele>261</ele>
        <time>2018-08-14T10:21:28Z</time>
      </trkpt>
      <trkpt lat="45.97209" lon="4.70908">
        <ele>260</ele>
        <time>2018-08-14T10:21:29Z</time>
      </trkpt>
      <trkpt lat="45.97215" lon="4.709">
        <ele>260</ele>
        <time>2018-08-14T10:21:30Z</time>
      </trkpt>
      <trkpt lat="45.97222" lon="4.7089">
        <ele>259</ele>
        <time>2018-08-14T10:21:31Z</time>
      </trkpt>
      <trkpt lat="45.97229" lon="4.70883">
        <ele>259</ele>
        <time>2018-08-14T10:21:32Z</time>
      </trkpt>
      <trkpt lat="45.97236" lon="4.70874">
        <ele>259</ele>
        <time>2018-08-14T10:21:33Z</time>
      </trkpt>
      <trkpt lat="45.97243" lon="4.70865">
        <ele>259</ele>
        <time>2018-08-14T10:21:34Z</time>
      </trkpt>
      <trkpt lat="45.97249" lon="4.70856">
        <ele>259</ele>
        <time>2018-08-14T10:21:35Z</time>
      </trkpt>
      <trkpt lat="45.97256" lon="4.70845">
        <ele>255</ele>
        <time>2018-08-14T10:21:36Z</time>
      </trkpt>
      <trkpt lat="45.97263" lon="4.70834">
        <ele>255</ele>
        <time>2018-08-14T10:21:37Z</time>
      </trkpt>
      <trkpt lat="45.9727" lon="4.70824">
        <ele>255</ele>
        <time>2018-08-14T10:21:38Z</time>
      </trkpt>
      <trkpt lat="45.97276" lon="4.70816">
        <ele>255</ele>
        <time>2018-08-14T10:21:39Z</time>
      </trkpt>
      <trkpt lat="45.97283" lon="4.70806">
        <ele>254</ele>
        <time>2018-08-14T10:21:40Z</time>
      </trkpt>
      <trkpt lat="45.97289" lon="4.70799">
        <ele>254</ele>
        <time>2018-08-14T10:21:41Z</time>
      </trkpt>
      <trkpt lat="45.97295" lon="4.70792">
        <ele>254</ele>
        <time>2018-08-14T10:21:42Z</time>
      </trkpt>
      <trkpt lat="45.97301" lon="4.70787">
        <ele>253</ele>
        <time>2018-08-14T10:21:43Z</time>
      </trkpt>
      <trkpt lat="45.97307" lon="4.7078">
        <ele>253</ele>
        <time>2018-08-14T10:21:44Z</time>
      </trkpt>
      <trkpt lat="45.97313" lon="4.70774">
        <ele>252</ele>
        <time>2018-08-14T10:21:45Z</time>
      </trkpt>
      <trkpt lat="45.9732" lon="4.7077">
        <ele>252</ele>
        <time>2018-08-14T10:21:46Z</time>
      </trkpt>
      <trkpt lat="45.97327" lon="4.70765">
        <ele>251</ele>
        <time>2018-08-14T10:21:47Z</time>
      </trkpt>
      <trkpt lat="45.97336" lon="4.7076">
        <ele>247</ele>
        <time>2018-08-14T10:21:48Z</time>
      </trkpt>
      <trkpt lat="45.97344" lon="4.70756">
        <ele>247</ele>
        <time>2018-08-14T10:21:49Z</time>
      </trkpt>
      <trkpt lat="45.97352" lon="4.70749">
        <ele>246</ele>
        <time>2018-08-14T10:21:50Z</time>
      </trkpt>
      <trkpt lat="45.9736" lon="4.70746">
        <ele>245</ele>
        <time>2018-08-14T10:21:51Z</time>
      </trkpt>
      <trkpt lat="45.97368" lon="4.70742">
        <ele>245</ele>
        <time>2018-08-14T10:21:52Z</time>
      </trkpt>
      <trkpt lat="45.97377" lon="4.70741">
        <ele>244</ele>
        <time>2018-08-14T10:21:53Z</time>
      </trkpt>
      <trkpt lat="45.97387" lon="4.70736">
        <ele>243</ele>
        <time>2018-08-14T10:21:54Z</time>
      </trkpt>
      <trkpt lat="45.97396" lon="4.70737">
        <ele>243</ele>
        <time>2018-08-14T10:21:55Z</time>
      </trkpt>
      <trkpt lat="45.97405" lon="4.70738">
        <ele>242</ele>
        <time>2018-08-14T10:21:56Z</time>
      </trkpt>
      <trkpt lat="45.97414" lon="4.70739">
        <ele>241</ele>
        <time>2018-08-14T10:21:57Z</time>
      </trkpt>
      <trkpt lat="45.97422" lon="4.7074">
        <ele>239</ele>
        <time>2018-08-14T10:21:58Z</time>
      </trkpt>
      <trkpt lat="45.9743" lon="4.70742">
        <ele>239</ele>
        <time>2018-08-14T10:21:59Z</time>
      </trkpt>
      <trkpt lat="45.97439" lon="4.70743">
        <ele>239</ele>
        <time>2018-08-14T10:22:00Z</time>
      </trkpt>
      <trkpt lat="45.97447" lon="4.70744">
        <ele>238</ele>
        <time>2018-08-14T10:22:01Z</time>
      </trkpt>
      <trkpt lat="45.97455" lon="4.70742">
        <ele>238</ele>
        <time>2018-08-14T10:22:02Z</time>
      </trkpt>
      <trkpt lat="45.97462" lon="4.70741">
        <ele>238</ele>
        <time>2018-08-14T10:22:03Z</time>
      </trkpt>
      <trkpt lat="45.97468" lon="4.70741">
        <ele>238</ele>
        <time>2018-08-14T10:22:04Z</time>
      </trkpt>
      <trkpt lat="45.97472" lon="4.7074">
        <ele>238</ele>
        <time>2018-08-14T10:22:05Z</time>
      </trkpt>
      <trkpt lat="45.97477" lon="4.70739">
        <ele>237</ele>
        <time>2018-08-14T10:22:06Z</time>
      </trkpt>
      <trkpt lat="45.97483" lon="4.70737">
        <ele>237</ele>
        <time>2018-08-14T10:22:07Z</time>
      </trkpt>
      <trkpt lat="45.97488" lon="4.70737">
        <ele>237</ele>
        <time>2018-08-14T10:22:08Z</time>
      </trkpt>
      <trkpt lat="45.97494" lon="4.70738">
        <ele>237</ele>
        <time>2018-08-14T10:22:09Z</time>
      </trkpt>
      <trkpt lat="45.97503" lon="4.70738">
        <ele>235</ele>
        <time>2018-08-14T10:22:10Z</time>
      </trkpt>
      <trkpt lat="45.97508" lon="4.70736">
        <ele>235</ele>
        <time>2018-08-14T10:22:11Z</time>
      </trkpt>
      <trkpt lat="45.97514" lon="4.70735">
        <ele>235</ele>
        <time>2018-08-14T10:22:12Z</time>
      </trkpt>
      <trkpt lat="45.97518" lon="4.70737">
        <ele>234</ele>
        <time>2018-08-14T10:22:13Z</time>
      </trkpt>
      <trkpt lat="45.97524" lon="4.70742">
        <ele>234</ele>
        <time>2018-08-14T10:22:14Z</time>
      </trkpt>
      <trkpt lat="45.97533" lon="4.70735">
        <ele>234</ele>
        <time>2018-08-14T10:22:15Z</time>
      </trkpt>
      <trkpt lat="45.97541" lon="4.70732">
        <ele>234</ele>
        <time>2018-08-14T10:22:16Z</time>
      </trkpt>
      <trkpt lat="45.97547" lon="4.7073">
        <ele>233</ele>
        <time>2018-08-14T10:22:17Z</time>
      </trkpt>
      <trkpt lat="45.97555" lon="4.70726">
        <ele>233</ele>
        <time>2018-08-14T10:22:18Z</time>
      </trkpt>
      <trkpt lat="45.97562" lon="4.70724">
        <ele>233</ele>
        <time>2018-08-14T10:22:19Z</time>
      </trkpt>
      <trkpt lat="45.97568" lon="4.70723">
        <ele>233</ele>
        <time>2018-08-14T10:22:20Z</time>
      </trkpt>
      <trkpt lat="45.97574" lon="4.70721">
        <ele>233</ele>
        <time>2018-08-14T10:22:21Z</time>
      </trkpt>
      <trkpt lat="45.97581" lon="4.7072">
        <ele>232</ele>
        <time>2018-08-14T10:22:22Z</time>
      </trkpt>
      <trkpt lat="45.9759" lon="4.70723">
        <ele>229</ele>
        <time>2018-08-14T10:22:23Z</time>
      </trkpt>
      <trkpt lat="45.97597" lon="4.70723">
        <ele>229</ele>
        <time>2018-08-14T10:22:24Z</time>
      </trkpt>
      <trkpt lat="45.97604" lon="4.70724">
        <ele>229</ele>
        <time>2018-08-14T10:22:25Z</time>
      </trkpt>
      <trkpt lat="45.97612" lon="4.70725">
        <ele>228</ele>
        <time>2018-08-14T10:22:26Z</time>
      </trkpt>
      <trkpt lat="45.97619" lon="4.70728">
        <ele>228</ele>
        <time>2018-08-14T10:22:27Z</time>
      </trkpt>
      <trkpt lat="45.97628" lon="4.70728">
        <ele>228</ele>
        <time>2018-08-14T10:22:28Z</time>
      </trkpt>
      <trkpt lat="45.97636" lon="4.70732">
        <ele>227</ele>
        <time>2018-08-14T10:22:29Z</time>
      </trkpt>
      <trkpt lat="45.97644" lon="4.70735">
        <ele>227</ele>
        <time>2018-08-14T10:22:30Z</time>
      </trkpt>
      <trkpt lat="45.97653" lon="4.70739">
        <ele>226</ele>
        <time>2018-08-14T10:22:31Z</time>
      </trkpt>
      <trkpt lat="45.97662" lon="4.7074">
        <ele>225</ele>
        <time>2018-08-14T10:22:32Z</time>
      </trkpt>
      <trkpt lat="45.9767" lon="4.70744">
        <ele>224</ele>
        <time>2018-08-14T10:22:33Z</time>
      </trkpt>
      <trkpt lat="45.97678" lon="4.70747">
        <ele>224</ele>
        <time>2018-08-14T10:22:34Z</time>
      </trkpt>
      <trkpt lat="45.97687" lon="4.7075">
        <ele>224</ele>
        <time>2018-08-14T10:22:35Z</time>
      </trkpt>
      <trkpt lat="45.97695" lon="4.70752">
        <ele>223</ele>
        <time>2018-08-14T10:22:36Z</time>
      </trkpt>
      <trkpt lat="45.97703" lon="4.70754">
        <ele>223</ele>
        <time>2018-08-14T10:22:37Z</time>
      </trkpt>
      <trkpt lat="45.97711" lon="4.70759">
        <ele>223</ele>
        <time>2018-08-14T10:22:38Z</time>
      </trkpt>
      <trkpt lat="45.97719" lon="4.70762">
        <ele>222</ele>
        <time>2018-08-14T10:22:39Z</time>
      </trkpt>
      <trkpt lat="45.97727" lon="4.70762">
        <ele>222</ele>
        <time>2018-08-14T10:22:40Z</time>
      </trkpt>
      <trkpt lat="45.97734" lon="4.70765">
        <ele>222</ele>
        <time>2018-08-14T10:22:41Z</time>
      </trkpt>
      <trkpt lat="45.97742" lon="4.70769">
        <ele>222</ele>
        <time>2018-08-14T10:22:42Z</time>
      </trkpt>
      <trkpt lat="45.97748" lon="4.7077">
        <ele>222</ele>
        <time>2018-08-14T10:22:43Z</time>
      </trkpt>
      <trkpt lat="45.97754" lon="4.70772">
        <ele>222</ele>
        <time>2018-08-14T10:22:44Z</time>
      </trkpt>
      <trkpt lat="45.9776" lon="4.70773">
        <ele>221</ele>
        <time>2018-08-14T10:22:45Z</time>
      </trkpt>
      <trkpt lat="45.97766" lon="4.70774">
        <ele>221</ele>
        <time>2018-08-14T10:22:46Z</time>
      </trkpt>
      <trkpt lat="45.97772" lon="4.70779">
        <ele>221</ele>
        <time>2018-08-14T10:22:47Z</time>
      </trkpt>
      <trkpt lat="45.97777" lon="4.70784">
        <ele>221</ele>
        <time>2018-08-14T10:22:48Z</time>
      </trkpt>
      <trkpt lat="45.97781" lon="4.70789">
        <ele>221</ele>
        <time>2018-08-14T10:22:49Z</time>
      </trkpt>
      <trkpt lat="45.97787" lon="4.70793">
        <ele>221</ele>
        <time>2018-08-14T10:22:50Z</time>
      </trkpt>
      <trkpt lat="45.97792" lon="4.70797">
        <ele>221</ele>
        <time>2018-08-14T10:22:51Z</time>
      </trkpt>
      <trkpt lat="45.97798" lon="4.70803">
        <ele>221</ele>
        <time>2018-08-14T10:22:52Z</time>
      </trkpt>
      <trkpt lat="45.97802" lon="4.7081">
        <ele>221</ele>
        <time>2018-08-14T10:22:53Z</time>
      </trkpt>
      <trkpt lat="45.97806" lon="4.70817">
        <ele>221</ele>
        <time>2018-08-14T10:22:54Z</time>
      </trkpt>
      <trkpt lat="45.97808" lon="4.70824">
        <ele>221</ele>
        <time>2018-08-14T10:22:55Z</time>
      </trkpt>
      <trkpt lat="45.9781" lon="4.70832">
        <ele>221</ele>
        <time>2018-08-14T10:22:56Z</time>
      </trkpt>
      <trkpt lat="45.97813" lon="4.70841">
        <ele>220</ele>
        <time>2018-08-14T10:22:57Z</time>
      </trkpt>
      <trkpt lat="45.97814" lon="4.7085">
        <ele>220</ele>
        <time>2018-08-14T10:22:58Z</time>
      </trkpt>
      <trkpt lat="45.97814" lon="4.70859">
        <ele>220</ele>
        <time>2018-08-14T10:22:59Z</time>
      </trkpt>
      <trkpt lat="45.97815" lon="4.70869">
        <ele>220</ele>
        <time>2018-08-14T10:23:00Z</time>
      </trkpt>
      <trkpt lat="45.97817" lon="4.7088">
        <ele>220</ele>
        <time>2018-08-14T10:23:01Z</time>
      </trkpt>
      <trkpt lat="45.97817" lon="4.70889">
        <ele>220</ele>
        <time>2018-08-14T10:23:02Z</time>
      </trkpt>
      <trkpt lat="45.97818" lon="4.70897">
        <ele>220</ele>
        <time>2018-08-14T10:23:03Z</time>
      </trkpt>
      <trkpt lat="45.97818" lon="4.70906">
        <ele>220</ele>
        <time>2018-08-14T10:23:04Z</time>
      </trkpt>
      <trkpt lat="45.97817" lon="4.70915">
        <ele>219</ele>
        <time>2018-08-14T10:23:05Z</time>
      </trkpt>
      <trkpt lat="45.97817" lon="4.70925">
        <ele>219</ele>
        <time>2018-08-14T10:23:06Z</time>
      </trkpt>
      <trkpt lat="45.97824" lon="4.70935">
        <ele>218</ele>
        <time>2018-08-14T10:23:07Z</time>
      </trkpt>
      <trkpt lat="45.97827" lon="4.70946">
        <ele>218</ele>
        <time>2018-08-14T10:23:08Z</time>
      </trkpt>
      <trkpt lat="45.97831" lon="4.70955">
        <ele>218</ele>
        <time>2018-08-14T10:23:09Z</time>
      </trkpt>
      <trkpt lat="45.97832" lon="4.70966">
        <ele>218</ele>
        <time>2018-08-14T10:23:10Z</time>
      </trkpt>
      <trkpt lat="45.97833" lon="4.70978">
        <ele>217</ele>
        <time>2018-08-14T10:23:11Z</time>
      </trkpt>
      <trkpt lat="45.97835" lon="4.70991">
        <ele>217</ele>
        <time>2018-08-14T10:23:12Z</time>
      </trkpt>
      <trkpt lat="45.97836" lon="4.71004">
        <ele>216</ele>
        <time>2018-08-14T10:23:13Z</time>
      </trkpt>
      <trkpt lat="45.97837" lon="4.71015">
        <ele>216</ele>
        <time>2018-08-14T10:23:14Z</time>
      </trkpt>
      <trkpt lat="45.97839" lon="4.71028">
        <ele>216</ele>
        <time>2018-08-14T10:23:15Z</time>
      </trkpt>
      <trkpt lat="45.97841" lon="4.71041">
        <ele>216</ele>
        <time>2018-08-14T10:23:16Z</time>
      </trkpt>
      <trkpt lat="45.97843" lon="4.71055">
        <ele>215</ele>
        <time>2018-08-14T10:23:17Z</time>
      </trkpt>
      <trkpt lat="45.97845" lon="4.71069">
        <ele>215</ele>
        <time>2018-08-14T10:23:18Z</time>
      </trkpt>
      <trkpt lat="45.97847" lon="4.71081">
        <ele>215</ele>
        <time>2018-08-14T10:23:19Z</time>
      </trkpt>
      <trkpt lat="45.97847" lon="4.71092">
        <ele>213</ele>
        <time>2018-08-14T10:23:20Z</time>
      </trkpt>
      <trkpt lat="45.97849" lon="4.71103">
        <ele>213</ele>
        <time>2018-08-14T10:23:21Z</time>
      </trkpt>
      <trkpt lat="45.9785" lon="4.71114">
        <ele>213</ele>
        <time>2018-08-14T10:23:22Z</time>
      </trkpt>
      <trkpt lat="45.97846" lon="4.71122">
        <ele>213</ele>
        <time>2018-08-14T10:23:23Z</time>
      </trkpt>
      <trkpt lat="45.97846" lon="4.71132">
        <ele>212</ele>
        <time>2018-08-14T10:23:24Z</time>
      </trkpt>
      <trkpt lat="45.97848" lon="4.71142">
        <ele>212</ele>
        <time>2018-08-14T10:23:25Z</time>
      </trkpt>
      <trkpt lat="45.97849" lon="4.71152">
        <ele>212</ele>
        <time>2018-08-14T10:23:26Z</time>
      </trkpt>
      <trkpt lat="45.97849" lon="4.71161">
        <ele>212</ele>
        <time>2018-08-14T10:23:27Z</time>
      </trkpt>
      <trkpt lat="45.9785" lon="4.7117">
        <ele>210</ele>
        <time>2018-08-14T10:23:28Z</time>
      </trkpt>
      <trkpt lat="45.9785" lon="4.71179">
        <ele>209</ele>
        <time>2018-08-14T10:23:29Z</time>
      </trkpt>
      <trkpt lat="45.97852" lon="4.71189">
        <ele>209</ele>
        <time>2018-08-14T10:23:30Z</time>
      </trkpt>
      <trkpt lat="45.97852" lon="4.71199">
        <ele>209</ele>
        <time>2018-08-14T10:23:31Z</time>
      </trkpt>
      <trkpt lat="45.97853" lon="4.71209">
        <ele>209</ele>
        <time>2018-08-14T10:23:32Z</time>
      </trkpt>
      <trkpt lat="45.97852" lon="4.71218">
        <ele>208</ele>
        <time>2018-08-14T10:23:33Z</time>
      </trkpt>
      <trkpt lat="45.97853" lon="4.71229">
        <ele>208</ele>
        <time>2018-08-14T10:23:34Z</time>
      </trkpt>
      <trkpt lat="45.97853" lon="4.7124">
        <ele>208</ele>
        <time>2018-08-14T10:23:35Z</time>
      </trkpt>
      <trkpt lat="45.97851" lon="4.71249">
        <ele>208</ele>
        <time>2018-08-14T10:23:36Z</time>
      </trkpt>
      <trkpt lat="45.97851" lon="4.71261">
        <ele>207</ele>
        <time>2018-08-14T10:23:37Z</time>
      </trkpt>
      <trkpt lat="45.97851" lon="4.71272">
        <ele>206</ele>
        <time>2018-08-14T10:23:38Z</time>
      </trkpt>
      <trkpt lat="45.97851" lon="4.71283">
        <ele>206</ele>
        <time>2018-08-14T10:23:39Z</time>
      </trkpt>
      <trkpt lat="45.97852" lon="4.71294">
        <ele>206</ele>
        <time>2018-08-14T10:23:40Z</time>
      </trkpt>
      <trkpt lat="45.97852" lon="4.71306">
        <ele>206</ele>
        <time>2018-08-14T10:23:41Z</time>
      </trkpt>
      <trkpt lat="45.97851" lon="4.71316">
        <ele>205</ele>
        <time>2018-08-14T10:23:42Z</time>
      </trkpt>
      <trkpt lat="45.9785" lon="4.71327">
        <ele>205</ele>
        <time>2018-08-14T10:23:43Z</time>
      </trkpt>
      <trkpt lat="45.97851" lon="4.71337">
        <ele>204</ele>
        <time>2018-08-14T10:23:44Z</time>
      </trkpt>
      <trkpt lat="45.9785" lon="4.71348">
        <ele>204</ele>
        <time>2018-08-14T10:23:45Z</time>
      </trkpt>
      <trkpt lat="45.97849" lon="4.71359">
        <ele>204</ele>
        <time>2018-08-14T10:23:46Z</time>
      </trkpt>
      <trkpt lat="45.97849" lon="4.71369">
        <ele>203</ele>
        <time>2018-08-14T10:23:47Z</time>
      </trkpt>
      <trkpt lat="45.97851" lon="4.71378">
        <ele>203</ele>
        <time>2018-08-14T10:23:48Z</time>
      </trkpt>
      <trkpt lat="45.97851" lon="4.71389">
        <ele>203</ele>
        <time>2018-08-14T10:23:49Z</time>
      </trkpt>
      <trkpt lat="45.97853" lon="4.71401">
        <ele>203</ele>
        <time>2018-08-14T10:23:50Z</time>
      </trkpt>
      <trkpt lat="45.97854" lon="4.71412">
        <ele>203</ele>
        <time>2018-08-14T10:23:51Z</time>
      </trkpt>
      <trkpt lat="45.97856" lon="4.71423">
        <ele>202</ele>
        <time>2018-08-14T10:23:52Z</time>
      </trkpt>
      <trkpt lat="45.97858" lon="4.71436">
        <ele>201</ele>
        <time>2018-08-14T10:23:53Z</time>
      </trkpt>
      <trkpt lat="45.9786" lon="4.71446">
        <ele>201</ele>
        <time>2018-08-14T10:23:54Z</time>
      </trkpt>
      <trkpt lat="45.97862" lon="4.71457">
        <ele>201</ele>
        <time>2018-08-14T10:23:55Z</time>
      </trkpt>
      <trkpt lat="45.97865" lon="4.7147">
        <ele>201</ele>
        <time>2018-08-14T10:23:56Z</time>
      </trkpt>
      <trkpt lat="45.97866" lon="4.71481">
        <ele>201</ele>
        <time>2018-08-14T10:23:57Z</time>
      </trkpt>
      <trkpt lat="45.97868" lon="4.71492">
        <ele>201</ele>
        <time>2018-08-14T10:23:58Z</time>
      </trkpt>
      <trkpt lat="45.9787" lon="4.71503">
        <ele>199</ele>
        <time>2018-08-14T10:23:59Z</time>
      </trkpt>
      <trkpt lat="45.97871" lon="4.71514">
        <ele>199</ele>
        <time>2018-08-14T10:24:00Z</time>
      </trkpt>
      <trkpt lat="45.97876" lon="4.71527">
        <ele>199</ele>
        <time>2018-08-14T10:24:01Z</time>
      </trkpt>
      <trkpt lat="45.97879" lon="4.71536">
        <ele>199</ele>
        <time>2018-08-14T10:24:02Z</time>
      </trkpt>
      <trkpt lat="45.9788" lon="4.71547">
        <ele>199</ele>
        <time>2018-08-14T10:24:03Z</time>
      </trkpt>
      <trkpt lat="45.97881" lon="4.71558">
        <ele>198</ele>
        <time>2018-08-14T10:24:04Z</time>
      </trkpt>
      <trkpt lat="45.97882" lon="4.71569">
        <ele>198</ele>
        <time>2018-08-14T10:24:05Z</time>
      </trkpt>
      <trkpt lat="45.97883" lon="4.71579">
        <ele>198</ele>
        <time>2018-08-14T10:24:06Z</time>
      </trkpt>
      <trkpt lat="45.97882" lon="4.7159">
        <ele>197</ele>
        <time>2018-08-14T10:24:07Z</time>
      </trkpt>
      <trkpt lat="45.97879" lon="4.71598">
        <ele>197</ele>
        <time>2018-08-14T10:24:08Z</time>
      </trkpt>
      <trkpt lat="45.9788" lon="4.71608">
        <ele>197</ele>
        <time>2018-08-14T10:24:09Z</time>
      </trkpt>
      <trkpt lat="45.97877" lon="4.71618">
        <ele>197</ele>
        <time>2018-08-14T10:24:10Z</time>
      </trkpt>
      <trkpt lat="45.97875" lon="4.71627">
        <ele>197</ele>
        <time>2018-08-14T10:24:11Z</time>
      </trkpt>
      <trkpt lat="45.97873" lon="4.71638">
        <ele>197</ele>
        <time>2018-08-14T10:24:12Z</time>
      </trkpt>
      <trkpt lat="45.9787" lon="4.71647">
        <ele>197</ele>
        <time>2018-08-14T10:24:13Z</time>
      </trkpt>
      <trkpt lat="45.97869" lon="4.71656">
        <ele>197</ele>
        <time>2018-08-14T10:24:14Z</time>
      </trkpt>
      <trkpt lat="45.97866" lon="4.71666">
        <ele>197</ele>
        <time>2018-08-14T10:24:15Z</time>
      </trkpt>
      <trkpt lat="45.97864" lon="4.71676">
        <ele>196</ele>
        <time>2018-08-14T10:24:16Z</time>
      </trkpt>
      <trkpt lat="45.97861" lon="4.71685">
        <ele>196</ele>
        <time>2018-08-14T10:24:17Z</time>
      </trkpt>
      <trkpt lat="45.97859" lon="4.71696">
        <ele>196</ele>
        <time>2018-08-14T10:24:18Z</time>
      </trkpt>
      <trkpt lat="45.97856" lon="4.71705">
        <ele>196</ele>
        <time>2018-08-14T10:24:19Z</time>
      </trkpt>
      <trkpt lat="45.97856" lon="4.71718">
        <ele>196</ele>
        <time>2018-08-14T10:24:20Z</time>
      </trkpt>
      <trkpt lat="45.97851" lon="4.71726">
        <ele>196</ele>
        <time>2018-08-14T10:24:21Z</time>
      </trkpt>
      <trkpt lat="45.97847" lon="4.71734">
        <ele>196</ele>
        <time>2018-08-14T10:24:22Z</time>
      </trkpt>
      <trkpt lat="45.97843" lon="4.71741">
        <ele>195</ele>
        <time>2018-08-14T10:24:23Z</time>
      </trkpt>
      <trkpt lat="45.97836" lon="4.71743">
        <ele>195</ele>
        <time>2018-08-14T10:24:24Z</time>
      </trkpt>
      <trkpt lat="45.97829" lon="4.71744">
        <ele>195</ele>
        <time>2018-08-14T10:24:25Z</time>
      </trkpt>
      <trkpt lat="45.97822" lon="4.71742">
        <ele>196</ele>
        <time>2018-08-14T10:24:26Z</time>
      </trkpt>
      <trkpt lat="45.97816" lon="4.71741">
        <ele>196</ele>
        <time>2018-08-14T10:24:27Z</time>
      </trkpt>
      <trkpt lat="45.97809" lon="4.71741">
        <ele>196</ele>
        <time>2018-08-14T10:24:28Z</time>
      </trkpt>
      <trkpt lat="45.97803" lon="4.7174">
        <ele>196</ele>
        <time>2018-08-14T10:24:29Z</time>
      </trkpt>
      <trkpt lat="45.97795" lon="4.71737">
        <ele>196</ele>
        <time>2018-08-14T10:24:30Z</time>
      </trkpt>
      <trkpt lat="45.97788" lon="4.71736">
        <ele>196</ele>
        <time>2018-08-14T10:24:31Z</time>
      </trkpt>
      <trkpt lat="45.97782" lon="4.71736">
        <ele>196</ele>
        <time>2018-08-14T10:24:32Z</time>
      </trkpt>
      <trkpt lat="45.97778" lon="4.71736">
        <ele>196</ele>
        <time>2018-08-14T10:24:33Z</time>
      </trkpt>
      <trkpt lat="45.97771" lon="4.71733">
        <ele>196</ele>
        <time>2018-08-14T10:24:34Z</time>
      </trkpt>
      <trkpt lat="45.97764" lon="4.71732">
        <ele>196</ele>
        <time>2018-08-14T10:24:35Z</time>
      </trkpt>
      <trkpt lat="45.97759" lon="4.71733">
        <ele>196</ele>
        <time>2018-08-14T10:24:36Z</time>
      </trkpt>
      <trkpt lat="45.97753" lon="4.71732">
        <ele>196</ele>
        <time>2018-08-14T10:24:37Z</time>
      </trkpt>
      <trkpt lat="45.97748" lon="4.71734">
        <ele>196</ele>
        <time>2018-08-14T10:24:38Z</time>
      </trkpt>
      <trkpt lat="45.97743" lon="4.71734">
        <ele>196</ele>
        <time>2018-08-14T10:24:39Z</time>
      </trkpt>
      <trkpt lat="45.97734" lon="4.71734">
        <ele>196</ele>
        <time>2018-08-14T10:24:40Z</time>
      </trkpt>
      <trkpt lat="45.97726" lon="4.71734">
        <ele>196</ele>
        <time>2018-08-14T10:24:41Z</time>
      </trkpt>
      <trkpt lat="45.9772" lon="4.71732">
        <ele>196</ele>
        <time>2018-08-14T10:24:42Z</time>
      </trkpt>
      <trkpt lat="45.97713" lon="4.71731">
        <ele>196</ele>
        <time>2018-08-14T10:24:43Z</time>
      </trkpt>
      <trkpt lat="45.97708" lon="4.71732">
        <ele>196</ele>
        <time>2018-08-14T10:24:44Z</time>
      </trkpt>
      <trkpt lat="45.97701" lon="4.71731">
        <ele>196</ele>
        <time>2018-08-14T10:24:45Z</time>
      </trkpt>
      <trkpt lat="45.97694" lon="4.7173">
        <ele>196</ele>
        <time>2018-08-14T10:24:46Z</time>
      </trkpt>
      <trkpt lat="45.9769" lon="4.7173">
        <ele>196</ele>
        <time>2018-08-14T10:24:47Z</time>
      </trkpt>
      <trkpt lat="45.97684" lon="4.71733">
        <ele>196</ele>
        <time>2018-08-14T10:24:48Z</time>
      </trkpt>
      <trkpt lat="45.97677" lon="4.71733">
        <ele>196</ele>
        <time>2018-08-14T10:24:49Z</time>
      </trkpt>
      <trkpt lat="45.97671" lon="4.71731">
        <ele>196</ele>
        <time>2018-08-14T10:24:50Z</time>
      </trkpt>
      <trkpt lat="45.97665" lon="4.71729">
        <ele>196</ele>
        <time>2018-08-14T10:24:51Z</time>
      </trkpt>
      <trkpt lat="45.97659" lon="4.71728">
        <ele>196</ele>
        <time>2018-08-14T10:24:52Z</time>
      </trkpt>
      <trkpt lat="45.97654" lon="4.71728">
        <ele>196</ele>
        <time>2018-08-14T10:24:53Z</time>
      </trkpt>
      <trkpt lat="45.97648" lon="4.71727">
        <ele>196</ele>
        <time>2018-08-14T10:24:54Z</time>
      </trkpt>
      <trkpt lat="45.97644" lon="4.71725">
        <ele>196</ele>
        <time>2018-08-14T10:24:55Z</time>
      </trkpt>
      <trkpt lat="45.97639" lon="4.71723">
        <ele>196</ele>
        <time>2018-08-14T10:24:56Z</time>
      </trkpt>
      <trkpt lat="45.97633" lon="4.71719">
        <ele>197</ele>
        <time>2018-08-14T10:24:57Z</time>
      </trkpt>
      <trkpt lat="45.97629" lon="4.71715">
        <ele>197</ele>
        <time>2018-08-14T10:24:58Z</time>
      </trkpt>
      <trkpt lat="45.9762" lon="4.71712">
        <ele>197</ele>
        <time>2018-08-14T10:25:00Z</time>
      </trkpt>
      <trkpt lat="45.97613" lon="4.71713">
        <ele>197</ele>
        <time>2018-08-14T10:25:01Z</time>
      </trkpt>
      <trkpt lat="45.97605" lon="4.71714">
        <ele>197</ele>
        <time>2018-08-14T10:25:03Z</time>
      </trkpt>
      <trkpt lat="45.97599" lon="4.71716">
        <ele>197</ele>
        <time>2018-08-14T10:25:04Z</time>
      </trkpt>
      <trkpt lat="45.97594" lon="4.71718">
        <ele>197</ele>
        <time>2018-08-14T10:25:05Z</time>
      </trkpt>
      <trkpt lat="45.97588" lon="4.71721">
        <ele>197</ele>
        <time>2018-08-14T10:25:06Z</time>
      </trkpt>
      <trkpt lat="45.97583" lon="4.71719">
        <ele>198</ele>
        <time>2018-08-14T10:25:07Z</time>
      </trkpt>
      <trkpt lat="45.97576" lon="4.71719">
        <ele>198</ele>
        <time>2018-08-14T10:25:08Z</time>
      </trkpt>
      <trkpt lat="45.9757" lon="4.7172">
        <ele>198</ele>
        <time>2018-08-14T10:25:09Z</time>
      </trkpt>
      <trkpt lat="45.97564" lon="4.7172">
        <ele>198</ele>
        <time>2018-08-14T10:25:10Z</time>
      </trkpt>
      <trkpt lat="45.97559" lon="4.71718">
        <ele>198</ele>
        <time>2018-08-14T10:25:11Z</time>
      </trkpt>
      <trkpt lat="45.97552" lon="4.71718">
        <ele>198</ele>
        <time>2018-08-14T10:25:12Z</time>
      </trkpt>
      <trkpt lat="45.97545" lon="4.71717">
        <ele>198</ele>
        <time>2018-08-14T10:25:13Z</time>
      </trkpt>
      <trkpt lat="45.97539" lon="4.71716">
        <ele>198</ele>
        <time>2018-08-14T10:25:14Z</time>
      </trkpt>
      <trkpt lat="45.97533" lon="4.71718">
        <ele>198</ele>
        <time>2018-08-14T10:25:15Z</time>
      </trkpt>
      <trkpt lat="45.97527" lon="4.71716">
        <ele>198</ele>
        <time>2018-08-14T10:25:16Z</time>
      </trkpt>
      <trkpt lat="45.97522" lon="4.71717">
        <ele>198</ele>
        <time>2018-08-14T10:25:17Z</time>
      </trkpt>
      <trkpt lat="45.97515" lon="4.71716">
        <ele>198</ele>
        <time>2018-08-14T10:25:18Z</time>
      </trkpt>
      <trkpt lat="45.97509" lon="4.71714">
        <ele>199</ele>
        <time>2018-08-14T10:25:19Z</time>
      </trkpt>
      <trkpt lat="45.97503" lon="4.71712">
        <ele>199</ele>
        <time>2018-08-14T10:25:20Z</time>
      </trkpt>
      <trkpt lat="45.97496" lon="4.71712">
        <ele>198</ele>
        <time>2018-08-14T10:25:21Z</time>
      </trkpt>
      <trkpt lat="45.9749" lon="4.71712">
        <ele>198</ele>
        <time>2018-08-14T10:25:22Z</time>
      </trkpt>
      <trkpt lat="45.97481" lon="4.71709">
        <ele>198</ele>
        <time>2018-08-14T10:25:23Z</time>
      </trkpt>
      <trkpt lat="45.97474" lon="4.71706">
        <ele>198</ele>
        <time>2018-08-14T10:25:24Z</time>
      </trkpt>
      <trkpt lat="45.97467" lon="4.71706">
        <ele>198</ele>
        <time>2018-08-14T10:25:25Z</time>
      </trkpt>
      <trkpt lat="45.9746" lon="4.71705">
        <ele>197</ele>
        <time>2018-08-14T10:25:26Z</time>
      </trkpt>
      <trkpt lat="45.97454" lon="4.71705">
        <ele>197</ele>
        <time>2018-08-14T10:25:27Z</time>
      </trkpt>
      <trkpt lat="45.97448" lon="4.71704">
        <ele>197</ele>
        <time>2018-08-14T10:25:28Z</time>
      </trkpt>
      <trkpt lat="45.97442" lon="4.71705">
        <ele>197</ele>
        <time>2018-08-14T10:25:29Z</time>
      </trkpt>
      <trkpt lat="45.97437" lon="4.71704">
        <ele>197</ele>
        <time>2018-08-14T10:25:30Z</time>
      </trkpt>
      <trkpt lat="45.97431" lon="4.71704">
        <ele>197</ele>
        <time>2018-08-14T10:25:31Z</time>
      </trkpt>
      <trkpt lat="45.97425" lon="4.71703">
        <ele>197</ele>
        <time>2018-08-14T10:25:32Z</time>
      </trkpt>
      <trkpt lat="45.97418" lon="4.71702">
        <ele>197</ele>
        <time>2018-08-14T10:25:33Z</time>
      </trkpt>
      <trkpt lat="45.97411" lon="4.71702">
        <ele>195</ele>
        <time>2018-08-14T10:25:34Z</time>
      </trkpt>
      <trkpt lat="45.97404" lon="4.71703">
        <ele>195</ele>
        <time>2018-08-14T10:25:35Z</time>
      </trkpt>
      <trkpt lat="45.97397" lon="4.71703">
        <ele>195</ele>
        <time>2018-08-14T10:25:36Z</time>
      </trkpt>
      <trkpt lat="45.97391" lon="4.71702">
        <ele>195</ele>
        <time>2018-08-14T10:25:37Z</time>
      </trkpt>
      <trkpt lat="45.97384" lon="4.71702">
        <ele>195</ele>
        <time>2018-08-14T10:25:38Z</time>
      </trkpt>
      <trkpt lat="45.97378" lon="4.71701">
        <ele>195</ele>
        <time>2018-08-14T10:25:39Z</time>
      </trkpt>
      <trkpt lat="45.97371" lon="4.717">
        <ele>195</ele>
        <time>2018-08-14T10:25:40Z</time>
      </trkpt>
      <trkpt lat="45.97365" lon="4.71698">
        <ele>195</ele>
        <time>2018-08-14T10:25:41Z</time>
      </trkpt>
      <trkpt lat="45.97358" lon="4.71698">
        <ele>196</ele>
        <time>2018-08-14T10:25:42Z</time>
      </trkpt>
      <trkpt lat="45.97353" lon="4.717">
        <ele>196</ele>
        <time>2018-08-14T10:25:43Z</time>
      </trkpt>
      <trkpt lat="45.97347" lon="4.71701">
        <ele>196</ele>
        <time>2018-08-14T10:25:44Z</time>
      </trkpt>
      <trkpt lat="45.97341" lon="4.71701">
        <ele>196</ele>
        <time>2018-08-14T10:25:45Z</time>
      </trkpt>
      <trkpt lat="45.97335" lon="4.71703">
        <ele>195</ele>
        <time>2018-08-14T10:25:46Z</time>
      </trkpt>
      <trkpt lat="45.97327" lon="4.71702">
        <ele>196</ele>
        <time>2018-08-14T10:25:48Z</time>
      </trkpt>
      <trkpt lat="45.97325" lon="4.71701">
        <ele>196</ele>
        <time>2018-08-14T10:25:49Z</time>
      </trkpt>
      <trkpt lat="45.97323" lon="4.71699">
        <ele>196</ele>
        <time>2018-08-14T10:25:50Z</time>
      </trkpt>
      <trkpt lat="45.97317" lon="4.71693">
        <ele>196</ele>
        <time>2018-08-14T10:25:51Z</time>
      </trkpt>
      <trkpt lat="45.97311" lon="4.71685">
        <ele>197</ele>
        <time>2018-08-14T10:25:53Z</time>
      </trkpt>
      <trkpt lat="45.97306" lon="4.71683">
        <ele>197</ele>
        <time>2018-08-14T10:25:54Z</time>
      </trkpt>
      <trkpt lat="45.973" lon="4.71682">
        <ele>197</ele>
        <time>2018-08-14T10:25:55Z</time>
      </trkpt>
      <trkpt lat="45.97297" lon="4.71686">
        <ele>197</ele>
        <time>2018-08-14T10:25:56Z</time>
      </trkpt>
      <trkpt lat="45.97291" lon="4.7169">
        <ele>197</ele>
        <time>2018-08-14T10:25:57Z</time>
      </trkpt>
      <trkpt lat="45.97286" lon="4.71692">
        <ele>197</ele>
        <time>2018-08-14T10:25:58Z</time>
      </trkpt>
      <trkpt lat="45.97277" lon="4.71692">
        <ele>197</ele>
        <time>2018-08-14T10:26:00Z</time>
      </trkpt>
      <trkpt lat="45.97271" lon="4.71694">
        <ele>197</ele>
        <time>2018-08-14T10:26:01Z</time>
      </trkpt>
      <trkpt lat="45.97265" lon="4.71695">
        <ele>197</ele>
        <time>2018-08-14T10:26:02Z</time>
      </trkpt>
      <trkpt lat="45.97259" lon="4.71695">
        <ele>197</ele>
        <time>2018-08-14T10:26:03Z</time>
      </trkpt>
      <trkpt lat="45.97253" lon="4.71693">
        <ele>197</ele>
        <time>2018-08-14T10:26:04Z</time>
      </trkpt>
      <trkpt lat="45.97249" lon="4.71693">
        <ele>197</ele>
        <time>2018-08-14T10:26:05Z</time>
      </trkpt>
      <trkpt lat="45.9724" lon="4.71692">
        <ele>197</ele>
        <time>2018-08-14T10:26:07Z</time>
      </trkpt>
      <trkpt lat="45.97235" lon="4.71693">
        <ele>197</ele>
        <time>2018-08-14T10:26:08Z</time>
      </trkpt>
      <trkpt lat="45.97228" lon="4.71692">
        <ele>197</ele>
        <time>2018-08-14T10:26:09Z</time>
      </trkpt>
      <trkpt lat="45.97221" lon="4.71695">
        <ele>197</ele>
        <time>2018-08-14T10:26:10Z</time>
      </trkpt>
      <trkpt lat="45.97212" lon="4.71695">
        <ele>197</ele>
        <time>2018-08-14T10:26:11Z</time>
      </trkpt>
      <trkpt lat="45.97206" lon="4.71693">
        <ele>197</ele>
        <time>2018-08-14T10:26:12Z</time>
      </trkpt>
      <trkpt lat="45.97199" lon="4.71694">
        <ele>197</ele>
        <time>2018-08-14T10:26:13Z</time>
      </trkpt>
      <trkpt lat="45.97192" lon="4.71693">
        <ele>197</ele>
        <time>2018-08-14T10:26:14Z</time>
      </trkpt>
      <trkpt lat="45.97184" lon="4.71692">
        <ele>197</ele>
        <time>2018-08-14T10:26:15Z</time>
      </trkpt>
      <trkpt lat="45.97178" lon="4.7169">
        <ele>197</ele>
        <time>2018-08-14T10:26:16Z</time>
      </trkpt>
      <trkpt lat="45.97171" lon="4.71691">
        <ele>197</ele>
        <time>2018-08-14T10:26:17Z</time>
      </trkpt>
      <trkpt lat="45.97163" lon="4.71691">
        <ele>195</ele>
        <time>2018-08-14T10:26:18Z</time>
      </trkpt>
      <trkpt lat="45.97156" lon="4.7169">
        <ele>195</ele>
        <time>2018-08-14T10:26:19Z</time>
      </trkpt>
      <trkpt lat="45.9715" lon="4.71692">
        <ele>195</ele>
        <time>2018-08-14T10:26:20Z</time>
      </trkpt>
      <trkpt lat="45.97143" lon="4.71689">
        <ele>195</ele>
        <time>2018-08-14T10:26:21Z</time>
      </trkpt>
      <trkpt lat="45.97136" lon="4.71687">
        <ele>195</ele>
        <time>2018-08-14T10:26:22Z</time>
      </trkpt>
      <trkpt lat="45.97128" lon="4.71687">
        <ele>195</ele>
        <time>2018-08-14T10:26:23Z</time>
      </trkpt>
      <trkpt lat="45.97121" lon="4.71686">
        <ele>195</ele>
        <time>2018-08-14T10:26:24Z</time>
      </trkpt>
      <trkpt lat="45.97115" lon="4.71685">
        <ele>194</ele>
        <time>2018-08-14T10:26:25Z</time>
      </trkpt>
      <trkpt lat="45.97108" lon="4.71685">
        <ele>194</ele>
        <time>2018-08-14T10:26:26Z</time>
      </trkpt>
      <trkpt lat="45.97101" lon="4.71683">
        <ele>194</ele>
        <time>2018-08-14T10:26:27Z</time>
      </trkpt>
      <trkpt lat="45.97095" lon="4.71684">
        <ele>194</ele>
        <time>2018-08-14T10:26:28Z</time>
      </trkpt>
      <trkpt lat="45.97086" lon="4.71684">
        <ele>194</ele>
        <time>2018-08-14T10:26:29Z</time>
      </trkpt>
      <trkpt lat="45.97078" lon="4.71683">
        <ele>193</ele>
        <time>2018-08-14T10:26:30Z</time>
      </trkpt>
      <trkpt lat="45.97071" lon="4.71682">
        <ele>193</ele>
        <time>2018-08-14T10:26:31Z</time>
      </trkpt>
      <trkpt lat="45.97065" lon="4.71681">
        <ele>193</ele>
        <time>2018-08-14T10:26:32Z</time>
      </trkpt>
      <trkpt lat="45.97058" lon="4.71679">
        <ele>193</ele>
        <time>2018-08-14T10:26:33Z</time>
      </trkpt>
      <trkpt lat="45.97051" lon="4.71677">
        <ele>193</ele>
        <time>2018-08-14T10:26:34Z</time>
      </trkpt>
      <trkpt lat="45.97045" lon="4.71675">
        <ele>193</ele>
        <time>2018-08-14T10:26:35Z</time>
      </trkpt>
      <trkpt lat="45.9704" lon="4.71675">
        <ele>193</ele>
        <time>2018-08-14T10:26:36Z</time>
      </trkpt>
      <trkpt lat="45.97034" lon="4.71674">
        <ele>193</ele>
        <time>2018-08-14T10:26:37Z</time>
      </trkpt>
      <trkpt lat="45.97029" lon="4.71673">
        <ele>193</ele>
        <time>2018-08-14T10:26:38Z</time>
      </trkpt>
      <trkpt lat="45.97021" lon="4.71674">
        <ele>193</ele>
        <time>2018-08-14T10:26:39Z</time>
      </trkpt>
      <trkpt lat="45.97014" lon="4.71673">
        <ele>193</ele>
        <time>2018-08-14T10:26:40Z</time>
      </trkpt>
      <trkpt lat="45.97006" lon="4.71673">
        <ele>193</ele>
        <time>2018-08-14T10:26:41Z</time>
      </trkpt>
      <trkpt lat="45.96999" lon="4.71673">
        <ele>193</ele>
        <time>2018-08-14T10:26:42Z</time>
      </trkpt>
      <trkpt lat="45.96993" lon="4.71674">
        <ele>193</ele>
        <time>2018-08-14T10:26:43Z</time>
      </trkpt>
      <trkpt lat="45.96986" lon="4.71674">
        <ele>193</ele>
        <time>2018-08-14T10:26:44Z</time>
      </trkpt>
      <trkpt lat="45.96977" lon="4.71676">
        <ele>192</ele>
        <time>2018-08-14T10:26:45Z</time>
      </trkpt>
      <trkpt lat="45.9697" lon="4.71676">
        <ele>192</ele>
        <time>2018-08-14T10:26:46Z</time>
      </trkpt>
      <trkpt lat="45.96963" lon="4.71678">
        <ele>192</ele>
        <time>2018-08-14T10:26:47Z</time>
      </trkpt>
      <trkpt lat="45.96955" lon="4.71676">
        <ele>192</ele>
        <time>2018-08-14T10:26:48Z</time>
      </trkpt>
      <trkpt lat="45.96947" lon="4.71681">
        <ele>192</ele>
        <time>2018-08-14T10:26:49Z</time>
      </trkpt>
      <trkpt lat="45.96939" lon="4.7168">
        <ele>192</ele>
        <time>2018-08-14T10:26:50Z</time>
      </trkpt>
      <trkpt lat="45.96931" lon="4.71678">
        <ele>193</ele>
        <time>2018-08-14T10:26:51Z</time>
      </trkpt>
      <trkpt lat="45.96924" lon="4.71678">
        <ele>193</ele>
        <time>2018-08-14T10:26:52Z</time>
      </trkpt>
      <trkpt lat="45.96917" lon="4.71677">
        <ele>193</ele>
        <time>2018-08-14T10:26:53Z</time>
      </trkpt>
      <trkpt lat="45.96909" lon="4.71676">
        <ele>193</ele>
        <time>2018-08-14T10:26:54Z</time>
      </trkpt>
      <trkpt lat="45.96902" lon="4.71675">
        <ele>192</ele>
        <time>2018-08-14T10:26:55Z</time>
      </trkpt>
      <trkpt lat="45.96895" lon="4.71675">
        <ele>191</ele>
        <time>2018-08-14T10:26:56Z</time>
      </trkpt>
      <trkpt lat="45.96887" lon="4.71674">
        <ele>191</ele>
        <time>2018-08-14T10:26:57Z</time>
      </trkpt>
      <trkpt lat="45.96879" lon="4.71677">
        <ele>190</ele>
        <time>2018-08-14T10:26:58Z</time>
      </trkpt>
      <trkpt lat="45.96873" lon="4.71674">
        <ele>190</ele>
        <time>2018-08-14T10:26:59Z</time>
      </trkpt>
      <trkpt lat="45.96864" lon="4.71673">
        <ele>190</ele>
        <time>2018-08-14T10:27:00Z</time>
      </trkpt>
      <trkpt lat="45.96857" lon="4.71671">
        <ele>190</ele>
        <time>2018-08-14T10:27:01Z</time>
      </trkpt>
      <trkpt lat="45.9685" lon="4.71669">
        <ele>191</ele>
        <time>2018-08-14T10:27:02Z</time>
      </trkpt>
      <trkpt lat="45.96842" lon="4.71667">
        <ele>191</ele>
        <time>2018-08-14T10:27:03Z</time>
      </trkpt>
      <trkpt lat="45.96836" lon="4.71662">
        <ele>193</ele>
        <time>2018-08-14T10:27:04Z</time>
      </trkpt>
      <trkpt lat="45.96829" lon="4.7166">
        <ele>192</ele>
        <time>2018-08-14T10:27:05Z</time>
      </trkpt>
      <trkpt lat="45.96822" lon="4.71658">
        <ele>193</ele>
        <time>2018-08-14T10:27:06Z</time>
      </trkpt>
      <trkpt lat="45.96812" lon="4.71659">
        <ele>193</ele>
        <time>2018-08-14T10:27:07Z</time>
      </trkpt>
      <trkpt lat="45.96805" lon="4.71657">
        <ele>193</ele>
        <time>2018-08-14T10:27:08Z</time>
      </trkpt>
      <trkpt lat="45.96799" lon="4.71656">
        <ele>193</ele>
        <time>2018-08-14T10:27:09Z</time>
      </trkpt>
      <trkpt lat="45.96791" lon="4.71656">
        <ele>192</ele>
        <time>2018-08-14T10:27:10Z</time>
      </trkpt>
      <trkpt lat="45.96783" lon="4.71654">
        <ele>192</ele>
        <time>2018-08-14T10:27:11Z</time>
      </trkpt>
      <trkpt lat="45.96775" lon="4.71652">
        <ele>192</ele>
        <time>2018-08-14T10:27:12Z</time>
      </trkpt>
      <trkpt lat="45.96767" lon="4.71652">
        <ele>192</ele>
        <time>2018-08-14T10:27:13Z</time>
      </trkpt>
      <trkpt lat="45.96759" lon="4.71649">
        <ele>191</ele>
        <time>2018-08-14T10:27:14Z</time>
      </trkpt>
      <trkpt lat="45.96753" lon="4.71649">
        <ele>191</ele>
        <time>2018-08-14T10:27:15Z</time>
      </trkpt>
      <trkpt lat="45.96745" lon="4.71648">
        <ele>190</ele>
        <time>2018-08-14T10:27:16Z</time>
      </trkpt>
      <trkpt lat="45.96737" lon="4.71647">
        <ele>190</ele>
        <time>2018-08-14T10:27:17Z</time>
      </trkpt>
      <trkpt lat="45.9673" lon="4.71646">
        <ele>190</ele>
        <time>2018-08-14T10:27:18Z</time>
      </trkpt>
      <trkpt lat="45.96723" lon="4.71649">
        <ele>190</ele>
        <time>2018-08-14T10:27:19Z</time>
      </trkpt>
      <trkpt lat="45.96717" lon="4.71647">
        <ele>190</ele>
        <time>2018-08-14T10:27:20Z</time>
      </trkpt>
      <trkpt lat="45.9671" lon="4.71646">
        <ele>190</ele>
        <time>2018-08-14T10:27:21Z</time>
      </trkpt>
      <trkpt lat="45.96702" lon="4.71644">
        <ele>190</ele>
        <time>2018-08-14T10:27:22Z</time>
      </trkpt>
      <trkpt lat="45.96695" lon="4.71645">
        <ele>190</ele>
        <time>2018-08-14T10:27:23Z</time>
      </trkpt>
      <trkpt lat="45.96689" lon="4.71643">
        <ele>190</ele>
        <time>2018-08-14T10:27:24Z</time>
      </trkpt>
      <trkpt lat="45.9668" lon="4.71641">
        <ele>190</ele>
        <time>2018-08-14T10:27:25Z</time>
      </trkpt>
      <trkpt lat="45.96672" lon="4.71638">
        <ele>190</ele>
        <time>2018-08-14T10:27:26Z</time>
      </trkpt>
      <trkpt lat="45.96663" lon="4.71637">
        <ele>188</ele>
        <time>2018-08-14T10:27:27Z</time>
      </trkpt>
      <trkpt lat="45.96656" lon="4.71636">
        <ele>188</ele>
        <time>2018-08-14T10:27:28Z</time>
      </trkpt>
      <trkpt lat="45.96648" lon="4.71635">
        <ele>188</ele>
        <time>2018-08-14T10:27:29Z</time>
      </trkpt>
      <trkpt lat="45.9664" lon="4.71634">
        <ele>188</ele>
        <time>2018-08-14T10:27:30Z</time>
      </trkpt>
      <trkpt lat="45.96632" lon="4.71633">
        <ele>188</ele>
        <time>2018-08-14T10:27:31Z</time>
      </trkpt>
      <trkpt lat="45.96624" lon="4.71632">
        <ele>187</ele>
        <time>2018-08-14T10:27:32Z</time>
      </trkpt>
      <trkpt lat="45.96616" lon="4.7163">
        <ele>187</ele>
        <time>2018-08-14T10:27:33Z</time>
      </trkpt>
      <trkpt lat="45.96609" lon="4.71629">
        <ele>187</ele>
        <time>2018-08-14T10:27:34Z</time>
      </trkpt>
      <trkpt lat="45.96602" lon="4.71627">
        <ele>187</ele>
        <time>2018-08-14T10:27:35Z</time>
      </trkpt>
      <trkpt lat="45.96594" lon="4.71625">
        <ele>187</ele>
        <time>2018-08-14T10:27:36Z</time>
      </trkpt>
      <trkpt lat="45.96587" lon="4.71623">
        <ele>187</ele>
        <time>2018-08-14T10:27:37Z</time>
      </trkpt>
      <trkpt lat="45.96578" lon="4.71622">
        <ele>185</ele>
        <time>2018-08-14T10:27:38Z</time>
      </trkpt>
      <trkpt lat="45.9657" lon="4.71621">
        <ele>185</ele>
        <time>2018-08-14T10:27:39Z</time>
      </trkpt>
      <trkpt lat="45.96564" lon="4.71619">
        <ele>185</ele>
        <time>2018-08-14T10:27:40Z</time>
      </trkpt>
      <trkpt lat="45.96557" lon="4.71619">
        <ele>185</ele>
        <time>2018-08-14T10:27:41Z</time>
      </trkpt>
      <trkpt lat="45.9655" lon="4.71615">
        <ele>185</ele>
        <time>2018-08-14T10:27:42Z</time>
      </trkpt>
      <trkpt lat="45.96544" lon="4.71611">
        <ele>185</ele>
        <time>2018-08-14T10:27:43Z</time>
      </trkpt>
      <trkpt lat="45.9654" lon="4.71607">
        <ele>185</ele>
        <time>2018-08-14T10:27:44Z</time>
      </trkpt>
      <trkpt lat="45.96535" lon="4.71603">
        <ele>185</ele>
        <time>2018-08-14T10:27:45Z</time>
      </trkpt>
      <trkpt lat="45.96528" lon="4.71601">
        <ele>185</ele>
        <time>2018-08-14T10:27:46Z</time>
      </trkpt>
      <trkpt lat="45.9652" lon="4.716">
        <ele>185</ele>
        <time>2018-08-14T10:27:47Z</time>
      </trkpt>
      <trkpt lat="45.96515" lon="4.71604">
        <ele>184</ele>
        <time>2018-08-14T10:27:48Z</time>
      </trkpt>
      <trkpt lat="45.96509" lon="4.71607">
        <ele>184</ele>
        <time>2018-08-14T10:27:49Z</time>
      </trkpt>
      <trkpt lat="45.96499" lon="4.71605">
        <ele>183</ele>
        <time>2018-08-14T10:27:50Z</time>
      </trkpt>
      <trkpt lat="45.96492" lon="4.71609">
        <ele>183</ele>
        <time>2018-08-14T10:27:51Z</time>
      </trkpt>
      <trkpt lat="45.96487" lon="4.71609">
        <ele>183</ele>
        <time>2018-08-14T10:27:52Z</time>
      </trkpt>
      <trkpt lat="45.96479" lon="4.71606">
        <ele>183</ele>
        <time>2018-08-14T10:27:53Z</time>
      </trkpt>
      <trkpt lat="45.96472" lon="4.71605">
        <ele>183</ele>
        <time>2018-08-14T10:27:54Z</time>
      </trkpt>
      <trkpt lat="45.96464" lon="4.71605">
        <ele>183</ele>
        <time>2018-08-14T10:27:55Z</time>
      </trkpt>
      <trkpt lat="45.96457" lon="4.71604">
        <ele>183</ele>
        <time>2018-08-14T10:27:56Z</time>
      </trkpt>
      <trkpt lat="45.9645" lon="4.71604">
        <ele>183</ele>
        <time>2018-08-14T10:27:57Z</time>
      </trkpt>
      <trkpt lat="45.96443" lon="4.71603">
        <ele>183</ele>
        <time>2018-08-14T10:27:58Z</time>
      </trkpt>
      <trkpt lat="45.96437" lon="4.71602">
        <ele>183</ele>
        <time>2018-08-14T10:27:59Z</time>
      </trkpt>
      <trkpt lat="45.9643" lon="4.71601">
        <ele>184</ele>
        <time>2018-08-14T10:28:00Z</time>
      </trkpt>
      <trkpt lat="45.96422" lon="4.71598">
        <ele>184</ele>
        <time>2018-08-14T10:28:01Z</time>
      </trkpt>
      <trkpt lat="45.96415" lon="4.71599">
        <ele>183</ele>
        <time>2018-08-14T10:28:02Z</time>
      </trkpt>
      <trkpt lat="45.96408" lon="4.71597">
        <ele>183</ele>
        <time>2018-08-14T10:28:03Z</time>
      </trkpt>
      <trkpt lat="45.96401" lon="4.71596">
        <ele>183</ele>
        <time>2018-08-14T10:28:04Z</time>
      </trkpt>
      <trkpt lat="45.96393" lon="4.71594">
        <ele>183</ele>
        <time>2018-08-14T10:28:05Z</time>
      </trkpt>
      <trkpt lat="45.96387" lon="4.71594">
        <ele>183</ele>
        <time>2018-08-14T10:28:06Z</time>
      </trkpt>
      <trkpt lat="45.96379" lon="4.71592">
        <ele>182</ele>
        <time>2018-08-14T10:28:07Z</time>
      </trkpt>
      <trkpt lat="45.96372" lon="4.7159">
        <ele>182</ele>
        <time>2018-08-14T10:28:08Z</time>
      </trkpt>
      <trkpt lat="45.96368" lon="4.7159">
        <ele>182</ele>
        <time>2018-08-14T10:28:09Z</time>
      </trkpt>
      <trkpt lat="45.9636" lon="4.71588">
        <ele>182</ele>
        <time>2018-08-14T10:28:10Z</time>
      </trkpt>
      <trkpt lat="45.96353" lon="4.71586">
        <ele>182</ele>
        <time>2018-08-14T10:28:11Z</time>
      </trkpt>
      <trkpt lat="45.96346" lon="4.71585">
        <ele>182</ele>
        <time>2018-08-14T10:28:12Z</time>
      </trkpt>
      <trkpt lat="45.9634" lon="4.71583">
        <ele>184</ele>
        <time>2018-08-14T10:28:13Z</time>
      </trkpt>
      <trkpt lat="45.96333" lon="4.71582">
        <ele>183</ele>
        <time>2018-08-14T10:28:14Z</time>
      </trkpt>
      <trkpt lat="45.96325" lon="4.71581">
        <ele>184</ele>
        <time>2018-08-14T10:28:15Z</time>
      </trkpt>
      <trkpt lat="45.96318" lon="4.71581">
        <ele>184</ele>
        <time>2018-08-14T10:28:16Z</time>
      </trkpt>
      <trkpt lat="45.96309" lon="4.71579">
        <ele>184</ele>
        <time>2018-08-14T10:28:17Z</time>
      </trkpt>
      <trkpt lat="45.96301" lon="4.71578">
        <ele>184</ele>
        <time>2018-08-14T10:28:18Z</time>
      </trkpt>
      <trkpt lat="45.96294" lon="4.71577">
        <ele>184</ele>
        <time>2018-08-14T10:28:19Z</time>
      </trkpt>
      <trkpt lat="45.96285" lon="4.71576">
        <ele>184</ele>
        <time>2018-08-14T10:28:20Z</time>
      </trkpt>
      <trkpt lat="45.96277" lon="4.71574">
        <ele>184</ele>
        <time>2018-08-14T10:28:21Z</time>
      </trkpt>
      <trkpt lat="45.96269" lon="4.71573">
        <ele>183</ele>
        <time>2018-08-14T10:28:22Z</time>
      </trkpt>
      <trkpt lat="45.96262" lon="4.71573">
        <ele>183</ele>
        <time>2018-08-14T10:28:23Z</time>
      </trkpt>
      <trkpt lat="45.96254" lon="4.71571">
        <ele>183</ele>
        <time>2018-08-14T10:28:24Z</time>
      </trkpt>
      <trkpt lat="45.96247" lon="4.7157">
        <ele>182</ele>
        <time>2018-08-14T10:28:25Z</time>
      </trkpt>
      <trkpt lat="45.9624" lon="4.71569">
        <ele>183</ele>
        <time>2018-08-14T10:28:26Z</time>
      </trkpt>
      <trkpt lat="45.96233" lon="4.71568">
        <ele>183</ele>
        <time>2018-08-14T10:28:27Z</time>
      </trkpt>
      <trkpt lat="45.96226" lon="4.71567">
        <ele>183</ele>
        <time>2018-08-14T10:28:28Z</time>
      </trkpt>
      <trkpt lat="45.96218" lon="4.71568">
        <ele>183</ele>
        <time>2018-08-14T10:28:29Z</time>
      </trkpt>
      <trkpt lat="45.96211" lon="4.71567">
        <ele>183</ele>
        <time>2018-08-14T10:28:30Z</time>
      </trkpt>
      <trkpt lat="45.96204" lon="4.71565">
        <ele>183</ele>
        <time>2018-08-14T10:28:31Z</time>
      </trkpt>
      <trkpt lat="45.96196" lon="4.71564">
        <ele>183</ele>
        <time>2018-08-14T10:28:32Z</time>
      </trkpt>
      <trkpt lat="45.96191" lon="4.71567">
        <ele>183</ele>
        <time>2018-08-14T10:28:33Z</time>
      </trkpt>
      <trkpt lat="45.96185" lon="4.71565">
        <ele>183</ele>
        <time>2018-08-14T10:28:34Z</time>
      </trkpt>
      <trkpt lat="45.96181" lon="4.71567">
        <ele>183</ele>
        <time>2018-08-14T10:28:35Z</time>
      </trkpt>
      <trkpt lat="45.96175" lon="4.71566">
        <ele>182</ele>
        <time>2018-08-14T10:28:36Z</time>
      </trkpt>
      <trkpt lat="45.96167" lon="4.71563">
        <ele>182</ele>
        <time>2018-08-14T10:28:37Z</time>
      </trkpt>
      <trkpt lat="45.96161" lon="4.71561">
        <ele>183</ele>
        <time>2018-08-14T10:28:38Z</time>
      </trkpt>
      <trkpt lat="45.96151" lon="4.7156">
        <ele>183</ele>
        <time>2018-08-14T10:28:39Z</time>
      </trkpt>
      <trkpt lat="45.96144" lon="4.71559">
        <ele>184</ele>
        <time>2018-08-14T10:28:40Z</time>
      </trkpt>
      <trkpt lat="45.96138" lon="4.71558">
        <ele>184</ele>
        <time>2018-08-14T10:28:41Z</time>
      </trkpt>
      <trkpt lat="45.96131" lon="4.71556">
        <ele>184</ele>
        <time>2018-08-14T10:28:42Z</time>
      </trkpt>
      <trkpt lat="45.96125" lon="4.71554">
        <ele>184</ele>
        <time>2018-08-14T10:28:43Z</time>
      </trkpt>
      <trkpt lat="45.96119" lon="4.71552">
        <ele>184</ele>
        <time>2018-08-14T10:28:44Z</time>
      </trkpt>
      <trkpt lat="45.96113" lon="4.7155">
        <ele>185</ele>
        <time>2018-08-14T10:28:45Z</time>
      </trkpt>
      <trkpt lat="45.96104" lon="4.7155">
        <ele>185</ele>
        <time>2018-08-14T10:28:47Z</time>
      </trkpt>
      <trkpt lat="45.96098" lon="4.71549">
        <ele>185</ele>
        <time>2018-08-14T10:28:48Z</time>
      </trkpt>
      <trkpt lat="45.96092" lon="4.71547">
        <ele>185</ele>
        <time>2018-08-14T10:28:49Z</time>
      </trkpt>
      <trkpt lat="45.96086" lon="4.71544">
        <ele>185</ele>
        <time>2018-08-14T10:28:50Z</time>
      </trkpt>
      <trkpt lat="45.96079" lon="4.71542">
        <ele>185</ele>
        <time>2018-08-14T10:28:51Z</time>
      </trkpt>
      <trkpt lat="45.96073" lon="4.71541">
        <ele>185</ele>
        <time>2018-08-14T10:28:52Z</time>
      </trkpt>
      <trkpt lat="45.96066" lon="4.71539">
        <ele>185</ele>
        <time>2018-08-14T10:28:53Z</time>
      </trkpt>
      <trkpt lat="45.96059" lon="4.71538">
        <ele>185</ele>
        <time>2018-08-14T10:28:54Z</time>
      </trkpt>
      <trkpt lat="45.96053" lon="4.71537">
        <ele>185</ele>
        <time>2018-08-14T10:28:55Z</time>
      </trkpt>
      <trkpt lat="45.96047" lon="4.71536">
        <ele>185</ele>
        <time>2018-08-14T10:28:56Z</time>
      </trkpt>
      <trkpt lat="45.96041" lon="4.71533">
        <ele>186</ele>
        <time>2018-08-14T10:28:57Z</time>
      </trkpt>
      <trkpt lat="45.96035" lon="4.71532">
        <ele>186</ele>
        <time>2018-08-14T10:28:58Z</time>
      </trkpt>
      <trkpt lat="45.96029" lon="4.71532">
        <ele>186</ele>
        <time>2018-08-14T10:28:59Z</time>
      </trkpt>
      <trkpt lat="45.96023" lon="4.71532">
        <ele>186</ele>
        <time>2018-08-14T10:29:00Z</time>
      </trkpt>
      <trkpt lat="45.96018" lon="4.71531">
        <ele>186</ele>
        <time>2018-08-14T10:29:01Z</time>
      </trkpt>
      <trkpt lat="45.96012" lon="4.71529">
        <ele>186</ele>
        <time>2018-08-14T10:29:02Z</time>
      </trkpt>
      <trkpt lat="45.96007" lon="4.71527">
        <ele>186</ele>
        <time>2018-08-14T10:29:03Z</time>
      </trkpt>
      <trkpt lat="45.96002" lon="4.71526">
        <ele>186</ele>
        <time>2018-08-14T10:29:04Z</time>
      </trkpt>
      <trkpt lat="45.95997" lon="4.71523">
        <ele>185</ele>
        <time>2018-08-14T10:29:05Z</time>
      </trkpt>
      <trkpt lat="45.95992" lon="4.71518">
        <ele>185</ele>
        <time>2018-08-14T10:29:06Z</time>
      </trkpt>
      <trkpt lat="45.95987" lon="4.71515">
        <ele>185</ele>
        <time>2018-08-14T10:29:07Z</time>
      </trkpt>
      <trkpt lat="45.9598" lon="4.71514">
        <ele>185</ele>
        <time>2018-08-14T10:29:08Z</time>
      </trkpt>
      <trkpt lat="45.95973" lon="4.71515">
        <ele>185</ele>
        <time>2018-08-14T10:29:09Z</time>
      </trkpt>
      <trkpt lat="45.95968" lon="4.71519">
        <ele>184</ele>
        <time>2018-08-14T10:29:10Z</time>
      </trkpt>
      <trkpt lat="45.95961" lon="4.71524">
        <ele>184</ele>
        <time>2018-08-14T10:29:11Z</time>
      </trkpt>
      <trkpt lat="45.95954" lon="4.71526">
        <ele>184</ele>
        <time>2018-08-14T10:29:12Z</time>
      </trkpt>
      <trkpt lat="45.95946" lon="4.71526">
        <ele>184</ele>
        <time>2018-08-14T10:29:13Z</time>
      </trkpt>
      <trkpt lat="45.95937" lon="4.71528">
        <ele>183</ele>
        <time>2018-08-14T10:29:14Z</time>
      </trkpt>
      <trkpt lat="45.95929" lon="4.71527">
        <ele>183</ele>
        <time>2018-08-14T10:29:15Z</time>
      </trkpt>
      <trkpt lat="45.95922" lon="4.71527">
        <ele>183</ele>
        <time>2018-08-14T10:29:16Z</time>
      </trkpt>
      <trkpt lat="45.95915" lon="4.71527">
        <ele>182</ele>
        <time>2018-08-14T10:29:17Z</time>
      </trkpt>
      <trkpt lat="45.95907" lon="4.71526">
        <ele>182</ele>
        <time>2018-08-14T10:29:18Z</time>
      </trkpt>
      <trkpt lat="45.95899" lon="4.71526">
        <ele>182</ele>
        <time>2018-08-14T10:29:19Z</time>
      </trkpt>
      <trkpt lat="45.95892" lon="4.71527">
        <ele>182</ele>
        <time>2018-08-14T10:29:20Z</time>
      </trkpt>
      <trkpt lat="45.95884" lon="4.71524">
        <ele>182</ele>
        <time>2018-08-14T10:29:21Z</time>
      </trkpt>
      <trkpt lat="45.95876" lon="4.71524">
        <ele>182</ele>
        <time>2018-08-14T10:29:22Z</time>
      </trkpt>
      <trkpt lat="45.95868" lon="4.71524">
        <ele>182</ele>
        <time>2018-08-14T10:29:23Z</time>
      </trkpt>
      <trkpt lat="45.95861" lon="4.71522">
        <ele>182</ele>
        <time>2018-08-14T10:29:24Z</time>
      </trkpt>
      <trkpt lat="45.95854" lon="4.71522">
        <ele>182</ele>
        <time>2018-08-14T10:29:25Z</time>
      </trkpt>
      <trkpt lat="45.95845" lon="4.7152">
        <ele>182</ele>
        <time>2018-08-14T10:29:26Z</time>
      </trkpt>
      <trkpt lat="45.95838" lon="4.7152">
        <ele>182</ele>
        <time>2018-08-14T10:29:27Z</time>
      </trkpt>
      <trkpt lat="45.95831" lon="4.7152">
        <ele>182</ele>
        <time>2018-08-14T10:29:28Z</time>
      </trkpt>
      <trkpt lat="45.95822" lon="4.71519">
        <ele>182</ele>
        <time>2018-08-14T10:29:29Z</time>
      </trkpt>
      <trkpt lat="45.95813" lon="4.71517">
        <ele>182</ele>
        <time>2018-08-14T10:29:30Z</time>
      </trkpt>
      <trkpt lat="45.95806" lon="4.71517">
        <ele>181</ele>
        <time>2018-08-14T10:29:31Z</time>
      </trkpt>
      <trkpt lat="45.95799" lon="4.71516">
        <ele>181</ele>
        <time>2018-08-14T10:29:32Z</time>
      </trkpt>
      <trkpt lat="45.95793" lon="4.71519">
        <ele>181</ele>
        <time>2018-08-14T10:29:33Z</time>
      </trkpt>
      <trkpt lat="45.95786" lon="4.7152">
        <ele>181</ele>
        <time>2018-08-14T10:29:34Z</time>
      </trkpt>
      <trkpt lat="45.95778" lon="4.71518">
        <ele>181</ele>
        <time>2018-08-14T10:29:35Z</time>
      </trkpt>
      <trkpt lat="45.9577" lon="4.71518">
        <ele>181</ele>
        <time>2018-08-14T10:29:36Z</time>
      </trkpt>
      <trkpt lat="45.95762" lon="4.71514">
        <ele>181</ele>
        <time>2018-08-14T10:29:37Z</time>
      </trkpt>
      <trkpt lat="45.95754" lon="4.71513">
        <ele>181</ele>
        <time>2018-08-14T10:29:38Z</time>
      </trkpt>
      <trkpt lat="45.95744" lon="4.71512">
        <ele>181</ele>
        <time>2018-08-14T10:29:39Z</time>
      </trkpt>
      <trkpt lat="45.95735" lon="4.71511">
        <ele>181</ele>
        <time>2018-08-14T10:29:40Z</time>
      </trkpt>
      <trkpt lat="45.95726" lon="4.7151">
        <ele>180</ele>
        <time>2018-08-14T10:29:41Z</time>
      </trkpt>
      <trkpt lat="45.95717" lon="4.7151">
        <ele>180</ele>
        <time>2018-08-14T10:29:42Z</time>
      </trkpt>
      <trkpt lat="45.95709" lon="4.7151">
        <ele>180</ele>
        <time>2018-08-14T10:29:43Z</time>
      </trkpt>
      <trkpt lat="45.957" lon="4.71509">
        <ele>180</ele>
        <time>2018-08-14T10:29:44Z</time>
      </trkpt>
      <trkpt lat="45.95693" lon="4.71507">
        <ele>181</ele>
        <time>2018-08-14T10:29:45Z</time>
      </trkpt>
      <trkpt lat="45.95684" lon="4.71506">
        <ele>181</ele>
        <time>2018-08-14T10:29:46Z</time>
      </trkpt>
      <trkpt lat="45.95676" lon="4.71505">
        <ele>181</ele>
        <time>2018-08-14T10:29:47Z</time>
      </trkpt>
      <trkpt lat="45.95667" lon="4.71503">
        <ele>182</ele>
        <time>2018-08-14T10:29:48Z</time>
      </trkpt>
      <trkpt lat="45.95656" lon="4.71504">
        <ele>181</ele>
        <time>2018-08-14T10:29:49Z</time>
      </trkpt>
      <trkpt lat="45.95649" lon="4.71505">
        <ele>180</ele>
        <time>2018-08-14T10:29:50Z</time>
      </trkpt>
      <trkpt lat="45.9564" lon="4.71504">
        <ele>180</ele>
        <time>2018-08-14T10:29:51Z</time>
      </trkpt>
      <trkpt lat="45.95631" lon="4.71502">
        <ele>180</ele>
        <time>2018-08-14T10:29:52Z</time>
      </trkpt>
      <trkpt lat="45.95623" lon="4.715">
        <ele>180</ele>
        <time>2018-08-14T10:29:53Z</time>
      </trkpt>
      <trkpt lat="45.95615" lon="4.71498">
        <ele>181</ele>
        <time>2018-08-14T10:29:54Z</time>
      </trkpt>
      <trkpt lat="45.95608" lon="4.71501">
        <ele>179</ele>
        <time>2018-08-14T10:29:55Z</time>
      </trkpt>
      <trkpt lat="45.95599" lon="4.715">
        <ele>180</ele>
        <time>2018-08-14T10:29:56Z</time>
      </trkpt>
      <trkpt lat="45.95591" lon="4.715">
        <ele>180</ele>
        <time>2018-08-14T10:29:57Z</time>
      </trkpt>
      <trkpt lat="45.95583" lon="4.71499">
        <ele>180</ele>
        <time>2018-08-14T10:29:58Z</time>
      </trkpt>
      <trkpt lat="45.95572" lon="4.71498">
        <ele>180</ele>
        <time>2018-08-14T10:29:59Z</time>
      </trkpt>
      <trkpt lat="45.95564" lon="4.71496">
        <ele>179</ele>
        <time>2018-08-14T10:30:00Z</time>
      </trkpt>
      <trkpt lat="45.95556" lon="4.71494">
        <ele>179</ele>
        <time>2018-08-14T10:30:01Z</time>
      </trkpt>
      <trkpt lat="45.95546" lon="4.71494">
        <ele>179</ele>
        <time>2018-08-14T10:30:02Z</time>
      </trkpt>
      <trkpt lat="45.95536" lon="4.71492">
        <ele>179</ele>
        <time>2018-08-14T10:30:03Z</time>
      </trkpt>
      <trkpt lat="45.95528" lon="4.71493">
        <ele>178</ele>
        <time>2018-08-14T10:30:04Z</time>
      </trkpt>
      <trkpt lat="45.95518" lon="4.71492">
        <ele>178</ele>
        <time>2018-08-14T10:30:05Z</time>
      </trkpt>
      <trkpt lat="45.9551" lon="4.71491">
        <ele>178</ele>
        <time>2018-08-14T10:30:06Z</time>
      </trkpt>
      <trkpt lat="45.95501" lon="4.71491">
        <ele>178</ele>
        <time>2018-08-14T10:30:07Z</time>
      </trkpt>
      <trkpt lat="45.95492" lon="4.71491">
        <ele>177</ele>
        <time>2018-08-14T10:30:08Z</time>
      </trkpt>
      <trkpt lat="45.95483" lon="4.71491">
        <ele>177</ele>
        <time>2018-08-14T10:30:09Z</time>
      </trkpt>
      <trkpt lat="45.95475" lon="4.7149">
        <ele>176</ele>
        <time>2018-08-14T10:30:10Z</time>
      </trkpt>
      <trkpt lat="45.95466" lon="4.7149">
        <ele>176</ele>
        <time>2018-08-14T10:30:11Z</time>
      </trkpt>
      <trkpt lat="45.95457" lon="4.71491">
        <ele>176</ele>
        <time>2018-08-14T10:30:12Z</time>
      </trkpt>
      <trkpt lat="45.95449" lon="4.7149">
        <ele>176</ele>
        <time>2018-08-14T10:30:13Z</time>
      </trkpt>
      <trkpt lat="45.9544" lon="4.71489">
        <ele>176</ele>
        <time>2018-08-14T10:30:14Z</time>
      </trkpt>
      <trkpt lat="45.95432" lon="4.71488">
        <ele>175</ele>
        <time>2018-08-14T10:30:15Z</time>
      </trkpt>
      <trkpt lat="45.95424" lon="4.71487">
        <ele>175</ele>
        <time>2018-08-14T10:30:16Z</time>
      </trkpt>
      <trkpt lat="45.95414" lon="4.71488">
        <ele>175</ele>
        <time>2018-08-14T10:30:17Z</time>
      </trkpt>
      <trkpt lat="45.95407" lon="4.71488">
        <ele>175</ele>
        <time>2018-08-14T10:30:18Z</time>
      </trkpt>
      <trkpt lat="45.95399" lon="4.71487">
        <ele>175</ele>
        <time>2018-08-14T10:30:19Z</time>
      </trkpt>
      <trkpt lat="45.95392" lon="4.71487">
        <ele>175</ele>
        <time>2018-08-14T10:30:20Z</time>
      </trkpt>
      <trkpt lat="45.95384" lon="4.71487">
        <ele>175</ele>
        <time>2018-08-14T10:30:21Z</time>
      </trkpt>
      <trkpt lat="45.95375" lon="4.71486">
        <ele>175</ele>
        <time>2018-08-14T10:30:22Z</time>
      </trkpt>
      <trkpt lat="45.95368" lon="4.71485">
        <ele>175</ele>
        <time>2018-08-14T10:30:23Z</time>
      </trkpt>
      <trkpt lat="45.95361" lon="4.71484">
        <ele>175</ele>
        <time>2018-08-14T10:30:24Z</time>
      </trkpt>
      <trkpt lat="45.95355" lon="4.71483">
        <ele>175</ele>
        <time>2018-08-14T10:30:25Z</time>
      </trkpt>
      <trkpt lat="45.95347" lon="4.71482">
        <ele>175</ele>
        <time>2018-08-14T10:30:26Z</time>
      </trkpt>
      <trkpt lat="45.95341" lon="4.71483">
        <ele>175</ele>
        <time>2018-08-14T10:30:27Z</time>
      </trkpt>
      <trkpt lat="45.95333" lon="4.71482">
        <ele>175</ele>
        <time>2018-08-14T10:30:28Z</time>
      </trkpt>
      <trkpt lat="45.95327" lon="4.71481">
        <ele>175</ele>
        <time>2018-08-14T10:30:29Z</time>
      </trkpt>
      <trkpt lat="45.9532" lon="4.71481">
        <ele>175</ele>
        <time>2018-08-14T10:30:30Z</time>
      </trkpt>
      <trkpt lat="45.95313" lon="4.7148">
        <ele>175</ele>
        <time>2018-08-14T10:30:31Z</time>
      </trkpt>
      <trkpt lat="45.95306" lon="4.71479">
        <ele>175</ele>
        <time>2018-08-14T10:30:32Z</time>
      </trkpt>
      <trkpt lat="45.953" lon="4.71479">
        <ele>176</ele>
        <time>2018-08-14T10:30:33Z</time>
      </trkpt>
      <trkpt lat="45.95294" lon="4.71476">
        <ele>176</ele>
        <time>2018-08-14T10:30:34Z</time>
      </trkpt>
      <trkpt lat="45.95288" lon="4.71477">
        <ele>176</ele>
        <time>2018-08-14T10:30:35Z</time>
      </trkpt>
      <trkpt lat="45.95281" lon="4.71475">
        <ele>176</ele>
        <time>2018-08-14T10:30:36Z</time>
      </trkpt>
      <trkpt lat="45.95276" lon="4.71474">
        <ele>176</ele>
        <time>2018-08-14T10:30:37Z</time>
      </trkpt>
      <trkpt lat="45.95268" lon="4.71474">
        <ele>176</ele>
        <time>2018-08-14T10:30:38Z</time>
      </trkpt>
      <trkpt lat="45.95263" lon="4.71473">
        <ele>176</ele>
        <time>2018-08-14T10:30:39Z</time>
      </trkpt>
      <trkpt lat="45.95256" lon="4.71472">
        <ele>176</ele>
        <time>2018-08-14T10:30:40Z</time>
      </trkpt>
      <trkpt lat="45.95249" lon="4.71472">
        <ele>177</ele>
        <time>2018-08-14T10:30:41Z</time>
      </trkpt>
      <trkpt lat="45.95243" lon="4.71472">
        <ele>177</ele>
        <time>2018-08-14T10:30:42Z</time>
      </trkpt>
      <trkpt lat="45.95237" lon="4.71472">
        <ele>177</ele>
        <time>2018-08-14T10:30:43Z</time>
      </trkpt>
      <trkpt lat="45.95231" lon="4.71472">
        <ele>177</ele>
        <time>2018-08-14T10:30:44Z</time>
      </trkpt>
      <trkpt lat="45.95224" lon="4.71472">
        <ele>177</ele>
        <time>2018-08-14T10:30:45Z</time>
      </trkpt>
      <trkpt lat="45.95217" lon="4.71473">
        <ele>177</ele>
        <time>2018-08-14T10:30:46Z</time>
      </trkpt>
      <trkpt lat="45.95211" lon="4.71472">
        <ele>177</ele>
        <time>2018-08-14T10:30:47Z</time>
      </trkpt>
      <trkpt lat="45.95204" lon="4.71472">
        <ele>177</ele>
        <time>2018-08-14T10:30:48Z</time>
      </trkpt>
      <trkpt lat="45.95198" lon="4.7147">
        <ele>177</ele>
        <time>2018-08-14T10:30:49Z</time>
      </trkpt>
      <trkpt lat="45.95191" lon="4.71469">
        <ele>177</ele>
        <time>2018-08-14T10:30:50Z</time>
      </trkpt>
      <trkpt lat="45.95186" lon="4.71468">
        <ele>177</ele>
        <time>2018-08-14T10:30:51Z</time>
      </trkpt>
      <trkpt lat="45.95179" lon="4.71468">
        <ele>177</ele>
        <time>2018-08-14T10:30:52Z</time>
      </trkpt>
      <trkpt lat="45.95173" lon="4.71468">
        <ele>177</ele>
        <time>2018-08-14T10:30:53Z</time>
      </trkpt>
      <trkpt lat="45.95166" lon="4.71467">
        <ele>178</ele>
        <time>2018-08-14T10:30:54Z</time>
      </trkpt>
      <trkpt lat="45.95159" lon="4.71467">
        <ele>178</ele>
        <time>2018-08-14T10:30:55Z</time>
      </trkpt>
      <trkpt lat="45.95153" lon="4.71468">
        <ele>178</ele>
        <time>2018-08-14T10:30:56Z</time>
      </trkpt>
      <trkpt lat="45.95147" lon="4.71467">
        <ele>178</ele>
        <time>2018-08-14T10:30:57Z</time>
      </trkpt>
      <trkpt lat="45.95141" lon="4.71466">
        <ele>178</ele>
        <time>2018-08-14T10:30:58Z</time>
      </trkpt>
      <trkpt lat="45.95135" lon="4.71465">
        <ele>178</ele>
        <time>2018-08-14T10:30:59Z</time>
      </trkpt>
      <trkpt lat="45.95128" lon="4.71468">
        <ele>178</ele>
        <time>2018-08-14T10:31:00Z</time>
      </trkpt>
      <trkpt lat="45.95123" lon="4.71467">
        <ele>178</ele>
        <time>2018-08-14T10:31:01Z</time>
      </trkpt>
      <trkpt lat="45.95117" lon="4.71468">
        <ele>179</ele>
        <time>2018-08-14T10:31:02Z</time>
      </trkpt>
      <trkpt lat="45.95112" lon="4.71467">
        <ele>179</ele>
        <time>2018-08-14T10:31:03Z</time>
      </trkpt>
      <trkpt lat="45.95106" lon="4.71466">
        <ele>179</ele>
        <time>2018-08-14T10:31:04Z</time>
      </trkpt>
      <trkpt lat="45.95102" lon="4.71467">
        <ele>179</ele>
        <time>2018-08-14T10:31:05Z</time>
      </trkpt>
      <trkpt lat="45.95095" lon="4.71465">
        <ele>179</ele>
        <time>2018-08-14T10:31:06Z</time>
      </trkpt>
      <trkpt lat="45.9509" lon="4.71465">
        <ele>179</ele>
        <time>2018-08-14T10:31:07Z</time>
      </trkpt>
      <trkpt lat="45.95085" lon="4.71463">
        <ele>179</ele>
        <time>2018-08-14T10:31:08Z</time>
      </trkpt>
      <trkpt lat="45.95081" lon="4.71462">
        <ele>181</ele>
        <time>2018-08-14T10:31:09Z</time>
      </trkpt>
      <trkpt lat="45.95072" lon="4.71464">
        <ele>181</ele>
        <time>2018-08-14T10:31:11Z</time>
      </trkpt>
      <trkpt lat="45.95068" lon="4.71464">
        <ele>181</ele>
        <time>2018-08-14T10:31:12Z</time>
      </trkpt>
      <trkpt lat="45.9506" lon="4.71464">
        <ele>181</ele>
        <time>2018-08-14T10:31:14Z</time>
      </trkpt>
      <trkpt lat="45.95055" lon="4.71464">
        <ele>181</ele>
        <time>2018-08-14T10:31:15Z</time>
      </trkpt>
      <trkpt lat="45.95049" lon="4.71464">
        <ele>181</ele>
        <time>2018-08-14T10:31:16Z</time>
      </trkpt>
      <trkpt lat="45.95045" lon="4.71463">
        <ele>182</ele>
        <time>2018-08-14T10:31:17Z</time>
      </trkpt>
      <trkpt lat="45.95036" lon="4.71463">
        <ele>182</ele>
        <time>2018-08-14T10:31:19Z</time>
      </trkpt>
      <trkpt lat="45.95035" lon="4.71461">
        <ele>182</ele>
        <time>2018-08-14T10:31:20Z</time>
      </trkpt>
      <trkpt lat="45.95029" lon="4.71461">
        <ele>182</ele>
        <time>2018-08-14T10:31:22Z</time>
      </trkpt>
      <trkpt lat="45.95025" lon="4.7146">
        <ele>182</ele>
        <time>2018-08-14T10:31:23Z</time>
      </trkpt>
      <trkpt lat="45.95017" lon="4.71459">
        <ele>182</ele>
        <time>2018-08-14T10:31:27Z</time>
      </trkpt>
      <trkpt lat="45.95015" lon="4.71459">
        <ele>182</ele>
        <time>2018-08-14T10:31:28Z</time>
      </trkpt>
      <trkpt lat="45.95007" lon="4.71458">
        <ele>182</ele>
        <time>2018-08-14T10:31:29Z</time>
      </trkpt>
      <trkpt lat="45.95003" lon="4.71458">
        <ele>182</ele>
        <time>2018-08-14T10:31:30Z</time>
      </trkpt>
      <trkpt lat="45.94996" lon="4.71453">
        <ele>184</ele>
        <time>2018-08-14T10:31:32Z</time>
      </trkpt>
      <trkpt lat="45.94993" lon="4.7145">
        <ele>184</ele>
        <time>2018-08-14T10:31:33Z</time>
      </trkpt>
      <trkpt lat="45.94988" lon="4.7144">
        <ele>185</ele>
        <time>2018-08-14T10:31:35Z</time>
      </trkpt>
      <trkpt lat="45.94985" lon="4.71436">
        <ele>185</ele>
        <time>2018-08-14T10:31:36Z</time>
      </trkpt>
      <trkpt lat="45.9498" lon="4.71435">
        <ele>185</ele>
        <time>2018-08-14T10:31:37Z</time>
      </trkpt>
      <trkpt lat="45.94975" lon="4.71432">
        <ele>185</ele>
        <time>2018-08-14T10:31:38Z</time>
      </trkpt>
      <trkpt lat="45.9497" lon="4.71433">
        <ele>185</ele>
        <time>2018-08-14T10:31:39Z</time>
      </trkpt>
      <trkpt lat="45.94965" lon="4.71434">
        <ele>184</ele>
        <time>2018-08-14T10:31:40Z</time>
      </trkpt>
      <trkpt lat="45.9496" lon="4.71438">
        <ele>184</ele>
        <time>2018-08-14T10:31:41Z</time>
      </trkpt>
      <trkpt lat="45.94956" lon="4.7144">
        <ele>184</ele>
        <time>2018-08-14T10:31:42Z</time>
      </trkpt>
      <trkpt lat="45.94952" lon="4.71444">
        <ele>184</ele>
        <time>2018-08-14T10:31:43Z</time>
      </trkpt>
      <trkpt lat="45.94947" lon="4.71447">
        <ele>184</ele>
        <time>2018-08-14T10:31:44Z</time>
      </trkpt>
      <trkpt lat="45.94943" lon="4.71451">
        <ele>184</ele>
        <time>2018-08-14T10:31:45Z</time>
      </trkpt>
      <trkpt lat="45.94939" lon="4.71454">
        <ele>184</ele>
        <time>2018-08-14T10:31:46Z</time>
      </trkpt>
      <trkpt lat="45.94933" lon="4.71454">
        <ele>184</ele>
        <time>2018-08-14T10:31:47Z</time>
      </trkpt>
      <trkpt lat="45.94927" lon="4.71454">
        <ele>184</ele>
        <time>2018-08-14T10:31:48Z</time>
      </trkpt>
      <trkpt lat="45.94922" lon="4.71454">
        <ele>184</ele>
        <time>2018-08-14T10:31:49Z</time>
      </trkpt>
      <trkpt lat="45.94915" lon="4.71454">
        <ele>184</ele>
        <time>2018-08-14T10:31:50Z</time>
      </trkpt>
      <trkpt lat="45.94909" lon="4.71453">
        <ele>184</ele>
        <time>2018-08-14T10:31:51Z</time>
      </trkpt>
      <trkpt lat="45.94903" lon="4.71453">
        <ele>184</ele>
        <time>2018-08-14T10:31:52Z</time>
      </trkpt>
      <trkpt lat="45.94896" lon="4.71453">
        <ele>184</ele>
        <time>2018-08-14T10:31:53Z</time>
      </trkpt>
      <trkpt lat="45.9489" lon="4.71453">
        <ele>184</ele>
        <time>2018-08-14T10:31:54Z</time>
      </trkpt>
      <trkpt lat="45.94886" lon="4.71452">
        <ele>184</ele>
        <time>2018-08-14T10:31:55Z</time>
      </trkpt>
      <trkpt lat="45.9488" lon="4.71451">
        <ele>184</ele>
        <time>2018-08-14T10:31:56Z</time>
      </trkpt>
      <trkpt lat="45.94875" lon="4.7145">
        <ele>184</ele>
        <time>2018-08-14T10:31:57Z</time>
      </trkpt>
      <trkpt lat="45.94869" lon="4.71449">
        <ele>184</ele>
        <time>2018-08-14T10:31:58Z</time>
      </trkpt>
      <trkpt lat="45.94864" lon="4.71449">
        <ele>184</ele>
        <time>2018-08-14T10:31:59Z</time>
      </trkpt>
      <trkpt lat="45.94858" lon="4.71448">
        <ele>184</ele>
        <time>2018-08-14T10:32:00Z</time>
      </trkpt>
      <trkpt lat="45.94853" lon="4.71448">
        <ele>184</ele>
        <time>2018-08-14T10:32:01Z</time>
      </trkpt>
      <trkpt lat="45.94847" lon="4.71447">
        <ele>184</ele>
        <time>2018-08-14T10:32:02Z</time>
      </trkpt>
      <trkpt lat="45.94842" lon="4.71446">
        <ele>184</ele>
        <time>2018-08-14T10:32:03Z</time>
      </trkpt>
      <trkpt lat="45.94837" lon="4.71445">
        <ele>184</ele>
        <time>2018-08-14T10:32:04Z</time>
      </trkpt>
      <trkpt lat="45.94832" lon="4.71447">
        <ele>184</ele>
        <time>2018-08-14T10:32:05Z</time>
      </trkpt>
      <trkpt lat="45.94826" lon="4.71447">
        <ele>184</ele>
        <time>2018-08-14T10:32:06Z</time>
      </trkpt>
      <trkpt lat="45.9482" lon="4.71447">
        <ele>184</ele>
        <time>2018-08-14T10:32:07Z</time>
      </trkpt>
      <trkpt lat="45.94815" lon="4.71446">
        <ele>184</ele>
        <time>2018-08-14T10:32:08Z</time>
      </trkpt>
      <trkpt lat="45.94806" lon="4.71446">
        <ele>184</ele>
        <time>2018-08-14T10:32:10Z</time>
      </trkpt>
      <trkpt lat="45.94801" lon="4.71447">
        <ele>183</ele>
        <time>2018-08-14T10:32:11Z</time>
      </trkpt>
      <trkpt lat="45.94796" lon="4.71448">
        <ele>183</ele>
        <time>2018-08-14T10:32:12Z</time>
      </trkpt>
      <trkpt lat="45.94791" lon="4.71447">
        <ele>183</ele>
        <time>2018-08-14T10:32:13Z</time>
      </trkpt>
      <trkpt lat="45.94785" lon="4.71446">
        <ele>183</ele>
        <time>2018-08-14T10:32:14Z</time>
      </trkpt>
      <trkpt lat="45.94779" lon="4.71445">
        <ele>183</ele>
        <time>2018-08-14T10:32:15Z</time>
      </trkpt>
      <trkpt lat="45.94773" lon="4.71445">
        <ele>183</ele>
        <time>2018-08-14T10:32:16Z</time>
      </trkpt>
      <trkpt lat="45.94768" lon="4.71445">
        <ele>184</ele>
        <time>2018-08-14T10:32:17Z</time>
      </trkpt>
      <trkpt lat="45.94763" lon="4.71444">
        <ele>184</ele>
        <time>2018-08-14T10:32:18Z</time>
      </trkpt>
      <trkpt lat="45.94758" lon="4.71442">
        <ele>184</ele>
        <time>2018-08-14T10:32:19Z</time>
      </trkpt>
      <trkpt lat="45.94753" lon="4.71442">
        <ele>184</ele>
        <time>2018-08-14T10:32:20Z</time>
      </trkpt>
      <trkpt lat="45.94747" lon="4.71441">
        <ele>183</ele>
        <time>2018-08-14T10:32:21Z</time>
      </trkpt>
      <trkpt lat="45.94743" lon="4.71441">
        <ele>183</ele>
        <time>2018-08-14T10:32:22Z</time>
      </trkpt>
      <trkpt lat="45.94737" lon="4.71441">
        <ele>183</ele>
        <time>2018-08-14T10:32:23Z</time>
      </trkpt>
      <trkpt lat="45.94732" lon="4.7144">
        <ele>183</ele>
        <time>2018-08-14T10:32:24Z</time>
      </trkpt>
      <trkpt lat="45.94725" lon="4.71441">
        <ele>183</ele>
        <time>2018-08-14T10:32:25Z</time>
      </trkpt>
      <trkpt lat="45.94719" lon="4.7144">
        <ele>182</ele>
        <time>2018-08-14T10:32:26Z</time>
      </trkpt>
      <trkpt lat="45.94713" lon="4.7144">
        <ele>182</ele>
        <time>2018-08-14T10:32:27Z</time>
      </trkpt>
      <trkpt lat="45.94707" lon="4.71439">
        <ele>182</ele>
        <time>2018-08-14T10:32:28Z</time>
      </trkpt>
      <trkpt lat="45.94702" lon="4.71439">
        <ele>182</ele>
        <time>2018-08-14T10:32:29Z</time>
      </trkpt>
      <trkpt lat="45.94697" lon="4.71439">
        <ele>182</ele>
        <time>2018-08-14T10:32:30Z</time>
      </trkpt>
      <trkpt lat="45.94692" lon="4.71438">
        <ele>182</ele>
        <time>2018-08-14T10:32:31Z</time>
      </trkpt>
      <trkpt lat="45.94687" lon="4.71437">
        <ele>182</ele>
        <time>2018-08-14T10:32:32Z</time>
      </trkpt>
      <trkpt lat="45.94681" lon="4.71437">
        <ele>182</ele>
        <time>2018-08-14T10:32:33Z</time>
      </trkpt>
      <trkpt lat="45.94675" lon="4.71437">
        <ele>182</ele>
        <time>2018-08-14T10:32:34Z</time>
      </trkpt>
      <trkpt lat="45.9467" lon="4.71436">
        <ele>182</ele>
        <time>2018-08-14T10:32:35Z</time>
      </trkpt>
      <trkpt lat="45.94665" lon="4.71436">
        <ele>182</ele>
        <time>2018-08-14T10:32:36Z</time>
      </trkpt>
      <trkpt lat="45.94659" lon="4.71437">
        <ele>182</ele>
        <time>2018-08-14T10:32:37Z</time>
      </trkpt>
      <trkpt lat="45.94654" lon="4.71437">
        <ele>182</ele>
        <time>2018-08-14T10:32:38Z</time>
      </trkpt>
      <trkpt lat="45.94649" lon="4.71437">
        <ele>182</ele>
        <time>2018-08-14T10:32:39Z</time>
      </trkpt>
      <trkpt lat="45.94642" lon="4.71437">
        <ele>182</ele>
        <time>2018-08-14T10:32:40Z</time>
      </trkpt>
      <trkpt lat="45.94637" lon="4.71435">
        <ele>182</ele>
        <time>2018-08-14T10:32:41Z</time>
      </trkpt>
      <trkpt lat="45.94631" lon="4.71436">
        <ele>181</ele>
        <time>2018-08-14T10:32:42Z</time>
      </trkpt>
      <trkpt lat="45.94624" lon="4.71435">
        <ele>182</ele>
        <time>2018-08-14T10:32:43Z</time>
      </trkpt>
      <trkpt lat="45.94618" lon="4.71437">
        <ele>182</ele>
        <time>2018-08-14T10:32:44Z</time>
      </trkpt>
      <trkpt lat="45.94612" lon="4.71435">
        <ele>182</ele>
        <time>2018-08-14T10:32:45Z</time>
      </trkpt>
      <trkpt lat="45.94606" lon="4.71434">
        <ele>182</ele>
        <time>2018-08-14T10:32:46Z</time>
      </trkpt>
      <trkpt lat="45.94599" lon="4.71435">
        <ele>182</ele>
        <time>2018-08-14T10:32:47Z</time>
      </trkpt>
      <trkpt lat="45.94592" lon="4.71434">
        <ele>182</ele>
        <time>2018-08-14T10:32:48Z</time>
      </trkpt>
      <trkpt lat="45.94586" lon="4.71434">
        <ele>183</ele>
        <time>2018-08-14T10:32:49Z</time>
      </trkpt>
      <trkpt lat="45.94579" lon="4.71434">
        <ele>182</ele>
        <time>2018-08-14T10:32:50Z</time>
      </trkpt>
      <trkpt lat="45.94572" lon="4.71434">
        <ele>182</ele>
        <time>2018-08-14T10:32:51Z</time>
      </trkpt>
      <trkpt lat="45.94565" lon="4.71435">
        <ele>182</ele>
        <time>2018-08-14T10:32:52Z</time>
      </trkpt>
      <trkpt lat="45.94559" lon="4.71438">
        <ele>181</ele>
        <time>2018-08-14T10:32:53Z</time>
      </trkpt>
      <trkpt lat="45.94552" lon="4.71439">
        <ele>181</ele>
        <time>2018-08-14T10:32:54Z</time>
      </trkpt>
      <trkpt lat="45.94546" lon="4.71442">
        <ele>181</ele>
        <time>2018-08-14T10:32:55Z</time>
      </trkpt>
      <trkpt lat="45.94541" lon="4.71445">
        <ele>181</ele>
        <time>2018-08-14T10:32:56Z</time>
      </trkpt>
      <trkpt lat="45.94534" lon="4.71448">
        <ele>180</ele>
        <time>2018-08-14T10:32:57Z</time>
      </trkpt>
      <trkpt lat="45.94526" lon="4.71449">
        <ele>180</ele>
        <time>2018-08-14T10:32:58Z</time>
      </trkpt>
      <trkpt lat="45.94519" lon="4.71451">
        <ele>180</ele>
        <time>2018-08-14T10:32:59Z</time>
      </trkpt>
      <trkpt lat="45.94512" lon="4.71453">
        <ele>180</ele>
        <time>2018-08-14T10:33:00Z</time>
      </trkpt>
      <trkpt lat="45.94504" lon="4.71456">
        <ele>180</ele>
        <time>2018-08-14T10:33:01Z</time>
      </trkpt>
      <trkpt lat="45.94497" lon="4.71457">
        <ele>179</ele>
        <time>2018-08-14T10:33:02Z</time>
      </trkpt>
      <trkpt lat="45.94489" lon="4.7146">
        <ele>179</ele>
        <time>2018-08-14T10:33:03Z</time>
      </trkpt>
      <trkpt lat="45.94482" lon="4.71463">
        <ele>179</ele>
        <time>2018-08-14T10:33:04Z</time>
      </trkpt>
      <trkpt lat="45.94476" lon="4.71466">
        <ele>179</ele>
        <time>2018-08-14T10:33:05Z</time>
      </trkpt>
      <trkpt lat="45.94469" lon="4.7147">
        <ele>179</ele>
        <time>2018-08-14T10:33:06Z</time>
      </trkpt>
      <trkpt lat="45.94461" lon="4.71472">
        <ele>179</ele>
        <time>2018-08-14T10:33:07Z</time>
      </trkpt>
      <trkpt lat="45.94454" lon="4.71474">
        <ele>179</ele>
        <time>2018-08-14T10:33:08Z</time>
      </trkpt>
      <trkpt lat="45.94448" lon="4.71478">
        <ele>179</ele>
        <time>2018-08-14T10:33:09Z</time>
      </trkpt>
      <trkpt lat="45.9444" lon="4.71481">
        <ele>179</ele>
        <time>2018-08-14T10:33:10Z</time>
      </trkpt>
      <trkpt lat="45.94432" lon="4.71484">
        <ele>179</ele>
        <time>2018-08-14T10:33:11Z</time>
      </trkpt>
      <trkpt lat="45.94426" lon="4.71486">
        <ele>178</ele>
        <time>2018-08-14T10:33:12Z</time>
      </trkpt>
      <trkpt lat="45.94418" lon="4.7149">
        <ele>178</ele>
        <time>2018-08-14T10:33:13Z</time>
      </trkpt>
      <trkpt lat="45.9441" lon="4.71493">
        <ele>178</ele>
        <time>2018-08-14T10:33:14Z</time>
      </trkpt>
      <trkpt lat="45.94403" lon="4.71496">
        <ele>178</ele>
        <time>2018-08-14T10:33:15Z</time>
      </trkpt>
      <trkpt lat="45.94395" lon="4.71499">
        <ele>178</ele>
        <time>2018-08-14T10:33:16Z</time>
      </trkpt>
      <trkpt lat="45.94388" lon="4.71502">
        <ele>177</ele>
        <time>2018-08-14T10:33:17Z</time>
      </trkpt>
      <trkpt lat="45.9438" lon="4.71504">
        <ele>177</ele>
        <time>2018-08-14T10:33:18Z</time>
      </trkpt>
      <trkpt lat="45.94373" lon="4.71508">
        <ele>176</ele>
        <time>2018-08-14T10:33:19Z</time>
      </trkpt>
      <trkpt lat="45.94366" lon="4.71512">
        <ele>176</ele>
        <time>2018-08-14T10:33:20Z</time>
      </trkpt>
      <trkpt lat="45.94358" lon="4.71515">
        <ele>176</ele>
        <time>2018-08-14T10:33:21Z</time>
      </trkpt>
      <trkpt lat="45.9435" lon="4.71518">
        <ele>176</ele>
        <time>2018-08-14T10:33:22Z</time>
      </trkpt>
      <trkpt lat="45.94343" lon="4.71522">
        <ele>176</ele>
        <time>2018-08-14T10:33:23Z</time>
      </trkpt>
      <trkpt lat="45.94336" lon="4.71525">
        <ele>176</ele>
        <time>2018-08-14T10:33:24Z</time>
      </trkpt>
      <trkpt lat="45.94328" lon="4.71527">
        <ele>176</ele>
        <time>2018-08-14T10:33:25Z</time>
      </trkpt>
      <trkpt lat="45.94321" lon="4.7153">
        <ele>176</ele>
        <time>2018-08-14T10:33:26Z</time>
      </trkpt>
      <trkpt lat="45.94312" lon="4.71532">
        <ele>175</ele>
        <time>2018-08-14T10:33:27Z</time>
      </trkpt>
      <trkpt lat="45.94304" lon="4.71534">
        <ele>175</ele>
        <time>2018-08-14T10:33:28Z</time>
      </trkpt>
      <trkpt lat="45.94297" lon="4.71538">
        <ele>175</ele>
        <time>2018-08-14T10:33:29Z</time>
      </trkpt>
      <trkpt lat="45.94289" lon="4.71539">
        <ele>175</ele>
        <time>2018-08-14T10:33:30Z</time>
      </trkpt>
      <trkpt lat="45.94281" lon="4.71541">
        <ele>175</ele>
        <time>2018-08-14T10:33:31Z</time>
      </trkpt>
      <trkpt lat="45.94273" lon="4.71544">
        <ele>175</ele>
        <time>2018-08-14T10:33:32Z</time>
      </trkpt>
      <trkpt lat="45.94266" lon="4.71546">
        <ele>175</ele>
        <time>2018-08-14T10:33:33Z</time>
      </trkpt>
      <trkpt lat="45.94258" lon="4.71549">
        <ele>175</ele>
        <time>2018-08-14T10:33:34Z</time>
      </trkpt>
      <trkpt lat="45.94251" lon="4.71552">
        <ele>175</ele>
        <time>2018-08-14T10:33:35Z</time>
      </trkpt>
      <trkpt lat="45.94245" lon="4.71556">
        <ele>174</ele>
        <time>2018-08-14T10:33:36Z</time>
      </trkpt>
      <trkpt lat="45.94239" lon="4.7156">
        <ele>174</ele>
        <time>2018-08-14T10:33:37Z</time>
      </trkpt>
      <trkpt lat="45.94232" lon="4.71563">
        <ele>174</ele>
        <time>2018-08-14T10:33:38Z</time>
      </trkpt>
      <trkpt lat="45.94225" lon="4.71566">
        <ele>174</ele>
        <time>2018-08-14T10:33:39Z</time>
      </trkpt>
      <trkpt lat="45.94219" lon="4.71569">
        <ele>174</ele>
        <time>2018-08-14T10:33:40Z</time>
      </trkpt>
      <trkpt lat="45.94212" lon="4.71572">
        <ele>174</ele>
        <time>2018-08-14T10:33:41Z</time>
      </trkpt>
      <trkpt lat="45.94205" lon="4.71576">
        <ele>174</ele>
        <time>2018-08-14T10:33:42Z</time>
      </trkpt>
      <trkpt lat="45.94199" lon="4.71578">
        <ele>174</ele>
        <time>2018-08-14T10:33:43Z</time>
      </trkpt>
      <trkpt lat="45.94192" lon="4.7158">
        <ele>174</ele>
        <time>2018-08-14T10:33:44Z</time>
      </trkpt>
      <trkpt lat="45.94187" lon="4.71583">
        <ele>174</ele>
        <time>2018-08-14T10:33:45Z</time>
      </trkpt>
      <trkpt lat="45.94181" lon="4.71586">
        <ele>173</ele>
        <time>2018-08-14T10:33:46Z</time>
      </trkpt>
      <trkpt lat="45.94174" lon="4.71588">
        <ele>174</ele>
        <time>2018-08-14T10:33:47Z</time>
      </trkpt>
      <trkpt lat="45.94168" lon="4.7159">
        <ele>174</ele>
        <time>2018-08-14T10:33:48Z</time>
      </trkpt>
      <trkpt lat="45.94162" lon="4.71593">
        <ele>174</ele>
        <time>2018-08-14T10:33:49Z</time>
      </trkpt>
      <trkpt lat="45.94156" lon="4.71596">
        <ele>173</ele>
        <time>2018-08-14T10:33:50Z</time>
      </trkpt>
      <trkpt lat="45.9415" lon="4.71599">
        <ele>173</ele>
        <time>2018-08-14T10:33:51Z</time>
      </trkpt>
      <trkpt lat="45.94144" lon="4.716">
        <ele>173</ele>
        <time>2018-08-14T10:33:52Z</time>
      </trkpt>
      <trkpt lat="45.94137" lon="4.71604">
        <ele>173</ele>
        <time>2018-08-14T10:33:53Z</time>
      </trkpt>
      <trkpt lat="45.9413" lon="4.71606">
        <ele>173</ele>
        <time>2018-08-14T10:33:54Z</time>
      </trkpt>
      <trkpt lat="45.94124" lon="4.71609">
        <ele>173</ele>
        <time>2018-08-14T10:33:55Z</time>
      </trkpt>
      <trkpt lat="45.94117" lon="4.71611">
        <ele>173</ele>
        <time>2018-08-14T10:33:56Z</time>
      </trkpt>
      <trkpt lat="45.94109" lon="4.71614">
        <ele>173</ele>
        <time>2018-08-14T10:33:57Z</time>
      </trkpt>
      <trkpt lat="45.94102" lon="4.71616">
        <ele>173</ele>
        <time>2018-08-14T10:33:58Z</time>
      </trkpt>
      <trkpt lat="45.94095" lon="4.71618">
        <ele>173</ele>
        <time>2018-08-14T10:33:59Z</time>
      </trkpt>
      <trkpt lat="45.94089" lon="4.71619">
        <ele>173</ele>
        <time>2018-08-14T10:34:00Z</time>
      </trkpt>
      <trkpt lat="45.94083" lon="4.71622">
        <ele>174</ele>
        <time>2018-08-14T10:34:01Z</time>
      </trkpt>
      <trkpt lat="45.94077" lon="4.71624">
        <ele>174</ele>
        <time>2018-08-14T10:34:02Z</time>
      </trkpt>
      <trkpt lat="45.94071" lon="4.71626">
        <ele>174</ele>
        <time>2018-08-14T10:34:03Z</time>
      </trkpt>
      <trkpt lat="45.94065" lon="4.71628">
        <ele>174</ele>
        <time>2018-08-14T10:34:04Z</time>
      </trkpt>
      <trkpt lat="45.94058" lon="4.71631">
        <ele>174</ele>
        <time>2018-08-14T10:34:05Z</time>
      </trkpt>
      <trkpt lat="45.94052" lon="4.71634">
        <ele>175</ele>
        <time>2018-08-14T10:34:06Z</time>
      </trkpt>
      <trkpt lat="45.94044" lon="4.71635">
        <ele>175</ele>
        <time>2018-08-14T10:34:07Z</time>
      </trkpt>
      <trkpt lat="45.94037" lon="4.71638">
        <ele>175</ele>
        <time>2018-08-14T10:34:08Z</time>
      </trkpt>
      <trkpt lat="45.94031" lon="4.7164">
        <ele>175</ele>
        <time>2018-08-14T10:34:09Z</time>
      </trkpt>
      <trkpt lat="45.94024" lon="4.71643">
        <ele>175</ele>
        <time>2018-08-14T10:34:10Z</time>
      </trkpt>
      <trkpt lat="45.94018" lon="4.71645">
        <ele>175</ele>
        <time>2018-08-14T10:34:11Z</time>
      </trkpt>
      <trkpt lat="45.94015" lon="4.7165">
        <ele>176</ele>
        <time>2018-08-14T10:34:12Z</time>
      </trkpt>
      <trkpt lat="45.94009" lon="4.71652">
        <ele>176</ele>
        <time>2018-08-14T10:34:13Z</time>
      </trkpt>
      <trkpt lat="45.94003" lon="4.71655">
        <ele>176</ele>
        <time>2018-08-14T10:34:14Z</time>
      </trkpt>
      <trkpt lat="45.93997" lon="4.71657">
        <ele>177</ele>
        <time>2018-08-14T10:34:15Z</time>
      </trkpt>
      <trkpt lat="45.93992" lon="4.71658">
        <ele>177</ele>
        <time>2018-08-14T10:34:16Z</time>
      </trkpt>
      <trkpt lat="45.93987" lon="4.71659">
        <ele>177</ele>
        <time>2018-08-14T10:34:17Z</time>
      </trkpt>
      <trkpt lat="45.93983" lon="4.7166">
        <ele>177</ele>
        <time>2018-08-14T10:34:18Z</time>
      </trkpt>
      <trkpt lat="45.93978" lon="4.7166">
        <ele>177</ele>
        <time>2018-08-14T10:34:19Z</time>
      </trkpt>
      <trkpt lat="45.93972" lon="4.71661">
        <ele>177</ele>
        <time>2018-08-14T10:34:20Z</time>
      </trkpt>
      <trkpt lat="45.93967" lon="4.71663">
        <ele>177</ele>
        <time>2018-08-14T10:34:21Z</time>
      </trkpt>
      <trkpt lat="45.93961" lon="4.71665">
        <ele>177</ele>
        <time>2018-08-14T10:34:22Z</time>
      </trkpt>
      <trkpt lat="45.93954" lon="4.71667">
        <ele>175</ele>
        <time>2018-08-14T10:34:23Z</time>
      </trkpt>
      <trkpt lat="45.93949" lon="4.71668">
        <ele>175</ele>
        <time>2018-08-14T10:34:24Z</time>
      </trkpt>
      <trkpt lat="45.93942" lon="4.7167">
        <ele>175</ele>
        <time>2018-08-14T10:34:25Z</time>
      </trkpt>
      <trkpt lat="45.93936" lon="4.71671">
        <ele>175</ele>
        <time>2018-08-14T10:34:26Z</time>
      </trkpt>
      <trkpt lat="45.93929" lon="4.71674">
        <ele>175</ele>
        <time>2018-08-14T10:34:27Z</time>
      </trkpt>
      <trkpt lat="45.93923" lon="4.71678">
        <ele>175</ele>
        <time>2018-08-14T10:34:28Z</time>
      </trkpt>
      <trkpt lat="45.93917" lon="4.7168">
        <ele>175</ele>
        <time>2018-08-14T10:34:29Z</time>
      </trkpt>
      <trkpt lat="45.93911" lon="4.71682">
        <ele>175</ele>
        <time>2018-08-14T10:34:30Z</time>
      </trkpt>
      <trkpt lat="45.93904" lon="4.71684">
        <ele>174</ele>
        <time>2018-08-14T10:34:31Z</time>
      </trkpt>
      <trkpt lat="45.93897" lon="4.71685">
        <ele>174</ele>
        <time>2018-08-14T10:34:32Z</time>
      </trkpt>
      <trkpt lat="45.93892" lon="4.71687">
        <ele>174</ele>
        <time>2018-08-14T10:34:33Z</time>
      </trkpt>
      <trkpt lat="45.93885" lon="4.7169">
        <ele>174</ele>
        <time>2018-08-14T10:34:34Z</time>
      </trkpt>
      <trkpt lat="45.9388" lon="4.71693">
        <ele>174</ele>
        <time>2018-08-14T10:34:35Z</time>
      </trkpt>
      <trkpt lat="45.93875" lon="4.71695">
        <ele>174</ele>
        <time>2018-08-14T10:34:36Z</time>
      </trkpt>
      <trkpt lat="45.93871" lon="4.71698">
        <ele>174</ele>
        <time>2018-08-14T10:34:37Z</time>
      </trkpt>
      <trkpt lat="45.93863" lon="4.717">
        <ele>174</ele>
        <time>2018-08-14T10:34:38Z</time>
      </trkpt>
      <trkpt lat="45.93858" lon="4.71703">
        <ele>174</ele>
        <time>2018-08-14T10:34:39Z</time>
      </trkpt>
      <trkpt lat="45.93851" lon="4.71705">
        <ele>174</ele>
        <time>2018-08-14T10:34:40Z</time>
      </trkpt>
      <trkpt lat="45.93845" lon="4.71707">
        <ele>174</ele>
        <time>2018-08-14T10:34:41Z</time>
      </trkpt>
      <trkpt lat="45.93838" lon="4.71708">
        <ele>175</ele>
        <time>2018-08-14T10:34:42Z</time>
      </trkpt>
      <trkpt lat="45.93832" lon="4.7171">
        <ele>175</ele>
        <time>2018-08-14T10:34:43Z</time>
      </trkpt>
      <trkpt lat="45.93825" lon="4.71712">
        <ele>175</ele>
        <time>2018-08-14T10:34:44Z</time>
      </trkpt>
      <trkpt lat="45.93819" lon="4.71715">
        <ele>175</ele>
        <time>2018-08-14T10:34:45Z</time>
      </trkpt>
      <trkpt lat="45.93813" lon="4.71716">
        <ele>175</ele>
        <time>2018-08-14T10:34:46Z</time>
      </trkpt>
      <trkpt lat="45.93806" lon="4.71719">
        <ele>175</ele>
        <time>2018-08-14T10:34:47Z</time>
      </trkpt>
      <trkpt lat="45.938" lon="4.71722">
        <ele>175</ele>
        <time>2018-08-14T10:34:48Z</time>
      </trkpt>
      <trkpt lat="45.93794" lon="4.71725">
        <ele>175</ele>
        <time>2018-08-14T10:34:49Z</time>
      </trkpt>
      <trkpt lat="45.93787" lon="4.71727">
        <ele>175</ele>
        <time>2018-08-14T10:34:50Z</time>
      </trkpt>
      <trkpt lat="45.93782" lon="4.71729">
        <ele>175</ele>
        <time>2018-08-14T10:34:51Z</time>
      </trkpt>
      <trkpt lat="45.93776" lon="4.71731">
        <ele>175</ele>
        <time>2018-08-14T10:34:52Z</time>
      </trkpt>
      <trkpt lat="45.93771" lon="4.71733">
        <ele>175</ele>
        <time>2018-08-14T10:34:53Z</time>
      </trkpt>
      <trkpt lat="45.93766" lon="4.71737">
        <ele>175</ele>
        <time>2018-08-14T10:34:54Z</time>
      </trkpt>
      <trkpt lat="45.9376" lon="4.71739">
        <ele>175</ele>
        <time>2018-08-14T10:34:55Z</time>
      </trkpt>
      <trkpt lat="45.93754" lon="4.71739">
        <ele>175</ele>
        <time>2018-08-14T10:34:56Z</time>
      </trkpt>
      <trkpt lat="45.9375" lon="4.71743">
        <ele>175</ele>
        <time>2018-08-14T10:34:57Z</time>
      </trkpt>
      <trkpt lat="45.93744" lon="4.71746">
        <ele>175</ele>
        <time>2018-08-14T10:34:58Z</time>
      </trkpt>
      <trkpt lat="45.93737" lon="4.7175">
        <ele>176</ele>
        <time>2018-08-14T10:34:59Z</time>
      </trkpt>
      <trkpt lat="45.9373" lon="4.71753">
        <ele>176</ele>
        <time>2018-08-14T10:35:00Z</time>
      </trkpt>
      <trkpt lat="45.93723" lon="4.71757">
        <ele>176</ele>
        <time>2018-08-14T10:35:01Z</time>
      </trkpt>
      <trkpt lat="45.93719" lon="4.71766">
        <ele>176</ele>
        <time>2018-08-14T10:35:02Z</time>
      </trkpt>
      <trkpt lat="45.93715" lon="4.71774">
        <ele>176</ele>
        <time>2018-08-14T10:35:03Z</time>
      </trkpt>
      <trkpt lat="45.93712" lon="4.71781">
        <ele>176</ele>
        <time>2018-08-14T10:35:04Z</time>
      </trkpt>
      <trkpt lat="45.9371" lon="4.71791">
        <ele>176</ele>
        <time>2018-08-14T10:35:05Z</time>
      </trkpt>
      <trkpt lat="45.93706" lon="4.71796">
        <ele>176</ele>
        <time>2018-08-14T10:35:06Z</time>
      </trkpt>
      <trkpt lat="45.93702" lon="4.71804">
        <ele>176</ele>
        <time>2018-08-14T10:35:07Z</time>
      </trkpt>
      <trkpt lat="45.93699" lon="4.71814">
        <ele>176</ele>
        <time>2018-08-14T10:35:08Z</time>
      </trkpt>
      <trkpt lat="45.93696" lon="4.71821">
        <ele>176</ele>
        <time>2018-08-14T10:35:09Z</time>
      </trkpt>
      <trkpt lat="45.93693" lon="4.71829">
        <ele>176</ele>
        <time>2018-08-14T10:35:10Z</time>
      </trkpt>
      <trkpt lat="45.9369" lon="4.71837">
        <ele>175</ele>
        <time>2018-08-14T10:35:11Z</time>
      </trkpt>
      <trkpt lat="45.93686" lon="4.71845">
        <ele>175</ele>
        <time>2018-08-14T10:35:12Z</time>
      </trkpt>
      <trkpt lat="45.93687" lon="4.71858">
        <ele>175</ele>
        <time>2018-08-14T10:35:13Z</time>
      </trkpt>
      <trkpt lat="45.93686" lon="4.71866">
        <ele>175</ele>
        <time>2018-08-14T10:35:14Z</time>
      </trkpt>
      <trkpt lat="45.93685" lon="4.71876">
        <ele>175</ele>
        <time>2018-08-14T10:35:15Z</time>
      </trkpt>
      <trkpt lat="45.93681" lon="4.71881">
        <ele>175</ele>
        <time>2018-08-14T10:35:16Z</time>
      </trkpt>
      <trkpt lat="45.93679" lon="4.71886">
        <ele>175</ele>
        <time>2018-08-14T10:35:17Z</time>
      </trkpt>
      <trkpt lat="45.93675" lon="4.71893">
        <ele>175</ele>
        <time>2018-08-14T10:35:18Z</time>
      </trkpt>
      <trkpt lat="45.93671" lon="4.719">
        <ele>175</ele>
        <time>2018-08-14T10:35:19Z</time>
      </trkpt>
      <trkpt lat="45.93669" lon="4.71909">
        <ele>175</ele>
        <time>2018-08-14T10:35:20Z</time>
      </trkpt>
      <trkpt lat="45.93666" lon="4.71917">
        <ele>175</ele>
        <time>2018-08-14T10:35:21Z</time>
      </trkpt>
      <trkpt lat="45.93662" lon="4.71925">
        <ele>175</ele>
        <time>2018-08-14T10:35:22Z</time>
      </trkpt>
      <trkpt lat="45.93657" lon="4.71931">
        <ele>175</ele>
        <time>2018-08-14T10:35:23Z</time>
      </trkpt>
      <trkpt lat="45.93654" lon="4.71939">
        <ele>175</ele>
        <time>2018-08-14T10:35:24Z</time>
      </trkpt>
      <trkpt lat="45.93653" lon="4.71949">
        <ele>175</ele>
        <time>2018-08-14T10:35:25Z</time>
      </trkpt>
      <trkpt lat="45.93649" lon="4.71957">
        <ele>175</ele>
        <time>2018-08-14T10:35:26Z</time>
      </trkpt>
      <trkpt lat="45.93646" lon="4.71964">
        <ele>175</ele>
        <time>2018-08-14T10:35:27Z</time>
      </trkpt>
      <trkpt lat="45.93643" lon="4.71973">
        <ele>175</ele>
        <time>2018-08-14T10:35:28Z</time>
      </trkpt>
      <trkpt lat="45.9364" lon="4.71981">
        <ele>175</ele>
        <time>2018-08-14T10:35:29Z</time>
      </trkpt>
      <trkpt lat="45.93637" lon="4.71989">
        <ele>175</ele>
        <time>2018-08-14T10:35:30Z</time>
      </trkpt>
      <trkpt lat="45.93634" lon="4.71997">
        <ele>175</ele>
        <time>2018-08-14T10:35:31Z</time>
      </trkpt>
      <trkpt lat="45.93631" lon="4.72006">
        <ele>174</ele>
        <time>2018-08-14T10:35:32Z</time>
      </trkpt>
      <trkpt lat="45.93627" lon="4.72013">
        <ele>175</ele>
        <time>2018-08-14T10:35:33Z</time>
      </trkpt>
      <trkpt lat="45.93624" lon="4.72022">
        <ele>175</ele>
        <time>2018-08-14T10:35:34Z</time>
      </trkpt>
      <trkpt lat="45.9362" lon="4.72029">
        <ele>175</ele>
        <time>2018-08-14T10:35:35Z</time>
      </trkpt>
      <trkpt lat="45.93616" lon="4.72036">
        <ele>175</ele>
        <time>2018-08-14T10:35:36Z</time>
      </trkpt>
      <trkpt lat="45.93614" lon="4.72043">
        <ele>175</ele>
        <time>2018-08-14T10:35:37Z</time>
      </trkpt>
      <trkpt lat="45.93609" lon="4.72048">
        <ele>175</ele>
        <time>2018-08-14T10:35:38Z</time>
      </trkpt>
      <trkpt lat="45.93605" lon="4.72053">
        <ele>175</ele>
        <time>2018-08-14T10:35:39Z</time>
      </trkpt>
      <trkpt lat="45.93601" lon="4.7206">
        <ele>175</ele>
        <time>2018-08-14T10:35:40Z</time>
      </trkpt>
      <trkpt lat="45.93597" lon="4.72067">
        <ele>175</ele>
        <time>2018-08-14T10:35:41Z</time>
      </trkpt>
      <trkpt lat="45.93593" lon="4.72075">
        <ele>175</ele>
        <time>2018-08-14T10:35:42Z</time>
      </trkpt>
      <trkpt lat="45.93587" lon="4.72081">
        <ele>176</ele>
        <time>2018-08-14T10:35:43Z</time>
      </trkpt>
      <trkpt lat="45.93586" lon="4.7209">
        <ele>175</ele>
        <time>2018-08-14T10:35:44Z</time>
      </trkpt>
      <trkpt lat="45.93586" lon="4.721">
        <ele>175</ele>
        <time>2018-08-14T10:35:45Z</time>
      </trkpt>
      <trkpt lat="45.93584" lon="4.72108">
        <ele>174</ele>
        <time>2018-08-14T10:35:46Z</time>
      </trkpt>
      <trkpt lat="45.93581" lon="4.72115">
        <ele>175</ele>
        <time>2018-08-14T10:35:47Z</time>
      </trkpt>
      <trkpt lat="45.93578" lon="4.72121">
        <ele>175</ele>
        <time>2018-08-14T10:35:48Z</time>
      </trkpt>
      <trkpt lat="45.93577" lon="4.7213">
        <ele>174</ele>
        <time>2018-08-14T10:35:49Z</time>
      </trkpt>
      <trkpt lat="45.93575" lon="4.72138">
        <ele>174</ele>
        <time>2018-08-14T10:35:50Z</time>
      </trkpt>
      <trkpt lat="45.93572" lon="4.72145">
        <ele>174</ele>
        <time>2018-08-14T10:35:51Z</time>
      </trkpt>
      <trkpt lat="45.93568" lon="4.72152">
        <ele>174</ele>
        <time>2018-08-14T10:35:52Z</time>
      </trkpt>
      <trkpt lat="45.93565" lon="4.7216">
        <ele>174</ele>
        <time>2018-08-14T10:35:53Z</time>
      </trkpt>
      <trkpt lat="45.93563" lon="4.72169">
        <ele>173</ele>
        <time>2018-08-14T10:35:54Z</time>
      </trkpt>
      <trkpt lat="45.93559" lon="4.72179">
        <ele>173</ele>
        <time>2018-08-14T10:35:55Z</time>
      </trkpt>
      <trkpt lat="45.93556" lon="4.72189">
        <ele>173</ele>
        <time>2018-08-14T10:35:56Z</time>
      </trkpt>
      <trkpt lat="45.93552" lon="4.72197">
        <ele>173</ele>
        <time>2018-08-14T10:35:57Z</time>
      </trkpt>
      <trkpt lat="45.9355" lon="4.72205">
        <ele>173</ele>
        <time>2018-08-14T10:35:58Z</time>
      </trkpt>
      <trkpt lat="45.93549" lon="4.72213">
        <ele>173</ele>
        <time>2018-08-14T10:35:59Z</time>
      </trkpt>
      <trkpt lat="45.93546" lon="4.72221">
        <ele>172</ele>
        <time>2018-08-14T10:36:00Z</time>
      </trkpt>
      <trkpt lat="45.93543" lon="4.72228">
        <ele>172</ele>
        <time>2018-08-14T10:36:01Z</time>
      </trkpt>
      <trkpt lat="45.9354" lon="4.72237">
        <ele>172</ele>
        <time>2018-08-14T10:36:02Z</time>
      </trkpt>
      <trkpt lat="45.93536" lon="4.72245">
        <ele>172</ele>
        <time>2018-08-14T10:36:03Z</time>
      </trkpt>
      <trkpt lat="45.93533" lon="4.72251">
        <ele>172</ele>
        <time>2018-08-14T10:36:04Z</time>
      </trkpt>
      <trkpt lat="45.9353" lon="4.72256">
        <ele>172</ele>
        <time>2018-08-14T10:36:05Z</time>
      </trkpt>
      <trkpt lat="45.93526" lon="4.72263">
        <ele>172</ele>
        <time>2018-08-14T10:36:06Z</time>
      </trkpt>
      <trkpt lat="45.93524" lon="4.72271">
        <ele>172</ele>
        <time>2018-08-14T10:36:07Z</time>
      </trkpt>
      <trkpt lat="45.93521" lon="4.72279">
        <ele>172</ele>
        <time>2018-08-14T10:36:08Z</time>
      </trkpt>
      <trkpt lat="45.93517" lon="4.72285">
        <ele>172</ele>
        <time>2018-08-14T10:36:09Z</time>
      </trkpt>
      <trkpt lat="45.93514" lon="4.72293">
        <ele>172</ele>
        <time>2018-08-14T10:36:10Z</time>
      </trkpt>
      <trkpt lat="45.9351" lon="4.72299">
        <ele>172</ele>
        <time>2018-08-14T10:36:11Z</time>
      </trkpt>
      <trkpt lat="45.93506" lon="4.72306">
        <ele>173</ele>
        <time>2018-08-14T10:36:12Z</time>
      </trkpt>
      <trkpt lat="45.93501" lon="4.72313">
        <ele>173</ele>
        <time>2018-08-14T10:36:13Z</time>
      </trkpt>
      <trkpt lat="45.93497" lon="4.72321">
        <ele>173</ele>
        <time>2018-08-14T10:36:14Z</time>
      </trkpt>
      <trkpt lat="45.93492" lon="4.72328">
        <ele>173</ele>
        <time>2018-08-14T10:36:15Z</time>
      </trkpt>
      <trkpt lat="45.93487" lon="4.72334">
        <ele>173</ele>
        <time>2018-08-14T10:36:16Z</time>
      </trkpt>
      <trkpt lat="45.93483" lon="4.7234">
        <ele>173</ele>
        <time>2018-08-14T10:36:17Z</time>
      </trkpt>
      <trkpt lat="45.93478" lon="4.72348">
        <ele>173</ele>
        <time>2018-08-14T10:36:18Z</time>
      </trkpt>
      <trkpt lat="45.93474" lon="4.72354">
        <ele>173</ele>
        <time>2018-08-14T10:36:19Z</time>
      </trkpt>
      <trkpt lat="45.93469" lon="4.72361">
        <ele>173</ele>
        <time>2018-08-14T10:36:20Z</time>
      </trkpt>
      <trkpt lat="45.93464" lon="4.72367">
        <ele>173</ele>
        <time>2018-08-14T10:36:21Z</time>
      </trkpt>
      <trkpt lat="45.93458" lon="4.72372">
        <ele>173</ele>
        <time>2018-08-14T10:36:22Z</time>
      </trkpt>
      <trkpt lat="45.93454" lon="4.72378">
        <ele>173</ele>
        <time>2018-08-14T10:36:23Z</time>
      </trkpt>
      <trkpt lat="45.93449" lon="4.72383">
        <ele>173</ele>
        <time>2018-08-14T10:36:24Z</time>
      </trkpt>
      <trkpt lat="45.93443" lon="4.72385">
        <ele>173</ele>
        <time>2018-08-14T10:36:25Z</time>
      </trkpt>
      <trkpt lat="45.93438" lon="4.72389">
        <ele>173</ele>
        <time>2018-08-14T10:36:26Z</time>
      </trkpt>
      <trkpt lat="45.93433" lon="4.72397">
        <ele>173</ele>
        <time>2018-08-14T10:36:27Z</time>
      </trkpt>
      <trkpt lat="45.93427" lon="4.72399">
        <ele>174</ele>
        <time>2018-08-14T10:36:28Z</time>
      </trkpt>
      <trkpt lat="45.93418" lon="4.72401">
        <ele>174</ele>
        <time>2018-08-14T10:36:29Z</time>
      </trkpt>
      <trkpt lat="45.93413" lon="4.72403">
        <ele>174</ele>
        <time>2018-08-14T10:36:30Z</time>
      </trkpt>
      <trkpt lat="45.93405" lon="4.72403">
        <ele>174</ele>
        <time>2018-08-14T10:36:31Z</time>
      </trkpt>
      <trkpt lat="45.934" lon="4.72405">
        <ele>174</ele>
        <time>2018-08-14T10:36:32Z</time>
      </trkpt>
      <trkpt lat="45.93395" lon="4.72406">
        <ele>174</ele>
        <time>2018-08-14T10:36:33Z</time>
      </trkpt>
      <trkpt lat="45.9339" lon="4.72407">
        <ele>174</ele>
        <time>2018-08-14T10:36:34Z</time>
      </trkpt>
      <trkpt lat="45.93386" lon="4.7241">
        <ele>174</ele>
        <time>2018-08-14T10:36:35Z</time>
      </trkpt>
      <trkpt lat="45.93379" lon="4.72415">
        <ele>174</ele>
        <time>2018-08-14T10:36:37Z</time>
      </trkpt>
      <trkpt lat="45.9338" lon="4.72424">
        <ele>173</ele>
        <time>2018-08-14T10:36:38Z</time>
      </trkpt>
      <trkpt lat="45.93383" lon="4.72434">
        <ele>173</ele>
        <time>2018-08-14T10:36:39Z</time>
      </trkpt>
      <trkpt lat="45.93383" lon="4.72438">
        <ele>173</ele>
        <time>2018-08-14T10:36:40Z</time>
      </trkpt>
      <trkpt lat="45.93385" lon="4.72445">
        <ele>173</ele>
        <time>2018-08-14T10:36:41Z</time>
      </trkpt>
      <trkpt lat="45.93385" lon="4.72451">
        <ele>173</ele>
        <time>2018-08-14T10:36:42Z</time>
      </trkpt>
      <trkpt lat="45.93383" lon="4.72457">
        <ele>173</ele>
        <time>2018-08-14T10:36:43Z</time>
      </trkpt>
      <trkpt lat="45.93381" lon="4.72463">
        <ele>173</ele>
        <time>2018-08-14T10:36:44Z</time>
      </trkpt>
      <trkpt lat="45.93376" lon="4.72468">
        <ele>173</ele>
        <time>2018-08-14T10:36:45Z</time>
      </trkpt>
      <trkpt lat="45.93373" lon="4.72474">
        <ele>173</ele>
        <time>2018-08-14T10:36:46Z</time>
      </trkpt>
      <trkpt lat="45.9337" lon="4.72481">
        <ele>173</ele>
        <time>2018-08-14T10:36:47Z</time>
      </trkpt>
      <trkpt lat="45.93365" lon="4.72487">
        <ele>173</ele>
        <time>2018-08-14T10:36:48Z</time>
      </trkpt>
      <trkpt lat="45.93361" lon="4.72493">
        <ele>173</ele>
        <time>2018-08-14T10:36:49Z</time>
      </trkpt>
      <trkpt lat="45.93356" lon="4.72497">
        <ele>173</ele>
        <time>2018-08-14T10:36:50Z</time>
      </trkpt>
      <trkpt lat="45.9335" lon="4.72502">
        <ele>172</ele>
        <time>2018-08-14T10:36:51Z</time>
      </trkpt>
      <trkpt lat="45.93344" lon="4.72507">
        <ele>172</ele>
        <time>2018-08-14T10:36:52Z</time>
      </trkpt>
      <trkpt lat="45.93338" lon="4.72508">
        <ele>172</ele>
        <time>2018-08-14T10:36:53Z</time>
      </trkpt>
      <trkpt lat="45.93334" lon="4.72513">
        <ele>172</ele>
        <time>2018-08-14T10:36:54Z</time>
      </trkpt>
      <trkpt lat="45.93331" lon="4.7252">
        <ele>172</ele>
        <time>2018-08-14T10:36:55Z</time>
      </trkpt>
      <trkpt lat="45.93329" lon="4.72534">
        <ele>172</ele>
        <time>2018-08-14T10:36:56Z</time>
      </trkpt>
      <trkpt lat="45.93325" lon="4.72541">
        <ele>172</ele>
        <time>2018-08-14T10:36:57Z</time>
      </trkpt>
      <trkpt lat="45.9332" lon="4.72546">
        <ele>172</ele>
        <time>2018-08-14T10:36:58Z</time>
      </trkpt>
      <trkpt lat="45.93318" lon="4.72556">
        <ele>171</ele>
        <time>2018-08-14T10:36:59Z</time>
      </trkpt>
      <trkpt lat="45.93313" lon="4.72564">
        <ele>171</ele>
        <time>2018-08-14T10:37:00Z</time>
      </trkpt>
      <trkpt lat="45.93309" lon="4.72568">
        <ele>171</ele>
        <time>2018-08-14T10:37:01Z</time>
      </trkpt>
      <trkpt lat="45.93306" lon="4.72575">
        <ele>171</ele>
        <time>2018-08-14T10:37:02Z</time>
      </trkpt>
      <trkpt lat="45.933" lon="4.72576">
        <ele>171</ele>
        <time>2018-08-14T10:37:03Z</time>
      </trkpt>
      <trkpt lat="45.93296" lon="4.72582">
        <ele>171</ele>
        <time>2018-08-14T10:37:04Z</time>
      </trkpt>
      <trkpt lat="45.93291" lon="4.72588">
        <ele>170</ele>
        <time>2018-08-14T10:37:05Z</time>
      </trkpt>
      <trkpt lat="45.93286" lon="4.72591">
        <ele>170</ele>
        <time>2018-08-14T10:37:06Z</time>
      </trkpt>
      <trkpt lat="45.9328" lon="4.72594">
        <ele>170</ele>
        <time>2018-08-14T10:37:07Z</time>
      </trkpt>
      <trkpt lat="45.93275" lon="4.72599">
        <ele>170</ele>
        <time>2018-08-14T10:37:08Z</time>
      </trkpt>
      <trkpt lat="45.93271" lon="4.72605">
        <ele>170</ele>
        <time>2018-08-14T10:37:09Z</time>
      </trkpt>
      <trkpt lat="45.93268" lon="4.72616">
        <ele>170</ele>
        <time>2018-08-14T10:37:10Z</time>
      </trkpt>
      <trkpt lat="45.93264" lon="4.72621">
        <ele>170</ele>
        <time>2018-08-14T10:37:11Z</time>
      </trkpt>
      <trkpt lat="45.9326" lon="4.72626">
        <ele>170</ele>
        <time>2018-08-14T10:37:12Z</time>
      </trkpt>
      <trkpt lat="45.93254" lon="4.72626">
        <ele>170</ele>
        <time>2018-08-14T10:37:13Z</time>
      </trkpt>
      <trkpt lat="45.9325" lon="4.72627">
        <ele>170</ele>
        <time>2018-08-14T10:37:14Z</time>
      </trkpt>
      <trkpt lat="45.93247" lon="4.72634">
        <ele>170</ele>
        <time>2018-08-14T10:37:15Z</time>
      </trkpt>
      <trkpt lat="45.93242" lon="4.72639">
        <ele>170</ele>
        <time>2018-08-14T10:37:16Z</time>
      </trkpt>
      <trkpt lat="45.93237" lon="4.72644">
        <ele>170</ele>
        <time>2018-08-14T10:37:17Z</time>
      </trkpt>
      <trkpt lat="45.93231" lon="4.72649">
        <ele>170</ele>
        <time>2018-08-14T10:37:18Z</time>
      </trkpt>
      <trkpt lat="45.93227" lon="4.72655">
        <ele>170</ele>
        <time>2018-08-14T10:37:19Z</time>
      </trkpt>
      <trkpt lat="45.93222" lon="4.7266">
        <ele>170</ele>
        <time>2018-08-14T10:37:20Z</time>
      </trkpt>
      <trkpt lat="45.93216" lon="4.72665">
        <ele>170</ele>
        <time>2018-08-14T10:37:21Z</time>
      </trkpt>
      <trkpt lat="45.93211" lon="4.7267">
        <ele>169</ele>
        <time>2018-08-14T10:37:22Z</time>
      </trkpt>
      <trkpt lat="45.93207" lon="4.72679">
        <ele>169</ele>
        <time>2018-08-14T10:37:23Z</time>
      </trkpt>
      <trkpt lat="45.93202" lon="4.72685">
        <ele>169</ele>
        <time>2018-08-14T10:37:24Z</time>
      </trkpt>
      <trkpt lat="45.93197" lon="4.7269">
        <ele>169</ele>
        <time>2018-08-14T10:37:25Z</time>
      </trkpt>
      <trkpt lat="45.93192" lon="4.72694">
        <ele>169</ele>
        <time>2018-08-14T10:37:26Z</time>
      </trkpt>
      <trkpt lat="45.93187" lon="4.72699">
        <ele>169</ele>
        <time>2018-08-14T10:37:27Z</time>
      </trkpt>
      <trkpt lat="45.93182" lon="4.72704">
        <ele>169</ele>
        <time>2018-08-14T10:37:28Z</time>
      </trkpt>
      <trkpt lat="45.93178" lon="4.72707">
        <ele>169</ele>
        <time>2018-08-14T10:37:29Z</time>
      </trkpt>
      <trkpt lat="45.93172" lon="4.72714">
        <ele>170</ele>
        <time>2018-08-14T10:37:30Z</time>
      </trkpt>
      <trkpt lat="45.93166" lon="4.72718">
        <ele>170</ele>
        <time>2018-08-14T10:37:31Z</time>
      </trkpt>
      <trkpt lat="45.93162" lon="4.72726">
        <ele>170</ele>
        <time>2018-08-14T10:37:32Z</time>
      </trkpt>
      <trkpt lat="45.93157" lon="4.72732">
        <ele>170</ele>
        <time>2018-08-14T10:37:33Z</time>
      </trkpt>
      <trkpt lat="45.93154" lon="4.72737">
        <ele>170</ele>
        <time>2018-08-14T10:37:34Z</time>
      </trkpt>
      <trkpt lat="45.9315" lon="4.72744">
        <ele>170</ele>
        <time>2018-08-14T10:37:35Z</time>
      </trkpt>
      <trkpt lat="45.93145" lon="4.7275">
        <ele>170</ele>
        <time>2018-08-14T10:37:36Z</time>
      </trkpt>
      <trkpt lat="45.93141" lon="4.72759">
        <ele>171</ele>
        <time>2018-08-14T10:37:37Z</time>
      </trkpt>
      <trkpt lat="45.93138" lon="4.72768">
        <ele>171</ele>
        <time>2018-08-14T10:37:38Z</time>
      </trkpt>
      <trkpt lat="45.93133" lon="4.72774">
        <ele>171</ele>
        <time>2018-08-14T10:37:39Z</time>
      </trkpt>
      <trkpt lat="45.93127" lon="4.72775">
        <ele>171</ele>
        <time>2018-08-14T10:37:40Z</time>
      </trkpt>
      <trkpt lat="45.93123" lon="4.72781">
        <ele>171</ele>
        <time>2018-08-14T10:37:41Z</time>
      </trkpt>
      <trkpt lat="45.93114" lon="4.72776">
        <ele>171</ele>
        <time>2018-08-14T10:37:42Z</time>
      </trkpt>
      <trkpt lat="45.93108" lon="4.72777">
        <ele>171</ele>
        <time>2018-08-14T10:37:43Z</time>
      </trkpt>
      <trkpt lat="45.93104" lon="4.72783">
        <ele>171</ele>
        <time>2018-08-14T10:37:44Z</time>
      </trkpt>
      <trkpt lat="45.931" lon="4.72788">
        <ele>171</ele>
        <time>2018-08-14T10:37:45Z</time>
      </trkpt>
      <trkpt lat="45.93095" lon="4.72794">
        <ele>171</ele>
        <time>2018-08-14T10:37:46Z</time>
      </trkpt>
      <trkpt lat="45.93093" lon="4.72808">
        <ele>172</ele>
        <time>2018-08-14T10:37:47Z</time>
      </trkpt>
      <trkpt lat="45.93088" lon="4.72813">
        <ele>172</ele>
        <time>2018-08-14T10:37:48Z</time>
      </trkpt>
      <trkpt lat="45.93082" lon="4.72818">
        <ele>173</ele>
        <time>2018-08-14T10:37:49Z</time>
      </trkpt>
      <trkpt lat="45.93077" lon="4.72824">
        <ele>173</ele>
        <time>2018-08-14T10:37:51Z</time>
      </trkpt>
      <trkpt lat="45.93055" lon="4.72847">
        <ele>172</ele>
        <time>2018-08-14T10:37:54Z</time>
      </trkpt>
      <trkpt lat="45.9305" lon="4.72845">
        <ele>172</ele>
        <time>2018-08-14T10:37:56Z</time>
      </trkpt>
      <trkpt lat="45.93062" lon="4.72856">
        <ele>172</ele>
        <time>2018-08-14T10:37:57Z</time>
      </trkpt>
      <trkpt lat="45.93049" lon="4.72864">
        <ele>172</ele>
        <time>2018-08-14T10:37:58Z</time>
      </trkpt>
      <trkpt lat="45.93041" lon="4.72872">
        <ele>172</ele>
        <time>2018-08-14T10:37:59Z</time>
      </trkpt>
      <trkpt lat="45.93036" lon="4.72875">
        <ele>172</ele>
        <time>2018-08-14T10:38:00Z</time>
      </trkpt>
      <trkpt lat="45.93029" lon="4.7288">
        <ele>172</ele>
        <time>2018-08-14T10:38:01Z</time>
      </trkpt>
      <trkpt lat="45.93027" lon="4.72887">
        <ele>172</ele>
        <time>2018-08-14T10:38:02Z</time>
      </trkpt>
      <trkpt lat="45.93022" lon="4.72892">
        <ele>172</ele>
        <time>2018-08-14T10:38:03Z</time>
      </trkpt>
      <trkpt lat="45.93016" lon="4.72897">
        <ele>172</ele>
        <time>2018-08-14T10:38:04Z</time>
      </trkpt>
      <trkpt lat="45.93011" lon="4.72903">
        <ele>172</ele>
        <time>2018-08-14T10:38:05Z</time>
      </trkpt>
      <trkpt lat="45.93005" lon="4.72907">
        <ele>171</ele>
        <time>2018-08-14T10:38:06Z</time>
      </trkpt>
      <trkpt lat="45.93" lon="4.72913">
        <ele>171</ele>
        <time>2018-08-14T10:38:07Z</time>
      </trkpt>
      <trkpt lat="45.92995" lon="4.72918">
        <ele>171</ele>
        <time>2018-08-14T10:38:08Z</time>
      </trkpt>
      <trkpt lat="45.9299" lon="4.72922">
        <ele>171</ele>
        <time>2018-08-14T10:38:09Z</time>
      </trkpt>
      <trkpt lat="45.92986" lon="4.72928">
        <ele>171</ele>
        <time>2018-08-14T10:38:10Z</time>
      </trkpt>
      <trkpt lat="45.92983" lon="4.72934">
        <ele>171</ele>
        <time>2018-08-14T10:38:11Z</time>
      </trkpt>
      <trkpt lat="45.92978" lon="4.72938">
        <ele>171</ele>
        <time>2018-08-14T10:38:12Z</time>
      </trkpt>
      <trkpt lat="45.92973" lon="4.72939">
        <ele>171</ele>
        <time>2018-08-14T10:38:13Z</time>
      </trkpt>
      <trkpt lat="45.9297" lon="4.72945">
        <ele>171</ele>
        <time>2018-08-14T10:38:14Z</time>
      </trkpt>
      <trkpt lat="45.92966" lon="4.7295">
        <ele>171</ele>
        <time>2018-08-14T10:38:15Z</time>
      </trkpt>
      <trkpt lat="45.92961" lon="4.72953">
        <ele>171</ele>
        <time>2018-08-14T10:38:16Z</time>
      </trkpt>
      <trkpt lat="45.92956" lon="4.72958">
        <ele>171</ele>
        <time>2018-08-14T10:38:17Z</time>
      </trkpt>
      <trkpt lat="45.92951" lon="4.72963">
        <ele>171</ele>
        <time>2018-08-14T10:38:18Z</time>
      </trkpt>
      <trkpt lat="45.92946" lon="4.72965">
        <ele>171</ele>
        <time>2018-08-14T10:38:19Z</time>
      </trkpt>
      <trkpt lat="45.92942" lon="4.72971">
        <ele>171</ele>
        <time>2018-08-14T10:38:20Z</time>
      </trkpt>
      <trkpt lat="45.92937" lon="4.72977">
        <ele>171</ele>
        <time>2018-08-14T10:38:21Z</time>
      </trkpt>
      <trkpt lat="45.92933" lon="4.72982">
        <ele>172</ele>
        <time>2018-08-14T10:38:22Z</time>
      </trkpt>
      <trkpt lat="45.92929" lon="4.72988">
        <ele>172</ele>
        <time>2018-08-14T10:38:23Z</time>
      </trkpt>
      <trkpt lat="45.92923" lon="4.7299">
        <ele>172</ele>
        <time>2018-08-14T10:38:24Z</time>
      </trkpt>
      <trkpt lat="45.92918" lon="4.72997">
        <ele>172</ele>
        <time>2018-08-14T10:38:25Z</time>
      </trkpt>
      <trkpt lat="45.92913" lon="4.73003">
        <ele>172</ele>
        <time>2018-08-14T10:38:26Z</time>
      </trkpt>
      <trkpt lat="45.9291" lon="4.73011">
        <ele>172</ele>
        <time>2018-08-14T10:38:27Z</time>
      </trkpt>
      <trkpt lat="45.92906" lon="4.73017">
        <ele>172</ele>
        <time>2018-08-14T10:38:28Z</time>
      </trkpt>
      <trkpt lat="45.92901" lon="4.73024">
        <ele>172</ele>
        <time>2018-08-14T10:38:29Z</time>
      </trkpt>
      <trkpt lat="45.92897" lon="4.73031">
        <ele>172</ele>
        <time>2018-08-14T10:38:30Z</time>
      </trkpt>
      <trkpt lat="45.92893" lon="4.73035">
        <ele>172</ele>
        <time>2018-08-14T10:38:31Z</time>
      </trkpt>
      <trkpt lat="45.92889" lon="4.73041">
        <ele>172</ele>
        <time>2018-08-14T10:38:32Z</time>
      </trkpt>
      <trkpt lat="45.92886" lon="4.73048">
        <ele>172</ele>
        <time>2018-08-14T10:38:33Z</time>
      </trkpt>
      <trkpt lat="45.92884" lon="4.73057">
        <ele>172</ele>
        <time>2018-08-14T10:38:34Z</time>
      </trkpt>
      <trkpt lat="45.9288" lon="4.73062">
        <ele>172</ele>
        <time>2018-08-14T10:38:35Z</time>
      </trkpt>
      <trkpt lat="45.92876" lon="4.73066">
        <ele>172</ele>
        <time>2018-08-14T10:38:36Z</time>
      </trkpt>
      <trkpt lat="45.92872" lon="4.73071">
        <ele>172</ele>
        <time>2018-08-14T10:38:37Z</time>
      </trkpt>
      <trkpt lat="45.92869" lon="4.73076">
        <ele>172</ele>
        <time>2018-08-14T10:38:38Z</time>
      </trkpt>
      <trkpt lat="45.92864" lon="4.73079">
        <ele>171</ele>
        <time>2018-08-14T10:38:39Z</time>
      </trkpt>
      <trkpt lat="45.92859" lon="4.73085">
        <ele>171</ele>
        <time>2018-08-14T10:38:40Z</time>
      </trkpt>
      <trkpt lat="45.92855" lon="4.7309">
        <ele>171</ele>
        <time>2018-08-14T10:38:41Z</time>
      </trkpt>
      <trkpt lat="45.92847" lon="4.73093">
        <ele>171</ele>
        <time>2018-08-14T10:38:44Z</time>
      </trkpt>
      <trkpt lat="45.92845" lon="4.73092">
        <ele>171</ele>
        <time>2018-08-14T10:38:45Z</time>
      </trkpt>
      <trkpt lat="45.9284" lon="4.73081">
        <ele>171</ele>
        <time>2018-08-14T10:38:47Z</time>
      </trkpt>
      <trkpt lat="45.92841" lon="4.73076">
        <ele>171</ele>
        <time>2018-08-14T10:38:48Z</time>
      </trkpt>
      <trkpt lat="45.92841" lon="4.73064">
        <ele>171</ele>
        <time>2018-08-14T10:38:50Z</time>
      </trkpt>
      <trkpt lat="45.92841" lon="4.73057">
        <ele>171</ele>
        <time>2018-08-14T10:38:51Z</time>
      </trkpt>
      <trkpt lat="45.92846" lon="4.73053">
        <ele>171</ele>
        <time>2018-08-14T10:38:52Z</time>
      </trkpt>
      <trkpt lat="45.92843" lon="4.73043">
        <ele>171</ele>
        <time>2018-08-14T10:38:53Z</time>
      </trkpt>
      <trkpt lat="45.92838" lon="4.73033">
        <ele>171</ele>
        <time>2018-08-14T10:38:54Z</time>
      </trkpt>
      <trkpt lat="45.92833" lon="4.73024">
        <ele>170</ele>
        <time>2018-08-14T10:38:55Z</time>
      </trkpt>
      <trkpt lat="45.92832" lon="4.73017">
        <ele>170</ele>
        <time>2018-08-14T10:38:56Z</time>
      </trkpt>
      <trkpt lat="45.92831" lon="4.7301">
        <ele>170</ele>
        <time>2018-08-14T10:38:57Z</time>
      </trkpt>
      <trkpt lat="45.92828" lon="4.72998">
        <ele>170</ele>
        <time>2018-08-14T10:38:59Z</time>
      </trkpt>
      <trkpt lat="45.92826" lon="4.72988">
        <ele>170</ele>
        <time>2018-08-14T10:39:00Z</time>
      </trkpt>
      <trkpt lat="45.92824" lon="4.7298">
        <ele>170</ele>
        <time>2018-08-14T10:39:01Z</time>
      </trkpt>
      <trkpt lat="45.92823" lon="4.72971">
        <ele>170</ele>
        <time>2018-08-14T10:39:02Z</time>
      </trkpt>
      <trkpt lat="45.92822" lon="4.72964">
        <ele>170</ele>
        <time>2018-08-14T10:39:03Z</time>
      </trkpt>
      <trkpt lat="45.92822" lon="4.72955">
        <ele>170</ele>
        <time>2018-08-14T10:39:04Z</time>
      </trkpt>
      <trkpt lat="45.92822" lon="4.72948">
        <ele>170</ele>
        <time>2018-08-14T10:39:05Z</time>
      </trkpt>
      <trkpt lat="45.92821" lon="4.72941">
        <ele>170</ele>
        <time>2018-08-14T10:39:06Z</time>
      </trkpt>
      <trkpt lat="45.92821" lon="4.72934">
        <ele>170</ele>
        <time>2018-08-14T10:39:07Z</time>
      </trkpt>
      <trkpt lat="45.9282" lon="4.72927">
        <ele>170</ele>
        <time>2018-08-14T10:39:08Z</time>
      </trkpt>
      <trkpt lat="45.9282" lon="4.72919">
        <ele>170</ele>
        <time>2018-08-14T10:39:09Z</time>
      </trkpt>
      <trkpt lat="45.92819" lon="4.72912">
        <ele>170</ele>
        <time>2018-08-14T10:39:10Z</time>
      </trkpt>
      <trkpt lat="45.92818" lon="4.72906">
        <ele>170</ele>
        <time>2018-08-14T10:39:11Z</time>
      </trkpt>
      <trkpt lat="45.92817" lon="4.72898">
        <ele>170</ele>
        <time>2018-08-14T10:39:12Z</time>
      </trkpt>
      <trkpt lat="45.92815" lon="4.72892">
        <ele>170</ele>
        <time>2018-08-14T10:39:13Z</time>
      </trkpt>
      <trkpt lat="45.92816" lon="4.72885">
        <ele>170</ele>
        <time>2018-08-14T10:39:14Z</time>
      </trkpt>
      <trkpt lat="45.92812" lon="4.72878">
        <ele>170</ele>
        <time>2018-08-14T10:39:15Z</time>
      </trkpt>
      <trkpt lat="45.9281" lon="4.72869">
        <ele>170</ele>
        <time>2018-08-14T10:39:16Z</time>
      </trkpt>
      <trkpt lat="45.92808" lon="4.72862">
        <ele>170</ele>
        <time>2018-08-14T10:39:17Z</time>
      </trkpt>
      <trkpt lat="45.92807" lon="4.72855">
        <ele>170</ele>
        <time>2018-08-14T10:39:18Z</time>
      </trkpt>
      <trkpt lat="45.92806" lon="4.72848">
        <ele>170</ele>
        <time>2018-08-14T10:39:19Z</time>
      </trkpt>
      <trkpt lat="45.92805" lon="4.7284">
        <ele>170</ele>
        <time>2018-08-14T10:39:20Z</time>
      </trkpt>
      <trkpt lat="45.92803" lon="4.72834">
        <ele>170</ele>
        <time>2018-08-14T10:39:21Z</time>
      </trkpt>
      <trkpt lat="45.92801" lon="4.72826">
        <ele>170</ele>
        <time>2018-08-14T10:39:22Z</time>
      </trkpt>
      <trkpt lat="45.928" lon="4.72818">
        <ele>170</ele>
        <time>2018-08-14T10:39:23Z</time>
      </trkpt>
      <trkpt lat="45.92798" lon="4.72813">
        <ele>170</ele>
        <time>2018-08-14T10:39:24Z</time>
      </trkpt>
      <trkpt lat="45.92797" lon="4.72807">
        <ele>170</ele>
        <time>2018-08-14T10:39:25Z</time>
      </trkpt>
      <trkpt lat="45.92794" lon="4.728">
        <ele>170</ele>
        <time>2018-08-14T10:39:26Z</time>
      </trkpt>
      <trkpt lat="45.9279" lon="4.72789">
        <ele>171</ele>
        <time>2018-08-14T10:39:28Z</time>
      </trkpt>
      <trkpt lat="45.92788" lon="4.72787">
        <ele>171</ele>
        <time>2018-08-14T10:39:29Z</time>
      </trkpt>
      <trkpt lat="45.9278" lon="4.72786">
        <ele>170</ele>
        <time>2018-08-14T10:39:32Z</time>
      </trkpt>
      <trkpt lat="45.92775" lon="4.72791">
        <ele>170</ele>
        <time>2018-08-14T10:39:33Z</time>
      </trkpt>
      <trkpt lat="45.92767" lon="4.72795">
        <ele>170</ele>
        <time>2018-08-14T10:39:35Z</time>
      </trkpt>
      <trkpt lat="45.92762" lon="4.72798">
        <ele>170</ele>
        <time>2018-08-14T10:39:36Z</time>
      </trkpt>
      <trkpt lat="45.92759" lon="4.72803">
        <ele>170</ele>
        <time>2018-08-14T10:39:37Z</time>
      </trkpt>
      <trkpt lat="45.92755" lon="4.72807">
        <ele>170</ele>
        <time>2018-08-14T10:39:38Z</time>
      </trkpt>
      <trkpt lat="45.92752" lon="4.72814">
        <ele>170</ele>
        <time>2018-08-14T10:39:39Z</time>
      </trkpt>
      <trkpt lat="45.92748" lon="4.72817">
        <ele>169</ele>
        <time>2018-08-14T10:39:40Z</time>
      </trkpt>
      <trkpt lat="45.92743" lon="4.7282">
        <ele>169</ele>
        <time>2018-08-14T10:39:41Z</time>
      </trkpt>
      <trkpt lat="45.92739" lon="4.72822">
        <ele>169</ele>
        <time>2018-08-14T10:39:42Z</time>
      </trkpt>
      <trkpt lat="45.92734" lon="4.72823">
        <ele>170</ele>
        <time>2018-08-14T10:39:43Z</time>
      </trkpt>
      <trkpt lat="45.9273" lon="4.72827">
        <ele>170</ele>
        <time>2018-08-14T10:39:44Z</time>
      </trkpt>
      <trkpt lat="45.92722" lon="4.72833">
        <ele>170</ele>
        <time>2018-08-14T10:39:46Z</time>
      </trkpt>
      <trkpt lat="45.92719" lon="4.72843">
        <ele>169</ele>
        <time>2018-08-14T10:39:47Z</time>
      </trkpt>
      <trkpt lat="45.92716" lon="4.72849">
        <ele>169</ele>
        <time>2018-08-14T10:39:48Z</time>
      </trkpt>
      <trkpt lat="45.92712" lon="4.72855">
        <ele>169</ele>
        <time>2018-08-14T10:39:49Z</time>
      </trkpt>
      <trkpt lat="45.92707" lon="4.72859">
        <ele>169</ele>
        <time>2018-08-14T10:39:50Z</time>
      </trkpt>
      <trkpt lat="45.92702" lon="4.72863">
        <ele>169</ele>
        <time>2018-08-14T10:39:51Z</time>
      </trkpt>
      <trkpt lat="45.92696" lon="4.72866">
        <ele>169</ele>
        <time>2018-08-14T10:39:52Z</time>
      </trkpt>
      <trkpt lat="45.9269" lon="4.72869">
        <ele>169</ele>
        <time>2018-08-14T10:39:53Z</time>
      </trkpt>
      <trkpt lat="45.92684" lon="4.72873">
        <ele>169</ele>
        <time>2018-08-14T10:39:54Z</time>
      </trkpt>
      <trkpt lat="45.92679" lon="4.72877">
        <ele>170</ele>
        <time>2018-08-14T10:39:55Z</time>
      </trkpt>
      <trkpt lat="45.92674" lon="4.72881">
        <ele>170</ele>
        <time>2018-08-14T10:39:56Z</time>
      </trkpt>
      <trkpt lat="45.92669" lon="4.72885">
        <ele>170</ele>
        <time>2018-08-14T10:39:57Z</time>
      </trkpt>
      <trkpt lat="45.92663" lon="4.72889">
        <ele>169</ele>
        <time>2018-08-14T10:39:58Z</time>
      </trkpt>
      <trkpt lat="45.92658" lon="4.72892">
        <ele>169</ele>
        <time>2018-08-14T10:39:59Z</time>
      </trkpt>
      <trkpt lat="45.92653" lon="4.72897">
        <ele>170</ele>
        <time>2018-08-14T10:40:00Z</time>
      </trkpt>
      <trkpt lat="45.92649" lon="4.72901">
        <ele>170</ele>
        <time>2018-08-14T10:40:01Z</time>
      </trkpt>
      <trkpt lat="45.92643" lon="4.72903">
        <ele>169</ele>
        <time>2018-08-14T10:40:02Z</time>
      </trkpt>
      <trkpt lat="45.92638" lon="4.72907">
        <ele>169</ele>
        <time>2018-08-14T10:40:03Z</time>
      </trkpt>
      <trkpt lat="45.92634" lon="4.7291">
        <ele>169</ele>
        <time>2018-08-14T10:40:04Z</time>
      </trkpt>
      <trkpt lat="45.92627" lon="4.72915">
        <ele>169</ele>
        <time>2018-08-14T10:40:05Z</time>
      </trkpt>
      <trkpt lat="45.92621" lon="4.72918">
        <ele>169</ele>
        <time>2018-08-14T10:40:06Z</time>
      </trkpt>
      <trkpt lat="45.92616" lon="4.72924">
        <ele>169</ele>
        <time>2018-08-14T10:40:07Z</time>
      </trkpt>
      <trkpt lat="45.9261" lon="4.7293">
        <ele>169</ele>
        <time>2018-08-14T10:40:08Z</time>
      </trkpt>
      <trkpt lat="45.92603" lon="4.72935">
        <ele>169</ele>
        <time>2018-08-14T10:40:09Z</time>
      </trkpt>
      <trkpt lat="45.92597" lon="4.7294">
        <ele>169</ele>
        <time>2018-08-14T10:40:10Z</time>
      </trkpt>
      <trkpt lat="45.92592" lon="4.72946">
        <ele>169</ele>
        <time>2018-08-14T10:40:11Z</time>
      </trkpt>
      <trkpt lat="45.92587" lon="4.72951">
        <ele>169</ele>
        <time>2018-08-14T10:40:12Z</time>
      </trkpt>
      <trkpt lat="45.92585" lon="4.72967">
        <ele>169</ele>
        <time>2018-08-14T10:40:13Z</time>
      </trkpt>
      <trkpt lat="45.9258" lon="4.72971">
        <ele>169</ele>
        <time>2018-08-14T10:40:14Z</time>
      </trkpt>
      <trkpt lat="45.92575" lon="4.72977">
        <ele>169</ele>
        <time>2018-08-14T10:40:15Z</time>
      </trkpt>
      <trkpt lat="45.92568" lon="4.72978">
        <ele>169</ele>
        <time>2018-08-14T10:40:16Z</time>
      </trkpt>
      <trkpt lat="45.92563" lon="4.72983">
        <ele>169</ele>
        <time>2018-08-14T10:40:17Z</time>
      </trkpt>
      <trkpt lat="45.92558" lon="4.72989">
        <ele>169</ele>
        <time>2018-08-14T10:40:18Z</time>
      </trkpt>
      <trkpt lat="45.92553" lon="4.72994">
        <ele>169</ele>
        <time>2018-08-14T10:40:19Z</time>
      </trkpt>
      <trkpt lat="45.92548" lon="4.72999">
        <ele>169</ele>
        <time>2018-08-14T10:40:20Z</time>
      </trkpt>
      <trkpt lat="45.92543" lon="4.73004">
        <ele>169</ele>
        <time>2018-08-14T10:40:21Z</time>
      </trkpt>
      <trkpt lat="45.92539" lon="4.73015">
        <ele>169</ele>
        <time>2018-08-14T10:40:22Z</time>
      </trkpt>
      <trkpt lat="45.92534" lon="4.73022">
        <ele>169</ele>
        <time>2018-08-14T10:40:23Z</time>
      </trkpt>
      <trkpt lat="45.92529" lon="4.73027">
        <ele>169</ele>
        <time>2018-08-14T10:40:24Z</time>
      </trkpt>
      <trkpt lat="45.92523" lon="4.73031">
        <ele>169</ele>
        <time>2018-08-14T10:40:25Z</time>
      </trkpt>
      <trkpt lat="45.92518" lon="4.73035">
        <ele>169</ele>
        <time>2018-08-14T10:40:26Z</time>
      </trkpt>
      <trkpt lat="45.92512" lon="4.73035">
        <ele>169</ele>
        <time>2018-08-14T10:40:27Z</time>
      </trkpt>
      <trkpt lat="45.92507" lon="4.73037">
        <ele>169</ele>
        <time>2018-08-14T10:40:28Z</time>
      </trkpt>
      <trkpt lat="45.92503" lon="4.73044">
        <ele>170</ele>
        <time>2018-08-14T10:40:29Z</time>
      </trkpt>
      <trkpt lat="45.92498" lon="4.73051">
        <ele>170</ele>
        <time>2018-08-14T10:40:30Z</time>
      </trkpt>
      <trkpt lat="45.92492" lon="4.73055">
        <ele>170</ele>
        <time>2018-08-14T10:40:31Z</time>
      </trkpt>
      <trkpt lat="45.92485" lon="4.73058">
        <ele>170</ele>
        <time>2018-08-14T10:40:32Z</time>
      </trkpt>
      <trkpt lat="45.9248" lon="4.73063">
        <ele>170</ele>
        <time>2018-08-14T10:40:33Z</time>
      </trkpt>
      <trkpt lat="45.92472" lon="4.73063">
        <ele>170</ele>
        <time>2018-08-14T10:40:34Z</time>
      </trkpt>
      <trkpt lat="45.92466" lon="4.73067">
        <ele>170</ele>
        <time>2018-08-14T10:40:35Z</time>
      </trkpt>
      <trkpt lat="45.92461" lon="4.73069">
        <ele>170</ele>
        <time>2018-08-14T10:40:36Z</time>
      </trkpt>
      <trkpt lat="45.92456" lon="4.73073">
        <ele>170</ele>
        <time>2018-08-14T10:40:37Z</time>
      </trkpt>
      <trkpt lat="45.9245" lon="4.73078">
        <ele>170</ele>
        <time>2018-08-14T10:40:38Z</time>
      </trkpt>
      <trkpt lat="45.92446" lon="4.73081">
        <ele>170</ele>
        <time>2018-08-14T10:40:39Z</time>
      </trkpt>
      <trkpt lat="45.92441" lon="4.73084">
        <ele>171</ele>
        <time>2018-08-14T10:40:40Z</time>
      </trkpt>
      <trkpt lat="45.92436" lon="4.7309">
        <ele>171</ele>
        <time>2018-08-14T10:40:41Z</time>
      </trkpt>
      <trkpt lat="45.9243" lon="4.73089">
        <ele>171</ele>
        <time>2018-08-14T10:40:42Z</time>
      </trkpt>
      <trkpt lat="45.92425" lon="4.73092">
        <ele>171</ele>
        <time>2018-08-14T10:40:43Z</time>
      </trkpt>
      <trkpt lat="45.92421" lon="4.73094">
        <ele>171</ele>
        <time>2018-08-14T10:40:44Z</time>
      </trkpt>
      <trkpt lat="45.92417" lon="4.731">
        <ele>171</ele>
        <time>2018-08-14T10:40:45Z</time>
      </trkpt>
      <trkpt lat="45.92414" lon="4.73105">
        <ele>171</ele>
        <time>2018-08-14T10:40:46Z</time>
      </trkpt>
      <trkpt lat="45.92411" lon="4.73109">
        <ele>171</ele>
        <time>2018-08-14T10:40:47Z</time>
      </trkpt>
      <trkpt lat="45.92408" lon="4.73117">
        <ele>171</ele>
        <time>2018-08-14T10:40:48Z</time>
      </trkpt>
      <trkpt lat="45.92406" lon="4.73121">
        <ele>171</ele>
        <time>2018-08-14T10:40:49Z</time>
      </trkpt>
      <trkpt lat="45.92406" lon="4.73129">
        <ele>171</ele>
        <time>2018-08-14T10:40:50Z</time>
      </trkpt>
      <trkpt lat="45.92405" lon="4.73137">
        <ele>171</ele>
        <time>2018-08-14T10:40:51Z</time>
      </trkpt>
      <trkpt lat="45.92405" lon="4.73145">
        <ele>171</ele>
        <time>2018-08-14T10:40:52Z</time>
      </trkpt>
      <trkpt lat="45.92406" lon="4.73156">
        <ele>170</ele>
        <time>2018-08-14T10:40:53Z</time>
      </trkpt>
      <trkpt lat="45.92406" lon="4.73162">
        <ele>170</ele>
        <time>2018-08-14T10:40:54Z</time>
      </trkpt>
      <trkpt lat="45.92407" lon="4.73173">
        <ele>170</ele>
        <time>2018-08-14T10:40:55Z</time>
      </trkpt>
      <trkpt lat="45.92407" lon="4.73178">
        <ele>171</ele>
        <time>2018-08-14T10:40:56Z</time>
      </trkpt>
      <trkpt lat="45.92405" lon="4.73186">
        <ele>171</ele>
        <time>2018-08-14T10:40:57Z</time>
      </trkpt>
      <trkpt lat="45.92406" lon="4.73195">
        <ele>171</ele>
        <time>2018-08-14T10:40:58Z</time>
      </trkpt>
      <trkpt lat="45.92405" lon="4.73202">
        <ele>171</ele>
        <time>2018-08-14T10:40:59Z</time>
      </trkpt>
      <trkpt lat="45.92405" lon="4.7321">
        <ele>171</ele>
        <time>2018-08-14T10:41:00Z</time>
      </trkpt>
      <trkpt lat="45.92405" lon="4.73219">
        <ele>171</ele>
        <time>2018-08-14T10:41:01Z</time>
      </trkpt>
      <trkpt lat="45.92405" lon="4.73227">
        <ele>171</ele>
        <time>2018-08-14T10:41:02Z</time>
      </trkpt>
      <trkpt lat="45.92405" lon="4.73236">
        <ele>171</ele>
        <time>2018-08-14T10:41:03Z</time>
      </trkpt>
      <trkpt lat="45.92404" lon="4.73243">
        <ele>171</ele>
        <time>2018-08-14T10:41:04Z</time>
      </trkpt>
      <trkpt lat="45.92408" lon="4.7325">
        <ele>171</ele>
        <time>2018-08-14T10:41:05Z</time>
      </trkpt>
      <trkpt lat="45.92409" lon="4.73259">
        <ele>171</ele>
        <time>2018-08-14T10:41:06Z</time>
      </trkpt>
      <trkpt lat="45.92409" lon="4.73266">
        <ele>171</ele>
        <time>2018-08-14T10:41:07Z</time>
      </trkpt>
      <trkpt lat="45.9241" lon="4.73274">
        <ele>171</ele>
        <time>2018-08-14T10:41:08Z</time>
      </trkpt>
      <trkpt lat="45.9241" lon="4.73282">
        <ele>171</ele>
        <time>2018-08-14T10:41:09Z</time>
      </trkpt>
      <trkpt lat="45.92411" lon="4.7329">
        <ele>171</ele>
        <time>2018-08-14T10:41:10Z</time>
      </trkpt>
      <trkpt lat="45.92411" lon="4.73299">
        <ele>171</ele>
        <time>2018-08-14T10:41:11Z</time>
      </trkpt>
      <trkpt lat="45.92411" lon="4.73306">
        <ele>171</ele>
        <time>2018-08-14T10:41:12Z</time>
      </trkpt>
      <trkpt lat="45.92412" lon="4.73314">
        <ele>171</ele>
        <time>2018-08-14T10:41:13Z</time>
      </trkpt>
      <trkpt lat="45.92412" lon="4.73322">
        <ele>171</ele>
        <time>2018-08-14T10:41:14Z</time>
      </trkpt>
      <trkpt lat="45.92413" lon="4.7333">
        <ele>171</ele>
        <time>2018-08-14T10:41:15Z</time>
      </trkpt>
      <trkpt lat="45.92415" lon="4.73339">
        <ele>171</ele>
        <time>2018-08-14T10:41:16Z</time>
      </trkpt>
      <trkpt lat="45.92416" lon="4.73348">
        <ele>171</ele>
        <time>2018-08-14T10:41:17Z</time>
      </trkpt>
      <trkpt lat="45.92418" lon="4.73356">
        <ele>171</ele>
        <time>2018-08-14T10:41:18Z</time>
      </trkpt>
      <trkpt lat="45.92421" lon="4.7337">
        <ele>172</ele>
        <time>2018-08-14T10:41:19Z</time>
      </trkpt>
      <trkpt lat="45.92422" lon="4.73376">
        <ele>172</ele>
        <time>2018-08-14T10:41:20Z</time>
      </trkpt>
      <trkpt lat="45.92424" lon="4.73384">
        <ele>172</ele>
        <time>2018-08-14T10:41:21Z</time>
      </trkpt>
      <trkpt lat="45.92425" lon="4.73392">
        <ele>172</ele>
        <time>2018-08-14T10:41:22Z</time>
      </trkpt>
      <trkpt lat="45.92427" lon="4.73399">
        <ele>172</ele>
        <time>2018-08-14T10:41:23Z</time>
      </trkpt>
      <trkpt lat="45.9243" lon="4.73405">
        <ele>172</ele>
        <time>2018-08-14T10:41:24Z</time>
      </trkpt>
      <trkpt lat="45.92433" lon="4.73411">
        <ele>172</ele>
        <time>2018-08-14T10:41:25Z</time>
      </trkpt>
      <trkpt lat="45.92437" lon="4.73415">
        <ele>172</ele>
        <time>2018-08-14T10:41:26Z</time>
      </trkpt>
      <trkpt lat="45.92442" lon="4.73418">
        <ele>173</ele>
        <time>2018-08-14T10:41:27Z</time>
      </trkpt>
      <trkpt lat="45.92446" lon="4.73421">
        <ele>173</ele>
        <time>2018-08-14T10:41:28Z</time>
      </trkpt>
      <trkpt lat="45.9245" lon="4.73424">
        <ele>173</ele>
        <time>2018-08-14T10:41:29Z</time>
      </trkpt>
      <trkpt lat="45.92454" lon="4.73432">
        <ele>173</ele>
        <time>2018-08-14T10:41:31Z</time>
      </trkpt>
      <trkpt lat="45.92457" lon="4.73437">
        <ele>173</ele>
        <time>2018-08-14T10:41:32Z</time>
      </trkpt>
      <trkpt lat="45.92461" lon="4.73448">
        <ele>173</ele>
        <time>2018-08-14T10:41:34Z</time>
      </trkpt>
      <trkpt lat="45.92463" lon="4.73454">
        <ele>173</ele>
        <time>2018-08-14T10:41:35Z</time>
      </trkpt>
      <trkpt lat="45.92463" lon="4.73461">
        <ele>173</ele>
        <time>2018-08-14T10:41:36Z</time>
      </trkpt>
      <trkpt lat="45.92466" lon="4.7347">
        <ele>173</ele>
        <time>2018-08-14T10:41:37Z</time>
      </trkpt>
      <trkpt lat="45.92467" lon="4.73476">
        <ele>173</ele>
        <time>2018-08-14T10:41:38Z</time>
      </trkpt>
      <trkpt lat="45.92467" lon="4.73482">
        <ele>173</ele>
        <time>2018-08-14T10:41:39Z</time>
      </trkpt>
      <trkpt lat="45.92468" lon="4.7349">
        <ele>173</ele>
        <time>2018-08-14T10:41:40Z</time>
      </trkpt>
      <trkpt lat="45.92469" lon="4.73497">
        <ele>173</ele>
        <time>2018-08-14T10:41:41Z</time>
      </trkpt>
      <trkpt lat="45.92469" lon="4.73504">
        <ele>174</ele>
        <time>2018-08-14T10:41:42Z</time>
      </trkpt>
      <trkpt lat="45.92469" lon="4.73511">
        <ele>174</ele>
        <time>2018-08-14T10:41:43Z</time>
      </trkpt>
      <trkpt lat="45.92469" lon="4.73518">
        <ele>174</ele>
        <time>2018-08-14T10:41:44Z</time>
      </trkpt>
      <trkpt lat="45.92469" lon="4.73525">
        <ele>174</ele>
        <time>2018-08-14T10:41:45Z</time>
      </trkpt>
      <trkpt lat="45.92468" lon="4.73532">
        <ele>174</ele>
        <time>2018-08-14T10:41:46Z</time>
      </trkpt>
      <trkpt lat="45.92468" lon="4.73539">
        <ele>174</ele>
        <time>2018-08-14T10:41:47Z</time>
      </trkpt>
      <trkpt lat="45.92468" lon="4.73546">
        <ele>173</ele>
        <time>2018-08-14T10:41:48Z</time>
      </trkpt>
      <trkpt lat="45.92468" lon="4.73553">
        <ele>173</ele>
        <time>2018-08-14T10:41:49Z</time>
      </trkpt>
      <trkpt lat="45.92468" lon="4.73566">
        <ele>173</ele>
        <time>2018-08-14T10:41:51Z</time>
      </trkpt>
      <trkpt lat="45.92468" lon="4.73574">
        <ele>173</ele>
        <time>2018-08-14T10:41:52Z</time>
      </trkpt>
      <trkpt lat="45.92468" lon="4.73581">
        <ele>173</ele>
        <time>2018-08-14T10:41:53Z</time>
      </trkpt>
      <trkpt lat="45.92468" lon="4.73587">
        <ele>174</ele>
        <time>2018-08-14T10:41:54Z</time>
      </trkpt>
      <trkpt lat="45.92468" lon="4.73595">
        <ele>174</ele>
        <time>2018-08-14T10:41:55Z</time>
      </trkpt>
      <trkpt lat="45.92469" lon="4.73605">
        <ele>174</ele>
        <time>2018-08-14T10:41:56Z</time>
      </trkpt>
      <trkpt lat="45.9247" lon="4.73613">
        <ele>174</ele>
        <time>2018-08-14T10:41:57Z</time>
      </trkpt>
      <trkpt lat="45.9247" lon="4.73621">
        <ele>174</ele>
        <time>2018-08-14T10:41:58Z</time>
      </trkpt>
      <trkpt lat="45.9247" lon="4.73629">
        <ele>174</ele>
        <time>2018-08-14T10:41:59Z</time>
      </trkpt>
      <trkpt lat="45.92471" lon="4.73636">
        <ele>174</ele>
        <time>2018-08-14T10:42:00Z</time>
      </trkpt>
      <trkpt lat="45.92471" lon="4.7364">
        <ele>174</ele>
        <time>2018-08-14T10:42:01Z</time>
      </trkpt>
      <trkpt lat="45.9247" lon="4.73651">
        <ele>174</ele>
        <time>2018-08-14T10:42:02Z</time>
      </trkpt>
      <trkpt lat="45.9247" lon="4.73659">
        <ele>174</ele>
        <time>2018-08-14T10:42:03Z</time>
      </trkpt>
      <trkpt lat="45.92468" lon="4.73664">
        <ele>174</ele>
        <time>2018-08-14T10:42:04Z</time>
      </trkpt>
      <trkpt lat="45.92467" lon="4.73671">
        <ele>174</ele>
        <time>2018-08-14T10:42:05Z</time>
      </trkpt>
      <trkpt lat="45.92466" lon="4.73677">
        <ele>174</ele>
        <time>2018-08-14T10:42:06Z</time>
      </trkpt>
      <trkpt lat="45.92465" lon="4.73689">
        <ele>174</ele>
        <time>2018-08-14T10:42:08Z</time>
      </trkpt>
      <trkpt lat="45.92464" lon="4.73693">
        <ele>174</ele>
        <time>2018-08-14T10:42:09Z</time>
      </trkpt>
      <trkpt lat="45.92461" lon="4.73705">
        <ele>174</ele>
        <time>2018-08-14T10:42:19Z</time>
      </trkpt>
      <trkpt lat="45.92461" lon="4.73705">
        <ele>174</ele>
        <time>2018-08-14T10:42:20Z</time>
      </trkpt>
      <trkpt lat="45.92459" lon="4.73704">
        <ele>174</ele>
        <time>2018-08-14T10:43:00.166Z</time>
      </trkpt>
    </trkseg>
  </trk>
</gpx>